<?xml version="1.0" encoding="UTF-8"?>
<gpx version="1.1" creator="https://www.youtrack.es" xsi:schemaLocation="http://www.topografix.com/GPX/1/1 http://www.topografix.com/GPX/1/1/gpx.xsd http://www.garmin.com/xmlschemas/GpxExtensions/v3 http://www.garmin.com/xmlschemas/GpxExtensionsv3.xsd http://www.garmin.com/xmlschemas/TrackPointExtension/v1 http://www.garmin.com/xmlschemas/TrackPointExtensionv1.xsd" xmlns:gpxtpx="http://www.garmin.com/xmlschemas/TrackPointExtension/v1" xmlns:gpxx="http://www.garmin.com/xmlschemas/GpxExtensions/v3" xmlns:xsi="http://www.w3.org/2001/XMLSchema-instance">
  <metadata>
    <link href="https://www.youtrack.es">
      <text>YouTrack.es</text>
    </link>
    <time>2026-05-09T01:05:46Z</time>
  </metadata>
  <trk>
    <src>https://www.youtrack.es</src>
    <link href="https://www.youtrack.es/ruta/5730-miguel">
      <text>YouTrack.es</text>
    </link>
    <trkseg>
      <trkpt lat="38.4745780" lon="-0.7976130">
        <ele>407.8</ele>
        <time>2019-05-12T04:26:20Z</time>
      </trkpt>
      <trkpt lat="38.4744870" lon="-0.7979510">
        <ele>407.8</ele>
        <time>2019-05-12T04:26:26Z</time>
      </trkpt>
      <trkpt lat="38.4743950" lon="-0.7983560">
        <ele>406.8</ele>
        <time>2019-05-12T04:26:33Z</time>
      </trkpt>
      <trkpt lat="38.4743380" lon="-0.7986950">
        <ele>406.8</ele>
        <time>2019-05-12T04:26:39Z</time>
      </trkpt>
      <trkpt lat="38.4743220" lon="-0.7988020">
        <ele>406.8</ele>
        <time>2019-05-12T04:26:41Z</time>
      </trkpt>
      <trkpt lat="38.4742810" lon="-0.7990690">
        <ele>406.0</ele>
        <time>2019-05-12T04:26:46Z</time>
      </trkpt>
      <trkpt lat="38.4742300" lon="-0.7993700">
        <ele>405.2</ele>
        <time>2019-05-12T04:26:51Z</time>
      </trkpt>
      <trkpt lat="38.4742080" lon="-0.7994970">
        <ele>404.8</ele>
        <time>2019-05-12T04:26:53Z</time>
      </trkpt>
      <trkpt lat="38.4741550" lon="-0.7998600">
        <ele>404.4</ele>
        <time>2019-05-12T04:26:59Z</time>
      </trkpt>
      <trkpt lat="38.4741630" lon="-0.7999940">
        <ele>404.0</ele>
        <time>2019-05-12T04:27:01Z</time>
      </trkpt>
      <trkpt lat="38.4741920" lon="-0.8000560">
        <ele>403.8</ele>
        <time>2019-05-12T04:27:02Z</time>
      </trkpt>
      <trkpt lat="38.4742700" lon="-0.8002930">
        <ele>403.8</ele>
        <time>2019-05-12T04:27:06Z</time>
      </trkpt>
      <trkpt lat="38.4742480" lon="-0.8004070">
        <ele>403.4</ele>
        <time>2019-05-12T04:27:08Z</time>
      </trkpt>
      <trkpt lat="38.4742380" lon="-0.8004620">
        <ele>403.2</ele>
        <time>2019-05-12T04:27:09Z</time>
      </trkpt>
      <trkpt lat="38.4742410" lon="-0.8005170">
        <ele>403.2</ele>
        <time>2019-05-12T04:27:10Z</time>
      </trkpt>
      <trkpt lat="38.4742560" lon="-0.8005690">
        <ele>403.0</ele>
        <time>2019-05-12T04:27:11Z</time>
      </trkpt>
      <trkpt lat="38.4743130" lon="-0.8006700">
        <ele>403.0</ele>
        <time>2019-05-12T04:27:13Z</time>
      </trkpt>
      <trkpt lat="38.4744840" lon="-0.8009150">
        <ele>402.8</ele>
        <time>2019-05-12T04:27:19Z</time>
      </trkpt>
      <trkpt lat="38.4745130" lon="-0.8009230">
        <ele>402.8</ele>
        <time>2019-05-12T04:27:20Z</time>
      </trkpt>
      <trkpt lat="38.4745560" lon="-0.8009500">
        <ele>403.2</ele>
        <time>2019-05-12T04:27:22Z</time>
      </trkpt>
      <trkpt lat="38.4746500" lon="-0.8010460">
        <ele>403.2</ele>
        <time>2019-05-12T04:27:27Z</time>
      </trkpt>
      <trkpt lat="38.4747530" lon="-0.8010680">
        <ele>403.0</ele>
        <time>2019-05-12T04:27:30Z</time>
      </trkpt>
      <trkpt lat="38.4748030" lon="-0.8010600">
        <ele>403.0</ele>
        <time>2019-05-12T04:27:31Z</time>
      </trkpt>
      <trkpt lat="38.4749280" lon="-0.8010460">
        <ele>401.6</ele>
        <time>2019-05-12T04:27:33Z</time>
      </trkpt>
      <trkpt lat="38.4749930" lon="-0.8010430">
        <ele>400.8</ele>
        <time>2019-05-12T04:27:34Z</time>
      </trkpt>
      <trkpt lat="38.4750510" lon="-0.8010490">
        <ele>400.2</ele>
        <time>2019-05-12T04:27:35Z</time>
      </trkpt>
      <trkpt lat="38.4751730" lon="-0.8010830">
        <ele>398.8</ele>
        <time>2019-05-12T04:27:37Z</time>
      </trkpt>
      <trkpt lat="38.4752400" lon="-0.8010860">
        <ele>398.4</ele>
        <time>2019-05-12T04:27:38Z</time>
      </trkpt>
      <trkpt lat="38.4753060" lon="-0.8010770">
        <ele>397.8</ele>
        <time>2019-05-12T04:27:39Z</time>
      </trkpt>
      <trkpt lat="38.4756330" lon="-0.8010390">
        <ele>397.0</ele>
        <time>2019-05-12T04:27:44Z</time>
      </trkpt>
      <trkpt lat="38.4756900" lon="-0.8010270">
        <ele>397.2</ele>
        <time>2019-05-12T04:27:45Z</time>
      </trkpt>
      <trkpt lat="38.4758470" lon="-0.8009860">
        <ele>397.6</ele>
        <time>2019-05-12T04:27:48Z</time>
      </trkpt>
      <trkpt lat="38.4758990" lon="-0.8009820">
        <ele>397.6</ele>
        <time>2019-05-12T04:27:49Z</time>
      </trkpt>
      <trkpt lat="38.4762610" lon="-0.8009220">
        <ele>398.0</ele>
        <time>2019-05-12T04:27:56Z</time>
      </trkpt>
      <trkpt lat="38.4764220" lon="-0.8008810">
        <ele>398.8</ele>
        <time>2019-05-12T04:28:00Z</time>
      </trkpt>
      <trkpt lat="38.4764950" lon="-0.8008830">
        <ele>399.0</ele>
        <time>2019-05-12T04:28:02Z</time>
      </trkpt>
      <trkpt lat="38.4767500" lon="-0.8008690">
        <ele>399.0</ele>
        <time>2019-05-12T04:28:08Z</time>
      </trkpt>
      <trkpt lat="38.4770760" lon="-0.8008130">
        <ele>399.4</ele>
        <time>2019-05-12T04:28:16Z</time>
      </trkpt>
      <trkpt lat="38.4773860" lon="-0.8007570">
        <ele>399.8</ele>
        <time>2019-05-12T04:28:24Z</time>
      </trkpt>
      <trkpt lat="38.4774660" lon="-0.8007660">
        <ele>400.0</ele>
        <time>2019-05-12T04:28:26Z</time>
      </trkpt>
      <trkpt lat="38.4776260" lon="-0.8007520">
        <ele>400.0</ele>
        <time>2019-05-12T04:28:30Z</time>
      </trkpt>
      <trkpt lat="38.4778520" lon="-0.8007150">
        <ele>400.2</ele>
        <time>2019-05-12T04:28:36Z</time>
      </trkpt>
      <trkpt lat="38.4781080" lon="-0.8007030">
        <ele>400.2</ele>
        <time>2019-05-12T04:28:43Z</time>
      </trkpt>
      <trkpt lat="38.4784120" lon="-0.8008000">
        <ele>400.8</ele>
        <time>2019-05-12T04:28:51Z</time>
      </trkpt>
      <trkpt lat="38.4785590" lon="-0.8008880">
        <ele>401.0</ele>
        <time>2019-05-12T04:28:55Z</time>
      </trkpt>
      <trkpt lat="38.4787080" lon="-0.8009450">
        <ele>400.8</ele>
        <time>2019-05-12T04:28:59Z</time>
      </trkpt>
      <trkpt lat="38.4788480" lon="-0.8009360">
        <ele>400.8</ele>
        <time>2019-05-12T04:29:03Z</time>
      </trkpt>
      <trkpt lat="38.4788900" lon="-0.8009400">
        <ele>400.8</ele>
        <time>2019-05-12T04:29:04Z</time>
      </trkpt>
      <trkpt lat="38.4789430" lon="-0.8009340">
        <ele>400.6</ele>
        <time>2019-05-12T04:29:05Z</time>
      </trkpt>
      <trkpt lat="38.4790720" lon="-0.8008970">
        <ele>399.8</ele>
        <time>2019-05-12T04:29:08Z</time>
      </trkpt>
      <trkpt lat="38.4792390" lon="-0.8008920">
        <ele>399.4</ele>
        <time>2019-05-12T04:29:11Z</time>
      </trkpt>
      <trkpt lat="38.4792850" lon="-0.8008960">
        <ele>399.6</ele>
        <time>2019-05-12T04:29:12Z</time>
      </trkpt>
      <trkpt lat="38.4794340" lon="-0.8008950">
        <ele>401.2</ele>
        <time>2019-05-12T04:29:16Z</time>
      </trkpt>
      <trkpt lat="38.4794730" lon="-0.8008910">
        <ele>401.8</ele>
        <time>2019-05-12T04:29:17Z</time>
      </trkpt>
      <trkpt lat="38.4795500" lon="-0.8008830">
        <ele>402.2</ele>
        <time>2019-05-12T04:29:19Z</time>
      </trkpt>
      <trkpt lat="38.4797070" lon="-0.8008540">
        <ele>402.0</ele>
        <time>2019-05-12T04:29:23Z</time>
      </trkpt>
      <trkpt lat="38.4798810" lon="-0.8008280">
        <ele>402.2</ele>
        <time>2019-05-12T04:29:27Z</time>
      </trkpt>
      <trkpt lat="38.4799670" lon="-0.8008100">
        <ele>402.2</ele>
        <time>2019-05-12T04:29:29Z</time>
      </trkpt>
      <trkpt lat="38.4802790" lon="-0.8006650">
        <ele>402.4</ele>
        <time>2019-05-12T04:29:37Z</time>
      </trkpt>
      <trkpt lat="38.4803190" lon="-0.8006460">
        <ele>402.4</ele>
        <time>2019-05-12T04:29:38Z</time>
      </trkpt>
      <trkpt lat="38.4805440" lon="-0.8004970">
        <ele>402.4</ele>
        <time>2019-05-12T04:29:44Z</time>
      </trkpt>
      <trkpt lat="38.4805780" lon="-0.8004670">
        <ele>402.4</ele>
        <time>2019-05-12T04:29:45Z</time>
      </trkpt>
      <trkpt lat="38.4806430" lon="-0.8004010">
        <ele>402.4</ele>
        <time>2019-05-12T04:29:47Z</time>
      </trkpt>
      <trkpt lat="38.4806980" lon="-0.8003290">
        <ele>402.6</ele>
        <time>2019-05-12T04:29:49Z</time>
      </trkpt>
      <trkpt lat="38.4807450" lon="-0.8002680">
        <ele>402.6</ele>
        <time>2019-05-12T04:29:51Z</time>
      </trkpt>
      <trkpt lat="38.4807720" lon="-0.8002660">
        <ele>402.6</ele>
        <time>2019-05-12T04:29:52Z</time>
      </trkpt>
      <trkpt lat="38.4808380" lon="-0.8003510">
        <ele>402.8</ele>
        <time>2019-05-12T04:29:55Z</time>
      </trkpt>
      <trkpt lat="38.4809410" lon="-0.8005390">
        <ele>403.2</ele>
        <time>2019-05-12T04:30:00Z</time>
      </trkpt>
      <trkpt lat="38.4809770" lon="-0.8005640">
        <ele>403.4</ele>
        <time>2019-05-12T04:30:01Z</time>
      </trkpt>
      <trkpt lat="38.4810460" lon="-0.8005410">
        <ele>403.2</ele>
        <time>2019-05-12T04:30:03Z</time>
      </trkpt>
      <trkpt lat="38.4810950" lon="-0.8004760">
        <ele>403.2</ele>
        <time>2019-05-12T04:30:05Z</time>
      </trkpt>
      <trkpt lat="38.4812050" lon="-0.8003460">
        <ele>403.4</ele>
        <time>2019-05-12T04:30:09Z</time>
      </trkpt>
      <trkpt lat="38.4814240" lon="-0.8001360">
        <ele>403.8</ele>
        <time>2019-05-12T04:30:16Z</time>
      </trkpt>
      <trkpt lat="38.4815550" lon="-0.7999390">
        <ele>404.0</ele>
        <time>2019-05-12T04:30:21Z</time>
      </trkpt>
      <trkpt lat="38.4817110" lon="-0.7995290">
        <ele>404.4</ele>
        <time>2019-05-12T04:30:30Z</time>
      </trkpt>
      <trkpt lat="38.4817180" lon="-0.7993330">
        <ele>404.2</ele>
        <time>2019-05-12T04:30:34Z</time>
      </trkpt>
      <trkpt lat="38.4817140" lon="-0.7992810">
        <ele>404.0</ele>
        <time>2019-05-12T04:30:35Z</time>
      </trkpt>
      <trkpt lat="38.4817280" lon="-0.7990790">
        <ele>404.6</ele>
        <time>2019-05-12T04:30:39Z</time>
      </trkpt>
      <trkpt lat="38.4817850" lon="-0.7986710">
        <ele>405.2</ele>
        <time>2019-05-12T04:30:47Z</time>
      </trkpt>
      <trkpt lat="38.4817890" lon="-0.7986200">
        <ele>405.4</ele>
        <time>2019-05-12T04:30:48Z</time>
      </trkpt>
      <trkpt lat="38.4818080" lon="-0.7984210">
        <ele>405.6</ele>
        <time>2019-05-12T04:30:52Z</time>
      </trkpt>
      <trkpt lat="38.4818130" lon="-0.7983690">
        <ele>405.4</ele>
        <time>2019-05-12T04:30:53Z</time>
      </trkpt>
      <trkpt lat="38.4818440" lon="-0.7982180">
        <ele>405.6</ele>
        <time>2019-05-12T04:30:56Z</time>
      </trkpt>
      <trkpt lat="38.4818590" lon="-0.7981180">
        <ele>405.8</ele>
        <time>2019-05-12T04:30:58Z</time>
      </trkpt>
      <trkpt lat="38.4818760" lon="-0.7978640">
        <ele>406.0</ele>
        <time>2019-05-12T04:31:03Z</time>
      </trkpt>
      <trkpt lat="38.4819130" lon="-0.7975630">
        <ele>406.0</ele>
        <time>2019-05-12T04:31:09Z</time>
      </trkpt>
      <trkpt lat="38.4819150" lon="-0.7975120">
        <ele>406.2</ele>
        <time>2019-05-12T04:31:10Z</time>
      </trkpt>
      <trkpt lat="38.4819260" lon="-0.7973720">
        <ele>406.6</ele>
        <time>2019-05-12T04:31:13Z</time>
      </trkpt>
      <trkpt lat="38.4819620" lon="-0.7972250">
        <ele>406.8</ele>
        <time>2019-05-12T04:31:16Z</time>
      </trkpt>
      <trkpt lat="38.4820040" lon="-0.7969400">
        <ele>406.8</ele>
        <time>2019-05-12T04:31:22Z</time>
      </trkpt>
      <trkpt lat="38.4820500" lon="-0.7966620">
        <ele>407.2</ele>
        <time>2019-05-12T04:31:28Z</time>
      </trkpt>
      <trkpt lat="38.4820660" lon="-0.7966200">
        <ele>407.6</ele>
        <time>2019-05-12T04:31:29Z</time>
      </trkpt>
      <trkpt lat="38.4821450" lon="-0.7964540">
        <ele>408.0</ele>
        <time>2019-05-12T04:31:33Z</time>
      </trkpt>
      <trkpt lat="38.4823060" lon="-0.7961970">
        <ele>408.6</ele>
        <time>2019-05-12T04:31:40Z</time>
      </trkpt>
      <trkpt lat="38.4824710" lon="-0.7960970">
        <ele>408.8</ele>
        <time>2019-05-12T04:31:45Z</time>
      </trkpt>
      <trkpt lat="38.4826300" lon="-0.7960900">
        <ele>409.4</ele>
        <time>2019-05-12T04:31:50Z</time>
      </trkpt>
      <trkpt lat="38.4827040" lon="-0.7961230">
        <ele>409.8</ele>
        <time>2019-05-12T04:31:52Z</time>
      </trkpt>
      <trkpt lat="38.4828490" lon="-0.7961690">
        <ele>410.2</ele>
        <time>2019-05-12T04:31:56Z</time>
      </trkpt>
      <trkpt lat="38.4830660" lon="-0.7962100">
        <ele>410.8</ele>
        <time>2019-05-12T04:32:02Z</time>
      </trkpt>
      <trkpt lat="38.4831010" lon="-0.7962160">
        <ele>410.8</ele>
        <time>2019-05-12T04:32:03Z</time>
      </trkpt>
      <trkpt lat="38.4834320" lon="-0.7962830">
        <ele>411.6</ele>
        <time>2019-05-12T04:32:12Z</time>
      </trkpt>
      <trkpt lat="38.4836620" lon="-0.7963290">
        <ele>412.0</ele>
        <time>2019-05-12T04:32:18Z</time>
      </trkpt>
      <trkpt lat="38.4837420" lon="-0.7963450">
        <ele>412.0</ele>
        <time>2019-05-12T04:32:20Z</time>
      </trkpt>
      <trkpt lat="38.4840090" lon="-0.7964210">
        <ele>412.4</ele>
        <time>2019-05-12T04:32:27Z</time>
      </trkpt>
      <trkpt lat="38.4842590" lon="-0.7965190">
        <ele>412.0</ele>
        <time>2019-05-12T04:32:33Z</time>
      </trkpt>
      <trkpt lat="38.4845170" lon="-0.7966080">
        <ele>412.2</ele>
        <time>2019-05-12T04:32:39Z</time>
      </trkpt>
      <trkpt lat="38.4846970" lon="-0.7967350">
        <ele>412.2</ele>
        <time>2019-05-12T04:32:44Z</time>
      </trkpt>
      <trkpt lat="38.4849450" lon="-0.7969410">
        <ele>413.0</ele>
        <time>2019-05-12T04:32:51Z</time>
      </trkpt>
      <trkpt lat="38.4852160" lon="-0.7970840">
        <ele>413.4</ele>
        <time>2019-05-12T04:32:58Z</time>
      </trkpt>
      <trkpt lat="38.4854720" lon="-0.7971330">
        <ele>413.6</ele>
        <time>2019-05-12T04:33:04Z</time>
      </trkpt>
      <trkpt lat="38.4857720" lon="-0.7971070">
        <ele>414.0</ele>
        <time>2019-05-12T04:33:11Z</time>
      </trkpt>
      <trkpt lat="38.4858120" lon="-0.7970970">
        <ele>414.2</ele>
        <time>2019-05-12T04:33:12Z</time>
      </trkpt>
      <trkpt lat="38.4860170" lon="-0.7970340">
        <ele>414.4</ele>
        <time>2019-05-12T04:33:17Z</time>
      </trkpt>
      <trkpt lat="38.4863510" lon="-0.7969430">
        <ele>414.6</ele>
        <time>2019-05-12T04:33:25Z</time>
      </trkpt>
      <trkpt lat="38.4865110" lon="-0.7969090">
        <ele>415.2</ele>
        <time>2019-05-12T04:33:29Z</time>
      </trkpt>
      <trkpt lat="38.4866260" lon="-0.7968690">
        <ele>415.2</ele>
        <time>2019-05-12T04:33:32Z</time>
      </trkpt>
      <trkpt lat="38.4869360" lon="-0.7967870">
        <ele>415.6</ele>
        <time>2019-05-12T04:33:40Z</time>
      </trkpt>
      <trkpt lat="38.4872510" lon="-0.7966990">
        <ele>415.8</ele>
        <time>2019-05-12T04:33:48Z</time>
      </trkpt>
      <trkpt lat="38.4873690" lon="-0.7966760">
        <ele>416.2</ele>
        <time>2019-05-12T04:33:51Z</time>
      </trkpt>
      <trkpt lat="38.4875310" lon="-0.7966500">
        <ele>416.4</ele>
        <time>2019-05-12T04:33:55Z</time>
      </trkpt>
      <trkpt lat="38.4877980" lon="-0.7965960">
        <ele>417.0</ele>
        <time>2019-05-12T04:34:02Z</time>
      </trkpt>
      <trkpt lat="38.4878350" lon="-0.7965860">
        <ele>417.2</ele>
        <time>2019-05-12T04:34:03Z</time>
      </trkpt>
      <trkpt lat="38.4881050" lon="-0.7964880">
        <ele>417.4</ele>
        <time>2019-05-12T04:34:10Z</time>
      </trkpt>
      <trkpt lat="38.4884120" lon="-0.7963520">
        <ele>417.6</ele>
        <time>2019-05-12T04:34:18Z</time>
      </trkpt>
      <trkpt lat="38.4885180" lon="-0.7962860">
        <ele>418.2</ele>
        <time>2019-05-12T04:34:21Z</time>
      </trkpt>
      <trkpt lat="38.4885860" lon="-0.7962390">
        <ele>418.2</ele>
        <time>2019-05-12T04:34:23Z</time>
      </trkpt>
      <trkpt lat="38.4886530" lon="-0.7961900">
        <ele>418.0</ele>
        <time>2019-05-12T04:34:25Z</time>
      </trkpt>
      <trkpt lat="38.4888530" lon="-0.7959670">
        <ele>418.8</ele>
        <time>2019-05-12T04:34:32Z</time>
      </trkpt>
      <trkpt lat="38.4890000" lon="-0.7956740">
        <ele>418.8</ele>
        <time>2019-05-12T04:34:39Z</time>
      </trkpt>
      <trkpt lat="38.4891080" lon="-0.7953750">
        <ele>419.4</ele>
        <time>2019-05-12T04:34:46Z</time>
      </trkpt>
      <trkpt lat="38.4891180" lon="-0.7953300">
        <ele>419.6</ele>
        <time>2019-05-12T04:34:47Z</time>
      </trkpt>
      <trkpt lat="38.4891980" lon="-0.7950020">
        <ele>419.6</ele>
        <time>2019-05-12T04:34:54Z</time>
      </trkpt>
      <trkpt lat="38.4892900" lon="-0.7946140">
        <ele>419.6</ele>
        <time>2019-05-12T04:35:02Z</time>
      </trkpt>
      <trkpt lat="38.4893580" lon="-0.7942860">
        <ele>420.4</ele>
        <time>2019-05-12T04:35:09Z</time>
      </trkpt>
      <trkpt lat="38.4893670" lon="-0.7942470">
        <ele>420.4</ele>
        <time>2019-05-12T04:35:10Z</time>
      </trkpt>
      <trkpt lat="38.4894410" lon="-0.7940860">
        <ele>420.6</ele>
        <time>2019-05-12T04:35:14Z</time>
      </trkpt>
      <trkpt lat="38.4895750" lon="-0.7938040">
        <ele>420.4</ele>
        <time>2019-05-12T04:35:20Z</time>
      </trkpt>
      <trkpt lat="38.4896130" lon="-0.7937000">
        <ele>420.2</ele>
        <time>2019-05-12T04:35:22Z</time>
      </trkpt>
      <trkpt lat="38.4896690" lon="-0.7934960">
        <ele>420.0</ele>
        <time>2019-05-12T04:35:26Z</time>
      </trkpt>
      <trkpt lat="38.4896570" lon="-0.7932880">
        <ele>420.2</ele>
        <time>2019-05-12T04:35:30Z</time>
      </trkpt>
      <trkpt lat="38.4896810" lon="-0.7930310">
        <ele>420.8</ele>
        <time>2019-05-12T04:35:36Z</time>
      </trkpt>
      <trkpt lat="38.4897140" lon="-0.7929250">
        <ele>420.8</ele>
        <time>2019-05-12T04:35:39Z</time>
      </trkpt>
      <trkpt lat="38.4897830" lon="-0.7929190">
        <ele>420.8</ele>
        <time>2019-05-12T04:35:41Z</time>
      </trkpt>
      <trkpt lat="38.4898860" lon="-0.7929770">
        <ele>420.2</ele>
        <time>2019-05-12T04:35:43Z</time>
      </trkpt>
      <trkpt lat="38.4899300" lon="-0.7929930">
        <ele>420.4</ele>
        <time>2019-05-12T04:35:45Z</time>
      </trkpt>
      <trkpt lat="38.4900610" lon="-0.7930380">
        <ele>421.2</ele>
        <time>2019-05-12T04:35:50Z</time>
      </trkpt>
      <trkpt lat="38.4900850" lon="-0.7930440">
        <ele>421.6</ele>
        <time>2019-05-12T04:35:51Z</time>
      </trkpt>
      <trkpt lat="38.4901900" lon="-0.7930750">
        <ele>422.6</ele>
        <time>2019-05-12T04:35:55Z</time>
      </trkpt>
      <trkpt lat="38.4902410" lon="-0.7930820">
        <ele>423.0</ele>
        <time>2019-05-12T04:35:57Z</time>
      </trkpt>
      <trkpt lat="38.4902900" lon="-0.7930500">
        <ele>423.4</ele>
        <time>2019-05-12T04:35:59Z</time>
      </trkpt>
      <trkpt lat="38.4903080" lon="-0.7930230">
        <ele>423.8</ele>
        <time>2019-05-12T04:36:00Z</time>
      </trkpt>
      <trkpt lat="38.4903200" lon="-0.7929880">
        <ele>424.2</ele>
        <time>2019-05-12T04:36:01Z</time>
      </trkpt>
      <trkpt lat="38.4903750" lon="-0.7927270">
        <ele>423.8</ele>
        <time>2019-05-12T04:36:07Z</time>
      </trkpt>
      <trkpt lat="38.4904610" lon="-0.7924310">
        <ele>423.6</ele>
        <time>2019-05-12T04:36:14Z</time>
      </trkpt>
      <trkpt lat="38.4904900" lon="-0.7923950">
        <ele>423.4</ele>
        <time>2019-05-12T04:36:15Z</time>
      </trkpt>
      <trkpt lat="38.4905750" lon="-0.7923550">
        <ele>423.0</ele>
        <time>2019-05-12T04:36:17Z</time>
      </trkpt>
      <trkpt lat="38.4906230" lon="-0.7923450">
        <ele>422.6</ele>
        <time>2019-05-12T04:36:18Z</time>
      </trkpt>
      <trkpt lat="38.4907740" lon="-0.7923420">
        <ele>422.2</ele>
        <time>2019-05-12T04:36:21Z</time>
      </trkpt>
      <trkpt lat="38.4908640" lon="-0.7923480">
        <ele>421.8</ele>
        <time>2019-05-12T04:36:23Z</time>
      </trkpt>
      <trkpt lat="38.4909870" lon="-0.7923830">
        <ele>422.0</ele>
        <time>2019-05-12T04:36:26Z</time>
      </trkpt>
      <trkpt lat="38.4910290" lon="-0.7923920">
        <ele>421.8</ele>
        <time>2019-05-12T04:36:27Z</time>
      </trkpt>
      <trkpt lat="38.4910710" lon="-0.7924050">
        <ele>421.8</ele>
        <time>2019-05-12T04:36:28Z</time>
      </trkpt>
      <trkpt lat="38.4911160" lon="-0.7924140">
        <ele>421.6</ele>
        <time>2019-05-12T04:36:29Z</time>
      </trkpt>
      <trkpt lat="38.4912520" lon="-0.7924230">
        <ele>421.6</ele>
        <time>2019-05-12T04:36:32Z</time>
      </trkpt>
      <trkpt lat="38.4914010" lon="-0.7923860">
        <ele>422.0</ele>
        <time>2019-05-12T04:36:36Z</time>
      </trkpt>
      <trkpt lat="38.4916570" lon="-0.7923370">
        <ele>422.6</ele>
        <time>2019-05-12T04:36:43Z</time>
      </trkpt>
      <trkpt lat="38.4917260" lon="-0.7923130">
        <ele>423.0</ele>
        <time>2019-05-12T04:36:45Z</time>
      </trkpt>
      <trkpt lat="38.4918420" lon="-0.7922490">
        <ele>423.2</ele>
        <time>2019-05-12T04:36:48Z</time>
      </trkpt>
      <trkpt lat="38.4920520" lon="-0.7922130">
        <ele>423.0</ele>
        <time>2019-05-12T04:36:53Z</time>
      </trkpt>
      <trkpt lat="38.4921840" lon="-0.7921050">
        <ele>423.0</ele>
        <time>2019-05-12T04:36:57Z</time>
      </trkpt>
      <trkpt lat="38.4923470" lon="-0.7919210">
        <ele>423.2</ele>
        <time>2019-05-12T04:37:03Z</time>
      </trkpt>
      <trkpt lat="38.4924170" lon="-0.7918490">
        <ele>424.0</ele>
        <time>2019-05-12T04:37:06Z</time>
      </trkpt>
      <trkpt lat="38.4924460" lon="-0.7918190">
        <ele>424.0</ele>
        <time>2019-05-12T04:37:07Z</time>
      </trkpt>
      <trkpt lat="38.4925840" lon="-0.7916440">
        <ele>424.6</ele>
        <time>2019-05-12T04:37:13Z</time>
      </trkpt>
      <trkpt lat="38.4925820" lon="-0.7914590">
        <ele>424.6</ele>
        <time>2019-05-12T04:37:17Z</time>
      </trkpt>
      <trkpt lat="38.4926530" lon="-0.7912000">
        <ele>424.6</ele>
        <time>2019-05-12T04:37:23Z</time>
      </trkpt>
      <trkpt lat="38.4926730" lon="-0.7910950">
        <ele>425.4</ele>
        <time>2019-05-12T04:37:26Z</time>
      </trkpt>
      <trkpt lat="38.4926880" lon="-0.7909670">
        <ele>425.2</ele>
        <time>2019-05-12T04:37:29Z</time>
      </trkpt>
      <trkpt lat="38.4926870" lon="-0.7908090">
        <ele>425.2</ele>
        <time>2019-05-12T04:37:32Z</time>
      </trkpt>
      <trkpt lat="38.4927010" lon="-0.7907140">
        <ele>425.4</ele>
        <time>2019-05-12T04:37:34Z</time>
      </trkpt>
      <trkpt lat="38.4927370" lon="-0.7905180">
        <ele>426.2</ele>
        <time>2019-05-12T04:37:39Z</time>
      </trkpt>
      <trkpt lat="38.4927700" lon="-0.7904570">
        <ele>426.4</ele>
        <time>2019-05-12T04:37:41Z</time>
      </trkpt>
      <trkpt lat="38.4928160" lon="-0.7903520">
        <ele>427.0</ele>
        <time>2019-05-12T04:37:44Z</time>
      </trkpt>
      <trkpt lat="38.4928800" lon="-0.7902030">
        <ele>427.6</ele>
        <time>2019-05-12T04:37:48Z</time>
      </trkpt>
      <trkpt lat="38.4929010" lon="-0.7901380">
        <ele>427.8</ele>
        <time>2019-05-12T04:37:50Z</time>
      </trkpt>
      <trkpt lat="38.4929340" lon="-0.7900120">
        <ele>428.6</ele>
        <time>2019-05-12T04:37:54Z</time>
      </trkpt>
      <trkpt lat="38.4929520" lon="-0.7899270">
        <ele>429.4</ele>
        <time>2019-05-12T04:37:57Z</time>
      </trkpt>
      <trkpt lat="38.4929640" lon="-0.7898950">
        <ele>429.6</ele>
        <time>2019-05-12T04:37:58Z</time>
      </trkpt>
      <trkpt lat="38.4929790" lon="-0.7898710">
        <ele>429.8</ele>
        <time>2019-05-12T04:37:59Z</time>
      </trkpt>
      <trkpt lat="38.4930180" lon="-0.7898060">
        <ele>430.6</ele>
        <time>2019-05-12T04:38:02Z</time>
      </trkpt>
      <trkpt lat="38.4930280" lon="-0.7897850">
        <ele>431.0</ele>
        <time>2019-05-12T04:38:03Z</time>
      </trkpt>
      <trkpt lat="38.4930520" lon="-0.7897170">
        <ele>432.2</ele>
        <time>2019-05-12T04:38:06Z</time>
      </trkpt>
      <trkpt lat="38.4930670" lon="-0.7896690">
        <ele>432.6</ele>
        <time>2019-05-12T04:38:08Z</time>
      </trkpt>
      <trkpt lat="38.4931020" lon="-0.7896080">
        <ele>433.2</ele>
        <time>2019-05-12T04:38:11Z</time>
      </trkpt>
      <trkpt lat="38.4931220" lon="-0.7895610">
        <ele>433.6</ele>
        <time>2019-05-12T04:38:13Z</time>
      </trkpt>
      <trkpt lat="38.4931410" lon="-0.7895180">
        <ele>434.2</ele>
        <time>2019-05-12T04:38:15Z</time>
      </trkpt>
      <trkpt lat="38.4931900" lon="-0.7894340">
        <ele>435.2</ele>
        <time>2019-05-12T04:38:19Z</time>
      </trkpt>
      <trkpt lat="38.4932260" lon="-0.7893010">
        <ele>436.4</ele>
        <time>2019-05-12T04:38:24Z</time>
      </trkpt>
      <trkpt lat="38.4932380" lon="-0.7892470">
        <ele>436.8</ele>
        <time>2019-05-12T04:38:26Z</time>
      </trkpt>
      <trkpt lat="38.4932500" lon="-0.7891680">
        <ele>437.6</ele>
        <time>2019-05-12T04:38:29Z</time>
      </trkpt>
      <trkpt lat="38.4932640" lon="-0.7890540">
        <ele>438.0</ele>
        <time>2019-05-12T04:38:33Z</time>
      </trkpt>
      <trkpt lat="38.4932990" lon="-0.7889170">
        <ele>438.6</ele>
        <time>2019-05-12T04:38:38Z</time>
      </trkpt>
      <trkpt lat="38.4933160" lon="-0.7888340">
        <ele>439.0</ele>
        <time>2019-05-12T04:38:41Z</time>
      </trkpt>
      <trkpt lat="38.4933670" lon="-0.7886330">
        <ele>438.8</ele>
        <time>2019-05-12T04:38:47Z</time>
      </trkpt>
      <trkpt lat="38.4934840" lon="-0.7883640">
        <ele>438.4</ele>
        <time>2019-05-12T04:38:54Z</time>
      </trkpt>
      <trkpt lat="38.4935420" lon="-0.7879920">
        <ele>437.8</ele>
        <time>2019-05-12T04:39:01Z</time>
      </trkpt>
      <trkpt lat="38.4936100" lon="-0.7876100">
        <ele>437.4</ele>
        <time>2019-05-12T04:39:08Z</time>
      </trkpt>
      <trkpt lat="38.4936400" lon="-0.7874900">
        <ele>437.4</ele>
        <time>2019-05-12T04:39:10Z</time>
      </trkpt>
      <trkpt lat="38.4937010" lon="-0.7872530">
        <ele>436.8</ele>
        <time>2019-05-12T04:39:14Z</time>
      </trkpt>
      <trkpt lat="38.4937690" lon="-0.7871080">
        <ele>437.0</ele>
        <time>2019-05-12T04:39:17Z</time>
      </trkpt>
      <trkpt lat="38.4937870" lon="-0.7870610">
        <ele>437.0</ele>
        <time>2019-05-12T04:39:18Z</time>
      </trkpt>
      <trkpt lat="38.4938160" lon="-0.7869260">
        <ele>437.2</ele>
        <time>2019-05-12T04:39:21Z</time>
      </trkpt>
      <trkpt lat="38.4938080" lon="-0.7868780">
        <ele>437.6</ele>
        <time>2019-05-12T04:39:22Z</time>
      </trkpt>
      <trkpt lat="38.4937880" lon="-0.7867200">
        <ele>436.8</ele>
        <time>2019-05-12T04:39:25Z</time>
      </trkpt>
      <trkpt lat="38.4938000" lon="-0.7865930">
        <ele>436.0</ele>
        <time>2019-05-12T04:39:27Z</time>
      </trkpt>
      <trkpt lat="38.4938190" lon="-0.7864010">
        <ele>435.2</ele>
        <time>2019-05-12T04:39:30Z</time>
      </trkpt>
      <trkpt lat="38.4937740" lon="-0.7861420">
        <ele>435.2</ele>
        <time>2019-05-12T04:39:34Z</time>
      </trkpt>
      <trkpt lat="38.4937860" lon="-0.7859380">
        <ele>435.0</ele>
        <time>2019-05-12T04:39:37Z</time>
      </trkpt>
      <trkpt lat="38.4938030" lon="-0.7858720">
        <ele>434.8</ele>
        <time>2019-05-12T04:39:38Z</time>
      </trkpt>
      <trkpt lat="38.4938290" lon="-0.7858130">
        <ele>434.6</ele>
        <time>2019-05-12T04:39:39Z</time>
      </trkpt>
      <trkpt lat="38.4938970" lon="-0.7857080">
        <ele>434.6</ele>
        <time>2019-05-12T04:39:41Z</time>
      </trkpt>
      <trkpt lat="38.4940410" lon="-0.7856620">
        <ele>434.6</ele>
        <time>2019-05-12T04:39:44Z</time>
      </trkpt>
      <trkpt lat="38.4942230" lon="-0.7856980">
        <ele>436.0</ele>
        <time>2019-05-12T04:39:48Z</time>
      </trkpt>
      <trkpt lat="38.4942520" lon="-0.7857040">
        <ele>436.0</ele>
        <time>2019-05-12T04:39:49Z</time>
      </trkpt>
      <trkpt lat="38.4945530" lon="-0.7858270">
        <ele>436.0</ele>
        <time>2019-05-12T04:39:56Z</time>
      </trkpt>
      <trkpt lat="38.4947550" lon="-0.7859450">
        <ele>436.6</ele>
        <time>2019-05-12T04:40:01Z</time>
      </trkpt>
      <trkpt lat="38.4949950" lon="-0.7860780">
        <ele>436.8</ele>
        <time>2019-05-12T04:40:07Z</time>
      </trkpt>
      <trkpt lat="38.4950370" lon="-0.7860860">
        <ele>437.0</ele>
        <time>2019-05-12T04:40:09Z</time>
      </trkpt>
      <trkpt lat="38.4950870" lon="-0.7861020">
        <ele>437.0</ele>
        <time>2019-05-12T04:40:11Z</time>
      </trkpt>
      <trkpt lat="38.4951500" lon="-0.7861450">
        <ele>437.8</ele>
        <time>2019-05-12T04:40:14Z</time>
      </trkpt>
      <trkpt lat="38.4951970" lon="-0.7862050">
        <ele>437.8</ele>
        <time>2019-05-12T04:40:16Z</time>
      </trkpt>
      <trkpt lat="38.4952920" lon="-0.7862950">
        <ele>437.0</ele>
        <time>2019-05-12T04:40:19Z</time>
      </trkpt>
      <trkpt lat="38.4953360" lon="-0.7863300">
        <ele>436.6</ele>
        <time>2019-05-12T04:40:20Z</time>
      </trkpt>
      <trkpt lat="38.4953830" lon="-0.7863810">
        <ele>436.0</ele>
        <time>2019-05-12T04:40:21Z</time>
      </trkpt>
      <trkpt lat="38.4954600" lon="-0.7865100">
        <ele>434.6</ele>
        <time>2019-05-12T04:40:23Z</time>
      </trkpt>
      <trkpt lat="38.4954950" lon="-0.7866450">
        <ele>433.2</ele>
        <time>2019-05-12T04:40:25Z</time>
      </trkpt>
      <trkpt lat="38.4955290" lon="-0.7867620">
        <ele>432.8</ele>
        <time>2019-05-12T04:40:27Z</time>
      </trkpt>
      <trkpt lat="38.4955480" lon="-0.7868170">
        <ele>433.0</ele>
        <time>2019-05-12T04:40:28Z</time>
      </trkpt>
      <trkpt lat="38.4955640" lon="-0.7869820">
        <ele>434.0</ele>
        <time>2019-05-12T04:40:31Z</time>
      </trkpt>
      <trkpt lat="38.4955100" lon="-0.7871230">
        <ele>434.2</ele>
        <time>2019-05-12T04:40:34Z</time>
      </trkpt>
      <trkpt lat="38.4955030" lon="-0.7871720">
        <ele>434.2</ele>
        <time>2019-05-12T04:40:35Z</time>
      </trkpt>
      <trkpt lat="38.4955020" lon="-0.7872840">
        <ele>434.8</ele>
        <time>2019-05-12T04:40:39Z</time>
      </trkpt>
      <trkpt lat="38.4955060" lon="-0.7873040">
        <ele>434.8</ele>
        <time>2019-05-12T04:40:40Z</time>
      </trkpt>
      <trkpt lat="38.4955020" lon="-0.7873490">
        <ele>435.2</ele>
        <time>2019-05-12T04:40:42Z</time>
      </trkpt>
      <trkpt lat="38.4955000" lon="-0.7873740">
        <ele>435.6</ele>
        <time>2019-05-12T04:40:43Z</time>
      </trkpt>
      <trkpt lat="38.4954950" lon="-0.7874010">
        <ele>435.6</ele>
        <time>2019-05-12T04:40:44Z</time>
      </trkpt>
      <trkpt lat="38.4954790" lon="-0.7874610">
        <ele>436.0</ele>
        <time>2019-05-12T04:40:46Z</time>
      </trkpt>
      <trkpt lat="38.4954740" lon="-0.7874930">
        <ele>436.2</ele>
        <time>2019-05-12T04:40:47Z</time>
      </trkpt>
      <trkpt lat="38.4954710" lon="-0.7875210">
        <ele>436.6</ele>
        <time>2019-05-12T04:40:48Z</time>
      </trkpt>
      <trkpt lat="38.4954670" lon="-0.7875500">
        <ele>437.4</ele>
        <time>2019-05-12T04:40:49Z</time>
      </trkpt>
      <trkpt lat="38.4954690" lon="-0.7875990">
        <ele>438.4</ele>
        <time>2019-05-12T04:40:51Z</time>
      </trkpt>
      <trkpt lat="38.4954850" lon="-0.7876100">
        <ele>438.6</ele>
        <time>2019-05-12T04:40:52Z</time>
      </trkpt>
      <trkpt lat="38.4955540" lon="-0.7875690">
        <ele>439.4</ele>
        <time>2019-05-12T04:40:55Z</time>
      </trkpt>
      <trkpt lat="38.4955750" lon="-0.7875540">
        <ele>439.6</ele>
        <time>2019-05-12T04:40:56Z</time>
      </trkpt>
      <trkpt lat="38.4956660" lon="-0.7875610">
        <ele>440.4</ele>
        <time>2019-05-12T04:41:00Z</time>
      </trkpt>
      <trkpt lat="38.4956870" lon="-0.7875750">
        <ele>440.6</ele>
        <time>2019-05-12T04:41:01Z</time>
      </trkpt>
      <trkpt lat="38.4957300" lon="-0.7875950">
        <ele>441.0</ele>
        <time>2019-05-12T04:41:03Z</time>
      </trkpt>
      <trkpt lat="38.4957970" lon="-0.7876310">
        <ele>441.6</ele>
        <time>2019-05-12T04:41:06Z</time>
      </trkpt>
      <trkpt lat="38.4958210" lon="-0.7876390">
        <ele>441.8</ele>
        <time>2019-05-12T04:41:07Z</time>
      </trkpt>
      <trkpt lat="38.4959010" lon="-0.7876740">
        <ele>442.8</ele>
        <time>2019-05-12T04:41:11Z</time>
      </trkpt>
      <trkpt lat="38.4959250" lon="-0.7876790">
        <ele>442.8</ele>
        <time>2019-05-12T04:41:12Z</time>
      </trkpt>
      <trkpt lat="38.4960290" lon="-0.7877060">
        <ele>443.0</ele>
        <time>2019-05-12T04:41:16Z</time>
      </trkpt>
      <trkpt lat="38.4961680" lon="-0.7877730">
        <ele>443.2</ele>
        <time>2019-05-12T04:41:21Z</time>
      </trkpt>
      <trkpt lat="38.4964190" lon="-0.7879210">
        <ele>443.8</ele>
        <time>2019-05-12T04:41:29Z</time>
      </trkpt>
      <trkpt lat="38.4965700" lon="-0.7880060">
        <ele>443.8</ele>
        <time>2019-05-12T04:41:33Z</time>
      </trkpt>
      <trkpt lat="38.4967120" lon="-0.7881050">
        <ele>444.0</ele>
        <time>2019-05-12T04:41:37Z</time>
      </trkpt>
      <trkpt lat="38.4969260" lon="-0.7882250">
        <ele>444.4</ele>
        <time>2019-05-12T04:41:43Z</time>
      </trkpt>
      <trkpt lat="38.4970630" lon="-0.7883100">
        <ele>445.0</ele>
        <time>2019-05-12T04:41:47Z</time>
      </trkpt>
      <trkpt lat="38.4971980" lon="-0.7883900">
        <ele>445.0</ele>
        <time>2019-05-12T04:41:51Z</time>
      </trkpt>
      <trkpt lat="38.4974410" lon="-0.7885430">
        <ele>445.6</ele>
        <time>2019-05-12T04:41:58Z</time>
      </trkpt>
      <trkpt lat="38.4976650" lon="-0.7886750">
        <ele>446.2</ele>
        <time>2019-05-12T04:42:04Z</time>
      </trkpt>
      <trkpt lat="38.4977010" lon="-0.7886980">
        <ele>446.4</ele>
        <time>2019-05-12T04:42:05Z</time>
      </trkpt>
      <trkpt lat="38.4978690" lon="-0.7887970">
        <ele>447.2</ele>
        <time>2019-05-12T04:42:10Z</time>
      </trkpt>
      <trkpt lat="38.4979670" lon="-0.7888550">
        <ele>448.0</ele>
        <time>2019-05-12T04:42:13Z</time>
      </trkpt>
      <trkpt lat="38.4979990" lon="-0.7888770">
        <ele>448.2</ele>
        <time>2019-05-12T04:42:14Z</time>
      </trkpt>
      <trkpt lat="38.4981840" lon="-0.7889860">
        <ele>449.4</ele>
        <time>2019-05-12T04:42:20Z</time>
      </trkpt>
      <trkpt lat="38.4982130" lon="-0.7890050">
        <ele>449.6</ele>
        <time>2019-05-12T04:42:21Z</time>
      </trkpt>
      <trkpt lat="38.4983580" lon="-0.7891010">
        <ele>450.4</ele>
        <time>2019-05-12T04:42:26Z</time>
      </trkpt>
      <trkpt lat="38.4984170" lon="-0.7891340">
        <ele>450.8</ele>
        <time>2019-05-12T04:42:28Z</time>
      </trkpt>
      <trkpt lat="38.4985290" lon="-0.7892020">
        <ele>451.4</ele>
        <time>2019-05-12T04:42:32Z</time>
      </trkpt>
      <trkpt lat="38.4985570" lon="-0.7892200">
        <ele>451.6</ele>
        <time>2019-05-12T04:42:33Z</time>
      </trkpt>
      <trkpt lat="38.4986960" lon="-0.7893150">
        <ele>452.8</ele>
        <time>2019-05-12T04:42:38Z</time>
      </trkpt>
      <trkpt lat="38.4987840" lon="-0.7893760">
        <ele>453.6</ele>
        <time>2019-05-12T04:42:41Z</time>
      </trkpt>
      <trkpt lat="38.4988120" lon="-0.7893980">
        <ele>453.8</ele>
        <time>2019-05-12T04:42:42Z</time>
      </trkpt>
      <trkpt lat="38.4989210" lon="-0.7895420">
        <ele>455.0</ele>
        <time>2019-05-12T04:42:47Z</time>
      </trkpt>
      <trkpt lat="38.4989360" lon="-0.7895780">
        <ele>455.2</ele>
        <time>2019-05-12T04:42:48Z</time>
      </trkpt>
      <trkpt lat="38.4989630" lon="-0.7897870">
        <ele>455.4</ele>
        <time>2019-05-12T04:42:53Z</time>
      </trkpt>
      <trkpt lat="38.4989030" lon="-0.7899720">
        <ele>455.6</ele>
        <time>2019-05-12T04:42:58Z</time>
      </trkpt>
      <trkpt lat="38.4988800" lon="-0.7899990">
        <ele>456.0</ele>
        <time>2019-05-12T04:42:59Z</time>
      </trkpt>
      <trkpt lat="38.4987380" lon="-0.7901240">
        <ele>456.6</ele>
        <time>2019-05-12T04:43:04Z</time>
      </trkpt>
      <trkpt lat="38.4986360" lon="-0.7901560">
        <ele>457.4</ele>
        <time>2019-05-12T04:43:07Z</time>
      </trkpt>
      <trkpt lat="38.4985290" lon="-0.7901660">
        <ele>457.6</ele>
        <time>2019-05-12T04:43:10Z</time>
      </trkpt>
      <trkpt lat="38.4983120" lon="-0.7900840">
        <ele>458.0</ele>
        <time>2019-05-12T04:43:16Z</time>
      </trkpt>
      <trkpt lat="38.4981360" lon="-0.7898990">
        <ele>458.0</ele>
        <time>2019-05-12T04:43:22Z</time>
      </trkpt>
      <trkpt lat="38.4980910" lon="-0.7898150">
        <ele>458.2</ele>
        <time>2019-05-12T04:43:24Z</time>
      </trkpt>
      <trkpt lat="38.4980580" lon="-0.7897180">
        <ele>458.4</ele>
        <time>2019-05-12T04:43:26Z</time>
      </trkpt>
      <trkpt lat="38.4980330" lon="-0.7896110">
        <ele>458.2</ele>
        <time>2019-05-12T04:43:28Z</time>
      </trkpt>
      <trkpt lat="38.4980300" lon="-0.7895530">
        <ele>458.0</ele>
        <time>2019-05-12T04:43:29Z</time>
      </trkpt>
      <trkpt lat="38.4980380" lon="-0.7893720">
        <ele>458.2</ele>
        <time>2019-05-12T04:43:32Z</time>
      </trkpt>
      <trkpt lat="38.4980510" lon="-0.7893120">
        <ele>457.6</ele>
        <time>2019-05-12T04:43:33Z</time>
      </trkpt>
      <trkpt lat="38.4981370" lon="-0.7890910">
        <ele>457.2</ele>
        <time>2019-05-12T04:43:37Z</time>
      </trkpt>
      <trkpt lat="38.4981790" lon="-0.7889720">
        <ele>456.8</ele>
        <time>2019-05-12T04:43:39Z</time>
      </trkpt>
      <trkpt lat="38.4984110" lon="-0.7883570">
        <ele>456.2</ele>
        <time>2019-05-12T04:43:49Z</time>
      </trkpt>
      <trkpt lat="38.4984360" lon="-0.7882980">
        <ele>455.8</ele>
        <time>2019-05-12T04:43:50Z</time>
      </trkpt>
      <trkpt lat="38.4984930" lon="-0.7881880">
        <ele>455.8</ele>
        <time>2019-05-12T04:43:52Z</time>
      </trkpt>
      <trkpt lat="38.4985730" lon="-0.7881060">
        <ele>455.8</ele>
        <time>2019-05-12T04:43:54Z</time>
      </trkpt>
      <trkpt lat="38.4987220" lon="-0.7880910">
        <ele>456.0</ele>
        <time>2019-05-12T04:43:57Z</time>
      </trkpt>
      <trkpt lat="38.4988700" lon="-0.7881510">
        <ele>455.6</ele>
        <time>2019-05-12T04:44:00Z</time>
      </trkpt>
      <trkpt lat="38.4989650" lon="-0.7882030">
        <ele>455.4</ele>
        <time>2019-05-12T04:44:02Z</time>
      </trkpt>
      <trkpt lat="38.4993450" lon="-0.7884230">
        <ele>456.2</ele>
        <time>2019-05-12T04:44:11Z</time>
      </trkpt>
      <trkpt lat="38.4994480" lon="-0.7884930">
        <ele>457.0</ele>
        <time>2019-05-12T04:44:14Z</time>
      </trkpt>
      <trkpt lat="38.4995550" lon="-0.7885420">
        <ele>457.8</ele>
        <time>2019-05-12T04:44:17Z</time>
      </trkpt>
      <trkpt lat="38.4995860" lon="-0.7885590">
        <ele>458.0</ele>
        <time>2019-05-12T04:44:18Z</time>
      </trkpt>
      <trkpt lat="38.4997070" lon="-0.7886290">
        <ele>459.0</ele>
        <time>2019-05-12T04:44:22Z</time>
      </trkpt>
      <trkpt lat="38.4997920" lon="-0.7886760">
        <ele>459.8</ele>
        <time>2019-05-12T04:44:25Z</time>
      </trkpt>
      <trkpt lat="38.4998750" lon="-0.7887290">
        <ele>460.2</ele>
        <time>2019-05-12T04:44:28Z</time>
      </trkpt>
      <trkpt lat="38.4999870" lon="-0.7887940">
        <ele>461.2</ele>
        <time>2019-05-12T04:44:32Z</time>
      </trkpt>
      <trkpt lat="38.5000650" lon="-0.7888550">
        <ele>461.4</ele>
        <time>2019-05-12T04:44:35Z</time>
      </trkpt>
      <trkpt lat="38.5001710" lon="-0.7889440">
        <ele>462.4</ele>
        <time>2019-05-12T04:44:39Z</time>
      </trkpt>
      <trkpt lat="38.5002930" lon="-0.7890710">
        <ele>463.2</ele>
        <time>2019-05-12T04:44:44Z</time>
      </trkpt>
      <trkpt lat="38.5003410" lon="-0.7891190">
        <ele>463.4</ele>
        <time>2019-05-12T04:44:46Z</time>
      </trkpt>
      <trkpt lat="38.5004650" lon="-0.7892430">
        <ele>464.6</ele>
        <time>2019-05-12T04:44:51Z</time>
      </trkpt>
      <trkpt lat="38.5004910" lon="-0.7892680">
        <ele>464.8</ele>
        <time>2019-05-12T04:44:52Z</time>
      </trkpt>
      <trkpt lat="38.5006290" lon="-0.7893630">
        <ele>465.8</ele>
        <time>2019-05-12T04:44:57Z</time>
      </trkpt>
      <trkpt lat="38.5007180" lon="-0.7894080">
        <ele>466.6</ele>
        <time>2019-05-12T04:45:00Z</time>
      </trkpt>
      <trkpt lat="38.5008440" lon="-0.7894730">
        <ele>467.0</ele>
        <time>2019-05-12T04:45:04Z</time>
      </trkpt>
      <trkpt lat="38.5010290" lon="-0.7895640">
        <ele>468.0</ele>
        <time>2019-05-12T04:45:10Z</time>
      </trkpt>
      <trkpt lat="38.5013870" lon="-0.7897150">
        <ele>469.0</ele>
        <time>2019-05-12T04:45:21Z</time>
      </trkpt>
      <trkpt lat="38.5014190" lon="-0.7897280">
        <ele>469.2</ele>
        <time>2019-05-12T04:45:22Z</time>
      </trkpt>
      <trkpt lat="38.5016130" lon="-0.7897900">
        <ele>469.8</ele>
        <time>2019-05-12T04:45:28Z</time>
      </trkpt>
      <trkpt lat="38.5017110" lon="-0.7898140">
        <ele>470.2</ele>
        <time>2019-05-12T04:45:31Z</time>
      </trkpt>
      <trkpt lat="38.5019050" lon="-0.7898480">
        <ele>471.0</ele>
        <time>2019-05-12T04:45:37Z</time>
      </trkpt>
      <trkpt lat="38.5020790" lon="-0.7898640">
        <ele>471.2</ele>
        <time>2019-05-12T04:45:42Z</time>
      </trkpt>
      <trkpt lat="38.5022300" lon="-0.7898750">
        <ele>471.6</ele>
        <time>2019-05-12T04:45:46Z</time>
      </trkpt>
      <trkpt lat="38.5025370" lon="-0.7898760">
        <ele>472.0</ele>
        <time>2019-05-12T04:45:54Z</time>
      </trkpt>
      <trkpt lat="38.5026850" lon="-0.7898860">
        <ele>472.2</ele>
        <time>2019-05-12T04:45:58Z</time>
      </trkpt>
      <trkpt lat="38.5027990" lon="-0.7898860">
        <ele>472.4</ele>
        <time>2019-05-12T04:46:01Z</time>
      </trkpt>
      <trkpt lat="38.5030540" lon="-0.7898850">
        <ele>473.2</ele>
        <time>2019-05-12T04:46:08Z</time>
      </trkpt>
      <trkpt lat="38.5031250" lon="-0.7898870">
        <ele>473.2</ele>
        <time>2019-05-12T04:46:10Z</time>
      </trkpt>
      <trkpt lat="38.5033310" lon="-0.7898910">
        <ele>474.0</ele>
        <time>2019-05-12T04:46:16Z</time>
      </trkpt>
      <trkpt lat="38.5033630" lon="-0.7898850">
        <ele>474.4</ele>
        <time>2019-05-12T04:46:17Z</time>
      </trkpt>
      <trkpt lat="38.5035040" lon="-0.7898850">
        <ele>475.4</ele>
        <time>2019-05-12T04:46:21Z</time>
      </trkpt>
      <trkpt lat="38.5035560" lon="-0.7898870">
        <ele>475.6</ele>
        <time>2019-05-12T04:46:23Z</time>
      </trkpt>
      <trkpt lat="38.5037730" lon="-0.7898810">
        <ele>476.6</ele>
        <time>2019-05-12T04:46:30Z</time>
      </trkpt>
      <trkpt lat="38.5038700" lon="-0.7898760">
        <ele>477.8</ele>
        <time>2019-05-12T04:46:33Z</time>
      </trkpt>
      <trkpt lat="38.5039730" lon="-0.7898860">
        <ele>478.0</ele>
        <time>2019-05-12T04:46:36Z</time>
      </trkpt>
      <trkpt lat="38.5041130" lon="-0.7898770">
        <ele>479.0</ele>
        <time>2019-05-12T04:46:40Z</time>
      </trkpt>
      <trkpt lat="38.5041820" lon="-0.7898620">
        <ele>479.0</ele>
        <time>2019-05-12T04:46:42Z</time>
      </trkpt>
      <trkpt lat="38.5043930" lon="-0.7898510">
        <ele>479.8</ele>
        <time>2019-05-12T04:46:48Z</time>
      </trkpt>
      <trkpt lat="38.5045390" lon="-0.7898390">
        <ele>480.0</ele>
        <time>2019-05-12T04:46:52Z</time>
      </trkpt>
      <trkpt lat="38.5046530" lon="-0.7898390">
        <ele>480.2</ele>
        <time>2019-05-12T04:46:55Z</time>
      </trkpt>
      <trkpt lat="38.5048770" lon="-0.7899320">
        <ele>481.0</ele>
        <time>2019-05-12T04:47:01Z</time>
      </trkpt>
      <trkpt lat="38.5049100" lon="-0.7899560">
        <ele>481.2</ele>
        <time>2019-05-12T04:47:02Z</time>
      </trkpt>
      <trkpt lat="38.5051920" lon="-0.7901420">
        <ele>482.0</ele>
        <time>2019-05-12T04:47:10Z</time>
      </trkpt>
      <trkpt lat="38.5052680" lon="-0.7901800">
        <ele>482.0</ele>
        <time>2019-05-12T04:47:12Z</time>
      </trkpt>
      <trkpt lat="38.5053050" lon="-0.7902000">
        <ele>482.0</ele>
        <time>2019-05-12T04:47:13Z</time>
      </trkpt>
      <trkpt lat="38.5054600" lon="-0.7902890">
        <ele>482.0</ele>
        <time>2019-05-12T04:47:17Z</time>
      </trkpt>
      <trkpt lat="38.5058140" lon="-0.7904810">
        <ele>481.4</ele>
        <time>2019-05-12T04:47:25Z</time>
      </trkpt>
      <trkpt lat="38.5059060" lon="-0.7905330">
        <ele>481.0</ele>
        <time>2019-05-12T04:47:27Z</time>
      </trkpt>
      <trkpt lat="38.5062360" lon="-0.7907180">
        <ele>480.6</ele>
        <time>2019-05-12T04:47:34Z</time>
      </trkpt>
      <trkpt lat="38.5065370" lon="-0.7908740">
        <ele>480.0</ele>
        <time>2019-05-12T04:47:40Z</time>
      </trkpt>
      <trkpt lat="38.5066360" lon="-0.7909340">
        <ele>479.6</ele>
        <time>2019-05-12T04:47:42Z</time>
      </trkpt>
      <trkpt lat="38.5070010" lon="-0.7911370">
        <ele>479.6</ele>
        <time>2019-05-12T04:47:49Z</time>
      </trkpt>
      <trkpt lat="38.5073050" lon="-0.7912890">
        <ele>480.8</ele>
        <time>2019-05-12T04:47:56Z</time>
      </trkpt>
      <trkpt lat="38.5073440" lon="-0.7913100">
        <ele>481.2</ele>
        <time>2019-05-12T04:47:57Z</time>
      </trkpt>
      <trkpt lat="38.5075330" lon="-0.7914140">
        <ele>482.2</ele>
        <time>2019-05-12T04:48:02Z</time>
      </trkpt>
      <trkpt lat="38.5076800" lon="-0.7914930">
        <ele>482.6</ele>
        <time>2019-05-12T04:48:06Z</time>
      </trkpt>
      <trkpt lat="38.5078260" lon="-0.7915710">
        <ele>483.2</ele>
        <time>2019-05-12T04:48:10Z</time>
      </trkpt>
      <trkpt lat="38.5080850" lon="-0.7917050">
        <ele>484.2</ele>
        <time>2019-05-12T04:48:17Z</time>
      </trkpt>
      <trkpt lat="38.5081220" lon="-0.7917240">
        <ele>484.6</ele>
        <time>2019-05-12T04:48:18Z</time>
      </trkpt>
      <trkpt lat="38.5085150" lon="-0.7919140">
        <ele>485.0</ele>
        <time>2019-05-12T04:48:28Z</time>
      </trkpt>
      <trkpt lat="38.5086710" lon="-0.7919900">
        <ele>485.6</ele>
        <time>2019-05-12T04:48:32Z</time>
      </trkpt>
      <trkpt lat="38.5088550" lon="-0.7920670">
        <ele>486.2</ele>
        <time>2019-05-12T04:48:37Z</time>
      </trkpt>
      <trkpt lat="38.5088840" lon="-0.7920950">
        <ele>486.4</ele>
        <time>2019-05-12T04:48:38Z</time>
      </trkpt>
      <trkpt lat="38.5089540" lon="-0.7921330">
        <ele>486.6</ele>
        <time>2019-05-12T04:48:40Z</time>
      </trkpt>
      <trkpt lat="38.5091820" lon="-0.7922520">
        <ele>487.4</ele>
        <time>2019-05-12T04:48:47Z</time>
      </trkpt>
      <trkpt lat="38.5092540" lon="-0.7922810">
        <ele>487.8</ele>
        <time>2019-05-12T04:48:49Z</time>
      </trkpt>
      <trkpt lat="38.5094140" lon="-0.7923440">
        <ele>487.6</ele>
        <time>2019-05-12T04:48:53Z</time>
      </trkpt>
      <trkpt lat="38.5094490" lon="-0.7923690">
        <ele>487.6</ele>
        <time>2019-05-12T04:48:54Z</time>
      </trkpt>
      <trkpt lat="38.5096660" lon="-0.7925370">
        <ele>489.2</ele>
        <time>2019-05-12T04:49:01Z</time>
      </trkpt>
      <trkpt lat="38.5096970" lon="-0.7925580">
        <ele>489.4</ele>
        <time>2019-05-12T04:49:02Z</time>
      </trkpt>
      <trkpt lat="38.5098600" lon="-0.7926240">
        <ele>489.8</ele>
        <time>2019-05-12T04:49:07Z</time>
      </trkpt>
      <trkpt lat="38.5099230" lon="-0.7926050">
        <ele>490.4</ele>
        <time>2019-05-12T04:49:09Z</time>
      </trkpt>
      <trkpt lat="38.5100040" lon="-0.7925680">
        <ele>491.4</ele>
        <time>2019-05-12T04:49:12Z</time>
      </trkpt>
      <trkpt lat="38.5100320" lon="-0.7925540">
        <ele>491.4</ele>
        <time>2019-05-12T04:49:13Z</time>
      </trkpt>
      <trkpt lat="38.5101670" lon="-0.7924640">
        <ele>492.6</ele>
        <time>2019-05-12T04:49:18Z</time>
      </trkpt>
      <trkpt lat="38.5101920" lon="-0.7924450">
        <ele>492.6</ele>
        <time>2019-05-12T04:49:19Z</time>
      </trkpt>
      <trkpt lat="38.5102660" lon="-0.7923970">
        <ele>493.8</ele>
        <time>2019-05-12T04:49:22Z</time>
      </trkpt>
      <trkpt lat="38.5103630" lon="-0.7923230">
        <ele>495.0</ele>
        <time>2019-05-12T04:49:26Z</time>
      </trkpt>
      <trkpt lat="38.5105090" lon="-0.7921970">
        <ele>496.2</ele>
        <time>2019-05-12T04:49:32Z</time>
      </trkpt>
      <trkpt lat="38.5105300" lon="-0.7921790">
        <ele>496.4</ele>
        <time>2019-05-12T04:49:33Z</time>
      </trkpt>
      <trkpt lat="38.5105940" lon="-0.7921130">
        <ele>497.2</ele>
        <time>2019-05-12T04:49:36Z</time>
      </trkpt>
      <trkpt lat="38.5106960" lon="-0.7919900">
        <ele>497.8</ele>
        <time>2019-05-12T04:49:41Z</time>
      </trkpt>
      <trkpt lat="38.5107500" lon="-0.7919150">
        <ele>498.4</ele>
        <time>2019-05-12T04:49:44Z</time>
      </trkpt>
      <trkpt lat="38.5108140" lon="-0.7918310">
        <ele>499.4</ele>
        <time>2019-05-12T04:49:48Z</time>
      </trkpt>
      <trkpt lat="38.5108300" lon="-0.7918130">
        <ele>499.4</ele>
        <time>2019-05-12T04:49:49Z</time>
      </trkpt>
      <trkpt lat="38.5109120" lon="-0.7917030">
        <ele>500.6</ele>
        <time>2019-05-12T04:49:55Z</time>
      </trkpt>
      <trkpt lat="38.5109580" lon="-0.7916340">
        <ele>501.8</ele>
        <time>2019-05-12T04:49:59Z</time>
      </trkpt>
      <trkpt lat="38.5109840" lon="-0.7916190">
        <ele>502.4</ele>
        <time>2019-05-12T04:50:01Z</time>
      </trkpt>
      <trkpt lat="38.5110500" lon="-0.7916720">
        <ele>502.8</ele>
        <time>2019-05-12T04:50:05Z</time>
      </trkpt>
      <trkpt lat="38.5110630" lon="-0.7916930">
        <ele>503.2</ele>
        <time>2019-05-12T04:50:06Z</time>
      </trkpt>
      <trkpt lat="38.5110670" lon="-0.7917110">
        <ele>503.8</ele>
        <time>2019-05-12T04:50:07Z</time>
      </trkpt>
      <trkpt lat="38.5110680" lon="-0.7917380">
        <ele>504.0</ele>
        <time>2019-05-12T04:50:08Z</time>
      </trkpt>
      <trkpt lat="38.5110620" lon="-0.7917730">
        <ele>504.4</ele>
        <time>2019-05-12T04:50:09Z</time>
      </trkpt>
      <trkpt lat="38.5110940" lon="-0.7919250">
        <ele>505.0</ele>
        <time>2019-05-12T04:50:14Z</time>
      </trkpt>
      <trkpt lat="38.5111050" lon="-0.7919460">
        <ele>505.0</ele>
        <time>2019-05-12T04:50:15Z</time>
      </trkpt>
      <trkpt lat="38.5111160" lon="-0.7919660">
        <ele>505.6</ele>
        <time>2019-05-12T04:50:16Z</time>
      </trkpt>
      <trkpt lat="38.5111350" lon="-0.7919820">
        <ele>506.0</ele>
        <time>2019-05-12T04:50:17Z</time>
      </trkpt>
      <trkpt lat="38.5111890" lon="-0.7920230">
        <ele>506.4</ele>
        <time>2019-05-12T04:50:19Z</time>
      </trkpt>
      <trkpt lat="38.5112610" lon="-0.7921140">
        <ele>505.6</ele>
        <time>2019-05-12T04:50:21Z</time>
      </trkpt>
      <trkpt lat="38.5112760" lon="-0.7921470">
        <ele>505.6</ele>
        <time>2019-05-12T04:50:22Z</time>
      </trkpt>
      <trkpt lat="38.5113120" lon="-0.7922000">
        <ele>505.2</ele>
        <time>2019-05-12T04:50:23Z</time>
      </trkpt>
      <trkpt lat="38.5113450" lon="-0.7922580">
        <ele>504.6</ele>
        <time>2019-05-12T04:50:24Z</time>
      </trkpt>
      <trkpt lat="38.5114210" lon="-0.7923860">
        <ele>503.2</ele>
        <time>2019-05-12T04:50:26Z</time>
      </trkpt>
      <trkpt lat="38.5115090" lon="-0.7925190">
        <ele>502.6</ele>
        <time>2019-05-12T04:50:28Z</time>
      </trkpt>
      <trkpt lat="38.5115510" lon="-0.7925800">
        <ele>501.6</ele>
        <time>2019-05-12T04:50:29Z</time>
      </trkpt>
      <trkpt lat="38.5115840" lon="-0.7926520">
        <ele>501.0</ele>
        <time>2019-05-12T04:50:30Z</time>
      </trkpt>
      <trkpt lat="38.5116540" lon="-0.7928010">
        <ele>500.6</ele>
        <time>2019-05-12T04:50:32Z</time>
      </trkpt>
      <trkpt lat="38.5118080" lon="-0.7930820">
        <ele>499.2</ele>
        <time>2019-05-12T04:50:36Z</time>
      </trkpt>
      <trkpt lat="38.5118320" lon="-0.7931610">
        <ele>498.8</ele>
        <time>2019-05-12T04:50:37Z</time>
      </trkpt>
      <trkpt lat="38.5118890" lon="-0.7933270">
        <ele>497.8</ele>
        <time>2019-05-12T04:50:39Z</time>
      </trkpt>
      <trkpt lat="38.5119920" lon="-0.7934600">
        <ele>497.0</ele>
        <time>2019-05-12T04:50:41Z</time>
      </trkpt>
      <trkpt lat="38.5120360" lon="-0.7935350">
        <ele>496.8</ele>
        <time>2019-05-12T04:50:42Z</time>
      </trkpt>
      <trkpt lat="38.5121060" lon="-0.7936850">
        <ele>495.6</ele>
        <time>2019-05-12T04:50:44Z</time>
      </trkpt>
      <trkpt lat="38.5121480" lon="-0.7937530">
        <ele>495.4</ele>
        <time>2019-05-12T04:50:45Z</time>
      </trkpt>
      <trkpt lat="38.5122030" lon="-0.7939170">
        <ele>494.6</ele>
        <time>2019-05-12T04:50:47Z</time>
      </trkpt>
      <trkpt lat="38.5122210" lon="-0.7940040">
        <ele>494.6</ele>
        <time>2019-05-12T04:50:48Z</time>
      </trkpt>
      <trkpt lat="38.5122780" lon="-0.7943370">
        <ele>493.8</ele>
        <time>2019-05-12T04:50:52Z</time>
      </trkpt>
      <trkpt lat="38.5123020" lon="-0.7944180">
        <ele>493.8</ele>
        <time>2019-05-12T04:50:53Z</time>
      </trkpt>
      <trkpt lat="38.5123600" lon="-0.7945850">
        <ele>493.0</ele>
        <time>2019-05-12T04:50:55Z</time>
      </trkpt>
      <trkpt lat="38.5123790" lon="-0.7946740">
        <ele>491.6</ele>
        <time>2019-05-12T04:50:56Z</time>
      </trkpt>
      <trkpt lat="38.5124930" lon="-0.7949090">
        <ele>491.0</ele>
        <time>2019-05-12T04:50:59Z</time>
      </trkpt>
      <trkpt lat="38.5125460" lon="-0.7949760">
        <ele>490.4</ele>
        <time>2019-05-12T04:51:00Z</time>
      </trkpt>
      <trkpt lat="38.5126740" lon="-0.7950980">
        <ele>489.2</ele>
        <time>2019-05-12T04:51:02Z</time>
      </trkpt>
      <trkpt lat="38.5127520" lon="-0.7951500">
        <ele>488.2</ele>
        <time>2019-05-12T04:51:03Z</time>
      </trkpt>
      <trkpt lat="38.5128400" lon="-0.7951830">
        <ele>487.2</ele>
        <time>2019-05-12T04:51:04Z</time>
      </trkpt>
      <trkpt lat="38.5129310" lon="-0.7952100">
        <ele>486.0</ele>
        <time>2019-05-12T04:51:05Z</time>
      </trkpt>
      <trkpt lat="38.5130230" lon="-0.7952400">
        <ele>485.2</ele>
        <time>2019-05-12T04:51:06Z</time>
      </trkpt>
      <trkpt lat="38.5131130" lon="-0.7952830">
        <ele>484.8</ele>
        <time>2019-05-12T04:51:07Z</time>
      </trkpt>
      <trkpt lat="38.5132800" lon="-0.7953830">
        <ele>484.6</ele>
        <time>2019-05-12T04:51:09Z</time>
      </trkpt>
      <trkpt lat="38.5133520" lon="-0.7954310">
        <ele>484.4</ele>
        <time>2019-05-12T04:51:10Z</time>
      </trkpt>
      <trkpt lat="38.5134760" lon="-0.7955440">
        <ele>484.8</ele>
        <time>2019-05-12T04:51:12Z</time>
      </trkpt>
      <trkpt lat="38.5135750" lon="-0.7956110">
        <ele>485.2</ele>
        <time>2019-05-12T04:51:14Z</time>
      </trkpt>
      <trkpt lat="38.5136690" lon="-0.7956270">
        <ele>485.8</ele>
        <time>2019-05-12T04:51:16Z</time>
      </trkpt>
      <trkpt lat="38.5137640" lon="-0.7956360">
        <ele>486.4</ele>
        <time>2019-05-12T04:51:18Z</time>
      </trkpt>
      <trkpt lat="38.5138880" lon="-0.7956610">
        <ele>486.8</ele>
        <time>2019-05-12T04:51:21Z</time>
      </trkpt>
      <trkpt lat="38.5140150" lon="-0.7956940">
        <ele>486.8</ele>
        <time>2019-05-12T04:51:24Z</time>
      </trkpt>
      <trkpt lat="38.5142050" lon="-0.7957180">
        <ele>488.0</ele>
        <time>2019-05-12T04:51:29Z</time>
      </trkpt>
      <trkpt lat="38.5142410" lon="-0.7957280">
        <ele>488.2</ele>
        <time>2019-05-12T04:51:30Z</time>
      </trkpt>
      <trkpt lat="38.5143700" lon="-0.7957470">
        <ele>488.8</ele>
        <time>2019-05-12T04:51:34Z</time>
      </trkpt>
      <trkpt lat="38.5144010" lon="-0.7957510">
        <ele>489.0</ele>
        <time>2019-05-12T04:51:35Z</time>
      </trkpt>
      <trkpt lat="38.5145550" lon="-0.7957920">
        <ele>490.2</ele>
        <time>2019-05-12T04:51:40Z</time>
      </trkpt>
      <trkpt lat="38.5145870" lon="-0.7957950">
        <ele>490.4</ele>
        <time>2019-05-12T04:51:41Z</time>
      </trkpt>
      <trkpt lat="38.5147550" lon="-0.7958360">
        <ele>491.2</ele>
        <time>2019-05-12T04:51:46Z</time>
      </trkpt>
      <trkpt lat="38.5150050" lon="-0.7959340">
        <ele>492.2</ele>
        <time>2019-05-12T04:51:54Z</time>
      </trkpt>
      <trkpt lat="38.5151340" lon="-0.7959510">
        <ele>492.6</ele>
        <time>2019-05-12T04:51:58Z</time>
      </trkpt>
      <trkpt lat="38.5154130" lon="-0.7959940">
        <ele>492.8</ele>
        <time>2019-05-12T04:52:06Z</time>
      </trkpt>
      <trkpt lat="38.5155160" lon="-0.7960110">
        <ele>493.4</ele>
        <time>2019-05-12T04:52:09Z</time>
      </trkpt>
      <trkpt lat="38.5157800" lon="-0.7960540">
        <ele>493.6</ele>
        <time>2019-05-12T04:52:16Z</time>
      </trkpt>
      <trkpt lat="38.5159390" lon="-0.7960660">
        <ele>494.0</ele>
        <time>2019-05-12T04:52:20Z</time>
      </trkpt>
      <trkpt lat="38.5160280" lon="-0.7960760">
        <ele>494.0</ele>
        <time>2019-05-12T04:52:22Z</time>
      </trkpt>
      <trkpt lat="38.5161870" lon="-0.7960890">
        <ele>494.4</ele>
        <time>2019-05-12T04:52:26Z</time>
      </trkpt>
      <trkpt lat="38.5162570" lon="-0.7960870">
        <ele>494.6</ele>
        <time>2019-05-12T04:52:28Z</time>
      </trkpt>
      <trkpt lat="38.5165350" lon="-0.7960510">
        <ele>494.6</ele>
        <time>2019-05-12T04:52:35Z</time>
      </trkpt>
      <trkpt lat="38.5168380" lon="-0.7959930">
        <ele>494.4</ele>
        <time>2019-05-12T04:52:42Z</time>
      </trkpt>
      <trkpt lat="38.5172100" lon="-0.7959850">
        <ele>494.4</ele>
        <time>2019-05-12T04:52:50Z</time>
      </trkpt>
      <trkpt lat="38.5174010" lon="-0.7960120">
        <ele>494.4</ele>
        <time>2019-05-12T04:52:54Z</time>
      </trkpt>
      <trkpt lat="38.5174580" lon="-0.7960480">
        <ele>494.6</ele>
        <time>2019-05-12T04:52:56Z</time>
      </trkpt>
      <trkpt lat="38.5174590" lon="-0.7960570">
        <ele>494.6</ele>
        <time>2019-05-12T04:52:59Z</time>
      </trkpt>
      <trkpt lat="38.5174190" lon="-0.7960270">
        <ele>494.4</ele>
        <time>2019-05-12T04:55:48Z</time>
      </trkpt>
      <trkpt lat="38.5174160" lon="-0.7960000">
        <ele>494.6</ele>
        <time>2019-05-12T04:55:49Z</time>
      </trkpt>
      <trkpt lat="38.5174900" lon="-0.7960000">
        <ele>494.4</ele>
        <time>2019-05-12T04:55:52Z</time>
      </trkpt>
      <trkpt lat="38.5176340" lon="-0.7960450">
        <ele>494.2</ele>
        <time>2019-05-12T04:55:56Z</time>
      </trkpt>
      <trkpt lat="38.5176740" lon="-0.7960530">
        <ele>494.4</ele>
        <time>2019-05-12T04:55:57Z</time>
      </trkpt>
      <trkpt lat="38.5178950" lon="-0.7961190">
        <ele>494.0</ele>
        <time>2019-05-12T04:56:02Z</time>
      </trkpt>
      <trkpt lat="38.5179350" lon="-0.7961420">
        <ele>494.2</ele>
        <time>2019-05-12T04:56:03Z</time>
      </trkpt>
      <trkpt lat="38.5180160" lon="-0.7961740">
        <ele>494.4</ele>
        <time>2019-05-12T04:56:05Z</time>
      </trkpt>
      <trkpt lat="38.5181900" lon="-0.7961910">
        <ele>494.6</ele>
        <time>2019-05-12T04:56:09Z</time>
      </trkpt>
      <trkpt lat="38.5182780" lon="-0.7962150">
        <ele>495.2</ele>
        <time>2019-05-12T04:56:11Z</time>
      </trkpt>
      <trkpt lat="38.5183870" lon="-0.7962340">
        <ele>495.4</ele>
        <time>2019-05-12T04:56:13Z</time>
      </trkpt>
      <trkpt lat="38.5184970" lon="-0.7962620">
        <ele>495.4</ele>
        <time>2019-05-12T04:56:15Z</time>
      </trkpt>
      <trkpt lat="38.5186050" lon="-0.7962840">
        <ele>495.6</ele>
        <time>2019-05-12T04:56:17Z</time>
      </trkpt>
      <trkpt lat="38.5187170" lon="-0.7962870">
        <ele>496.0</ele>
        <time>2019-05-12T04:56:19Z</time>
      </trkpt>
      <trkpt lat="38.5188260" lon="-0.7962820">
        <ele>496.6</ele>
        <time>2019-05-12T04:56:21Z</time>
      </trkpt>
      <trkpt lat="38.5190940" lon="-0.7962350">
        <ele>497.8</ele>
        <time>2019-05-12T04:56:26Z</time>
      </trkpt>
      <trkpt lat="38.5191470" lon="-0.7962280">
        <ele>498.0</ele>
        <time>2019-05-12T04:56:27Z</time>
      </trkpt>
      <trkpt lat="38.5192980" lon="-0.7962130">
        <ele>499.0</ele>
        <time>2019-05-12T04:56:30Z</time>
      </trkpt>
      <trkpt lat="38.5194870" lon="-0.7961880">
        <ele>500.2</ele>
        <time>2019-05-12T04:56:34Z</time>
      </trkpt>
      <trkpt lat="38.5195320" lon="-0.7961760">
        <ele>500.6</ele>
        <time>2019-05-12T04:56:35Z</time>
      </trkpt>
      <trkpt lat="38.5196600" lon="-0.7961420">
        <ele>501.4</ele>
        <time>2019-05-12T04:56:38Z</time>
      </trkpt>
      <trkpt lat="38.5198230" lon="-0.7961050">
        <ele>502.8</ele>
        <time>2019-05-12T04:56:42Z</time>
      </trkpt>
      <trkpt lat="38.5199720" lon="-0.7960390">
        <ele>504.4</ele>
        <time>2019-05-12T04:56:46Z</time>
      </trkpt>
      <trkpt lat="38.5200630" lon="-0.7959690">
        <ele>505.6</ele>
        <time>2019-05-12T04:56:49Z</time>
      </trkpt>
      <trkpt lat="38.5201080" lon="-0.7959150">
        <ele>507.0</ele>
        <time>2019-05-12T04:56:51Z</time>
      </trkpt>
      <trkpt lat="38.5201830" lon="-0.7958490">
        <ele>508.0</ele>
        <time>2019-05-12T04:56:54Z</time>
      </trkpt>
      <trkpt lat="38.5202090" lon="-0.7958230">
        <ele>508.2</ele>
        <time>2019-05-12T04:56:55Z</time>
      </trkpt>
      <trkpt lat="38.5203360" lon="-0.7957810">
        <ele>509.2</ele>
        <time>2019-05-12T04:56:59Z</time>
      </trkpt>
      <trkpt lat="38.5204520" lon="-0.7957790">
        <ele>510.4</ele>
        <time>2019-05-12T04:57:02Z</time>
      </trkpt>
      <trkpt lat="38.5205720" lon="-0.7957810">
        <ele>510.4</ele>
        <time>2019-05-12T04:57:05Z</time>
      </trkpt>
      <trkpt lat="38.5209130" lon="-0.7958080">
        <ele>510.8</ele>
        <time>2019-05-12T04:57:12Z</time>
      </trkpt>
      <trkpt lat="38.5211780" lon="-0.7958170">
        <ele>509.2</ele>
        <time>2019-05-12T04:57:16Z</time>
      </trkpt>
      <trkpt lat="38.5212540" lon="-0.7958220">
        <ele>508.8</ele>
        <time>2019-05-12T04:57:17Z</time>
      </trkpt>
      <trkpt lat="38.5214120" lon="-0.7958360">
        <ele>507.8</ele>
        <time>2019-05-12T04:57:19Z</time>
      </trkpt>
      <trkpt lat="38.5218210" lon="-0.7958670">
        <ele>506.8</ele>
        <time>2019-05-12T04:57:24Z</time>
      </trkpt>
      <trkpt lat="38.5223120" lon="-0.7959410">
        <ele>505.8</ele>
        <time>2019-05-12T04:57:30Z</time>
      </trkpt>
      <trkpt lat="38.5224690" lon="-0.7959860">
        <ele>505.8</ele>
        <time>2019-05-12T04:57:32Z</time>
      </trkpt>
      <trkpt lat="38.5229580" lon="-0.7961170">
        <ele>505.0</ele>
        <time>2019-05-12T04:57:38Z</time>
      </trkpt>
      <trkpt lat="38.5234580" lon="-0.7962450">
        <ele>505.0</ele>
        <time>2019-05-12T04:57:44Z</time>
      </trkpt>
      <trkpt lat="38.5240190" lon="-0.7963850">
        <ele>505.2</ele>
        <time>2019-05-12T04:57:51Z</time>
      </trkpt>
      <trkpt lat="38.5242480" lon="-0.7964480">
        <ele>505.6</ele>
        <time>2019-05-12T04:57:54Z</time>
      </trkpt>
      <trkpt lat="38.5247620" lon="-0.7966100">
        <ele>507.0</ele>
        <time>2019-05-12T04:58:01Z</time>
      </trkpt>
      <trkpt lat="38.5250290" lon="-0.7966960">
        <ele>508.2</ele>
        <time>2019-05-12T04:58:05Z</time>
      </trkpt>
      <trkpt lat="38.5252260" lon="-0.7967600">
        <ele>508.8</ele>
        <time>2019-05-12T04:58:08Z</time>
      </trkpt>
      <trkpt lat="38.5255410" lon="-0.7968710">
        <ele>509.4</ele>
        <time>2019-05-12T04:58:13Z</time>
      </trkpt>
      <trkpt lat="38.5258000" lon="-0.7969570">
        <ele>510.0</ele>
        <time>2019-05-12T04:58:17Z</time>
      </trkpt>
      <trkpt lat="38.5259980" lon="-0.7970110">
        <ele>510.6</ele>
        <time>2019-05-12T04:58:20Z</time>
      </trkpt>
      <trkpt lat="38.5262630" lon="-0.7970840">
        <ele>511.2</ele>
        <time>2019-05-12T04:58:24Z</time>
      </trkpt>
      <trkpt lat="38.5267740" lon="-0.7972390">
        <ele>510.0</ele>
        <time>2019-05-12T04:58:31Z</time>
      </trkpt>
      <trkpt lat="38.5273060" lon="-0.7973520">
        <ele>510.0</ele>
        <time>2019-05-12T04:58:38Z</time>
      </trkpt>
      <trkpt lat="38.5277400" lon="-0.7974490">
        <ele>510.8</ele>
        <time>2019-05-12T04:58:44Z</time>
      </trkpt>
      <trkpt lat="38.5279380" lon="-0.7974970">
        <ele>511.8</ele>
        <time>2019-05-12T04:58:47Z</time>
      </trkpt>
      <trkpt lat="38.5281780" lon="-0.7976050">
        <ele>512.8</ele>
        <time>2019-05-12T04:58:51Z</time>
      </trkpt>
      <trkpt lat="38.5287100" lon="-0.7978510">
        <ele>513.6</ele>
        <time>2019-05-12T04:59:00Z</time>
      </trkpt>
      <trkpt lat="38.5287710" lon="-0.7978610">
        <ele>513.8</ele>
        <time>2019-05-12T04:59:01Z</time>
      </trkpt>
      <trkpt lat="38.5288330" lon="-0.7978680">
        <ele>513.8</ele>
        <time>2019-05-12T04:59:02Z</time>
      </trkpt>
      <trkpt lat="38.5290120" lon="-0.7978620">
        <ele>514.6</ele>
        <time>2019-05-12T04:59:05Z</time>
      </trkpt>
      <trkpt lat="38.5291290" lon="-0.7978450">
        <ele>515.0</ele>
        <time>2019-05-12T04:59:07Z</time>
      </trkpt>
      <trkpt lat="38.5294220" lon="-0.7978170">
        <ele>515.8</ele>
        <time>2019-05-12T04:59:12Z</time>
      </trkpt>
      <trkpt lat="38.5295390" lon="-0.7978080">
        <ele>516.2</ele>
        <time>2019-05-12T04:59:14Z</time>
      </trkpt>
      <trkpt lat="38.5297660" lon="-0.7977830">
        <ele>517.2</ele>
        <time>2019-05-12T04:59:18Z</time>
      </trkpt>
      <trkpt lat="38.5301130" lon="-0.7977740">
        <ele>518.4</ele>
        <time>2019-05-12T04:59:24Z</time>
      </trkpt>
      <trkpt lat="38.5302290" lon="-0.7977900">
        <ele>519.0</ele>
        <time>2019-05-12T04:59:26Z</time>
      </trkpt>
      <trkpt lat="38.5304670" lon="-0.7978230">
        <ele>519.4</ele>
        <time>2019-05-12T04:59:30Z</time>
      </trkpt>
      <trkpt lat="38.5307370" lon="-0.7978590">
        <ele>519.2</ele>
        <time>2019-05-12T04:59:34Z</time>
      </trkpt>
      <trkpt lat="38.5311840" lon="-0.7979390">
        <ele>518.2</ele>
        <time>2019-05-12T04:59:40Z</time>
      </trkpt>
      <trkpt lat="38.5312560" lon="-0.7979660">
        <ele>518.0</ele>
        <time>2019-05-12T04:59:41Z</time>
      </trkpt>
      <trkpt lat="38.5315860" lon="-0.7981740">
        <ele>518.0</ele>
        <time>2019-05-12T04:59:46Z</time>
      </trkpt>
      <trkpt lat="38.5316540" lon="-0.7982140">
        <ele>518.0</ele>
        <time>2019-05-12T04:59:47Z</time>
      </trkpt>
      <trkpt lat="38.5319360" lon="-0.7983650">
        <ele>518.2</ele>
        <time>2019-05-12T04:59:51Z</time>
      </trkpt>
      <trkpt lat="38.5324400" lon="-0.7986360">
        <ele>517.4</ele>
        <time>2019-05-12T04:59:58Z</time>
      </trkpt>
      <trkpt lat="38.5325170" lon="-0.7986730">
        <ele>517.0</ele>
        <time>2019-05-12T04:59:59Z</time>
      </trkpt>
      <trkpt lat="38.5326750" lon="-0.7987360">
        <ele>516.6</ele>
        <time>2019-05-12T05:00:01Z</time>
      </trkpt>
      <trkpt lat="38.5331580" lon="-0.7988630">
        <ele>516.0</ele>
        <time>2019-05-12T05:00:07Z</time>
      </trkpt>
      <trkpt lat="38.5336080" lon="-0.7990020">
        <ele>515.8</ele>
        <time>2019-05-12T05:00:13Z</time>
      </trkpt>
      <trkpt lat="38.5340450" lon="-0.7991180">
        <ele>516.4</ele>
        <time>2019-05-12T05:00:19Z</time>
      </trkpt>
      <trkpt lat="38.5342560" lon="-0.7991630">
        <ele>517.0</ele>
        <time>2019-05-12T05:00:22Z</time>
      </trkpt>
      <trkpt lat="38.5345400" lon="-0.7992310">
        <ele>516.8</ele>
        <time>2019-05-12T05:00:26Z</time>
      </trkpt>
      <trkpt lat="38.5348520" lon="-0.7992930">
        <ele>516.0</ele>
        <time>2019-05-12T05:00:30Z</time>
      </trkpt>
      <trkpt lat="38.5351610" lon="-0.7993560">
        <ele>515.2</ele>
        <time>2019-05-12T05:00:34Z</time>
      </trkpt>
      <trkpt lat="38.5356080" lon="-0.7994670">
        <ele>514.8</ele>
        <time>2019-05-12T05:00:40Z</time>
      </trkpt>
      <trkpt lat="38.5356780" lon="-0.7994820">
        <ele>515.0</ele>
        <time>2019-05-12T05:00:41Z</time>
      </trkpt>
      <trkpt lat="38.5361310" lon="-0.7995960">
        <ele>516.2</ele>
        <time>2019-05-12T05:00:48Z</time>
      </trkpt>
      <trkpt lat="38.5361910" lon="-0.7996140">
        <ele>516.2</ele>
        <time>2019-05-12T05:00:49Z</time>
      </trkpt>
      <trkpt lat="38.5365770" lon="-0.7997220">
        <ele>516.6</ele>
        <time>2019-05-12T05:00:56Z</time>
      </trkpt>
      <trkpt lat="38.5367510" lon="-0.7997850">
        <ele>517.2</ele>
        <time>2019-05-12T05:01:00Z</time>
      </trkpt>
      <trkpt lat="38.5368790" lon="-0.7998360">
        <ele>517.4</ele>
        <time>2019-05-12T05:01:03Z</time>
      </trkpt>
      <trkpt lat="38.5369620" lon="-0.7998660">
        <ele>517.8</ele>
        <time>2019-05-12T05:01:05Z</time>
      </trkpt>
      <trkpt lat="38.5371320" lon="-0.7999250">
        <ele>518.2</ele>
        <time>2019-05-12T05:01:09Z</time>
      </trkpt>
      <trkpt lat="38.5371730" lon="-0.7999400">
        <ele>518.2</ele>
        <time>2019-05-12T05:01:10Z</time>
      </trkpt>
      <trkpt lat="38.5374280" lon="-0.8000230">
        <ele>519.2</ele>
        <time>2019-05-12T05:01:16Z</time>
      </trkpt>
      <trkpt lat="38.5375080" lon="-0.8000500">
        <ele>519.4</ele>
        <time>2019-05-12T05:01:18Z</time>
      </trkpt>
      <trkpt lat="38.5376300" lon="-0.8000850">
        <ele>520.4</ele>
        <time>2019-05-12T05:01:21Z</time>
      </trkpt>
      <trkpt lat="38.5378430" lon="-0.8001360">
        <ele>521.2</ele>
        <time>2019-05-12T05:01:26Z</time>
      </trkpt>
      <trkpt lat="38.5379710" lon="-0.8001720">
        <ele>521.6</ele>
        <time>2019-05-12T05:01:29Z</time>
      </trkpt>
      <trkpt lat="38.5380590" lon="-0.8001940">
        <ele>522.0</ele>
        <time>2019-05-12T05:01:31Z</time>
      </trkpt>
      <trkpt lat="38.5382430" lon="-0.8002410">
        <ele>521.8</ele>
        <time>2019-05-12T05:01:35Z</time>
      </trkpt>
      <trkpt lat="38.5387040" lon="-0.8003740">
        <ele>522.4</ele>
        <time>2019-05-12T05:01:45Z</time>
      </trkpt>
      <trkpt lat="38.5387940" lon="-0.8004010">
        <ele>522.6</ele>
        <time>2019-05-12T05:01:47Z</time>
      </trkpt>
      <trkpt lat="38.5390710" lon="-0.8004940">
        <ele>522.8</ele>
        <time>2019-05-12T05:01:53Z</time>
      </trkpt>
      <trkpt lat="38.5394290" lon="-0.8006560">
        <ele>523.0</ele>
        <time>2019-05-12T05:02:01Z</time>
      </trkpt>
      <trkpt lat="38.5396440" lon="-0.8007510">
        <ele>523.8</ele>
        <time>2019-05-12T05:02:06Z</time>
      </trkpt>
      <trkpt lat="38.5398110" lon="-0.8008000">
        <ele>524.4</ele>
        <time>2019-05-12T05:02:10Z</time>
      </trkpt>
      <trkpt lat="38.5398490" lon="-0.8008090">
        <ele>525.0</ele>
        <time>2019-05-12T05:02:11Z</time>
      </trkpt>
      <trkpt lat="38.5400810" lon="-0.8008270">
        <ele>526.0</ele>
        <time>2019-05-12T05:02:17Z</time>
      </trkpt>
      <trkpt lat="38.5402550" lon="-0.8008340">
        <ele>527.0</ele>
        <time>2019-05-12T05:02:22Z</time>
      </trkpt>
      <trkpt lat="38.5403890" lon="-0.8008490">
        <ele>528.2</ele>
        <time>2019-05-12T05:02:26Z</time>
      </trkpt>
      <trkpt lat="38.5406020" lon="-0.8008990">
        <ele>529.2</ele>
        <time>2019-05-12T05:02:32Z</time>
      </trkpt>
      <trkpt lat="38.5407490" lon="-0.8009350">
        <ele>530.0</ele>
        <time>2019-05-12T05:02:36Z</time>
      </trkpt>
      <trkpt lat="38.5407870" lon="-0.8009450">
        <ele>530.2</ele>
        <time>2019-05-12T05:02:37Z</time>
      </trkpt>
      <trkpt lat="38.5410260" lon="-0.8010070">
        <ele>531.4</ele>
        <time>2019-05-12T05:02:44Z</time>
      </trkpt>
      <trkpt lat="38.5410880" lon="-0.8010210">
        <ele>532.2</ele>
        <time>2019-05-12T05:02:46Z</time>
      </trkpt>
      <trkpt lat="38.5411520" lon="-0.8010200">
        <ele>532.6</ele>
        <time>2019-05-12T05:02:48Z</time>
      </trkpt>
      <trkpt lat="38.5411780" lon="-0.8010010">
        <ele>533.0</ele>
        <time>2019-05-12T05:02:49Z</time>
      </trkpt>
      <trkpt lat="38.5412030" lon="-0.8009800">
        <ele>533.2</ele>
        <time>2019-05-12T05:02:50Z</time>
      </trkpt>
      <trkpt lat="38.5412260" lon="-0.8009570">
        <ele>533.6</ele>
        <time>2019-05-12T05:02:51Z</time>
      </trkpt>
      <trkpt lat="38.5413030" lon="-0.8008330">
        <ele>534.6</ele>
        <time>2019-05-12T05:02:55Z</time>
      </trkpt>
      <trkpt lat="38.5413210" lon="-0.8007990">
        <ele>534.8</ele>
        <time>2019-05-12T05:02:56Z</time>
      </trkpt>
      <trkpt lat="38.5413590" lon="-0.8007350">
        <ele>535.8</ele>
        <time>2019-05-12T05:02:58Z</time>
      </trkpt>
      <trkpt lat="38.5414360" lon="-0.8006050">
        <ele>537.0</ele>
        <time>2019-05-12T05:03:02Z</time>
      </trkpt>
      <trkpt lat="38.5414810" lon="-0.8005490">
        <ele>537.4</ele>
        <time>2019-05-12T05:03:04Z</time>
      </trkpt>
      <trkpt lat="38.5415590" lon="-0.8004700">
        <ele>538.0</ele>
        <time>2019-05-12T05:03:07Z</time>
      </trkpt>
      <trkpt lat="38.5416730" lon="-0.8003740">
        <ele>538.8</ele>
        <time>2019-05-12T05:03:11Z</time>
      </trkpt>
      <trkpt lat="38.5417680" lon="-0.8003150">
        <ele>539.2</ele>
        <time>2019-05-12T05:03:14Z</time>
      </trkpt>
      <trkpt lat="38.5418840" lon="-0.8002860">
        <ele>539.2</ele>
        <time>2019-05-12T05:03:17Z</time>
      </trkpt>
      <trkpt lat="38.5422110" lon="-0.8002570">
        <ele>538.6</ele>
        <time>2019-05-12T05:03:24Z</time>
      </trkpt>
      <trkpt lat="38.5423140" lon="-0.8002600">
        <ele>538.0</ele>
        <time>2019-05-12T05:03:26Z</time>
      </trkpt>
      <trkpt lat="38.5425960" lon="-0.8002670">
        <ele>537.0</ele>
        <time>2019-05-12T05:03:31Z</time>
      </trkpt>
      <trkpt lat="38.5429050" lon="-0.8002400">
        <ele>535.8</ele>
        <time>2019-05-12T05:03:36Z</time>
      </trkpt>
      <trkpt lat="38.5429750" lon="-0.8002240">
        <ele>535.2</ele>
        <time>2019-05-12T05:03:37Z</time>
      </trkpt>
      <trkpt lat="38.5430470" lon="-0.8001960">
        <ele>534.8</ele>
        <time>2019-05-12T05:03:38Z</time>
      </trkpt>
      <trkpt lat="38.5431110" lon="-0.8001540">
        <ele>534.4</ele>
        <time>2019-05-12T05:03:39Z</time>
      </trkpt>
      <trkpt lat="38.5432270" lon="-0.8000600">
        <ele>534.0</ele>
        <time>2019-05-12T05:03:41Z</time>
      </trkpt>
      <trkpt lat="38.5434510" lon="-0.7998350">
        <ele>534.6</ele>
        <time>2019-05-12T05:03:46Z</time>
      </trkpt>
      <trkpt lat="38.5436450" lon="-0.7997070">
        <ele>534.8</ele>
        <time>2019-05-12T05:03:50Z</time>
      </trkpt>
      <trkpt lat="38.5436980" lon="-0.7996960">
        <ele>535.2</ele>
        <time>2019-05-12T05:03:51Z</time>
      </trkpt>
      <trkpt lat="38.5437990" lon="-0.7996810">
        <ele>535.6</ele>
        <time>2019-05-12T05:03:53Z</time>
      </trkpt>
      <trkpt lat="38.5439450" lon="-0.7996670">
        <ele>536.6</ele>
        <time>2019-05-12T05:03:56Z</time>
      </trkpt>
      <trkpt lat="38.5439910" lon="-0.7996600">
        <ele>536.8</ele>
        <time>2019-05-12T05:03:57Z</time>
      </trkpt>
      <trkpt lat="38.5442050" lon="-0.7995830">
        <ele>537.8</ele>
        <time>2019-05-12T05:04:02Z</time>
      </trkpt>
      <trkpt lat="38.5442430" lon="-0.7995590">
        <ele>537.8</ele>
        <time>2019-05-12T05:04:03Z</time>
      </trkpt>
      <trkpt lat="38.5443840" lon="-0.7994610">
        <ele>538.8</ele>
        <time>2019-05-12T05:04:07Z</time>
      </trkpt>
      <trkpt lat="38.5445690" lon="-0.7993620">
        <ele>539.6</ele>
        <time>2019-05-12T05:04:12Z</time>
      </trkpt>
      <trkpt lat="38.5446090" lon="-0.7993460">
        <ele>539.8</ele>
        <time>2019-05-12T05:04:13Z</time>
      </trkpt>
      <trkpt lat="38.5446490" lon="-0.7993280">
        <ele>540.0</ele>
        <time>2019-05-12T05:04:14Z</time>
      </trkpt>
      <trkpt lat="38.5447780" lon="-0.7992960">
        <ele>540.8</ele>
        <time>2019-05-12T05:04:17Z</time>
      </trkpt>
      <trkpt lat="38.5448250" lon="-0.7992920">
        <ele>540.8</ele>
        <time>2019-05-12T05:04:18Z</time>
      </trkpt>
      <trkpt lat="38.5451270" lon="-0.7993010">
        <ele>540.4</ele>
        <time>2019-05-12T05:04:24Z</time>
      </trkpt>
      <trkpt lat="38.5456470" lon="-0.7993260">
        <ele>539.2</ele>
        <time>2019-05-12T05:04:33Z</time>
      </trkpt>
      <trkpt lat="38.5457630" lon="-0.7993350">
        <ele>539.0</ele>
        <time>2019-05-12T05:04:35Z</time>
      </trkpt>
      <trkpt lat="38.5462670" lon="-0.7993490">
        <ele>538.8</ele>
        <time>2019-05-12T05:04:44Z</time>
      </trkpt>
      <trkpt lat="38.5463170" lon="-0.7993360">
        <ele>538.8</ele>
        <time>2019-05-12T05:04:45Z</time>
      </trkpt>
      <trkpt lat="38.5465660" lon="-0.7992610">
        <ele>538.6</ele>
        <time>2019-05-12T05:04:50Z</time>
      </trkpt>
      <trkpt lat="38.5467270" lon="-0.7992150">
        <ele>538.0</ele>
        <time>2019-05-12T05:04:53Z</time>
      </trkpt>
      <trkpt lat="38.5469550" lon="-0.7991340">
        <ele>537.6</ele>
        <time>2019-05-12T05:04:57Z</time>
      </trkpt>
      <trkpt lat="38.5470770" lon="-0.7990960">
        <ele>537.0</ele>
        <time>2019-05-12T05:04:59Z</time>
      </trkpt>
      <trkpt lat="38.5475040" lon="-0.7989450">
        <ele>535.8</ele>
        <time>2019-05-12T05:05:06Z</time>
      </trkpt>
      <trkpt lat="38.5479920" lon="-0.7987770">
        <ele>535.6</ele>
        <time>2019-05-12T05:05:14Z</time>
      </trkpt>
      <trkpt lat="38.5483730" lon="-0.7986390">
        <ele>536.8</ele>
        <time>2019-05-12T05:05:21Z</time>
      </trkpt>
      <trkpt lat="38.5488040" lon="-0.7984180">
        <ele>537.8</ele>
        <time>2019-05-12T05:05:30Z</time>
      </trkpt>
      <trkpt lat="38.5488910" lon="-0.7983660">
        <ele>538.0</ele>
        <time>2019-05-12T05:05:32Z</time>
      </trkpt>
      <trkpt lat="38.5491790" lon="-0.7981830">
        <ele>538.8</ele>
        <time>2019-05-12T05:05:39Z</time>
      </trkpt>
      <trkpt lat="38.5492620" lon="-0.7981260">
        <ele>539.0</ele>
        <time>2019-05-12T05:05:41Z</time>
      </trkpt>
      <trkpt lat="38.5494530" lon="-0.7979880">
        <ele>540.4</ele>
        <time>2019-05-12T05:05:46Z</time>
      </trkpt>
      <trkpt lat="38.5494840" lon="-0.7979600">
        <ele>540.6</ele>
        <time>2019-05-12T05:05:47Z</time>
      </trkpt>
      <trkpt lat="38.5496020" lon="-0.7978530">
        <ele>541.4</ele>
        <time>2019-05-12T05:05:51Z</time>
      </trkpt>
      <trkpt lat="38.5496940" lon="-0.7977760">
        <ele>542.6</ele>
        <time>2019-05-12T05:05:54Z</time>
      </trkpt>
      <trkpt lat="38.5497230" lon="-0.7977490">
        <ele>543.2</ele>
        <time>2019-05-12T05:05:55Z</time>
      </trkpt>
      <trkpt lat="38.5497840" lon="-0.7976990">
        <ele>543.6</ele>
        <time>2019-05-12T05:05:57Z</time>
      </trkpt>
      <trkpt lat="38.5500060" lon="-0.7975130">
        <ele>545.0</ele>
        <time>2019-05-12T05:06:04Z</time>
      </trkpt>
      <trkpt lat="38.5502750" lon="-0.7973090">
        <ele>545.6</ele>
        <time>2019-05-12T05:06:12Z</time>
      </trkpt>
      <trkpt lat="38.5505960" lon="-0.7971400">
        <ele>545.4</ele>
        <time>2019-05-12T05:06:20Z</time>
      </trkpt>
      <trkpt lat="38.5509390" lon="-0.7970150">
        <ele>544.2</ele>
        <time>2019-05-12T05:06:27Z</time>
      </trkpt>
      <trkpt lat="38.5510590" lon="-0.7969820">
        <ele>543.6</ele>
        <time>2019-05-12T05:06:29Z</time>
      </trkpt>
      <trkpt lat="38.5512610" lon="-0.7969210">
        <ele>542.2</ele>
        <time>2019-05-12T05:06:32Z</time>
      </trkpt>
      <trkpt lat="38.5513390" lon="-0.7969070">
        <ele>541.6</ele>
        <time>2019-05-12T05:06:33Z</time>
      </trkpt>
      <trkpt lat="38.5514200" lon="-0.7968900">
        <ele>540.8</ele>
        <time>2019-05-12T05:06:34Z</time>
      </trkpt>
      <trkpt lat="38.5515920" lon="-0.7968550">
        <ele>539.2</ele>
        <time>2019-05-12T05:06:36Z</time>
      </trkpt>
      <trkpt lat="38.5517610" lon="-0.7968100">
        <ele>538.0</ele>
        <time>2019-05-12T05:06:38Z</time>
      </trkpt>
      <trkpt lat="38.5520360" lon="-0.7966650">
        <ele>537.8</ele>
        <time>2019-05-12T05:06:42Z</time>
      </trkpt>
      <trkpt lat="38.5522070" lon="-0.7965430">
        <ele>539.4</ele>
        <time>2019-05-12T05:06:45Z</time>
      </trkpt>
      <trkpt lat="38.5523120" lon="-0.7964780">
        <ele>539.8</ele>
        <time>2019-05-12T05:06:47Z</time>
      </trkpt>
      <trkpt lat="38.5524470" lon="-0.7963970">
        <ele>540.6</ele>
        <time>2019-05-12T05:06:50Z</time>
      </trkpt>
      <trkpt lat="38.5525320" lon="-0.7963620">
        <ele>541.2</ele>
        <time>2019-05-12T05:06:52Z</time>
      </trkpt>
      <trkpt lat="38.5525780" lon="-0.7963500">
        <ele>541.4</ele>
        <time>2019-05-12T05:06:53Z</time>
      </trkpt>
      <trkpt lat="38.5526670" lon="-0.7963200">
        <ele>542.0</ele>
        <time>2019-05-12T05:06:55Z</time>
      </trkpt>
      <trkpt lat="38.5527960" lon="-0.7962840">
        <ele>542.4</ele>
        <time>2019-05-12T05:06:58Z</time>
      </trkpt>
      <trkpt lat="38.5528380" lon="-0.7962760">
        <ele>542.6</ele>
        <time>2019-05-12T05:06:59Z</time>
      </trkpt>
      <trkpt lat="38.5528810" lon="-0.7962580">
        <ele>543.0</ele>
        <time>2019-05-12T05:07:00Z</time>
      </trkpt>
      <trkpt lat="38.5529220" lon="-0.7962400">
        <ele>543.0</ele>
        <time>2019-05-12T05:07:01Z</time>
      </trkpt>
      <trkpt lat="38.5530660" lon="-0.7961600">
        <ele>544.4</ele>
        <time>2019-05-12T05:07:05Z</time>
      </trkpt>
      <trkpt lat="38.5532360" lon="-0.7960950">
        <ele>545.6</ele>
        <time>2019-05-12T05:07:10Z</time>
      </trkpt>
      <trkpt lat="38.5532740" lon="-0.7960840">
        <ele>546.0</ele>
        <time>2019-05-12T05:07:11Z</time>
      </trkpt>
      <trkpt lat="38.5534120" lon="-0.7960520">
        <ele>546.6</ele>
        <time>2019-05-12T05:07:15Z</time>
      </trkpt>
      <trkpt lat="38.5535270" lon="-0.7960360">
        <ele>546.8</ele>
        <time>2019-05-12T05:07:18Z</time>
      </trkpt>
      <trkpt lat="38.5538390" lon="-0.7959840">
        <ele>547.8</ele>
        <time>2019-05-12T05:07:26Z</time>
      </trkpt>
      <trkpt lat="38.5541620" lon="-0.7959250">
        <ele>548.2</ele>
        <time>2019-05-12T05:07:34Z</time>
      </trkpt>
      <trkpt lat="38.5542910" lon="-0.7959240">
        <ele>548.4</ele>
        <time>2019-05-12T05:07:37Z</time>
      </trkpt>
      <trkpt lat="38.5544140" lon="-0.7959380">
        <ele>548.6</ele>
        <time>2019-05-12T05:07:40Z</time>
      </trkpt>
      <trkpt lat="38.5547630" lon="-0.7959910">
        <ele>548.6</ele>
        <time>2019-05-12T05:07:48Z</time>
      </trkpt>
      <trkpt lat="38.5548960" lon="-0.7960140">
        <ele>549.0</ele>
        <time>2019-05-12T05:07:51Z</time>
      </trkpt>
      <trkpt lat="38.5551220" lon="-0.7960220">
        <ele>549.2</ele>
        <time>2019-05-12T05:07:56Z</time>
      </trkpt>
      <trkpt lat="38.5554280" lon="-0.7959800">
        <ele>549.6</ele>
        <time>2019-05-12T05:08:03Z</time>
      </trkpt>
      <trkpt lat="38.5555190" lon="-0.7959730">
        <ele>549.8</ele>
        <time>2019-05-12T05:08:05Z</time>
      </trkpt>
      <trkpt lat="38.5555620" lon="-0.7959760">
        <ele>550.0</ele>
        <time>2019-05-12T05:08:06Z</time>
      </trkpt>
      <trkpt lat="38.5556900" lon="-0.7960190">
        <ele>550.4</ele>
        <time>2019-05-12T05:08:09Z</time>
      </trkpt>
      <trkpt lat="38.5559710" lon="-0.7961460">
        <ele>551.4</ele>
        <time>2019-05-12T05:08:16Z</time>
      </trkpt>
      <trkpt lat="38.5560080" lon="-0.7961660">
        <ele>551.4</ele>
        <time>2019-05-12T05:08:17Z</time>
      </trkpt>
      <trkpt lat="38.5560820" lon="-0.7961990">
        <ele>551.4</ele>
        <time>2019-05-12T05:08:19Z</time>
      </trkpt>
      <trkpt lat="38.5561980" lon="-0.7962410">
        <ele>551.6</ele>
        <time>2019-05-12T05:08:22Z</time>
      </trkpt>
      <trkpt lat="38.5562810" lon="-0.7962710">
        <ele>551.8</ele>
        <time>2019-05-12T05:08:24Z</time>
      </trkpt>
      <trkpt lat="38.5565730" lon="-0.7963430">
        <ele>552.4</ele>
        <time>2019-05-12T05:08:31Z</time>
      </trkpt>
      <trkpt lat="38.5569280" lon="-0.7964050">
        <ele>553.0</ele>
        <time>2019-05-12T05:08:39Z</time>
      </trkpt>
      <trkpt lat="38.5573340" lon="-0.7964710">
        <ele>553.0</ele>
        <time>2019-05-12T05:08:48Z</time>
      </trkpt>
      <trkpt lat="38.5574700" lon="-0.7965020">
        <ele>553.0</ele>
        <time>2019-05-12T05:08:51Z</time>
      </trkpt>
      <trkpt lat="38.5575560" lon="-0.7965230">
        <ele>553.4</ele>
        <time>2019-05-12T05:08:53Z</time>
      </trkpt>
      <trkpt lat="38.5575960" lon="-0.7965370">
        <ele>553.4</ele>
        <time>2019-05-12T05:08:54Z</time>
      </trkpt>
      <trkpt lat="38.5578490" lon="-0.7965850">
        <ele>554.0</ele>
        <time>2019-05-12T05:09:00Z</time>
      </trkpt>
      <trkpt lat="38.5580790" lon="-0.7966190">
        <ele>554.4</ele>
        <time>2019-05-12T05:09:05Z</time>
      </trkpt>
      <trkpt lat="38.5581600" lon="-0.7966270">
        <ele>554.6</ele>
        <time>2019-05-12T05:09:07Z</time>
      </trkpt>
      <trkpt lat="38.5585860" lon="-0.7966380">
        <ele>555.2</ele>
        <time>2019-05-12T05:09:16Z</time>
      </trkpt>
      <trkpt lat="38.5587700" lon="-0.7966520">
        <ele>555.6</ele>
        <time>2019-05-12T05:09:20Z</time>
      </trkpt>
      <trkpt lat="38.5589580" lon="-0.7966610">
        <ele>556.0</ele>
        <time>2019-05-12T05:09:24Z</time>
      </trkpt>
      <trkpt lat="38.5592860" lon="-0.7966830">
        <ele>556.6</ele>
        <time>2019-05-12T05:09:31Z</time>
      </trkpt>
      <trkpt lat="38.5594770" lon="-0.7966800">
        <ele>556.8</ele>
        <time>2019-05-12T05:09:35Z</time>
      </trkpt>
      <trkpt lat="38.5598010" lon="-0.7966760">
        <ele>557.4</ele>
        <time>2019-05-12T05:09:42Z</time>
      </trkpt>
      <trkpt lat="38.5598900" lon="-0.7966870">
        <ele>557.6</ele>
        <time>2019-05-12T05:09:44Z</time>
      </trkpt>
      <trkpt lat="38.5601290" lon="-0.7967270">
        <ele>558.4</ele>
        <time>2019-05-12T05:09:49Z</time>
      </trkpt>
      <trkpt lat="38.5602260" lon="-0.7967320">
        <ele>558.0</ele>
        <time>2019-05-12T05:09:51Z</time>
      </trkpt>
      <trkpt lat="38.5604220" lon="-0.7967520">
        <ele>558.2</ele>
        <time>2019-05-12T05:09:55Z</time>
      </trkpt>
      <trkpt lat="38.5608730" lon="-0.7968070">
        <ele>558.4</ele>
        <time>2019-05-12T05:10:04Z</time>
      </trkpt>
      <trkpt lat="38.5611660" lon="-0.7968540">
        <ele>558.6</ele>
        <time>2019-05-12T05:10:10Z</time>
      </trkpt>
      <trkpt lat="38.5613620" lon="-0.7968930">
        <ele>558.4</ele>
        <time>2019-05-12T05:10:14Z</time>
      </trkpt>
      <trkpt lat="38.5618060" lon="-0.7969900">
        <ele>558.6</ele>
        <time>2019-05-12T05:10:23Z</time>
      </trkpt>
      <trkpt lat="38.5621540" lon="-0.7970470">
        <ele>559.2</ele>
        <time>2019-05-12T05:10:30Z</time>
      </trkpt>
      <trkpt lat="38.5623400" lon="-0.7970810">
        <ele>559.8</ele>
        <time>2019-05-12T05:10:34Z</time>
      </trkpt>
      <trkpt lat="38.5625490" lon="-0.7971190">
        <ele>560.8</ele>
        <time>2019-05-12T05:10:39Z</time>
      </trkpt>
      <trkpt lat="38.5627010" lon="-0.7971530">
        <ele>561.8</ele>
        <time>2019-05-12T05:10:43Z</time>
      </trkpt>
      <trkpt lat="38.5627740" lon="-0.7971720">
        <ele>562.4</ele>
        <time>2019-05-12T05:10:45Z</time>
      </trkpt>
      <trkpt lat="38.5628480" lon="-0.7971820">
        <ele>562.8</ele>
        <time>2019-05-12T05:10:47Z</time>
      </trkpt>
      <trkpt lat="38.5630190" lon="-0.7972240">
        <ele>564.0</ele>
        <time>2019-05-12T05:10:52Z</time>
      </trkpt>
      <trkpt lat="38.5630890" lon="-0.7972330">
        <ele>565.2</ele>
        <time>2019-05-12T05:10:54Z</time>
      </trkpt>
      <trkpt lat="38.5632540" lon="-0.7972720">
        <ele>566.2</ele>
        <time>2019-05-12T05:10:59Z</time>
      </trkpt>
      <trkpt lat="38.5633870" lon="-0.7972990">
        <ele>567.2</ele>
        <time>2019-05-12T05:11:03Z</time>
      </trkpt>
      <trkpt lat="38.5635850" lon="-0.7973300">
        <ele>568.0</ele>
        <time>2019-05-12T05:11:09Z</time>
      </trkpt>
      <trkpt lat="38.5636180" lon="-0.7973350">
        <ele>568.4</ele>
        <time>2019-05-12T05:11:10Z</time>
      </trkpt>
      <trkpt lat="38.5638240" lon="-0.7973690">
        <ele>569.6</ele>
        <time>2019-05-12T05:11:16Z</time>
      </trkpt>
      <trkpt lat="38.5641560" lon="-0.7973980">
        <ele>570.0</ele>
        <time>2019-05-12T05:11:25Z</time>
      </trkpt>
      <trkpt lat="38.5645210" lon="-0.7974100">
        <ele>570.2</ele>
        <time>2019-05-12T05:11:34Z</time>
      </trkpt>
      <trkpt lat="38.5648780" lon="-0.7973980">
        <ele>569.0</ele>
        <time>2019-05-12T05:11:41Z</time>
      </trkpt>
      <trkpt lat="38.5649940" lon="-0.7973880">
        <ele>568.4</ele>
        <time>2019-05-12T05:11:43Z</time>
      </trkpt>
      <trkpt lat="38.5651810" lon="-0.7973650">
        <ele>567.2</ele>
        <time>2019-05-12T05:11:46Z</time>
      </trkpt>
      <trkpt lat="38.5653130" lon="-0.7973510">
        <ele>566.4</ele>
        <time>2019-05-12T05:11:48Z</time>
      </trkpt>
      <trkpt lat="38.5653790" lon="-0.7973460">
        <ele>566.0</ele>
        <time>2019-05-12T05:11:49Z</time>
      </trkpt>
      <trkpt lat="38.5658290" lon="-0.7972890">
        <ele>565.0</ele>
        <time>2019-05-12T05:11:56Z</time>
      </trkpt>
      <trkpt lat="38.5662420" lon="-0.7972790">
        <ele>565.0</ele>
        <time>2019-05-12T05:12:03Z</time>
      </trkpt>
      <trkpt lat="38.5667010" lon="-0.7973270">
        <ele>564.6</ele>
        <time>2019-05-12T05:12:11Z</time>
      </trkpt>
      <trkpt lat="38.5671540" lon="-0.7973750">
        <ele>564.8</ele>
        <time>2019-05-12T05:12:19Z</time>
      </trkpt>
      <trkpt lat="38.5674950" lon="-0.7973820">
        <ele>565.2</ele>
        <time>2019-05-12T05:12:26Z</time>
      </trkpt>
      <trkpt lat="38.5677260" lon="-0.7973750">
        <ele>565.6</ele>
        <time>2019-05-12T05:12:31Z</time>
      </trkpt>
      <trkpt lat="38.5677720" lon="-0.7973730">
        <ele>565.6</ele>
        <time>2019-05-12T05:12:32Z</time>
      </trkpt>
      <trkpt lat="38.5679210" lon="-0.7973530">
        <ele>566.2</ele>
        <time>2019-05-12T05:12:35Z</time>
      </trkpt>
      <trkpt lat="38.5680300" lon="-0.7973190">
        <ele>565.6</ele>
        <time>2019-05-12T05:12:37Z</time>
      </trkpt>
      <trkpt lat="38.5680890" lon="-0.7972940">
        <ele>565.4</ele>
        <time>2019-05-12T05:12:38Z</time>
      </trkpt>
      <trkpt lat="38.5681560" lon="-0.7972720">
        <ele>564.8</ele>
        <time>2019-05-12T05:12:39Z</time>
      </trkpt>
      <trkpt lat="38.5682300" lon="-0.7972600">
        <ele>564.4</ele>
        <time>2019-05-12T05:12:40Z</time>
      </trkpt>
      <trkpt lat="38.5683790" lon="-0.7972820">
        <ele>563.6</ele>
        <time>2019-05-12T05:12:42Z</time>
      </trkpt>
      <trkpt lat="38.5685420" lon="-0.7973580">
        <ele>563.6</ele>
        <time>2019-05-12T05:12:45Z</time>
      </trkpt>
      <trkpt lat="38.5686450" lon="-0.7973990">
        <ele>565.2</ele>
        <time>2019-05-12T05:12:48Z</time>
      </trkpt>
      <trkpt lat="38.5686810" lon="-0.7974190">
        <ele>565.8</ele>
        <time>2019-05-12T05:12:49Z</time>
      </trkpt>
      <trkpt lat="38.5687520" lon="-0.7974550">
        <ele>566.4</ele>
        <time>2019-05-12T05:12:51Z</time>
      </trkpt>
      <trkpt lat="38.5688540" lon="-0.7975070">
        <ele>567.6</ele>
        <time>2019-05-12T05:12:54Z</time>
      </trkpt>
      <trkpt lat="38.5689500" lon="-0.7975510">
        <ele>568.2</ele>
        <time>2019-05-12T05:12:57Z</time>
      </trkpt>
      <trkpt lat="38.5690150" lon="-0.7975760">
        <ele>568.6</ele>
        <time>2019-05-12T05:12:59Z</time>
      </trkpt>
      <trkpt lat="38.5692390" lon="-0.7976220">
        <ele>569.6</ele>
        <time>2019-05-12T05:13:05Z</time>
      </trkpt>
      <trkpt lat="38.5693190" lon="-0.7976320">
        <ele>569.8</ele>
        <time>2019-05-12T05:13:07Z</time>
      </trkpt>
      <trkpt lat="38.5696080" lon="-0.7976600">
        <ele>570.2</ele>
        <time>2019-05-12T05:13:14Z</time>
      </trkpt>
      <trkpt lat="38.5699430" lon="-0.7976790">
        <ele>570.6</ele>
        <time>2019-05-12T05:13:22Z</time>
      </trkpt>
      <trkpt lat="38.5700320" lon="-0.7976810">
        <ele>570.8</ele>
        <time>2019-05-12T05:13:24Z</time>
      </trkpt>
      <trkpt lat="38.5702780" lon="-0.7976950">
        <ele>571.6</ele>
        <time>2019-05-12T05:13:30Z</time>
      </trkpt>
      <trkpt lat="38.5703180" lon="-0.7977000">
        <ele>571.8</ele>
        <time>2019-05-12T05:13:31Z</time>
      </trkpt>
      <trkpt lat="38.5706430" lon="-0.7977690">
        <ele>572.4</ele>
        <time>2019-05-12T05:13:39Z</time>
      </trkpt>
      <trkpt lat="38.5708400" lon="-0.7978160">
        <ele>573.0</ele>
        <time>2019-05-12T05:13:44Z</time>
      </trkpt>
      <trkpt lat="38.5709440" lon="-0.7978410">
        <ele>573.2</ele>
        <time>2019-05-12T05:13:47Z</time>
      </trkpt>
      <trkpt lat="38.5710300" lon="-0.7978440">
        <ele>573.6</ele>
        <time>2019-05-12T05:13:50Z</time>
      </trkpt>
      <trkpt lat="38.5710590" lon="-0.7978650">
        <ele>573.8</ele>
        <time>2019-05-12T05:13:51Z</time>
      </trkpt>
      <trkpt lat="38.5712200" lon="-0.7979140">
        <ele>574.2</ele>
        <time>2019-05-12T05:13:55Z</time>
      </trkpt>
      <trkpt lat="38.5713830" lon="-0.7979380">
        <ele>574.6</ele>
        <time>2019-05-12T05:13:59Z</time>
      </trkpt>
      <trkpt lat="38.5714660" lon="-0.7979440">
        <ele>574.6</ele>
        <time>2019-05-12T05:14:01Z</time>
      </trkpt>
      <trkpt lat="38.5716300" lon="-0.7979590">
        <ele>575.2</ele>
        <time>2019-05-12T05:14:05Z</time>
      </trkpt>
      <trkpt lat="38.5718020" lon="-0.7979630">
        <ele>575.6</ele>
        <time>2019-05-12T05:14:09Z</time>
      </trkpt>
      <trkpt lat="38.5719310" lon="-0.7979650">
        <ele>576.2</ele>
        <time>2019-05-12T05:14:12Z</time>
      </trkpt>
      <trkpt lat="38.5721490" lon="-0.7979720">
        <ele>576.6</ele>
        <time>2019-05-12T05:14:17Z</time>
      </trkpt>
      <trkpt lat="38.5722330" lon="-0.7979720">
        <ele>577.0</ele>
        <time>2019-05-12T05:14:19Z</time>
      </trkpt>
      <trkpt lat="38.5723180" lon="-0.7979730">
        <ele>577.2</ele>
        <time>2019-05-12T05:14:21Z</time>
      </trkpt>
      <trkpt lat="38.5724030" lon="-0.7979850">
        <ele>577.6</ele>
        <time>2019-05-12T05:14:23Z</time>
      </trkpt>
      <trkpt lat="38.5724820" lon="-0.7979940">
        <ele>577.8</ele>
        <time>2019-05-12T05:14:25Z</time>
      </trkpt>
      <trkpt lat="38.5725650" lon="-0.7980000">
        <ele>578.0</ele>
        <time>2019-05-12T05:14:27Z</time>
      </trkpt>
      <trkpt lat="38.5726490" lon="-0.7980120">
        <ele>578.6</ele>
        <time>2019-05-12T05:14:29Z</time>
      </trkpt>
      <trkpt lat="38.5728060" lon="-0.7980400">
        <ele>579.2</ele>
        <time>2019-05-12T05:14:33Z</time>
      </trkpt>
      <trkpt lat="38.5728830" lon="-0.7980640">
        <ele>579.6</ele>
        <time>2019-05-12T05:14:35Z</time>
      </trkpt>
      <trkpt lat="38.5730760" lon="-0.7981330">
        <ele>580.6</ele>
        <time>2019-05-12T05:14:40Z</time>
      </trkpt>
      <trkpt lat="38.5734350" lon="-0.7982900">
        <ele>581.2</ele>
        <time>2019-05-12T05:14:49Z</time>
      </trkpt>
      <trkpt lat="38.5735130" lon="-0.7983220">
        <ele>581.6</ele>
        <time>2019-05-12T05:14:51Z</time>
      </trkpt>
      <trkpt lat="38.5738750" lon="-0.7984790">
        <ele>582.2</ele>
        <time>2019-05-12T05:15:00Z</time>
      </trkpt>
      <trkpt lat="38.5740010" lon="-0.7985270">
        <ele>582.6</ele>
        <time>2019-05-12T05:15:03Z</time>
      </trkpt>
      <trkpt lat="38.5741610" lon="-0.7986010">
        <ele>583.0</ele>
        <time>2019-05-12T05:15:07Z</time>
      </trkpt>
      <trkpt lat="38.5744380" lon="-0.7987110">
        <ele>583.6</ele>
        <time>2019-05-12T05:15:14Z</time>
      </trkpt>
      <trkpt lat="38.5744800" lon="-0.7987260">
        <ele>583.8</ele>
        <time>2019-05-12T05:15:15Z</time>
      </trkpt>
      <trkpt lat="38.5745240" lon="-0.7987300">
        <ele>584.0</ele>
        <time>2019-05-12T05:15:16Z</time>
      </trkpt>
      <trkpt lat="38.5746940" lon="-0.7987610">
        <ele>583.8</ele>
        <time>2019-05-12T05:15:20Z</time>
      </trkpt>
      <trkpt lat="38.5750170" lon="-0.7988230">
        <ele>583.4</ele>
        <time>2019-05-12T05:15:27Z</time>
      </trkpt>
      <trkpt lat="38.5750650" lon="-0.7988270">
        <ele>583.0</ele>
        <time>2019-05-12T05:15:28Z</time>
      </trkpt>
      <trkpt lat="38.5752610" lon="-0.7988030">
        <ele>583.0</ele>
        <time>2019-05-12T05:15:32Z</time>
      </trkpt>
      <trkpt lat="38.5753840" lon="-0.7986350">
        <ele>583.6</ele>
        <time>2019-05-12T05:15:36Z</time>
      </trkpt>
      <trkpt lat="38.5754390" lon="-0.7984940">
        <ele>584.0</ele>
        <time>2019-05-12T05:15:39Z</time>
      </trkpt>
      <trkpt lat="38.5754740" lon="-0.7983860">
        <ele>584.6</ele>
        <time>2019-05-12T05:15:41Z</time>
      </trkpt>
      <trkpt lat="38.5755670" lon="-0.7980160">
        <ele>584.8</ele>
        <time>2019-05-12T05:15:48Z</time>
      </trkpt>
      <trkpt lat="38.5756150" lon="-0.7978590">
        <ele>585.0</ele>
        <time>2019-05-12T05:15:51Z</time>
      </trkpt>
      <trkpt lat="38.5756760" lon="-0.7977240">
        <ele>585.4</ele>
        <time>2019-05-12T05:15:54Z</time>
      </trkpt>
      <trkpt lat="38.5757080" lon="-0.7976910">
        <ele>585.2</ele>
        <time>2019-05-12T05:15:55Z</time>
      </trkpt>
      <trkpt lat="38.5759030" lon="-0.7976240">
        <ele>584.6</ele>
        <time>2019-05-12T05:15:59Z</time>
      </trkpt>
      <trkpt lat="38.5760220" lon="-0.7976130">
        <ele>583.6</ele>
        <time>2019-05-12T05:16:01Z</time>
      </trkpt>
      <trkpt lat="38.5761630" lon="-0.7975770">
        <ele>584.0</ele>
        <time>2019-05-12T05:16:04Z</time>
      </trkpt>
      <trkpt lat="38.5762330" lon="-0.7975540">
        <ele>585.0</ele>
        <time>2019-05-12T05:16:06Z</time>
      </trkpt>
      <trkpt lat="38.5762880" lon="-0.7975400">
        <ele>586.2</ele>
        <time>2019-05-12T05:16:08Z</time>
      </trkpt>
      <trkpt lat="38.5763170" lon="-0.7975190">
        <ele>586.8</ele>
        <time>2019-05-12T05:16:09Z</time>
      </trkpt>
      <trkpt lat="38.5764200" lon="-0.7974040">
        <ele>587.2</ele>
        <time>2019-05-12T05:16:13Z</time>
      </trkpt>
      <trkpt lat="38.5764420" lon="-0.7973650">
        <ele>587.4</ele>
        <time>2019-05-12T05:16:14Z</time>
      </trkpt>
      <trkpt lat="38.5765830" lon="-0.7971920">
        <ele>588.2</ele>
        <time>2019-05-12T05:16:19Z</time>
      </trkpt>
      <trkpt lat="38.5766470" lon="-0.7971330">
        <ele>588.2</ele>
        <time>2019-05-12T05:16:21Z</time>
      </trkpt>
      <trkpt lat="38.5768900" lon="-0.7969890">
        <ele>588.6</ele>
        <time>2019-05-12T05:16:28Z</time>
      </trkpt>
      <trkpt lat="38.5769690" lon="-0.7970150">
        <ele>589.0</ele>
        <time>2019-05-12T05:16:30Z</time>
      </trkpt>
      <trkpt lat="38.5770490" lon="-0.7970540">
        <ele>589.0</ele>
        <time>2019-05-12T05:16:32Z</time>
      </trkpt>
      <trkpt lat="38.5771240" lon="-0.7971020">
        <ele>589.2</ele>
        <time>2019-05-12T05:16:34Z</time>
      </trkpt>
      <trkpt lat="38.5773000" lon="-0.7971890">
        <ele>589.8</ele>
        <time>2019-05-12T05:16:39Z</time>
      </trkpt>
      <trkpt lat="38.5773700" lon="-0.7971990">
        <ele>590.2</ele>
        <time>2019-05-12T05:16:41Z</time>
      </trkpt>
      <trkpt lat="38.5774910" lon="-0.7971860">
        <ele>591.4</ele>
        <time>2019-05-12T05:16:45Z</time>
      </trkpt>
      <trkpt lat="38.5775650" lon="-0.7971630">
        <ele>592.6</ele>
        <time>2019-05-12T05:16:48Z</time>
      </trkpt>
      <trkpt lat="38.5776740" lon="-0.7971200">
        <ele>593.6</ele>
        <time>2019-05-12T05:16:52Z</time>
      </trkpt>
      <trkpt lat="38.5777630" lon="-0.7971010">
        <ele>594.8</ele>
        <time>2019-05-12T05:16:55Z</time>
      </trkpt>
      <trkpt lat="38.5778390" lon="-0.7971020">
        <ele>595.6</ele>
        <time>2019-05-12T05:16:58Z</time>
      </trkpt>
      <trkpt lat="38.5779010" lon="-0.7971070">
        <ele>596.0</ele>
        <time>2019-05-12T05:17:00Z</time>
      </trkpt>
      <trkpt lat="38.5780260" lon="-0.7971010">
        <ele>597.2</ele>
        <time>2019-05-12T05:17:04Z</time>
      </trkpt>
      <trkpt lat="38.5781850" lon="-0.7970950">
        <ele>598.4</ele>
        <time>2019-05-12T05:17:09Z</time>
      </trkpt>
      <trkpt lat="38.5783440" lon="-0.7971080">
        <ele>599.6</ele>
        <time>2019-05-12T05:17:14Z</time>
      </trkpt>
      <trkpt lat="38.5783750" lon="-0.7971120">
        <ele>599.8</ele>
        <time>2019-05-12T05:17:15Z</time>
      </trkpt>
      <trkpt lat="38.5785640" lon="-0.7971380">
        <ele>600.6</ele>
        <time>2019-05-12T05:17:21Z</time>
      </trkpt>
      <trkpt lat="38.5786000" lon="-0.7971440">
        <ele>600.8</ele>
        <time>2019-05-12T05:17:22Z</time>
      </trkpt>
      <trkpt lat="38.5786960" lon="-0.7971520">
        <ele>601.2</ele>
        <time>2019-05-12T05:17:25Z</time>
      </trkpt>
      <trkpt lat="38.5788330" lon="-0.7971830">
        <ele>601.6</ele>
        <time>2019-05-12T05:17:29Z</time>
      </trkpt>
      <trkpt lat="38.5789720" lon="-0.7972010">
        <ele>602.6</ele>
        <time>2019-05-12T05:17:33Z</time>
      </trkpt>
      <trkpt lat="38.5790070" lon="-0.7972090">
        <ele>602.8</ele>
        <time>2019-05-12T05:17:34Z</time>
      </trkpt>
      <trkpt lat="38.5792440" lon="-0.7972720">
        <ele>603.8</ele>
        <time>2019-05-12T05:17:41Z</time>
      </trkpt>
      <trkpt lat="38.5792760" lon="-0.7972840">
        <ele>604.0</ele>
        <time>2019-05-12T05:17:42Z</time>
      </trkpt>
      <trkpt lat="38.5794550" lon="-0.7974170">
        <ele>605.0</ele>
        <time>2019-05-12T05:17:48Z</time>
      </trkpt>
      <trkpt lat="38.5794850" lon="-0.7974500">
        <ele>605.0</ele>
        <time>2019-05-12T05:17:49Z</time>
      </trkpt>
      <trkpt lat="38.5797440" lon="-0.7976120">
        <ele>605.8</ele>
        <time>2019-05-12T05:17:57Z</time>
      </trkpt>
      <trkpt lat="38.5798910" lon="-0.7975600">
        <ele>605.6</ele>
        <time>2019-05-12T05:18:01Z</time>
      </trkpt>
      <trkpt lat="38.5800140" lon="-0.7974670">
        <ele>606.2</ele>
        <time>2019-05-12T05:18:05Z</time>
      </trkpt>
      <trkpt lat="38.5800740" lon="-0.7973940">
        <ele>607.0</ele>
        <time>2019-05-12T05:18:08Z</time>
      </trkpt>
      <trkpt lat="38.5800910" lon="-0.7973720">
        <ele>607.4</ele>
        <time>2019-05-12T05:18:09Z</time>
      </trkpt>
      <trkpt lat="38.5801370" lon="-0.7973080">
        <ele>608.6</ele>
        <time>2019-05-12T05:18:12Z</time>
      </trkpt>
      <trkpt lat="38.5802050" lon="-0.7972320">
        <ele>609.6</ele>
        <time>2019-05-12T05:18:16Z</time>
      </trkpt>
      <trkpt lat="38.5802510" lon="-0.7971840">
        <ele>610.8</ele>
        <time>2019-05-12T05:18:19Z</time>
      </trkpt>
      <trkpt lat="38.5803230" lon="-0.7971090">
        <ele>612.4</ele>
        <time>2019-05-12T05:18:23Z</time>
      </trkpt>
      <trkpt lat="38.5803520" lon="-0.7970740">
        <ele>612.8</ele>
        <time>2019-05-12T05:18:25Z</time>
      </trkpt>
      <trkpt lat="38.5803700" lon="-0.7970550">
        <ele>613.6</ele>
        <time>2019-05-12T05:18:27Z</time>
      </trkpt>
      <trkpt lat="38.5803680" lon="-0.7970410">
        <ele>614.0</ele>
        <time>2019-05-12T05:18:28Z</time>
      </trkpt>
      <trkpt lat="38.5803630" lon="-0.7970180">
        <ele>614.2</ele>
        <time>2019-05-12T05:18:30Z</time>
      </trkpt>
      <trkpt lat="38.5803740" lon="-0.7970010">
        <ele>614.0</ele>
        <time>2019-05-12T05:18:31Z</time>
      </trkpt>
      <trkpt lat="38.5803940" lon="-0.7970240">
        <ele>614.2</ele>
        <time>2019-05-12T05:18:33Z</time>
      </trkpt>
      <trkpt lat="38.5803140" lon="-0.7971030">
        <ele>614.2</ele>
        <time>2019-05-12T05:18:36Z</time>
      </trkpt>
      <trkpt lat="38.5802180" lon="-0.7971810">
        <ele>613.2</ele>
        <time>2019-05-12T05:18:38Z</time>
      </trkpt>
      <trkpt lat="38.5801630" lon="-0.7972410">
        <ele>612.4</ele>
        <time>2019-05-12T05:18:39Z</time>
      </trkpt>
      <trkpt lat="38.5800720" lon="-0.7973540">
        <ele>610.4</ele>
        <time>2019-05-12T05:18:41Z</time>
      </trkpt>
      <trkpt lat="38.5800380" lon="-0.7974370">
        <ele>608.8</ele>
        <time>2019-05-12T05:18:43Z</time>
      </trkpt>
      <trkpt lat="38.5800670" lon="-0.7975060">
        <ele>607.6</ele>
        <time>2019-05-12T05:18:45Z</time>
      </trkpt>
      <trkpt lat="38.5801040" lon="-0.7975230">
        <ele>607.4</ele>
        <time>2019-05-12T05:18:46Z</time>
      </trkpt>
      <trkpt lat="38.5801790" lon="-0.7975240">
        <ele>606.8</ele>
        <time>2019-05-12T05:18:48Z</time>
      </trkpt>
      <trkpt lat="38.5802800" lon="-0.7975550">
        <ele>606.8</ele>
        <time>2019-05-12T05:18:51Z</time>
      </trkpt>
      <trkpt lat="38.5804590" lon="-0.7975240">
        <ele>608.6</ele>
        <time>2019-05-12T05:18:57Z</time>
      </trkpt>
      <trkpt lat="38.5804820" lon="-0.7975090">
        <ele>609.0</ele>
        <time>2019-05-12T05:18:58Z</time>
      </trkpt>
      <trkpt lat="38.5805790" lon="-0.7974310">
        <ele>610.0</ele>
        <time>2019-05-12T05:19:02Z</time>
      </trkpt>
      <trkpt lat="38.5806720" lon="-0.7973480">
        <ele>610.6</ele>
        <time>2019-05-12T05:19:06Z</time>
      </trkpt>
      <trkpt lat="38.5807150" lon="-0.7973090">
        <ele>611.2</ele>
        <time>2019-05-12T05:19:08Z</time>
      </trkpt>
      <trkpt lat="38.5808020" lon="-0.7972740">
        <ele>612.0</ele>
        <time>2019-05-12T05:19:12Z</time>
      </trkpt>
      <trkpt lat="38.5808490" lon="-0.7972650">
        <ele>612.4</ele>
        <time>2019-05-12T05:19:14Z</time>
      </trkpt>
      <trkpt lat="38.5809610" lon="-0.7972540">
        <ele>613.2</ele>
        <time>2019-05-12T05:19:18Z</time>
      </trkpt>
      <trkpt lat="38.5809880" lon="-0.7972500">
        <ele>613.4</ele>
        <time>2019-05-12T05:19:19Z</time>
      </trkpt>
      <trkpt lat="38.5810850" lon="-0.7972360">
        <ele>614.6</ele>
        <time>2019-05-12T05:19:23Z</time>
      </trkpt>
      <trkpt lat="38.5811100" lon="-0.7972330">
        <ele>614.8</ele>
        <time>2019-05-12T05:19:24Z</time>
      </trkpt>
      <trkpt lat="38.5813040" lon="-0.7972280">
        <ele>615.4</ele>
        <time>2019-05-12T05:19:31Z</time>
      </trkpt>
      <trkpt lat="38.5813580" lon="-0.7972370">
        <ele>615.8</ele>
        <time>2019-05-12T05:19:33Z</time>
      </trkpt>
      <trkpt lat="38.5814700" lon="-0.7972520">
        <ele>616.8</ele>
        <time>2019-05-12T05:19:37Z</time>
      </trkpt>
      <trkpt lat="38.5815280" lon="-0.7972630">
        <ele>617.0</ele>
        <time>2019-05-12T05:19:39Z</time>
      </trkpt>
      <trkpt lat="38.5817590" lon="-0.7972720">
        <ele>618.0</ele>
        <time>2019-05-12T05:19:47Z</time>
      </trkpt>
      <trkpt lat="38.5819940" lon="-0.7972980">
        <ele>618.8</ele>
        <time>2019-05-12T05:19:55Z</time>
      </trkpt>
      <trkpt lat="38.5820520" lon="-0.7973010">
        <ele>619.0</ele>
        <time>2019-05-12T05:19:57Z</time>
      </trkpt>
      <trkpt lat="38.5822330" lon="-0.7973140">
        <ele>620.0</ele>
        <time>2019-05-12T05:20:03Z</time>
      </trkpt>
      <trkpt lat="38.5822630" lon="-0.7973180">
        <ele>620.2</ele>
        <time>2019-05-12T05:20:04Z</time>
      </trkpt>
      <trkpt lat="38.5824620" lon="-0.7973520">
        <ele>620.8</ele>
        <time>2019-05-12T05:20:11Z</time>
      </trkpt>
      <trkpt lat="38.5824930" lon="-0.7973590">
        <ele>621.2</ele>
        <time>2019-05-12T05:20:12Z</time>
      </trkpt>
      <trkpt lat="38.5826910" lon="-0.7973870">
        <ele>622.0</ele>
        <time>2019-05-12T05:20:19Z</time>
      </trkpt>
      <trkpt lat="38.5827410" lon="-0.7973780">
        <ele>622.2</ele>
        <time>2019-05-12T05:20:21Z</time>
      </trkpt>
      <trkpt lat="38.5828270" lon="-0.7973220">
        <ele>623.0</ele>
        <time>2019-05-12T05:20:25Z</time>
      </trkpt>
      <trkpt lat="38.5828650" lon="-0.7972870">
        <ele>623.4</ele>
        <time>2019-05-12T05:20:27Z</time>
      </trkpt>
      <trkpt lat="38.5829250" lon="-0.7972530">
        <ele>624.4</ele>
        <time>2019-05-12T05:20:30Z</time>
      </trkpt>
      <trkpt lat="38.5829480" lon="-0.7972460">
        <ele>624.6</ele>
        <time>2019-05-12T05:20:31Z</time>
      </trkpt>
      <trkpt lat="38.5830670" lon="-0.7972110">
        <ele>625.6</ele>
        <time>2019-05-12T05:20:36Z</time>
      </trkpt>
      <trkpt lat="38.5831120" lon="-0.7971980">
        <ele>626.0</ele>
        <time>2019-05-12T05:20:38Z</time>
      </trkpt>
      <trkpt lat="38.5831560" lon="-0.7971770">
        <ele>626.6</ele>
        <time>2019-05-12T05:20:40Z</time>
      </trkpt>
      <trkpt lat="38.5831910" lon="-0.7971370">
        <ele>627.4</ele>
        <time>2019-05-12T05:20:43Z</time>
      </trkpt>
      <trkpt lat="38.5832040" lon="-0.7971180">
        <ele>627.8</ele>
        <time>2019-05-12T05:20:44Z</time>
      </trkpt>
      <trkpt lat="38.5832230" lon="-0.7971050">
        <ele>628.0</ele>
        <time>2019-05-12T05:20:45Z</time>
      </trkpt>
      <trkpt lat="38.5832610" lon="-0.7970830">
        <ele>628.4</ele>
        <time>2019-05-12T05:20:47Z</time>
      </trkpt>
      <trkpt lat="38.5833170" lon="-0.7970660">
        <ele>629.0</ele>
        <time>2019-05-12T05:20:50Z</time>
      </trkpt>
      <trkpt lat="38.5833560" lon="-0.7970620">
        <ele>629.6</ele>
        <time>2019-05-12T05:20:52Z</time>
      </trkpt>
      <trkpt lat="38.5833970" lon="-0.7970570">
        <ele>630.2</ele>
        <time>2019-05-12T05:20:54Z</time>
      </trkpt>
      <trkpt lat="38.5834190" lon="-0.7970520">
        <ele>630.4</ele>
        <time>2019-05-12T05:20:55Z</time>
      </trkpt>
      <trkpt lat="38.5834870" lon="-0.7970360">
        <ele>631.2</ele>
        <time>2019-05-12T05:20:58Z</time>
      </trkpt>
      <trkpt lat="38.5835250" lon="-0.7970230">
        <ele>631.8</ele>
        <time>2019-05-12T05:21:00Z</time>
      </trkpt>
      <trkpt lat="38.5835610" lon="-0.7970160">
        <ele>632.2</ele>
        <time>2019-05-12T05:21:02Z</time>
      </trkpt>
      <trkpt lat="38.5836140" lon="-0.7969990">
        <ele>633.0</ele>
        <time>2019-05-12T05:21:05Z</time>
      </trkpt>
      <trkpt lat="38.5836320" lon="-0.7969940">
        <ele>633.2</ele>
        <time>2019-05-12T05:21:06Z</time>
      </trkpt>
      <trkpt lat="38.5838030" lon="-0.7969630">
        <ele>634.2</ele>
        <time>2019-05-12T05:21:13Z</time>
      </trkpt>
      <trkpt lat="38.5839330" lon="-0.7969380">
        <ele>634.6</ele>
        <time>2019-05-12T05:21:19Z</time>
      </trkpt>
      <trkpt lat="38.5841590" lon="-0.7968950">
        <ele>633.6</ele>
        <time>2019-05-12T05:21:25Z</time>
      </trkpt>
      <trkpt lat="38.5842040" lon="-0.7968750">
        <ele>633.2</ele>
        <time>2019-05-12T05:21:26Z</time>
      </trkpt>
      <trkpt lat="38.5842490" lon="-0.7968490">
        <ele>632.8</ele>
        <time>2019-05-12T05:21:27Z</time>
      </trkpt>
      <trkpt lat="38.5843400" lon="-0.7967660">
        <ele>632.0</ele>
        <time>2019-05-12T05:21:29Z</time>
      </trkpt>
      <trkpt lat="38.5844800" lon="-0.7966950">
        <ele>631.6</ele>
        <time>2019-05-12T05:21:32Z</time>
      </trkpt>
      <trkpt lat="38.5845280" lon="-0.7966930">
        <ele>631.4</ele>
        <time>2019-05-12T05:21:33Z</time>
      </trkpt>
      <trkpt lat="38.5846910" lon="-0.7967020">
        <ele>632.0</ele>
        <time>2019-05-12T05:21:37Z</time>
      </trkpt>
      <trkpt lat="38.5849340" lon="-0.7967650">
        <ele>633.2</ele>
        <time>2019-05-12T05:21:44Z</time>
      </trkpt>
      <trkpt lat="38.5849930" lon="-0.7967960">
        <ele>633.8</ele>
        <time>2019-05-12T05:21:46Z</time>
      </trkpt>
      <trkpt lat="38.5851110" lon="-0.7968500">
        <ele>634.6</ele>
        <time>2019-05-12T05:21:50Z</time>
      </trkpt>
      <trkpt lat="38.5852020" lon="-0.7968660">
        <ele>635.2</ele>
        <time>2019-05-12T05:21:53Z</time>
      </trkpt>
      <trkpt lat="38.5852930" lon="-0.7968650">
        <ele>635.6</ele>
        <time>2019-05-12T05:21:56Z</time>
      </trkpt>
      <trkpt lat="38.5854490" lon="-0.7968700">
        <ele>636.4</ele>
        <time>2019-05-12T05:22:01Z</time>
      </trkpt>
      <trkpt lat="38.5854820" lon="-0.7968690">
        <ele>636.8</ele>
        <time>2019-05-12T05:22:02Z</time>
      </trkpt>
      <trkpt lat="38.5856620" lon="-0.7968700">
        <ele>637.8</ele>
        <time>2019-05-12T05:22:08Z</time>
      </trkpt>
      <trkpt lat="38.5856930" lon="-0.7968730">
        <ele>637.8</ele>
        <time>2019-05-12T05:22:09Z</time>
      </trkpt>
      <trkpt lat="38.5858700" lon="-0.7968810">
        <ele>638.8</ele>
        <time>2019-05-12T05:22:14Z</time>
      </trkpt>
      <trkpt lat="38.5858730" lon="-0.7968830">
        <ele>638.8</ele>
        <time>2019-05-12T05:22:15Z</time>
      </trkpt>
      <trkpt lat="38.5860250" lon="-0.7969010">
        <ele>640.0</ele>
        <time>2019-05-12T05:22:20Z</time>
      </trkpt>
      <trkpt lat="38.5861460" lon="-0.7969130">
        <ele>640.4</ele>
        <time>2019-05-12T05:22:24Z</time>
      </trkpt>
      <trkpt lat="38.5863010" lon="-0.7969170">
        <ele>641.0</ele>
        <time>2019-05-12T05:22:29Z</time>
      </trkpt>
      <trkpt lat="38.5863310" lon="-0.7969160">
        <ele>641.2</ele>
        <time>2019-05-12T05:22:30Z</time>
      </trkpt>
      <trkpt lat="38.5864840" lon="-0.7969000">
        <ele>642.2</ele>
        <time>2019-05-12T05:22:35Z</time>
      </trkpt>
      <trkpt lat="38.5865780" lon="-0.7968900">
        <ele>642.6</ele>
        <time>2019-05-12T05:22:38Z</time>
      </trkpt>
      <trkpt lat="38.5867490" lon="-0.7969010">
        <ele>643.6</ele>
        <time>2019-05-12T05:22:44Z</time>
      </trkpt>
      <trkpt lat="38.5867760" lon="-0.7969080">
        <ele>643.6</ele>
        <time>2019-05-12T05:22:45Z</time>
      </trkpt>
      <trkpt lat="38.5868910" lon="-0.7969100">
        <ele>644.6</ele>
        <time>2019-05-12T05:22:49Z</time>
      </trkpt>
      <trkpt lat="38.5869210" lon="-0.7969020">
        <ele>644.6</ele>
        <time>2019-05-12T05:22:50Z</time>
      </trkpt>
      <trkpt lat="38.5870590" lon="-0.7968600">
        <ele>645.6</ele>
        <time>2019-05-12T05:22:55Z</time>
      </trkpt>
      <trkpt lat="38.5871420" lon="-0.7968470">
        <ele>646.4</ele>
        <time>2019-05-12T05:22:58Z</time>
      </trkpt>
      <trkpt lat="38.5872010" lon="-0.7968450">
        <ele>646.8</ele>
        <time>2019-05-12T05:23:00Z</time>
      </trkpt>
      <trkpt lat="38.5873590" lon="-0.7968550">
        <ele>647.6</ele>
        <time>2019-05-12T05:23:05Z</time>
      </trkpt>
      <trkpt lat="38.5874550" lon="-0.7968690">
        <ele>648.0</ele>
        <time>2019-05-12T05:23:08Z</time>
      </trkpt>
      <trkpt lat="38.5876030" lon="-0.7968910">
        <ele>648.8</ele>
        <time>2019-05-12T05:23:13Z</time>
      </trkpt>
      <trkpt lat="38.5876330" lon="-0.7968920">
        <ele>649.0</ele>
        <time>2019-05-12T05:23:14Z</time>
      </trkpt>
      <trkpt lat="38.5879100" lon="-0.7968620">
        <ele>649.8</ele>
        <time>2019-05-12T05:23:23Z</time>
      </trkpt>
      <trkpt lat="38.5879730" lon="-0.7968490">
        <ele>650.4</ele>
        <time>2019-05-12T05:23:25Z</time>
      </trkpt>
      <trkpt lat="38.5881630" lon="-0.7968250">
        <ele>650.8</ele>
        <time>2019-05-12T05:23:31Z</time>
      </trkpt>
      <trkpt lat="38.5884150" lon="-0.7967900">
        <ele>651.6</ele>
        <time>2019-05-12T05:23:39Z</time>
      </trkpt>
      <trkpt lat="38.5885890" lon="-0.7967170">
        <ele>652.4</ele>
        <time>2019-05-12T05:23:45Z</time>
      </trkpt>
      <trkpt lat="38.5886640" lon="-0.7966540">
        <ele>651.8</ele>
        <time>2019-05-12T05:23:47Z</time>
      </trkpt>
      <trkpt lat="38.5887520" lon="-0.7965570">
        <ele>651.8</ele>
        <time>2019-05-12T05:23:50Z</time>
      </trkpt>
      <trkpt lat="38.5888550" lon="-0.7964020">
        <ele>652.4</ele>
        <time>2019-05-12T05:23:55Z</time>
      </trkpt>
      <trkpt lat="38.5888740" lon="-0.7963800">
        <ele>652.8</ele>
        <time>2019-05-12T05:23:56Z</time>
      </trkpt>
      <trkpt lat="38.5889600" lon="-0.7962830">
        <ele>654.0</ele>
        <time>2019-05-12T05:24:01Z</time>
      </trkpt>
      <trkpt lat="38.5889830" lon="-0.7962690">
        <ele>654.2</ele>
        <time>2019-05-12T05:24:02Z</time>
      </trkpt>
      <trkpt lat="38.5891180" lon="-0.7961900">
        <ele>655.2</ele>
        <time>2019-05-12T05:24:08Z</time>
      </trkpt>
      <trkpt lat="38.5892790" lon="-0.7961670">
        <ele>656.4</ele>
        <time>2019-05-12T05:24:14Z</time>
      </trkpt>
      <trkpt lat="38.5894630" lon="-0.7962340">
        <ele>657.2</ele>
        <time>2019-05-12T05:24:21Z</time>
      </trkpt>
      <trkpt lat="38.5895190" lon="-0.7962550">
        <ele>657.6</ele>
        <time>2019-05-12T05:24:23Z</time>
      </trkpt>
      <trkpt lat="38.5896790" lon="-0.7963380">
        <ele>658.2</ele>
        <time>2019-05-12T05:24:29Z</time>
      </trkpt>
      <trkpt lat="38.5898460" lon="-0.7964320">
        <ele>658.4</ele>
        <time>2019-05-12T05:24:35Z</time>
      </trkpt>
      <trkpt lat="38.5899510" lon="-0.7965670">
        <ele>658.8</ele>
        <time>2019-05-12T05:24:40Z</time>
      </trkpt>
      <trkpt lat="38.5900470" lon="-0.7967100">
        <ele>659.8</ele>
        <time>2019-05-12T05:24:46Z</time>
      </trkpt>
      <trkpt lat="38.5900940" lon="-0.7967820">
        <ele>660.8</ele>
        <time>2019-05-12T05:24:50Z</time>
      </trkpt>
      <trkpt lat="38.5901130" lon="-0.7968500">
        <ele>662.0</ele>
        <time>2019-05-12T05:24:53Z</time>
      </trkpt>
      <trkpt lat="38.5901580" lon="-0.7969320">
        <ele>663.2</ele>
        <time>2019-05-12T05:24:57Z</time>
      </trkpt>
      <trkpt lat="38.5901910" lon="-0.7969890">
        <ele>664.2</ele>
        <time>2019-05-12T05:25:00Z</time>
      </trkpt>
      <trkpt lat="38.5902020" lon="-0.7970070">
        <ele>664.6</ele>
        <time>2019-05-12T05:25:01Z</time>
      </trkpt>
      <trkpt lat="38.5902300" lon="-0.7970620">
        <ele>665.2</ele>
        <time>2019-05-12T05:25:04Z</time>
      </trkpt>
      <trkpt lat="38.5902660" lon="-0.7971380">
        <ele>666.2</ele>
        <time>2019-05-12T05:25:08Z</time>
      </trkpt>
      <trkpt lat="38.5902750" lon="-0.7971550">
        <ele>666.6</ele>
        <time>2019-05-12T05:25:09Z</time>
      </trkpt>
      <trkpt lat="38.5903170" lon="-0.7972670">
        <ele>667.6</ele>
        <time>2019-05-12T05:25:14Z</time>
      </trkpt>
      <trkpt lat="38.5903340" lon="-0.7973090">
        <ele>667.8</ele>
        <time>2019-05-12T05:25:16Z</time>
      </trkpt>
      <trkpt lat="38.5903370" lon="-0.7973310">
        <ele>668.2</ele>
        <time>2019-05-12T05:25:17Z</time>
      </trkpt>
      <trkpt lat="38.5903520" lon="-0.7973690">
        <ele>669.0</ele>
        <time>2019-05-12T05:25:19Z</time>
      </trkpt>
      <trkpt lat="38.5903620" lon="-0.7973870">
        <ele>669.2</ele>
        <time>2019-05-12T05:25:20Z</time>
      </trkpt>
      <trkpt lat="38.5903800" lon="-0.7974270">
        <ele>669.6</ele>
        <time>2019-05-12T05:25:22Z</time>
      </trkpt>
      <trkpt lat="38.5903980" lon="-0.7974660">
        <ele>670.4</ele>
        <time>2019-05-12T05:25:24Z</time>
      </trkpt>
      <trkpt lat="38.5904340" lon="-0.7975390">
        <ele>671.2</ele>
        <time>2019-05-12T05:25:28Z</time>
      </trkpt>
      <trkpt lat="38.5904400" lon="-0.7975580">
        <ele>671.4</ele>
        <time>2019-05-12T05:25:29Z</time>
      </trkpt>
      <trkpt lat="38.5904770" lon="-0.7976640">
        <ele>672.6</ele>
        <time>2019-05-12T05:25:34Z</time>
      </trkpt>
      <trkpt lat="38.5905120" lon="-0.7977740">
        <ele>673.8</ele>
        <time>2019-05-12T05:25:39Z</time>
      </trkpt>
      <trkpt lat="38.5905250" lon="-0.7978180">
        <ele>674.2</ele>
        <time>2019-05-12T05:25:41Z</time>
      </trkpt>
      <trkpt lat="38.5905520" lon="-0.7979030">
        <ele>674.8</ele>
        <time>2019-05-12T05:25:45Z</time>
      </trkpt>
      <trkpt lat="38.5905590" lon="-0.7979560">
        <ele>675.8</ele>
        <time>2019-05-12T05:25:48Z</time>
      </trkpt>
      <trkpt lat="38.5905660" lon="-0.7979740">
        <ele>676.4</ele>
        <time>2019-05-12T05:25:49Z</time>
      </trkpt>
      <trkpt lat="38.5906070" lon="-0.7980720">
        <ele>677.2</ele>
        <time>2019-05-12T05:25:54Z</time>
      </trkpt>
      <trkpt lat="38.5906110" lon="-0.7980910">
        <ele>677.6</ele>
        <time>2019-05-12T05:25:55Z</time>
      </trkpt>
      <trkpt lat="38.5906360" lon="-0.7981790">
        <ele>678.6</ele>
        <time>2019-05-12T05:25:59Z</time>
      </trkpt>
      <trkpt lat="38.5906400" lon="-0.7982020">
        <ele>679.0</ele>
        <time>2019-05-12T05:26:00Z</time>
      </trkpt>
      <trkpt lat="38.5906440" lon="-0.7982710">
        <ele>679.8</ele>
        <time>2019-05-12T05:26:03Z</time>
      </trkpt>
      <trkpt lat="38.5906470" lon="-0.7982930">
        <ele>680.0</ele>
        <time>2019-05-12T05:26:04Z</time>
      </trkpt>
      <trkpt lat="38.5906570" lon="-0.7983390">
        <ele>680.2</ele>
        <time>2019-05-12T05:26:06Z</time>
      </trkpt>
      <trkpt lat="38.5906670" lon="-0.7984100">
        <ele>680.8</ele>
        <time>2019-05-12T05:26:09Z</time>
      </trkpt>
      <trkpt lat="38.5906730" lon="-0.7984800">
        <ele>681.0</ele>
        <time>2019-05-12T05:26:12Z</time>
      </trkpt>
      <trkpt lat="38.5906780" lon="-0.7985520">
        <ele>682.0</ele>
        <time>2019-05-12T05:26:15Z</time>
      </trkpt>
      <trkpt lat="38.5906970" lon="-0.7986450">
        <ele>682.6</ele>
        <time>2019-05-12T05:26:19Z</time>
      </trkpt>
      <trkpt lat="38.5907310" lon="-0.7987280">
        <ele>683.4</ele>
        <time>2019-05-12T05:26:23Z</time>
      </trkpt>
      <trkpt lat="38.5907620" lon="-0.7988100">
        <ele>684.6</ele>
        <time>2019-05-12T05:26:27Z</time>
      </trkpt>
      <trkpt lat="38.5908190" lon="-0.7989200">
        <ele>685.6</ele>
        <time>2019-05-12T05:26:33Z</time>
      </trkpt>
      <trkpt lat="38.5908300" lon="-0.7989370">
        <ele>686.0</ele>
        <time>2019-05-12T05:26:34Z</time>
      </trkpt>
      <trkpt lat="38.5908520" lon="-0.7989770">
        <ele>686.8</ele>
        <time>2019-05-12T05:26:36Z</time>
      </trkpt>
      <trkpt lat="38.5908990" lon="-0.7990650">
        <ele>688.0</ele>
        <time>2019-05-12T05:26:41Z</time>
      </trkpt>
      <trkpt lat="38.5909100" lon="-0.7990800">
        <ele>688.2</ele>
        <time>2019-05-12T05:26:42Z</time>
      </trkpt>
      <trkpt lat="38.5909500" lon="-0.7991460">
        <ele>689.2</ele>
        <time>2019-05-12T05:26:46Z</time>
      </trkpt>
      <trkpt lat="38.5909810" lon="-0.7991850">
        <ele>690.0</ele>
        <time>2019-05-12T05:26:49Z</time>
      </trkpt>
      <trkpt lat="38.5909950" lon="-0.7991870">
        <ele>690.4</ele>
        <time>2019-05-12T05:26:50Z</time>
      </trkpt>
      <trkpt lat="38.5910490" lon="-0.7991550">
        <ele>690.8</ele>
        <time>2019-05-12T05:26:53Z</time>
      </trkpt>
      <trkpt lat="38.5910650" lon="-0.7991390">
        <ele>691.0</ele>
        <time>2019-05-12T05:26:54Z</time>
      </trkpt>
      <trkpt lat="38.5910910" lon="-0.7991040">
        <ele>691.4</ele>
        <time>2019-05-12T05:26:56Z</time>
      </trkpt>
      <trkpt lat="38.5911210" lon="-0.7990630">
        <ele>691.6</ele>
        <time>2019-05-12T05:26:58Z</time>
      </trkpt>
      <trkpt lat="38.5911900" lon="-0.7989150">
        <ele>691.0</ele>
        <time>2019-05-12T05:27:02Z</time>
      </trkpt>
      <trkpt lat="38.5912290" lon="-0.7988360">
        <ele>690.0</ele>
        <time>2019-05-12T05:27:04Z</time>
      </trkpt>
      <trkpt lat="38.5912780" lon="-0.7987440">
        <ele>689.4</ele>
        <time>2019-05-12T05:27:06Z</time>
      </trkpt>
      <trkpt lat="38.5913710" lon="-0.7986700">
        <ele>688.6</ele>
        <time>2019-05-12T05:27:08Z</time>
      </trkpt>
      <trkpt lat="38.5914270" lon="-0.7986510">
        <ele>687.8</ele>
        <time>2019-05-12T05:27:09Z</time>
      </trkpt>
      <trkpt lat="38.5914930" lon="-0.7986530">
        <ele>686.8</ele>
        <time>2019-05-12T05:27:10Z</time>
      </trkpt>
      <trkpt lat="38.5916370" lon="-0.7986980">
        <ele>684.6</ele>
        <time>2019-05-12T05:27:12Z</time>
      </trkpt>
      <trkpt lat="38.5918010" lon="-0.7987050">
        <ele>683.0</ele>
        <time>2019-05-12T05:27:14Z</time>
      </trkpt>
      <trkpt lat="38.5918810" lon="-0.7986830">
        <ele>682.4</ele>
        <time>2019-05-12T05:27:15Z</time>
      </trkpt>
      <trkpt lat="38.5919550" lon="-0.7986500">
        <ele>681.8</ele>
        <time>2019-05-12T05:27:16Z</time>
      </trkpt>
      <trkpt lat="38.5920270" lon="-0.7986130">
        <ele>681.4</ele>
        <time>2019-05-12T05:27:17Z</time>
      </trkpt>
      <trkpt lat="38.5920940" lon="-0.7985710">
        <ele>681.0</ele>
        <time>2019-05-12T05:27:18Z</time>
      </trkpt>
      <trkpt lat="38.5921550" lon="-0.7985220">
        <ele>680.8</ele>
        <time>2019-05-12T05:27:19Z</time>
      </trkpt>
      <trkpt lat="38.5923530" lon="-0.7983650">
        <ele>682.0</ele>
        <time>2019-05-12T05:27:23Z</time>
      </trkpt>
      <trkpt lat="38.5924670" lon="-0.7983110">
        <ele>683.4</ele>
        <time>2019-05-12T05:27:26Z</time>
      </trkpt>
      <trkpt lat="38.5925790" lon="-0.7982660">
        <ele>684.2</ele>
        <time>2019-05-12T05:27:29Z</time>
      </trkpt>
      <trkpt lat="38.5926140" lon="-0.7982500">
        <ele>684.4</ele>
        <time>2019-05-12T05:27:30Z</time>
      </trkpt>
      <trkpt lat="38.5928710" lon="-0.7981050">
        <ele>684.8</ele>
        <time>2019-05-12T05:27:38Z</time>
      </trkpt>
      <trkpt lat="38.5930960" lon="-0.7979890">
        <ele>684.6</ele>
        <time>2019-05-12T05:27:44Z</time>
      </trkpt>
      <trkpt lat="38.5933530" lon="-0.7978500">
        <ele>684.0</ele>
        <time>2019-05-12T05:27:50Z</time>
      </trkpt>
      <trkpt lat="38.5935430" lon="-0.7977480">
        <ele>683.0</ele>
        <time>2019-05-12T05:27:54Z</time>
      </trkpt>
      <trkpt lat="38.5936850" lon="-0.7976930">
        <ele>682.6</ele>
        <time>2019-05-12T05:27:57Z</time>
      </trkpt>
      <trkpt lat="38.5938630" lon="-0.7976330">
        <ele>683.6</ele>
        <time>2019-05-12T05:28:02Z</time>
      </trkpt>
      <trkpt lat="38.5939340" lon="-0.7976290">
        <ele>684.0</ele>
        <time>2019-05-12T05:28:04Z</time>
      </trkpt>
      <trkpt lat="38.5939910" lon="-0.7976330">
        <ele>685.0</ele>
        <time>2019-05-12T05:28:06Z</time>
      </trkpt>
      <trkpt lat="38.5941040" lon="-0.7976010">
        <ele>685.6</ele>
        <time>2019-05-12T05:28:10Z</time>
      </trkpt>
      <trkpt lat="38.5941850" lon="-0.7975880">
        <ele>686.2</ele>
        <time>2019-05-12T05:28:13Z</time>
      </trkpt>
      <trkpt lat="38.5943180" lon="-0.7975730">
        <ele>687.4</ele>
        <time>2019-05-12T05:28:18Z</time>
      </trkpt>
      <trkpt lat="38.5944110" lon="-0.7975590">
        <ele>688.4</ele>
        <time>2019-05-12T05:28:22Z</time>
      </trkpt>
      <trkpt lat="38.5945040" lon="-0.7975280">
        <ele>688.8</ele>
        <time>2019-05-12T05:28:26Z</time>
      </trkpt>
      <trkpt lat="38.5945680" lon="-0.7974890">
        <ele>689.6</ele>
        <time>2019-05-12T05:28:29Z</time>
      </trkpt>
      <trkpt lat="38.5946340" lon="-0.7974680">
        <ele>690.4</ele>
        <time>2019-05-12T05:28:32Z</time>
      </trkpt>
      <trkpt lat="38.5946550" lon="-0.7974720">
        <ele>690.6</ele>
        <time>2019-05-12T05:28:33Z</time>
      </trkpt>
      <trkpt lat="38.5947240" lon="-0.7974710">
        <ele>691.6</ele>
        <time>2019-05-12T05:28:36Z</time>
      </trkpt>
      <trkpt lat="38.5947680" lon="-0.7974680">
        <ele>692.0</ele>
        <time>2019-05-12T05:28:38Z</time>
      </trkpt>
      <trkpt lat="38.5948300" lon="-0.7974580">
        <ele>693.0</ele>
        <time>2019-05-12T05:28:41Z</time>
      </trkpt>
      <trkpt lat="38.5948710" lon="-0.7974520">
        <ele>693.2</ele>
        <time>2019-05-12T05:28:43Z</time>
      </trkpt>
      <trkpt lat="38.5948920" lon="-0.7974510">
        <ele>693.6</ele>
        <time>2019-05-12T05:28:44Z</time>
      </trkpt>
      <trkpt lat="38.5949350" lon="-0.7974450">
        <ele>694.0</ele>
        <time>2019-05-12T05:28:46Z</time>
      </trkpt>
      <trkpt lat="38.5950240" lon="-0.7974290">
        <ele>695.2</ele>
        <time>2019-05-12T05:28:50Z</time>
      </trkpt>
      <trkpt lat="38.5951150" lon="-0.7974030">
        <ele>695.8</ele>
        <time>2019-05-12T05:28:54Z</time>
      </trkpt>
      <trkpt lat="38.5951580" lon="-0.7973930">
        <ele>696.4</ele>
        <time>2019-05-12T05:28:56Z</time>
      </trkpt>
      <trkpt lat="38.5952640" lon="-0.7973980">
        <ele>697.6</ele>
        <time>2019-05-12T05:29:01Z</time>
      </trkpt>
      <trkpt lat="38.5954580" lon="-0.7974610">
        <ele>698.8</ele>
        <time>2019-05-12T05:29:09Z</time>
      </trkpt>
      <trkpt lat="38.5954820" lon="-0.7974690">
        <ele>698.8</ele>
        <time>2019-05-12T05:29:10Z</time>
      </trkpt>
      <trkpt lat="38.5956030" lon="-0.7974960">
        <ele>699.8</ele>
        <time>2019-05-12T05:29:15Z</time>
      </trkpt>
      <trkpt lat="38.5956500" lon="-0.7975000">
        <ele>700.2</ele>
        <time>2019-05-12T05:29:17Z</time>
      </trkpt>
      <trkpt lat="38.5958280" lon="-0.7975030">
        <ele>700.2</ele>
        <time>2019-05-12T05:29:23Z</time>
      </trkpt>
      <trkpt lat="38.5959980" lon="-0.7975140">
        <ele>701.0</ele>
        <time>2019-05-12T05:29:29Z</time>
      </trkpt>
      <trkpt lat="38.5960240" lon="-0.7975130">
        <ele>701.2</ele>
        <time>2019-05-12T05:29:30Z</time>
      </trkpt>
      <trkpt lat="38.5961290" lon="-0.7975180">
        <ele>702.2</ele>
        <time>2019-05-12T05:29:34Z</time>
      </trkpt>
      <trkpt lat="38.5962310" lon="-0.7975310">
        <ele>703.2</ele>
        <time>2019-05-12T05:29:38Z</time>
      </trkpt>
      <trkpt lat="38.5962610" lon="-0.7975300">
        <ele>703.4</ele>
        <time>2019-05-12T05:29:39Z</time>
      </trkpt>
      <trkpt lat="38.5964280" lon="-0.7975280">
        <ele>703.8</ele>
        <time>2019-05-12T05:29:45Z</time>
      </trkpt>
      <trkpt lat="38.5965530" lon="-0.7975140">
        <ele>704.6</ele>
        <time>2019-05-12T05:29:50Z</time>
      </trkpt>
      <trkpt lat="38.5965780" lon="-0.7975080">
        <ele>705.0</ele>
        <time>2019-05-12T05:29:51Z</time>
      </trkpt>
      <trkpt lat="38.5966710" lon="-0.7974810">
        <ele>705.8</ele>
        <time>2019-05-12T05:29:55Z</time>
      </trkpt>
      <trkpt lat="38.5967770" lon="-0.7974320">
        <ele>706.6</ele>
        <time>2019-05-12T05:30:00Z</time>
      </trkpt>
      <trkpt lat="38.5968000" lon="-0.7974250">
        <ele>706.8</ele>
        <time>2019-05-12T05:30:01Z</time>
      </trkpt>
      <trkpt lat="38.5968660" lon="-0.7974210">
        <ele>707.8</ele>
        <time>2019-05-12T05:30:04Z</time>
      </trkpt>
      <trkpt lat="38.5969090" lon="-0.7974320">
        <ele>708.0</ele>
        <time>2019-05-12T05:30:06Z</time>
      </trkpt>
      <trkpt lat="38.5970020" lon="-0.7974430">
        <ele>709.0</ele>
        <time>2019-05-12T05:30:10Z</time>
      </trkpt>
      <trkpt lat="38.5970740" lon="-0.7974530">
        <ele>709.6</ele>
        <time>2019-05-12T05:30:13Z</time>
      </trkpt>
      <trkpt lat="38.5971220" lon="-0.7974580">
        <ele>710.0</ele>
        <time>2019-05-12T05:30:15Z</time>
      </trkpt>
      <trkpt lat="38.5972300" lon="-0.7974920">
        <ele>710.8</ele>
        <time>2019-05-12T05:30:20Z</time>
      </trkpt>
      <trkpt lat="38.5972550" lon="-0.7974950">
        <ele>711.2</ele>
        <time>2019-05-12T05:30:21Z</time>
      </trkpt>
      <trkpt lat="38.5973380" lon="-0.7975310">
        <ele>712.2</ele>
        <time>2019-05-12T05:30:25Z</time>
      </trkpt>
      <trkpt lat="38.5973810" lon="-0.7975480">
        <ele>712.6</ele>
        <time>2019-05-12T05:30:27Z</time>
      </trkpt>
      <trkpt lat="38.5974700" lon="-0.7975930">
        <ele>713.2</ele>
        <time>2019-05-12T05:30:31Z</time>
      </trkpt>
      <trkpt lat="38.5975190" lon="-0.7976170">
        <ele>713.2</ele>
        <time>2019-05-12T05:30:33Z</time>
      </trkpt>
      <trkpt lat="38.5976610" lon="-0.7977400">
        <ele>714.4</ele>
        <time>2019-05-12T05:30:40Z</time>
      </trkpt>
      <trkpt lat="38.5977510" lon="-0.7978610">
        <ele>715.6</ele>
        <time>2019-05-12T05:30:46Z</time>
      </trkpt>
      <trkpt lat="38.5977830" lon="-0.7978980">
        <ele>716.0</ele>
        <time>2019-05-12T05:30:48Z</time>
      </trkpt>
      <trkpt lat="38.5978210" lon="-0.7979380">
        <ele>716.6</ele>
        <time>2019-05-12T05:30:50Z</time>
      </trkpt>
      <trkpt lat="38.5979170" lon="-0.7980090">
        <ele>717.4</ele>
        <time>2019-05-12T05:30:55Z</time>
      </trkpt>
      <trkpt lat="38.5979600" lon="-0.7980350">
        <ele>717.6</ele>
        <time>2019-05-12T05:30:57Z</time>
      </trkpt>
      <trkpt lat="38.5980590" lon="-0.7981050">
        <ele>718.4</ele>
        <time>2019-05-12T05:31:02Z</time>
      </trkpt>
      <trkpt lat="38.5981030" lon="-0.7981320">
        <ele>719.0</ele>
        <time>2019-05-12T05:31:04Z</time>
      </trkpt>
      <trkpt lat="38.5981920" lon="-0.7981670">
        <ele>719.4</ele>
        <time>2019-05-12T05:31:08Z</time>
      </trkpt>
      <trkpt lat="38.5983130" lon="-0.7981880">
        <ele>720.0</ele>
        <time>2019-05-12T05:31:13Z</time>
      </trkpt>
      <trkpt lat="38.5983880" lon="-0.7981970">
        <ele>720.8</ele>
        <time>2019-05-12T05:31:16Z</time>
      </trkpt>
      <trkpt lat="38.5984640" lon="-0.7981980">
        <ele>721.2</ele>
        <time>2019-05-12T05:31:19Z</time>
      </trkpt>
      <trkpt lat="38.5985520" lon="-0.7982240">
        <ele>721.8</ele>
        <time>2019-05-12T05:31:23Z</time>
      </trkpt>
      <trkpt lat="38.5986130" lon="-0.7982440">
        <ele>722.4</ele>
        <time>2019-05-12T05:31:26Z</time>
      </trkpt>
      <trkpt lat="38.5986720" lon="-0.7982790">
        <ele>722.8</ele>
        <time>2019-05-12T05:31:29Z</time>
      </trkpt>
      <trkpt lat="38.5987120" lon="-0.7983050">
        <ele>723.4</ele>
        <time>2019-05-12T05:31:31Z</time>
      </trkpt>
      <trkpt lat="38.5987990" lon="-0.7983110">
        <ele>724.0</ele>
        <time>2019-05-12T05:31:35Z</time>
      </trkpt>
      <trkpt lat="38.5988590" lon="-0.7982620">
        <ele>724.4</ele>
        <time>2019-05-12T05:31:38Z</time>
      </trkpt>
      <trkpt lat="38.5988830" lon="-0.7982030">
        <ele>724.6</ele>
        <time>2019-05-12T05:31:40Z</time>
      </trkpt>
      <trkpt lat="38.5989360" lon="-0.7979330">
        <ele>725.2</ele>
        <time>2019-05-12T05:31:48Z</time>
      </trkpt>
      <trkpt lat="38.5989420" lon="-0.7979070">
        <ele>725.4</ele>
        <time>2019-05-12T05:31:49Z</time>
      </trkpt>
      <trkpt lat="38.5990160" lon="-0.7977660">
        <ele>725.8</ele>
        <time>2019-05-12T05:31:55Z</time>
      </trkpt>
      <trkpt lat="38.5990830" lon="-0.7976540">
        <ele>726.6</ele>
        <time>2019-05-12T05:32:00Z</time>
      </trkpt>
      <trkpt lat="38.5990940" lon="-0.7976300">
        <ele>726.8</ele>
        <time>2019-05-12T05:32:01Z</time>
      </trkpt>
      <trkpt lat="38.5991400" lon="-0.7975380">
        <ele>727.8</ele>
        <time>2019-05-12T05:32:05Z</time>
      </trkpt>
      <trkpt lat="38.5991650" lon="-0.7974860">
        <ele>728.0</ele>
        <time>2019-05-12T05:32:07Z</time>
      </trkpt>
      <trkpt lat="38.5992130" lon="-0.7973820">
        <ele>728.8</ele>
        <time>2019-05-12T05:32:11Z</time>
      </trkpt>
      <trkpt lat="38.5992260" lon="-0.7973580">
        <ele>729.0</ele>
        <time>2019-05-12T05:32:12Z</time>
      </trkpt>
      <trkpt lat="38.5993340" lon="-0.7971770">
        <ele>729.8</ele>
        <time>2019-05-12T05:32:19Z</time>
      </trkpt>
      <trkpt lat="38.5993500" lon="-0.7971540">
        <ele>729.8</ele>
        <time>2019-05-12T05:32:20Z</time>
      </trkpt>
      <trkpt lat="38.5994150" lon="-0.7970440">
        <ele>730.6</ele>
        <time>2019-05-12T05:32:24Z</time>
      </trkpt>
      <trkpt lat="38.5995210" lon="-0.7968580">
        <ele>730.2</ele>
        <time>2019-05-12T05:32:30Z</time>
      </trkpt>
      <trkpt lat="38.5995650" lon="-0.7967890">
        <ele>731.0</ele>
        <time>2019-05-12T05:32:33Z</time>
      </trkpt>
      <trkpt lat="38.5995890" lon="-0.7967500">
        <ele>731.6</ele>
        <time>2019-05-12T05:32:35Z</time>
      </trkpt>
      <trkpt lat="38.5996170" lon="-0.7967250">
        <ele>732.2</ele>
        <time>2019-05-12T05:32:37Z</time>
      </trkpt>
      <trkpt lat="38.5996920" lon="-0.7966410">
        <ele>733.4</ele>
        <time>2019-05-12T05:32:42Z</time>
      </trkpt>
      <trkpt lat="38.5997240" lon="-0.7965130">
        <ele>734.4</ele>
        <time>2019-05-12T05:32:46Z</time>
      </trkpt>
      <trkpt lat="38.5997270" lon="-0.7964830">
        <ele>734.4</ele>
        <time>2019-05-12T05:32:47Z</time>
      </trkpt>
      <trkpt lat="38.5997130" lon="-0.7962580">
        <ele>734.8</ele>
        <time>2019-05-12T05:32:54Z</time>
      </trkpt>
      <trkpt lat="38.5997090" lon="-0.7961120">
        <ele>734.2</ele>
        <time>2019-05-12T05:32:57Z</time>
      </trkpt>
      <trkpt lat="38.5997210" lon="-0.7959990">
        <ele>734.0</ele>
        <time>2019-05-12T05:32:59Z</time>
      </trkpt>
      <trkpt lat="38.5997450" lon="-0.7958770">
        <ele>733.2</ele>
        <time>2019-05-12T05:33:01Z</time>
      </trkpt>
      <trkpt lat="38.5997620" lon="-0.7958200">
        <ele>732.8</ele>
        <time>2019-05-12T05:33:02Z</time>
      </trkpt>
      <trkpt lat="38.5998030" lon="-0.7957160">
        <ele>732.4</ele>
        <time>2019-05-12T05:33:04Z</time>
      </trkpt>
      <trkpt lat="38.5998280" lon="-0.7956730">
        <ele>732.4</ele>
        <time>2019-05-12T05:33:05Z</time>
      </trkpt>
      <trkpt lat="38.5998910" lon="-0.7955610">
        <ele>733.2</ele>
        <time>2019-05-12T05:33:09Z</time>
      </trkpt>
      <trkpt lat="38.5998940" lon="-0.7954330">
        <ele>734.0</ele>
        <time>2019-05-12T05:33:14Z</time>
      </trkpt>
      <trkpt lat="38.5998710" lon="-0.7953750">
        <ele>734.4</ele>
        <time>2019-05-12T05:33:16Z</time>
      </trkpt>
      <trkpt lat="38.5998280" lon="-0.7953090">
        <ele>734.4</ele>
        <time>2019-05-12T05:33:18Z</time>
      </trkpt>
      <trkpt lat="38.5997280" lon="-0.7951410">
        <ele>734.8</ele>
        <time>2019-05-12T05:33:23Z</time>
      </trkpt>
      <trkpt lat="38.5996770" lon="-0.7950530">
        <ele>735.6</ele>
        <time>2019-05-12T05:33:26Z</time>
      </trkpt>
      <trkpt lat="38.5996240" lon="-0.7949620">
        <ele>735.8</ele>
        <time>2019-05-12T05:33:29Z</time>
      </trkpt>
      <trkpt lat="38.5995570" lon="-0.7948530">
        <ele>736.6</ele>
        <time>2019-05-12T05:33:33Z</time>
      </trkpt>
      <trkpt lat="38.5995140" lon="-0.7948070">
        <ele>737.0</ele>
        <time>2019-05-12T05:33:35Z</time>
      </trkpt>
      <trkpt lat="38.5994020" lon="-0.7947030">
        <ele>737.8</ele>
        <time>2019-05-12T05:33:40Z</time>
      </trkpt>
      <trkpt lat="38.5993770" lon="-0.7946820">
        <ele>737.8</ele>
        <time>2019-05-12T05:33:41Z</time>
      </trkpt>
      <trkpt lat="38.5992200" lon="-0.7945080">
        <ele>738.2</ele>
        <time>2019-05-12T05:33:48Z</time>
      </trkpt>
      <trkpt lat="38.5991520" lon="-0.7943150">
        <ele>737.6</ele>
        <time>2019-05-12T05:33:53Z</time>
      </trkpt>
      <trkpt lat="38.5991350" lon="-0.7941050">
        <ele>737.2</ele>
        <time>2019-05-12T05:33:57Z</time>
      </trkpt>
      <trkpt lat="38.5991160" lon="-0.7940480">
        <ele>737.0</ele>
        <time>2019-05-12T05:33:58Z</time>
      </trkpt>
      <trkpt lat="38.5990920" lon="-0.7939950">
        <ele>736.4</ele>
        <time>2019-05-12T05:33:59Z</time>
      </trkpt>
      <trkpt lat="38.5989990" lon="-0.7938740">
        <ele>736.6</ele>
        <time>2019-05-12T05:34:02Z</time>
      </trkpt>
      <trkpt lat="38.5988290" lon="-0.7936980">
        <ele>736.8</ele>
        <time>2019-05-12T05:34:08Z</time>
      </trkpt>
      <trkpt lat="38.5987700" lon="-0.7936210">
        <ele>737.6</ele>
        <time>2019-05-12T05:34:11Z</time>
      </trkpt>
      <trkpt lat="38.5986850" lon="-0.7934930">
        <ele>738.6</ele>
        <time>2019-05-12T05:34:16Z</time>
      </trkpt>
      <trkpt lat="38.5986070" lon="-0.7932910">
        <ele>738.2</ele>
        <time>2019-05-12T05:34:21Z</time>
      </trkpt>
      <trkpt lat="38.5985400" lon="-0.7930590">
        <ele>738.2</ele>
        <time>2019-05-12T05:34:26Z</time>
      </trkpt>
      <trkpt lat="38.5985360" lon="-0.7929970">
        <ele>738.2</ele>
        <time>2019-05-12T05:34:27Z</time>
      </trkpt>
      <trkpt lat="38.5984680" lon="-0.7927430">
        <ele>737.2</ele>
        <time>2019-05-12T05:34:31Z</time>
      </trkpt>
      <trkpt lat="38.5983910" lon="-0.7926570">
        <ele>737.2</ele>
        <time>2019-05-12T05:34:33Z</time>
      </trkpt>
      <trkpt lat="38.5983210" lon="-0.7925730">
        <ele>737.4</ele>
        <time>2019-05-12T05:34:35Z</time>
      </trkpt>
      <trkpt lat="38.5982900" lon="-0.7925210">
        <ele>738.0</ele>
        <time>2019-05-12T05:34:36Z</time>
      </trkpt>
      <trkpt lat="38.5982330" lon="-0.7923460">
        <ele>737.8</ele>
        <time>2019-05-12T05:34:39Z</time>
      </trkpt>
      <trkpt lat="38.5982250" lon="-0.7922920">
        <ele>738.0</ele>
        <time>2019-05-12T05:34:40Z</time>
      </trkpt>
      <trkpt lat="38.5981850" lon="-0.7921590">
        <ele>738.8</ele>
        <time>2019-05-12T05:34:43Z</time>
      </trkpt>
      <trkpt lat="38.5981680" lon="-0.7921180">
        <ele>739.0</ele>
        <time>2019-05-12T05:34:44Z</time>
      </trkpt>
      <trkpt lat="38.5981240" lon="-0.7920320">
        <ele>739.0</ele>
        <time>2019-05-12T05:34:46Z</time>
      </trkpt>
      <trkpt lat="38.5980860" lon="-0.7918810">
        <ele>738.8</ele>
        <time>2019-05-12T05:34:49Z</time>
      </trkpt>
      <trkpt lat="38.5980690" lon="-0.7917420">
        <ele>739.8</ele>
        <time>2019-05-12T05:34:52Z</time>
      </trkpt>
      <trkpt lat="38.5980670" lon="-0.7916160">
        <ele>740.0</ele>
        <time>2019-05-12T05:34:55Z</time>
      </trkpt>
      <trkpt lat="38.5980550" lon="-0.7914000">
        <ele>740.8</ele>
        <time>2019-05-12T05:35:00Z</time>
      </trkpt>
      <trkpt lat="38.5980450" lon="-0.7913230">
        <ele>741.2</ele>
        <time>2019-05-12T05:35:02Z</time>
      </trkpt>
      <trkpt lat="38.5980370" lon="-0.7912090">
        <ele>742.0</ele>
        <time>2019-05-12T05:35:05Z</time>
      </trkpt>
      <trkpt lat="38.5980350" lon="-0.7911120">
        <ele>743.0</ele>
        <time>2019-05-12T05:35:08Z</time>
      </trkpt>
      <trkpt lat="38.5980330" lon="-0.7910820">
        <ele>743.4</ele>
        <time>2019-05-12T05:35:09Z</time>
      </trkpt>
      <trkpt lat="38.5980170" lon="-0.7909090">
        <ele>744.2</ele>
        <time>2019-05-12T05:35:14Z</time>
      </trkpt>
      <trkpt lat="38.5980140" lon="-0.7908730">
        <ele>744.6</ele>
        <time>2019-05-12T05:35:15Z</time>
      </trkpt>
      <trkpt lat="38.5980280" lon="-0.7906980">
        <ele>745.4</ele>
        <time>2019-05-12T05:35:20Z</time>
      </trkpt>
      <trkpt lat="38.5980200" lon="-0.7904580">
        <ele>745.0</ele>
        <time>2019-05-12T05:35:25Z</time>
      </trkpt>
      <trkpt lat="38.5980030" lon="-0.7903990">
        <ele>744.8</ele>
        <time>2019-05-12T05:35:26Z</time>
      </trkpt>
      <trkpt lat="38.5979780" lon="-0.7903380">
        <ele>744.2</ele>
        <time>2019-05-12T05:35:27Z</time>
      </trkpt>
      <trkpt lat="38.5979470" lon="-0.7902770">
        <ele>743.6</ele>
        <time>2019-05-12T05:35:28Z</time>
      </trkpt>
      <trkpt lat="38.5979210" lon="-0.7902040">
        <ele>743.2</ele>
        <time>2019-05-12T05:35:29Z</time>
      </trkpt>
      <trkpt lat="38.5978960" lon="-0.7901280">
        <ele>742.6</ele>
        <time>2019-05-12T05:35:30Z</time>
      </trkpt>
      <trkpt lat="38.5978470" lon="-0.7899880">
        <ele>741.6</ele>
        <time>2019-05-12T05:35:32Z</time>
      </trkpt>
      <trkpt lat="38.5978300" lon="-0.7899260">
        <ele>741.4</ele>
        <time>2019-05-12T05:35:33Z</time>
      </trkpt>
      <trkpt lat="38.5978420" lon="-0.7897870">
        <ele>740.6</ele>
        <time>2019-05-12T05:35:35Z</time>
      </trkpt>
      <trkpt lat="38.5978500" lon="-0.7896390">
        <ele>739.2</ele>
        <time>2019-05-12T05:35:37Z</time>
      </trkpt>
      <trkpt lat="38.5978290" lon="-0.7895680">
        <ele>738.4</ele>
        <time>2019-05-12T05:35:38Z</time>
      </trkpt>
      <trkpt lat="38.5978010" lon="-0.7894970">
        <ele>738.0</ele>
        <time>2019-05-12T05:35:39Z</time>
      </trkpt>
      <trkpt lat="38.5977320" lon="-0.7892750">
        <ele>737.0</ele>
        <time>2019-05-12T05:35:42Z</time>
      </trkpt>
      <trkpt lat="38.5976890" lon="-0.7891970">
        <ele>736.4</ele>
        <time>2019-05-12T05:35:43Z</time>
      </trkpt>
      <trkpt lat="38.5976250" lon="-0.7890330">
        <ele>734.6</ele>
        <time>2019-05-12T05:35:45Z</time>
      </trkpt>
      <trkpt lat="38.5975380" lon="-0.7889450">
        <ele>733.4</ele>
        <time>2019-05-12T05:35:47Z</time>
      </trkpt>
      <trkpt lat="38.5974530" lon="-0.7888020">
        <ele>732.0</ele>
        <time>2019-05-12T05:35:50Z</time>
      </trkpt>
      <trkpt lat="38.5974300" lon="-0.7887060">
        <ele>730.6</ele>
        <time>2019-05-12T05:35:53Z</time>
      </trkpt>
      <trkpt lat="38.5974260" lon="-0.7886770">
        <ele>730.4</ele>
        <time>2019-05-12T05:35:54Z</time>
      </trkpt>
      <trkpt lat="38.5974360" lon="-0.7886140">
        <ele>729.2</ele>
        <time>2019-05-12T05:35:56Z</time>
      </trkpt>
      <trkpt lat="38.5974320" lon="-0.7885380">
        <ele>728.4</ele>
        <time>2019-05-12T05:35:58Z</time>
      </trkpt>
      <trkpt lat="38.5974170" lon="-0.7885060">
        <ele>728.2</ele>
        <time>2019-05-12T05:35:59Z</time>
      </trkpt>
      <trkpt lat="38.5973860" lon="-0.7884290">
        <ele>728.0</ele>
        <time>2019-05-12T05:36:02Z</time>
      </trkpt>
      <trkpt lat="38.5973730" lon="-0.7883950">
        <ele>728.2</ele>
        <time>2019-05-12T05:36:03Z</time>
      </trkpt>
      <trkpt lat="38.5972860" lon="-0.7881460">
        <ele>727.6</ele>
        <time>2019-05-12T05:36:08Z</time>
      </trkpt>
      <trkpt lat="38.5972690" lon="-0.7880670">
        <ele>727.2</ele>
        <time>2019-05-12T05:36:09Z</time>
      </trkpt>
      <trkpt lat="38.5972610" lon="-0.7879850">
        <ele>726.6</ele>
        <time>2019-05-12T05:36:10Z</time>
      </trkpt>
      <trkpt lat="38.5972550" lon="-0.7879040">
        <ele>726.0</ele>
        <time>2019-05-12T05:36:11Z</time>
      </trkpt>
      <trkpt lat="38.5972320" lon="-0.7878230">
        <ele>725.6</ele>
        <time>2019-05-12T05:36:12Z</time>
      </trkpt>
      <trkpt lat="38.5971930" lon="-0.7877560">
        <ele>725.0</ele>
        <time>2019-05-12T05:36:13Z</time>
      </trkpt>
      <trkpt lat="38.5971170" lon="-0.7876650">
        <ele>724.4</ele>
        <time>2019-05-12T05:36:15Z</time>
      </trkpt>
      <trkpt lat="38.5970650" lon="-0.7875160">
        <ele>726.0</ele>
        <time>2019-05-12T05:36:18Z</time>
      </trkpt>
      <trkpt lat="38.5970710" lon="-0.7874050">
        <ele>726.6</ele>
        <time>2019-05-12T05:36:20Z</time>
      </trkpt>
      <trkpt lat="38.5970840" lon="-0.7872270">
        <ele>727.0</ele>
        <time>2019-05-12T05:36:23Z</time>
      </trkpt>
      <trkpt lat="38.5970940" lon="-0.7871740">
        <ele>727.2</ele>
        <time>2019-05-12T05:36:24Z</time>
      </trkpt>
      <trkpt lat="38.5970920" lon="-0.7870320">
        <ele>728.0</ele>
        <time>2019-05-12T05:36:27Z</time>
      </trkpt>
      <trkpt lat="38.5970860" lon="-0.7869930">
        <ele>728.2</ele>
        <time>2019-05-12T05:36:28Z</time>
      </trkpt>
      <trkpt lat="38.5970810" lon="-0.7868700">
        <ele>729.4</ele>
        <time>2019-05-12T05:36:31Z</time>
      </trkpt>
      <trkpt lat="38.5970870" lon="-0.7867920">
        <ele>730.0</ele>
        <time>2019-05-12T05:36:33Z</time>
      </trkpt>
      <trkpt lat="38.5971110" lon="-0.7867170">
        <ele>730.4</ele>
        <time>2019-05-12T05:36:35Z</time>
      </trkpt>
      <trkpt lat="38.5971330" lon="-0.7865510">
        <ele>730.8</ele>
        <time>2019-05-12T05:36:39Z</time>
      </trkpt>
      <trkpt lat="38.5971460" lon="-0.7862250">
        <ele>731.4</ele>
        <time>2019-05-12T05:36:46Z</time>
      </trkpt>
      <trkpt lat="38.5971510" lon="-0.7861330">
        <ele>731.4</ele>
        <time>2019-05-12T05:36:48Z</time>
      </trkpt>
      <trkpt lat="38.5971800" lon="-0.7859030">
        <ele>731.6</ele>
        <time>2019-05-12T05:36:53Z</time>
      </trkpt>
      <trkpt lat="38.5971910" lon="-0.7857850">
        <ele>733.0</ele>
        <time>2019-05-12T05:36:57Z</time>
      </trkpt>
      <trkpt lat="38.5971890" lon="-0.7857510">
        <ele>733.2</ele>
        <time>2019-05-12T05:36:58Z</time>
      </trkpt>
      <trkpt lat="38.5971490" lon="-0.7855210">
        <ele>733.2</ele>
        <time>2019-05-12T05:37:03Z</time>
      </trkpt>
      <trkpt lat="38.5971300" lon="-0.7853400">
        <ele>734.2</ele>
        <time>2019-05-12T05:37:07Z</time>
      </trkpt>
      <trkpt lat="38.5971300" lon="-0.7852880">
        <ele>734.2</ele>
        <time>2019-05-12T05:37:08Z</time>
      </trkpt>
      <trkpt lat="38.5971080" lon="-0.7851120">
        <ele>735.0</ele>
        <time>2019-05-12T05:37:13Z</time>
      </trkpt>
      <trkpt lat="38.5971050" lon="-0.7850840">
        <ele>735.4</ele>
        <time>2019-05-12T05:37:14Z</time>
      </trkpt>
      <trkpt lat="38.5971320" lon="-0.7849340">
        <ele>735.4</ele>
        <time>2019-05-12T05:37:18Z</time>
      </trkpt>
      <trkpt lat="38.5971200" lon="-0.7847720">
        <ele>735.0</ele>
        <time>2019-05-12T05:37:22Z</time>
      </trkpt>
      <trkpt lat="38.5970720" lon="-0.7846530">
        <ele>736.2</ele>
        <time>2019-05-12T05:37:26Z</time>
      </trkpt>
      <trkpt lat="38.5970370" lon="-0.7845610">
        <ele>736.4</ele>
        <time>2019-05-12T05:37:29Z</time>
      </trkpt>
      <trkpt lat="38.5970220" lon="-0.7844870">
        <ele>737.8</ele>
        <time>2019-05-12T05:37:31Z</time>
      </trkpt>
      <trkpt lat="38.5970220" lon="-0.7844440">
        <ele>737.8</ele>
        <time>2019-05-12T05:37:32Z</time>
      </trkpt>
      <trkpt lat="38.5970550" lon="-0.7842400">
        <ele>738.6</ele>
        <time>2019-05-12T05:37:37Z</time>
      </trkpt>
      <trkpt lat="38.5970610" lon="-0.7842020">
        <ele>738.8</ele>
        <time>2019-05-12T05:37:38Z</time>
      </trkpt>
      <trkpt lat="38.5971290" lon="-0.7840400">
        <ele>739.6</ele>
        <time>2019-05-12T05:37:43Z</time>
      </trkpt>
      <trkpt lat="38.5972040" lon="-0.7838680">
        <ele>740.0</ele>
        <time>2019-05-12T05:37:48Z</time>
      </trkpt>
      <trkpt lat="38.5972700" lon="-0.7836850">
        <ele>741.4</ele>
        <time>2019-05-12T05:37:54Z</time>
      </trkpt>
      <trkpt lat="38.5973550" lon="-0.7835160">
        <ele>742.2</ele>
        <time>2019-05-12T05:37:59Z</time>
      </trkpt>
      <trkpt lat="38.5973790" lon="-0.7833990">
        <ele>742.4</ele>
        <time>2019-05-12T05:38:02Z</time>
      </trkpt>
      <trkpt lat="38.5973820" lon="-0.7833620">
        <ele>742.4</ele>
        <time>2019-05-12T05:38:03Z</time>
      </trkpt>
      <trkpt lat="38.5973790" lon="-0.7831420">
        <ele>743.2</ele>
        <time>2019-05-12T05:38:09Z</time>
      </trkpt>
      <trkpt lat="38.5974000" lon="-0.7829490">
        <ele>742.6</ele>
        <time>2019-05-12T05:38:13Z</time>
      </trkpt>
      <trkpt lat="38.5974270" lon="-0.7829020">
        <ele>742.6</ele>
        <time>2019-05-12T05:38:14Z</time>
      </trkpt>
      <trkpt lat="38.5975320" lon="-0.7827830">
        <ele>741.6</ele>
        <time>2019-05-12T05:38:17Z</time>
      </trkpt>
      <trkpt lat="38.5976020" lon="-0.7827050">
        <ele>741.8</ele>
        <time>2019-05-12T05:38:19Z</time>
      </trkpt>
      <trkpt lat="38.5976310" lon="-0.7826610">
        <ele>741.6</ele>
        <time>2019-05-12T05:38:20Z</time>
      </trkpt>
      <trkpt lat="38.5977450" lon="-0.7825480">
        <ele>742.2</ele>
        <time>2019-05-12T05:38:24Z</time>
      </trkpt>
      <trkpt lat="38.5978100" lon="-0.7825340">
        <ele>742.8</ele>
        <time>2019-05-12T05:38:28Z</time>
      </trkpt>
      <trkpt lat="38.5978430" lon="-0.7825310">
        <ele>743.6</ele>
        <time>2019-05-12T05:38:30Z</time>
      </trkpt>
      <trkpt lat="38.5978860" lon="-0.7824910">
        <ele>744.4</ele>
        <time>2019-05-12T05:38:33Z</time>
      </trkpt>
      <trkpt lat="38.5978990" lon="-0.7824730">
        <ele>744.6</ele>
        <time>2019-05-12T05:38:34Z</time>
      </trkpt>
      <trkpt lat="38.5979260" lon="-0.7823920">
        <ele>745.0</ele>
        <time>2019-05-12T05:38:37Z</time>
      </trkpt>
      <trkpt lat="38.5979450" lon="-0.7822980">
        <ele>745.6</ele>
        <time>2019-05-12T05:38:40Z</time>
      </trkpt>
      <trkpt lat="38.5979600" lon="-0.7822110">
        <ele>746.4</ele>
        <time>2019-05-12T05:38:43Z</time>
      </trkpt>
      <trkpt lat="38.5979770" lon="-0.7821590">
        <ele>746.8</ele>
        <time>2019-05-12T05:38:45Z</time>
      </trkpt>
      <trkpt lat="38.5980110" lon="-0.7821150">
        <ele>747.8</ele>
        <time>2019-05-12T05:38:47Z</time>
      </trkpt>
      <trkpt lat="38.5980350" lon="-0.7820980">
        <ele>748.0</ele>
        <time>2019-05-12T05:38:48Z</time>
      </trkpt>
      <trkpt lat="38.5980970" lon="-0.7819700">
        <ele>748.8</ele>
        <time>2019-05-12T05:38:52Z</time>
      </trkpt>
      <trkpt lat="38.5981470" lon="-0.7818600">
        <ele>749.0</ele>
        <time>2019-05-12T05:38:55Z</time>
      </trkpt>
      <trkpt lat="38.5981920" lon="-0.7817600">
        <ele>749.6</ele>
        <time>2019-05-12T05:38:58Z</time>
      </trkpt>
      <trkpt lat="38.5982430" lon="-0.7816200">
        <ele>750.0</ele>
        <time>2019-05-12T05:39:02Z</time>
      </trkpt>
      <trkpt lat="38.5982870" lon="-0.7814750">
        <ele>750.4</ele>
        <time>2019-05-12T05:39:06Z</time>
      </trkpt>
      <trkpt lat="38.5983490" lon="-0.7812920">
        <ele>751.2</ele>
        <time>2019-05-12T05:39:11Z</time>
      </trkpt>
      <trkpt lat="38.5983600" lon="-0.7812540">
        <ele>751.4</ele>
        <time>2019-05-12T05:39:12Z</time>
      </trkpt>
      <trkpt lat="38.5983660" lon="-0.7811400">
        <ele>752.2</ele>
        <time>2019-05-12T05:39:16Z</time>
      </trkpt>
      <trkpt lat="38.5983680" lon="-0.7811140">
        <ele>752.4</ele>
        <time>2019-05-12T05:39:17Z</time>
      </trkpt>
      <trkpt lat="38.5983750" lon="-0.7809960">
        <ele>753.4</ele>
        <time>2019-05-12T05:39:21Z</time>
      </trkpt>
      <trkpt lat="38.5983760" lon="-0.7809610">
        <ele>753.6</ele>
        <time>2019-05-12T05:39:22Z</time>
      </trkpt>
      <trkpt lat="38.5983760" lon="-0.7808540">
        <ele>754.6</ele>
        <time>2019-05-12T05:39:25Z</time>
      </trkpt>
      <trkpt lat="38.5983960" lon="-0.7807420">
        <ele>755.4</ele>
        <time>2019-05-12T05:39:29Z</time>
      </trkpt>
      <trkpt lat="38.5984030" lon="-0.7807250">
        <ele>755.8</ele>
        <time>2019-05-12T05:39:30Z</time>
      </trkpt>
      <trkpt lat="38.5984480" lon="-0.7806780">
        <ele>756.4</ele>
        <time>2019-05-12T05:39:34Z</time>
      </trkpt>
      <trkpt lat="38.5984660" lon="-0.7806720">
        <ele>756.6</ele>
        <time>2019-05-12T05:39:35Z</time>
      </trkpt>
      <trkpt lat="38.5984850" lon="-0.7806690">
        <ele>757.4</ele>
        <time>2019-05-12T05:39:36Z</time>
      </trkpt>
      <trkpt lat="38.5985500" lon="-0.7806550">
        <ele>758.2</ele>
        <time>2019-05-12T05:39:40Z</time>
      </trkpt>
      <trkpt lat="38.5985580" lon="-0.7806350">
        <ele>758.8</ele>
        <time>2019-05-12T05:39:41Z</time>
      </trkpt>
      <trkpt lat="38.5986380" lon="-0.7805720">
        <ele>759.6</ele>
        <time>2019-05-12T05:39:46Z</time>
      </trkpt>
      <trkpt lat="38.5986560" lon="-0.7805570">
        <ele>759.6</ele>
        <time>2019-05-12T05:39:47Z</time>
      </trkpt>
      <trkpt lat="38.5986770" lon="-0.7805460">
        <ele>759.8</ele>
        <time>2019-05-12T05:39:48Z</time>
      </trkpt>
      <trkpt lat="38.5987470" lon="-0.7805090">
        <ele>760.0</ele>
        <time>2019-05-12T05:39:51Z</time>
      </trkpt>
      <trkpt lat="38.5988640" lon="-0.7803890">
        <ele>760.6</ele>
        <time>2019-05-12T05:39:56Z</time>
      </trkpt>
      <trkpt lat="38.5989590" lon="-0.7802540">
        <ele>761.0</ele>
        <time>2019-05-12T05:40:01Z</time>
      </trkpt>
      <trkpt lat="38.5989700" lon="-0.7802370">
        <ele>761.6</ele>
        <time>2019-05-12T05:40:02Z</time>
      </trkpt>
      <trkpt lat="38.5990030" lon="-0.7801950">
        <ele>762.0</ele>
        <time>2019-05-12T05:40:05Z</time>
      </trkpt>
      <trkpt lat="38.5990620" lon="-0.7801190">
        <ele>762.2</ele>
        <time>2019-05-12T05:40:08Z</time>
      </trkpt>
      <trkpt lat="38.5992490" lon="-0.7799660">
        <ele>762.2</ele>
        <time>2019-05-12T05:40:14Z</time>
      </trkpt>
      <trkpt lat="38.5994620" lon="-0.7798130">
        <ele>762.4</ele>
        <time>2019-05-12T05:40:21Z</time>
      </trkpt>
      <trkpt lat="38.5995020" lon="-0.7797530">
        <ele>762.8</ele>
        <time>2019-05-12T05:40:24Z</time>
      </trkpt>
      <trkpt lat="38.5995010" lon="-0.7797280">
        <ele>763.0</ele>
        <time>2019-05-12T05:40:25Z</time>
      </trkpt>
      <trkpt lat="38.5995180" lon="-0.7796440">
        <ele>764.2</ele>
        <time>2019-05-12T05:40:28Z</time>
      </trkpt>
      <trkpt lat="38.5995200" lon="-0.7795890">
        <ele>764.8</ele>
        <time>2019-05-12T05:40:30Z</time>
      </trkpt>
      <trkpt lat="38.5995370" lon="-0.7795320">
        <ele>765.4</ele>
        <time>2019-05-12T05:40:32Z</time>
      </trkpt>
      <trkpt lat="38.5995670" lon="-0.7794920">
        <ele>766.0</ele>
        <time>2019-05-12T05:40:34Z</time>
      </trkpt>
      <trkpt lat="38.5995900" lon="-0.7794810">
        <ele>766.2</ele>
        <time>2019-05-12T05:40:35Z</time>
      </trkpt>
      <trkpt lat="38.5996400" lon="-0.7794530">
        <ele>766.6</ele>
        <time>2019-05-12T05:40:37Z</time>
      </trkpt>
      <trkpt lat="38.5997130" lon="-0.7794270">
        <ele>767.2</ele>
        <time>2019-05-12T05:40:40Z</time>
      </trkpt>
      <trkpt lat="38.5998430" lon="-0.7794790">
        <ele>767.6</ele>
        <time>2019-05-12T05:40:45Z</time>
      </trkpt>
      <trkpt lat="38.6000580" lon="-0.7795000">
        <ele>766.6</ele>
        <time>2019-05-12T05:40:50Z</time>
      </trkpt>
      <trkpt lat="38.6001100" lon="-0.7795250">
        <ele>766.4</ele>
        <time>2019-05-12T05:40:51Z</time>
      </trkpt>
      <trkpt lat="38.6001610" lon="-0.7795500">
        <ele>765.2</ele>
        <time>2019-05-12T05:40:52Z</time>
      </trkpt>
      <trkpt lat="38.6002150" lon="-0.7795520">
        <ele>764.8</ele>
        <time>2019-05-12T05:40:53Z</time>
      </trkpt>
      <trkpt lat="38.6002600" lon="-0.7795500">
        <ele>764.6</ele>
        <time>2019-05-12T05:40:54Z</time>
      </trkpt>
      <trkpt lat="38.6003160" lon="-0.7795660">
        <ele>766.0</ele>
        <time>2019-05-12T05:40:57Z</time>
      </trkpt>
      <trkpt lat="38.6003310" lon="-0.7795820">
        <ele>766.2</ele>
        <time>2019-05-12T05:40:58Z</time>
      </trkpt>
      <trkpt lat="38.6003650" lon="-0.7796680">
        <ele>767.4</ele>
        <time>2019-05-12T05:41:02Z</time>
      </trkpt>
      <trkpt lat="38.6003900" lon="-0.7797520">
        <ele>768.8</ele>
        <time>2019-05-12T05:41:06Z</time>
      </trkpt>
      <trkpt lat="38.6004220" lon="-0.7797950">
        <ele>769.8</ele>
        <time>2019-05-12T05:41:09Z</time>
      </trkpt>
      <trkpt lat="38.6004400" lon="-0.7798320">
        <ele>771.0</ele>
        <time>2019-05-12T05:41:13Z</time>
      </trkpt>
      <trkpt lat="38.6004430" lon="-0.7798330">
        <ele>771.2</ele>
        <time>2019-05-12T05:41:14Z</time>
      </trkpt>
      <trkpt lat="38.6004540" lon="-0.7798470">
        <ele>771.4</ele>
        <time>2019-05-12T05:41:15Z</time>
      </trkpt>
      <trkpt lat="38.6005070" lon="-0.7799480">
        <ele>772.0</ele>
        <time>2019-05-12T05:41:19Z</time>
      </trkpt>
      <trkpt lat="38.6006170" lon="-0.7800690">
        <ele>772.8</ele>
        <time>2019-05-12T05:41:24Z</time>
      </trkpt>
      <trkpt lat="38.6006740" lon="-0.7800970">
        <ele>773.2</ele>
        <time>2019-05-12T05:41:26Z</time>
      </trkpt>
      <trkpt lat="38.6007690" lon="-0.7801080">
        <ele>774.2</ele>
        <time>2019-05-12T05:41:30Z</time>
      </trkpt>
      <trkpt lat="38.6008150" lon="-0.7801100">
        <ele>774.4</ele>
        <time>2019-05-12T05:41:32Z</time>
      </trkpt>
      <trkpt lat="38.6008730" lon="-0.7801050">
        <ele>775.2</ele>
        <time>2019-05-12T05:41:35Z</time>
      </trkpt>
      <trkpt lat="38.6008940" lon="-0.7801020">
        <ele>775.6</ele>
        <time>2019-05-12T05:41:36Z</time>
      </trkpt>
      <trkpt lat="38.6010220" lon="-0.7801280">
        <ele>776.2</ele>
        <time>2019-05-12T05:41:41Z</time>
      </trkpt>
      <trkpt lat="38.6010470" lon="-0.7801230">
        <ele>776.6</ele>
        <time>2019-05-12T05:41:42Z</time>
      </trkpt>
      <trkpt lat="38.6011280" lon="-0.7800850">
        <ele>777.2</ele>
        <time>2019-05-12T05:41:46Z</time>
      </trkpt>
      <trkpt lat="38.6011570" lon="-0.7800500">
        <ele>777.6</ele>
        <time>2019-05-12T05:41:48Z</time>
      </trkpt>
      <trkpt lat="38.6012140" lon="-0.7800290">
        <ele>778.8</ele>
        <time>2019-05-12T05:41:51Z</time>
      </trkpt>
      <trkpt lat="38.6013410" lon="-0.7800980">
        <ele>779.2</ele>
        <time>2019-05-12T05:41:56Z</time>
      </trkpt>
      <trkpt lat="38.6013710" lon="-0.7801400">
        <ele>779.4</ele>
        <time>2019-05-12T05:41:58Z</time>
      </trkpt>
      <trkpt lat="38.6014060" lon="-0.7801960">
        <ele>780.2</ele>
        <time>2019-05-12T05:42:01Z</time>
      </trkpt>
      <trkpt lat="38.6014200" lon="-0.7802130">
        <ele>780.4</ele>
        <time>2019-05-12T05:42:02Z</time>
      </trkpt>
      <trkpt lat="38.6014600" lon="-0.7802680">
        <ele>781.2</ele>
        <time>2019-05-12T05:42:05Z</time>
      </trkpt>
      <trkpt lat="38.6014720" lon="-0.7802930">
        <ele>781.4</ele>
        <time>2019-05-12T05:42:06Z</time>
      </trkpt>
      <trkpt lat="38.6014870" lon="-0.7803390">
        <ele>782.0</ele>
        <time>2019-05-12T05:42:08Z</time>
      </trkpt>
      <trkpt lat="38.6015160" lon="-0.7804030">
        <ele>782.6</ele>
        <time>2019-05-12T05:42:11Z</time>
      </trkpt>
      <trkpt lat="38.6015550" lon="-0.7804890">
        <ele>783.6</ele>
        <time>2019-05-12T05:42:15Z</time>
      </trkpt>
      <trkpt lat="38.6015630" lon="-0.7805090">
        <ele>783.6</ele>
        <time>2019-05-12T05:42:16Z</time>
      </trkpt>
      <trkpt lat="38.6016180" lon="-0.7806050">
        <ele>784.8</ele>
        <time>2019-05-12T05:42:21Z</time>
      </trkpt>
      <trkpt lat="38.6016470" lon="-0.7806700">
        <ele>785.6</ele>
        <time>2019-05-12T05:42:24Z</time>
      </trkpt>
      <trkpt lat="38.6016720" lon="-0.7807080">
        <ele>785.8</ele>
        <time>2019-05-12T05:42:26Z</time>
      </trkpt>
      <trkpt lat="38.6017060" lon="-0.7807630">
        <ele>786.8</ele>
        <time>2019-05-12T05:42:29Z</time>
      </trkpt>
      <trkpt lat="38.6017530" lon="-0.7808370">
        <ele>788.0</ele>
        <time>2019-05-12T05:42:33Z</time>
      </trkpt>
      <trkpt lat="38.6018150" lon="-0.7809230">
        <ele>789.0</ele>
        <time>2019-05-12T05:42:38Z</time>
      </trkpt>
      <trkpt lat="38.6018810" lon="-0.7809980">
        <ele>790.2</ele>
        <time>2019-05-12T05:42:43Z</time>
      </trkpt>
      <trkpt lat="38.6019930" lon="-0.7811310">
        <ele>791.0</ele>
        <time>2019-05-12T05:42:51Z</time>
      </trkpt>
      <trkpt lat="38.6020060" lon="-0.7811510">
        <ele>791.4</ele>
        <time>2019-05-12T05:42:52Z</time>
      </trkpt>
      <trkpt lat="38.6021000" lon="-0.7812700">
        <ele>792.2</ele>
        <time>2019-05-12T05:42:58Z</time>
      </trkpt>
      <trkpt lat="38.6021190" lon="-0.7812930">
        <ele>792.4</ele>
        <time>2019-05-12T05:42:59Z</time>
      </trkpt>
      <trkpt lat="38.6022300" lon="-0.7814220">
        <ele>793.0</ele>
        <time>2019-05-12T05:43:05Z</time>
      </trkpt>
      <trkpt lat="38.6022630" lon="-0.7814610">
        <ele>793.4</ele>
        <time>2019-05-12T05:43:07Z</time>
      </trkpt>
      <trkpt lat="38.6023140" lon="-0.7815160">
        <ele>793.8</ele>
        <time>2019-05-12T05:43:10Z</time>
      </trkpt>
      <trkpt lat="38.6023720" lon="-0.7815840">
        <ele>794.4</ele>
        <time>2019-05-12T05:43:14Z</time>
      </trkpt>
      <trkpt lat="38.6024210" lon="-0.7816220">
        <ele>795.2</ele>
        <time>2019-05-12T05:43:17Z</time>
      </trkpt>
      <trkpt lat="38.6024360" lon="-0.7816350">
        <ele>795.6</ele>
        <time>2019-05-12T05:43:18Z</time>
      </trkpt>
      <trkpt lat="38.6024920" lon="-0.7816920">
        <ele>797.0</ele>
        <time>2019-05-12T05:43:22Z</time>
      </trkpt>
      <trkpt lat="38.6025290" lon="-0.7817300">
        <ele>797.8</ele>
        <time>2019-05-12T05:43:25Z</time>
      </trkpt>
      <trkpt lat="38.6025420" lon="-0.7817410">
        <ele>798.2</ele>
        <time>2019-05-12T05:43:26Z</time>
      </trkpt>
      <trkpt lat="38.6025800" lon="-0.7817870">
        <ele>799.2</ele>
        <time>2019-05-12T05:43:29Z</time>
      </trkpt>
      <trkpt lat="38.6026280" lon="-0.7818180">
        <ele>800.0</ele>
        <time>2019-05-12T05:43:32Z</time>
      </trkpt>
      <trkpt lat="38.6026430" lon="-0.7818320">
        <ele>800.2</ele>
        <time>2019-05-12T05:43:33Z</time>
      </trkpt>
      <trkpt lat="38.6026840" lon="-0.7818680">
        <ele>801.6</ele>
        <time>2019-05-12T05:43:36Z</time>
      </trkpt>
      <trkpt lat="38.6027090" lon="-0.7818930">
        <ele>802.2</ele>
        <time>2019-05-12T05:43:38Z</time>
      </trkpt>
      <trkpt lat="38.6027200" lon="-0.7819080">
        <ele>802.6</ele>
        <time>2019-05-12T05:43:39Z</time>
      </trkpt>
      <trkpt lat="38.6027720" lon="-0.7819570">
        <ele>803.8</ele>
        <time>2019-05-12T05:43:43Z</time>
      </trkpt>
      <trkpt lat="38.6027990" lon="-0.7819880">
        <ele>804.4</ele>
        <time>2019-05-12T05:43:45Z</time>
      </trkpt>
      <trkpt lat="38.6028390" lon="-0.7820320">
        <ele>805.4</ele>
        <time>2019-05-12T05:43:48Z</time>
      </trkpt>
      <trkpt lat="38.6029070" lon="-0.7821020">
        <ele>806.4</ele>
        <time>2019-05-12T05:43:53Z</time>
      </trkpt>
      <trkpt lat="38.6029630" lon="-0.7821640">
        <ele>807.6</ele>
        <time>2019-05-12T05:43:57Z</time>
      </trkpt>
      <trkpt lat="38.6030190" lon="-0.7822310">
        <ele>808.2</ele>
        <time>2019-05-12T05:44:01Z</time>
      </trkpt>
      <trkpt lat="38.6030320" lon="-0.7822460">
        <ele>808.6</ele>
        <time>2019-05-12T05:44:02Z</time>
      </trkpt>
      <trkpt lat="38.6030760" lon="-0.7822880">
        <ele>809.8</ele>
        <time>2019-05-12T05:44:05Z</time>
      </trkpt>
      <trkpt lat="38.6031310" lon="-0.7823440">
        <ele>810.2</ele>
        <time>2019-05-12T05:44:09Z</time>
      </trkpt>
      <trkpt lat="38.6031600" lon="-0.7823660">
        <ele>810.8</ele>
        <time>2019-05-12T05:44:11Z</time>
      </trkpt>
      <trkpt lat="38.6032350" lon="-0.7824280">
        <ele>812.0</ele>
        <time>2019-05-12T05:44:16Z</time>
      </trkpt>
      <trkpt lat="38.6032680" lon="-0.7824420">
        <ele>812.2</ele>
        <time>2019-05-12T05:44:18Z</time>
      </trkpt>
      <trkpt lat="38.6033360" lon="-0.7824730">
        <ele>813.0</ele>
        <time>2019-05-12T05:44:22Z</time>
      </trkpt>
      <trkpt lat="38.6034050" lon="-0.7825070">
        <ele>813.8</ele>
        <time>2019-05-12T05:44:26Z</time>
      </trkpt>
      <trkpt lat="38.6034520" lon="-0.7825410">
        <ele>814.0</ele>
        <time>2019-05-12T05:44:29Z</time>
      </trkpt>
      <trkpt lat="38.6035200" lon="-0.7825730">
        <ele>814.8</ele>
        <time>2019-05-12T05:44:33Z</time>
      </trkpt>
      <trkpt lat="38.6035530" lon="-0.7825960">
        <ele>815.2</ele>
        <time>2019-05-12T05:44:35Z</time>
      </trkpt>
      <trkpt lat="38.6036350" lon="-0.7826500">
        <ele>816.2</ele>
        <time>2019-05-12T05:44:40Z</time>
      </trkpt>
      <trkpt lat="38.6037310" lon="-0.7827430">
        <ele>817.2</ele>
        <time>2019-05-12T05:44:46Z</time>
      </trkpt>
      <trkpt lat="38.6037450" lon="-0.7827640">
        <ele>817.4</ele>
        <time>2019-05-12T05:44:47Z</time>
      </trkpt>
      <trkpt lat="38.6038220" lon="-0.7828690">
        <ele>818.0</ele>
        <time>2019-05-12T05:44:52Z</time>
      </trkpt>
      <trkpt lat="38.6038600" lon="-0.7829380">
        <ele>818.4</ele>
        <time>2019-05-12T05:44:55Z</time>
      </trkpt>
      <trkpt lat="38.6039160" lon="-0.7830430">
        <ele>819.2</ele>
        <time>2019-05-12T05:45:00Z</time>
      </trkpt>
      <trkpt lat="38.6039260" lon="-0.7830630">
        <ele>819.4</ele>
        <time>2019-05-12T05:45:01Z</time>
      </trkpt>
      <trkpt lat="38.6039750" lon="-0.7831590">
        <ele>820.6</ele>
        <time>2019-05-12T05:45:06Z</time>
      </trkpt>
      <trkpt lat="38.6039990" lon="-0.7832220">
        <ele>821.6</ele>
        <time>2019-05-12T05:45:09Z</time>
      </trkpt>
      <trkpt lat="38.6040070" lon="-0.7832410">
        <ele>822.0</ele>
        <time>2019-05-12T05:45:10Z</time>
      </trkpt>
      <trkpt lat="38.6040400" lon="-0.7833260">
        <ele>823.2</ele>
        <time>2019-05-12T05:45:14Z</time>
      </trkpt>
      <trkpt lat="38.6040580" lon="-0.7833670">
        <ele>824.0</ele>
        <time>2019-05-12T05:45:16Z</time>
      </trkpt>
      <trkpt lat="38.6040650" lon="-0.7833910">
        <ele>824.4</ele>
        <time>2019-05-12T05:45:17Z</time>
      </trkpt>
      <trkpt lat="38.6040840" lon="-0.7834770">
        <ele>825.8</ele>
        <time>2019-05-12T05:45:21Z</time>
      </trkpt>
      <trkpt lat="38.6040980" lon="-0.7835670">
        <ele>826.4</ele>
        <time>2019-05-12T05:45:25Z</time>
      </trkpt>
      <trkpt lat="38.6041030" lon="-0.7835920">
        <ele>826.8</ele>
        <time>2019-05-12T05:45:26Z</time>
      </trkpt>
      <trkpt lat="38.6041060" lon="-0.7836650">
        <ele>828.0</ele>
        <time>2019-05-12T05:45:29Z</time>
      </trkpt>
      <trkpt lat="38.6041130" lon="-0.7837620">
        <ele>828.6</ele>
        <time>2019-05-12T05:45:33Z</time>
      </trkpt>
      <trkpt lat="38.6041220" lon="-0.7838110">
        <ele>829.0</ele>
        <time>2019-05-12T05:45:35Z</time>
      </trkpt>
      <trkpt lat="38.6041420" lon="-0.7839090">
        <ele>829.4</ele>
        <time>2019-05-12T05:45:39Z</time>
      </trkpt>
      <trkpt lat="38.6041540" lon="-0.7840370">
        <ele>830.2</ele>
        <time>2019-05-12T05:45:44Z</time>
      </trkpt>
      <trkpt lat="38.6041480" lon="-0.7840620">
        <ele>830.2</ele>
        <time>2019-05-12T05:45:45Z</time>
      </trkpt>
      <trkpt lat="38.6040930" lon="-0.7842390">
        <ele>831.0</ele>
        <time>2019-05-12T05:45:52Z</time>
      </trkpt>
      <trkpt lat="38.6040710" lon="-0.7842790">
        <ele>831.2</ele>
        <time>2019-05-12T05:45:54Z</time>
      </trkpt>
      <trkpt lat="38.6040490" lon="-0.7843820">
        <ele>832.2</ele>
        <time>2019-05-12T05:45:59Z</time>
      </trkpt>
      <trkpt lat="38.6040460" lon="-0.7844010">
        <ele>832.4</ele>
        <time>2019-05-12T05:46:00Z</time>
      </trkpt>
      <trkpt lat="38.6040510" lon="-0.7844780">
        <ele>833.4</ele>
        <time>2019-05-12T05:46:04Z</time>
      </trkpt>
      <trkpt lat="38.6040530" lon="-0.7845160">
        <ele>834.4</ele>
        <time>2019-05-12T05:46:06Z</time>
      </trkpt>
      <trkpt lat="38.6040580" lon="-0.7845360">
        <ele>834.6</ele>
        <time>2019-05-12T05:46:07Z</time>
      </trkpt>
      <trkpt lat="38.6040880" lon="-0.7846390">
        <ele>835.8</ele>
        <time>2019-05-12T05:46:12Z</time>
      </trkpt>
      <trkpt lat="38.6040920" lon="-0.7846600">
        <ele>836.0</ele>
        <time>2019-05-12T05:46:13Z</time>
      </trkpt>
      <trkpt lat="38.6041000" lon="-0.7847180">
        <ele>836.8</ele>
        <time>2019-05-12T05:46:16Z</time>
      </trkpt>
      <trkpt lat="38.6041280" lon="-0.7848070">
        <ele>837.8</ele>
        <time>2019-05-12T05:46:20Z</time>
      </trkpt>
      <trkpt lat="38.6041530" lon="-0.7849200">
        <ele>839.0</ele>
        <time>2019-05-12T05:46:25Z</time>
      </trkpt>
      <trkpt lat="38.6041700" lon="-0.7849850">
        <ele>839.8</ele>
        <time>2019-05-12T05:46:28Z</time>
      </trkpt>
      <trkpt lat="38.6041740" lon="-0.7850070">
        <ele>840.2</ele>
        <time>2019-05-12T05:46:29Z</time>
      </trkpt>
      <trkpt lat="38.6042060" lon="-0.7851110">
        <ele>841.4</ele>
        <time>2019-05-12T05:46:34Z</time>
      </trkpt>
      <trkpt lat="38.6042110" lon="-0.7851310">
        <ele>841.6</ele>
        <time>2019-05-12T05:46:35Z</time>
      </trkpt>
      <trkpt lat="38.6042360" lon="-0.7852160">
        <ele>842.6</ele>
        <time>2019-05-12T05:46:39Z</time>
      </trkpt>
      <trkpt lat="38.6042580" lon="-0.7853270">
        <ele>843.8</ele>
        <time>2019-05-12T05:46:44Z</time>
      </trkpt>
      <trkpt lat="38.6042700" lon="-0.7853940">
        <ele>844.8</ele>
        <time>2019-05-12T05:46:47Z</time>
      </trkpt>
      <trkpt lat="38.6042940" lon="-0.7854790">
        <ele>846.0</ele>
        <time>2019-05-12T05:46:51Z</time>
      </trkpt>
      <trkpt lat="38.6043100" lon="-0.7855260">
        <ele>846.2</ele>
        <time>2019-05-12T05:46:53Z</time>
      </trkpt>
      <trkpt lat="38.6043200" lon="-0.7855940">
        <ele>847.2</ele>
        <time>2019-05-12T05:46:56Z</time>
      </trkpt>
      <trkpt lat="38.6043410" lon="-0.7856780">
        <ele>848.2</ele>
        <time>2019-05-12T05:47:00Z</time>
      </trkpt>
      <trkpt lat="38.6043640" lon="-0.7857680">
        <ele>849.2</ele>
        <time>2019-05-12T05:47:04Z</time>
      </trkpt>
      <trkpt lat="38.6043870" lon="-0.7858330">
        <ele>850.0</ele>
        <time>2019-05-12T05:47:07Z</time>
      </trkpt>
      <trkpt lat="38.6043930" lon="-0.7858560">
        <ele>850.2</ele>
        <time>2019-05-12T05:47:08Z</time>
      </trkpt>
      <trkpt lat="38.6044080" lon="-0.7859220">
        <ele>851.4</ele>
        <time>2019-05-12T05:47:11Z</time>
      </trkpt>
      <trkpt lat="38.6044120" lon="-0.7859920">
        <ele>851.8</ele>
        <time>2019-05-12T05:47:14Z</time>
      </trkpt>
      <trkpt lat="38.6044290" lon="-0.7860850">
        <ele>852.4</ele>
        <time>2019-05-12T05:47:18Z</time>
      </trkpt>
      <trkpt lat="38.6044440" lon="-0.7861540">
        <ele>853.0</ele>
        <time>2019-05-12T05:47:21Z</time>
      </trkpt>
      <trkpt lat="38.6044600" lon="-0.7862220">
        <ele>853.6</ele>
        <time>2019-05-12T05:47:24Z</time>
      </trkpt>
      <trkpt lat="38.6044770" lon="-0.7862920">
        <ele>854.2</ele>
        <time>2019-05-12T05:47:27Z</time>
      </trkpt>
      <trkpt lat="38.6045000" lon="-0.7863830">
        <ele>854.6</ele>
        <time>2019-05-12T05:47:31Z</time>
      </trkpt>
      <trkpt lat="38.6045160" lon="-0.7864730">
        <ele>855.6</ele>
        <time>2019-05-12T05:47:35Z</time>
      </trkpt>
      <trkpt lat="38.6045230" lon="-0.7864940">
        <ele>855.8</ele>
        <time>2019-05-12T05:47:36Z</time>
      </trkpt>
      <trkpt lat="38.6045680" lon="-0.7866480">
        <ele>857.0</ele>
        <time>2019-05-12T05:47:43Z</time>
      </trkpt>
      <trkpt lat="38.6045960" lon="-0.7867560">
        <ele>858.2</ele>
        <time>2019-05-12T05:47:48Z</time>
      </trkpt>
      <trkpt lat="38.6046110" lon="-0.7867960">
        <ele>858.6</ele>
        <time>2019-05-12T05:47:50Z</time>
      </trkpt>
      <trkpt lat="38.6046330" lon="-0.7868600">
        <ele>859.2</ele>
        <time>2019-05-12T05:47:53Z</time>
      </trkpt>
      <trkpt lat="38.6046640" lon="-0.7869370">
        <ele>860.4</ele>
        <time>2019-05-12T05:47:57Z</time>
      </trkpt>
      <trkpt lat="38.6046810" lon="-0.7869720">
        <ele>860.8</ele>
        <time>2019-05-12T05:47:59Z</time>
      </trkpt>
      <trkpt lat="38.6046900" lon="-0.7869910">
        <ele>861.6</ele>
        <time>2019-05-12T05:48:00Z</time>
      </trkpt>
      <trkpt lat="38.6047270" lon="-0.7870660">
        <ele>862.6</ele>
        <time>2019-05-12T05:48:04Z</time>
      </trkpt>
      <trkpt lat="38.6047490" lon="-0.7871010">
        <ele>863.0</ele>
        <time>2019-05-12T05:48:06Z</time>
      </trkpt>
      <trkpt lat="38.6047690" lon="-0.7871410">
        <ele>863.6</ele>
        <time>2019-05-12T05:48:08Z</time>
      </trkpt>
      <trkpt lat="38.6048100" lon="-0.7872140">
        <ele>865.0</ele>
        <time>2019-05-12T05:48:12Z</time>
      </trkpt>
      <trkpt lat="38.6048200" lon="-0.7872330">
        <ele>865.2</ele>
        <time>2019-05-12T05:48:13Z</time>
      </trkpt>
      <trkpt lat="38.6048460" lon="-0.7872870">
        <ele>865.6</ele>
        <time>2019-05-12T05:48:16Z</time>
      </trkpt>
      <trkpt lat="38.6048580" lon="-0.7873050">
        <ele>866.0</ele>
        <time>2019-05-12T05:48:17Z</time>
      </trkpt>
      <trkpt lat="38.6048790" lon="-0.7873480">
        <ele>866.6</ele>
        <time>2019-05-12T05:48:19Z</time>
      </trkpt>
      <trkpt lat="38.6048930" lon="-0.7873930">
        <ele>867.0</ele>
        <time>2019-05-12T05:48:21Z</time>
      </trkpt>
      <trkpt lat="38.6049170" lon="-0.7874540">
        <ele>868.2</ele>
        <time>2019-05-12T05:48:24Z</time>
      </trkpt>
      <trkpt lat="38.6049310" lon="-0.7874960">
        <ele>868.6</ele>
        <time>2019-05-12T05:48:26Z</time>
      </trkpt>
      <trkpt lat="38.6049510" lon="-0.7875330">
        <ele>869.2</ele>
        <time>2019-05-12T05:48:28Z</time>
      </trkpt>
      <trkpt lat="38.6049710" lon="-0.7875970">
        <ele>870.4</ele>
        <time>2019-05-12T05:48:31Z</time>
      </trkpt>
      <trkpt lat="38.6049790" lon="-0.7876190">
        <ele>870.4</ele>
        <time>2019-05-12T05:48:32Z</time>
      </trkpt>
      <trkpt lat="38.6050150" lon="-0.7877480">
        <ele>871.4</ele>
        <time>2019-05-12T05:48:38Z</time>
      </trkpt>
      <trkpt lat="38.6050190" lon="-0.7877700">
        <ele>871.8</ele>
        <time>2019-05-12T05:48:39Z</time>
      </trkpt>
      <trkpt lat="38.6050390" lon="-0.7878570">
        <ele>872.8</ele>
        <time>2019-05-12T05:48:43Z</time>
      </trkpt>
      <trkpt lat="38.6050530" lon="-0.7879180">
        <ele>873.0</ele>
        <time>2019-05-12T05:48:46Z</time>
      </trkpt>
      <trkpt lat="38.6050760" lon="-0.7879760">
        <ele>874.0</ele>
        <time>2019-05-12T05:48:49Z</time>
      </trkpt>
      <trkpt lat="38.6051050" lon="-0.7880540">
        <ele>875.2</ele>
        <time>2019-05-12T05:48:53Z</time>
      </trkpt>
      <trkpt lat="38.6051110" lon="-0.7880740">
        <ele>875.6</ele>
        <time>2019-05-12T05:48:54Z</time>
      </trkpt>
      <trkpt lat="38.6051220" lon="-0.7881150">
        <ele>876.4</ele>
        <time>2019-05-12T05:48:56Z</time>
      </trkpt>
      <trkpt lat="38.6051460" lon="-0.7881990">
        <ele>877.4</ele>
        <time>2019-05-12T05:49:00Z</time>
      </trkpt>
      <trkpt lat="38.6051520" lon="-0.7882210">
        <ele>877.6</ele>
        <time>2019-05-12T05:49:01Z</time>
      </trkpt>
      <trkpt lat="38.6051650" lon="-0.7882790">
        <ele>878.2</ele>
        <time>2019-05-12T05:49:04Z</time>
      </trkpt>
      <trkpt lat="38.6051700" lon="-0.7883030">
        <ele>878.6</ele>
        <time>2019-05-12T05:49:05Z</time>
      </trkpt>
      <trkpt lat="38.6051770" lon="-0.7883280">
        <ele>879.0</ele>
        <time>2019-05-12T05:49:06Z</time>
      </trkpt>
      <trkpt lat="38.6052030" lon="-0.7884150">
        <ele>879.6</ele>
        <time>2019-05-12T05:49:10Z</time>
      </trkpt>
      <trkpt lat="38.6052220" lon="-0.7884820">
        <ele>880.4</ele>
        <time>2019-05-12T05:49:13Z</time>
      </trkpt>
      <trkpt lat="38.6052270" lon="-0.7885040">
        <ele>880.6</ele>
        <time>2019-05-12T05:49:14Z</time>
      </trkpt>
      <trkpt lat="38.6052460" lon="-0.7886130">
        <ele>881.8</ele>
        <time>2019-05-12T05:49:19Z</time>
      </trkpt>
      <trkpt lat="38.6052610" lon="-0.7886770">
        <ele>882.0</ele>
        <time>2019-05-12T05:49:22Z</time>
      </trkpt>
      <trkpt lat="38.6052820" lon="-0.7887630">
        <ele>882.8</ele>
        <time>2019-05-12T05:49:26Z</time>
      </trkpt>
      <trkpt lat="38.6052850" lon="-0.7888330">
        <ele>883.2</ele>
        <time>2019-05-12T05:49:29Z</time>
      </trkpt>
      <trkpt lat="38.6053060" lon="-0.7889010">
        <ele>884.0</ele>
        <time>2019-05-12T05:49:32Z</time>
      </trkpt>
      <trkpt lat="38.6053210" lon="-0.7889620">
        <ele>885.0</ele>
        <time>2019-05-12T05:49:35Z</time>
      </trkpt>
      <trkpt lat="38.6053400" lon="-0.7890240">
        <ele>885.4</ele>
        <time>2019-05-12T05:49:38Z</time>
      </trkpt>
      <trkpt lat="38.6053580" lon="-0.7891120">
        <ele>886.2</ele>
        <time>2019-05-12T05:49:42Z</time>
      </trkpt>
      <trkpt lat="38.6053620" lon="-0.7891330">
        <ele>886.6</ele>
        <time>2019-05-12T05:49:43Z</time>
      </trkpt>
      <trkpt lat="38.6053840" lon="-0.7892470">
        <ele>887.6</ele>
        <time>2019-05-12T05:49:48Z</time>
      </trkpt>
      <trkpt lat="38.6053910" lon="-0.7892870">
        <ele>888.0</ele>
        <time>2019-05-12T05:49:50Z</time>
      </trkpt>
      <trkpt lat="38.6054030" lon="-0.7893350">
        <ele>888.8</ele>
        <time>2019-05-12T05:49:52Z</time>
      </trkpt>
      <trkpt lat="38.6054330" lon="-0.7894530">
        <ele>889.4</ele>
        <time>2019-05-12T05:49:57Z</time>
      </trkpt>
      <trkpt lat="38.6054320" lon="-0.7894730">
        <ele>889.8</ele>
        <time>2019-05-12T05:49:58Z</time>
      </trkpt>
      <trkpt lat="38.6054410" lon="-0.7894880">
        <ele>889.8</ele>
        <time>2019-05-12T05:49:59Z</time>
      </trkpt>
      <trkpt lat="38.6054520" lon="-0.7895310">
        <ele>890.4</ele>
        <time>2019-05-12T05:50:01Z</time>
      </trkpt>
      <trkpt lat="38.6054600" lon="-0.7895970">
        <ele>891.0</ele>
        <time>2019-05-12T05:50:04Z</time>
      </trkpt>
      <trkpt lat="38.6054780" lon="-0.7896610">
        <ele>892.0</ele>
        <time>2019-05-12T05:50:07Z</time>
      </trkpt>
      <trkpt lat="38.6054830" lon="-0.7896840">
        <ele>892.0</ele>
        <time>2019-05-12T05:50:08Z</time>
      </trkpt>
      <trkpt lat="38.6055060" lon="-0.7897680">
        <ele>893.0</ele>
        <time>2019-05-12T05:50:12Z</time>
      </trkpt>
      <trkpt lat="38.6055220" lon="-0.7898300">
        <ele>893.6</ele>
        <time>2019-05-12T05:50:15Z</time>
      </trkpt>
      <trkpt lat="38.6055320" lon="-0.7898920">
        <ele>894.2</ele>
        <time>2019-05-12T05:50:18Z</time>
      </trkpt>
      <trkpt lat="38.6055530" lon="-0.7899750">
        <ele>895.4</ele>
        <time>2019-05-12T05:50:22Z</time>
      </trkpt>
      <trkpt lat="38.6055560" lon="-0.7899950">
        <ele>895.6</ele>
        <time>2019-05-12T05:50:23Z</time>
      </trkpt>
      <trkpt lat="38.6055620" lon="-0.7900380">
        <ele>896.4</ele>
        <time>2019-05-12T05:50:25Z</time>
      </trkpt>
      <trkpt lat="38.6055870" lon="-0.7901410">
        <ele>898.0</ele>
        <time>2019-05-12T05:50:30Z</time>
      </trkpt>
      <trkpt lat="38.6056060" lon="-0.7902210">
        <ele>899.2</ele>
        <time>2019-05-12T05:50:34Z</time>
      </trkpt>
      <trkpt lat="38.6056110" lon="-0.7902600">
        <ele>900.0</ele>
        <time>2019-05-12T05:50:36Z</time>
      </trkpt>
      <trkpt lat="38.6056160" lon="-0.7902780">
        <ele>900.0</ele>
        <time>2019-05-12T05:50:37Z</time>
      </trkpt>
      <trkpt lat="38.6056220" lon="-0.7902970">
        <ele>900.2</ele>
        <time>2019-05-12T05:50:38Z</time>
      </trkpt>
      <trkpt lat="38.6056340" lon="-0.7903480">
        <ele>901.2</ele>
        <time>2019-05-12T05:50:41Z</time>
      </trkpt>
      <trkpt lat="38.6056480" lon="-0.7904210">
        <ele>902.4</ele>
        <time>2019-05-12T05:50:45Z</time>
      </trkpt>
      <trkpt lat="38.6056650" lon="-0.7904970">
        <ele>903.4</ele>
        <time>2019-05-12T05:50:49Z</time>
      </trkpt>
      <trkpt lat="38.6056770" lon="-0.7905550">
        <ele>904.2</ele>
        <time>2019-05-12T05:50:52Z</time>
      </trkpt>
      <trkpt lat="38.6056830" lon="-0.7905730">
        <ele>904.6</ele>
        <time>2019-05-12T05:50:53Z</time>
      </trkpt>
      <trkpt lat="38.6057010" lon="-0.7906470">
        <ele>905.6</ele>
        <time>2019-05-12T05:50:57Z</time>
      </trkpt>
      <trkpt lat="38.6057040" lon="-0.7906820">
        <ele>906.2</ele>
        <time>2019-05-12T05:50:59Z</time>
      </trkpt>
      <trkpt lat="38.6057150" lon="-0.7906990">
        <ele>906.4</ele>
        <time>2019-05-12T05:51:00Z</time>
      </trkpt>
      <trkpt lat="38.6057250" lon="-0.7907390">
        <ele>907.0</ele>
        <time>2019-05-12T05:51:02Z</time>
      </trkpt>
      <trkpt lat="38.6057360" lon="-0.7907720">
        <ele>907.6</ele>
        <time>2019-05-12T05:51:04Z</time>
      </trkpt>
      <trkpt lat="38.6057440" lon="-0.7908060">
        <ele>908.2</ele>
        <time>2019-05-12T05:51:06Z</time>
      </trkpt>
      <trkpt lat="38.6057770" lon="-0.7908920">
        <ele>909.4</ele>
        <time>2019-05-12T05:51:11Z</time>
      </trkpt>
      <trkpt lat="38.6058170" lon="-0.7909210">
        <ele>910.4</ele>
        <time>2019-05-12T05:51:14Z</time>
      </trkpt>
      <trkpt lat="38.6058630" lon="-0.7909130">
        <ele>911.0</ele>
        <time>2019-05-12T05:51:17Z</time>
      </trkpt>
      <trkpt lat="38.6058960" lon="-0.7908930">
        <ele>911.4</ele>
        <time>2019-05-12T05:51:19Z</time>
      </trkpt>
      <trkpt lat="38.6059120" lon="-0.7908800">
        <ele>911.8</ele>
        <time>2019-05-12T05:51:20Z</time>
      </trkpt>
      <trkpt lat="38.6059390" lon="-0.7908600">
        <ele>912.2</ele>
        <time>2019-05-12T05:51:22Z</time>
      </trkpt>
      <trkpt lat="38.6059460" lon="-0.7908400">
        <ele>912.2</ele>
        <time>2019-05-12T05:51:23Z</time>
      </trkpt>
      <trkpt lat="38.6059840" lon="-0.7908010">
        <ele>912.8</ele>
        <time>2019-05-12T05:51:26Z</time>
      </trkpt>
      <trkpt lat="38.6060410" lon="-0.7907540">
        <ele>913.2</ele>
        <time>2019-05-12T05:51:30Z</time>
      </trkpt>
      <trkpt lat="38.6060670" lon="-0.7907310">
        <ele>913.6</ele>
        <time>2019-05-12T05:51:32Z</time>
      </trkpt>
      <trkpt lat="38.6060810" lon="-0.7907180">
        <ele>913.8</ele>
        <time>2019-05-12T05:51:33Z</time>
      </trkpt>
      <trkpt lat="38.6061430" lon="-0.7906610">
        <ele>914.8</ele>
        <time>2019-05-12T05:51:38Z</time>
      </trkpt>
      <trkpt lat="38.6061730" lon="-0.7906340">
        <ele>915.2</ele>
        <time>2019-05-12T05:51:40Z</time>
      </trkpt>
      <trkpt lat="38.6062450" lon="-0.7905720">
        <ele>916.0</ele>
        <time>2019-05-12T05:51:45Z</time>
      </trkpt>
      <trkpt lat="38.6062560" lon="-0.7905560">
        <ele>916.4</ele>
        <time>2019-05-12T05:51:46Z</time>
      </trkpt>
      <trkpt lat="38.6063110" lon="-0.7905140">
        <ele>917.2</ele>
        <time>2019-05-12T05:51:50Z</time>
      </trkpt>
      <trkpt lat="38.6063500" lon="-0.7904780">
        <ele>918.0</ele>
        <time>2019-05-12T05:51:53Z</time>
      </trkpt>
      <trkpt lat="38.6063610" lon="-0.7904690">
        <ele>918.2</ele>
        <time>2019-05-12T05:51:54Z</time>
      </trkpt>
      <trkpt lat="38.6064070" lon="-0.7904350">
        <ele>918.8</ele>
        <time>2019-05-12T05:51:57Z</time>
      </trkpt>
      <trkpt lat="38.6064420" lon="-0.7904480">
        <ele>919.4</ele>
        <time>2019-05-12T05:51:59Z</time>
      </trkpt>
      <trkpt lat="38.6064620" lon="-0.7905360">
        <ele>920.4</ele>
        <time>2019-05-12T05:52:03Z</time>
      </trkpt>
      <trkpt lat="38.6064500" lon="-0.7905980">
        <ele>921.4</ele>
        <time>2019-05-12T05:52:06Z</time>
      </trkpt>
      <trkpt lat="38.6064330" lon="-0.7906710">
        <ele>922.6</ele>
        <time>2019-05-12T05:52:10Z</time>
      </trkpt>
      <trkpt lat="38.6064240" lon="-0.7907040">
        <ele>923.4</ele>
        <time>2019-05-12T05:52:12Z</time>
      </trkpt>
      <trkpt lat="38.6064140" lon="-0.7907370">
        <ele>924.0</ele>
        <time>2019-05-12T05:52:14Z</time>
      </trkpt>
      <trkpt lat="38.6063930" lon="-0.7908010">
        <ele>925.0</ele>
        <time>2019-05-12T05:52:18Z</time>
      </trkpt>
      <trkpt lat="38.6063860" lon="-0.7908190">
        <ele>925.4</ele>
        <time>2019-05-12T05:52:19Z</time>
      </trkpt>
      <trkpt lat="38.6063750" lon="-0.7908910">
        <ele>926.4</ele>
        <time>2019-05-12T05:52:23Z</time>
      </trkpt>
      <trkpt lat="38.6063630" lon="-0.7909270">
        <ele>927.0</ele>
        <time>2019-05-12T05:52:25Z</time>
      </trkpt>
      <trkpt lat="38.6063570" lon="-0.7909440">
        <ele>927.2</ele>
        <time>2019-05-12T05:52:26Z</time>
      </trkpt>
      <trkpt lat="38.6063480" lon="-0.7909820">
        <ele>927.8</ele>
        <time>2019-05-12T05:52:28Z</time>
      </trkpt>
      <trkpt lat="38.6063300" lon="-0.7910550">
        <ele>929.0</ele>
        <time>2019-05-12T05:52:32Z</time>
      </trkpt>
      <trkpt lat="38.6063270" lon="-0.7910740">
        <ele>929.4</ele>
        <time>2019-05-12T05:52:33Z</time>
      </trkpt>
      <trkpt lat="38.6063160" lon="-0.7911090">
        <ele>930.0</ele>
        <time>2019-05-12T05:52:35Z</time>
      </trkpt>
      <trkpt lat="38.6062940" lon="-0.7912030">
        <ele>931.2</ele>
        <time>2019-05-12T05:52:40Z</time>
      </trkpt>
      <trkpt lat="38.6062920" lon="-0.7912210">
        <ele>931.6</ele>
        <time>2019-05-12T05:52:41Z</time>
      </trkpt>
      <trkpt lat="38.6062760" lon="-0.7912910">
        <ele>932.2</ele>
        <time>2019-05-12T05:52:45Z</time>
      </trkpt>
      <trkpt lat="38.6062600" lon="-0.7913660">
        <ele>932.8</ele>
        <time>2019-05-12T05:52:49Z</time>
      </trkpt>
      <trkpt lat="38.6062590" lon="-0.7913990">
        <ele>933.2</ele>
        <time>2019-05-12T05:52:51Z</time>
      </trkpt>
      <trkpt lat="38.6062690" lon="-0.7915110">
        <ele>933.0</ele>
        <time>2019-05-12T05:52:57Z</time>
      </trkpt>
      <trkpt lat="38.6063450" lon="-0.7916690">
        <ele>932.4</ele>
        <time>2019-05-12T05:53:01Z</time>
      </trkpt>
      <trkpt lat="38.6063830" lon="-0.7917220">
        <ele>931.8</ele>
        <time>2019-05-12T05:53:02Z</time>
      </trkpt>
      <trkpt lat="38.6064420" lon="-0.7917740">
        <ele>930.8</ele>
        <time>2019-05-12T05:53:03Z</time>
      </trkpt>
      <trkpt lat="38.6065230" lon="-0.7918210">
        <ele>929.6</ele>
        <time>2019-05-12T05:53:04Z</time>
      </trkpt>
      <trkpt lat="38.6066110" lon="-0.7918690">
        <ele>928.0</ele>
        <time>2019-05-12T05:53:05Z</time>
      </trkpt>
      <trkpt lat="38.6067010" lon="-0.7919170">
        <ele>926.0</ele>
        <time>2019-05-12T05:53:06Z</time>
      </trkpt>
      <trkpt lat="38.6067990" lon="-0.7919700">
        <ele>923.8</ele>
        <time>2019-05-12T05:53:07Z</time>
      </trkpt>
      <trkpt lat="38.6068910" lon="-0.7920200">
        <ele>921.4</ele>
        <time>2019-05-12T05:53:08Z</time>
      </trkpt>
      <trkpt lat="38.6069790" lon="-0.7920730">
        <ele>919.4</ele>
        <time>2019-05-12T05:53:09Z</time>
      </trkpt>
      <trkpt lat="38.6070550" lon="-0.7921240">
        <ele>917.6</ele>
        <time>2019-05-12T05:53:10Z</time>
      </trkpt>
      <trkpt lat="38.6071130" lon="-0.7921750">
        <ele>916.4</ele>
        <time>2019-05-12T05:53:11Z</time>
      </trkpt>
      <trkpt lat="38.6071540" lon="-0.7922280">
        <ele>915.8</ele>
        <time>2019-05-12T05:53:12Z</time>
      </trkpt>
      <trkpt lat="38.6071610" lon="-0.7924030">
        <ele>916.2</ele>
        <time>2019-05-12T05:53:15Z</time>
      </trkpt>
      <trkpt lat="38.6071260" lon="-0.7924580">
        <ele>917.8</ele>
        <time>2019-05-12T05:53:17Z</time>
      </trkpt>
      <trkpt lat="38.6071100" lon="-0.7924810">
        <ele>918.4</ele>
        <time>2019-05-12T05:53:18Z</time>
      </trkpt>
      <trkpt lat="38.6070920" lon="-0.7925000">
        <ele>918.8</ele>
        <time>2019-05-12T05:53:19Z</time>
      </trkpt>
      <trkpt lat="38.6070360" lon="-0.7925430">
        <ele>920.2</ele>
        <time>2019-05-12T05:53:22Z</time>
      </trkpt>
      <trkpt lat="38.6069800" lon="-0.7925980">
        <ele>922.0</ele>
        <time>2019-05-12T05:53:25Z</time>
      </trkpt>
      <trkpt lat="38.6069250" lon="-0.7926530">
        <ele>923.0</ele>
        <time>2019-05-12T05:53:28Z</time>
      </trkpt>
      <trkpt lat="38.6068690" lon="-0.7927400">
        <ele>923.0</ele>
        <time>2019-05-12T05:53:31Z</time>
      </trkpt>
      <trkpt lat="38.6067620" lon="-0.7929820">
        <ele>923.0</ele>
        <time>2019-05-12T05:53:37Z</time>
      </trkpt>
      <trkpt lat="38.6067300" lon="-0.7931780">
        <ele>922.8</ele>
        <time>2019-05-12T05:53:41Z</time>
      </trkpt>
      <trkpt lat="38.6067220" lon="-0.7933060">
        <ele>922.4</ele>
        <time>2019-05-12T05:53:43Z</time>
      </trkpt>
      <trkpt lat="38.6067140" lon="-0.7934420">
        <ele>921.4</ele>
        <time>2019-05-12T05:53:45Z</time>
      </trkpt>
      <trkpt lat="38.6067430" lon="-0.7934870">
        <ele>920.8</ele>
        <time>2019-05-12T05:53:46Z</time>
      </trkpt>
      <trkpt lat="38.6067920" lon="-0.7935080">
        <ele>920.2</ele>
        <time>2019-05-12T05:53:47Z</time>
      </trkpt>
      <trkpt lat="38.6068490" lon="-0.7934930">
        <ele>919.4</ele>
        <time>2019-05-12T05:53:48Z</time>
      </trkpt>
      <trkpt lat="38.6069040" lon="-0.7934520">
        <ele>918.0</ele>
        <time>2019-05-12T05:53:49Z</time>
      </trkpt>
      <trkpt lat="38.6069640" lon="-0.7934110">
        <ele>917.0</ele>
        <time>2019-05-12T05:53:50Z</time>
      </trkpt>
      <trkpt lat="38.6070270" lon="-0.7933610">
        <ele>915.8</ele>
        <time>2019-05-12T05:53:51Z</time>
      </trkpt>
      <trkpt lat="38.6070960" lon="-0.7932920">
        <ele>914.8</ele>
        <time>2019-05-12T05:53:52Z</time>
      </trkpt>
      <trkpt lat="38.6072100" lon="-0.7931600">
        <ele>913.2</ele>
        <time>2019-05-12T05:53:54Z</time>
      </trkpt>
      <trkpt lat="38.6072480" lon="-0.7930870">
        <ele>912.4</ele>
        <time>2019-05-12T05:53:55Z</time>
      </trkpt>
      <trkpt lat="38.6073020" lon="-0.7930170">
        <ele>911.8</ele>
        <time>2019-05-12T05:53:56Z</time>
      </trkpt>
      <trkpt lat="38.6073650" lon="-0.7929490">
        <ele>910.8</ele>
        <time>2019-05-12T05:53:57Z</time>
      </trkpt>
      <trkpt lat="38.6074360" lon="-0.7928880">
        <ele>909.2</ele>
        <time>2019-05-12T05:53:58Z</time>
      </trkpt>
      <trkpt lat="38.6075010" lon="-0.7928270">
        <ele>907.4</ele>
        <time>2019-05-12T05:53:59Z</time>
      </trkpt>
      <trkpt lat="38.6075580" lon="-0.7927630">
        <ele>905.6</ele>
        <time>2019-05-12T05:54:00Z</time>
      </trkpt>
      <trkpt lat="38.6076040" lon="-0.7926810">
        <ele>904.6</ele>
        <time>2019-05-12T05:54:01Z</time>
      </trkpt>
      <trkpt lat="38.6076360" lon="-0.7925850">
        <ele>903.8</ele>
        <time>2019-05-12T05:54:02Z</time>
      </trkpt>
      <trkpt lat="38.6076990" lon="-0.7923660">
        <ele>901.6</ele>
        <time>2019-05-12T05:54:04Z</time>
      </trkpt>
      <trkpt lat="38.6077380" lon="-0.7922480">
        <ele>900.4</ele>
        <time>2019-05-12T05:54:05Z</time>
      </trkpt>
      <trkpt lat="38.6077810" lon="-0.7921450">
        <ele>898.8</ele>
        <time>2019-05-12T05:54:06Z</time>
      </trkpt>
      <trkpt lat="38.6078240" lon="-0.7920560">
        <ele>897.8</ele>
        <time>2019-05-12T05:54:07Z</time>
      </trkpt>
      <trkpt lat="38.6078780" lon="-0.7918840">
        <ele>896.4</ele>
        <time>2019-05-12T05:54:09Z</time>
      </trkpt>
      <trkpt lat="38.6079380" lon="-0.7915240">
        <ele>895.2</ele>
        <time>2019-05-12T05:54:13Z</time>
      </trkpt>
      <trkpt lat="38.6080540" lon="-0.7913760">
        <ele>893.6</ele>
        <time>2019-05-12T05:54:15Z</time>
      </trkpt>
      <trkpt lat="38.6081280" lon="-0.7913010">
        <ele>892.6</ele>
        <time>2019-05-12T05:54:16Z</time>
      </trkpt>
      <trkpt lat="38.6082000" lon="-0.7912180">
        <ele>891.6</ele>
        <time>2019-05-12T05:54:17Z</time>
      </trkpt>
      <trkpt lat="38.6083410" lon="-0.7910410">
        <ele>889.6</ele>
        <time>2019-05-12T05:54:19Z</time>
      </trkpt>
      <trkpt lat="38.6084700" lon="-0.7908540">
        <ele>888.8</ele>
        <time>2019-05-12T05:54:21Z</time>
      </trkpt>
      <trkpt lat="38.6085440" lon="-0.7907740">
        <ele>888.4</ele>
        <time>2019-05-12T05:54:22Z</time>
      </trkpt>
      <trkpt lat="38.6087160" lon="-0.7906600">
        <ele>887.8</ele>
        <time>2019-05-12T05:54:24Z</time>
      </trkpt>
      <trkpt lat="38.6088800" lon="-0.7905470">
        <ele>888.0</ele>
        <time>2019-05-12T05:54:26Z</time>
      </trkpt>
      <trkpt lat="38.6090080" lon="-0.7903910">
        <ele>888.6</ele>
        <time>2019-05-12T05:54:28Z</time>
      </trkpt>
      <trkpt lat="38.6091200" lon="-0.7900880">
        <ele>888.0</ele>
        <time>2019-05-12T05:54:31Z</time>
      </trkpt>
      <trkpt lat="38.6091630" lon="-0.7899940">
        <ele>887.2</ele>
        <time>2019-05-12T05:54:32Z</time>
      </trkpt>
      <trkpt lat="38.6092690" lon="-0.7898510">
        <ele>886.4</ele>
        <time>2019-05-12T05:54:34Z</time>
      </trkpt>
      <trkpt lat="38.6093420" lon="-0.7898110">
        <ele>886.2</ele>
        <time>2019-05-12T05:54:35Z</time>
      </trkpt>
      <trkpt lat="38.6095030" lon="-0.7897440">
        <ele>885.4</ele>
        <time>2019-05-12T05:54:37Z</time>
      </trkpt>
      <trkpt lat="38.6095910" lon="-0.7897120">
        <ele>884.8</ele>
        <time>2019-05-12T05:54:38Z</time>
      </trkpt>
      <trkpt lat="38.6096810" lon="-0.7896770">
        <ele>883.0</ele>
        <time>2019-05-12T05:54:39Z</time>
      </trkpt>
      <trkpt lat="38.6097730" lon="-0.7896420">
        <ele>882.0</ele>
        <time>2019-05-12T05:54:40Z</time>
      </trkpt>
      <trkpt lat="38.6098560" lon="-0.7896030">
        <ele>880.8</ele>
        <time>2019-05-12T05:54:41Z</time>
      </trkpt>
      <trkpt lat="38.6099370" lon="-0.7895600">
        <ele>879.6</ele>
        <time>2019-05-12T05:54:42Z</time>
      </trkpt>
      <trkpt lat="38.6100140" lon="-0.7895010">
        <ele>878.4</ele>
        <time>2019-05-12T05:54:43Z</time>
      </trkpt>
      <trkpt lat="38.6101530" lon="-0.7893510">
        <ele>876.6</ele>
        <time>2019-05-12T05:54:45Z</time>
      </trkpt>
      <trkpt lat="38.6102170" lon="-0.7892620">
        <ele>875.8</ele>
        <time>2019-05-12T05:54:46Z</time>
      </trkpt>
      <trkpt lat="38.6102720" lon="-0.7891780">
        <ele>874.8</ele>
        <time>2019-05-12T05:54:47Z</time>
      </trkpt>
      <trkpt lat="38.6104050" lon="-0.7890540">
        <ele>873.0</ele>
        <time>2019-05-12T05:54:49Z</time>
      </trkpt>
      <trkpt lat="38.6105770" lon="-0.7890240">
        <ele>871.2</ele>
        <time>2019-05-12T05:54:51Z</time>
      </trkpt>
      <trkpt lat="38.6106600" lon="-0.7890100">
        <ele>870.4</ele>
        <time>2019-05-12T05:54:52Z</time>
      </trkpt>
      <trkpt lat="38.6107350" lon="-0.7889650">
        <ele>869.8</ele>
        <time>2019-05-12T05:54:53Z</time>
      </trkpt>
      <trkpt lat="38.6108580" lon="-0.7888120">
        <ele>868.8</ele>
        <time>2019-05-12T05:54:55Z</time>
      </trkpt>
      <trkpt lat="38.6109220" lon="-0.7887240">
        <ele>868.0</ele>
        <time>2019-05-12T05:54:56Z</time>
      </trkpt>
      <trkpt lat="38.6110430" lon="-0.7885350">
        <ele>866.0</ele>
        <time>2019-05-12T05:54:58Z</time>
      </trkpt>
      <trkpt lat="38.6111630" lon="-0.7883310">
        <ele>864.0</ele>
        <time>2019-05-12T05:55:00Z</time>
      </trkpt>
      <trkpt lat="38.6113020" lon="-0.7881250">
        <ele>862.2</ele>
        <time>2019-05-12T05:55:02Z</time>
      </trkpt>
      <trkpt lat="38.6114570" lon="-0.7879260">
        <ele>858.8</ele>
        <time>2019-05-12T05:55:04Z</time>
      </trkpt>
      <trkpt lat="38.6115920" lon="-0.7877530">
        <ele>858.0</ele>
        <time>2019-05-12T05:55:06Z</time>
      </trkpt>
      <trkpt lat="38.6116370" lon="-0.7876430">
        <ele>857.8</ele>
        <time>2019-05-12T05:55:07Z</time>
      </trkpt>
      <trkpt lat="38.6117000" lon="-0.7874230">
        <ele>856.2</ele>
        <time>2019-05-12T05:55:09Z</time>
      </trkpt>
      <trkpt lat="38.6117080" lon="-0.7873070">
        <ele>855.4</ele>
        <time>2019-05-12T05:55:10Z</time>
      </trkpt>
      <trkpt lat="38.6117020" lon="-0.7871930">
        <ele>854.4</ele>
        <time>2019-05-12T05:55:11Z</time>
      </trkpt>
      <trkpt lat="38.6116400" lon="-0.7869670">
        <ele>852.4</ele>
        <time>2019-05-12T05:55:13Z</time>
      </trkpt>
      <trkpt lat="38.6115570" lon="-0.7867710">
        <ele>850.6</ele>
        <time>2019-05-12T05:55:15Z</time>
      </trkpt>
      <trkpt lat="38.6115410" lon="-0.7866820">
        <ele>850.4</ele>
        <time>2019-05-12T05:55:16Z</time>
      </trkpt>
      <trkpt lat="38.6116320" lon="-0.7865790">
        <ele>850.4</ele>
        <time>2019-05-12T05:55:18Z</time>
      </trkpt>
      <trkpt lat="38.6117870" lon="-0.7865030">
        <ele>849.6</ele>
        <time>2019-05-12T05:55:20Z</time>
      </trkpt>
      <trkpt lat="38.6119780" lon="-0.7864040">
        <ele>847.4</ele>
        <time>2019-05-12T05:55:22Z</time>
      </trkpt>
      <trkpt lat="38.6120790" lon="-0.7863350">
        <ele>845.6</ele>
        <time>2019-05-12T05:55:23Z</time>
      </trkpt>
      <trkpt lat="38.6121710" lon="-0.7862520">
        <ele>843.6</ele>
        <time>2019-05-12T05:55:24Z</time>
      </trkpt>
      <trkpt lat="38.6122520" lon="-0.7861510">
        <ele>842.0</ele>
        <time>2019-05-12T05:55:25Z</time>
      </trkpt>
      <trkpt lat="38.6123280" lon="-0.7860510">
        <ele>840.6</ele>
        <time>2019-05-12T05:55:26Z</time>
      </trkpt>
      <trkpt lat="38.6124410" lon="-0.7858510">
        <ele>839.6</ele>
        <time>2019-05-12T05:55:28Z</time>
      </trkpt>
      <trkpt lat="38.6124940" lon="-0.7857520">
        <ele>839.8</ele>
        <time>2019-05-12T05:55:29Z</time>
      </trkpt>
      <trkpt lat="38.6126230" lon="-0.7854700">
        <ele>840.2</ele>
        <time>2019-05-12T05:55:32Z</time>
      </trkpt>
      <trkpt lat="38.6126890" lon="-0.7852740">
        <ele>840.4</ele>
        <time>2019-05-12T05:55:34Z</time>
      </trkpt>
      <trkpt lat="38.6127120" lon="-0.7851680">
        <ele>840.4</ele>
        <time>2019-05-12T05:55:35Z</time>
      </trkpt>
      <trkpt lat="38.6127470" lon="-0.7848340">
        <ele>839.4</ele>
        <time>2019-05-12T05:55:38Z</time>
      </trkpt>
      <trkpt lat="38.6127840" lon="-0.7846020">
        <ele>837.8</ele>
        <time>2019-05-12T05:55:40Z</time>
      </trkpt>
      <trkpt lat="38.6128730" lon="-0.7844120">
        <ele>837.2</ele>
        <time>2019-05-12T05:55:42Z</time>
      </trkpt>
      <trkpt lat="38.6130610" lon="-0.7839870">
        <ele>837.6</ele>
        <time>2019-05-12T05:55:47Z</time>
      </trkpt>
      <trkpt lat="38.6131390" lon="-0.7838040">
        <ele>836.8</ele>
        <time>2019-05-12T05:55:49Z</time>
      </trkpt>
      <trkpt lat="38.6132880" lon="-0.7834380">
        <ele>835.8</ele>
        <time>2019-05-12T05:55:53Z</time>
      </trkpt>
      <trkpt lat="38.6133270" lon="-0.7833400">
        <ele>835.2</ele>
        <time>2019-05-12T05:55:54Z</time>
      </trkpt>
      <trkpt lat="38.6133700" lon="-0.7832370">
        <ele>834.6</ele>
        <time>2019-05-12T05:55:55Z</time>
      </trkpt>
      <trkpt lat="38.6134640" lon="-0.7830380">
        <ele>833.2</ele>
        <time>2019-05-12T05:55:57Z</time>
      </trkpt>
      <trkpt lat="38.6135810" lon="-0.7828670">
        <ele>831.6</ele>
        <time>2019-05-12T05:55:59Z</time>
      </trkpt>
      <trkpt lat="38.6137120" lon="-0.7827330">
        <ele>830.2</ele>
        <time>2019-05-12T05:56:01Z</time>
      </trkpt>
      <trkpt lat="38.6138120" lon="-0.7825980">
        <ele>829.4</ele>
        <time>2019-05-12T05:56:03Z</time>
      </trkpt>
      <trkpt lat="38.6138550" lon="-0.7823280">
        <ele>828.8</ele>
        <time>2019-05-12T05:56:06Z</time>
      </trkpt>
      <trkpt lat="38.6138640" lon="-0.7822270">
        <ele>828.4</ele>
        <time>2019-05-12T05:56:07Z</time>
      </trkpt>
      <trkpt lat="38.6138890" lon="-0.7821360">
        <ele>827.8</ele>
        <time>2019-05-12T05:56:08Z</time>
      </trkpt>
      <trkpt lat="38.6139920" lon="-0.7820090">
        <ele>827.0</ele>
        <time>2019-05-12T05:56:10Z</time>
      </trkpt>
      <trkpt lat="38.6141650" lon="-0.7817520">
        <ele>827.0</ele>
        <time>2019-05-12T05:56:14Z</time>
      </trkpt>
      <trkpt lat="38.6142300" lon="-0.7815710">
        <ele>826.4</ele>
        <time>2019-05-12T05:56:16Z</time>
      </trkpt>
      <trkpt lat="38.6142970" lon="-0.7814740">
        <ele>825.6</ele>
        <time>2019-05-12T05:56:18Z</time>
      </trkpt>
      <trkpt lat="38.6143620" lon="-0.7814380">
        <ele>826.0</ele>
        <time>2019-05-12T05:56:21Z</time>
      </trkpt>
      <trkpt lat="38.6143980" lon="-0.7813870">
        <ele>825.8</ele>
        <time>2019-05-12T05:56:23Z</time>
      </trkpt>
      <trkpt lat="38.6144150" lon="-0.7813290">
        <ele>825.2</ele>
        <time>2019-05-12T05:56:24Z</time>
      </trkpt>
      <trkpt lat="38.6144400" lon="-0.7812650">
        <ele>824.8</ele>
        <time>2019-05-12T05:56:25Z</time>
      </trkpt>
      <trkpt lat="38.6144650" lon="-0.7811610">
        <ele>824.2</ele>
        <time>2019-05-12T05:56:27Z</time>
      </trkpt>
      <trkpt lat="38.6144550" lon="-0.7811320">
        <ele>823.6</ele>
        <time>2019-05-12T05:56:28Z</time>
      </trkpt>
      <trkpt lat="38.6144710" lon="-0.7810560">
        <ele>823.2</ele>
        <time>2019-05-12T05:56:30Z</time>
      </trkpt>
      <trkpt lat="38.6145080" lon="-0.7810440">
        <ele>822.8</ele>
        <time>2019-05-12T05:56:31Z</time>
      </trkpt>
      <trkpt lat="38.6145600" lon="-0.7810280">
        <ele>822.0</ele>
        <time>2019-05-12T05:56:33Z</time>
      </trkpt>
      <trkpt lat="38.6146050" lon="-0.7809620">
        <ele>821.2</ele>
        <time>2019-05-12T05:56:35Z</time>
      </trkpt>
      <trkpt lat="38.6146250" lon="-0.7809100">
        <ele>820.6</ele>
        <time>2019-05-12T05:56:36Z</time>
      </trkpt>
      <trkpt lat="38.6146590" lon="-0.7808160">
        <ele>819.6</ele>
        <time>2019-05-12T05:56:38Z</time>
      </trkpt>
      <trkpt lat="38.6146700" lon="-0.7807650">
        <ele>819.2</ele>
        <time>2019-05-12T05:56:39Z</time>
      </trkpt>
      <trkpt lat="38.6147060" lon="-0.7807170">
        <ele>818.6</ele>
        <time>2019-05-12T05:56:41Z</time>
      </trkpt>
      <trkpt lat="38.6147360" lon="-0.7806990">
        <ele>818.8</ele>
        <time>2019-05-12T05:56:42Z</time>
      </trkpt>
      <trkpt lat="38.6148450" lon="-0.7805220">
        <ele>818.8</ele>
        <time>2019-05-12T05:56:46Z</time>
      </trkpt>
      <trkpt lat="38.6148730" lon="-0.7804530">
        <ele>818.4</ele>
        <time>2019-05-12T05:56:47Z</time>
      </trkpt>
      <trkpt lat="38.6149150" lon="-0.7804110">
        <ele>817.8</ele>
        <time>2019-05-12T05:56:48Z</time>
      </trkpt>
      <trkpt lat="38.6149570" lon="-0.7803850">
        <ele>817.6</ele>
        <time>2019-05-12T05:56:49Z</time>
      </trkpt>
      <trkpt lat="38.6149960" lon="-0.7803340">
        <ele>817.2</ele>
        <time>2019-05-12T05:56:50Z</time>
      </trkpt>
      <trkpt lat="38.6150690" lon="-0.7802650">
        <ele>816.6</ele>
        <time>2019-05-12T05:56:52Z</time>
      </trkpt>
      <trkpt lat="38.6150980" lon="-0.7802230">
        <ele>816.4</ele>
        <time>2019-05-12T05:56:53Z</time>
      </trkpt>
      <trkpt lat="38.6151390" lon="-0.7801710">
        <ele>815.8</ele>
        <time>2019-05-12T05:56:54Z</time>
      </trkpt>
      <trkpt lat="38.6152160" lon="-0.7800830">
        <ele>814.8</ele>
        <time>2019-05-12T05:56:56Z</time>
      </trkpt>
      <trkpt lat="38.6152760" lon="-0.7800420">
        <ele>814.4</ele>
        <time>2019-05-12T05:56:57Z</time>
      </trkpt>
      <trkpt lat="38.6153830" lon="-0.7799590">
        <ele>813.4</ele>
        <time>2019-05-12T05:56:59Z</time>
      </trkpt>
      <trkpt lat="38.6154250" lon="-0.7799380">
        <ele>812.8</ele>
        <time>2019-05-12T05:57:00Z</time>
      </trkpt>
      <trkpt lat="38.6155190" lon="-0.7798730">
        <ele>812.0</ele>
        <time>2019-05-12T05:57:02Z</time>
      </trkpt>
      <trkpt lat="38.6155590" lon="-0.7797900">
        <ele>811.0</ele>
        <time>2019-05-12T05:57:04Z</time>
      </trkpt>
      <trkpt lat="38.6155840" lon="-0.7797380">
        <ele>810.4</ele>
        <time>2019-05-12T05:57:05Z</time>
      </trkpt>
      <trkpt lat="38.6156210" lon="-0.7796840">
        <ele>809.8</ele>
        <time>2019-05-12T05:57:06Z</time>
      </trkpt>
      <trkpt lat="38.6156760" lon="-0.7795860">
        <ele>808.4</ele>
        <time>2019-05-12T05:57:08Z</time>
      </trkpt>
      <trkpt lat="38.6157120" lon="-0.7795460">
        <ele>807.6</ele>
        <time>2019-05-12T05:57:09Z</time>
      </trkpt>
      <trkpt lat="38.6157460" lon="-0.7795140">
        <ele>805.6</ele>
        <time>2019-05-12T05:57:10Z</time>
      </trkpt>
      <trkpt lat="38.6158130" lon="-0.7794570">
        <ele>804.0</ele>
        <time>2019-05-12T05:57:12Z</time>
      </trkpt>
      <trkpt lat="38.6158590" lon="-0.7793970">
        <ele>803.2</ele>
        <time>2019-05-12T05:57:13Z</time>
      </trkpt>
      <trkpt lat="38.6159040" lon="-0.7793450">
        <ele>802.2</ele>
        <time>2019-05-12T05:57:14Z</time>
      </trkpt>
      <trkpt lat="38.6159270" lon="-0.7792860">
        <ele>801.2</ele>
        <time>2019-05-12T05:57:15Z</time>
      </trkpt>
      <trkpt lat="38.6159530" lon="-0.7792330">
        <ele>800.4</ele>
        <time>2019-05-12T05:57:16Z</time>
      </trkpt>
      <trkpt lat="38.6159980" lon="-0.7791980">
        <ele>799.8</ele>
        <time>2019-05-12T05:57:17Z</time>
      </trkpt>
      <trkpt lat="38.6160340" lon="-0.7791690">
        <ele>799.4</ele>
        <time>2019-05-12T05:57:18Z</time>
      </trkpt>
      <trkpt lat="38.6161150" lon="-0.7791050">
        <ele>798.4</ele>
        <time>2019-05-12T05:57:20Z</time>
      </trkpt>
      <trkpt lat="38.6161560" lon="-0.7790590">
        <ele>797.4</ele>
        <time>2019-05-12T05:57:21Z</time>
      </trkpt>
      <trkpt lat="38.6161950" lon="-0.7790020">
        <ele>796.6</ele>
        <time>2019-05-12T05:57:22Z</time>
      </trkpt>
      <trkpt lat="38.6162320" lon="-0.7789180">
        <ele>795.4</ele>
        <time>2019-05-12T05:57:23Z</time>
      </trkpt>
      <trkpt lat="38.6162740" lon="-0.7788560">
        <ele>794.2</ele>
        <time>2019-05-12T05:57:24Z</time>
      </trkpt>
      <trkpt lat="38.6163140" lon="-0.7788140">
        <ele>793.0</ele>
        <time>2019-05-12T05:57:25Z</time>
      </trkpt>
      <trkpt lat="38.6163890" lon="-0.7787770">
        <ele>792.0</ele>
        <time>2019-05-12T05:57:27Z</time>
      </trkpt>
      <trkpt lat="38.6164300" lon="-0.7787720">
        <ele>791.4</ele>
        <time>2019-05-12T05:57:28Z</time>
      </trkpt>
      <trkpt lat="38.6164820" lon="-0.7787800">
        <ele>790.6</ele>
        <time>2019-05-12T05:57:29Z</time>
      </trkpt>
      <trkpt lat="38.6165640" lon="-0.7787530">
        <ele>789.0</ele>
        <time>2019-05-12T05:57:31Z</time>
      </trkpt>
      <trkpt lat="38.6165970" lon="-0.7787140">
        <ele>788.0</ele>
        <time>2019-05-12T05:57:32Z</time>
      </trkpt>
      <trkpt lat="38.6166270" lon="-0.7786700">
        <ele>786.8</ele>
        <time>2019-05-12T05:57:33Z</time>
      </trkpt>
      <trkpt lat="38.6166590" lon="-0.7786320">
        <ele>785.8</ele>
        <time>2019-05-12T05:57:34Z</time>
      </trkpt>
      <trkpt lat="38.6166820" lon="-0.7786080">
        <ele>784.0</ele>
        <time>2019-05-12T05:57:35Z</time>
      </trkpt>
      <trkpt lat="38.6167040" lon="-0.7786020">
        <ele>783.4</ele>
        <time>2019-05-12T05:57:36Z</time>
      </trkpt>
      <trkpt lat="38.6167250" lon="-0.7785990">
        <ele>783.0</ele>
        <time>2019-05-12T05:57:37Z</time>
      </trkpt>
      <trkpt lat="38.6167700" lon="-0.7785710">
        <ele>782.2</ele>
        <time>2019-05-12T05:57:39Z</time>
      </trkpt>
      <trkpt lat="38.6168030" lon="-0.7785700">
        <ele>781.6</ele>
        <time>2019-05-12T05:57:40Z</time>
      </trkpt>
      <trkpt lat="38.6169110" lon="-0.7785330">
        <ele>779.6</ele>
        <time>2019-05-12T05:57:42Z</time>
      </trkpt>
      <trkpt lat="38.6169520" lon="-0.7785090">
        <ele>778.6</ele>
        <time>2019-05-12T05:57:43Z</time>
      </trkpt>
      <trkpt lat="38.6169900" lon="-0.7784960">
        <ele>778.0</ele>
        <time>2019-05-12T05:57:44Z</time>
      </trkpt>
      <trkpt lat="38.6170240" lon="-0.7784640">
        <ele>777.4</ele>
        <time>2019-05-12T05:57:45Z</time>
      </trkpt>
      <trkpt lat="38.6170580" lon="-0.7784280">
        <ele>776.6</ele>
        <time>2019-05-12T05:57:46Z</time>
      </trkpt>
      <trkpt lat="38.6171280" lon="-0.7783640">
        <ele>775.0</ele>
        <time>2019-05-12T05:57:48Z</time>
      </trkpt>
      <trkpt lat="38.6171850" lon="-0.7783040">
        <ele>772.8</ele>
        <time>2019-05-12T05:57:50Z</time>
      </trkpt>
      <trkpt lat="38.6172290" lon="-0.7782310">
        <ele>771.2</ele>
        <time>2019-05-12T05:57:52Z</time>
      </trkpt>
      <trkpt lat="38.6172620" lon="-0.7781840">
        <ele>770.4</ele>
        <time>2019-05-12T05:57:53Z</time>
      </trkpt>
      <trkpt lat="38.6173040" lon="-0.7781320">
        <ele>769.6</ele>
        <time>2019-05-12T05:57:54Z</time>
      </trkpt>
      <trkpt lat="38.6174130" lon="-0.7780660">
        <ele>768.0</ele>
        <time>2019-05-12T05:57:56Z</time>
      </trkpt>
      <trkpt lat="38.6174800" lon="-0.7780770">
        <ele>767.4</ele>
        <time>2019-05-12T05:57:57Z</time>
      </trkpt>
      <trkpt lat="38.6175370" lon="-0.7780760">
        <ele>767.0</ele>
        <time>2019-05-12T05:57:58Z</time>
      </trkpt>
      <trkpt lat="38.6175900" lon="-0.7780520">
        <ele>766.4</ele>
        <time>2019-05-12T05:57:59Z</time>
      </trkpt>
      <trkpt lat="38.6176400" lon="-0.7780040">
        <ele>766.0</ele>
        <time>2019-05-12T05:58:00Z</time>
      </trkpt>
      <trkpt lat="38.6177060" lon="-0.7779670">
        <ele>764.8</ele>
        <time>2019-05-12T05:58:01Z</time>
      </trkpt>
      <trkpt lat="38.6178300" lon="-0.7779730">
        <ele>764.2</ele>
        <time>2019-05-12T05:58:03Z</time>
      </trkpt>
      <trkpt lat="38.6179720" lon="-0.7779350">
        <ele>763.4</ele>
        <time>2019-05-12T05:58:05Z</time>
      </trkpt>
      <trkpt lat="38.6181300" lon="-0.7778890">
        <ele>761.6</ele>
        <time>2019-05-12T05:58:07Z</time>
      </trkpt>
      <trkpt lat="38.6182150" lon="-0.7778730">
        <ele>760.4</ele>
        <time>2019-05-12T05:58:08Z</time>
      </trkpt>
      <trkpt lat="38.6182930" lon="-0.7778710">
        <ele>759.4</ele>
        <time>2019-05-12T05:58:09Z</time>
      </trkpt>
      <trkpt lat="38.6183560" lon="-0.7778780">
        <ele>759.0</ele>
        <time>2019-05-12T05:58:10Z</time>
      </trkpt>
      <trkpt lat="38.6184250" lon="-0.7778600">
        <ele>758.6</ele>
        <time>2019-05-12T05:58:11Z</time>
      </trkpt>
      <trkpt lat="38.6184950" lon="-0.7778040">
        <ele>757.8</ele>
        <time>2019-05-12T05:58:12Z</time>
      </trkpt>
      <trkpt lat="38.6185680" lon="-0.7777470">
        <ele>756.8</ele>
        <time>2019-05-12T05:58:13Z</time>
      </trkpt>
      <trkpt lat="38.6186130" lon="-0.7777120">
        <ele>755.6</ele>
        <time>2019-05-12T05:58:14Z</time>
      </trkpt>
      <trkpt lat="38.6186540" lon="-0.7776910">
        <ele>754.4</ele>
        <time>2019-05-12T05:58:16Z</time>
      </trkpt>
      <trkpt lat="38.6186850" lon="-0.7776680">
        <ele>753.4</ele>
        <time>2019-05-12T06:02:08Z</time>
      </trkpt>
      <trkpt lat="38.6187320" lon="-0.7776390">
        <ele>753.0</ele>
        <time>2019-05-12T06:02:10Z</time>
      </trkpt>
      <trkpt lat="38.6187890" lon="-0.7776040">
        <ele>752.0</ele>
        <time>2019-05-12T06:02:12Z</time>
      </trkpt>
      <trkpt lat="38.6188240" lon="-0.7775840">
        <ele>751.4</ele>
        <time>2019-05-12T06:02:13Z</time>
      </trkpt>
      <trkpt lat="38.6188970" lon="-0.7775500">
        <ele>750.6</ele>
        <time>2019-05-12T06:02:15Z</time>
      </trkpt>
      <trkpt lat="38.6189790" lon="-0.7774980">
        <ele>749.4</ele>
        <time>2019-05-12T06:02:17Z</time>
      </trkpt>
      <trkpt lat="38.6190680" lon="-0.7774330">
        <ele>748.2</ele>
        <time>2019-05-12T06:02:19Z</time>
      </trkpt>
      <trkpt lat="38.6191110" lon="-0.7773900">
        <ele>747.6</ele>
        <time>2019-05-12T06:02:20Z</time>
      </trkpt>
      <trkpt lat="38.6191540" lon="-0.7773430">
        <ele>747.0</ele>
        <time>2019-05-12T06:02:21Z</time>
      </trkpt>
      <trkpt lat="38.6192420" lon="-0.7772100">
        <ele>745.2</ele>
        <time>2019-05-12T06:02:23Z</time>
      </trkpt>
      <trkpt lat="38.6192840" lon="-0.7771390">
        <ele>744.0</ele>
        <time>2019-05-12T06:02:24Z</time>
      </trkpt>
      <trkpt lat="38.6193230" lon="-0.7770670">
        <ele>742.6</ele>
        <time>2019-05-12T06:02:25Z</time>
      </trkpt>
      <trkpt lat="38.6194100" lon="-0.7768970">
        <ele>740.8</ele>
        <time>2019-05-12T06:02:27Z</time>
      </trkpt>
      <trkpt lat="38.6194570" lon="-0.7768000">
        <ele>739.6</ele>
        <time>2019-05-12T06:02:28Z</time>
      </trkpt>
      <trkpt lat="38.6195040" lon="-0.7767100">
        <ele>738.4</ele>
        <time>2019-05-12T06:02:29Z</time>
      </trkpt>
      <trkpt lat="38.6195640" lon="-0.7766340">
        <ele>737.4</ele>
        <time>2019-05-12T06:02:30Z</time>
      </trkpt>
      <trkpt lat="38.6196290" lon="-0.7765750">
        <ele>736.8</ele>
        <time>2019-05-12T06:02:31Z</time>
      </trkpt>
      <trkpt lat="38.6196930" lon="-0.7765220">
        <ele>736.6</ele>
        <time>2019-05-12T06:02:32Z</time>
      </trkpt>
      <trkpt lat="38.6200820" lon="-0.7762350">
        <ele>735.4</ele>
        <time>2019-05-12T06:02:38Z</time>
      </trkpt>
      <trkpt lat="38.6202880" lon="-0.7760770">
        <ele>734.0</ele>
        <time>2019-05-12T06:02:41Z</time>
      </trkpt>
      <trkpt lat="38.6204310" lon="-0.7759630">
        <ele>732.8</ele>
        <time>2019-05-12T06:02:43Z</time>
      </trkpt>
      <trkpt lat="38.6205060" lon="-0.7759040">
        <ele>732.2</ele>
        <time>2019-05-12T06:02:44Z</time>
      </trkpt>
      <trkpt lat="38.6205830" lon="-0.7758410">
        <ele>731.6</ele>
        <time>2019-05-12T06:02:45Z</time>
      </trkpt>
      <trkpt lat="38.6207420" lon="-0.7757050">
        <ele>730.4</ele>
        <time>2019-05-12T06:02:47Z</time>
      </trkpt>
      <trkpt lat="38.6209190" lon="-0.7755810">
        <ele>728.8</ele>
        <time>2019-05-12T06:02:49Z</time>
      </trkpt>
      <trkpt lat="38.6211100" lon="-0.7754750">
        <ele>727.8</ele>
        <time>2019-05-12T06:02:51Z</time>
      </trkpt>
      <trkpt lat="38.6213060" lon="-0.7753780">
        <ele>726.2</ele>
        <time>2019-05-12T06:02:53Z</time>
      </trkpt>
      <trkpt lat="38.6214070" lon="-0.7753300">
        <ele>725.6</ele>
        <time>2019-05-12T06:02:54Z</time>
      </trkpt>
      <trkpt lat="38.6215090" lon="-0.7752860">
        <ele>724.8</ele>
        <time>2019-05-12T06:02:55Z</time>
      </trkpt>
      <trkpt lat="38.6217040" lon="-0.7751860">
        <ele>722.6</ele>
        <time>2019-05-12T06:02:57Z</time>
      </trkpt>
      <trkpt lat="38.6218940" lon="-0.7750810">
        <ele>721.2</ele>
        <time>2019-05-12T06:02:59Z</time>
      </trkpt>
      <trkpt lat="38.6219840" lon="-0.7750230">
        <ele>720.6</ele>
        <time>2019-05-12T06:03:00Z</time>
      </trkpt>
      <trkpt lat="38.6220740" lon="-0.7749620">
        <ele>719.6</ele>
        <time>2019-05-12T06:03:01Z</time>
      </trkpt>
      <trkpt lat="38.6222450" lon="-0.7748180">
        <ele>718.2</ele>
        <time>2019-05-12T06:03:03Z</time>
      </trkpt>
      <trkpt lat="38.6224060" lon="-0.7746330">
        <ele>716.8</ele>
        <time>2019-05-12T06:03:05Z</time>
      </trkpt>
      <trkpt lat="38.6225510" lon="-0.7744680">
        <ele>715.2</ele>
        <time>2019-05-12T06:03:07Z</time>
      </trkpt>
      <trkpt lat="38.6226350" lon="-0.7744100">
        <ele>714.4</ele>
        <time>2019-05-12T06:03:08Z</time>
      </trkpt>
      <trkpt lat="38.6227350" lon="-0.7743760">
        <ele>713.8</ele>
        <time>2019-05-12T06:03:09Z</time>
      </trkpt>
      <trkpt lat="38.6229600" lon="-0.7743590">
        <ele>712.0</ele>
        <time>2019-05-12T06:03:11Z</time>
      </trkpt>
      <trkpt lat="38.6230710" lon="-0.7743400">
        <ele>711.0</ele>
        <time>2019-05-12T06:03:12Z</time>
      </trkpt>
      <trkpt lat="38.6231820" lon="-0.7743040">
        <ele>710.0</ele>
        <time>2019-05-12T06:03:13Z</time>
      </trkpt>
      <trkpt lat="38.6233970" lon="-0.7741920">
        <ele>708.6</ele>
        <time>2019-05-12T06:03:15Z</time>
      </trkpt>
      <trkpt lat="38.6235970" lon="-0.7740540">
        <ele>706.6</ele>
        <time>2019-05-12T06:03:17Z</time>
      </trkpt>
      <trkpt lat="38.6236940" lon="-0.7739790">
        <ele>705.4</ele>
        <time>2019-05-12T06:03:18Z</time>
      </trkpt>
      <trkpt lat="38.6237900" lon="-0.7739010">
        <ele>704.2</ele>
        <time>2019-05-12T06:03:19Z</time>
      </trkpt>
      <trkpt lat="38.6238860" lon="-0.7738270">
        <ele>703.2</ele>
        <time>2019-05-12T06:03:20Z</time>
      </trkpt>
      <trkpt lat="38.6240820" lon="-0.7737190">
        <ele>701.2</ele>
        <time>2019-05-12T06:03:22Z</time>
      </trkpt>
      <trkpt lat="38.6242520" lon="-0.7736720">
        <ele>700.4</ele>
        <time>2019-05-12T06:03:24Z</time>
      </trkpt>
      <trkpt lat="38.6244000" lon="-0.7736100">
        <ele>699.8</ele>
        <time>2019-05-12T06:03:26Z</time>
      </trkpt>
      <trkpt lat="38.6244630" lon="-0.7735470">
        <ele>699.8</ele>
        <time>2019-05-12T06:03:27Z</time>
      </trkpt>
      <trkpt lat="38.6246050" lon="-0.7733310">
        <ele>699.8</ele>
        <time>2019-05-12T06:03:30Z</time>
      </trkpt>
      <trkpt lat="38.6246700" lon="-0.7731970">
        <ele>700.0</ele>
        <time>2019-05-12T06:03:32Z</time>
      </trkpt>
      <trkpt lat="38.6247190" lon="-0.7730730">
        <ele>700.2</ele>
        <time>2019-05-12T06:03:34Z</time>
      </trkpt>
      <trkpt lat="38.6249780" lon="-0.7725270">
        <ele>700.2</ele>
        <time>2019-05-12T06:03:43Z</time>
      </trkpt>
      <trkpt lat="38.6251680" lon="-0.7721880">
        <ele>698.6</ele>
        <time>2019-05-12T06:03:48Z</time>
      </trkpt>
      <trkpt lat="38.6252480" lon="-0.7720590">
        <ele>698.4</ele>
        <time>2019-05-12T06:03:50Z</time>
      </trkpt>
      <trkpt lat="38.6253730" lon="-0.7718720">
        <ele>697.6</ele>
        <time>2019-05-12T06:03:53Z</time>
      </trkpt>
      <trkpt lat="38.6254240" lon="-0.7718170">
        <ele>697.4</ele>
        <time>2019-05-12T06:03:54Z</time>
      </trkpt>
      <trkpt lat="38.6255370" lon="-0.7717250">
        <ele>697.2</ele>
        <time>2019-05-12T06:03:56Z</time>
      </trkpt>
      <trkpt lat="38.6256710" lon="-0.7716370">
        <ele>696.6</ele>
        <time>2019-05-12T06:03:58Z</time>
      </trkpt>
      <trkpt lat="38.6258110" lon="-0.7715510">
        <ele>695.4</ele>
        <time>2019-05-12T06:04:00Z</time>
      </trkpt>
      <trkpt lat="38.6258870" lon="-0.7715120">
        <ele>695.2</ele>
        <time>2019-05-12T06:04:01Z</time>
      </trkpt>
      <trkpt lat="38.6261290" lon="-0.7714060">
        <ele>694.0</ele>
        <time>2019-05-12T06:04:04Z</time>
      </trkpt>
      <trkpt lat="38.6263600" lon="-0.7713030">
        <ele>692.6</ele>
        <time>2019-05-12T06:04:07Z</time>
      </trkpt>
      <trkpt lat="38.6265150" lon="-0.7712290">
        <ele>691.4</ele>
        <time>2019-05-12T06:04:09Z</time>
      </trkpt>
      <trkpt lat="38.6266230" lon="-0.7711440">
        <ele>691.0</ele>
        <time>2019-05-12T06:04:11Z</time>
      </trkpt>
      <trkpt lat="38.6266630" lon="-0.7710980">
        <ele>690.6</ele>
        <time>2019-05-12T06:04:12Z</time>
      </trkpt>
      <trkpt lat="38.6266960" lon="-0.7710580">
        <ele>690.4</ele>
        <time>2019-05-12T06:04:13Z</time>
      </trkpt>
      <trkpt lat="38.6267320" lon="-0.7710320">
        <ele>690.2</ele>
        <time>2019-05-12T06:04:15Z</time>
      </trkpt>
      <trkpt lat="38.6268240" lon="-0.7709400">
        <ele>689.2</ele>
        <time>2019-05-12T06:04:19Z</time>
      </trkpt>
      <trkpt lat="38.6268650" lon="-0.7709220">
        <ele>689.0</ele>
        <time>2019-05-12T06:04:20Z</time>
      </trkpt>
      <trkpt lat="38.6270040" lon="-0.7708340">
        <ele>689.0</ele>
        <time>2019-05-12T06:04:24Z</time>
      </trkpt>
      <trkpt lat="38.6270380" lon="-0.7707950">
        <ele>688.6</ele>
        <time>2019-05-12T06:04:25Z</time>
      </trkpt>
      <trkpt lat="38.6272110" lon="-0.7706110">
        <ele>687.6</ele>
        <time>2019-05-12T06:04:29Z</time>
      </trkpt>
      <trkpt lat="38.6272610" lon="-0.7705890">
        <ele>687.4</ele>
        <time>2019-05-12T06:04:30Z</time>
      </trkpt>
      <trkpt lat="38.6273660" lon="-0.7705150">
        <ele>687.0</ele>
        <time>2019-05-12T06:04:32Z</time>
      </trkpt>
      <trkpt lat="38.6274910" lon="-0.7704410">
        <ele>686.4</ele>
        <time>2019-05-12T06:04:34Z</time>
      </trkpt>
      <trkpt lat="38.6275540" lon="-0.7704070">
        <ele>686.2</ele>
        <time>2019-05-12T06:04:35Z</time>
      </trkpt>
      <trkpt lat="38.6276140" lon="-0.7703700">
        <ele>686.0</ele>
        <time>2019-05-12T06:04:36Z</time>
      </trkpt>
      <trkpt lat="38.6277350" lon="-0.7703010">
        <ele>685.6</ele>
        <time>2019-05-12T06:04:38Z</time>
      </trkpt>
      <trkpt lat="38.6277960" lon="-0.7702690">
        <ele>685.2</ele>
        <time>2019-05-12T06:04:39Z</time>
      </trkpt>
      <trkpt lat="38.6279080" lon="-0.7701990">
        <ele>684.0</ele>
        <time>2019-05-12T06:04:41Z</time>
      </trkpt>
      <trkpt lat="38.6282660" lon="-0.7699940">
        <ele>683.8</ele>
        <time>2019-05-12T06:04:47Z</time>
      </trkpt>
      <trkpt lat="38.6285610" lon="-0.7697820">
        <ele>683.4</ele>
        <time>2019-05-12T06:04:53Z</time>
      </trkpt>
      <trkpt lat="38.6287470" lon="-0.7696310">
        <ele>683.2</ele>
        <time>2019-05-12T06:04:58Z</time>
      </trkpt>
      <trkpt lat="38.6288380" lon="-0.7694810">
        <ele>683.8</ele>
        <time>2019-05-12T06:05:02Z</time>
      </trkpt>
      <trkpt lat="38.6288290" lon="-0.7694290">
        <ele>683.8</ele>
        <time>2019-05-12T06:05:03Z</time>
      </trkpt>
      <trkpt lat="38.6287920" lon="-0.7693430">
        <ele>684.0</ele>
        <time>2019-05-12T06:05:05Z</time>
      </trkpt>
      <trkpt lat="38.6286670" lon="-0.7690790">
        <ele>685.0</ele>
        <time>2019-05-12T06:05:12Z</time>
      </trkpt>
      <trkpt lat="38.6286250" lon="-0.7689850">
        <ele>686.4</ele>
        <time>2019-05-12T06:05:16Z</time>
      </trkpt>
      <trkpt lat="38.6286160" lon="-0.7689570">
        <ele>686.6</ele>
        <time>2019-05-12T06:05:17Z</time>
      </trkpt>
      <trkpt lat="38.6285370" lon="-0.7687290">
        <ele>686.8</ele>
        <time>2019-05-12T06:05:25Z</time>
      </trkpt>
      <trkpt lat="38.6285440" lon="-0.7686410">
        <ele>687.4</ele>
        <time>2019-05-12T06:05:28Z</time>
      </trkpt>
      <trkpt lat="38.6285470" lon="-0.7685280">
        <ele>687.4</ele>
        <time>2019-05-12T06:05:31Z</time>
      </trkpt>
      <trkpt lat="38.6285860" lon="-0.7682790">
        <ele>687.2</ele>
        <time>2019-05-12T06:05:36Z</time>
      </trkpt>
      <trkpt lat="38.6285660" lon="-0.7680160">
        <ele>686.8</ele>
        <time>2019-05-12T06:05:41Z</time>
      </trkpt>
      <trkpt lat="38.6285410" lon="-0.7677150">
        <ele>686.2</ele>
        <time>2019-05-12T06:05:46Z</time>
      </trkpt>
      <trkpt lat="38.6285010" lon="-0.7674740">
        <ele>686.8</ele>
        <time>2019-05-12T06:05:51Z</time>
      </trkpt>
      <trkpt lat="38.6284800" lon="-0.7674240">
        <ele>686.6</ele>
        <time>2019-05-12T06:05:52Z</time>
      </trkpt>
      <trkpt lat="38.6283860" lon="-0.7673360">
        <ele>686.6</ele>
        <time>2019-05-12T06:05:55Z</time>
      </trkpt>
      <trkpt lat="38.6283320" lon="-0.7672750">
        <ele>687.4</ele>
        <time>2019-05-12T06:05:57Z</time>
      </trkpt>
      <trkpt lat="38.6282440" lon="-0.7671410">
        <ele>687.8</ele>
        <time>2019-05-12T06:06:01Z</time>
      </trkpt>
      <trkpt lat="38.6281730" lon="-0.7670010">
        <ele>688.4</ele>
        <time>2019-05-12T06:06:05Z</time>
      </trkpt>
      <trkpt lat="38.6281400" lon="-0.7669330">
        <ele>689.0</ele>
        <time>2019-05-12T06:06:07Z</time>
      </trkpt>
      <trkpt lat="38.6280800" lon="-0.7667960">
        <ele>689.4</ele>
        <time>2019-05-12T06:06:11Z</time>
      </trkpt>
      <trkpt lat="38.6280130" lon="-0.7666580">
        <ele>690.0</ele>
        <time>2019-05-12T06:06:15Z</time>
      </trkpt>
      <trkpt lat="38.6279700" lon="-0.7665560">
        <ele>690.6</ele>
        <time>2019-05-12T06:06:18Z</time>
      </trkpt>
      <trkpt lat="38.6279250" lon="-0.7664090">
        <ele>691.2</ele>
        <time>2019-05-12T06:06:22Z</time>
      </trkpt>
      <trkpt lat="38.6278980" lon="-0.7662950">
        <ele>691.6</ele>
        <time>2019-05-12T06:06:25Z</time>
      </trkpt>
      <trkpt lat="38.6278840" lon="-0.7661310">
        <ele>692.0</ele>
        <time>2019-05-12T06:06:29Z</time>
      </trkpt>
      <trkpt lat="38.6278560" lon="-0.7659740">
        <ele>692.6</ele>
        <time>2019-05-12T06:06:33Z</time>
      </trkpt>
      <trkpt lat="38.6278170" lon="-0.7658340">
        <ele>693.4</ele>
        <time>2019-05-12T06:06:37Z</time>
      </trkpt>
      <trkpt lat="38.6277570" lon="-0.7657130">
        <ele>693.6</ele>
        <time>2019-05-12T06:06:41Z</time>
      </trkpt>
      <trkpt lat="38.6277060" lon="-0.7656160">
        <ele>694.4</ele>
        <time>2019-05-12T06:06:44Z</time>
      </trkpt>
      <trkpt lat="38.6276690" lon="-0.7655500">
        <ele>695.0</ele>
        <time>2019-05-12T06:06:46Z</time>
      </trkpt>
      <trkpt lat="38.6276170" lon="-0.7654500">
        <ele>695.2</ele>
        <time>2019-05-12T06:06:49Z</time>
      </trkpt>
      <trkpt lat="38.6275030" lon="-0.7652610">
        <ele>696.0</ele>
        <time>2019-05-12T06:06:55Z</time>
      </trkpt>
      <trkpt lat="38.6274850" lon="-0.7652280">
        <ele>696.0</ele>
        <time>2019-05-12T06:06:56Z</time>
      </trkpt>
      <trkpt lat="38.6273820" lon="-0.7650470">
        <ele>696.8</ele>
        <time>2019-05-12T06:07:02Z</time>
      </trkpt>
      <trkpt lat="38.6273490" lon="-0.7649860">
        <ele>697.2</ele>
        <time>2019-05-12T06:07:04Z</time>
      </trkpt>
      <trkpt lat="38.6272710" lon="-0.7648570">
        <ele>697.8</ele>
        <time>2019-05-12T06:07:08Z</time>
      </trkpt>
      <trkpt lat="38.6272260" lon="-0.7647620">
        <ele>698.2</ele>
        <time>2019-05-12T06:07:11Z</time>
      </trkpt>
      <trkpt lat="38.6272030" lon="-0.7646840">
        <ele>698.8</ele>
        <time>2019-05-12T06:07:14Z</time>
      </trkpt>
      <trkpt lat="38.6272070" lon="-0.7646480">
        <ele>699.4</ele>
        <time>2019-05-12T06:07:15Z</time>
      </trkpt>
      <trkpt lat="38.6272020" lon="-0.7646080">
        <ele>699.8</ele>
        <time>2019-05-12T06:07:17Z</time>
      </trkpt>
      <trkpt lat="38.6271950" lon="-0.7645700">
        <ele>699.8</ele>
        <time>2019-05-12T06:07:18Z</time>
      </trkpt>
      <trkpt lat="38.6271890" lon="-0.7644400">
        <ele>700.2</ele>
        <time>2019-05-12T06:07:22Z</time>
      </trkpt>
      <trkpt lat="38.6271860" lon="-0.7644050">
        <ele>700.2</ele>
        <time>2019-05-12T06:07:23Z</time>
      </trkpt>
      <trkpt lat="38.6271820" lon="-0.7643330">
        <ele>700.4</ele>
        <time>2019-05-12T06:07:25Z</time>
      </trkpt>
      <trkpt lat="38.6271830" lon="-0.7642970">
        <ele>700.6</ele>
        <time>2019-05-12T06:07:26Z</time>
      </trkpt>
      <trkpt lat="38.6271930" lon="-0.7641410">
        <ele>700.8</ele>
        <time>2019-05-12T06:07:30Z</time>
      </trkpt>
      <trkpt lat="38.6272590" lon="-0.7639430">
        <ele>701.6</ele>
        <time>2019-05-12T06:07:35Z</time>
      </trkpt>
      <trkpt lat="38.6274070" lon="-0.7637170">
        <ele>702.4</ele>
        <time>2019-05-12T06:07:42Z</time>
      </trkpt>
      <trkpt lat="38.6274280" lon="-0.7636850">
        <ele>702.6</ele>
        <time>2019-05-12T06:07:43Z</time>
      </trkpt>
      <trkpt lat="38.6276080" lon="-0.7633880">
        <ele>703.8</ele>
        <time>2019-05-12T06:07:52Z</time>
      </trkpt>
      <trkpt lat="38.6277450" lon="-0.7631610">
        <ele>704.8</ele>
        <time>2019-05-12T06:07:59Z</time>
      </trkpt>
      <trkpt lat="38.6277650" lon="-0.7631230">
        <ele>705.0</ele>
        <time>2019-05-12T06:08:00Z</time>
      </trkpt>
      <trkpt lat="38.6278930" lon="-0.7629230">
        <ele>705.4</ele>
        <time>2019-05-12T06:08:06Z</time>
      </trkpt>
      <trkpt lat="38.6279700" lon="-0.7627860">
        <ele>706.2</ele>
        <time>2019-05-12T06:08:10Z</time>
      </trkpt>
      <trkpt lat="38.6280420" lon="-0.7626820">
        <ele>706.4</ele>
        <time>2019-05-12T06:08:13Z</time>
      </trkpt>
      <trkpt lat="38.6281990" lon="-0.7624260">
        <ele>707.2</ele>
        <time>2019-05-12T06:08:20Z</time>
      </trkpt>
      <trkpt lat="38.6282440" lon="-0.7623570">
        <ele>707.6</ele>
        <time>2019-05-12T06:08:22Z</time>
      </trkpt>
      <trkpt lat="38.6283730" lon="-0.7621460">
        <ele>708.2</ele>
        <time>2019-05-12T06:08:28Z</time>
      </trkpt>
      <trkpt lat="38.6283940" lon="-0.7621080">
        <ele>708.4</ele>
        <time>2019-05-12T06:08:29Z</time>
      </trkpt>
      <trkpt lat="38.6284980" lon="-0.7619180">
        <ele>709.6</ele>
        <time>2019-05-12T06:08:34Z</time>
      </trkpt>
      <trkpt lat="38.6285930" lon="-0.7617800">
        <ele>709.6</ele>
        <time>2019-05-12T06:08:38Z</time>
      </trkpt>
      <trkpt lat="38.6287570" lon="-0.7615200">
        <ele>710.6</ele>
        <time>2019-05-12T06:08:46Z</time>
      </trkpt>
      <trkpt lat="38.6288810" lon="-0.7613830">
        <ele>711.4</ele>
        <time>2019-05-12T06:08:51Z</time>
      </trkpt>
      <trkpt lat="38.6289280" lon="-0.7613740">
        <ele>711.8</ele>
        <time>2019-05-12T06:08:53Z</time>
      </trkpt>
      <trkpt lat="38.6289550" lon="-0.7613880">
        <ele>712.0</ele>
        <time>2019-05-12T06:08:54Z</time>
      </trkpt>
      <trkpt lat="38.6289800" lon="-0.7614080">
        <ele>712.0</ele>
        <time>2019-05-12T06:08:55Z</time>
      </trkpt>
      <trkpt lat="38.6290750" lon="-0.7615420">
        <ele>711.0</ele>
        <time>2019-05-12T06:08:59Z</time>
      </trkpt>
      <trkpt lat="38.6291000" lon="-0.7615820">
        <ele>710.8</ele>
        <time>2019-05-12T06:09:00Z</time>
      </trkpt>
      <trkpt lat="38.6291580" lon="-0.7617010">
        <ele>710.8</ele>
        <time>2019-05-12T06:09:04Z</time>
      </trkpt>
      <trkpt lat="38.6291840" lon="-0.7617310">
        <ele>710.6</ele>
        <time>2019-05-12T06:09:05Z</time>
      </trkpt>
      <trkpt lat="38.6292430" lon="-0.7617530">
        <ele>710.6</ele>
        <time>2019-05-12T06:09:07Z</time>
      </trkpt>
      <trkpt lat="38.6293270" lon="-0.7616920">
        <ele>709.8</ele>
        <time>2019-05-12T06:09:10Z</time>
      </trkpt>
      <trkpt lat="38.6293600" lon="-0.7616580">
        <ele>709.4</ele>
        <time>2019-05-12T06:09:11Z</time>
      </trkpt>
      <trkpt lat="38.6293860" lon="-0.7616320">
        <ele>708.8</ele>
        <time>2019-05-12T06:09:12Z</time>
      </trkpt>
      <trkpt lat="38.6293910" lon="-0.7615440">
        <ele>708.6</ele>
        <time>2019-05-12T06:09:14Z</time>
      </trkpt>
      <trkpt lat="38.6293360" lon="-0.7614400">
        <ele>708.2</ele>
        <time>2019-05-12T06:09:17Z</time>
      </trkpt>
      <trkpt lat="38.6293050" lon="-0.7613640">
        <ele>708.2</ele>
        <time>2019-05-12T06:09:20Z</time>
      </trkpt>
      <trkpt lat="38.6293090" lon="-0.7612540">
        <ele>708.4</ele>
        <time>2019-05-12T06:09:23Z</time>
      </trkpt>
      <trkpt lat="38.6293040" lon="-0.7610050">
        <ele>708.2</ele>
        <time>2019-05-12T06:09:29Z</time>
      </trkpt>
      <trkpt lat="38.6293110" lon="-0.7607750">
        <ele>706.4</ele>
        <time>2019-05-12T06:09:32Z</time>
      </trkpt>
      <trkpt lat="38.6293390" lon="-0.7607080">
        <ele>705.8</ele>
        <time>2019-05-12T06:09:33Z</time>
      </trkpt>
      <trkpt lat="38.6293740" lon="-0.7606500">
        <ele>705.0</ele>
        <time>2019-05-12T06:09:34Z</time>
      </trkpt>
      <trkpt lat="38.6294630" lon="-0.7605960">
        <ele>704.8</ele>
        <time>2019-05-12T06:09:36Z</time>
      </trkpt>
      <trkpt lat="38.6295120" lon="-0.7605910">
        <ele>704.6</ele>
        <time>2019-05-12T06:09:38Z</time>
      </trkpt>
      <trkpt lat="38.6295270" lon="-0.7605980">
        <ele>704.8</ele>
        <time>2019-05-12T06:09:39Z</time>
      </trkpt>
      <trkpt lat="38.6295750" lon="-0.7606330">
        <ele>704.6</ele>
        <time>2019-05-12T06:09:44Z</time>
      </trkpt>
      <trkpt lat="38.6296460" lon="-0.7606380">
        <ele>703.2</ele>
        <time>2019-05-12T06:09:46Z</time>
      </trkpt>
      <trkpt lat="38.6296750" lon="-0.7606060">
        <ele>702.4</ele>
        <time>2019-05-12T06:09:47Z</time>
      </trkpt>
      <trkpt lat="38.6297070" lon="-0.7605630">
        <ele>702.0</ele>
        <time>2019-05-12T06:09:48Z</time>
      </trkpt>
      <trkpt lat="38.6297870" lon="-0.7604680">
        <ele>701.6</ele>
        <time>2019-05-12T06:09:51Z</time>
      </trkpt>
      <trkpt lat="38.6298340" lon="-0.7604110">
        <ele>701.8</ele>
        <time>2019-05-12T06:09:53Z</time>
      </trkpt>
      <trkpt lat="38.6298590" lon="-0.7603510">
        <ele>702.4</ele>
        <time>2019-05-12T06:09:55Z</time>
      </trkpt>
      <trkpt lat="38.6298630" lon="-0.7603190">
        <ele>702.4</ele>
        <time>2019-05-12T06:09:56Z</time>
      </trkpt>
      <trkpt lat="38.6298150" lon="-0.7602950">
        <ele>702.2</ele>
        <time>2019-05-12T06:09:59Z</time>
      </trkpt>
      <trkpt lat="38.6298060" lon="-0.7603870">
        <ele>702.6</ele>
        <time>2019-05-12T06:10:03Z</time>
      </trkpt>
      <trkpt lat="38.6298360" lon="-0.7606350">
        <ele>702.2</ele>
        <time>2019-05-12T06:10:09Z</time>
      </trkpt>
      <trkpt lat="38.6298900" lon="-0.7607670">
        <ele>701.6</ele>
        <time>2019-05-12T06:10:12Z</time>
      </trkpt>
      <trkpt lat="38.6299520" lon="-0.7607650">
        <ele>701.0</ele>
        <time>2019-05-12T06:10:13Z</time>
      </trkpt>
      <trkpt lat="38.6300040" lon="-0.7607230">
        <ele>699.8</ele>
        <time>2019-05-12T06:10:14Z</time>
      </trkpt>
      <trkpt lat="38.6300350" lon="-0.7606300">
        <ele>698.8</ele>
        <time>2019-05-12T06:10:15Z</time>
      </trkpt>
      <trkpt lat="38.6300610" lon="-0.7605380">
        <ele>697.4</ele>
        <time>2019-05-12T06:10:16Z</time>
      </trkpt>
      <trkpt lat="38.6300970" lon="-0.7603460">
        <ele>695.6</ele>
        <time>2019-05-12T06:10:18Z</time>
      </trkpt>
      <trkpt lat="38.6301320" lon="-0.7601550">
        <ele>694.4</ele>
        <time>2019-05-12T06:10:20Z</time>
      </trkpt>
      <trkpt lat="38.6301590" lon="-0.7600640">
        <ele>694.0</ele>
        <time>2019-05-12T06:10:21Z</time>
      </trkpt>
      <trkpt lat="38.6302620" lon="-0.7598200">
        <ele>693.6</ele>
        <time>2019-05-12T06:10:24Z</time>
      </trkpt>
      <trkpt lat="38.6302970" lon="-0.7597530">
        <ele>693.8</ele>
        <time>2019-05-12T06:10:25Z</time>
      </trkpt>
      <trkpt lat="38.6303920" lon="-0.7595480">
        <ele>693.2</ele>
        <time>2019-05-12T06:10:28Z</time>
      </trkpt>
      <trkpt lat="38.6304260" lon="-0.7594920">
        <ele>692.6</ele>
        <time>2019-05-12T06:10:29Z</time>
      </trkpt>
      <trkpt lat="38.6304720" lon="-0.7594480">
        <ele>692.2</ele>
        <time>2019-05-12T06:10:30Z</time>
      </trkpt>
      <trkpt lat="38.6305330" lon="-0.7594180">
        <ele>691.8</ele>
        <time>2019-05-12T06:10:31Z</time>
      </trkpt>
      <trkpt lat="38.6306020" lon="-0.7593970">
        <ele>690.4</ele>
        <time>2019-05-12T06:10:32Z</time>
      </trkpt>
      <trkpt lat="38.6307570" lon="-0.7593410">
        <ele>688.2</ele>
        <time>2019-05-12T06:10:34Z</time>
      </trkpt>
      <trkpt lat="38.6309120" lon="-0.7592840">
        <ele>686.4</ele>
        <time>2019-05-12T06:10:36Z</time>
      </trkpt>
      <trkpt lat="38.6309840" lon="-0.7592590">
        <ele>686.0</ele>
        <time>2019-05-12T06:10:37Z</time>
      </trkpt>
      <trkpt lat="38.6311070" lon="-0.7592150">
        <ele>685.0</ele>
        <time>2019-05-12T06:10:39Z</time>
      </trkpt>
      <trkpt lat="38.6311510" lon="-0.7592160">
        <ele>684.6</ele>
        <time>2019-05-12T06:10:40Z</time>
      </trkpt>
      <trkpt lat="38.6311930" lon="-0.7592180">
        <ele>684.0</ele>
        <time>2019-05-12T06:10:41Z</time>
      </trkpt>
      <trkpt lat="38.6312310" lon="-0.7592370">
        <ele>683.8</ele>
        <time>2019-05-12T06:10:42Z</time>
      </trkpt>
      <trkpt lat="38.6312610" lon="-0.7593000">
        <ele>683.4</ele>
        <time>2019-05-12T06:10:44Z</time>
      </trkpt>
      <trkpt lat="38.6312290" lon="-0.7593850">
        <ele>682.8</ele>
        <time>2019-05-12T06:10:46Z</time>
      </trkpt>
      <trkpt lat="38.6311980" lon="-0.7594230">
        <ele>682.6</ele>
        <time>2019-05-12T06:10:47Z</time>
      </trkpt>
      <trkpt lat="38.6311410" lon="-0.7594730">
        <ele>682.6</ele>
        <time>2019-05-12T06:10:51Z</time>
      </trkpt>
      <trkpt lat="38.6310350" lon="-0.7595770">
        <ele>682.8</ele>
        <time>2019-05-12T06:10:56Z</time>
      </trkpt>
      <trkpt lat="38.6309640" lon="-0.7596760">
        <ele>683.4</ele>
        <time>2019-05-12T06:11:01Z</time>
      </trkpt>
      <trkpt lat="38.6309470" lon="-0.7596830">
        <ele>683.8</ele>
        <time>2019-05-12T06:11:02Z</time>
      </trkpt>
      <trkpt lat="38.6309370" lon="-0.7597010">
        <ele>683.8</ele>
        <time>2019-05-12T06:11:03Z</time>
      </trkpt>
      <trkpt lat="38.6308820" lon="-0.7597410">
        <ele>684.2</ele>
        <time>2019-05-12T06:11:06Z</time>
      </trkpt>
      <trkpt lat="38.6308660" lon="-0.7597460">
        <ele>684.4</ele>
        <time>2019-05-12T06:11:07Z</time>
      </trkpt>
      <trkpt lat="38.6308320" lon="-0.7597730">
        <ele>684.8</ele>
        <time>2019-05-12T06:11:09Z</time>
      </trkpt>
      <trkpt lat="38.6308160" lon="-0.7597890">
        <ele>684.8</ele>
        <time>2019-05-12T06:11:10Z</time>
      </trkpt>
      <trkpt lat="38.6308100" lon="-0.7598070">
        <ele>685.0</ele>
        <time>2019-05-12T06:11:11Z</time>
      </trkpt>
      <trkpt lat="38.6308060" lon="-0.7598180">
        <ele>685.2</ele>
        <time>2019-05-12T06:11:12Z</time>
      </trkpt>
      <trkpt lat="38.6307870" lon="-0.7598340">
        <ele>685.2</ele>
        <time>2019-05-12T06:11:13Z</time>
      </trkpt>
      <trkpt lat="38.6307160" lon="-0.7598380">
        <ele>685.2</ele>
        <time>2019-05-12T06:11:15Z</time>
      </trkpt>
      <trkpt lat="38.6306310" lon="-0.7598880">
        <ele>685.6</ele>
        <time>2019-05-12T06:11:19Z</time>
      </trkpt>
      <trkpt lat="38.6306170" lon="-0.7599120">
        <ele>685.4</ele>
        <time>2019-05-12T06:11:20Z</time>
      </trkpt>
      <trkpt lat="38.6305810" lon="-0.7599860">
        <ele>685.6</ele>
        <time>2019-05-12T06:11:25Z</time>
      </trkpt>
      <trkpt lat="38.6305030" lon="-0.7600700">
        <ele>684.4</ele>
        <time>2019-05-12T06:11:29Z</time>
      </trkpt>
      <trkpt lat="38.6304800" lon="-0.7600970">
        <ele>683.8</ele>
        <time>2019-05-12T06:11:30Z</time>
      </trkpt>
      <trkpt lat="38.6304480" lon="-0.7601440">
        <ele>682.2</ele>
        <time>2019-05-12T06:11:32Z</time>
      </trkpt>
      <trkpt lat="38.6304130" lon="-0.7601750">
        <ele>681.4</ele>
        <time>2019-05-12T06:11:35Z</time>
      </trkpt>
      <trkpt lat="38.6304050" lon="-0.7601820">
        <ele>681.0</ele>
        <time>2019-05-12T06:11:37Z</time>
      </trkpt>
      <trkpt lat="38.6303770" lon="-0.7602400">
        <ele>679.8</ele>
        <time>2019-05-12T06:12:29Z</time>
      </trkpt>
      <trkpt lat="38.6303740" lon="-0.7602660">
        <ele>679.6</ele>
        <time>2019-05-12T06:12:30Z</time>
      </trkpt>
      <trkpt lat="38.6303890" lon="-0.7603180">
        <ele>679.4</ele>
        <time>2019-05-12T06:12:32Z</time>
      </trkpt>
      <trkpt lat="38.6303970" lon="-0.7603420">
        <ele>678.4</ele>
        <time>2019-05-12T06:12:34Z</time>
      </trkpt>
      <trkpt lat="38.6304480" lon="-0.7604630">
        <ele>677.4</ele>
        <time>2019-05-12T06:12:48Z</time>
      </trkpt>
      <trkpt lat="38.6304820" lon="-0.7605160">
        <ele>677.0</ele>
        <time>2019-05-12T06:12:50Z</time>
      </trkpt>
      <trkpt lat="38.6305950" lon="-0.7605960">
        <ele>676.8</ele>
        <time>2019-05-12T06:12:55Z</time>
      </trkpt>
      <trkpt lat="38.6306680" lon="-0.7606140">
        <ele>676.2</ele>
        <time>2019-05-12T06:12:58Z</time>
      </trkpt>
      <trkpt lat="38.6307770" lon="-0.7607050">
        <ele>676.2</ele>
        <time>2019-05-12T06:13:02Z</time>
      </trkpt>
      <trkpt lat="38.6308050" lon="-0.7607470">
        <ele>675.8</ele>
        <time>2019-05-12T06:13:03Z</time>
      </trkpt>
      <trkpt lat="38.6308370" lon="-0.7608480">
        <ele>675.2</ele>
        <time>2019-05-12T06:13:06Z</time>
      </trkpt>
      <trkpt lat="38.6308260" lon="-0.7608470">
        <ele>675.2</ele>
        <time>2019-05-12T06:13:07Z</time>
      </trkpt>
      <trkpt lat="38.6308230" lon="-0.7608950">
        <ele>675.4</ele>
        <time>2019-05-12T06:13:10Z</time>
      </trkpt>
      <trkpt lat="38.6308110" lon="-0.7610130">
        <ele>675.2</ele>
        <time>2019-05-12T06:13:14Z</time>
      </trkpt>
      <trkpt lat="38.6308210" lon="-0.7611960">
        <ele>674.8</ele>
        <time>2019-05-12T06:13:18Z</time>
      </trkpt>
      <trkpt lat="38.6308580" lon="-0.7614630">
        <ele>674.4</ele>
        <time>2019-05-12T06:13:23Z</time>
      </trkpt>
      <trkpt lat="38.6308730" lon="-0.7615140">
        <ele>674.6</ele>
        <time>2019-05-12T06:13:24Z</time>
      </trkpt>
      <trkpt lat="38.6309400" lon="-0.7616450">
        <ele>674.0</ele>
        <time>2019-05-12T06:13:27Z</time>
      </trkpt>
      <trkpt lat="38.6309820" lon="-0.7617150">
        <ele>674.0</ele>
        <time>2019-05-12T06:13:29Z</time>
      </trkpt>
      <trkpt lat="38.6310400" lon="-0.7618020">
        <ele>674.2</ele>
        <time>2019-05-12T06:13:33Z</time>
      </trkpt>
      <trkpt lat="38.6311090" lon="-0.7619100">
        <ele>673.2</ele>
        <time>2019-05-12T06:13:51Z</time>
      </trkpt>
      <trkpt lat="38.6311240" lon="-0.7619230">
        <ele>673.2</ele>
        <time>2019-05-12T06:13:52Z</time>
      </trkpt>
      <trkpt lat="38.6312130" lon="-0.7619860">
        <ele>673.0</ele>
        <time>2019-05-12T06:13:56Z</time>
      </trkpt>
      <trkpt lat="38.6312620" lon="-0.7620230">
        <ele>673.0</ele>
        <time>2019-05-12T06:13:58Z</time>
      </trkpt>
      <trkpt lat="38.6313680" lon="-0.7620930">
        <ele>672.4</ele>
        <time>2019-05-12T06:14:02Z</time>
      </trkpt>
      <trkpt lat="38.6315400" lon="-0.7621470">
        <ele>672.4</ele>
        <time>2019-05-12T06:14:08Z</time>
      </trkpt>
      <trkpt lat="38.6316740" lon="-0.7621600">
        <ele>672.2</ele>
        <time>2019-05-12T06:14:13Z</time>
      </trkpt>
      <trkpt lat="38.6317150" lon="-0.7621780">
        <ele>672.4</ele>
        <time>2019-05-12T06:14:17Z</time>
      </trkpt>
      <trkpt lat="38.6317980" lon="-0.7621980">
        <ele>672.2</ele>
        <time>2019-05-12T06:14:21Z</time>
      </trkpt>
      <trkpt lat="38.6318230" lon="-0.7622020">
        <ele>671.8</ele>
        <time>2019-05-12T06:14:22Z</time>
      </trkpt>
      <trkpt lat="38.6318660" lon="-0.7622050">
        <ele>671.8</ele>
        <time>2019-05-12T06:14:24Z</time>
      </trkpt>
      <trkpt lat="38.6319040" lon="-0.7622010">
        <ele>671.4</ele>
        <time>2019-05-12T06:14:26Z</time>
      </trkpt>
      <trkpt lat="38.6320070" lon="-0.7622040">
        <ele>671.0</ele>
        <time>2019-05-12T06:14:32Z</time>
      </trkpt>
      <trkpt lat="38.6321050" lon="-0.7622060">
        <ele>669.8</ele>
        <time>2019-05-12T06:14:46Z</time>
      </trkpt>
      <trkpt lat="38.6322070" lon="-0.7622270">
        <ele>669.6</ele>
        <time>2019-05-12T06:14:50Z</time>
      </trkpt>
      <trkpt lat="38.6324090" lon="-0.7622660">
        <ele>669.8</ele>
        <time>2019-05-12T06:14:56Z</time>
      </trkpt>
      <trkpt lat="38.6325240" lon="-0.7623250">
        <ele>669.2</ele>
        <time>2019-05-12T06:15:00Z</time>
      </trkpt>
      <trkpt lat="38.6325590" lon="-0.7623470">
        <ele>669.2</ele>
        <time>2019-05-12T06:15:01Z</time>
      </trkpt>
      <trkpt lat="38.6327230" lon="-0.7624300">
        <ele>668.8</ele>
        <time>2019-05-12T06:15:05Z</time>
      </trkpt>
      <trkpt lat="38.6327580" lon="-0.7624510">
        <ele>668.8</ele>
        <time>2019-05-12T06:15:06Z</time>
      </trkpt>
      <trkpt lat="38.6328990" lon="-0.7625530">
        <ele>668.6</ele>
        <time>2019-05-12T06:15:10Z</time>
      </trkpt>
      <trkpt lat="38.6330170" lon="-0.7626400">
        <ele>668.6</ele>
        <time>2019-05-12T06:15:14Z</time>
      </trkpt>
      <trkpt lat="38.6330510" lon="-0.7626760">
        <ele>668.6</ele>
        <time>2019-05-12T06:15:15Z</time>
      </trkpt>
      <trkpt lat="38.6332230" lon="-0.7628440">
        <ele>668.6</ele>
        <time>2019-05-12T06:15:20Z</time>
      </trkpt>
      <trkpt lat="38.6333450" lon="-0.7629440">
        <ele>668.6</ele>
        <time>2019-05-12T06:15:24Z</time>
      </trkpt>
      <trkpt lat="38.6334740" lon="-0.7630770">
        <ele>668.8</ele>
        <time>2019-05-12T06:15:29Z</time>
      </trkpt>
      <trkpt lat="38.6335620" lon="-0.7631060">
        <ele>670.0</ele>
        <time>2019-05-12T06:15:33Z</time>
      </trkpt>
      <trkpt lat="38.6335810" lon="-0.7631170">
        <ele>670.4</ele>
        <time>2019-05-12T06:15:34Z</time>
      </trkpt>
      <trkpt lat="38.6336080" lon="-0.7631480">
        <ele>671.2</ele>
        <time>2019-05-12T06:15:36Z</time>
      </trkpt>
      <trkpt lat="38.6336210" lon="-0.7631910">
        <ele>671.8</ele>
        <time>2019-05-12T06:15:38Z</time>
      </trkpt>
      <trkpt lat="38.6336200" lon="-0.7632230">
        <ele>672.0</ele>
        <time>2019-05-12T06:15:39Z</time>
      </trkpt>
      <trkpt lat="38.6336210" lon="-0.7633960">
        <ele>672.2</ele>
        <time>2019-05-12T06:15:44Z</time>
      </trkpt>
      <trkpt lat="38.6336260" lon="-0.7634840">
        <ele>672.6</ele>
        <time>2019-05-12T06:15:46Z</time>
      </trkpt>
      <trkpt lat="38.6337140" lon="-0.7637610">
        <ele>672.8</ele>
        <time>2019-05-12T06:15:52Z</time>
      </trkpt>
      <trkpt lat="38.6339600" lon="-0.7641120">
        <ele>672.4</ele>
        <time>2019-05-12T06:16:01Z</time>
      </trkpt>
      <trkpt lat="38.6340790" lon="-0.7643650">
        <ele>672.6</ele>
        <time>2019-05-12T06:16:07Z</time>
      </trkpt>
      <trkpt lat="38.6342050" lon="-0.7645920">
        <ele>672.8</ele>
        <time>2019-05-12T06:16:13Z</time>
      </trkpt>
      <trkpt lat="38.6342290" lon="-0.7646360">
        <ele>672.8</ele>
        <time>2019-05-12T06:16:14Z</time>
      </trkpt>
      <trkpt lat="38.6343160" lon="-0.7647870">
        <ele>672.4</ele>
        <time>2019-05-12T06:16:17Z</time>
      </trkpt>
      <trkpt lat="38.6344040" lon="-0.7648630">
        <ele>670.8</ele>
        <time>2019-05-12T06:16:19Z</time>
      </trkpt>
      <trkpt lat="38.6344620" lon="-0.7648870">
        <ele>670.4</ele>
        <time>2019-05-12T06:16:20Z</time>
      </trkpt>
      <trkpt lat="38.6345240" lon="-0.7649120">
        <ele>670.0</ele>
        <time>2019-05-12T06:16:21Z</time>
      </trkpt>
      <trkpt lat="38.6345900" lon="-0.7649370">
        <ele>669.8</ele>
        <time>2019-05-12T06:16:22Z</time>
      </trkpt>
      <trkpt lat="38.6347950" lon="-0.7650040">
        <ele>667.8</ele>
        <time>2019-05-12T06:16:25Z</time>
      </trkpt>
      <trkpt lat="38.6348660" lon="-0.7650330">
        <ele>667.4</ele>
        <time>2019-05-12T06:16:26Z</time>
      </trkpt>
      <trkpt lat="38.6350720" lon="-0.7651460">
        <ele>666.6</ele>
        <time>2019-05-12T06:16:29Z</time>
      </trkpt>
      <trkpt lat="38.6351390" lon="-0.7651790">
        <ele>666.8</ele>
        <time>2019-05-12T06:16:30Z</time>
      </trkpt>
      <trkpt lat="38.6352040" lon="-0.7652080">
        <ele>666.6</ele>
        <time>2019-05-12T06:16:31Z</time>
      </trkpt>
      <trkpt lat="38.6352630" lon="-0.7652410">
        <ele>666.8</ele>
        <time>2019-05-12T06:16:32Z</time>
      </trkpt>
      <trkpt lat="38.6353500" lon="-0.7653170">
        <ele>667.2</ele>
        <time>2019-05-12T06:16:34Z</time>
      </trkpt>
      <trkpt lat="38.6354320" lon="-0.7653750">
        <ele>667.8</ele>
        <time>2019-05-12T06:16:36Z</time>
      </trkpt>
      <trkpt lat="38.6355260" lon="-0.7654010">
        <ele>667.8</ele>
        <time>2019-05-12T06:16:38Z</time>
      </trkpt>
      <trkpt lat="38.6355720" lon="-0.7654030">
        <ele>668.2</ele>
        <time>2019-05-12T06:16:39Z</time>
      </trkpt>
      <trkpt lat="38.6357100" lon="-0.7654110">
        <ele>668.4</ele>
        <time>2019-05-12T06:16:42Z</time>
      </trkpt>
      <trkpt lat="38.6357540" lon="-0.7654240">
        <ele>668.4</ele>
        <time>2019-05-12T06:16:43Z</time>
      </trkpt>
      <trkpt lat="38.6358890" lon="-0.7655210">
        <ele>668.8</ele>
        <time>2019-05-12T06:16:47Z</time>
      </trkpt>
      <trkpt lat="38.6359090" lon="-0.7655540">
        <ele>669.0</ele>
        <time>2019-05-12T06:16:48Z</time>
      </trkpt>
      <trkpt lat="38.6359470" lon="-0.7656140">
        <ele>669.8</ele>
        <time>2019-05-12T06:16:50Z</time>
      </trkpt>
      <trkpt lat="38.6359650" lon="-0.7656400">
        <ele>670.2</ele>
        <time>2019-05-12T06:16:51Z</time>
      </trkpt>
      <trkpt lat="38.6360150" lon="-0.7657120">
        <ele>671.0</ele>
        <time>2019-05-12T06:16:54Z</time>
      </trkpt>
      <trkpt lat="38.6360300" lon="-0.7657290">
        <ele>671.4</ele>
        <time>2019-05-12T06:16:55Z</time>
      </trkpt>
      <trkpt lat="38.6360800" lon="-0.7657220">
        <ele>672.0</ele>
        <time>2019-05-12T06:16:58Z</time>
      </trkpt>
      <trkpt lat="38.6361300" lon="-0.7656620">
        <ele>672.2</ele>
        <time>2019-05-12T06:17:01Z</time>
      </trkpt>
      <trkpt lat="38.6361460" lon="-0.7656390">
        <ele>672.6</ele>
        <time>2019-05-12T06:17:02Z</time>
      </trkpt>
      <trkpt lat="38.6361640" lon="-0.7656180">
        <ele>672.8</ele>
        <time>2019-05-12T06:17:03Z</time>
      </trkpt>
      <trkpt lat="38.6362890" lon="-0.7655470">
        <ele>673.6</ele>
        <time>2019-05-12T06:17:09Z</time>
      </trkpt>
      <trkpt lat="38.6363100" lon="-0.7655320">
        <ele>673.8</ele>
        <time>2019-05-12T06:17:10Z</time>
      </trkpt>
      <trkpt lat="38.6363670" lon="-0.7654830">
        <ele>675.2</ele>
        <time>2019-05-12T06:17:14Z</time>
      </trkpt>
      <trkpt lat="38.6363730" lon="-0.7654630">
        <ele>675.4</ele>
        <time>2019-05-12T06:17:15Z</time>
      </trkpt>
      <trkpt lat="38.6363820" lon="-0.7652510">
        <ele>675.8</ele>
        <time>2019-05-12T06:17:21Z</time>
      </trkpt>
      <trkpt lat="38.6363380" lon="-0.7650340">
        <ele>675.4</ele>
        <time>2019-05-12T06:17:26Z</time>
      </trkpt>
      <trkpt lat="38.6362430" lon="-0.7648520">
        <ele>675.8</ele>
        <time>2019-05-12T06:17:31Z</time>
      </trkpt>
      <trkpt lat="38.6362050" lon="-0.7647960">
        <ele>676.2</ele>
        <time>2019-05-12T06:17:33Z</time>
      </trkpt>
      <trkpt lat="38.6361170" lon="-0.7646580">
        <ele>677.4</ele>
        <time>2019-05-12T06:17:38Z</time>
      </trkpt>
      <trkpt lat="38.6361070" lon="-0.7646290">
        <ele>678.2</ele>
        <time>2019-05-12T06:17:39Z</time>
      </trkpt>
      <trkpt lat="38.6360960" lon="-0.7645970">
        <ele>678.4</ele>
        <time>2019-05-12T06:17:40Z</time>
      </trkpt>
      <trkpt lat="38.6360400" lon="-0.7644530">
        <ele>679.6</ele>
        <time>2019-05-12T06:17:45Z</time>
      </trkpt>
      <trkpt lat="38.6360260" lon="-0.7644250">
        <ele>679.8</ele>
        <time>2019-05-12T06:17:46Z</time>
      </trkpt>
      <trkpt lat="38.6360010" lon="-0.7643430">
        <ele>680.4</ele>
        <time>2019-05-12T06:17:49Z</time>
      </trkpt>
      <trkpt lat="38.6360050" lon="-0.7643180">
        <ele>680.6</ele>
        <time>2019-05-12T06:17:50Z</time>
      </trkpt>
      <trkpt lat="38.6360340" lon="-0.7642290">
        <ele>681.8</ele>
        <time>2019-05-12T06:17:55Z</time>
      </trkpt>
      <trkpt lat="38.6360420" lon="-0.7641970">
        <ele>681.8</ele>
        <time>2019-05-12T06:17:57Z</time>
      </trkpt>
      <trkpt lat="38.6360490" lon="-0.7641200">
        <ele>682.8</ele>
        <time>2019-05-12T06:18:01Z</time>
      </trkpt>
      <trkpt lat="38.6360550" lon="-0.7640650">
        <ele>684.0</ele>
        <time>2019-05-12T06:18:04Z</time>
      </trkpt>
      <trkpt lat="38.6360590" lon="-0.7640470">
        <ele>684.2</ele>
        <time>2019-05-12T06:18:05Z</time>
      </trkpt>
      <trkpt lat="38.6360690" lon="-0.7639770">
        <ele>685.2</ele>
        <time>2019-05-12T06:18:09Z</time>
      </trkpt>
      <trkpt lat="38.6360710" lon="-0.7639590">
        <ele>685.4</ele>
        <time>2019-05-12T06:18:10Z</time>
      </trkpt>
      <trkpt lat="38.6360850" lon="-0.7639100">
        <ele>686.4</ele>
        <time>2019-05-12T06:18:13Z</time>
      </trkpt>
      <trkpt lat="38.6360930" lon="-0.7638940">
        <ele>686.6</ele>
        <time>2019-05-12T06:18:14Z</time>
      </trkpt>
      <trkpt lat="38.6360970" lon="-0.7638740">
        <ele>686.8</ele>
        <time>2019-05-12T06:18:15Z</time>
      </trkpt>
      <trkpt lat="38.6360980" lon="-0.7638530">
        <ele>686.8</ele>
        <time>2019-05-12T06:18:16Z</time>
      </trkpt>
      <trkpt lat="38.6361000" lon="-0.7638140">
        <ele>687.4</ele>
        <time>2019-05-12T06:18:18Z</time>
      </trkpt>
      <trkpt lat="38.6361090" lon="-0.7637400">
        <ele>688.6</ele>
        <time>2019-05-12T06:18:22Z</time>
      </trkpt>
      <trkpt lat="38.6361160" lon="-0.7637070">
        <ele>689.2</ele>
        <time>2019-05-12T06:18:24Z</time>
      </trkpt>
      <trkpt lat="38.6361140" lon="-0.7636680">
        <ele>689.8</ele>
        <time>2019-05-12T06:18:26Z</time>
      </trkpt>
      <trkpt lat="38.6361000" lon="-0.7636200">
        <ele>690.8</ele>
        <time>2019-05-12T06:18:29Z</time>
      </trkpt>
      <trkpt lat="38.6361050" lon="-0.7635810">
        <ele>691.4</ele>
        <time>2019-05-12T06:18:32Z</time>
      </trkpt>
      <trkpt lat="38.6361100" lon="-0.7635740">
        <ele>691.8</ele>
        <time>2019-05-12T06:18:34Z</time>
      </trkpt>
      <trkpt lat="38.6363770" lon="-0.7632410">
        <ele>701.4</ele>
        <time>2019-05-12T06:19:45Z</time>
      </trkpt>
      <trkpt lat="38.6364200" lon="-0.7632160">
        <ele>701.6</ele>
        <time>2019-05-12T06:19:48Z</time>
      </trkpt>
      <trkpt lat="38.6365070" lon="-0.7631730">
        <ele>702.4</ele>
        <time>2019-05-12T06:19:53Z</time>
      </trkpt>
      <trkpt lat="38.6365400" lon="-0.7631560">
        <ele>702.8</ele>
        <time>2019-05-12T06:19:55Z</time>
      </trkpt>
      <trkpt lat="38.6365710" lon="-0.7631390">
        <ele>703.6</ele>
        <time>2019-05-12T06:19:57Z</time>
      </trkpt>
      <trkpt lat="38.6366230" lon="-0.7631290">
        <ele>704.2</ele>
        <time>2019-05-12T06:20:00Z</time>
      </trkpt>
      <trkpt lat="38.6366620" lon="-0.7631130">
        <ele>704.4</ele>
        <time>2019-05-12T06:20:02Z</time>
      </trkpt>
      <trkpt lat="38.6366840" lon="-0.7631040">
        <ele>704.6</ele>
        <time>2019-05-12T06:20:03Z</time>
      </trkpt>
      <trkpt lat="38.6367550" lon="-0.7630740">
        <ele>704.8</ele>
        <time>2019-05-12T06:20:06Z</time>
      </trkpt>
      <trkpt lat="38.6368190" lon="-0.7630560">
        <ele>705.6</ele>
        <time>2019-05-12T06:20:09Z</time>
      </trkpt>
      <trkpt lat="38.6368620" lon="-0.7630550">
        <ele>706.2</ele>
        <time>2019-05-12T06:20:11Z</time>
      </trkpt>
      <trkpt lat="38.6368970" lon="-0.7630460">
        <ele>706.8</ele>
        <time>2019-05-12T06:20:13Z</time>
      </trkpt>
      <trkpt lat="38.6369160" lon="-0.7630080">
        <ele>707.4</ele>
        <time>2019-05-12T06:20:15Z</time>
      </trkpt>
      <trkpt lat="38.6368930" lon="-0.7629780">
        <ele>707.8</ele>
        <time>2019-05-12T06:20:17Z</time>
      </trkpt>
      <trkpt lat="38.6368710" lon="-0.7629770">
        <ele>708.2</ele>
        <time>2019-05-12T06:20:18Z</time>
      </trkpt>
      <trkpt lat="38.6368240" lon="-0.7629720">
        <ele>708.8</ele>
        <time>2019-05-12T06:20:20Z</time>
      </trkpt>
      <trkpt lat="38.6367320" lon="-0.7629600">
        <ele>708.4</ele>
        <time>2019-05-12T06:20:23Z</time>
      </trkpt>
      <trkpt lat="38.6365950" lon="-0.7629440">
        <ele>709.2</ele>
        <time>2019-05-12T06:20:28Z</time>
      </trkpt>
      <trkpt lat="38.6364930" lon="-0.7629350">
        <ele>709.8</ele>
        <time>2019-05-12T06:20:32Z</time>
      </trkpt>
      <trkpt lat="38.6364410" lon="-0.7629300">
        <ele>710.4</ele>
        <time>2019-05-12T06:20:34Z</time>
      </trkpt>
      <trkpt lat="38.6363130" lon="-0.7629110">
        <ele>710.8</ele>
        <time>2019-05-12T06:20:39Z</time>
      </trkpt>
      <trkpt lat="38.6362760" lon="-0.7629030">
        <ele>711.2</ele>
        <time>2019-05-12T06:20:41Z</time>
      </trkpt>
      <trkpt lat="38.6362030" lon="-0.7628740">
        <ele>712.2</ele>
        <time>2019-05-12T06:20:45Z</time>
      </trkpt>
      <trkpt lat="38.6361490" lon="-0.7628460">
        <ele>712.4</ele>
        <time>2019-05-12T06:20:48Z</time>
      </trkpt>
      <trkpt lat="38.6360920" lon="-0.7628170">
        <ele>713.2</ele>
        <time>2019-05-12T06:20:51Z</time>
      </trkpt>
      <trkpt lat="38.6360490" lon="-0.7628020">
        <ele>713.4</ele>
        <time>2019-05-12T06:20:53Z</time>
      </trkpt>
      <trkpt lat="38.6359970" lon="-0.7627790">
        <ele>714.2</ele>
        <time>2019-05-12T06:20:56Z</time>
      </trkpt>
      <trkpt lat="38.6359420" lon="-0.7627550">
        <ele>715.2</ele>
        <time>2019-05-12T06:20:59Z</time>
      </trkpt>
      <trkpt lat="38.6359240" lon="-0.7627440">
        <ele>715.2</ele>
        <time>2019-05-12T06:21:00Z</time>
      </trkpt>
      <trkpt lat="38.6358460" lon="-0.7627080">
        <ele>716.4</ele>
        <time>2019-05-12T06:21:04Z</time>
      </trkpt>
      <trkpt lat="38.6358250" lon="-0.7627030">
        <ele>716.6</ele>
        <time>2019-05-12T06:21:05Z</time>
      </trkpt>
      <trkpt lat="38.6357600" lon="-0.7626740">
        <ele>717.4</ele>
        <time>2019-05-12T06:21:08Z</time>
      </trkpt>
      <trkpt lat="38.6356990" lon="-0.7626410">
        <ele>718.2</ele>
        <time>2019-05-12T06:21:11Z</time>
      </trkpt>
      <trkpt lat="38.6356880" lon="-0.7626240">
        <ele>718.6</ele>
        <time>2019-05-12T06:21:12Z</time>
      </trkpt>
      <trkpt lat="38.6355910" lon="-0.7625400">
        <ele>719.4</ele>
        <time>2019-05-12T06:21:18Z</time>
      </trkpt>
      <trkpt lat="38.6355550" lon="-0.7625100">
        <ele>719.6</ele>
        <time>2019-05-12T06:21:20Z</time>
      </trkpt>
      <trkpt lat="38.6354450" lon="-0.7624140">
        <ele>720.4</ele>
        <time>2019-05-12T06:21:26Z</time>
      </trkpt>
      <trkpt lat="38.6354160" lon="-0.7623700">
        <ele>720.8</ele>
        <time>2019-05-12T06:21:28Z</time>
      </trkpt>
      <trkpt lat="38.6353870" lon="-0.7623210">
        <ele>721.0</ele>
        <time>2019-05-12T06:21:31Z</time>
      </trkpt>
      <trkpt lat="38.6353310" lon="-0.7622080">
        <ele>721.6</ele>
        <time>2019-05-12T06:21:36Z</time>
      </trkpt>
      <trkpt lat="38.6353110" lon="-0.7621540">
        <ele>721.8</ele>
        <time>2019-05-12T06:21:38Z</time>
      </trkpt>
      <trkpt lat="38.6352770" lon="-0.7620070">
        <ele>722.2</ele>
        <time>2019-05-12T06:21:43Z</time>
      </trkpt>
      <trkpt lat="38.6352850" lon="-0.7618820">
        <ele>722.8</ele>
        <time>2019-05-12T06:21:47Z</time>
      </trkpt>
      <trkpt lat="38.6353030" lon="-0.7618510">
        <ele>723.0</ele>
        <time>2019-05-12T06:21:49Z</time>
      </trkpt>
      <trkpt lat="38.6353420" lon="-0.7618010">
        <ele>724.0</ele>
        <time>2019-05-12T06:21:52Z</time>
      </trkpt>
      <trkpt lat="38.6353560" lon="-0.7617880">
        <ele>724.4</ele>
        <time>2019-05-12T06:21:53Z</time>
      </trkpt>
      <trkpt lat="38.6354210" lon="-0.7617260">
        <ele>724.6</ele>
        <time>2019-05-12T06:21:57Z</time>
      </trkpt>
      <trkpt lat="38.6355650" lon="-0.7616340">
        <ele>725.2</ele>
        <time>2019-05-12T06:22:04Z</time>
      </trkpt>
      <trkpt lat="38.6357190" lon="-0.7615430">
        <ele>725.8</ele>
        <time>2019-05-12T06:22:11Z</time>
      </trkpt>
      <trkpt lat="38.6357940" lon="-0.7615020">
        <ele>726.4</ele>
        <time>2019-05-12T06:22:14Z</time>
      </trkpt>
      <trkpt lat="38.6359060" lon="-0.7614330">
        <ele>726.2</ele>
        <time>2019-05-12T06:22:18Z</time>
      </trkpt>
      <trkpt lat="38.6360820" lon="-0.7613240">
        <ele>726.0</ele>
        <time>2019-05-12T06:22:23Z</time>
      </trkpt>
      <trkpt lat="38.6362010" lon="-0.7612390">
        <ele>726.4</ele>
        <time>2019-05-12T06:22:28Z</time>
      </trkpt>
      <trkpt lat="38.6363820" lon="-0.7610950">
        <ele>727.6</ele>
        <time>2019-05-12T06:22:37Z</time>
      </trkpt>
      <trkpt lat="38.6363920" lon="-0.7610760">
        <ele>727.8</ele>
        <time>2019-05-12T06:22:38Z</time>
      </trkpt>
      <trkpt lat="38.6363820" lon="-0.7610170">
        <ele>728.2</ele>
        <time>2019-05-12T06:22:41Z</time>
      </trkpt>
      <trkpt lat="38.6362870" lon="-0.7610140">
        <ele>728.0</ele>
        <time>2019-05-12T06:22:45Z</time>
      </trkpt>
      <trkpt lat="38.6362570" lon="-0.7610180">
        <ele>728.0</ele>
        <time>2019-05-12T06:22:46Z</time>
      </trkpt>
      <trkpt lat="38.6361370" lon="-0.7610430">
        <ele>728.2</ele>
        <time>2019-05-12T06:22:50Z</time>
      </trkpt>
      <trkpt lat="38.6360760" lon="-0.7610500">
        <ele>728.8</ele>
        <time>2019-05-12T06:22:52Z</time>
      </trkpt>
      <trkpt lat="38.6359710" lon="-0.7610510">
        <ele>729.2</ele>
        <time>2019-05-12T06:22:55Z</time>
      </trkpt>
      <trkpt lat="38.6358570" lon="-0.7610040">
        <ele>730.0</ele>
        <time>2019-05-12T06:22:59Z</time>
      </trkpt>
      <trkpt lat="38.6357770" lon="-0.7609560">
        <ele>730.8</ele>
        <time>2019-05-12T06:23:03Z</time>
      </trkpt>
      <trkpt lat="38.6357540" lon="-0.7609460">
        <ele>731.0</ele>
        <time>2019-05-12T06:23:04Z</time>
      </trkpt>
      <trkpt lat="38.6356860" lon="-0.7608470">
        <ele>731.4</ele>
        <time>2019-05-12T06:23:08Z</time>
      </trkpt>
      <trkpt lat="38.6356450" lon="-0.7607120">
        <ele>732.2</ele>
        <time>2019-05-12T06:23:12Z</time>
      </trkpt>
      <trkpt lat="38.6356260" lon="-0.7606000">
        <ele>732.2</ele>
        <time>2019-05-12T06:23:15Z</time>
      </trkpt>
      <trkpt lat="38.6356160" lon="-0.7604840">
        <ele>732.6</ele>
        <time>2019-05-12T06:23:18Z</time>
      </trkpt>
      <trkpt lat="38.6355930" lon="-0.7604610">
        <ele>732.6</ele>
        <time>2019-05-12T06:23:19Z</time>
      </trkpt>
      <trkpt lat="38.6355130" lon="-0.7604400">
        <ele>732.4</ele>
        <time>2019-05-12T06:23:22Z</time>
      </trkpt>
      <trkpt lat="38.6354800" lon="-0.7604350">
        <ele>732.6</ele>
        <time>2019-05-12T06:23:23Z</time>
      </trkpt>
      <trkpt lat="38.6353560" lon="-0.7604070">
        <ele>733.2</ele>
        <time>2019-05-12T06:23:27Z</time>
      </trkpt>
      <trkpt lat="38.6353250" lon="-0.7603960">
        <ele>733.0</ele>
        <time>2019-05-12T06:23:28Z</time>
      </trkpt>
      <trkpt lat="38.6352180" lon="-0.7603410">
        <ele>733.4</ele>
        <time>2019-05-12T06:23:32Z</time>
      </trkpt>
      <trkpt lat="38.6351410" lon="-0.7603020">
        <ele>734.4</ele>
        <time>2019-05-12T06:23:35Z</time>
      </trkpt>
      <trkpt lat="38.6350430" lon="-0.7602430">
        <ele>735.2</ele>
        <time>2019-05-12T06:23:39Z</time>
      </trkpt>
      <trkpt lat="38.6350180" lon="-0.7602290">
        <ele>735.4</ele>
        <time>2019-05-12T06:23:40Z</time>
      </trkpt>
      <trkpt lat="38.6349180" lon="-0.7601790">
        <ele>736.2</ele>
        <time>2019-05-12T06:23:44Z</time>
      </trkpt>
      <trkpt lat="38.6347970" lon="-0.7600730">
        <ele>736.6</ele>
        <time>2019-05-12T06:23:50Z</time>
      </trkpt>
      <trkpt lat="38.6346970" lon="-0.7599340">
        <ele>737.6</ele>
        <time>2019-05-12T06:23:56Z</time>
      </trkpt>
      <trkpt lat="38.6346810" lon="-0.7599040">
        <ele>737.8</ele>
        <time>2019-05-12T06:23:57Z</time>
      </trkpt>
      <trkpt lat="38.6346040" lon="-0.7597590">
        <ele>737.6</ele>
        <time>2019-05-12T06:24:02Z</time>
      </trkpt>
      <trkpt lat="38.6345240" lon="-0.7595490">
        <ele>738.0</ele>
        <time>2019-05-12T06:24:08Z</time>
      </trkpt>
      <trkpt lat="38.6344380" lon="-0.7593390">
        <ele>737.8</ele>
        <time>2019-05-12T06:24:13Z</time>
      </trkpt>
      <trkpt lat="38.6344010" lon="-0.7593210">
        <ele>737.6</ele>
        <time>2019-05-12T06:24:14Z</time>
      </trkpt>
      <trkpt lat="38.6342500" lon="-0.7593010">
        <ele>737.4</ele>
        <time>2019-05-12T06:24:18Z</time>
      </trkpt>
      <trkpt lat="38.6341830" lon="-0.7592750">
        <ele>738.2</ele>
        <time>2019-05-12T06:24:20Z</time>
      </trkpt>
      <trkpt lat="38.6341060" lon="-0.7592270">
        <ele>738.4</ele>
        <time>2019-05-12T06:24:23Z</time>
      </trkpt>
      <trkpt lat="38.6340540" lon="-0.7591930">
        <ele>739.0</ele>
        <time>2019-05-12T06:24:25Z</time>
      </trkpt>
      <trkpt lat="38.6339600" lon="-0.7591410">
        <ele>739.8</ele>
        <time>2019-05-12T06:24:29Z</time>
      </trkpt>
      <trkpt lat="38.6339280" lon="-0.7591080">
        <ele>740.0</ele>
        <time>2019-05-12T06:24:31Z</time>
      </trkpt>
      <trkpt lat="38.6339130" lon="-0.7590610">
        <ele>740.8</ele>
        <time>2019-05-12T06:24:33Z</time>
      </trkpt>
      <trkpt lat="38.6339010" lon="-0.7590390">
        <ele>741.2</ele>
        <time>2019-05-12T06:24:34Z</time>
      </trkpt>
      <trkpt lat="38.6338630" lon="-0.7589700">
        <ele>742.4</ele>
        <time>2019-05-12T06:24:38Z</time>
      </trkpt>
      <trkpt lat="38.6338540" lon="-0.7589510">
        <ele>742.6</ele>
        <time>2019-05-12T06:24:39Z</time>
      </trkpt>
      <trkpt lat="38.6338340" lon="-0.7588280">
        <ele>742.8</ele>
        <time>2019-05-12T06:24:43Z</time>
      </trkpt>
      <trkpt lat="38.6337990" lon="-0.7585990">
        <ele>743.2</ele>
        <time>2019-05-12T06:24:49Z</time>
      </trkpt>
      <trkpt lat="38.6337920" lon="-0.7585370">
        <ele>743.4</ele>
        <time>2019-05-12T06:24:51Z</time>
      </trkpt>
      <trkpt lat="38.6338100" lon="-0.7584790">
        <ele>743.6</ele>
        <time>2019-05-12T06:24:53Z</time>
      </trkpt>
      <trkpt lat="38.6338260" lon="-0.7584600">
        <ele>743.6</ele>
        <time>2019-05-12T06:24:54Z</time>
      </trkpt>
      <trkpt lat="38.6339000" lon="-0.7583690">
        <ele>744.4</ele>
        <time>2019-05-12T06:24:59Z</time>
      </trkpt>
      <trkpt lat="38.6339300" lon="-0.7583210">
        <ele>744.8</ele>
        <time>2019-05-12T06:25:01Z</time>
      </trkpt>
      <trkpt lat="38.6340030" lon="-0.7582090">
        <ele>745.8</ele>
        <time>2019-05-12T06:25:06Z</time>
      </trkpt>
      <trkpt lat="38.6340190" lon="-0.7581890">
        <ele>746.2</ele>
        <time>2019-05-12T06:25:07Z</time>
      </trkpt>
      <trkpt lat="38.6340760" lon="-0.7580980">
        <ele>746.8</ele>
        <time>2019-05-12T06:25:11Z</time>
      </trkpt>
      <trkpt lat="38.6341080" lon="-0.7580550">
        <ele>747.2</ele>
        <time>2019-05-12T06:25:13Z</time>
      </trkpt>
      <trkpt lat="38.6341580" lon="-0.7579870">
        <ele>748.0</ele>
        <time>2019-05-12T06:25:16Z</time>
      </trkpt>
      <trkpt lat="38.6342140" lon="-0.7579140">
        <ele>748.2</ele>
        <time>2019-05-12T06:25:19Z</time>
      </trkpt>
      <trkpt lat="38.6343050" lon="-0.7577830">
        <ele>748.8</ele>
        <time>2019-05-12T06:25:24Z</time>
      </trkpt>
      <trkpt lat="38.6343710" lon="-0.7577030">
        <ele>749.0</ele>
        <time>2019-05-12T06:25:27Z</time>
      </trkpt>
      <trkpt lat="38.6344190" lon="-0.7576500">
        <ele>748.8</ele>
        <time>2019-05-12T06:25:29Z</time>
      </trkpt>
      <trkpt lat="38.6345170" lon="-0.7575230">
        <ele>749.8</ele>
        <time>2019-05-12T06:25:34Z</time>
      </trkpt>
      <trkpt lat="38.6345330" lon="-0.7575020">
        <ele>750.2</ele>
        <time>2019-05-12T06:25:35Z</time>
      </trkpt>
      <trkpt lat="38.6345930" lon="-0.7574170">
        <ele>751.4</ele>
        <time>2019-05-12T06:25:39Z</time>
      </trkpt>
      <trkpt lat="38.6346310" lon="-0.7573650">
        <ele>751.6</ele>
        <time>2019-05-12T06:25:41Z</time>
      </trkpt>
      <trkpt lat="38.6346830" lon="-0.7572990">
        <ele>752.4</ele>
        <time>2019-05-12T06:25:44Z</time>
      </trkpt>
      <trkpt lat="38.6347310" lon="-0.7572320">
        <ele>752.6</ele>
        <time>2019-05-12T06:25:48Z</time>
      </trkpt>
      <trkpt lat="38.6347440" lon="-0.7572340">
        <ele>753.0</ele>
        <time>2019-05-12T06:25:49Z</time>
      </trkpt>
      <trkpt lat="38.6347720" lon="-0.7572420">
        <ele>753.2</ele>
        <time>2019-05-12T06:25:51Z</time>
      </trkpt>
      <trkpt lat="38.6347760" lon="-0.7572740">
        <ele>753.6</ele>
        <time>2019-05-12T06:25:53Z</time>
      </trkpt>
      <trkpt lat="38.6347720" lon="-0.7574040">
        <ele>754.8</ele>
        <time>2019-05-12T06:25:59Z</time>
      </trkpt>
      <trkpt lat="38.6347730" lon="-0.7575080">
        <ele>755.6</ele>
        <time>2019-05-12T06:26:02Z</time>
      </trkpt>
      <trkpt lat="38.6347740" lon="-0.7575820">
        <ele>755.8</ele>
        <time>2019-05-12T06:26:04Z</time>
      </trkpt>
      <trkpt lat="38.6347740" lon="-0.7576560">
        <ele>755.8</ele>
        <time>2019-05-12T06:26:06Z</time>
      </trkpt>
      <trkpt lat="38.6347540" lon="-0.7578110">
        <ele>756.0</ele>
        <time>2019-05-12T06:26:11Z</time>
      </trkpt>
      <trkpt lat="38.6347230" lon="-0.7579040">
        <ele>757.0</ele>
        <time>2019-05-12T06:26:15Z</time>
      </trkpt>
      <trkpt lat="38.6347080" lon="-0.7579330">
        <ele>757.4</ele>
        <time>2019-05-12T06:26:16Z</time>
      </trkpt>
      <trkpt lat="38.6346660" lon="-0.7580580">
        <ele>758.2</ele>
        <time>2019-05-12T06:26:20Z</time>
      </trkpt>
      <trkpt lat="38.6346620" lon="-0.7580910">
        <ele>758.4</ele>
        <time>2019-05-12T06:26:21Z</time>
      </trkpt>
      <trkpt lat="38.6346780" lon="-0.7581460">
        <ele>758.8</ele>
        <time>2019-05-12T06:26:23Z</time>
      </trkpt>
      <trkpt lat="38.6347040" lon="-0.7581820">
        <ele>759.4</ele>
        <time>2019-05-12T06:26:25Z</time>
      </trkpt>
      <trkpt lat="38.6347430" lon="-0.7582580">
        <ele>760.2</ele>
        <time>2019-05-12T06:26:29Z</time>
      </trkpt>
      <trkpt lat="38.6347520" lon="-0.7582820">
        <ele>760.4</ele>
        <time>2019-05-12T06:26:30Z</time>
      </trkpt>
      <trkpt lat="38.6348490" lon="-0.7584370">
        <ele>761.4</ele>
        <time>2019-05-12T06:26:36Z</time>
      </trkpt>
      <trkpt lat="38.6349720" lon="-0.7585810">
        <ele>762.0</ele>
        <time>2019-05-12T06:26:42Z</time>
      </trkpt>
      <trkpt lat="38.6350630" lon="-0.7587040">
        <ele>762.6</ele>
        <time>2019-05-12T06:26:48Z</time>
      </trkpt>
      <trkpt lat="38.6350900" lon="-0.7586670">
        <ele>763.2</ele>
        <time>2019-05-12T06:26:52Z</time>
      </trkpt>
      <trkpt lat="38.6350820" lon="-0.7586480">
        <ele>763.4</ele>
        <time>2019-05-12T06:26:53Z</time>
      </trkpt>
      <trkpt lat="38.6350750" lon="-0.7586220">
        <ele>763.8</ele>
        <time>2019-05-12T06:26:54Z</time>
      </trkpt>
      <trkpt lat="38.6350590" lon="-0.7585710">
        <ele>763.8</ele>
        <time>2019-05-12T06:26:56Z</time>
      </trkpt>
      <trkpt lat="38.6350490" lon="-0.7584580">
        <ele>764.8</ele>
        <time>2019-05-12T06:27:00Z</time>
      </trkpt>
      <trkpt lat="38.6350360" lon="-0.7583790">
        <ele>765.2</ele>
        <time>2019-05-12T06:27:03Z</time>
      </trkpt>
      <trkpt lat="38.6350130" lon="-0.7582480">
        <ele>766.0</ele>
        <time>2019-05-12T06:27:07Z</time>
      </trkpt>
      <trkpt lat="38.6350270" lon="-0.7581600">
        <ele>765.8</ele>
        <time>2019-05-12T06:27:10Z</time>
      </trkpt>
      <trkpt lat="38.6350750" lon="-0.7580460">
        <ele>766.8</ele>
        <time>2019-05-12T06:27:16Z</time>
      </trkpt>
      <trkpt lat="38.6350850" lon="-0.7580460">
        <ele>767.0</ele>
        <time>2019-05-12T06:27:17Z</time>
      </trkpt>
      <trkpt lat="38.6351020" lon="-0.7581170">
        <ele>767.8</ele>
        <time>2019-05-12T06:27:21Z</time>
      </trkpt>
      <trkpt lat="38.6351000" lon="-0.7581410">
        <ele>768.2</ele>
        <time>2019-05-12T06:27:22Z</time>
      </trkpt>
      <trkpt lat="38.6351190" lon="-0.7582000">
        <ele>768.4</ele>
        <time>2019-05-12T06:27:25Z</time>
      </trkpt>
      <trkpt lat="38.6351280" lon="-0.7582140">
        <ele>768.6</ele>
        <time>2019-05-12T06:27:26Z</time>
      </trkpt>
      <trkpt lat="38.6351560" lon="-0.7582720">
        <ele>769.2</ele>
        <time>2019-05-12T06:27:29Z</time>
      </trkpt>
      <trkpt lat="38.6352010" lon="-0.7583660">
        <ele>769.8</ele>
        <time>2019-05-12T06:27:33Z</time>
      </trkpt>
      <trkpt lat="38.6352250" lon="-0.7584240">
        <ele>770.4</ele>
        <time>2019-05-12T06:27:35Z</time>
      </trkpt>
      <trkpt lat="38.6352570" lon="-0.7584810">
        <ele>770.8</ele>
        <time>2019-05-12T06:27:38Z</time>
      </trkpt>
      <trkpt lat="38.6352670" lon="-0.7584930">
        <ele>771.0</ele>
        <time>2019-05-12T06:27:39Z</time>
      </trkpt>
      <trkpt lat="38.6353040" lon="-0.7584820">
        <ele>771.4</ele>
        <time>2019-05-12T06:27:42Z</time>
      </trkpt>
      <trkpt lat="38.6353030" lon="-0.7584650">
        <ele>772.0</ele>
        <time>2019-05-12T06:27:43Z</time>
      </trkpt>
      <trkpt lat="38.6353050" lon="-0.7584260">
        <ele>772.2</ele>
        <time>2019-05-12T06:27:45Z</time>
      </trkpt>
      <trkpt lat="38.6353140" lon="-0.7583610">
        <ele>772.6</ele>
        <time>2019-05-12T06:27:48Z</time>
      </trkpt>
      <trkpt lat="38.6353210" lon="-0.7583110">
        <ele>772.8</ele>
        <time>2019-05-12T06:27:50Z</time>
      </trkpt>
      <trkpt lat="38.6353230" lon="-0.7582400">
        <ele>773.8</ele>
        <time>2019-05-12T06:27:53Z</time>
      </trkpt>
      <trkpt lat="38.6353490" lon="-0.7581670">
        <ele>774.2</ele>
        <time>2019-05-12T06:27:57Z</time>
      </trkpt>
      <trkpt lat="38.6353600" lon="-0.7581200">
        <ele>774.8</ele>
        <time>2019-05-12T06:27:59Z</time>
      </trkpt>
      <trkpt lat="38.6353700" lon="-0.7581000">
        <ele>774.6</ele>
        <time>2019-05-12T06:28:00Z</time>
      </trkpt>
      <trkpt lat="38.6354020" lon="-0.7580300">
        <ele>775.0</ele>
        <time>2019-05-12T06:28:03Z</time>
      </trkpt>
      <trkpt lat="38.6354260" lon="-0.7579580">
        <ele>775.8</ele>
        <time>2019-05-12T06:28:06Z</time>
      </trkpt>
      <trkpt lat="38.6354360" lon="-0.7579340">
        <ele>776.0</ele>
        <time>2019-05-12T06:28:07Z</time>
      </trkpt>
      <trkpt lat="38.6354590" lon="-0.7578570">
        <ele>776.4</ele>
        <time>2019-05-12T06:28:10Z</time>
      </trkpt>
      <trkpt lat="38.6354840" lon="-0.7577980">
        <ele>777.2</ele>
        <time>2019-05-12T06:28:13Z</time>
      </trkpt>
      <trkpt lat="38.6355100" lon="-0.7577230">
        <ele>777.8</ele>
        <time>2019-05-12T06:28:17Z</time>
      </trkpt>
      <trkpt lat="38.6355160" lon="-0.7577070">
        <ele>778.2</ele>
        <time>2019-05-12T06:28:18Z</time>
      </trkpt>
      <trkpt lat="38.6355590" lon="-0.7576090">
        <ele>779.2</ele>
        <time>2019-05-12T06:28:23Z</time>
      </trkpt>
      <trkpt lat="38.6355680" lon="-0.7575900">
        <ele>779.4</ele>
        <time>2019-05-12T06:28:24Z</time>
      </trkpt>
      <trkpt lat="38.6356200" lon="-0.7574760">
        <ele>780.2</ele>
        <time>2019-05-12T06:28:29Z</time>
      </trkpt>
      <trkpt lat="38.6356670" lon="-0.7574180">
        <ele>780.6</ele>
        <time>2019-05-12T06:28:32Z</time>
      </trkpt>
      <trkpt lat="38.6357100" lon="-0.7573660">
        <ele>781.2</ele>
        <time>2019-05-12T06:28:35Z</time>
      </trkpt>
      <trkpt lat="38.6358070" lon="-0.7572660">
        <ele>781.6</ele>
        <time>2019-05-12T06:28:40Z</time>
      </trkpt>
      <trkpt lat="38.6358280" lon="-0.7572430">
        <ele>781.4</ele>
        <time>2019-05-12T06:28:41Z</time>
      </trkpt>
      <trkpt lat="38.6359660" lon="-0.7571200">
        <ele>782.6</ele>
        <time>2019-05-12T06:28:48Z</time>
      </trkpt>
      <trkpt lat="38.6359830" lon="-0.7571070">
        <ele>782.8</ele>
        <time>2019-05-12T06:28:49Z</time>
      </trkpt>
      <trkpt lat="38.6360740" lon="-0.7570320">
        <ele>783.6</ele>
        <time>2019-05-12T06:28:54Z</time>
      </trkpt>
      <trkpt lat="38.6360870" lon="-0.7570210">
        <ele>783.8</ele>
        <time>2019-05-12T06:28:55Z</time>
      </trkpt>
      <trkpt lat="38.6361600" lon="-0.7569680">
        <ele>785.0</ele>
        <time>2019-05-12T06:29:00Z</time>
      </trkpt>
      <trkpt lat="38.6361730" lon="-0.7569600">
        <ele>785.4</ele>
        <time>2019-05-12T06:29:01Z</time>
      </trkpt>
      <trkpt lat="38.6362140" lon="-0.7569160">
        <ele>786.0</ele>
        <time>2019-05-12T06:29:04Z</time>
      </trkpt>
      <trkpt lat="38.6362540" lon="-0.7568830">
        <ele>786.8</ele>
        <time>2019-05-12T06:29:07Z</time>
      </trkpt>
      <trkpt lat="38.6362650" lon="-0.7568690">
        <ele>787.0</ele>
        <time>2019-05-12T06:29:08Z</time>
      </trkpt>
      <trkpt lat="38.6363070" lon="-0.7568210">
        <ele>787.6</ele>
        <time>2019-05-12T06:29:12Z</time>
      </trkpt>
      <trkpt lat="38.6363130" lon="-0.7568060">
        <ele>788.0</ele>
        <time>2019-05-12T06:29:13Z</time>
      </trkpt>
      <trkpt lat="38.6363140" lon="-0.7567880">
        <ele>788.4</ele>
        <time>2019-05-12T06:29:14Z</time>
      </trkpt>
      <trkpt lat="38.6362920" lon="-0.7567330">
        <ele>789.2</ele>
        <time>2019-05-12T06:29:17Z</time>
      </trkpt>
      <trkpt lat="38.6362800" lon="-0.7567190">
        <ele>789.4</ele>
        <time>2019-05-12T06:29:18Z</time>
      </trkpt>
      <trkpt lat="38.6362150" lon="-0.7566000">
        <ele>790.4</ele>
        <time>2019-05-12T06:29:24Z</time>
      </trkpt>
      <trkpt lat="38.6361710" lon="-0.7565220">
        <ele>791.4</ele>
        <time>2019-05-12T06:29:28Z</time>
      </trkpt>
      <trkpt lat="38.6361640" lon="-0.7565050">
        <ele>791.8</ele>
        <time>2019-05-12T06:29:29Z</time>
      </trkpt>
      <trkpt lat="38.6361390" lon="-0.7564500">
        <ele>792.6</ele>
        <time>2019-05-12T06:29:32Z</time>
      </trkpt>
      <trkpt lat="38.6360950" lon="-0.7563690">
        <ele>793.6</ele>
        <time>2019-05-12T06:29:36Z</time>
      </trkpt>
      <trkpt lat="38.6360580" lon="-0.7563120">
        <ele>794.0</ele>
        <time>2019-05-12T06:29:39Z</time>
      </trkpt>
      <trkpt lat="38.6360320" lon="-0.7562690">
        <ele>794.6</ele>
        <time>2019-05-12T06:29:41Z</time>
      </trkpt>
      <trkpt lat="38.6360110" lon="-0.7562200">
        <ele>794.6</ele>
        <time>2019-05-12T06:29:43Z</time>
      </trkpt>
      <trkpt lat="38.6360010" lon="-0.7561690">
        <ele>794.8</ele>
        <time>2019-05-12T06:29:45Z</time>
      </trkpt>
      <trkpt lat="38.6359930" lon="-0.7561210">
        <ele>795.2</ele>
        <time>2019-05-12T06:29:47Z</time>
      </trkpt>
      <trkpt lat="38.6359920" lon="-0.7560390">
        <ele>795.8</ele>
        <time>2019-05-12T06:29:51Z</time>
      </trkpt>
      <trkpt lat="38.6360010" lon="-0.7560010">
        <ele>796.4</ele>
        <time>2019-05-12T06:29:53Z</time>
      </trkpt>
      <trkpt lat="38.6360130" lon="-0.7559800">
        <ele>797.0</ele>
        <time>2019-05-12T06:29:55Z</time>
      </trkpt>
      <trkpt lat="38.6360250" lon="-0.7559400">
        <ele>797.8</ele>
        <time>2019-05-12T06:29:58Z</time>
      </trkpt>
      <trkpt lat="38.6360360" lon="-0.7559240">
        <ele>798.0</ele>
        <time>2019-05-12T06:29:59Z</time>
      </trkpt>
      <trkpt lat="38.6360740" lon="-0.7558860">
        <ele>798.6</ele>
        <time>2019-05-12T06:30:02Z</time>
      </trkpt>
      <trkpt lat="38.6361070" lon="-0.7558480">
        <ele>799.0</ele>
        <time>2019-05-12T06:30:08Z</time>
      </trkpt>
      <trkpt lat="38.6361220" lon="-0.7558370">
        <ele>799.2</ele>
        <time>2019-05-12T06:30:09Z</time>
      </trkpt>
      <trkpt lat="38.6362310" lon="-0.7557990">
        <ele>800.2</ele>
        <time>2019-05-12T06:30:15Z</time>
      </trkpt>
      <trkpt lat="38.6363260" lon="-0.7557680">
        <ele>801.4</ele>
        <time>2019-05-12T06:30:21Z</time>
      </trkpt>
      <trkpt lat="38.6364480" lon="-0.7557390">
        <ele>802.2</ele>
        <time>2019-05-12T06:30:27Z</time>
      </trkpt>
      <trkpt lat="38.6364720" lon="-0.7557350">
        <ele>802.6</ele>
        <time>2019-05-12T06:30:28Z</time>
      </trkpt>
      <trkpt lat="38.6365870" lon="-0.7557000">
        <ele>803.6</ele>
        <time>2019-05-12T06:30:33Z</time>
      </trkpt>
      <trkpt lat="38.6367660" lon="-0.7556350">
        <ele>803.6</ele>
        <time>2019-05-12T06:30:39Z</time>
      </trkpt>
      <trkpt lat="38.6369730" lon="-0.7555460">
        <ele>804.2</ele>
        <time>2019-05-12T06:30:46Z</time>
      </trkpt>
      <trkpt lat="38.6371260" lon="-0.7554490">
        <ele>804.4</ele>
        <time>2019-05-12T06:30:51Z</time>
      </trkpt>
      <trkpt lat="38.6372770" lon="-0.7553110">
        <ele>804.6</ele>
        <time>2019-05-12T06:30:57Z</time>
      </trkpt>
      <trkpt lat="38.6372980" lon="-0.7552900">
        <ele>804.8</ele>
        <time>2019-05-12T06:30:58Z</time>
      </trkpt>
      <trkpt lat="38.6374130" lon="-0.7551880">
        <ele>805.4</ele>
        <time>2019-05-12T06:31:03Z</time>
      </trkpt>
      <trkpt lat="38.6375560" lon="-0.7550490">
        <ele>805.6</ele>
        <time>2019-05-12T06:31:09Z</time>
      </trkpt>
      <trkpt lat="38.6376510" lon="-0.7549730">
        <ele>805.6</ele>
        <time>2019-05-12T06:31:12Z</time>
      </trkpt>
      <trkpt lat="38.6376850" lon="-0.7549350">
        <ele>805.4</ele>
        <time>2019-05-12T06:31:13Z</time>
      </trkpt>
      <trkpt lat="38.6378810" lon="-0.7547310">
        <ele>805.2</ele>
        <time>2019-05-12T06:31:19Z</time>
      </trkpt>
      <trkpt lat="38.6379530" lon="-0.7546510">
        <ele>806.0</ele>
        <time>2019-05-12T06:31:22Z</time>
      </trkpt>
      <trkpt lat="38.6379910" lon="-0.7546080">
        <ele>806.2</ele>
        <time>2019-05-12T06:31:24Z</time>
      </trkpt>
      <trkpt lat="38.6380250" lon="-0.7545770">
        <ele>807.0</ele>
        <time>2019-05-12T06:31:26Z</time>
      </trkpt>
      <trkpt lat="38.6380350" lon="-0.7545570">
        <ele>807.2</ele>
        <time>2019-05-12T06:31:27Z</time>
      </trkpt>
      <trkpt lat="38.6380150" lon="-0.7545150">
        <ele>807.2</ele>
        <time>2019-05-12T06:31:29Z</time>
      </trkpt>
      <trkpt lat="38.6379310" lon="-0.7544930">
        <ele>807.6</ele>
        <time>2019-05-12T06:31:32Z</time>
      </trkpt>
      <trkpt lat="38.6377400" lon="-0.7544490">
        <ele>808.0</ele>
        <time>2019-05-12T06:31:38Z</time>
      </trkpt>
      <trkpt lat="38.6375200" lon="-0.7544270">
        <ele>807.2</ele>
        <time>2019-05-12T06:31:43Z</time>
      </trkpt>
      <trkpt lat="38.6374680" lon="-0.7544190">
        <ele>807.0</ele>
        <time>2019-05-12T06:31:44Z</time>
      </trkpt>
      <trkpt lat="38.6373590" lon="-0.7543810">
        <ele>806.4</ele>
        <time>2019-05-12T06:31:46Z</time>
      </trkpt>
      <trkpt lat="38.6372710" lon="-0.7543270">
        <ele>806.0</ele>
        <time>2019-05-12T06:31:48Z</time>
      </trkpt>
      <trkpt lat="38.6371660" lon="-0.7542430">
        <ele>806.2</ele>
        <time>2019-05-12T06:31:51Z</time>
      </trkpt>
      <trkpt lat="38.6370930" lon="-0.7541530">
        <ele>805.6</ele>
        <time>2019-05-12T06:31:53Z</time>
      </trkpt>
      <trkpt lat="38.6369650" lon="-0.7539790">
        <ele>805.0</ele>
        <time>2019-05-12T06:31:57Z</time>
      </trkpt>
      <trkpt lat="38.6369310" lon="-0.7539500">
        <ele>805.0</ele>
        <time>2019-05-12T06:31:58Z</time>
      </trkpt>
      <trkpt lat="38.6368900" lon="-0.7538880">
        <ele>804.6</ele>
        <time>2019-05-12T06:32:00Z</time>
      </trkpt>
      <trkpt lat="38.6368870" lon="-0.7538540">
        <ele>804.2</ele>
        <time>2019-05-12T06:32:01Z</time>
      </trkpt>
      <trkpt lat="38.6369060" lon="-0.7536830">
        <ele>804.2</ele>
        <time>2019-05-12T06:32:05Z</time>
      </trkpt>
      <trkpt lat="38.6369510" lon="-0.7534740">
        <ele>805.0</ele>
        <time>2019-05-12T06:32:11Z</time>
      </trkpt>
      <trkpt lat="38.6369700" lon="-0.7533950">
        <ele>805.8</ele>
        <time>2019-05-12T06:32:13Z</time>
      </trkpt>
      <trkpt lat="38.6370070" lon="-0.7532640">
        <ele>807.0</ele>
        <time>2019-05-12T06:32:17Z</time>
      </trkpt>
      <trkpt lat="38.6370420" lon="-0.7531630">
        <ele>808.2</ele>
        <time>2019-05-12T06:32:20Z</time>
      </trkpt>
      <trkpt lat="38.6370680" lon="-0.7530960">
        <ele>808.4</ele>
        <time>2019-05-12T06:32:22Z</time>
      </trkpt>
      <trkpt lat="38.6371020" lon="-0.7530160">
        <ele>809.6</ele>
        <time>2019-05-12T06:32:25Z</time>
      </trkpt>
      <trkpt lat="38.6371330" lon="-0.7529220">
        <ele>809.6</ele>
        <time>2019-05-12T06:32:28Z</time>
      </trkpt>
      <trkpt lat="38.6371870" lon="-0.7527990">
        <ele>810.6</ele>
        <time>2019-05-12T06:32:32Z</time>
      </trkpt>
      <trkpt lat="38.6372320" lon="-0.7527140">
        <ele>811.4</ele>
        <time>2019-05-12T06:32:35Z</time>
      </trkpt>
      <trkpt lat="38.6372860" lon="-0.7526070">
        <ele>811.6</ele>
        <time>2019-05-12T06:32:39Z</time>
      </trkpt>
      <trkpt lat="38.6373160" lon="-0.7525560">
        <ele>812.2</ele>
        <time>2019-05-12T06:32:41Z</time>
      </trkpt>
      <trkpt lat="38.6373450" lon="-0.7525000">
        <ele>812.6</ele>
        <time>2019-05-12T06:32:43Z</time>
      </trkpt>
      <trkpt lat="38.6373950" lon="-0.7524230">
        <ele>813.2</ele>
        <time>2019-05-12T06:32:46Z</time>
      </trkpt>
      <trkpt lat="38.6375400" lon="-0.7522660">
        <ele>812.6</ele>
        <time>2019-05-12T06:32:51Z</time>
      </trkpt>
      <trkpt lat="38.6376680" lon="-0.7521230">
        <ele>812.8</ele>
        <time>2019-05-12T06:32:56Z</time>
      </trkpt>
      <trkpt lat="38.6378430" lon="-0.7519550">
        <ele>812.8</ele>
        <time>2019-05-12T06:33:02Z</time>
      </trkpt>
      <trkpt lat="38.6379940" lon="-0.7518770">
        <ele>813.0</ele>
        <time>2019-05-12T06:33:06Z</time>
      </trkpt>
      <trkpt lat="38.6380280" lon="-0.7518470">
        <ele>813.0</ele>
        <time>2019-05-12T06:33:07Z</time>
      </trkpt>
      <trkpt lat="38.6382290" lon="-0.7516900">
        <ele>812.2</ele>
        <time>2019-05-12T06:33:12Z</time>
      </trkpt>
      <trkpt lat="38.6385070" lon="-0.7515170">
        <ele>812.2</ele>
        <time>2019-05-12T06:33:19Z</time>
      </trkpt>
      <trkpt lat="38.6386330" lon="-0.7514070">
        <ele>811.6</ele>
        <time>2019-05-12T06:33:22Z</time>
      </trkpt>
      <trkpt lat="38.6386680" lon="-0.7513550">
        <ele>811.4</ele>
        <time>2019-05-12T06:33:23Z</time>
      </trkpt>
      <trkpt lat="38.6386970" lon="-0.7513120">
        <ele>811.4</ele>
        <time>2019-05-12T06:33:24Z</time>
      </trkpt>
      <trkpt lat="38.6388310" lon="-0.7511090">
        <ele>812.2</ele>
        <time>2019-05-12T06:33:29Z</time>
      </trkpt>
      <trkpt lat="38.6389150" lon="-0.7509950">
        <ele>812.8</ele>
        <time>2019-05-12T06:33:32Z</time>
      </trkpt>
      <trkpt lat="38.6389690" lon="-0.7509290">
        <ele>813.4</ele>
        <time>2019-05-12T06:33:34Z</time>
      </trkpt>
      <trkpt lat="38.6390810" lon="-0.7507960">
        <ele>814.0</ele>
        <time>2019-05-12T06:33:38Z</time>
      </trkpt>
      <trkpt lat="38.6392180" lon="-0.7506440">
        <ele>814.6</ele>
        <time>2019-05-12T06:33:43Z</time>
      </trkpt>
      <trkpt lat="38.6394680" lon="-0.7504290">
        <ele>814.6</ele>
        <time>2019-05-12T06:33:51Z</time>
      </trkpt>
      <trkpt lat="38.6397540" lon="-0.7503050">
        <ele>814.4</ele>
        <time>2019-05-12T06:33:58Z</time>
      </trkpt>
      <trkpt lat="38.6399380" lon="-0.7502060">
        <ele>815.2</ele>
        <time>2019-05-12T06:34:03Z</time>
      </trkpt>
      <trkpt lat="38.6399790" lon="-0.7501770">
        <ele>815.0</ele>
        <time>2019-05-12T06:34:04Z</time>
      </trkpt>
      <trkpt lat="38.6400150" lon="-0.7501450">
        <ele>814.8</ele>
        <time>2019-05-12T06:34:05Z</time>
      </trkpt>
      <trkpt lat="38.6401120" lon="-0.7500230">
        <ele>815.2</ele>
        <time>2019-05-12T06:34:08Z</time>
      </trkpt>
      <trkpt lat="38.6401470" lon="-0.7499650">
        <ele>814.8</ele>
        <time>2019-05-12T06:34:09Z</time>
      </trkpt>
      <trkpt lat="38.6401810" lon="-0.7499010">
        <ele>814.0</ele>
        <time>2019-05-12T06:34:10Z</time>
      </trkpt>
      <trkpt lat="38.6402450" lon="-0.7497880">
        <ele>813.0</ele>
        <time>2019-05-12T06:34:12Z</time>
      </trkpt>
      <trkpt lat="38.6402990" lon="-0.7496600">
        <ele>813.6</ele>
        <time>2019-05-12T06:34:15Z</time>
      </trkpt>
      <trkpt lat="38.6403400" lon="-0.7495790">
        <ele>814.4</ele>
        <time>2019-05-12T06:34:17Z</time>
      </trkpt>
      <trkpt lat="38.6403910" lon="-0.7494580">
        <ele>815.2</ele>
        <time>2019-05-12T06:34:20Z</time>
      </trkpt>
      <trkpt lat="38.6404280" lon="-0.7493860">
        <ele>815.4</ele>
        <time>2019-05-12T06:34:22Z</time>
      </trkpt>
      <trkpt lat="38.6405170" lon="-0.7492020">
        <ele>816.2</ele>
        <time>2019-05-12T06:34:26Z</time>
      </trkpt>
      <trkpt lat="38.6405920" lon="-0.7490380">
        <ele>815.4</ele>
        <time>2019-05-12T06:34:29Z</time>
      </trkpt>
      <trkpt lat="38.6406660" lon="-0.7488870">
        <ele>815.2</ele>
        <time>2019-05-12T06:34:32Z</time>
      </trkpt>
      <trkpt lat="38.6406950" lon="-0.7488420">
        <ele>815.0</ele>
        <time>2019-05-12T06:34:33Z</time>
      </trkpt>
      <trkpt lat="38.6407520" lon="-0.7486810">
        <ele>815.0</ele>
        <time>2019-05-12T06:34:36Z</time>
      </trkpt>
      <trkpt lat="38.6407690" lon="-0.7486200">
        <ele>814.8</ele>
        <time>2019-05-12T06:34:37Z</time>
      </trkpt>
      <trkpt lat="38.6408230" lon="-0.7484530">
        <ele>814.8</ele>
        <time>2019-05-12T06:34:40Z</time>
      </trkpt>
      <trkpt lat="38.6408330" lon="-0.7483300">
        <ele>815.0</ele>
        <time>2019-05-12T06:34:42Z</time>
      </trkpt>
      <trkpt lat="38.6408350" lon="-0.7481440">
        <ele>814.8</ele>
        <time>2019-05-12T06:34:45Z</time>
      </trkpt>
      <trkpt lat="38.6408380" lon="-0.7479720">
        <ele>814.6</ele>
        <time>2019-05-12T06:34:48Z</time>
      </trkpt>
      <trkpt lat="38.6408400" lon="-0.7477920">
        <ele>814.4</ele>
        <time>2019-05-12T06:34:51Z</time>
      </trkpt>
      <trkpt lat="38.6408510" lon="-0.7477260">
        <ele>814.0</ele>
        <time>2019-05-12T06:34:52Z</time>
      </trkpt>
      <trkpt lat="38.6408680" lon="-0.7476600">
        <ele>814.0</ele>
        <time>2019-05-12T06:34:53Z</time>
      </trkpt>
      <trkpt lat="38.6409420" lon="-0.7474670">
        <ele>813.8</ele>
        <time>2019-05-12T06:34:56Z</time>
      </trkpt>
      <trkpt lat="38.6409870" lon="-0.7473400">
        <ele>813.6</ele>
        <time>2019-05-12T06:34:58Z</time>
      </trkpt>
      <trkpt lat="38.6410820" lon="-0.7470980">
        <ele>813.2</ele>
        <time>2019-05-12T06:35:02Z</time>
      </trkpt>
      <trkpt lat="38.6411390" lon="-0.7469560">
        <ele>812.4</ele>
        <time>2019-05-12T06:35:04Z</time>
      </trkpt>
      <trkpt lat="38.6411650" lon="-0.7468900">
        <ele>812.0</ele>
        <time>2019-05-12T06:35:05Z</time>
      </trkpt>
      <trkpt lat="38.6412330" lon="-0.7466730">
        <ele>812.6</ele>
        <time>2019-05-12T06:35:09Z</time>
      </trkpt>
      <trkpt lat="38.6412700" lon="-0.7465760">
        <ele>813.2</ele>
        <time>2019-05-12T06:35:11Z</time>
      </trkpt>
      <trkpt lat="38.6413510" lon="-0.7463670">
        <ele>812.4</ele>
        <time>2019-05-12T06:35:15Z</time>
      </trkpt>
      <trkpt lat="38.6414190" lon="-0.7461830">
        <ele>813.2</ele>
        <time>2019-05-12T06:35:20Z</time>
      </trkpt>
      <trkpt lat="38.6414630" lon="-0.7461170">
        <ele>814.4</ele>
        <time>2019-05-12T06:35:23Z</time>
      </trkpt>
      <trkpt lat="38.6415240" lon="-0.7460420">
        <ele>815.4</ele>
        <time>2019-05-12T06:35:27Z</time>
      </trkpt>
      <trkpt lat="38.6415950" lon="-0.7460030">
        <ele>816.6</ele>
        <time>2019-05-12T06:35:31Z</time>
      </trkpt>
      <trkpt lat="38.6416140" lon="-0.7459660">
        <ele>817.4</ele>
        <time>2019-05-12T06:35:33Z</time>
      </trkpt>
      <trkpt lat="38.6416220" lon="-0.7459480">
        <ele>817.6</ele>
        <time>2019-05-12T06:35:34Z</time>
      </trkpt>
      <trkpt lat="38.6416790" lon="-0.7458630">
        <ele>818.8</ele>
        <time>2019-05-12T06:35:39Z</time>
      </trkpt>
      <trkpt lat="38.6417120" lon="-0.7457440">
        <ele>819.6</ele>
        <time>2019-05-12T06:35:43Z</time>
      </trkpt>
      <trkpt lat="38.6417250" lon="-0.7457140">
        <ele>819.6</ele>
        <time>2019-05-12T06:35:44Z</time>
      </trkpt>
      <trkpt lat="38.6417650" lon="-0.7456410">
        <ele>819.8</ele>
        <time>2019-05-12T06:35:47Z</time>
      </trkpt>
      <trkpt lat="38.6418110" lon="-0.7455810">
        <ele>820.6</ele>
        <time>2019-05-12T06:35:50Z</time>
      </trkpt>
      <trkpt lat="38.6418500" lon="-0.7455640">
        <ele>820.8</ele>
        <time>2019-05-12T06:35:52Z</time>
      </trkpt>
      <trkpt lat="38.6419020" lon="-0.7455340">
        <ele>822.0</ele>
        <time>2019-05-12T06:35:55Z</time>
      </trkpt>
      <trkpt lat="38.6419230" lon="-0.7455050">
        <ele>822.8</ele>
        <time>2019-05-12T06:35:57Z</time>
      </trkpt>
      <trkpt lat="38.6419370" lon="-0.7454890">
        <ele>823.0</ele>
        <time>2019-05-12T06:35:58Z</time>
      </trkpt>
      <trkpt lat="38.6419900" lon="-0.7454280">
        <ele>824.4</ele>
        <time>2019-05-12T06:36:02Z</time>
      </trkpt>
      <trkpt lat="38.6420720" lon="-0.7452690">
        <ele>825.0</ele>
        <time>2019-05-12T06:36:08Z</time>
      </trkpt>
      <trkpt lat="38.6420970" lon="-0.7452290">
        <ele>825.4</ele>
        <time>2019-05-12T06:36:10Z</time>
      </trkpt>
      <trkpt lat="38.6421500" lon="-0.7451770">
        <ele>825.8</ele>
        <time>2019-05-12T06:36:13Z</time>
      </trkpt>
      <trkpt lat="38.6421880" lon="-0.7451440">
        <ele>826.4</ele>
        <time>2019-05-12T06:36:15Z</time>
      </trkpt>
      <trkpt lat="38.6423050" lon="-0.7450530">
        <ele>827.0</ele>
        <time>2019-05-12T06:36:20Z</time>
      </trkpt>
      <trkpt lat="38.6425520" lon="-0.7449240">
        <ele>826.4</ele>
        <time>2019-05-12T06:36:26Z</time>
      </trkpt>
      <trkpt lat="38.6426810" lon="-0.7448600">
        <ele>825.6</ele>
        <time>2019-05-12T06:36:29Z</time>
      </trkpt>
      <trkpt lat="38.6427970" lon="-0.7448030">
        <ele>825.8</ele>
        <time>2019-05-12T06:36:32Z</time>
      </trkpt>
      <trkpt lat="38.6428370" lon="-0.7447920">
        <ele>825.8</ele>
        <time>2019-05-12T06:36:33Z</time>
      </trkpt>
      <trkpt lat="38.6430430" lon="-0.7447130">
        <ele>825.2</ele>
        <time>2019-05-12T06:36:38Z</time>
      </trkpt>
      <trkpt lat="38.6432560" lon="-0.7446490">
        <ele>824.4</ele>
        <time>2019-05-12T06:36:44Z</time>
      </trkpt>
      <trkpt lat="38.6433630" lon="-0.7446240">
        <ele>824.2</ele>
        <time>2019-05-12T06:36:48Z</time>
      </trkpt>
      <trkpt lat="38.6434370" lon="-0.7445990">
        <ele>823.6</ele>
        <time>2019-05-12T06:36:50Z</time>
      </trkpt>
      <trkpt lat="38.6435420" lon="-0.7445610">
        <ele>822.8</ele>
        <time>2019-05-12T06:36:53Z</time>
      </trkpt>
      <trkpt lat="38.6436950" lon="-0.7444990">
        <ele>822.8</ele>
        <time>2019-05-12T06:36:57Z</time>
      </trkpt>
      <trkpt lat="38.6439910" lon="-0.7443610">
        <ele>822.2</ele>
        <time>2019-05-12T06:37:04Z</time>
      </trkpt>
      <trkpt lat="38.6440360" lon="-0.7443420">
        <ele>821.8</ele>
        <time>2019-05-12T06:37:05Z</time>
      </trkpt>
      <trkpt lat="38.6442690" lon="-0.7442310">
        <ele>821.0</ele>
        <time>2019-05-12T06:37:10Z</time>
      </trkpt>
      <trkpt lat="38.6443960" lon="-0.7441630">
        <ele>821.0</ele>
        <time>2019-05-12T06:37:13Z</time>
      </trkpt>
      <trkpt lat="38.6444590" lon="-0.7441040">
        <ele>821.0</ele>
        <time>2019-05-12T06:37:15Z</time>
      </trkpt>
      <trkpt lat="38.6444640" lon="-0.7440560">
        <ele>820.8</ele>
        <time>2019-05-12T06:37:16Z</time>
      </trkpt>
      <trkpt lat="38.6444800" lon="-0.7439760">
        <ele>820.6</ele>
        <time>2019-05-12T06:37:18Z</time>
      </trkpt>
      <trkpt lat="38.6445520" lon="-0.7438450">
        <ele>821.0</ele>
        <time>2019-05-12T06:37:21Z</time>
      </trkpt>
      <trkpt lat="38.6446170" lon="-0.7436970">
        <ele>821.0</ele>
        <time>2019-05-12T06:37:24Z</time>
      </trkpt>
      <trkpt lat="38.6446620" lon="-0.7436170">
        <ele>821.4</ele>
        <time>2019-05-12T06:37:26Z</time>
      </trkpt>
      <trkpt lat="38.6446800" lon="-0.7435780">
        <ele>821.8</ele>
        <time>2019-05-12T06:37:27Z</time>
      </trkpt>
      <trkpt lat="38.6447700" lon="-0.7434010">
        <ele>822.6</ele>
        <time>2019-05-12T06:37:32Z</time>
      </trkpt>
      <trkpt lat="38.6447880" lon="-0.7433660">
        <ele>822.8</ele>
        <time>2019-05-12T06:37:33Z</time>
      </trkpt>
      <trkpt lat="38.6449010" lon="-0.7431430">
        <ele>823.6</ele>
        <time>2019-05-12T06:37:39Z</time>
      </trkpt>
      <trkpt lat="38.6449180" lon="-0.7430980">
        <ele>824.0</ele>
        <time>2019-05-12T06:37:40Z</time>
      </trkpt>
      <trkpt lat="38.6450190" lon="-0.7428750">
        <ele>824.0</ele>
        <time>2019-05-12T06:37:45Z</time>
      </trkpt>
      <trkpt lat="38.6452160" lon="-0.7424880">
        <ele>824.6</ele>
        <time>2019-05-12T06:37:54Z</time>
      </trkpt>
      <trkpt lat="38.6452830" lon="-0.7423550">
        <ele>825.0</ele>
        <time>2019-05-12T06:37:57Z</time>
      </trkpt>
      <trkpt lat="38.6453700" lon="-0.7421740">
        <ele>824.8</ele>
        <time>2019-05-12T06:38:01Z</time>
      </trkpt>
      <trkpt lat="38.6453970" lon="-0.7421280">
        <ele>824.8</ele>
        <time>2019-05-12T06:38:02Z</time>
      </trkpt>
      <trkpt lat="38.6454170" lon="-0.7420690">
        <ele>824.8</ele>
        <time>2019-05-12T06:38:03Z</time>
      </trkpt>
      <trkpt lat="38.6454150" lon="-0.7419420">
        <ele>824.2</ele>
        <time>2019-05-12T06:38:05Z</time>
      </trkpt>
      <trkpt lat="38.6453990" lon="-0.7418940">
        <ele>824.0</ele>
        <time>2019-05-12T06:38:06Z</time>
      </trkpt>
      <trkpt lat="38.6453640" lon="-0.7418080">
        <ele>824.0</ele>
        <time>2019-05-12T06:38:08Z</time>
      </trkpt>
      <trkpt lat="38.6453450" lon="-0.7417610">
        <ele>824.4</ele>
        <time>2019-05-12T06:38:09Z</time>
      </trkpt>
      <trkpt lat="38.6452190" lon="-0.7414420">
        <ele>824.0</ele>
        <time>2019-05-12T06:38:15Z</time>
      </trkpt>
      <trkpt lat="38.6450940" lon="-0.7411440">
        <ele>824.4</ele>
        <time>2019-05-12T06:38:21Z</time>
      </trkpt>
      <trkpt lat="38.6450720" lon="-0.7410200">
        <ele>825.2</ele>
        <time>2019-05-12T06:38:24Z</time>
      </trkpt>
      <trkpt lat="38.6450630" lon="-0.7409840">
        <ele>825.4</ele>
        <time>2019-05-12T06:38:25Z</time>
      </trkpt>
      <trkpt lat="38.6450140" lon="-0.7409340">
        <ele>825.4</ele>
        <time>2019-05-12T06:38:27Z</time>
      </trkpt>
      <trkpt lat="38.6449770" lon="-0.7409270">
        <ele>825.2</ele>
        <time>2019-05-12T06:38:28Z</time>
      </trkpt>
      <trkpt lat="38.6448700" lon="-0.7410100">
        <ele>824.6</ele>
        <time>2019-05-12T06:38:31Z</time>
      </trkpt>
      <trkpt lat="38.6447170" lon="-0.7411230">
        <ele>825.8</ele>
        <time>2019-05-12T06:38:36Z</time>
      </trkpt>
      <trkpt lat="38.6446990" lon="-0.7411210">
        <ele>826.2</ele>
        <time>2019-05-12T06:38:37Z</time>
      </trkpt>
      <trkpt lat="38.6446880" lon="-0.7410880">
        <ele>826.6</ele>
        <time>2019-05-12T06:38:39Z</time>
      </trkpt>
      <trkpt lat="38.6447150" lon="-0.7410280">
        <ele>827.2</ele>
        <time>2019-05-12T06:38:41Z</time>
      </trkpt>
      <trkpt lat="38.6447300" lon="-0.7409900">
        <ele>827.2</ele>
        <time>2019-05-12T06:38:42Z</time>
      </trkpt>
      <trkpt lat="38.6447470" lon="-0.7409520">
        <ele>827.2</ele>
        <time>2019-05-12T06:38:43Z</time>
      </trkpt>
      <trkpt lat="38.6448640" lon="-0.7407270">
        <ele>827.6</ele>
        <time>2019-05-12T06:38:50Z</time>
      </trkpt>
      <trkpt lat="38.6448800" lon="-0.7406720">
        <ele>828.4</ele>
        <time>2019-05-12T06:38:52Z</time>
      </trkpt>
      <trkpt lat="38.6448980" lon="-0.7406100">
        <ele>828.6</ele>
        <time>2019-05-12T06:38:55Z</time>
      </trkpt>
      <trkpt lat="38.6449120" lon="-0.7405550">
        <ele>829.4</ele>
        <time>2019-05-12T06:38:57Z</time>
      </trkpt>
      <trkpt lat="38.6449280" lon="-0.7404660">
        <ele>830.6</ele>
        <time>2019-05-12T06:39:01Z</time>
      </trkpt>
      <trkpt lat="38.6449310" lon="-0.7404430">
        <ele>830.8</ele>
        <time>2019-05-12T06:39:02Z</time>
      </trkpt>
      <trkpt lat="38.6449420" lon="-0.7403540">
        <ele>831.6</ele>
        <time>2019-05-12T06:39:06Z</time>
      </trkpt>
      <trkpt lat="38.6449600" lon="-0.7402840">
        <ele>832.4</ele>
        <time>2019-05-12T06:39:09Z</time>
      </trkpt>
      <trkpt lat="38.6449680" lon="-0.7402560">
        <ele>832.8</ele>
        <time>2019-05-12T06:39:10Z</time>
      </trkpt>
      <trkpt lat="38.6449820" lon="-0.7401940">
        <ele>834.0</ele>
        <time>2019-05-12T06:39:13Z</time>
      </trkpt>
      <trkpt lat="38.6449970" lon="-0.7401610">
        <ele>834.4</ele>
        <time>2019-05-12T06:39:15Z</time>
      </trkpt>
      <trkpt lat="38.6450040" lon="-0.7400920">
        <ele>835.2</ele>
        <time>2019-05-12T06:39:18Z</time>
      </trkpt>
      <trkpt lat="38.6450040" lon="-0.7400710">
        <ele>835.4</ele>
        <time>2019-05-12T06:39:19Z</time>
      </trkpt>
      <trkpt lat="38.6450050" lon="-0.7400480">
        <ele>835.6</ele>
        <time>2019-05-12T06:39:20Z</time>
      </trkpt>
      <trkpt lat="38.6450010" lon="-0.7400060">
        <ele>836.2</ele>
        <time>2019-05-12T06:39:22Z</time>
      </trkpt>
      <trkpt lat="38.6449790" lon="-0.7399450">
        <ele>837.2</ele>
        <time>2019-05-12T06:39:25Z</time>
      </trkpt>
      <trkpt lat="38.6449730" lon="-0.7399250">
        <ele>837.8</ele>
        <time>2019-05-12T06:39:26Z</time>
      </trkpt>
      <trkpt lat="38.6449740" lon="-0.7399100">
        <ele>838.2</ele>
        <time>2019-05-12T06:39:27Z</time>
      </trkpt>
      <trkpt lat="38.6449710" lon="-0.7398960">
        <ele>838.8</ele>
        <time>2019-05-12T06:39:28Z</time>
      </trkpt>
      <trkpt lat="38.6449530" lon="-0.7398470">
        <ele>839.8</ele>
        <time>2019-05-12T06:39:31Z</time>
      </trkpt>
      <trkpt lat="38.6448980" lon="-0.7398110">
        <ele>840.8</ele>
        <time>2019-05-12T06:39:35Z</time>
      </trkpt>
      <trkpt lat="38.6448510" lon="-0.7398080">
        <ele>841.4</ele>
        <time>2019-05-12T06:39:38Z</time>
      </trkpt>
      <trkpt lat="38.6448220" lon="-0.7398000">
        <ele>841.8</ele>
        <time>2019-05-12T06:39:40Z</time>
      </trkpt>
      <trkpt lat="38.6447490" lon="-0.7397440">
        <ele>843.0</ele>
        <time>2019-05-12T06:39:45Z</time>
      </trkpt>
      <trkpt lat="38.6447160" lon="-0.7396170">
        <ele>843.8</ele>
        <time>2019-05-12T06:39:51Z</time>
      </trkpt>
      <trkpt lat="38.6447190" lon="-0.7395930">
        <ele>844.0</ele>
        <time>2019-05-12T06:39:52Z</time>
      </trkpt>
      <trkpt lat="38.6447330" lon="-0.7394670">
        <ele>844.2</ele>
        <time>2019-05-12T06:39:57Z</time>
      </trkpt>
      <trkpt lat="38.6447660" lon="-0.7393110">
        <ele>844.4</ele>
        <time>2019-05-12T06:40:03Z</time>
      </trkpt>
      <trkpt lat="38.6448150" lon="-0.7391010">
        <ele>843.8</ele>
        <time>2019-05-12T06:40:09Z</time>
      </trkpt>
      <trkpt lat="38.6448570" lon="-0.7389360">
        <ele>842.8</ele>
        <time>2019-05-12T06:40:12Z</time>
      </trkpt>
      <trkpt lat="38.6448900" lon="-0.7388480">
        <ele>841.6</ele>
        <time>2019-05-12T06:40:13Z</time>
      </trkpt>
      <trkpt lat="38.6449230" lon="-0.7387080">
        <ele>840.0</ele>
        <time>2019-05-12T06:40:15Z</time>
      </trkpt>
      <trkpt lat="38.6449300" lon="-0.7386190">
        <ele>839.2</ele>
        <time>2019-05-12T06:40:16Z</time>
      </trkpt>
      <trkpt lat="38.6449350" lon="-0.7385350">
        <ele>838.8</ele>
        <time>2019-05-12T06:40:17Z</time>
      </trkpt>
      <trkpt lat="38.6449430" lon="-0.7381810">
        <ele>839.2</ele>
        <time>2019-05-12T06:40:22Z</time>
      </trkpt>
      <trkpt lat="38.6449620" lon="-0.7379870">
        <ele>839.4</ele>
        <time>2019-05-12T06:40:25Z</time>
      </trkpt>
      <trkpt lat="38.6449990" lon="-0.7378120">
        <ele>839.6</ele>
        <time>2019-05-12T06:40:28Z</time>
      </trkpt>
      <trkpt lat="38.6450120" lon="-0.7377620">
        <ele>839.8</ele>
        <time>2019-05-12T06:40:29Z</time>
      </trkpt>
      <trkpt lat="38.6450510" lon="-0.7374770">
        <ele>839.4</ele>
        <time>2019-05-12T06:40:33Z</time>
      </trkpt>
      <trkpt lat="38.6450500" lon="-0.7373920">
        <ele>838.8</ele>
        <time>2019-05-12T06:40:34Z</time>
      </trkpt>
      <trkpt lat="38.6450080" lon="-0.7372150">
        <ele>838.0</ele>
        <time>2019-05-12T06:40:37Z</time>
      </trkpt>
      <trkpt lat="38.6449630" lon="-0.7371420">
        <ele>839.8</ele>
        <time>2019-05-12T06:40:39Z</time>
      </trkpt>
      <trkpt lat="38.6449430" lon="-0.7371030">
        <ele>840.0</ele>
        <time>2019-05-12T06:40:40Z</time>
      </trkpt>
      <trkpt lat="38.6449010" lon="-0.7370330">
        <ele>840.4</ele>
        <time>2019-05-12T06:40:42Z</time>
      </trkpt>
      <trkpt lat="38.6448270" lon="-0.7368710">
        <ele>841.0</ele>
        <time>2019-05-12T06:40:46Z</time>
      </trkpt>
      <trkpt lat="38.6447950" lon="-0.7367910">
        <ele>841.0</ele>
        <time>2019-05-12T06:40:48Z</time>
      </trkpt>
      <trkpt lat="38.6447710" lon="-0.7365640">
        <ele>841.2</ele>
        <time>2019-05-12T06:40:53Z</time>
      </trkpt>
      <trkpt lat="38.6447770" lon="-0.7364380">
        <ele>840.8</ele>
        <time>2019-05-12T06:40:55Z</time>
      </trkpt>
      <trkpt lat="38.6447670" lon="-0.7362770">
        <ele>840.0</ele>
        <time>2019-05-12T06:40:57Z</time>
      </trkpt>
      <trkpt lat="38.6447470" lon="-0.7361900">
        <ele>839.0</ele>
        <time>2019-05-12T06:40:58Z</time>
      </trkpt>
      <trkpt lat="38.6447210" lon="-0.7360070">
        <ele>837.4</ele>
        <time>2019-05-12T06:41:00Z</time>
      </trkpt>
      <trkpt lat="38.6447310" lon="-0.7359200">
        <ele>836.8</ele>
        <time>2019-05-12T06:41:01Z</time>
      </trkpt>
      <trkpt lat="38.6447700" lon="-0.7357890">
        <ele>836.0</ele>
        <time>2019-05-12T06:41:03Z</time>
      </trkpt>
      <trkpt lat="38.6447900" lon="-0.7357360">
        <ele>836.4</ele>
        <time>2019-05-12T06:41:04Z</time>
      </trkpt>
      <trkpt lat="38.6448030" lon="-0.7356850">
        <ele>837.0</ele>
        <time>2019-05-12T06:41:05Z</time>
      </trkpt>
      <trkpt lat="38.6447880" lon="-0.7356130">
        <ele>838.0</ele>
        <time>2019-05-12T06:41:07Z</time>
      </trkpt>
      <trkpt lat="38.6447140" lon="-0.7354860">
        <ele>836.6</ele>
        <time>2019-05-12T06:41:11Z</time>
      </trkpt>
      <trkpt lat="38.6447540" lon="-0.7353650">
        <ele>836.0</ele>
        <time>2019-05-12T06:41:14Z</time>
      </trkpt>
      <trkpt lat="38.6447970" lon="-0.7351560">
        <ele>835.4</ele>
        <time>2019-05-12T06:41:18Z</time>
      </trkpt>
      <trkpt lat="38.6447990" lon="-0.7351100">
        <ele>835.4</ele>
        <time>2019-05-12T06:41:19Z</time>
      </trkpt>
      <trkpt lat="38.6448140" lon="-0.7348120">
        <ele>836.6</ele>
        <time>2019-05-12T06:41:26Z</time>
      </trkpt>
      <trkpt lat="38.6448300" lon="-0.7346290">
        <ele>837.4</ele>
        <time>2019-05-12T06:41:30Z</time>
      </trkpt>
      <trkpt lat="38.6448380" lon="-0.7344970">
        <ele>838.0</ele>
        <time>2019-05-12T06:41:33Z</time>
      </trkpt>
      <trkpt lat="38.6448260" lon="-0.7343840">
        <ele>838.4</ele>
        <time>2019-05-12T06:41:36Z</time>
      </trkpt>
      <trkpt lat="38.6448030" lon="-0.7342770">
        <ele>839.4</ele>
        <time>2019-05-12T06:41:39Z</time>
      </trkpt>
      <trkpt lat="38.6447930" lon="-0.7341300">
        <ele>840.4</ele>
        <time>2019-05-12T06:41:43Z</time>
      </trkpt>
      <trkpt lat="38.6447970" lon="-0.7340530">
        <ele>840.8</ele>
        <time>2019-05-12T06:41:45Z</time>
      </trkpt>
      <trkpt lat="38.6448120" lon="-0.7339460">
        <ele>841.6</ele>
        <time>2019-05-12T06:41:48Z</time>
      </trkpt>
      <trkpt lat="38.6448290" lon="-0.7338230">
        <ele>842.2</ele>
        <time>2019-05-12T06:41:52Z</time>
      </trkpt>
      <trkpt lat="38.6448420" lon="-0.7337690">
        <ele>843.2</ele>
        <time>2019-05-12T06:41:54Z</time>
      </trkpt>
      <trkpt lat="38.6448590" lon="-0.7336670">
        <ele>844.4</ele>
        <time>2019-05-12T06:41:58Z</time>
      </trkpt>
      <trkpt lat="38.6448690" lon="-0.7336440">
        <ele>844.6</ele>
        <time>2019-05-12T06:41:59Z</time>
      </trkpt>
      <trkpt lat="38.6449180" lon="-0.7335490">
        <ele>845.6</ele>
        <time>2019-05-12T06:42:03Z</time>
      </trkpt>
      <trkpt lat="38.6449690" lon="-0.7334750">
        <ele>846.2</ele>
        <time>2019-05-12T06:42:06Z</time>
      </trkpt>
      <trkpt lat="38.6450120" lon="-0.7334330">
        <ele>846.6</ele>
        <time>2019-05-12T06:42:08Z</time>
      </trkpt>
      <trkpt lat="38.6451500" lon="-0.7333180">
        <ele>846.2</ele>
        <time>2019-05-12T06:42:13Z</time>
      </trkpt>
      <trkpt lat="38.6452270" lon="-0.7332520">
        <ele>845.4</ele>
        <time>2019-05-12T06:42:15Z</time>
      </trkpt>
      <trkpt lat="38.6453520" lon="-0.7331150">
        <ele>844.8</ele>
        <time>2019-05-12T06:42:18Z</time>
      </trkpt>
      <trkpt lat="38.6453960" lon="-0.7330610">
        <ele>843.8</ele>
        <time>2019-05-12T06:42:19Z</time>
      </trkpt>
      <trkpt lat="38.6454960" lon="-0.7329660">
        <ele>842.6</ele>
        <time>2019-05-12T06:42:21Z</time>
      </trkpt>
      <trkpt lat="38.6456040" lon="-0.7329030">
        <ele>841.6</ele>
        <time>2019-05-12T06:42:23Z</time>
      </trkpt>
      <trkpt lat="38.6456610" lon="-0.7328870">
        <ele>841.4</ele>
        <time>2019-05-12T06:42:24Z</time>
      </trkpt>
      <trkpt lat="38.6458180" lon="-0.7327860">
        <ele>840.0</ele>
        <time>2019-05-12T06:42:27Z</time>
      </trkpt>
      <trkpt lat="38.6458610" lon="-0.7325840">
        <ele>839.4</ele>
        <time>2019-05-12T06:42:30Z</time>
      </trkpt>
      <trkpt lat="38.6458360" lon="-0.7324520">
        <ele>839.6</ele>
        <time>2019-05-12T06:42:32Z</time>
      </trkpt>
      <trkpt lat="38.6458120" lon="-0.7323270">
        <ele>840.4</ele>
        <time>2019-05-12T06:42:34Z</time>
      </trkpt>
      <trkpt lat="38.6458070" lon="-0.7322710">
        <ele>841.2</ele>
        <time>2019-05-12T06:42:35Z</time>
      </trkpt>
      <trkpt lat="38.6458140" lon="-0.7321800">
        <ele>842.2</ele>
        <time>2019-05-12T06:42:37Z</time>
      </trkpt>
      <trkpt lat="38.6458250" lon="-0.7321430">
        <ele>842.8</ele>
        <time>2019-05-12T06:42:38Z</time>
      </trkpt>
      <trkpt lat="38.6458420" lon="-0.7321090">
        <ele>843.2</ele>
        <time>2019-05-12T06:42:39Z</time>
      </trkpt>
      <trkpt lat="38.6458940" lon="-0.7320440">
        <ele>844.6</ele>
        <time>2019-05-12T06:42:42Z</time>
      </trkpt>
      <trkpt lat="38.6459090" lon="-0.7320280">
        <ele>845.0</ele>
        <time>2019-05-12T06:42:43Z</time>
      </trkpt>
      <trkpt lat="38.6459390" lon="-0.7320110">
        <ele>845.6</ele>
        <time>2019-05-12T06:42:45Z</time>
      </trkpt>
      <trkpt lat="38.6459620" lon="-0.7320210">
        <ele>846.2</ele>
        <time>2019-05-12T06:42:47Z</time>
      </trkpt>
      <trkpt lat="38.6459750" lon="-0.7320260">
        <ele>846.4</ele>
        <time>2019-05-12T06:42:48Z</time>
      </trkpt>
      <trkpt lat="38.6460000" lon="-0.7319900">
        <ele>846.6</ele>
        <time>2019-05-12T06:42:52Z</time>
      </trkpt>
      <trkpt lat="38.6459560" lon="-0.7320110">
        <ele>846.6</ele>
        <time>2019-05-12T06:43:04Z</time>
      </trkpt>
      <trkpt lat="38.6459100" lon="-0.7320480">
        <ele>846.4</ele>
        <time>2019-05-12T06:43:06Z</time>
      </trkpt>
      <trkpt lat="38.6458290" lon="-0.7321390">
        <ele>845.6</ele>
        <time>2019-05-12T06:43:09Z</time>
      </trkpt>
      <trkpt lat="38.6458110" lon="-0.7321780">
        <ele>845.0</ele>
        <time>2019-05-12T06:43:10Z</time>
      </trkpt>
      <trkpt lat="38.6457980" lon="-0.7322270">
        <ele>844.6</ele>
        <time>2019-05-12T06:43:11Z</time>
      </trkpt>
      <trkpt lat="38.6458000" lon="-0.7324230">
        <ele>843.0</ele>
        <time>2019-05-12T06:43:14Z</time>
      </trkpt>
      <trkpt lat="38.6458200" lon="-0.7325410">
        <ele>841.8</ele>
        <time>2019-05-12T06:43:16Z</time>
      </trkpt>
      <trkpt lat="38.6458260" lon="-0.7326540">
        <ele>840.8</ele>
        <time>2019-05-12T06:43:18Z</time>
      </trkpt>
      <trkpt lat="38.6458230" lon="-0.7327120">
        <ele>840.4</ele>
        <time>2019-05-12T06:43:19Z</time>
      </trkpt>
      <trkpt lat="38.6457710" lon="-0.7328530">
        <ele>839.8</ele>
        <time>2019-05-12T06:43:22Z</time>
      </trkpt>
      <trkpt lat="38.6456980" lon="-0.7329030">
        <ele>840.0</ele>
        <time>2019-05-12T06:43:25Z</time>
      </trkpt>
      <trkpt lat="38.6456720" lon="-0.7328940">
        <ele>840.2</ele>
        <time>2019-05-12T06:43:26Z</time>
      </trkpt>
      <trkpt lat="38.6456250" lon="-0.7328090">
        <ele>840.6</ele>
        <time>2019-05-12T06:43:29Z</time>
      </trkpt>
      <trkpt lat="38.6456110" lon="-0.7327760">
        <ele>840.8</ele>
        <time>2019-05-12T06:43:30Z</time>
      </trkpt>
      <trkpt lat="38.6455230" lon="-0.7326690">
        <ele>841.0</ele>
        <time>2019-05-12T06:43:33Z</time>
      </trkpt>
      <trkpt lat="38.6454330" lon="-0.7325780">
        <ele>839.4</ele>
        <time>2019-05-12T06:43:35Z</time>
      </trkpt>
      <trkpt lat="38.6453460" lon="-0.7324900">
        <ele>838.0</ele>
        <time>2019-05-12T06:43:37Z</time>
      </trkpt>
      <trkpt lat="38.6452180" lon="-0.7323730">
        <ele>837.0</ele>
        <time>2019-05-12T06:43:40Z</time>
      </trkpt>
      <trkpt lat="38.6451720" lon="-0.7323530">
        <ele>836.2</ele>
        <time>2019-05-12T06:43:41Z</time>
      </trkpt>
      <trkpt lat="38.6451190" lon="-0.7323400">
        <ele>835.6</ele>
        <time>2019-05-12T06:43:42Z</time>
      </trkpt>
      <trkpt lat="38.6450030" lon="-0.7322860">
        <ele>834.2</ele>
        <time>2019-05-12T06:43:44Z</time>
      </trkpt>
      <trkpt lat="38.6449540" lon="-0.7322680">
        <ele>833.4</ele>
        <time>2019-05-12T06:43:45Z</time>
      </trkpt>
      <trkpt lat="38.6448730" lon="-0.7322290">
        <ele>833.8</ele>
        <time>2019-05-12T06:43:47Z</time>
      </trkpt>
      <trkpt lat="38.6448320" lon="-0.7322130">
        <ele>834.2</ele>
        <time>2019-05-12T06:43:48Z</time>
      </trkpt>
      <trkpt lat="38.6447510" lon="-0.7321810">
        <ele>834.0</ele>
        <time>2019-05-12T06:43:50Z</time>
      </trkpt>
      <trkpt lat="38.6445480" lon="-0.7320770">
        <ele>833.4</ele>
        <time>2019-05-12T06:43:54Z</time>
      </trkpt>
      <trkpt lat="38.6444930" lon="-0.7320510">
        <ele>833.0</ele>
        <time>2019-05-12T06:43:55Z</time>
      </trkpt>
      <trkpt lat="38.6442750" lon="-0.7319510">
        <ele>831.4</ele>
        <time>2019-05-12T06:43:58Z</time>
      </trkpt>
      <trkpt lat="38.6441910" lon="-0.7319190">
        <ele>831.0</ele>
        <time>2019-05-12T06:44:00Z</time>
      </trkpt>
      <trkpt lat="38.6439490" lon="-0.7318410">
        <ele>831.4</ele>
        <time>2019-05-12T06:44:05Z</time>
      </trkpt>
      <trkpt lat="38.6438100" lon="-0.7317930">
        <ele>831.0</ele>
        <time>2019-05-12T06:44:08Z</time>
      </trkpt>
      <trkpt lat="38.6437080" lon="-0.7317460">
        <ele>830.8</ele>
        <time>2019-05-12T06:44:10Z</time>
      </trkpt>
      <trkpt lat="38.6436030" lon="-0.7317130">
        <ele>830.2</ele>
        <time>2019-05-12T06:44:12Z</time>
      </trkpt>
      <trkpt lat="38.6435170" lon="-0.7317370">
        <ele>830.0</ele>
        <time>2019-05-12T06:44:14Z</time>
      </trkpt>
      <trkpt lat="38.6434500" lon="-0.7317790">
        <ele>830.8</ele>
        <time>2019-05-12T06:44:16Z</time>
      </trkpt>
      <trkpt lat="38.6433920" lon="-0.7318550">
        <ele>830.8</ele>
        <time>2019-05-12T06:44:18Z</time>
      </trkpt>
      <trkpt lat="38.6433680" lon="-0.7319000">
        <ele>830.2</ele>
        <time>2019-05-12T06:44:19Z</time>
      </trkpt>
      <trkpt lat="38.6433470" lon="-0.7320530">
        <ele>829.0</ele>
        <time>2019-05-12T06:44:22Z</time>
      </trkpt>
      <trkpt lat="38.6433410" lon="-0.7321250">
        <ele>828.4</ele>
        <time>2019-05-12T06:44:23Z</time>
      </trkpt>
      <trkpt lat="38.6433370" lon="-0.7321970">
        <ele>827.4</ele>
        <time>2019-05-12T06:44:24Z</time>
      </trkpt>
      <trkpt lat="38.6433360" lon="-0.7322610">
        <ele>825.6</ele>
        <time>2019-05-12T06:44:25Z</time>
      </trkpt>
      <trkpt lat="38.6433410" lon="-0.7323250">
        <ele>825.0</ele>
        <time>2019-05-12T06:44:26Z</time>
      </trkpt>
      <trkpt lat="38.6433420" lon="-0.7323950">
        <ele>824.4</ele>
        <time>2019-05-12T06:44:27Z</time>
      </trkpt>
      <trkpt lat="38.6433430" lon="-0.7324520">
        <ele>824.2</ele>
        <time>2019-05-12T06:44:28Z</time>
      </trkpt>
      <trkpt lat="38.6433800" lon="-0.7325540">
        <ele>823.6</ele>
        <time>2019-05-12T06:44:30Z</time>
      </trkpt>
      <trkpt lat="38.6433880" lon="-0.7326260">
        <ele>823.2</ele>
        <time>2019-05-12T06:44:31Z</time>
      </trkpt>
      <trkpt lat="38.6434160" lon="-0.7328480">
        <ele>822.2</ele>
        <time>2019-05-12T06:44:34Z</time>
      </trkpt>
      <trkpt lat="38.6434280" lon="-0.7329160">
        <ele>822.2</ele>
        <time>2019-05-12T06:44:35Z</time>
      </trkpt>
      <trkpt lat="38.6434360" lon="-0.7330840">
        <ele>820.6</ele>
        <time>2019-05-12T06:44:38Z</time>
      </trkpt>
      <trkpt lat="38.6434260" lon="-0.7331490">
        <ele>820.0</ele>
        <time>2019-05-12T06:44:39Z</time>
      </trkpt>
      <trkpt lat="38.6434210" lon="-0.7332120">
        <ele>819.4</ele>
        <time>2019-05-12T06:44:40Z</time>
      </trkpt>
      <trkpt lat="38.6434080" lon="-0.7332710">
        <ele>819.2</ele>
        <time>2019-05-12T06:44:41Z</time>
      </trkpt>
      <trkpt lat="38.6433970" lon="-0.7334080">
        <ele>819.2</ele>
        <time>2019-05-12T06:44:44Z</time>
      </trkpt>
      <trkpt lat="38.6434040" lon="-0.7335090">
        <ele>818.6</ele>
        <time>2019-05-12T06:44:46Z</time>
      </trkpt>
      <trkpt lat="38.6434020" lon="-0.7335680">
        <ele>818.0</ele>
        <time>2019-05-12T06:44:47Z</time>
      </trkpt>
      <trkpt lat="38.6433490" lon="-0.7336430">
        <ele>815.8</ele>
        <time>2019-05-12T06:44:49Z</time>
      </trkpt>
      <trkpt lat="38.6433060" lon="-0.7336780">
        <ele>814.4</ele>
        <time>2019-05-12T06:44:50Z</time>
      </trkpt>
      <trkpt lat="38.6432560" lon="-0.7337150">
        <ele>814.0</ele>
        <time>2019-05-12T06:44:51Z</time>
      </trkpt>
      <trkpt lat="38.6432110" lon="-0.7337520">
        <ele>813.4</ele>
        <time>2019-05-12T06:44:52Z</time>
      </trkpt>
      <trkpt lat="38.6431650" lon="-0.7337940">
        <ele>813.2</ele>
        <time>2019-05-12T06:44:53Z</time>
      </trkpt>
      <trkpt lat="38.6431260" lon="-0.7338410">
        <ele>813.0</ele>
        <time>2019-05-12T06:44:54Z</time>
      </trkpt>
      <trkpt lat="38.6430150" lon="-0.7339840">
        <ele>813.8</ele>
        <time>2019-05-12T06:44:57Z</time>
      </trkpt>
      <trkpt lat="38.6427780" lon="-0.7342760">
        <ele>812.8</ele>
        <time>2019-05-12T06:45:03Z</time>
      </trkpt>
      <trkpt lat="38.6426920" lon="-0.7343710">
        <ele>814.2</ele>
        <time>2019-05-12T06:45:06Z</time>
      </trkpt>
      <trkpt lat="38.6426290" lon="-0.7344390">
        <ele>814.4</ele>
        <time>2019-05-12T06:45:08Z</time>
      </trkpt>
      <trkpt lat="38.6424280" lon="-0.7346780">
        <ele>815.2</ele>
        <time>2019-05-12T06:45:14Z</time>
      </trkpt>
      <trkpt lat="38.6422790" lon="-0.7348500">
        <ele>815.0</ele>
        <time>2019-05-12T06:45:18Z</time>
      </trkpt>
      <trkpt lat="38.6422090" lon="-0.7349320">
        <ele>815.0</ele>
        <time>2019-05-12T06:45:20Z</time>
      </trkpt>
      <trkpt lat="38.6420780" lon="-0.7350700">
        <ele>814.2</ele>
        <time>2019-05-12T06:45:23Z</time>
      </trkpt>
      <trkpt lat="38.6420210" lon="-0.7351010">
        <ele>813.6</ele>
        <time>2019-05-12T06:45:24Z</time>
      </trkpt>
      <trkpt lat="38.6419630" lon="-0.7351470">
        <ele>813.0</ele>
        <time>2019-05-12T06:45:25Z</time>
      </trkpt>
      <trkpt lat="38.6418570" lon="-0.7352650">
        <ele>811.6</ele>
        <time>2019-05-12T06:45:27Z</time>
      </trkpt>
      <trkpt lat="38.6418160" lon="-0.7353270">
        <ele>810.8</ele>
        <time>2019-05-12T06:45:28Z</time>
      </trkpt>
      <trkpt lat="38.6417830" lon="-0.7354080">
        <ele>810.0</ele>
        <time>2019-05-12T06:45:29Z</time>
      </trkpt>
      <trkpt lat="38.6416850" lon="-0.7355350">
        <ele>809.0</ele>
        <time>2019-05-12T06:45:31Z</time>
      </trkpt>
      <trkpt lat="38.6416250" lon="-0.7355750">
        <ele>808.4</ele>
        <time>2019-05-12T06:45:32Z</time>
      </trkpt>
      <trkpt lat="38.6415580" lon="-0.7356180">
        <ele>808.0</ele>
        <time>2019-05-12T06:45:33Z</time>
      </trkpt>
      <trkpt lat="38.6415100" lon="-0.7356900">
        <ele>807.2</ele>
        <time>2019-05-12T06:45:34Z</time>
      </trkpt>
      <trkpt lat="38.6413320" lon="-0.7358430">
        <ele>805.8</ele>
        <time>2019-05-12T06:45:37Z</time>
      </trkpt>
      <trkpt lat="38.6412800" lon="-0.7358700">
        <ele>805.6</ele>
        <time>2019-05-12T06:45:38Z</time>
      </trkpt>
      <trkpt lat="38.6411510" lon="-0.7360650">
        <ele>805.0</ele>
        <time>2019-05-12T06:45:41Z</time>
      </trkpt>
      <trkpt lat="38.6411100" lon="-0.7361470">
        <ele>804.4</ele>
        <time>2019-05-12T06:45:42Z</time>
      </trkpt>
      <trkpt lat="38.6410720" lon="-0.7362220">
        <ele>803.8</ele>
        <time>2019-05-12T06:45:43Z</time>
      </trkpt>
      <trkpt lat="38.6410280" lon="-0.7362880">
        <ele>803.4</ele>
        <time>2019-05-12T06:45:44Z</time>
      </trkpt>
      <trkpt lat="38.6409870" lon="-0.7363550">
        <ele>802.6</ele>
        <time>2019-05-12T06:45:45Z</time>
      </trkpt>
      <trkpt lat="38.6409490" lon="-0.7364250">
        <ele>801.8</ele>
        <time>2019-05-12T06:45:46Z</time>
      </trkpt>
      <trkpt lat="38.6409050" lon="-0.7364870">
        <ele>801.2</ele>
        <time>2019-05-12T06:45:47Z</time>
      </trkpt>
      <trkpt lat="38.6408680" lon="-0.7365510">
        <ele>800.8</ele>
        <time>2019-05-12T06:45:48Z</time>
      </trkpt>
      <trkpt lat="38.6408400" lon="-0.7366170">
        <ele>800.4</ele>
        <time>2019-05-12T06:45:49Z</time>
      </trkpt>
      <trkpt lat="38.6407980" lon="-0.7366750">
        <ele>799.4</ele>
        <time>2019-05-12T06:45:50Z</time>
      </trkpt>
      <trkpt lat="38.6407230" lon="-0.7367980">
        <ele>797.6</ele>
        <time>2019-05-12T06:45:52Z</time>
      </trkpt>
      <trkpt lat="38.6406810" lon="-0.7368600">
        <ele>797.2</ele>
        <time>2019-05-12T06:45:53Z</time>
      </trkpt>
      <trkpt lat="38.6406400" lon="-0.7369150">
        <ele>796.4</ele>
        <time>2019-05-12T06:45:54Z</time>
      </trkpt>
      <trkpt lat="38.6406020" lon="-0.7369860">
        <ele>796.0</ele>
        <time>2019-05-12T06:45:55Z</time>
      </trkpt>
      <trkpt lat="38.6405580" lon="-0.7370460">
        <ele>795.2</ele>
        <time>2019-05-12T06:45:56Z</time>
      </trkpt>
      <trkpt lat="38.6405200" lon="-0.7371000">
        <ele>794.4</ele>
        <time>2019-05-12T06:45:57Z</time>
      </trkpt>
      <trkpt lat="38.6404790" lon="-0.7371330">
        <ele>793.6</ele>
        <time>2019-05-12T06:45:58Z</time>
      </trkpt>
      <trkpt lat="38.6404260" lon="-0.7372410">
        <ele>793.2</ele>
        <time>2019-05-12T06:46:00Z</time>
      </trkpt>
      <trkpt lat="38.6403740" lon="-0.7373070">
        <ele>791.6</ele>
        <time>2019-05-12T06:46:01Z</time>
      </trkpt>
      <trkpt lat="38.6403540" lon="-0.7373360">
        <ele>791.6</ele>
        <time>2019-05-12T06:46:02Z</time>
      </trkpt>
      <trkpt lat="38.6403150" lon="-0.7373980">
        <ele>790.6</ele>
        <time>2019-05-12T06:46:03Z</time>
      </trkpt>
      <trkpt lat="38.6402740" lon="-0.7374480">
        <ele>789.8</ele>
        <time>2019-05-12T06:46:04Z</time>
      </trkpt>
      <trkpt lat="38.6402480" lon="-0.7375070">
        <ele>788.6</ele>
        <time>2019-05-12T06:46:05Z</time>
      </trkpt>
      <trkpt lat="38.6402030" lon="-0.7375690">
        <ele>788.0</ele>
        <time>2019-05-12T06:46:06Z</time>
      </trkpt>
      <trkpt lat="38.6401560" lon="-0.7376270">
        <ele>787.4</ele>
        <time>2019-05-12T06:46:07Z</time>
      </trkpt>
      <trkpt lat="38.6400620" lon="-0.7377070">
        <ele>786.0</ele>
        <time>2019-05-12T06:46:09Z</time>
      </trkpt>
      <trkpt lat="38.6400240" lon="-0.7377610">
        <ele>785.2</ele>
        <time>2019-05-12T06:46:10Z</time>
      </trkpt>
      <trkpt lat="38.6400040" lon="-0.7378090">
        <ele>784.6</ele>
        <time>2019-05-12T06:46:11Z</time>
      </trkpt>
      <trkpt lat="38.6399430" lon="-0.7378930">
        <ele>783.4</ele>
        <time>2019-05-12T06:46:13Z</time>
      </trkpt>
      <trkpt lat="38.6398510" lon="-0.7379870">
        <ele>782.2</ele>
        <time>2019-05-12T06:46:15Z</time>
      </trkpt>
      <trkpt lat="38.6398110" lon="-0.7380410">
        <ele>781.6</ele>
        <time>2019-05-12T06:46:16Z</time>
      </trkpt>
      <trkpt lat="38.6397420" lon="-0.7381400">
        <ele>780.8</ele>
        <time>2019-05-12T06:46:18Z</time>
      </trkpt>
      <trkpt lat="38.6396960" lon="-0.7382020">
        <ele>780.0</ele>
        <time>2019-05-12T06:46:19Z</time>
      </trkpt>
      <trkpt lat="38.6396290" lon="-0.7382500">
        <ele>779.2</ele>
        <time>2019-05-12T06:46:20Z</time>
      </trkpt>
      <trkpt lat="38.6395640" lon="-0.7383060">
        <ele>778.0</ele>
        <time>2019-05-12T06:46:21Z</time>
      </trkpt>
      <trkpt lat="38.6394970" lon="-0.7383570">
        <ele>777.4</ele>
        <time>2019-05-12T06:46:22Z</time>
      </trkpt>
      <trkpt lat="38.6393640" lon="-0.7384410">
        <ele>777.2</ele>
        <time>2019-05-12T06:46:24Z</time>
      </trkpt>
      <trkpt lat="38.6392770" lon="-0.7384900">
        <ele>777.8</ele>
        <time>2019-05-12T06:46:26Z</time>
      </trkpt>
      <trkpt lat="38.6392040" lon="-0.7385240">
        <ele>778.4</ele>
        <time>2019-05-12T06:46:28Z</time>
      </trkpt>
      <trkpt lat="38.6391040" lon="-0.7385130">
        <ele>778.2</ele>
        <time>2019-05-12T06:46:30Z</time>
      </trkpt>
      <trkpt lat="38.6390130" lon="-0.7383880">
        <ele>777.2</ele>
        <time>2019-05-12T06:46:33Z</time>
      </trkpt>
      <trkpt lat="38.6389800" lon="-0.7382260">
        <ele>777.2</ele>
        <time>2019-05-12T06:46:36Z</time>
      </trkpt>
      <trkpt lat="38.6389610" lon="-0.7381260">
        <ele>777.4</ele>
        <time>2019-05-12T06:46:38Z</time>
      </trkpt>
      <trkpt lat="38.6389680" lon="-0.7379720">
        <ele>777.6</ele>
        <time>2019-05-12T06:46:42Z</time>
      </trkpt>
      <trkpt lat="38.6390080" lon="-0.7378330">
        <ele>778.2</ele>
        <time>2019-05-12T06:46:47Z</time>
      </trkpt>
      <trkpt lat="38.6390380" lon="-0.7377650">
        <ele>779.4</ele>
        <time>2019-05-12T06:46:50Z</time>
      </trkpt>
      <trkpt lat="38.6390830" lon="-0.7376710">
        <ele>780.2</ele>
        <time>2019-05-12T06:46:54Z</time>
      </trkpt>
      <trkpt lat="38.6391210" lon="-0.7376190">
        <ele>780.4</ele>
        <time>2019-05-12T06:46:56Z</time>
      </trkpt>
      <trkpt lat="38.6391840" lon="-0.7375290">
        <ele>781.0</ele>
        <time>2019-05-12T06:46:59Z</time>
      </trkpt>
      <trkpt lat="38.6393310" lon="-0.7373560">
        <ele>781.0</ele>
        <time>2019-05-12T06:47:06Z</time>
      </trkpt>
      <trkpt lat="38.6394950" lon="-0.7371760">
        <ele>779.8</ele>
        <time>2019-05-12T06:47:11Z</time>
      </trkpt>
      <trkpt lat="38.6395240" lon="-0.7371260">
        <ele>779.4</ele>
        <time>2019-05-12T06:47:12Z</time>
      </trkpt>
      <trkpt lat="38.6395470" lon="-0.7370680">
        <ele>779.2</ele>
        <time>2019-05-12T06:47:13Z</time>
      </trkpt>
      <trkpt lat="38.6395690" lon="-0.7368710">
        <ele>778.6</ele>
        <time>2019-05-12T06:47:16Z</time>
      </trkpt>
      <trkpt lat="38.6395690" lon="-0.7368170">
        <ele>778.4</ele>
        <time>2019-05-12T06:47:17Z</time>
      </trkpt>
      <trkpt lat="38.6395710" lon="-0.7367620">
        <ele>778.0</ele>
        <time>2019-05-12T06:47:18Z</time>
      </trkpt>
      <trkpt lat="38.6395610" lon="-0.7367070">
        <ele>777.8</ele>
        <time>2019-05-12T06:47:19Z</time>
      </trkpt>
      <trkpt lat="38.6395560" lon="-0.7366460">
        <ele>777.4</ele>
        <time>2019-05-12T06:47:20Z</time>
      </trkpt>
      <trkpt lat="38.6395280" lon="-0.7365240">
        <ele>776.8</ele>
        <time>2019-05-12T06:47:22Z</time>
      </trkpt>
      <trkpt lat="38.6395120" lon="-0.7364580">
        <ele>776.2</ele>
        <time>2019-05-12T06:47:23Z</time>
      </trkpt>
      <trkpt lat="38.6394860" lon="-0.7363870">
        <ele>775.6</ele>
        <time>2019-05-12T06:47:24Z</time>
      </trkpt>
      <trkpt lat="38.6394600" lon="-0.7363110">
        <ele>775.2</ele>
        <time>2019-05-12T06:47:25Z</time>
      </trkpt>
      <trkpt lat="38.6394180" lon="-0.7361600">
        <ele>774.6</ele>
        <time>2019-05-12T06:47:27Z</time>
      </trkpt>
      <trkpt lat="38.6394060" lon="-0.7359870">
        <ele>774.8</ele>
        <time>2019-05-12T06:47:30Z</time>
      </trkpt>
      <trkpt lat="38.6393950" lon="-0.7359060">
        <ele>775.6</ele>
        <time>2019-05-12T06:47:32Z</time>
      </trkpt>
      <trkpt lat="38.6393820" lon="-0.7358200">
        <ele>776.8</ele>
        <time>2019-05-12T06:47:35Z</time>
      </trkpt>
      <trkpt lat="38.6393870" lon="-0.7357990">
        <ele>777.2</ele>
        <time>2019-05-12T06:47:36Z</time>
      </trkpt>
      <trkpt lat="38.6393920" lon="-0.7357380">
        <ele>778.2</ele>
        <time>2019-05-12T06:47:39Z</time>
      </trkpt>
      <trkpt lat="38.6393970" lon="-0.7357190">
        <ele>778.4</ele>
        <time>2019-05-12T06:47:40Z</time>
      </trkpt>
      <trkpt lat="38.6394090" lon="-0.7356250">
        <ele>779.6</ele>
        <time>2019-05-12T06:47:44Z</time>
      </trkpt>
      <trkpt lat="38.6394120" lon="-0.7355780">
        <ele>780.2</ele>
        <time>2019-05-12T06:47:46Z</time>
      </trkpt>
      <trkpt lat="38.6394120" lon="-0.7355090">
        <ele>780.8</ele>
        <time>2019-05-12T06:47:49Z</time>
      </trkpt>
      <trkpt lat="38.6394280" lon="-0.7354490">
        <ele>781.8</ele>
        <time>2019-05-12T06:47:52Z</time>
      </trkpt>
      <trkpt lat="38.6394400" lon="-0.7354070">
        <ele>782.2</ele>
        <time>2019-05-12T06:47:54Z</time>
      </trkpt>
      <trkpt lat="38.6394750" lon="-0.7353460">
        <ele>783.2</ele>
        <time>2019-05-12T06:47:58Z</time>
      </trkpt>
      <trkpt lat="38.6394930" lon="-0.7353060">
        <ele>783.8</ele>
        <time>2019-05-12T06:48:00Z</time>
      </trkpt>
      <trkpt lat="38.6395140" lon="-0.7352680">
        <ele>784.4</ele>
        <time>2019-05-12T06:48:02Z</time>
      </trkpt>
      <trkpt lat="38.6395320" lon="-0.7352270">
        <ele>784.8</ele>
        <time>2019-05-12T06:48:04Z</time>
      </trkpt>
      <trkpt lat="38.6395430" lon="-0.7351990">
        <ele>785.8</ele>
        <time>2019-05-12T06:48:05Z</time>
      </trkpt>
      <trkpt lat="38.6395770" lon="-0.7351130">
        <ele>787.2</ele>
        <time>2019-05-12T06:48:09Z</time>
      </trkpt>
      <trkpt lat="38.6396210" lon="-0.7350340">
        <ele>788.4</ele>
        <time>2019-05-12T06:48:12Z</time>
      </trkpt>
      <trkpt lat="38.6396860" lon="-0.7349110">
        <ele>789.6</ele>
        <time>2019-05-12T06:48:17Z</time>
      </trkpt>
      <trkpt lat="38.6397040" lon="-0.7348720">
        <ele>790.0</ele>
        <time>2019-05-12T06:48:19Z</time>
      </trkpt>
      <trkpt lat="38.6397430" lon="-0.7347830">
        <ele>790.8</ele>
        <time>2019-05-12T06:48:23Z</time>
      </trkpt>
      <trkpt lat="38.6397560" lon="-0.7347590">
        <ele>790.8</ele>
        <time>2019-05-12T06:48:24Z</time>
      </trkpt>
      <trkpt lat="38.6398230" lon="-0.7345270">
        <ele>791.8</ele>
        <time>2019-05-12T06:48:32Z</time>
      </trkpt>
      <trkpt lat="38.6398720" lon="-0.7341880">
        <ele>792.4</ele>
        <time>2019-05-12T06:48:41Z</time>
      </trkpt>
      <trkpt lat="38.6399210" lon="-0.7339750">
        <ele>792.4</ele>
        <time>2019-05-12T06:48:46Z</time>
      </trkpt>
      <trkpt lat="38.6400570" lon="-0.7337260">
        <ele>792.6</ele>
        <time>2019-05-12T06:48:53Z</time>
      </trkpt>
      <trkpt lat="38.6402580" lon="-0.7335720">
        <ele>792.2</ele>
        <time>2019-05-12T06:49:00Z</time>
      </trkpt>
      <trkpt lat="38.6404580" lon="-0.7335510">
        <ele>792.0</ele>
        <time>2019-05-12T06:49:06Z</time>
      </trkpt>
      <trkpt lat="38.6406690" lon="-0.7335990">
        <ele>792.0</ele>
        <time>2019-05-12T06:49:12Z</time>
      </trkpt>
      <trkpt lat="38.6407800" lon="-0.7336290">
        <ele>791.6</ele>
        <time>2019-05-12T06:49:15Z</time>
      </trkpt>
      <trkpt lat="38.6408380" lon="-0.7336400">
        <ele>791.0</ele>
        <time>2019-05-12T06:49:16Z</time>
      </trkpt>
      <trkpt lat="38.6409040" lon="-0.7336470">
        <ele>790.4</ele>
        <time>2019-05-12T06:49:17Z</time>
      </trkpt>
      <trkpt lat="38.6410480" lon="-0.7336720">
        <ele>788.6</ele>
        <time>2019-05-12T06:49:19Z</time>
      </trkpt>
      <trkpt lat="38.6411210" lon="-0.7336890">
        <ele>787.8</ele>
        <time>2019-05-12T06:49:20Z</time>
      </trkpt>
      <trkpt lat="38.6411940" lon="-0.7337040">
        <ele>787.0</ele>
        <time>2019-05-12T06:49:21Z</time>
      </trkpt>
      <trkpt lat="38.6413470" lon="-0.7337410">
        <ele>785.6</ele>
        <time>2019-05-12T06:49:23Z</time>
      </trkpt>
      <trkpt lat="38.6414760" lon="-0.7337710">
        <ele>785.2</ele>
        <time>2019-05-12T06:49:25Z</time>
      </trkpt>
      <trkpt lat="38.6415210" lon="-0.7337930">
        <ele>785.8</ele>
        <time>2019-05-12T06:49:26Z</time>
      </trkpt>
      <trkpt lat="38.6415960" lon="-0.7338300">
        <ele>787.0</ele>
        <time>2019-05-12T06:49:28Z</time>
      </trkpt>
      <trkpt lat="38.6416520" lon="-0.7338550">
        <ele>788.0</ele>
        <time>2019-05-12T06:49:30Z</time>
      </trkpt>
      <trkpt lat="38.6417280" lon="-0.7338790">
        <ele>789.4</ele>
        <time>2019-05-12T06:49:33Z</time>
      </trkpt>
      <trkpt lat="38.6418090" lon="-0.7338760">
        <ele>790.0</ele>
        <time>2019-05-12T06:49:36Z</time>
      </trkpt>
      <trkpt lat="38.6418680" lon="-0.7338650">
        <ele>790.6</ele>
        <time>2019-05-12T06:49:39Z</time>
      </trkpt>
      <trkpt lat="38.6419230" lon="-0.7338560">
        <ele>790.8</ele>
        <time>2019-05-12T06:49:41Z</time>
      </trkpt>
      <trkpt lat="38.6420520" lon="-0.7338310">
        <ele>791.6</ele>
        <time>2019-05-12T06:49:46Z</time>
      </trkpt>
      <trkpt lat="38.6420980" lon="-0.7338080">
        <ele>792.0</ele>
        <time>2019-05-12T06:49:48Z</time>
      </trkpt>
      <trkpt lat="38.6421440" lon="-0.7337690">
        <ele>792.6</ele>
        <time>2019-05-12T06:49:50Z</time>
      </trkpt>
      <trkpt lat="38.6422080" lon="-0.7336840">
        <ele>793.6</ele>
        <time>2019-05-12T06:49:54Z</time>
      </trkpt>
      <trkpt lat="38.6422290" lon="-0.7336270">
        <ele>793.8</ele>
        <time>2019-05-12T06:49:56Z</time>
      </trkpt>
      <trkpt lat="38.6422810" lon="-0.7335100">
        <ele>794.6</ele>
        <time>2019-05-12T06:50:00Z</time>
      </trkpt>
      <trkpt lat="38.6423230" lon="-0.7334260">
        <ele>794.8</ele>
        <time>2019-05-12T06:50:03Z</time>
      </trkpt>
      <trkpt lat="38.6423730" lon="-0.7333160">
        <ele>796.0</ele>
        <time>2019-05-12T06:50:07Z</time>
      </trkpt>
      <trkpt lat="38.6423970" lon="-0.7332390">
        <ele>796.4</ele>
        <time>2019-05-12T06:50:09Z</time>
      </trkpt>
      <trkpt lat="38.6423870" lon="-0.7330820">
        <ele>796.8</ele>
        <time>2019-05-12T06:50:13Z</time>
      </trkpt>
      <trkpt lat="38.6423450" lon="-0.7329900">
        <ele>796.2</ele>
        <time>2019-05-12T06:50:15Z</time>
      </trkpt>
      <trkpt lat="38.6422720" lon="-0.7328740">
        <ele>796.0</ele>
        <time>2019-05-12T06:50:18Z</time>
      </trkpt>
      <trkpt lat="38.6421690" lon="-0.7327530">
        <ele>794.8</ele>
        <time>2019-05-12T06:50:21Z</time>
      </trkpt>
      <trkpt lat="38.6420820" lon="-0.7326810">
        <ele>794.0</ele>
        <time>2019-05-12T06:50:23Z</time>
      </trkpt>
      <trkpt lat="38.6420460" lon="-0.7326620">
        <ele>793.6</ele>
        <time>2019-05-12T06:50:24Z</time>
      </trkpt>
      <trkpt lat="38.6419650" lon="-0.7326440">
        <ele>793.6</ele>
        <time>2019-05-12T06:50:27Z</time>
      </trkpt>
      <trkpt lat="38.6419350" lon="-0.7326370">
        <ele>793.8</ele>
        <time>2019-05-12T06:50:28Z</time>
      </trkpt>
      <trkpt lat="38.6418230" lon="-0.7325820">
        <ele>793.8</ele>
        <time>2019-05-12T06:50:33Z</time>
      </trkpt>
      <trkpt lat="38.6417360" lon="-0.7325320">
        <ele>794.2</ele>
        <time>2019-05-12T06:50:38Z</time>
      </trkpt>
      <trkpt lat="38.6416940" lon="-0.7324550">
        <ele>794.8</ele>
        <time>2019-05-12T06:50:41Z</time>
      </trkpt>
      <trkpt lat="38.6416680" lon="-0.7324090">
        <ele>795.0</ele>
        <time>2019-05-12T06:50:43Z</time>
      </trkpt>
      <trkpt lat="38.6416140" lon="-0.7322690">
        <ele>795.8</ele>
        <time>2019-05-12T06:50:48Z</time>
      </trkpt>
      <trkpt lat="38.6416070" lon="-0.7322390">
        <ele>796.0</ele>
        <time>2019-05-12T06:50:49Z</time>
      </trkpt>
      <trkpt lat="38.6415770" lon="-0.7320800">
        <ele>797.0</ele>
        <time>2019-05-12T06:50:55Z</time>
      </trkpt>
      <trkpt lat="38.6415690" lon="-0.7319460">
        <ele>798.0</ele>
        <time>2019-05-12T06:51:00Z</time>
      </trkpt>
      <trkpt lat="38.6415780" lon="-0.7319230">
        <ele>798.4</ele>
        <time>2019-05-12T06:51:01Z</time>
      </trkpt>
      <trkpt lat="38.6415850" lon="-0.7318070">
        <ele>799.2</ele>
        <time>2019-05-12T06:51:05Z</time>
      </trkpt>
      <trkpt lat="38.6415640" lon="-0.7316400">
        <ele>800.4</ele>
        <time>2019-05-12T06:51:10Z</time>
      </trkpt>
      <trkpt lat="38.6415600" lon="-0.7316160">
        <ele>800.6</ele>
        <time>2019-05-12T06:51:11Z</time>
      </trkpt>
      <trkpt lat="38.6415470" lon="-0.7314920">
        <ele>801.6</ele>
        <time>2019-05-12T06:51:15Z</time>
      </trkpt>
      <trkpt lat="38.6415280" lon="-0.7314290">
        <ele>802.0</ele>
        <time>2019-05-12T06:51:17Z</time>
      </trkpt>
      <trkpt lat="38.6415220" lon="-0.7313270">
        <ele>802.6</ele>
        <time>2019-05-12T06:51:20Z</time>
      </trkpt>
      <trkpt lat="38.6415270" lon="-0.7312910">
        <ele>802.8</ele>
        <time>2019-05-12T06:51:21Z</time>
      </trkpt>
      <trkpt lat="38.6415380" lon="-0.7312620">
        <ele>803.0</ele>
        <time>2019-05-12T06:51:22Z</time>
      </trkpt>
      <trkpt lat="38.6416450" lon="-0.7311870">
        <ele>803.8</ele>
        <time>2019-05-12T06:51:27Z</time>
      </trkpt>
      <trkpt lat="38.6417670" lon="-0.7310790">
        <ele>804.2</ele>
        <time>2019-05-12T06:51:32Z</time>
      </trkpt>
      <trkpt lat="38.6418550" lon="-0.7309420">
        <ele>805.0</ele>
        <time>2019-05-12T06:51:37Z</time>
      </trkpt>
      <trkpt lat="38.6418890" lon="-0.7308830">
        <ele>805.0</ele>
        <time>2019-05-12T06:51:39Z</time>
      </trkpt>
      <trkpt lat="38.6420370" lon="-0.7306980">
        <ele>805.8</ele>
        <time>2019-05-12T06:51:46Z</time>
      </trkpt>
      <trkpt lat="38.6421730" lon="-0.7304840">
        <ele>804.8</ele>
        <time>2019-05-12T06:51:51Z</time>
      </trkpt>
      <trkpt lat="38.6422170" lon="-0.7303340">
        <ele>804.6</ele>
        <time>2019-05-12T06:51:55Z</time>
      </trkpt>
      <trkpt lat="38.6422630" lon="-0.7301070">
        <ele>806.0</ele>
        <time>2019-05-12T06:52:01Z</time>
      </trkpt>
      <trkpt lat="38.6422670" lon="-0.7300780">
        <ele>806.4</ele>
        <time>2019-05-12T06:52:02Z</time>
      </trkpt>
      <trkpt lat="38.6423070" lon="-0.7299940">
        <ele>807.6</ele>
        <time>2019-05-12T06:52:05Z</time>
      </trkpt>
      <trkpt lat="38.6423200" lon="-0.7299620">
        <ele>808.0</ele>
        <time>2019-05-12T06:52:06Z</time>
      </trkpt>
      <trkpt lat="38.6424070" lon="-0.7298550">
        <ele>808.8</ele>
        <time>2019-05-12T06:52:10Z</time>
      </trkpt>
      <trkpt lat="38.6424330" lon="-0.7298340">
        <ele>808.8</ele>
        <time>2019-05-12T06:52:11Z</time>
      </trkpt>
      <trkpt lat="38.6426250" lon="-0.7297870">
        <ele>808.2</ele>
        <time>2019-05-12T06:52:16Z</time>
      </trkpt>
      <trkpt lat="38.6427000" lon="-0.7297640">
        <ele>807.8</ele>
        <time>2019-05-12T06:52:18Z</time>
      </trkpt>
      <trkpt lat="38.6427460" lon="-0.7296970">
        <ele>807.2</ele>
        <time>2019-05-12T06:52:20Z</time>
      </trkpt>
      <trkpt lat="38.6428110" lon="-0.7295200">
        <ele>806.6</ele>
        <time>2019-05-12T06:52:24Z</time>
      </trkpt>
      <trkpt lat="38.6428150" lon="-0.7294030">
        <ele>806.2</ele>
        <time>2019-05-12T06:52:26Z</time>
      </trkpt>
      <trkpt lat="38.6428150" lon="-0.7292600">
        <ele>805.4</ele>
        <time>2019-05-12T06:52:28Z</time>
      </trkpt>
      <trkpt lat="38.6428430" lon="-0.7290460">
        <ele>804.2</ele>
        <time>2019-05-12T06:52:31Z</time>
      </trkpt>
      <trkpt lat="38.6428860" lon="-0.7289160">
        <ele>803.4</ele>
        <time>2019-05-12T06:52:33Z</time>
      </trkpt>
      <trkpt lat="38.6429200" lon="-0.7288190">
        <ele>803.2</ele>
        <time>2019-05-12T06:52:35Z</time>
      </trkpt>
      <trkpt lat="38.6429570" lon="-0.7287040">
        <ele>805.0</ele>
        <time>2019-05-12T06:52:39Z</time>
      </trkpt>
      <trkpt lat="38.6429650" lon="-0.7286710">
        <ele>805.4</ele>
        <time>2019-05-12T06:52:40Z</time>
      </trkpt>
      <trkpt lat="38.6429720" lon="-0.7285840">
        <ele>806.6</ele>
        <time>2019-05-12T06:52:43Z</time>
      </trkpt>
      <trkpt lat="38.6429730" lon="-0.7285560">
        <ele>807.2</ele>
        <time>2019-05-12T06:52:44Z</time>
      </trkpt>
      <trkpt lat="38.6429710" lon="-0.7285210">
        <ele>807.6</ele>
        <time>2019-05-12T06:52:45Z</time>
      </trkpt>
      <trkpt lat="38.6429980" lon="-0.7283980">
        <ele>809.0</ele>
        <time>2019-05-12T06:52:49Z</time>
      </trkpt>
      <trkpt lat="38.6430870" lon="-0.7282720">
        <ele>810.0</ele>
        <time>2019-05-12T06:52:54Z</time>
      </trkpt>
      <trkpt lat="38.6431630" lon="-0.7281970">
        <ele>811.4</ele>
        <time>2019-05-12T06:52:58Z</time>
      </trkpt>
      <trkpt lat="38.6431990" lon="-0.7281520">
        <ele>811.6</ele>
        <time>2019-05-12T06:53:00Z</time>
      </trkpt>
      <trkpt lat="38.6432340" lon="-0.7280650">
        <ele>812.4</ele>
        <time>2019-05-12T06:53:03Z</time>
      </trkpt>
      <trkpt lat="38.6432640" lon="-0.7280150">
        <ele>812.8</ele>
        <time>2019-05-12T06:53:05Z</time>
      </trkpt>
      <trkpt lat="38.6433020" lon="-0.7279660">
        <ele>813.4</ele>
        <time>2019-05-12T06:53:07Z</time>
      </trkpt>
      <trkpt lat="38.6433900" lon="-0.7278390">
        <ele>814.2</ele>
        <time>2019-05-12T06:53:12Z</time>
      </trkpt>
      <trkpt lat="38.6435200" lon="-0.7276560">
        <ele>814.0</ele>
        <time>2019-05-12T06:53:18Z</time>
      </trkpt>
      <trkpt lat="38.6437110" lon="-0.7276230">
        <ele>814.0</ele>
        <time>2019-05-12T06:53:23Z</time>
      </trkpt>
      <trkpt lat="38.6437540" lon="-0.7276430">
        <ele>814.0</ele>
        <time>2019-05-12T06:53:24Z</time>
      </trkpt>
      <trkpt lat="38.6438910" lon="-0.7277500">
        <ele>812.8</ele>
        <time>2019-05-12T06:53:27Z</time>
      </trkpt>
      <trkpt lat="38.6439280" lon="-0.7277710">
        <ele>812.8</ele>
        <time>2019-05-12T06:53:28Z</time>
      </trkpt>
      <trkpt lat="38.6439820" lon="-0.7277990">
        <ele>812.4</ele>
        <time>2019-05-12T06:53:29Z</time>
      </trkpt>
      <trkpt lat="38.6440870" lon="-0.7278420">
        <ele>811.2</ele>
        <time>2019-05-12T06:53:31Z</time>
      </trkpt>
      <trkpt lat="38.6441900" lon="-0.7278430">
        <ele>811.6</ele>
        <time>2019-05-12T06:53:34Z</time>
      </trkpt>
      <trkpt lat="38.6442380" lon="-0.7278070">
        <ele>812.4</ele>
        <time>2019-05-12T06:53:36Z</time>
      </trkpt>
      <trkpt lat="38.6442780" lon="-0.7277440">
        <ele>812.8</ele>
        <time>2019-05-12T06:53:38Z</time>
      </trkpt>
      <trkpt lat="38.6443570" lon="-0.7276960">
        <ele>813.8</ele>
        <time>2019-05-12T06:53:41Z</time>
      </trkpt>
      <trkpt lat="38.6443800" lon="-0.7276940">
        <ele>814.0</ele>
        <time>2019-05-12T06:53:42Z</time>
      </trkpt>
      <trkpt lat="38.6444580" lon="-0.7276920">
        <ele>814.8</ele>
        <time>2019-05-12T06:53:45Z</time>
      </trkpt>
      <trkpt lat="38.6445150" lon="-0.7276620">
        <ele>815.4</ele>
        <time>2019-05-12T06:53:47Z</time>
      </trkpt>
      <trkpt lat="38.6446190" lon="-0.7275950">
        <ele>816.0</ele>
        <time>2019-05-12T06:53:51Z</time>
      </trkpt>
      <trkpt lat="38.6447110" lon="-0.7275160">
        <ele>816.2</ele>
        <time>2019-05-12T06:53:55Z</time>
      </trkpt>
      <trkpt lat="38.6447920" lon="-0.7274180">
        <ele>817.0</ele>
        <time>2019-05-12T06:53:59Z</time>
      </trkpt>
      <trkpt lat="38.6448140" lon="-0.7273960">
        <ele>817.2</ele>
        <time>2019-05-12T06:54:00Z</time>
      </trkpt>
      <trkpt lat="38.6449110" lon="-0.7272590">
        <ele>817.8</ele>
        <time>2019-05-12T06:54:05Z</time>
      </trkpt>
      <trkpt lat="38.6449500" lon="-0.7272060">
        <ele>818.2</ele>
        <time>2019-05-12T06:54:07Z</time>
      </trkpt>
      <trkpt lat="38.6450260" lon="-0.7270480">
        <ele>819.0</ele>
        <time>2019-05-12T06:54:12Z</time>
      </trkpt>
      <trkpt lat="38.6450910" lon="-0.7268710">
        <ele>819.0</ele>
        <time>2019-05-12T06:54:17Z</time>
      </trkpt>
      <trkpt lat="38.6451040" lon="-0.7268350">
        <ele>819.2</ele>
        <time>2019-05-12T06:54:18Z</time>
      </trkpt>
      <trkpt lat="38.6451450" lon="-0.7266550">
        <ele>819.6</ele>
        <time>2019-05-12T06:54:23Z</time>
      </trkpt>
      <trkpt lat="38.6451590" lon="-0.7265470">
        <ele>820.2</ele>
        <time>2019-05-12T06:54:26Z</time>
      </trkpt>
      <trkpt lat="38.6451670" lon="-0.7264660">
        <ele>820.6</ele>
        <time>2019-05-12T06:54:28Z</time>
      </trkpt>
      <trkpt lat="38.6451790" lon="-0.7262160">
        <ele>820.6</ele>
        <time>2019-05-12T06:54:34Z</time>
      </trkpt>
      <trkpt lat="38.6451630" lon="-0.7259400">
        <ele>819.6</ele>
        <time>2019-05-12T06:54:39Z</time>
      </trkpt>
      <trkpt lat="38.6451550" lon="-0.7258150">
        <ele>819.0</ele>
        <time>2019-05-12T06:54:41Z</time>
      </trkpt>
      <trkpt lat="38.6451440" lon="-0.7256730">
        <ele>818.0</ele>
        <time>2019-05-12T06:54:43Z</time>
      </trkpt>
      <trkpt lat="38.6451050" lon="-0.7254870">
        <ele>818.0</ele>
        <time>2019-05-12T06:54:47Z</time>
      </trkpt>
      <trkpt lat="38.6450900" lon="-0.7252750">
        <ele>818.6</ele>
        <time>2019-05-12T06:54:52Z</time>
      </trkpt>
      <trkpt lat="38.6451170" lon="-0.7252080">
        <ele>819.0</ele>
        <time>2019-05-12T06:54:54Z</time>
      </trkpt>
      <trkpt lat="38.6451400" lon="-0.7251930">
        <ele>819.2</ele>
        <time>2019-05-12T06:54:55Z</time>
      </trkpt>
      <trkpt lat="38.6451880" lon="-0.7251410">
        <ele>819.6</ele>
        <time>2019-05-12T06:54:57Z</time>
      </trkpt>
      <trkpt lat="38.6452500" lon="-0.7250340">
        <ele>820.2</ele>
        <time>2019-05-12T06:55:02Z</time>
      </trkpt>
      <trkpt lat="38.6453480" lon="-0.7249940">
        <ele>820.2</ele>
        <time>2019-05-12T06:55:06Z</time>
      </trkpt>
      <trkpt lat="38.6453870" lon="-0.7249910">
        <ele>820.0</ele>
        <time>2019-05-12T06:55:07Z</time>
      </trkpt>
      <trkpt lat="38.6454550" lon="-0.7249700">
        <ele>819.2</ele>
        <time>2019-05-12T06:55:10Z</time>
      </trkpt>
      <trkpt lat="38.6454700" lon="-0.7249600">
        <ele>819.0</ele>
        <time>2019-05-12T06:55:11Z</time>
      </trkpt>
      <trkpt lat="38.6454910" lon="-0.7249590">
        <ele>819.2</ele>
        <time>2019-05-12T06:55:12Z</time>
      </trkpt>
      <trkpt lat="38.6455200" lon="-0.7249500">
        <ele>819.4</ele>
        <time>2019-05-12T06:55:14Z</time>
      </trkpt>
      <trkpt lat="38.6455370" lon="-0.7249570">
        <ele>819.8</ele>
        <time>2019-05-12T06:55:16Z</time>
      </trkpt>
      <trkpt lat="38.6456380" lon="-0.7249040">
        <ele>820.0</ele>
        <time>2019-05-12T06:55:31Z</time>
      </trkpt>
      <trkpt lat="38.6456820" lon="-0.7249010">
        <ele>820.2</ele>
        <time>2019-05-12T06:55:33Z</time>
      </trkpt>
      <trkpt lat="38.6457230" lon="-0.7248950">
        <ele>820.4</ele>
        <time>2019-05-12T06:55:35Z</time>
      </trkpt>
      <trkpt lat="38.6457480" lon="-0.7248850">
        <ele>820.4</ele>
        <time>2019-05-12T06:55:36Z</time>
      </trkpt>
      <trkpt lat="38.6458440" lon="-0.7248560">
        <ele>820.6</ele>
        <time>2019-05-12T06:55:41Z</time>
      </trkpt>
      <trkpt lat="38.6458890" lon="-0.7248000">
        <ele>821.4</ele>
        <time>2019-05-12T06:55:45Z</time>
      </trkpt>
      <trkpt lat="38.6458850" lon="-0.7247870">
        <ele>821.8</ele>
        <time>2019-05-12T06:55:46Z</time>
      </trkpt>
      <trkpt lat="38.6458830" lon="-0.7247550">
        <ele>822.2</ele>
        <time>2019-05-12T06:55:50Z</time>
      </trkpt>
      <trkpt lat="38.6459090" lon="-0.7247530">
        <ele>822.2</ele>
        <time>2019-05-12T06:55:51Z</time>
      </trkpt>
      <trkpt lat="38.6459300" lon="-0.7247570">
        <ele>822.4</ele>
        <time>2019-05-12T06:55:52Z</time>
      </trkpt>
      <trkpt lat="38.6460110" lon="-0.7247220">
        <ele>822.6</ele>
        <time>2019-05-12T06:55:55Z</time>
      </trkpt>
      <trkpt lat="38.6460430" lon="-0.7247040">
        <ele>822.8</ele>
        <time>2019-05-12T06:55:56Z</time>
      </trkpt>
      <trkpt lat="38.6461990" lon="-0.7245600">
        <ele>822.2</ele>
        <time>2019-05-12T06:56:01Z</time>
      </trkpt>
      <trkpt lat="38.6463020" lon="-0.7244430">
        <ele>822.4</ele>
        <time>2019-05-12T06:56:06Z</time>
      </trkpt>
      <trkpt lat="38.6463970" lon="-0.7242940">
        <ele>822.8</ele>
        <time>2019-05-12T06:56:12Z</time>
      </trkpt>
      <trkpt lat="38.6465170" lon="-0.7241060">
        <ele>823.0</ele>
        <time>2019-05-12T06:56:18Z</time>
      </trkpt>
      <trkpt lat="38.6465500" lon="-0.7240450">
        <ele>823.4</ele>
        <time>2019-05-12T06:56:21Z</time>
      </trkpt>
      <trkpt lat="38.6465630" lon="-0.7240220">
        <ele>823.6</ele>
        <time>2019-05-12T06:56:22Z</time>
      </trkpt>
      <trkpt lat="38.6465840" lon="-0.7238750">
        <ele>823.2</ele>
        <time>2019-05-12T06:56:27Z</time>
      </trkpt>
      <trkpt lat="38.6466280" lon="-0.7237310">
        <ele>824.2</ele>
        <time>2019-05-12T06:56:32Z</time>
      </trkpt>
      <trkpt lat="38.6466440" lon="-0.7235790">
        <ele>824.4</ele>
        <time>2019-05-12T06:56:36Z</time>
      </trkpt>
      <trkpt lat="38.6466580" lon="-0.7235540">
        <ele>824.4</ele>
        <time>2019-05-12T06:56:37Z</time>
      </trkpt>
      <trkpt lat="38.6466660" lon="-0.7234450">
        <ele>824.8</ele>
        <time>2019-05-12T06:56:40Z</time>
      </trkpt>
      <trkpt lat="38.6467000" lon="-0.7232990">
        <ele>825.0</ele>
        <time>2019-05-12T06:56:46Z</time>
      </trkpt>
      <trkpt lat="38.6467020" lon="-0.7231220">
        <ele>825.2</ele>
        <time>2019-05-12T06:56:51Z</time>
      </trkpt>
      <trkpt lat="38.6467410" lon="-0.7229980">
        <ele>825.2</ele>
        <time>2019-05-12T06:56:56Z</time>
      </trkpt>
      <trkpt lat="38.6467620" lon="-0.7229330">
        <ele>825.4</ele>
        <time>2019-05-12T06:56:59Z</time>
      </trkpt>
      <trkpt lat="38.6467690" lon="-0.7229040">
        <ele>825.4</ele>
        <time>2019-05-12T06:57:01Z</time>
      </trkpt>
      <trkpt lat="38.6468480" lon="-0.7228270">
        <ele>825.4</ele>
        <time>2019-05-12T06:57:15Z</time>
      </trkpt>
      <trkpt lat="38.6469780" lon="-0.7227250">
        <ele>826.2</ele>
        <time>2019-05-12T06:57:21Z</time>
      </trkpt>
      <trkpt lat="38.6470530" lon="-0.7226980">
        <ele>826.4</ele>
        <time>2019-05-12T06:57:24Z</time>
      </trkpt>
      <trkpt lat="38.6471560" lon="-0.7226880">
        <ele>826.4</ele>
        <time>2019-05-12T06:57:28Z</time>
      </trkpt>
      <trkpt lat="38.6472690" lon="-0.7226520">
        <ele>826.8</ele>
        <time>2019-05-12T06:57:33Z</time>
      </trkpt>
      <trkpt lat="38.6474170" lon="-0.7225910">
        <ele>827.0</ele>
        <time>2019-05-12T06:57:38Z</time>
      </trkpt>
      <trkpt lat="38.6475060" lon="-0.7225300">
        <ele>827.2</ele>
        <time>2019-05-12T06:57:43Z</time>
      </trkpt>
      <trkpt lat="38.6475240" lon="-0.7225160">
        <ele>827.6</ele>
        <time>2019-05-12T06:57:44Z</time>
      </trkpt>
      <trkpt lat="38.6475590" lon="-0.7224560">
        <ele>828.0</ele>
        <time>2019-05-12T06:57:48Z</time>
      </trkpt>
      <trkpt lat="38.6476380" lon="-0.7224280">
        <ele>828.2</ele>
        <time>2019-05-12T06:57:52Z</time>
      </trkpt>
      <trkpt lat="38.6476570" lon="-0.7224320">
        <ele>828.4</ele>
        <time>2019-05-12T06:57:53Z</time>
      </trkpt>
      <trkpt lat="38.6476750" lon="-0.7224160">
        <ele>828.4</ele>
        <time>2019-05-12T06:57:54Z</time>
      </trkpt>
      <trkpt lat="38.6477160" lon="-0.7223800">
        <ele>828.4</ele>
        <time>2019-05-12T06:57:57Z</time>
      </trkpt>
      <trkpt lat="38.6477320" lon="-0.7223650">
        <ele>828.2</ele>
        <time>2019-05-12T06:58:01Z</time>
      </trkpt>
      <trkpt lat="38.6477660" lon="-0.7223280">
        <ele>828.4</ele>
        <time>2019-05-12T06:58:06Z</time>
      </trkpt>
      <trkpt lat="38.6477890" lon="-0.7223010">
        <ele>828.4</ele>
        <time>2019-05-12T06:58:08Z</time>
      </trkpt>
      <trkpt lat="38.6478090" lon="-0.7222890">
        <ele>828.6</ele>
        <time>2019-05-12T06:58:11Z</time>
      </trkpt>
      <trkpt lat="38.6478160" lon="-0.7222850">
        <ele>828.8</ele>
        <time>2019-05-12T06:58:14Z</time>
      </trkpt>
      <trkpt lat="38.6478720" lon="-0.7222280">
        <ele>828.6</ele>
        <time>2019-05-12T06:58:19Z</time>
      </trkpt>
      <trkpt lat="38.6479970" lon="-0.7221160">
        <ele>829.4</ele>
        <time>2019-05-12T06:58:40Z</time>
      </trkpt>
      <trkpt lat="38.6480210" lon="-0.7220780">
        <ele>829.6</ele>
        <time>2019-05-12T06:58:42Z</time>
      </trkpt>
      <trkpt lat="38.6480400" lon="-0.7220610">
        <ele>829.8</ele>
        <time>2019-05-12T06:58:43Z</time>
      </trkpt>
      <trkpt lat="38.6480580" lon="-0.7220340">
        <ele>829.6</ele>
        <time>2019-05-12T06:58:45Z</time>
      </trkpt>
      <trkpt lat="38.6480640" lon="-0.7219780">
        <ele>829.6</ele>
        <time>2019-05-12T06:58:47Z</time>
      </trkpt>
      <trkpt lat="38.6480700" lon="-0.7218880">
        <ele>829.8</ele>
        <time>2019-05-12T06:58:53Z</time>
      </trkpt>
      <trkpt lat="38.6480870" lon="-0.7218590">
        <ele>829.8</ele>
        <time>2019-05-12T06:58:55Z</time>
      </trkpt>
      <trkpt lat="38.6480880" lon="-0.7218290">
        <ele>829.8</ele>
        <time>2019-05-12T06:58:57Z</time>
      </trkpt>
      <trkpt lat="38.6481010" lon="-0.7217110">
        <ele>830.0</ele>
        <time>2019-05-12T06:59:01Z</time>
      </trkpt>
      <trkpt lat="38.6481430" lon="-0.7215350">
        <ele>830.2</ele>
        <time>2019-05-12T06:59:06Z</time>
      </trkpt>
      <trkpt lat="38.6482000" lon="-0.7213200">
        <ele>830.4</ele>
        <time>2019-05-12T06:59:12Z</time>
      </trkpt>
      <trkpt lat="38.6482100" lon="-0.7211470">
        <ele>830.6</ele>
        <time>2019-05-12T06:59:16Z</time>
      </trkpt>
      <trkpt lat="38.6482150" lon="-0.7211080">
        <ele>830.8</ele>
        <time>2019-05-12T06:59:17Z</time>
      </trkpt>
      <trkpt lat="38.6482490" lon="-0.7209520">
        <ele>830.8</ele>
        <time>2019-05-12T06:59:22Z</time>
      </trkpt>
      <trkpt lat="38.6482690" lon="-0.7208490">
        <ele>831.2</ele>
        <time>2019-05-12T06:59:26Z</time>
      </trkpt>
      <trkpt lat="38.6482890" lon="-0.7208300">
        <ele>831.4</ele>
        <time>2019-05-12T06:59:27Z</time>
      </trkpt>
      <trkpt lat="38.6483750" lon="-0.7207520">
        <ele>831.6</ele>
        <time>2019-05-12T06:59:31Z</time>
      </trkpt>
      <trkpt lat="38.6483730" lon="-0.7206870">
        <ele>832.0</ele>
        <time>2019-05-12T06:59:33Z</time>
      </trkpt>
      <trkpt lat="38.6483710" lon="-0.7206520">
        <ele>832.2</ele>
        <time>2019-05-12T06:59:34Z</time>
      </trkpt>
      <trkpt lat="38.6483780" lon="-0.7206190">
        <ele>832.2</ele>
        <time>2019-05-12T06:59:35Z</time>
      </trkpt>
      <trkpt lat="38.6483910" lon="-0.7206030">
        <ele>832.2</ele>
        <time>2019-05-12T06:59:36Z</time>
      </trkpt>
      <trkpt lat="38.6484390" lon="-0.7205730">
        <ele>832.2</ele>
        <time>2019-05-12T06:59:39Z</time>
      </trkpt>
      <trkpt lat="38.6485270" lon="-0.7204820">
        <ele>833.0</ele>
        <time>2019-05-12T06:59:44Z</time>
      </trkpt>
      <trkpt lat="38.6485550" lon="-0.7204510">
        <ele>833.0</ele>
        <time>2019-05-12T06:59:45Z</time>
      </trkpt>
      <trkpt lat="38.6486520" lon="-0.7203900">
        <ele>832.8</ele>
        <time>2019-05-12T06:59:48Z</time>
      </trkpt>
      <trkpt lat="38.6487650" lon="-0.7203990">
        <ele>833.0</ele>
        <time>2019-05-12T06:59:52Z</time>
      </trkpt>
      <trkpt lat="38.6489350" lon="-0.7204420">
        <ele>833.4</ele>
        <time>2019-05-12T06:59:58Z</time>
      </trkpt>
      <trkpt lat="38.6490430" lon="-0.7204790">
        <ele>833.6</ele>
        <time>2019-05-12T07:00:03Z</time>
      </trkpt>
      <trkpt lat="38.6491740" lon="-0.7205230">
        <ele>834.2</ele>
        <time>2019-05-12T07:00:10Z</time>
      </trkpt>
      <trkpt lat="38.6491910" lon="-0.7205280">
        <ele>834.2</ele>
        <time>2019-05-12T07:00:11Z</time>
      </trkpt>
      <trkpt lat="38.6492290" lon="-0.7205480">
        <ele>834.2</ele>
        <time>2019-05-12T07:00:13Z</time>
      </trkpt>
      <trkpt lat="38.6492880" lon="-0.7205590">
        <ele>834.2</ele>
        <time>2019-05-12T07:00:16Z</time>
      </trkpt>
      <trkpt lat="38.6493450" lon="-0.7205750">
        <ele>834.4</ele>
        <time>2019-05-12T07:00:19Z</time>
      </trkpt>
      <trkpt lat="38.6494120" lon="-0.7205880">
        <ele>834.6</ele>
        <time>2019-05-12T07:00:22Z</time>
      </trkpt>
      <trkpt lat="38.6495550" lon="-0.7206410">
        <ele>834.6</ele>
        <time>2019-05-12T07:00:28Z</time>
      </trkpt>
      <trkpt lat="38.6496000" lon="-0.7206660">
        <ele>835.2</ele>
        <time>2019-05-12T07:00:31Z</time>
      </trkpt>
      <trkpt lat="38.6496130" lon="-0.7206620">
        <ele>835.4</ele>
        <time>2019-05-12T07:00:32Z</time>
      </trkpt>
      <trkpt lat="38.6496250" lon="-0.7206560">
        <ele>835.4</ele>
        <time>2019-05-12T07:00:33Z</time>
      </trkpt>
      <trkpt lat="38.6496620" lon="-0.7206460">
        <ele>835.4</ele>
        <time>2019-05-12T07:00:36Z</time>
      </trkpt>
      <trkpt lat="38.6497260" lon="-0.7205530">
        <ele>836.0</ele>
        <time>2019-05-12T07:00:50Z</time>
      </trkpt>
      <trkpt lat="38.6497490" lon="-0.7205100">
        <ele>835.8</ele>
        <time>2019-05-12T07:00:53Z</time>
      </trkpt>
      <trkpt lat="38.6497590" lon="-0.7205040">
        <ele>836.0</ele>
        <time>2019-05-12T07:00:54Z</time>
      </trkpt>
      <trkpt lat="38.6497660" lon="-0.7204890">
        <ele>836.4</ele>
        <time>2019-05-12T07:00:56Z</time>
      </trkpt>
      <trkpt lat="38.6498230" lon="-0.7204540">
        <ele>836.6</ele>
        <time>2019-05-12T07:01:05Z</time>
      </trkpt>
      <trkpt lat="38.6499080" lon="-0.7203900">
        <ele>836.8</ele>
        <time>2019-05-12T07:01:10Z</time>
      </trkpt>
      <trkpt lat="38.6499220" lon="-0.7203760">
        <ele>836.8</ele>
        <time>2019-05-12T07:01:11Z</time>
      </trkpt>
      <trkpt lat="38.6500280" lon="-0.7202600">
        <ele>837.2</ele>
        <time>2019-05-12T07:01:16Z</time>
      </trkpt>
      <trkpt lat="38.6501380" lon="-0.7201100">
        <ele>837.4</ele>
        <time>2019-05-12T07:01:22Z</time>
      </trkpt>
      <trkpt lat="38.6501470" lon="-0.7199350">
        <ele>837.6</ele>
        <time>2019-05-12T07:01:28Z</time>
      </trkpt>
      <trkpt lat="38.6501490" lon="-0.7199110">
        <ele>837.8</ele>
        <time>2019-05-12T07:01:30Z</time>
      </trkpt>
      <trkpt lat="38.6501480" lon="-0.7199090">
        <ele>838.2</ele>
        <time>2019-05-12T07:01:32Z</time>
      </trkpt>
      <trkpt lat="38.6501610" lon="-0.7198390">
        <ele>838.8</ele>
        <time>2019-05-12T07:01:42Z</time>
      </trkpt>
      <trkpt lat="38.6501630" lon="-0.7197910">
        <ele>838.8</ele>
        <time>2019-05-12T07:01:44Z</time>
      </trkpt>
      <trkpt lat="38.6501370" lon="-0.7196850">
        <ele>838.8</ele>
        <time>2019-05-12T07:01:50Z</time>
      </trkpt>
      <trkpt lat="38.6501410" lon="-0.7197000">
        <ele>837.4</ele>
        <time>2019-05-12T07:01:51Z</time>
      </trkpt>
      <trkpt lat="38.6501080" lon="-0.7195760">
        <ele>839.4</ele>
        <time>2019-05-12T07:02:04Z</time>
      </trkpt>
      <trkpt lat="38.6501070" lon="-0.7195680">
        <ele>839.6</ele>
        <time>2019-05-12T07:02:05Z</time>
      </trkpt>
      <trkpt lat="38.6501130" lon="-0.7194710">
        <ele>840.2</ele>
        <time>2019-05-12T07:02:12Z</time>
      </trkpt>
      <trkpt lat="38.6501380" lon="-0.7192390">
        <ele>841.4</ele>
        <time>2019-05-12T07:02:36Z</time>
      </trkpt>
      <trkpt lat="38.6501440" lon="-0.7192160">
        <ele>841.6</ele>
        <time>2019-05-12T07:02:38Z</time>
      </trkpt>
      <trkpt lat="38.6501870" lon="-0.7192540">
        <ele>842.2</ele>
        <time>2019-05-12T07:02:42Z</time>
      </trkpt>
      <trkpt lat="38.6502390" lon="-0.7193580">
        <ele>842.8</ele>
        <time>2019-05-12T07:02:48Z</time>
      </trkpt>
      <trkpt lat="38.6502600" lon="-0.7194180">
        <ele>843.2</ele>
        <time>2019-05-12T07:02:52Z</time>
      </trkpt>
      <trkpt lat="38.6502740" lon="-0.7194610">
        <ele>843.2</ele>
        <time>2019-05-12T07:02:54Z</time>
      </trkpt>
      <trkpt lat="38.6502990" lon="-0.7195600">
        <ele>844.0</ele>
        <time>2019-05-12T07:02:59Z</time>
      </trkpt>
      <trkpt lat="38.6503230" lon="-0.7196210">
        <ele>844.2</ele>
        <time>2019-05-12T07:03:02Z</time>
      </trkpt>
      <trkpt lat="38.6503430" lon="-0.7197120">
        <ele>845.0</ele>
        <time>2019-05-12T07:03:06Z</time>
      </trkpt>
      <trkpt lat="38.6503480" lon="-0.7197600">
        <ele>845.4</ele>
        <time>2019-05-12T07:03:08Z</time>
      </trkpt>
      <trkpt lat="38.6503620" lon="-0.7199250">
        <ele>846.0</ele>
        <time>2019-05-12T07:03:14Z</time>
      </trkpt>
      <trkpt lat="38.6503730" lon="-0.7199900">
        <ele>846.0</ele>
        <time>2019-05-12T07:03:16Z</time>
      </trkpt>
      <trkpt lat="38.6503970" lon="-0.7201320">
        <ele>847.0</ele>
        <time>2019-05-12T07:03:20Z</time>
      </trkpt>
      <trkpt lat="38.6503990" lon="-0.7201700">
        <ele>847.2</ele>
        <time>2019-05-12T07:03:21Z</time>
      </trkpt>
      <trkpt lat="38.6504080" lon="-0.7202060">
        <ele>847.4</ele>
        <time>2019-05-12T07:03:22Z</time>
      </trkpt>
      <trkpt lat="38.6504320" lon="-0.7203370">
        <ele>848.2</ele>
        <time>2019-05-12T07:03:26Z</time>
      </trkpt>
      <trkpt lat="38.6504540" lon="-0.7204190">
        <ele>848.2</ele>
        <time>2019-05-12T07:03:29Z</time>
      </trkpt>
      <trkpt lat="38.6504720" lon="-0.7205110">
        <ele>848.4</ele>
        <time>2019-05-12T07:03:32Z</time>
      </trkpt>
      <trkpt lat="38.6505150" lon="-0.7206790">
        <ele>848.6</ele>
        <time>2019-05-12T07:03:37Z</time>
      </trkpt>
      <trkpt lat="38.6505630" lon="-0.7209030">
        <ele>847.8</ele>
        <time>2019-05-12T07:03:42Z</time>
      </trkpt>
      <trkpt lat="38.6505960" lon="-0.7210230">
        <ele>847.0</ele>
        <time>2019-05-12T07:03:44Z</time>
      </trkpt>
      <trkpt lat="38.6506410" lon="-0.7212190">
        <ele>845.8</ele>
        <time>2019-05-12T07:03:47Z</time>
      </trkpt>
      <trkpt lat="38.6506940" lon="-0.7214110">
        <ele>844.8</ele>
        <time>2019-05-12T07:03:50Z</time>
      </trkpt>
      <trkpt lat="38.6507440" lon="-0.7215200">
        <ele>844.4</ele>
        <time>2019-05-12T07:03:52Z</time>
      </trkpt>
      <trkpt lat="38.6508070" lon="-0.7216470">
        <ele>843.4</ele>
        <time>2019-05-12T07:03:55Z</time>
      </trkpt>
      <trkpt lat="38.6508220" lon="-0.7216840">
        <ele>843.0</ele>
        <time>2019-05-12T07:03:56Z</time>
      </trkpt>
      <trkpt lat="38.6508630" lon="-0.7216910">
        <ele>842.6</ele>
        <time>2019-05-12T07:03:58Z</time>
      </trkpt>
      <trkpt lat="38.6508820" lon="-0.7216800">
        <ele>842.4</ele>
        <time>2019-05-12T07:03:59Z</time>
      </trkpt>
      <trkpt lat="38.6509580" lon="-0.7216420">
        <ele>841.8</ele>
        <time>2019-05-12T07:04:04Z</time>
      </trkpt>
      <trkpt lat="38.6510340" lon="-0.7215790">
        <ele>841.8</ele>
        <time>2019-05-12T07:04:08Z</time>
      </trkpt>
      <trkpt lat="38.6510970" lon="-0.7215180">
        <ele>841.6</ele>
        <time>2019-05-12T07:04:10Z</time>
      </trkpt>
      <trkpt lat="38.6512030" lon="-0.7213400">
        <ele>842.0</ele>
        <time>2019-05-12T07:04:15Z</time>
      </trkpt>
      <trkpt lat="38.6513100" lon="-0.7211430">
        <ele>842.0</ele>
        <time>2019-05-12T07:04:20Z</time>
      </trkpt>
      <trkpt lat="38.6514220" lon="-0.7208750">
        <ele>842.2</ele>
        <time>2019-05-12T07:04:26Z</time>
      </trkpt>
      <trkpt lat="38.6515000" lon="-0.7205150">
        <ele>842.6</ele>
        <time>2019-05-12T07:04:34Z</time>
      </trkpt>
      <trkpt lat="38.6515650" lon="-0.7202650">
        <ele>842.6</ele>
        <time>2019-05-12T07:04:40Z</time>
      </trkpt>
      <trkpt lat="38.6516250" lon="-0.7200390">
        <ele>843.0</ele>
        <time>2019-05-12T07:04:46Z</time>
      </trkpt>
      <trkpt lat="38.6516730" lon="-0.7198720">
        <ele>843.6</ele>
        <time>2019-05-12T07:04:50Z</time>
      </trkpt>
      <trkpt lat="38.6516840" lon="-0.7198330">
        <ele>843.6</ele>
        <time>2019-05-12T07:04:51Z</time>
      </trkpt>
      <trkpt lat="38.6518080" lon="-0.7195540">
        <ele>843.8</ele>
        <time>2019-05-12T07:04:59Z</time>
      </trkpt>
      <trkpt lat="38.6518880" lon="-0.7193860">
        <ele>844.2</ele>
        <time>2019-05-12T07:05:05Z</time>
      </trkpt>
      <trkpt lat="38.6519480" lon="-0.7192350">
        <ele>844.6</ele>
        <time>2019-05-12T07:05:10Z</time>
      </trkpt>
      <trkpt lat="38.6519190" lon="-0.7190350">
        <ele>844.6</ele>
        <time>2019-05-12T07:05:15Z</time>
      </trkpt>
      <trkpt lat="38.6519760" lon="-0.7188780">
        <ele>845.6</ele>
        <time>2019-05-12T07:05:20Z</time>
      </trkpt>
      <trkpt lat="38.6520070" lon="-0.7188210">
        <ele>845.6</ele>
        <time>2019-05-12T07:05:22Z</time>
      </trkpt>
      <trkpt lat="38.6520640" lon="-0.7187970">
        <ele>845.6</ele>
        <time>2019-05-12T07:05:24Z</time>
      </trkpt>
      <trkpt lat="38.6521310" lon="-0.7187960">
        <ele>845.8</ele>
        <time>2019-05-12T07:05:26Z</time>
      </trkpt>
      <trkpt lat="38.6523110" lon="-0.7187110">
        <ele>845.8</ele>
        <time>2019-05-12T07:05:31Z</time>
      </trkpt>
      <trkpt lat="38.6525240" lon="-0.7185570">
        <ele>846.0</ele>
        <time>2019-05-12T07:05:38Z</time>
      </trkpt>
      <trkpt lat="38.6526920" lon="-0.7184860">
        <ele>846.6</ele>
        <time>2019-05-12T07:05:44Z</time>
      </trkpt>
      <trkpt lat="38.6528410" lon="-0.7184770">
        <ele>846.8</ele>
        <time>2019-05-12T07:05:49Z</time>
      </trkpt>
      <trkpt lat="38.6528920" lon="-0.7184600">
        <ele>847.4</ele>
        <time>2019-05-12T07:05:51Z</time>
      </trkpt>
      <trkpt lat="38.6529720" lon="-0.7184540">
        <ele>847.0</ele>
        <time>2019-05-12T07:05:54Z</time>
      </trkpt>
      <trkpt lat="38.6530930" lon="-0.7183560">
        <ele>847.4</ele>
        <time>2019-05-12T07:05:59Z</time>
      </trkpt>
      <trkpt lat="38.6532170" lon="-0.7181830">
        <ele>847.8</ele>
        <time>2019-05-12T07:06:05Z</time>
      </trkpt>
      <trkpt lat="38.6532330" lon="-0.7181590">
        <ele>847.8</ele>
        <time>2019-05-12T07:06:06Z</time>
      </trkpt>
      <trkpt lat="38.6532630" lon="-0.7181430">
        <ele>848.0</ele>
        <time>2019-05-12T07:06:07Z</time>
      </trkpt>
      <trkpt lat="38.6533460" lon="-0.7180780">
        <ele>847.8</ele>
        <time>2019-05-12T07:06:10Z</time>
      </trkpt>
      <trkpt lat="38.6534560" lon="-0.7179290">
        <ele>848.0</ele>
        <time>2019-05-12T07:06:15Z</time>
      </trkpt>
      <trkpt lat="38.6534730" lon="-0.7178900">
        <ele>848.2</ele>
        <time>2019-05-12T07:06:17Z</time>
      </trkpt>
      <trkpt lat="38.6535040" lon="-0.7178130">
        <ele>848.2</ele>
        <time>2019-05-12T07:06:21Z</time>
      </trkpt>
      <trkpt lat="38.6535310" lon="-0.7177800">
        <ele>848.8</ele>
        <time>2019-05-12T07:06:22Z</time>
      </trkpt>
      <trkpt lat="38.6536120" lon="-0.7176870">
        <ele>849.0</ele>
        <time>2019-05-12T07:06:26Z</time>
      </trkpt>
      <trkpt lat="38.6537250" lon="-0.7175370">
        <ele>849.4</ele>
        <time>2019-05-12T07:06:33Z</time>
      </trkpt>
      <trkpt lat="38.6537620" lon="-0.7175300">
        <ele>849.2</ele>
        <time>2019-05-12T07:06:34Z</time>
      </trkpt>
      <trkpt lat="38.6538180" lon="-0.7174920">
        <ele>849.4</ele>
        <time>2019-05-12T07:06:36Z</time>
      </trkpt>
      <trkpt lat="38.6538630" lon="-0.7174550">
        <ele>849.8</ele>
        <time>2019-05-12T07:06:38Z</time>
      </trkpt>
      <trkpt lat="38.6538890" lon="-0.7173990">
        <ele>850.0</ele>
        <time>2019-05-12T07:06:40Z</time>
      </trkpt>
      <trkpt lat="38.6539180" lon="-0.7173340">
        <ele>850.0</ele>
        <time>2019-05-12T07:06:42Z</time>
      </trkpt>
      <trkpt lat="38.6539250" lon="-0.7172270">
        <ele>850.4</ele>
        <time>2019-05-12T07:06:45Z</time>
      </trkpt>
      <trkpt lat="38.6539650" lon="-0.7169950">
        <ele>850.4</ele>
        <time>2019-05-12T07:06:51Z</time>
      </trkpt>
      <trkpt lat="38.6539760" lon="-0.7169150">
        <ele>851.0</ele>
        <time>2019-05-12T07:06:53Z</time>
      </trkpt>
      <trkpt lat="38.6539960" lon="-0.7168790">
        <ele>850.8</ele>
        <time>2019-05-12T07:06:54Z</time>
      </trkpt>
      <trkpt lat="38.6540200" lon="-0.7168480">
        <ele>851.0</ele>
        <time>2019-05-12T07:06:55Z</time>
      </trkpt>
      <trkpt lat="38.6541250" lon="-0.7167110">
        <ele>851.6</ele>
        <time>2019-05-12T07:07:00Z</time>
      </trkpt>
      <trkpt lat="38.6542840" lon="-0.7165830">
        <ele>851.8</ele>
        <time>2019-05-12T07:07:06Z</time>
      </trkpt>
      <trkpt lat="38.6543090" lon="-0.7165560">
        <ele>852.0</ele>
        <time>2019-05-12T07:07:07Z</time>
      </trkpt>
      <trkpt lat="38.6544310" lon="-0.7163640">
        <ele>852.8</ele>
        <time>2019-05-12T07:07:13Z</time>
      </trkpt>
      <trkpt lat="38.6544490" lon="-0.7163410">
        <ele>853.2</ele>
        <time>2019-05-12T07:07:14Z</time>
      </trkpt>
      <trkpt lat="38.6545460" lon="-0.7162790">
        <ele>854.0</ele>
        <time>2019-05-12T07:07:18Z</time>
      </trkpt>
      <trkpt lat="38.6545780" lon="-0.7162710">
        <ele>854.2</ele>
        <time>2019-05-12T07:07:19Z</time>
      </trkpt>
      <trkpt lat="38.6547520" lon="-0.7161600">
        <ele>854.0</ele>
        <time>2019-05-12T07:07:25Z</time>
      </trkpt>
      <trkpt lat="38.6548430" lon="-0.7159810">
        <ele>853.8</ele>
        <time>2019-05-12T07:07:30Z</time>
      </trkpt>
      <trkpt lat="38.6548550" lon="-0.7157530">
        <ele>853.4</ele>
        <time>2019-05-12T07:07:35Z</time>
      </trkpt>
      <trkpt lat="38.6548770" lon="-0.7155740">
        <ele>853.8</ele>
        <time>2019-05-12T07:07:39Z</time>
      </trkpt>
      <trkpt lat="38.6548820" lon="-0.7153720">
        <ele>854.6</ele>
        <time>2019-05-12T07:07:44Z</time>
      </trkpt>
      <trkpt lat="38.6548360" lon="-0.7151960">
        <ele>855.0</ele>
        <time>2019-05-12T07:07:48Z</time>
      </trkpt>
      <trkpt lat="38.6548200" lon="-0.7150890">
        <ele>855.2</ele>
        <time>2019-05-12T07:07:51Z</time>
      </trkpt>
      <trkpt lat="38.6547990" lon="-0.7150750">
        <ele>855.6</ele>
        <time>2019-05-12T07:07:52Z</time>
      </trkpt>
      <trkpt lat="38.6547440" lon="-0.7150050">
        <ele>855.6</ele>
        <time>2019-05-12T07:07:55Z</time>
      </trkpt>
      <trkpt lat="38.6547260" lon="-0.7149670">
        <ele>855.4</ele>
        <time>2019-05-12T07:07:56Z</time>
      </trkpt>
      <trkpt lat="38.6545810" lon="-0.7147460">
        <ele>855.6</ele>
        <time>2019-05-12T07:08:02Z</time>
      </trkpt>
      <trkpt lat="38.6544900" lon="-0.7145410">
        <ele>855.6</ele>
        <time>2019-05-12T07:08:07Z</time>
      </trkpt>
      <trkpt lat="38.6543920" lon="-0.7144000">
        <ele>855.8</ele>
        <time>2019-05-12T07:08:11Z</time>
      </trkpt>
      <trkpt lat="38.6543420" lon="-0.7143440">
        <ele>856.2</ele>
        <time>2019-05-12T07:08:13Z</time>
      </trkpt>
      <trkpt lat="38.6542880" lon="-0.7142490">
        <ele>856.8</ele>
        <time>2019-05-12T07:08:16Z</time>
      </trkpt>
      <trkpt lat="38.6542790" lon="-0.7140790">
        <ele>856.8</ele>
        <time>2019-05-12T07:08:20Z</time>
      </trkpt>
      <trkpt lat="38.6542670" lon="-0.7139180">
        <ele>857.0</ele>
        <time>2019-05-12T07:08:24Z</time>
      </trkpt>
      <trkpt lat="38.6542580" lon="-0.7138790">
        <ele>857.2</ele>
        <time>2019-05-12T07:08:25Z</time>
      </trkpt>
      <trkpt lat="38.6542800" lon="-0.7138150">
        <ele>857.4</ele>
        <time>2019-05-12T07:08:27Z</time>
      </trkpt>
      <trkpt lat="38.6543600" lon="-0.7137260">
        <ele>857.6</ele>
        <time>2019-05-12T07:08:31Z</time>
      </trkpt>
      <trkpt lat="38.6544080" lon="-0.7136830">
        <ele>857.6</ele>
        <time>2019-05-12T07:08:33Z</time>
      </trkpt>
      <trkpt lat="38.6545340" lon="-0.7135890">
        <ele>857.8</ele>
        <time>2019-05-12T07:08:37Z</time>
      </trkpt>
      <trkpt lat="38.6546190" lon="-0.7134930">
        <ele>858.4</ele>
        <time>2019-05-12T07:08:40Z</time>
      </trkpt>
      <trkpt lat="38.6546920" lon="-0.7133950">
        <ele>858.6</ele>
        <time>2019-05-12T07:08:43Z</time>
      </trkpt>
      <trkpt lat="38.6548220" lon="-0.7133410">
        <ele>858.4</ele>
        <time>2019-05-12T07:08:47Z</time>
      </trkpt>
      <trkpt lat="38.6549150" lon="-0.7132460">
        <ele>859.2</ele>
        <time>2019-05-12T07:08:51Z</time>
      </trkpt>
      <trkpt lat="38.6549300" lon="-0.7131980">
        <ele>859.2</ele>
        <time>2019-05-12T07:08:52Z</time>
      </trkpt>
      <trkpt lat="38.6549510" lon="-0.7131510">
        <ele>859.2</ele>
        <time>2019-05-12T07:08:53Z</time>
      </trkpt>
      <trkpt lat="38.6550360" lon="-0.7130260">
        <ele>859.4</ele>
        <time>2019-05-12T07:08:56Z</time>
      </trkpt>
      <trkpt lat="38.6551730" lon="-0.7128570">
        <ele>859.8</ele>
        <time>2019-05-12T07:09:01Z</time>
      </trkpt>
      <trkpt lat="38.6552930" lon="-0.7126550">
        <ele>860.2</ele>
        <time>2019-05-12T07:09:06Z</time>
      </trkpt>
      <trkpt lat="38.6553100" lon="-0.7126180">
        <ele>860.0</ele>
        <time>2019-05-12T07:09:07Z</time>
      </trkpt>
      <trkpt lat="38.6553590" lon="-0.7125170">
        <ele>860.4</ele>
        <time>2019-05-12T07:09:10Z</time>
      </trkpt>
      <trkpt lat="38.6553850" lon="-0.7124980">
        <ele>860.8</ele>
        <time>2019-05-12T07:09:11Z</time>
      </trkpt>
      <trkpt lat="38.6554900" lon="-0.7124410">
        <ele>861.0</ele>
        <time>2019-05-12T07:09:14Z</time>
      </trkpt>
      <trkpt lat="38.6556030" lon="-0.7123180">
        <ele>860.8</ele>
        <time>2019-05-12T07:09:18Z</time>
      </trkpt>
      <trkpt lat="38.6557020" lon="-0.7121970">
        <ele>861.6</ele>
        <time>2019-05-12T07:09:22Z</time>
      </trkpt>
      <trkpt lat="38.6557270" lon="-0.7121720">
        <ele>861.8</ele>
        <time>2019-05-12T07:09:23Z</time>
      </trkpt>
      <trkpt lat="38.6558180" lon="-0.7120860">
        <ele>862.2</ele>
        <time>2019-05-12T07:09:27Z</time>
      </trkpt>
      <trkpt lat="38.6558450" lon="-0.7120600">
        <ele>862.4</ele>
        <time>2019-05-12T07:09:28Z</time>
      </trkpt>
      <trkpt lat="38.6558630" lon="-0.7120230">
        <ele>862.6</ele>
        <time>2019-05-12T07:09:29Z</time>
      </trkpt>
      <trkpt lat="38.6558700" lon="-0.7119760">
        <ele>862.6</ele>
        <time>2019-05-12T07:09:30Z</time>
      </trkpt>
      <trkpt lat="38.6558780" lon="-0.7118930">
        <ele>862.8</ele>
        <time>2019-05-12T07:09:32Z</time>
      </trkpt>
      <trkpt lat="38.6558780" lon="-0.7117860">
        <ele>863.8</ele>
        <time>2019-05-12T07:09:35Z</time>
      </trkpt>
      <trkpt lat="38.6559070" lon="-0.7116850">
        <ele>864.4</ele>
        <time>2019-05-12T07:09:38Z</time>
      </trkpt>
      <trkpt lat="38.6559360" lon="-0.7116580">
        <ele>864.4</ele>
        <time>2019-05-12T07:09:39Z</time>
      </trkpt>
      <trkpt lat="38.6560210" lon="-0.7114950">
        <ele>863.6</ele>
        <time>2019-05-12T07:09:43Z</time>
      </trkpt>
      <trkpt lat="38.6560940" lon="-0.7113610">
        <ele>863.6</ele>
        <time>2019-05-12T07:09:47Z</time>
      </trkpt>
      <trkpt lat="38.6561590" lon="-0.7112290">
        <ele>864.0</ele>
        <time>2019-05-12T07:09:51Z</time>
      </trkpt>
      <trkpt lat="38.6561900" lon="-0.7111640">
        <ele>863.8</ele>
        <time>2019-05-12T07:09:53Z</time>
      </trkpt>
      <trkpt lat="38.6561910" lon="-0.7111290">
        <ele>864.0</ele>
        <time>2019-05-12T07:09:54Z</time>
      </trkpt>
      <trkpt lat="38.6562310" lon="-0.7110310">
        <ele>865.0</ele>
        <time>2019-05-12T07:09:58Z</time>
      </trkpt>
      <trkpt lat="38.6563240" lon="-0.7109840">
        <ele>865.4</ele>
        <time>2019-05-12T07:10:01Z</time>
      </trkpt>
      <trkpt lat="38.6564470" lon="-0.7109540">
        <ele>865.0</ele>
        <time>2019-05-12T07:10:04Z</time>
      </trkpt>
      <trkpt lat="38.6565160" lon="-0.7109180">
        <ele>864.8</ele>
        <time>2019-05-12T07:10:06Z</time>
      </trkpt>
      <trkpt lat="38.6565530" lon="-0.7108970">
        <ele>864.8</ele>
        <time>2019-05-12T07:10:07Z</time>
      </trkpt>
      <trkpt lat="38.6567160" lon="-0.7108430">
        <ele>865.8</ele>
        <time>2019-05-12T07:10:12Z</time>
      </trkpt>
      <trkpt lat="38.6567460" lon="-0.7108280">
        <ele>866.2</ele>
        <time>2019-05-12T07:10:13Z</time>
      </trkpt>
      <trkpt lat="38.6567780" lon="-0.7108020">
        <ele>866.8</ele>
        <time>2019-05-12T07:10:14Z</time>
      </trkpt>
      <trkpt lat="38.6568220" lon="-0.7107370">
        <ele>866.6</ele>
        <time>2019-05-12T07:10:16Z</time>
      </trkpt>
      <trkpt lat="38.6568570" lon="-0.7106980">
        <ele>866.8</ele>
        <time>2019-05-12T07:10:18Z</time>
      </trkpt>
      <trkpt lat="38.6568780" lon="-0.7106980">
        <ele>867.8</ele>
        <time>2019-05-12T07:10:19Z</time>
      </trkpt>
      <trkpt lat="38.6568990" lon="-0.7107120">
        <ele>868.2</ele>
        <time>2019-05-12T07:10:20Z</time>
      </trkpt>
      <trkpt lat="38.6569400" lon="-0.7107520">
        <ele>868.8</ele>
        <time>2019-05-12T07:10:22Z</time>
      </trkpt>
      <trkpt lat="38.6569730" lon="-0.7108010">
        <ele>869.2</ele>
        <time>2019-05-12T07:10:24Z</time>
      </trkpt>
      <trkpt lat="38.6570040" lon="-0.7108280">
        <ele>869.4</ele>
        <time>2019-05-12T07:10:26Z</time>
      </trkpt>
      <trkpt lat="38.6570430" lon="-0.7108390">
        <ele>870.0</ele>
        <time>2019-05-12T07:10:28Z</time>
      </trkpt>
      <trkpt lat="38.6571290" lon="-0.7108740">
        <ele>869.8</ele>
        <time>2019-05-12T07:10:31Z</time>
      </trkpt>
      <trkpt lat="38.6571600" lon="-0.7108780">
        <ele>869.8</ele>
        <time>2019-05-12T07:10:32Z</time>
      </trkpt>
      <trkpt lat="38.6572600" lon="-0.7109130">
        <ele>870.0</ele>
        <time>2019-05-12T07:10:35Z</time>
      </trkpt>
      <trkpt lat="38.6573130" lon="-0.7108130">
        <ele>869.8</ele>
        <time>2019-05-12T07:10:38Z</time>
      </trkpt>
      <trkpt lat="38.6574030" lon="-0.7107120">
        <ele>870.4</ele>
        <time>2019-05-12T07:10:41Z</time>
      </trkpt>
      <trkpt lat="38.6574980" lon="-0.7106050">
        <ele>869.4</ele>
        <time>2019-05-12T07:10:44Z</time>
      </trkpt>
      <trkpt lat="38.6574960" lon="-0.7104980">
        <ele>868.8</ele>
        <time>2019-05-12T07:10:46Z</time>
      </trkpt>
      <trkpt lat="38.6575020" lon="-0.7104440">
        <ele>869.0</ele>
        <time>2019-05-12T07:10:47Z</time>
      </trkpt>
      <trkpt lat="38.6575230" lon="-0.7103340">
        <ele>869.2</ele>
        <time>2019-05-12T07:10:49Z</time>
      </trkpt>
      <trkpt lat="38.6575290" lon="-0.7101110">
        <ele>869.8</ele>
        <time>2019-05-12T07:10:53Z</time>
      </trkpt>
      <trkpt lat="38.6575310" lon="-0.7100510">
        <ele>869.8</ele>
        <time>2019-05-12T07:10:54Z</time>
      </trkpt>
      <trkpt lat="38.6575590" lon="-0.7098940">
        <ele>870.0</ele>
        <time>2019-05-12T07:10:57Z</time>
      </trkpt>
      <trkpt lat="38.6575650" lon="-0.7098470">
        <ele>870.2</ele>
        <time>2019-05-12T07:10:58Z</time>
      </trkpt>
      <trkpt lat="38.6576090" lon="-0.7097390">
        <ele>870.4</ele>
        <time>2019-05-12T07:11:01Z</time>
      </trkpt>
      <trkpt lat="38.6576260" lon="-0.7097140">
        <ele>870.6</ele>
        <time>2019-05-12T07:11:02Z</time>
      </trkpt>
      <trkpt lat="38.6576390" lon="-0.7096870">
        <ele>870.8</ele>
        <time>2019-05-12T07:11:03Z</time>
      </trkpt>
      <trkpt lat="38.6576580" lon="-0.7096290">
        <ele>871.2</ele>
        <time>2019-05-12T07:11:05Z</time>
      </trkpt>
      <trkpt lat="38.6576710" lon="-0.7096070">
        <ele>871.2</ele>
        <time>2019-05-12T07:11:06Z</time>
      </trkpt>
      <trkpt lat="38.6577260" lon="-0.7095730">
        <ele>872.4</ele>
        <time>2019-05-12T07:11:09Z</time>
      </trkpt>
      <trkpt lat="38.6577550" lon="-0.7095280">
        <ele>873.0</ele>
        <time>2019-05-12T07:11:11Z</time>
      </trkpt>
      <trkpt lat="38.6577840" lon="-0.7093700">
        <ele>873.2</ele>
        <time>2019-05-12T07:11:15Z</time>
      </trkpt>
      <trkpt lat="38.6578040" lon="-0.7093240">
        <ele>873.4</ele>
        <time>2019-05-12T07:11:16Z</time>
      </trkpt>
      <trkpt lat="38.6578670" lon="-0.7092100">
        <ele>873.6</ele>
        <time>2019-05-12T07:11:19Z</time>
      </trkpt>
      <trkpt lat="38.6579140" lon="-0.7089330">
        <ele>872.8</ele>
        <time>2019-05-12T07:11:24Z</time>
      </trkpt>
      <trkpt lat="38.6579780" lon="-0.7088230">
        <ele>873.0</ele>
        <time>2019-05-12T07:11:27Z</time>
      </trkpt>
      <trkpt lat="38.6581040" lon="-0.7086470">
        <ele>873.6</ele>
        <time>2019-05-12T07:11:32Z</time>
      </trkpt>
      <trkpt lat="38.6581770" lon="-0.7085480">
        <ele>874.0</ele>
        <time>2019-05-12T07:11:35Z</time>
      </trkpt>
      <trkpt lat="38.6582460" lon="-0.7085100">
        <ele>874.0</ele>
        <time>2019-05-12T07:11:37Z</time>
      </trkpt>
      <trkpt lat="38.6582770" lon="-0.7084860">
        <ele>873.8</ele>
        <time>2019-05-12T07:11:38Z</time>
      </trkpt>
      <trkpt lat="38.6583160" lon="-0.7084020">
        <ele>874.0</ele>
        <time>2019-05-12T07:11:40Z</time>
      </trkpt>
      <trkpt lat="38.6583660" lon="-0.7083500">
        <ele>874.4</ele>
        <time>2019-05-12T07:11:42Z</time>
      </trkpt>
      <trkpt lat="38.6583890" lon="-0.7083250">
        <ele>875.0</ele>
        <time>2019-05-12T07:11:43Z</time>
      </trkpt>
      <trkpt lat="38.6584520" lon="-0.7082740">
        <ele>875.2</ele>
        <time>2019-05-12T07:11:45Z</time>
      </trkpt>
      <trkpt lat="38.6585110" lon="-0.7082020">
        <ele>875.2</ele>
        <time>2019-05-12T07:11:47Z</time>
      </trkpt>
      <trkpt lat="38.6586570" lon="-0.7080570">
        <ele>875.4</ele>
        <time>2019-05-12T07:11:52Z</time>
      </trkpt>
      <trkpt lat="38.6586940" lon="-0.7080330">
        <ele>875.6</ele>
        <time>2019-05-12T07:11:53Z</time>
      </trkpt>
      <trkpt lat="38.6587750" lon="-0.7079700">
        <ele>875.4</ele>
        <time>2019-05-12T07:11:55Z</time>
      </trkpt>
      <trkpt lat="38.6588270" lon="-0.7079170">
        <ele>875.0</ele>
        <time>2019-05-12T07:11:57Z</time>
      </trkpt>
      <trkpt lat="38.6588530" lon="-0.7078830">
        <ele>875.2</ele>
        <time>2019-05-12T07:11:59Z</time>
      </trkpt>
      <trkpt lat="38.6588620" lon="-0.7078690">
        <ele>875.2</ele>
        <time>2019-05-12T07:12:01Z</time>
      </trkpt>
      <trkpt lat="38.6588840" lon="-0.7078330">
        <ele>875.8</ele>
        <time>2019-05-12T07:12:48Z</time>
      </trkpt>
      <trkpt lat="38.6589100" lon="-0.7078080">
        <ele>875.8</ele>
        <time>2019-05-12T07:12:49Z</time>
      </trkpt>
      <trkpt lat="38.6589680" lon="-0.7077400">
        <ele>875.6</ele>
        <time>2019-05-12T07:12:51Z</time>
      </trkpt>
      <trkpt lat="38.6589880" lon="-0.7076950">
        <ele>876.0</ele>
        <time>2019-05-12T07:12:52Z</time>
      </trkpt>
      <trkpt lat="38.6590660" lon="-0.7075610">
        <ele>876.2</ele>
        <time>2019-05-12T07:12:55Z</time>
      </trkpt>
      <trkpt lat="38.6591410" lon="-0.7074860">
        <ele>876.6</ele>
        <time>2019-05-12T07:12:57Z</time>
      </trkpt>
      <trkpt lat="38.6593160" lon="-0.7073620">
        <ele>877.8</ele>
        <time>2019-05-12T07:13:02Z</time>
      </trkpt>
      <trkpt lat="38.6593460" lon="-0.7073450">
        <ele>878.4</ele>
        <time>2019-05-12T07:13:03Z</time>
      </trkpt>
      <trkpt lat="38.6593830" lon="-0.7073070">
        <ele>879.8</ele>
        <time>2019-05-12T07:13:04Z</time>
      </trkpt>
      <trkpt lat="38.6594200" lon="-0.7072130">
        <ele>880.4</ele>
        <time>2019-05-12T07:13:07Z</time>
      </trkpt>
      <trkpt lat="38.6594350" lon="-0.7071850">
        <ele>880.6</ele>
        <time>2019-05-12T07:13:10Z</time>
      </trkpt>
      <trkpt lat="38.6594470" lon="-0.7071700">
        <ele>880.6</ele>
        <time>2019-05-12T07:13:31Z</time>
      </trkpt>
      <trkpt lat="38.6594780" lon="-0.7071320">
        <ele>880.6</ele>
        <time>2019-05-12T07:13:33Z</time>
      </trkpt>
      <trkpt lat="38.6595550" lon="-0.7069660">
        <ele>881.4</ele>
        <time>2019-05-12T07:13:39Z</time>
      </trkpt>
      <trkpt lat="38.6596260" lon="-0.7068100">
        <ele>882.0</ele>
        <time>2019-05-12T07:13:44Z</time>
      </trkpt>
      <trkpt lat="38.6596380" lon="-0.7067800">
        <ele>882.4</ele>
        <time>2019-05-12T07:13:45Z</time>
      </trkpt>
      <trkpt lat="38.6597320" lon="-0.7065660">
        <ele>883.0</ele>
        <time>2019-05-12T07:13:52Z</time>
      </trkpt>
      <trkpt lat="38.6598180" lon="-0.7063740">
        <ele>884.2</ele>
        <time>2019-05-12T07:13:58Z</time>
      </trkpt>
      <trkpt lat="38.6598350" lon="-0.7063400">
        <ele>884.2</ele>
        <time>2019-05-12T07:13:59Z</time>
      </trkpt>
      <trkpt lat="38.6599330" lon="-0.7061210">
        <ele>884.4</ele>
        <time>2019-05-12T07:14:05Z</time>
      </trkpt>
      <trkpt lat="38.6600140" lon="-0.7058660">
        <ele>884.8</ele>
        <time>2019-05-12T07:14:11Z</time>
      </trkpt>
      <trkpt lat="38.6600550" lon="-0.7056950">
        <ele>885.4</ele>
        <time>2019-05-12T07:14:15Z</time>
      </trkpt>
      <trkpt lat="38.6600710" lon="-0.7056120">
        <ele>886.0</ele>
        <time>2019-05-12T07:14:17Z</time>
      </trkpt>
      <trkpt lat="38.6600940" lon="-0.7054810">
        <ele>886.6</ele>
        <time>2019-05-12T07:14:20Z</time>
      </trkpt>
      <trkpt lat="38.6601140" lon="-0.7054010">
        <ele>887.2</ele>
        <time>2019-05-12T07:14:22Z</time>
      </trkpt>
      <trkpt lat="38.6601350" lon="-0.7053320">
        <ele>887.4</ele>
        <time>2019-05-12T07:14:24Z</time>
      </trkpt>
      <trkpt lat="38.6601440" lon="-0.7052990">
        <ele>887.6</ele>
        <time>2019-05-12T07:14:25Z</time>
      </trkpt>
      <trkpt lat="38.6601770" lon="-0.7051930">
        <ele>888.6</ele>
        <time>2019-05-12T07:14:28Z</time>
      </trkpt>
      <trkpt lat="38.6602210" lon="-0.7050840">
        <ele>889.2</ele>
        <time>2019-05-12T07:14:31Z</time>
      </trkpt>
      <trkpt lat="38.6602740" lon="-0.7049750">
        <ele>889.8</ele>
        <time>2019-05-12T07:14:34Z</time>
      </trkpt>
      <trkpt lat="38.6603390" lon="-0.7048240">
        <ele>890.0</ele>
        <time>2019-05-12T07:14:38Z</time>
      </trkpt>
      <trkpt lat="38.6604750" lon="-0.7044840">
        <ele>890.4</ele>
        <time>2019-05-12T07:14:46Z</time>
      </trkpt>
      <trkpt lat="38.6606460" lon="-0.7040850">
        <ele>889.8</ele>
        <time>2019-05-12T07:14:54Z</time>
      </trkpt>
      <trkpt lat="38.6606750" lon="-0.7040330">
        <ele>889.6</ele>
        <time>2019-05-12T07:14:55Z</time>
      </trkpt>
      <trkpt lat="38.6607490" lon="-0.7038680">
        <ele>889.4</ele>
        <time>2019-05-12T07:14:58Z</time>
      </trkpt>
      <trkpt lat="38.6609200" lon="-0.7034200">
        <ele>890.4</ele>
        <time>2019-05-12T07:15:06Z</time>
      </trkpt>
      <trkpt lat="38.6609820" lon="-0.7032570">
        <ele>890.8</ele>
        <time>2019-05-12T07:15:09Z</time>
      </trkpt>
      <trkpt lat="38.6611180" lon="-0.7029350">
        <ele>891.0</ele>
        <time>2019-05-12T07:15:15Z</time>
      </trkpt>
      <trkpt lat="38.6612810" lon="-0.7026300">
        <ele>892.2</ele>
        <time>2019-05-12T07:15:21Z</time>
      </trkpt>
      <trkpt lat="38.6613800" lon="-0.7024930">
        <ele>892.4</ele>
        <time>2019-05-12T07:15:24Z</time>
      </trkpt>
      <trkpt lat="38.6616630" lon="-0.7022280">
        <ele>892.8</ele>
        <time>2019-05-12T07:15:31Z</time>
      </trkpt>
      <trkpt lat="38.6619020" lon="-0.7020960">
        <ele>892.0</ele>
        <time>2019-05-12T07:15:36Z</time>
      </trkpt>
      <trkpt lat="38.6621730" lon="-0.7020350">
        <ele>893.2</ele>
        <time>2019-05-12T07:15:42Z</time>
      </trkpt>
      <trkpt lat="38.6622560" lon="-0.7020190">
        <ele>893.4</ele>
        <time>2019-05-12T07:15:44Z</time>
      </trkpt>
      <trkpt lat="38.6623380" lon="-0.7020070">
        <ele>894.2</ele>
        <time>2019-05-12T07:15:46Z</time>
      </trkpt>
      <trkpt lat="38.6624960" lon="-0.7019530">
        <ele>895.0</ele>
        <time>2019-05-12T07:15:50Z</time>
      </trkpt>
      <trkpt lat="38.6626850" lon="-0.7018250">
        <ele>895.4</ele>
        <time>2019-05-12T07:15:55Z</time>
      </trkpt>
      <trkpt lat="38.6627620" lon="-0.7017740">
        <ele>895.6</ele>
        <time>2019-05-12T07:15:57Z</time>
      </trkpt>
      <trkpt lat="38.6628970" lon="-0.7016800">
        <ele>896.6</ele>
        <time>2019-05-12T07:16:01Z</time>
      </trkpt>
      <trkpt lat="38.6629830" lon="-0.7016030">
        <ele>897.6</ele>
        <time>2019-05-12T07:16:04Z</time>
      </trkpt>
      <trkpt lat="38.6631720" lon="-0.7014440">
        <ele>898.8</ele>
        <time>2019-05-12T07:16:10Z</time>
      </trkpt>
      <trkpt lat="38.6632020" lon="-0.7014200">
        <ele>899.0</ele>
        <time>2019-05-12T07:16:11Z</time>
      </trkpt>
      <trkpt lat="38.6633720" lon="-0.7012930">
        <ele>899.6</ele>
        <time>2019-05-12T07:16:17Z</time>
      </trkpt>
      <trkpt lat="38.6634760" lon="-0.7012140">
        <ele>900.0</ele>
        <time>2019-05-12T07:16:21Z</time>
      </trkpt>
      <trkpt lat="38.6635300" lon="-0.7011710">
        <ele>900.2</ele>
        <time>2019-05-12T07:16:23Z</time>
      </trkpt>
      <trkpt lat="38.6637310" lon="-0.7010170">
        <ele>900.2</ele>
        <time>2019-05-12T07:16:29Z</time>
      </trkpt>
      <trkpt lat="38.6639730" lon="-0.7008390">
        <ele>900.4</ele>
        <time>2019-05-12T07:16:36Z</time>
      </trkpt>
      <trkpt lat="38.6642090" lon="-0.7006720">
        <ele>900.0</ele>
        <time>2019-05-12T07:16:42Z</time>
      </trkpt>
      <trkpt lat="38.6644960" lon="-0.7004580">
        <ele>900.2</ele>
        <time>2019-05-12T07:16:50Z</time>
      </trkpt>
      <trkpt lat="38.6646830" lon="-0.7003280">
        <ele>901.0</ele>
        <time>2019-05-12T07:16:56Z</time>
      </trkpt>
      <trkpt lat="38.6647110" lon="-0.7003040">
        <ele>901.2</ele>
        <time>2019-05-12T07:16:57Z</time>
      </trkpt>
      <trkpt lat="38.6648050" lon="-0.7001940">
        <ele>902.2</ele>
        <time>2019-05-12T07:17:01Z</time>
      </trkpt>
      <trkpt lat="38.6648470" lon="-0.7001210">
        <ele>902.6</ele>
        <time>2019-05-12T07:17:03Z</time>
      </trkpt>
      <trkpt lat="38.6649050" lon="-0.7000000">
        <ele>903.4</ele>
        <time>2019-05-12T07:17:06Z</time>
      </trkpt>
      <trkpt lat="38.6649970" lon="-0.6998090">
        <ele>904.0</ele>
        <time>2019-05-12T07:17:11Z</time>
      </trkpt>
      <trkpt lat="38.6650530" lon="-0.6996990">
        <ele>904.4</ele>
        <time>2019-05-12T07:17:14Z</time>
      </trkpt>
      <trkpt lat="38.6651500" lon="-0.6994980">
        <ele>905.0</ele>
        <time>2019-05-12T07:17:19Z</time>
      </trkpt>
      <trkpt lat="38.6652790" lon="-0.6992510">
        <ele>905.6</ele>
        <time>2019-05-12T07:17:25Z</time>
      </trkpt>
      <trkpt lat="38.6653420" lon="-0.6991360">
        <ele>905.8</ele>
        <time>2019-05-12T07:17:28Z</time>
      </trkpt>
      <trkpt lat="38.6654700" lon="-0.6989140">
        <ele>906.4</ele>
        <time>2019-05-12T07:17:34Z</time>
      </trkpt>
      <trkpt lat="38.6654930" lon="-0.6988750">
        <ele>906.6</ele>
        <time>2019-05-12T07:17:35Z</time>
      </trkpt>
      <trkpt lat="38.6656240" lon="-0.6986460">
        <ele>906.8</ele>
        <time>2019-05-12T07:17:41Z</time>
      </trkpt>
      <trkpt lat="38.6657340" lon="-0.6984550">
        <ele>907.6</ele>
        <time>2019-05-12T07:17:46Z</time>
      </trkpt>
      <trkpt lat="38.6657800" lon="-0.6983800">
        <ele>907.8</ele>
        <time>2019-05-12T07:17:48Z</time>
      </trkpt>
      <trkpt lat="38.6659410" lon="-0.6981160">
        <ele>908.6</ele>
        <time>2019-05-12T07:17:55Z</time>
      </trkpt>
      <trkpt lat="38.6660410" lon="-0.6979620">
        <ele>908.6</ele>
        <time>2019-05-12T07:17:59Z</time>
      </trkpt>
      <trkpt lat="38.6661100" lon="-0.6978430">
        <ele>909.0</ele>
        <time>2019-05-12T07:18:02Z</time>
      </trkpt>
      <trkpt lat="38.6662550" lon="-0.6976180">
        <ele>909.2</ele>
        <time>2019-05-12T07:18:08Z</time>
      </trkpt>
      <trkpt lat="38.6663080" lon="-0.6975420">
        <ele>909.8</ele>
        <time>2019-05-12T07:18:10Z</time>
      </trkpt>
      <trkpt lat="38.6664020" lon="-0.6974000">
        <ele>910.4</ele>
        <time>2019-05-12T07:18:14Z</time>
      </trkpt>
      <trkpt lat="38.6664680" lon="-0.6973010">
        <ele>910.8</ele>
        <time>2019-05-12T07:18:17Z</time>
      </trkpt>
      <trkpt lat="38.6665470" lon="-0.6971560">
        <ele>911.4</ele>
        <time>2019-05-12T07:18:21Z</time>
      </trkpt>
      <trkpt lat="38.6666680" lon="-0.6970450">
        <ele>911.8</ele>
        <time>2019-05-12T07:18:25Z</time>
      </trkpt>
      <trkpt lat="38.6668120" lon="-0.6968960">
        <ele>911.8</ele>
        <time>2019-05-12T07:18:30Z</time>
      </trkpt>
      <trkpt lat="38.6669470" lon="-0.6967530">
        <ele>912.8</ele>
        <time>2019-05-12T07:18:35Z</time>
      </trkpt>
      <trkpt lat="38.6669710" lon="-0.6967280">
        <ele>913.2</ele>
        <time>2019-05-12T07:18:36Z</time>
      </trkpt>
      <trkpt lat="38.6671290" lon="-0.6965290">
        <ele>914.2</ele>
        <time>2019-05-12T07:18:43Z</time>
      </trkpt>
      <trkpt lat="38.6671480" lon="-0.6964970">
        <ele>914.4</ele>
        <time>2019-05-12T07:18:44Z</time>
      </trkpt>
      <trkpt lat="38.6673000" lon="-0.6963210">
        <ele>915.0</ele>
        <time>2019-05-12T07:18:50Z</time>
      </trkpt>
      <trkpt lat="38.6673980" lon="-0.6962560">
        <ele>915.4</ele>
        <time>2019-05-12T07:18:53Z</time>
      </trkpt>
      <trkpt lat="38.6675070" lon="-0.6962140">
        <ele>916.0</ele>
        <time>2019-05-12T07:18:56Z</time>
      </trkpt>
      <trkpt lat="38.6676670" lon="-0.6961300">
        <ele>916.6</ele>
        <time>2019-05-12T07:19:01Z</time>
      </trkpt>
      <trkpt lat="38.6678550" lon="-0.6959620">
        <ele>917.4</ele>
        <time>2019-05-12T07:19:07Z</time>
      </trkpt>
      <trkpt lat="38.6679360" lon="-0.6958630">
        <ele>917.8</ele>
        <time>2019-05-12T07:19:10Z</time>
      </trkpt>
      <trkpt lat="38.6680080" lon="-0.6957460">
        <ele>918.0</ele>
        <time>2019-05-12T07:19:13Z</time>
      </trkpt>
      <trkpt lat="38.6681620" lon="-0.6953900">
        <ele>918.0</ele>
        <time>2019-05-12T07:19:21Z</time>
      </trkpt>
      <trkpt lat="38.6682260" lon="-0.6951710">
        <ele>917.8</ele>
        <time>2019-05-12T07:19:26Z</time>
      </trkpt>
      <trkpt lat="38.6682160" lon="-0.6949580">
        <ele>917.8</ele>
        <time>2019-05-12T07:19:31Z</time>
      </trkpt>
      <trkpt lat="38.6682310" lon="-0.6948150">
        <ele>917.6</ele>
        <time>2019-05-12T07:19:34Z</time>
      </trkpt>
      <trkpt lat="38.6682480" lon="-0.6947060">
        <ele>918.0</ele>
        <time>2019-05-12T07:19:36Z</time>
      </trkpt>
      <trkpt lat="38.6683190" lon="-0.6943200">
        <ele>919.0</ele>
        <time>2019-05-12T07:19:43Z</time>
      </trkpt>
      <trkpt lat="38.6683380" lon="-0.6942710">
        <ele>919.0</ele>
        <time>2019-05-12T07:19:44Z</time>
      </trkpt>
      <trkpt lat="38.6684560" lon="-0.6940610">
        <ele>919.6</ele>
        <time>2019-05-12T07:19:49Z</time>
      </trkpt>
      <trkpt lat="38.6685010" lon="-0.6939820">
        <ele>920.0</ele>
        <time>2019-05-12T07:19:51Z</time>
      </trkpt>
      <trkpt lat="38.6686220" lon="-0.6938010">
        <ele>920.4</ele>
        <time>2019-05-12T07:19:56Z</time>
      </trkpt>
      <trkpt lat="38.6687110" lon="-0.6936500">
        <ele>921.0</ele>
        <time>2019-05-12T07:20:00Z</time>
      </trkpt>
      <trkpt lat="38.6687760" lon="-0.6935260">
        <ele>921.4</ele>
        <time>2019-05-12T07:20:03Z</time>
      </trkpt>
      <trkpt lat="38.6687940" lon="-0.6934800">
        <ele>921.6</ele>
        <time>2019-05-12T07:20:04Z</time>
      </trkpt>
      <trkpt lat="38.6688930" lon="-0.6932730">
        <ele>922.0</ele>
        <time>2019-05-12T07:20:09Z</time>
      </trkpt>
      <trkpt lat="38.6689160" lon="-0.6932360">
        <ele>922.2</ele>
        <time>2019-05-12T07:20:10Z</time>
      </trkpt>
      <trkpt lat="38.6690920" lon="-0.6930430">
        <ele>922.8</ele>
        <time>2019-05-12T07:20:16Z</time>
      </trkpt>
      <trkpt lat="38.6692520" lon="-0.6929200">
        <ele>923.2</ele>
        <time>2019-05-12T07:20:21Z</time>
      </trkpt>
      <trkpt lat="38.6694160" lon="-0.6927300">
        <ele>924.0</ele>
        <time>2019-05-12T07:20:27Z</time>
      </trkpt>
      <trkpt lat="38.6694380" lon="-0.6926990">
        <ele>924.2</ele>
        <time>2019-05-12T07:20:28Z</time>
      </trkpt>
      <trkpt lat="38.6695550" lon="-0.6925850">
        <ele>925.0</ele>
        <time>2019-05-12T07:20:33Z</time>
      </trkpt>
      <trkpt lat="38.6695830" lon="-0.6925720">
        <ele>925.2</ele>
        <time>2019-05-12T07:20:34Z</time>
      </trkpt>
      <trkpt lat="38.6697010" lon="-0.6924720">
        <ele>925.8</ele>
        <time>2019-05-12T07:20:38Z</time>
      </trkpt>
      <trkpt lat="38.6698000" lon="-0.6923560">
        <ele>926.4</ele>
        <time>2019-05-12T07:20:42Z</time>
      </trkpt>
      <trkpt lat="38.6698520" lon="-0.6923080">
        <ele>926.6</ele>
        <time>2019-05-12T07:20:44Z</time>
      </trkpt>
      <trkpt lat="38.6699510" lon="-0.6922430">
        <ele>928.0</ele>
        <time>2019-05-12T07:20:48Z</time>
      </trkpt>
      <trkpt lat="38.6699770" lon="-0.6922390">
        <ele>928.2</ele>
        <time>2019-05-12T07:20:49Z</time>
      </trkpt>
      <trkpt lat="38.6700770" lon="-0.6922450">
        <ele>929.4</ele>
        <time>2019-05-12T07:20:53Z</time>
      </trkpt>
      <trkpt lat="38.6701280" lon="-0.6922570">
        <ele>929.8</ele>
        <time>2019-05-12T07:20:55Z</time>
      </trkpt>
      <trkpt lat="38.6701690" lon="-0.6922840">
        <ele>930.4</ele>
        <time>2019-05-12T07:20:57Z</time>
      </trkpt>
      <trkpt lat="38.6702410" lon="-0.6923110">
        <ele>931.4</ele>
        <time>2019-05-12T07:21:00Z</time>
      </trkpt>
      <trkpt lat="38.6702670" lon="-0.6923170">
        <ele>931.6</ele>
        <time>2019-05-12T07:21:01Z</time>
      </trkpt>
      <trkpt lat="38.6703600" lon="-0.6923430">
        <ele>932.6</ele>
        <time>2019-05-12T07:21:05Z</time>
      </trkpt>
      <trkpt lat="38.6704030" lon="-0.6923530">
        <ele>933.6</ele>
        <time>2019-05-12T07:21:07Z</time>
      </trkpt>
      <trkpt lat="38.6704250" lon="-0.6923590">
        <ele>933.8</ele>
        <time>2019-05-12T07:21:08Z</time>
      </trkpt>
      <trkpt lat="38.6705150" lon="-0.6924020">
        <ele>935.0</ele>
        <time>2019-05-12T07:21:12Z</time>
      </trkpt>
      <trkpt lat="38.6705440" lon="-0.6924460">
        <ele>935.8</ele>
        <time>2019-05-12T07:21:14Z</time>
      </trkpt>
      <trkpt lat="38.6705510" lon="-0.6924690">
        <ele>936.2</ele>
        <time>2019-05-12T07:21:15Z</time>
      </trkpt>
      <trkpt lat="38.6705850" lon="-0.6926010">
        <ele>937.0</ele>
        <time>2019-05-12T07:21:20Z</time>
      </trkpt>
      <trkpt lat="38.6705870" lon="-0.6926290">
        <ele>937.2</ele>
        <time>2019-05-12T07:21:21Z</time>
      </trkpt>
      <trkpt lat="38.6706500" lon="-0.6928200">
        <ele>938.0</ele>
        <time>2019-05-12T07:21:27Z</time>
      </trkpt>
      <trkpt lat="38.6707890" lon="-0.6928880">
        <ele>937.4</ele>
        <time>2019-05-12T07:21:31Z</time>
      </trkpt>
      <trkpt lat="38.6709800" lon="-0.6929170">
        <ele>938.2</ele>
        <time>2019-05-12T07:21:37Z</time>
      </trkpt>
      <trkpt lat="38.6710100" lon="-0.6929210">
        <ele>938.4</ele>
        <time>2019-05-12T07:21:38Z</time>
      </trkpt>
      <trkpt lat="38.6711550" lon="-0.6929520">
        <ele>939.4</ele>
        <time>2019-05-12T07:21:43Z</time>
      </trkpt>
      <trkpt lat="38.6711880" lon="-0.6929640">
        <ele>939.4</ele>
        <time>2019-05-12T07:21:44Z</time>
      </trkpt>
      <trkpt lat="38.6713940" lon="-0.6930450">
        <ele>939.6</ele>
        <time>2019-05-12T07:21:50Z</time>
      </trkpt>
      <trkpt lat="38.6715420" lon="-0.6930500">
        <ele>940.4</ele>
        <time>2019-05-12T07:21:55Z</time>
      </trkpt>
      <trkpt lat="38.6715640" lon="-0.6930450">
        <ele>940.4</ele>
        <time>2019-05-12T07:21:56Z</time>
      </trkpt>
      <trkpt lat="38.6716630" lon="-0.6930560">
        <ele>941.8</ele>
        <time>2019-05-12T07:22:00Z</time>
      </trkpt>
      <trkpt lat="38.6717120" lon="-0.6930790">
        <ele>942.6</ele>
        <time>2019-05-12T07:22:02Z</time>
      </trkpt>
      <trkpt lat="38.6717410" lon="-0.6930980">
        <ele>943.0</ele>
        <time>2019-05-12T07:22:03Z</time>
      </trkpt>
      <trkpt lat="38.6718680" lon="-0.6932070">
        <ele>943.8</ele>
        <time>2019-05-12T07:22:08Z</time>
      </trkpt>
      <trkpt lat="38.6718940" lon="-0.6932210">
        <ele>944.2</ele>
        <time>2019-05-12T07:22:09Z</time>
      </trkpt>
      <trkpt lat="38.6720290" lon="-0.6932590">
        <ele>945.4</ele>
        <time>2019-05-12T07:22:14Z</time>
      </trkpt>
      <trkpt lat="38.6720550" lon="-0.6932700">
        <ele>945.6</ele>
        <time>2019-05-12T07:22:15Z</time>
      </trkpt>
      <trkpt lat="38.6721190" lon="-0.6933110">
        <ele>946.8</ele>
        <time>2019-05-12T07:22:18Z</time>
      </trkpt>
      <trkpt lat="38.6721680" lon="-0.6933610">
        <ele>947.0</ele>
        <time>2019-05-12T07:22:20Z</time>
      </trkpt>
      <trkpt lat="38.6723390" lon="-0.6934480">
        <ele>946.4</ele>
        <time>2019-05-12T07:22:25Z</time>
      </trkpt>
      <trkpt lat="38.6724700" lon="-0.6934560">
        <ele>945.8</ele>
        <time>2019-05-12T07:22:28Z</time>
      </trkpt>
      <trkpt lat="38.6726650" lon="-0.6934540">
        <ele>945.2</ele>
        <time>2019-05-12T07:22:32Z</time>
      </trkpt>
      <trkpt lat="38.6727620" lon="-0.6934500">
        <ele>945.0</ele>
        <time>2019-05-12T07:22:34Z</time>
      </trkpt>
      <trkpt lat="38.6729410" lon="-0.6934190">
        <ele>944.8</ele>
        <time>2019-05-12T07:22:38Z</time>
      </trkpt>
      <trkpt lat="38.6729860" lon="-0.6934000">
        <ele>944.6</ele>
        <time>2019-05-12T07:22:39Z</time>
      </trkpt>
      <trkpt lat="38.6731810" lon="-0.6933260">
        <ele>944.0</ele>
        <time>2019-05-12T07:22:43Z</time>
      </trkpt>
      <trkpt lat="38.6733670" lon="-0.6932340">
        <ele>944.0</ele>
        <time>2019-05-12T07:22:47Z</time>
      </trkpt>
      <trkpt lat="38.6735100" lon="-0.6931710">
        <ele>943.8</ele>
        <time>2019-05-12T07:22:50Z</time>
      </trkpt>
      <trkpt lat="38.6736530" lon="-0.6931260">
        <ele>943.6</ele>
        <time>2019-05-12T07:22:53Z</time>
      </trkpt>
      <trkpt lat="38.6736980" lon="-0.6931170">
        <ele>943.6</ele>
        <time>2019-05-12T07:22:54Z</time>
      </trkpt>
      <trkpt lat="38.6738360" lon="-0.6930870">
        <ele>944.2</ele>
        <time>2019-05-12T07:22:57Z</time>
      </trkpt>
      <trkpt lat="38.6739670" lon="-0.6931070">
        <ele>944.6</ele>
        <time>2019-05-12T07:23:00Z</time>
      </trkpt>
      <trkpt lat="38.6740980" lon="-0.6931380">
        <ele>944.6</ele>
        <time>2019-05-12T07:23:03Z</time>
      </trkpt>
      <trkpt lat="38.6741870" lon="-0.6931160">
        <ele>944.6</ele>
        <time>2019-05-12T07:23:05Z</time>
      </trkpt>
      <trkpt lat="38.6742690" lon="-0.6931020">
        <ele>945.0</ele>
        <time>2019-05-12T07:23:07Z</time>
      </trkpt>
      <trkpt lat="38.6743080" lon="-0.6931020">
        <ele>945.2</ele>
        <time>2019-05-12T07:23:08Z</time>
      </trkpt>
      <trkpt lat="38.6743930" lon="-0.6931130">
        <ele>945.4</ele>
        <time>2019-05-12T07:23:10Z</time>
      </trkpt>
      <trkpt lat="38.6744790" lon="-0.6931440">
        <ele>945.8</ele>
        <time>2019-05-12T07:23:12Z</time>
      </trkpt>
      <trkpt lat="38.6746060" lon="-0.6931550">
        <ele>945.6</ele>
        <time>2019-05-12T07:23:15Z</time>
      </trkpt>
      <trkpt lat="38.6746830" lon="-0.6931080">
        <ele>946.0</ele>
        <time>2019-05-12T07:23:17Z</time>
      </trkpt>
      <trkpt lat="38.6747200" lon="-0.6930770">
        <ele>946.2</ele>
        <time>2019-05-12T07:23:18Z</time>
      </trkpt>
      <trkpt lat="38.6747580" lon="-0.6930420">
        <ele>946.0</ele>
        <time>2019-05-12T07:23:19Z</time>
      </trkpt>
      <trkpt lat="38.6748410" lon="-0.6929740">
        <ele>945.6</ele>
        <time>2019-05-12T07:23:21Z</time>
      </trkpt>
      <trkpt lat="38.6749380" lon="-0.6929890">
        <ele>945.4</ele>
        <time>2019-05-12T07:23:23Z</time>
      </trkpt>
      <trkpt lat="38.6750720" lon="-0.6930720">
        <ele>944.8</ele>
        <time>2019-05-12T07:23:26Z</time>
      </trkpt>
      <trkpt lat="38.6751160" lon="-0.6930930">
        <ele>944.6</ele>
        <time>2019-05-12T07:23:27Z</time>
      </trkpt>
      <trkpt lat="38.6752050" lon="-0.6931230">
        <ele>944.8</ele>
        <time>2019-05-12T07:23:29Z</time>
      </trkpt>
      <trkpt lat="38.6754120" lon="-0.6931990">
        <ele>945.0</ele>
        <time>2019-05-12T07:23:34Z</time>
      </trkpt>
      <trkpt lat="38.6756980" lon="-0.6932670">
        <ele>945.8</ele>
        <time>2019-05-12T07:23:41Z</time>
      </trkpt>
      <trkpt lat="38.6758510" lon="-0.6932550">
        <ele>946.4</ele>
        <time>2019-05-12T07:23:46Z</time>
      </trkpt>
      <trkpt lat="38.6758640" lon="-0.6932660">
        <ele>946.6</ele>
        <time>2019-05-12T07:23:47Z</time>
      </trkpt>
      <trkpt lat="38.6758780" lon="-0.6932880">
        <ele>947.0</ele>
        <time>2019-05-12T07:23:49Z</time>
      </trkpt>
      <trkpt lat="38.6758720" lon="-0.6932870">
        <ele>947.0</ele>
        <time>2019-05-12T07:23:50Z</time>
      </trkpt>
      <trkpt lat="38.6758260" lon="-0.6932790">
        <ele>947.0</ele>
        <time>2019-05-12T07:23:53Z</time>
      </trkpt>
      <trkpt lat="38.6757960" lon="-0.6932720">
        <ele>946.8</ele>
        <time>2019-05-12T07:23:54Z</time>
      </trkpt>
      <trkpt lat="38.6756330" lon="-0.6932900">
        <ele>945.6</ele>
        <time>2019-05-12T07:23:58Z</time>
      </trkpt>
      <trkpt lat="38.6754880" lon="-0.6932550">
        <ele>944.4</ele>
        <time>2019-05-12T07:24:01Z</time>
      </trkpt>
      <trkpt lat="38.6754010" lon="-0.6932160">
        <ele>944.0</ele>
        <time>2019-05-12T07:24:03Z</time>
      </trkpt>
      <trkpt lat="38.6753190" lon="-0.6931840">
        <ele>944.2</ele>
        <time>2019-05-12T07:24:05Z</time>
      </trkpt>
      <trkpt lat="38.6751750" lon="-0.6931270">
        <ele>944.6</ele>
        <time>2019-05-12T07:24:09Z</time>
      </trkpt>
      <trkpt lat="38.6749490" lon="-0.6930220">
        <ele>944.6</ele>
        <time>2019-05-12T07:24:16Z</time>
      </trkpt>
      <trkpt lat="38.6749070" lon="-0.6929850">
        <ele>944.6</ele>
        <time>2019-05-12T07:24:18Z</time>
      </trkpt>
      <trkpt lat="38.6749240" lon="-0.6929200">
        <ele>944.8</ele>
        <time>2019-05-12T07:24:20Z</time>
      </trkpt>
      <trkpt lat="38.6750260" lon="-0.6928460">
        <ele>945.2</ele>
        <time>2019-05-12T07:24:24Z</time>
      </trkpt>
      <trkpt lat="38.6750650" lon="-0.6928320">
        <ele>944.8</ele>
        <time>2019-05-12T07:24:25Z</time>
      </trkpt>
      <trkpt lat="38.6751960" lon="-0.6927630">
        <ele>943.6</ele>
        <time>2019-05-12T07:24:28Z</time>
      </trkpt>
      <trkpt lat="38.6752390" lon="-0.6927270">
        <ele>943.4</ele>
        <time>2019-05-12T07:24:29Z</time>
      </trkpt>
      <trkpt lat="38.6753410" lon="-0.6926060">
        <ele>942.8</ele>
        <time>2019-05-12T07:24:32Z</time>
      </trkpt>
      <trkpt lat="38.6754360" lon="-0.6925340">
        <ele>944.2</ele>
        <time>2019-05-12T07:24:35Z</time>
      </trkpt>
      <trkpt lat="38.6754640" lon="-0.6925060">
        <ele>944.6</ele>
        <time>2019-05-12T07:24:36Z</time>
      </trkpt>
      <trkpt lat="38.6756160" lon="-0.6923640">
        <ele>944.6</ele>
        <time>2019-05-12T07:24:41Z</time>
      </trkpt>
      <trkpt lat="38.6758310" lon="-0.6922090">
        <ele>945.4</ele>
        <time>2019-05-12T07:24:48Z</time>
      </trkpt>
      <trkpt lat="38.6758630" lon="-0.6921880">
        <ele>945.6</ele>
        <time>2019-05-12T07:24:49Z</time>
      </trkpt>
      <trkpt lat="38.6760260" lon="-0.6920840">
        <ele>946.4</ele>
        <time>2019-05-12T07:24:54Z</time>
      </trkpt>
      <trkpt lat="38.6761750" lon="-0.6919470">
        <ele>946.6</ele>
        <time>2019-05-12T07:24:59Z</time>
      </trkpt>
      <trkpt lat="38.6762080" lon="-0.6919210">
        <ele>946.8</ele>
        <time>2019-05-12T07:25:00Z</time>
      </trkpt>
      <trkpt lat="38.6763890" lon="-0.6917850">
        <ele>947.6</ele>
        <time>2019-05-12T07:25:06Z</time>
      </trkpt>
      <trkpt lat="38.6764190" lon="-0.6917620">
        <ele>947.6</ele>
        <time>2019-05-12T07:25:07Z</time>
      </trkpt>
      <trkpt lat="38.6765450" lon="-0.6916450">
        <ele>947.8</ele>
        <time>2019-05-12T07:25:11Z</time>
      </trkpt>
      <trkpt lat="38.6766460" lon="-0.6915650">
        <ele>947.8</ele>
        <time>2019-05-12T07:25:14Z</time>
      </trkpt>
      <trkpt lat="38.6767140" lon="-0.6915330">
        <ele>948.0</ele>
        <time>2019-05-12T07:25:16Z</time>
      </trkpt>
      <trkpt lat="38.6768240" lon="-0.6914660">
        <ele>948.8</ele>
        <time>2019-05-12T07:25:19Z</time>
      </trkpt>
      <trkpt lat="38.6768590" lon="-0.6914400">
        <ele>948.8</ele>
        <time>2019-05-12T07:25:20Z</time>
      </trkpt>
      <trkpt lat="38.6770360" lon="-0.6913070">
        <ele>948.2</ele>
        <time>2019-05-12T07:25:25Z</time>
      </trkpt>
      <trkpt lat="38.6770750" lon="-0.6912810">
        <ele>948.4</ele>
        <time>2019-05-12T07:25:26Z</time>
      </trkpt>
      <trkpt lat="38.6771590" lon="-0.6912240">
        <ele>948.4</ele>
        <time>2019-05-12T07:25:28Z</time>
      </trkpt>
      <trkpt lat="38.6772720" lon="-0.6911410">
        <ele>948.4</ele>
        <time>2019-05-12T07:25:31Z</time>
      </trkpt>
      <trkpt lat="38.6773780" lon="-0.6910410">
        <ele>948.2</ele>
        <time>2019-05-12T07:25:34Z</time>
      </trkpt>
      <trkpt lat="38.6774470" lon="-0.6909570">
        <ele>948.2</ele>
        <time>2019-05-12T07:25:36Z</time>
      </trkpt>
      <trkpt lat="38.6775810" lon="-0.6908050">
        <ele>948.4</ele>
        <time>2019-05-12T07:25:40Z</time>
      </trkpt>
      <trkpt lat="38.6776530" lon="-0.6907490">
        <ele>948.2</ele>
        <time>2019-05-12T07:25:42Z</time>
      </trkpt>
      <trkpt lat="38.6777240" lon="-0.6906840">
        <ele>948.4</ele>
        <time>2019-05-12T07:25:44Z</time>
      </trkpt>
      <trkpt lat="38.6778400" lon="-0.6905280">
        <ele>948.0</ele>
        <time>2019-05-12T07:25:48Z</time>
      </trkpt>
      <trkpt lat="38.6778630" lon="-0.6904860">
        <ele>948.2</ele>
        <time>2019-05-12T07:25:49Z</time>
      </trkpt>
      <trkpt lat="38.6779180" lon="-0.6904040">
        <ele>948.0</ele>
        <time>2019-05-12T07:25:51Z</time>
      </trkpt>
      <trkpt lat="38.6779900" lon="-0.6903490">
        <ele>948.0</ele>
        <time>2019-05-12T07:25:53Z</time>
      </trkpt>
      <trkpt lat="38.6782520" lon="-0.6901400">
        <ele>948.2</ele>
        <time>2019-05-12T07:26:00Z</time>
      </trkpt>
      <trkpt lat="38.6784440" lon="-0.6899570">
        <ele>947.8</ele>
        <time>2019-05-12T07:26:05Z</time>
      </trkpt>
      <trkpt lat="38.6784810" lon="-0.6899170">
        <ele>947.8</ele>
        <time>2019-05-12T07:26:06Z</time>
      </trkpt>
      <trkpt lat="38.6786290" lon="-0.6897510">
        <ele>947.6</ele>
        <time>2019-05-12T07:26:10Z</time>
      </trkpt>
      <trkpt lat="38.6788530" lon="-0.6894250">
        <ele>946.6</ele>
        <time>2019-05-12T07:26:16Z</time>
      </trkpt>
      <trkpt lat="38.6788940" lon="-0.6893770">
        <ele>946.6</ele>
        <time>2019-05-12T07:26:17Z</time>
      </trkpt>
      <trkpt lat="38.6790010" lon="-0.6892360">
        <ele>946.8</ele>
        <time>2019-05-12T07:26:20Z</time>
      </trkpt>
      <trkpt lat="38.6790330" lon="-0.6891780">
        <ele>946.8</ele>
        <time>2019-05-12T07:26:21Z</time>
      </trkpt>
      <trkpt lat="38.6790680" lon="-0.6891260">
        <ele>946.6</ele>
        <time>2019-05-12T07:26:22Z</time>
      </trkpt>
      <trkpt lat="38.6791490" lon="-0.6889610">
        <ele>946.6</ele>
        <time>2019-05-12T07:26:25Z</time>
      </trkpt>
      <trkpt lat="38.6792200" lon="-0.6888960">
        <ele>946.4</ele>
        <time>2019-05-12T07:26:28Z</time>
      </trkpt>
      <trkpt lat="38.6793190" lon="-0.6889650">
        <ele>946.6</ele>
        <time>2019-05-12T07:26:32Z</time>
      </trkpt>
      <trkpt lat="38.6794330" lon="-0.6890530">
        <ele>946.8</ele>
        <time>2019-05-12T07:26:36Z</time>
      </trkpt>
      <trkpt lat="38.6795590" lon="-0.6891110">
        <ele>947.2</ele>
        <time>2019-05-12T07:26:40Z</time>
      </trkpt>
      <trkpt lat="38.6796620" lon="-0.6891590">
        <ele>947.8</ele>
        <time>2019-05-12T07:26:43Z</time>
      </trkpt>
      <trkpt lat="38.6797450" lon="-0.6891930">
        <ele>948.4</ele>
        <time>2019-05-12T07:26:46Z</time>
      </trkpt>
      <trkpt lat="38.6798430" lon="-0.6892750">
        <ele>949.0</ele>
        <time>2019-05-12T07:26:50Z</time>
      </trkpt>
      <trkpt lat="38.6798710" lon="-0.6892900">
        <ele>949.4</ele>
        <time>2019-05-12T07:26:51Z</time>
      </trkpt>
      <trkpt lat="38.6799510" lon="-0.6892980">
        <ele>949.6</ele>
        <time>2019-05-12T07:26:54Z</time>
      </trkpt>
      <trkpt lat="38.6799670" lon="-0.6892750">
        <ele>949.8</ele>
        <time>2019-05-12T07:26:55Z</time>
      </trkpt>
      <trkpt lat="38.6799830" lon="-0.6892430">
        <ele>950.0</ele>
        <time>2019-05-12T07:26:56Z</time>
      </trkpt>
      <trkpt lat="38.6800140" lon="-0.6891090">
        <ele>949.6</ele>
        <time>2019-05-12T07:26:59Z</time>
      </trkpt>
      <trkpt lat="38.6800340" lon="-0.6890610">
        <ele>949.4</ele>
        <time>2019-05-12T07:27:00Z</time>
      </trkpt>
      <trkpt lat="38.6801370" lon="-0.6889520">
        <ele>948.8</ele>
        <time>2019-05-12T07:27:03Z</time>
      </trkpt>
      <trkpt lat="38.6801780" lon="-0.6889210">
        <ele>948.6</ele>
        <time>2019-05-12T07:27:04Z</time>
      </trkpt>
      <trkpt lat="38.6803040" lon="-0.6888170">
        <ele>948.2</ele>
        <time>2019-05-12T07:27:07Z</time>
      </trkpt>
      <trkpt lat="38.6804030" lon="-0.6887810">
        <ele>948.2</ele>
        <time>2019-05-12T07:27:09Z</time>
      </trkpt>
      <trkpt lat="38.6805900" lon="-0.6887960">
        <ele>948.4</ele>
        <time>2019-05-12T07:27:13Z</time>
      </trkpt>
      <trkpt lat="38.6806320" lon="-0.6888000">
        <ele>948.4</ele>
        <time>2019-05-12T07:27:14Z</time>
      </trkpt>
      <trkpt lat="38.6808560" lon="-0.6887360">
        <ele>948.2</ele>
        <time>2019-05-12T07:27:19Z</time>
      </trkpt>
      <trkpt lat="38.6809460" lon="-0.6887030">
        <ele>948.4</ele>
        <time>2019-05-12T07:27:21Z</time>
      </trkpt>
      <trkpt lat="38.6810350" lon="-0.6886680">
        <ele>948.6</ele>
        <time>2019-05-12T07:27:23Z</time>
      </trkpt>
      <trkpt lat="38.6811570" lon="-0.6886100">
        <ele>949.4</ele>
        <time>2019-05-12T07:27:26Z</time>
      </trkpt>
      <trkpt lat="38.6812430" lon="-0.6885670">
        <ele>949.2</ele>
        <time>2019-05-12T07:27:28Z</time>
      </trkpt>
      <trkpt lat="38.6813720" lon="-0.6885050">
        <ele>949.2</ele>
        <time>2019-05-12T07:27:31Z</time>
      </trkpt>
      <trkpt lat="38.6814170" lon="-0.6884970">
        <ele>949.2</ele>
        <time>2019-05-12T07:27:32Z</time>
      </trkpt>
      <trkpt lat="38.6815480" lon="-0.6884920">
        <ele>950.0</ele>
        <time>2019-05-12T07:27:35Z</time>
      </trkpt>
      <trkpt lat="38.6816280" lon="-0.6884590">
        <ele>950.2</ele>
        <time>2019-05-12T07:27:37Z</time>
      </trkpt>
      <trkpt lat="38.6817400" lon="-0.6883730">
        <ele>950.4</ele>
        <time>2019-05-12T07:27:40Z</time>
      </trkpt>
      <trkpt lat="38.6818150" lon="-0.6883120">
        <ele>950.6</ele>
        <time>2019-05-12T07:27:42Z</time>
      </trkpt>
      <trkpt lat="38.6818500" lon="-0.6882860">
        <ele>950.6</ele>
        <time>2019-05-12T07:27:43Z</time>
      </trkpt>
      <trkpt lat="38.6818960" lon="-0.6882000">
        <ele>950.4</ele>
        <time>2019-05-12T07:27:45Z</time>
      </trkpt>
      <trkpt lat="38.6819100" lon="-0.6881470">
        <ele>950.4</ele>
        <time>2019-05-12T07:27:46Z</time>
      </trkpt>
      <trkpt lat="38.6819370" lon="-0.6880280">
        <ele>950.2</ele>
        <time>2019-05-12T07:27:48Z</time>
      </trkpt>
      <trkpt lat="38.6819620" lon="-0.6878180">
        <ele>949.2</ele>
        <time>2019-05-12T07:27:51Z</time>
      </trkpt>
      <trkpt lat="38.6819800" lon="-0.6877440">
        <ele>948.8</ele>
        <time>2019-05-12T07:27:52Z</time>
      </trkpt>
      <trkpt lat="38.6820470" lon="-0.6876170">
        <ele>947.8</ele>
        <time>2019-05-12T07:27:54Z</time>
      </trkpt>
      <trkpt lat="38.6820890" lon="-0.6875680">
        <ele>947.8</ele>
        <time>2019-05-12T07:27:55Z</time>
      </trkpt>
      <trkpt lat="38.6821770" lon="-0.6874960">
        <ele>948.0</ele>
        <time>2019-05-12T07:27:57Z</time>
      </trkpt>
      <trkpt lat="38.6822150" lon="-0.6874700">
        <ele>948.2</ele>
        <time>2019-05-12T07:27:58Z</time>
      </trkpt>
      <trkpt lat="38.6822490" lon="-0.6874480">
        <ele>948.6</ele>
        <time>2019-05-12T07:27:59Z</time>
      </trkpt>
      <trkpt lat="38.6822800" lon="-0.6874300">
        <ele>949.0</ele>
        <time>2019-05-12T07:28:00Z</time>
      </trkpt>
      <trkpt lat="38.6823840" lon="-0.6874050">
        <ele>950.0</ele>
        <time>2019-05-12T07:28:03Z</time>
      </trkpt>
      <trkpt lat="38.6824180" lon="-0.6874100">
        <ele>950.2</ele>
        <time>2019-05-12T07:28:04Z</time>
      </trkpt>
      <trkpt lat="38.6825030" lon="-0.6874510">
        <ele>951.0</ele>
        <time>2019-05-12T07:28:07Z</time>
      </trkpt>
      <trkpt lat="38.6825510" lon="-0.6874870">
        <ele>951.4</ele>
        <time>2019-05-12T07:28:09Z</time>
      </trkpt>
      <trkpt lat="38.6826040" lon="-0.6875210">
        <ele>952.2</ele>
        <time>2019-05-12T07:28:11Z</time>
      </trkpt>
      <trkpt lat="38.6827350" lon="-0.6875570">
        <ele>953.4</ele>
        <time>2019-05-12T07:28:16Z</time>
      </trkpt>
      <trkpt lat="38.6827800" lon="-0.6875150">
        <ele>954.2</ele>
        <time>2019-05-12T07:28:18Z</time>
      </trkpt>
      <trkpt lat="38.6828030" lon="-0.6874370">
        <ele>954.6</ele>
        <time>2019-05-12T07:28:20Z</time>
      </trkpt>
      <trkpt lat="38.6828600" lon="-0.6872190">
        <ele>954.4</ele>
        <time>2019-05-12T07:28:25Z</time>
      </trkpt>
      <trkpt lat="38.6828700" lon="-0.6871660">
        <ele>954.4</ele>
        <time>2019-05-12T07:28:26Z</time>
      </trkpt>
      <trkpt lat="38.6828870" lon="-0.6868520">
        <ele>953.2</ele>
        <time>2019-05-12T07:28:31Z</time>
      </trkpt>
      <trkpt lat="38.6829170" lon="-0.6866650">
        <ele>952.2</ele>
        <time>2019-05-12T07:28:34Z</time>
      </trkpt>
      <trkpt lat="38.6829730" lon="-0.6865480">
        <ele>952.0</ele>
        <time>2019-05-12T07:28:36Z</time>
      </trkpt>
      <trkpt lat="38.6830970" lon="-0.6863200">
        <ele>951.6</ele>
        <time>2019-05-12T07:28:40Z</time>
      </trkpt>
      <trkpt lat="38.6831330" lon="-0.6862660">
        <ele>951.6</ele>
        <time>2019-05-12T07:28:41Z</time>
      </trkpt>
      <trkpt lat="38.6831730" lon="-0.6862150">
        <ele>951.6</ele>
        <time>2019-05-12T07:28:42Z</time>
      </trkpt>
      <trkpt lat="38.6832630" lon="-0.6860350">
        <ele>951.2</ele>
        <time>2019-05-12T07:28:45Z</time>
      </trkpt>
      <trkpt lat="38.6832960" lon="-0.6859780">
        <ele>951.0</ele>
        <time>2019-05-12T07:28:46Z</time>
      </trkpt>
      <trkpt lat="38.6833830" lon="-0.6859030">
        <ele>950.6</ele>
        <time>2019-05-12T07:28:48Z</time>
      </trkpt>
      <trkpt lat="38.6835150" lon="-0.6857990">
        <ele>951.8</ele>
        <time>2019-05-12T07:28:51Z</time>
      </trkpt>
      <trkpt lat="38.6835530" lon="-0.6857740">
        <ele>952.0</ele>
        <time>2019-05-12T07:28:52Z</time>
      </trkpt>
      <trkpt lat="38.6835860" lon="-0.6857460">
        <ele>952.2</ele>
        <time>2019-05-12T07:28:53Z</time>
      </trkpt>
      <trkpt lat="38.6836780" lon="-0.6856770">
        <ele>953.6</ele>
        <time>2019-05-12T07:28:56Z</time>
      </trkpt>
      <trkpt lat="38.6837090" lon="-0.6856620">
        <ele>953.8</ele>
        <time>2019-05-12T07:28:57Z</time>
      </trkpt>
      <trkpt lat="38.6837860" lon="-0.6856700">
        <ele>954.6</ele>
        <time>2019-05-12T07:29:00Z</time>
      </trkpt>
      <trkpt lat="38.6838050" lon="-0.6856850">
        <ele>955.0</ele>
        <time>2019-05-12T07:29:01Z</time>
      </trkpt>
      <trkpt lat="38.6838430" lon="-0.6857070">
        <ele>955.8</ele>
        <time>2019-05-12T07:29:03Z</time>
      </trkpt>
      <trkpt lat="38.6838880" lon="-0.6856920">
        <ele>956.2</ele>
        <time>2019-05-12T07:29:05Z</time>
      </trkpt>
      <trkpt lat="38.6839670" lon="-0.6856420">
        <ele>956.8</ele>
        <time>2019-05-12T07:29:08Z</time>
      </trkpt>
      <trkpt lat="38.6840180" lon="-0.6856000">
        <ele>957.6</ele>
        <time>2019-05-12T07:29:10Z</time>
      </trkpt>
      <trkpt lat="38.6840610" lon="-0.6855480">
        <ele>957.8</ele>
        <time>2019-05-12T07:29:12Z</time>
      </trkpt>
      <trkpt lat="38.6841330" lon="-0.6854860">
        <ele>958.2</ele>
        <time>2019-05-12T07:29:15Z</time>
      </trkpt>
      <trkpt lat="38.6843170" lon="-0.6853650">
        <ele>958.4</ele>
        <time>2019-05-12T07:29:21Z</time>
      </trkpt>
      <trkpt lat="38.6844250" lon="-0.6852980">
        <ele>958.2</ele>
        <time>2019-05-12T07:29:25Z</time>
      </trkpt>
      <trkpt lat="38.6845810" lon="-0.6852210">
        <ele>957.4</ele>
        <time>2019-05-12T07:29:29Z</time>
      </trkpt>
      <trkpt lat="38.6846650" lon="-0.6852300">
        <ele>957.2</ele>
        <time>2019-05-12T07:29:31Z</time>
      </trkpt>
      <trkpt lat="38.6847310" lon="-0.6852500">
        <ele>957.2</ele>
        <time>2019-05-12T07:29:33Z</time>
      </trkpt>
      <trkpt lat="38.6848470" lon="-0.6852330">
        <ele>958.8</ele>
        <time>2019-05-12T07:29:37Z</time>
      </trkpt>
      <trkpt lat="38.6849010" lon="-0.6851890">
        <ele>958.6</ele>
        <time>2019-05-12T07:29:39Z</time>
      </trkpt>
      <trkpt lat="38.6849710" lon="-0.6851250">
        <ele>958.2</ele>
        <time>2019-05-12T07:29:41Z</time>
      </trkpt>
      <trkpt lat="38.6850820" lon="-0.6850470">
        <ele>957.0</ele>
        <time>2019-05-12T07:29:44Z</time>
      </trkpt>
      <trkpt lat="38.6851090" lon="-0.6850200">
        <ele>957.0</ele>
        <time>2019-05-12T07:29:45Z</time>
      </trkpt>
      <trkpt lat="38.6852310" lon="-0.6849660">
        <ele>958.0</ele>
        <time>2019-05-12T07:29:49Z</time>
      </trkpt>
      <trkpt lat="38.6853230" lon="-0.6848650">
        <ele>959.0</ele>
        <time>2019-05-12T07:29:53Z</time>
      </trkpt>
      <trkpt lat="38.6853390" lon="-0.6848310">
        <ele>959.2</ele>
        <time>2019-05-12T07:29:54Z</time>
      </trkpt>
      <trkpt lat="38.6854300" lon="-0.6847010">
        <ele>959.6</ele>
        <time>2019-05-12T07:29:59Z</time>
      </trkpt>
      <trkpt lat="38.6855140" lon="-0.6845780">
        <ele>959.6</ele>
        <time>2019-05-12T07:30:03Z</time>
      </trkpt>
      <trkpt lat="38.6855280" lon="-0.6845280">
        <ele>959.6</ele>
        <time>2019-05-12T07:30:04Z</time>
      </trkpt>
      <trkpt lat="38.6855650" lon="-0.6844170">
        <ele>959.0</ele>
        <time>2019-05-12T07:30:06Z</time>
      </trkpt>
      <trkpt lat="38.6856240" lon="-0.6843320">
        <ele>958.4</ele>
        <time>2019-05-12T07:30:08Z</time>
      </trkpt>
      <trkpt lat="38.6856750" lon="-0.6842210">
        <ele>958.4</ele>
        <time>2019-05-12T07:30:11Z</time>
      </trkpt>
      <trkpt lat="38.6857000" lon="-0.6841810">
        <ele>958.4</ele>
        <time>2019-05-12T07:30:12Z</time>
      </trkpt>
      <trkpt lat="38.6857180" lon="-0.6841320">
        <ele>958.0</ele>
        <time>2019-05-12T07:30:13Z</time>
      </trkpt>
      <trkpt lat="38.6857380" lon="-0.6840810">
        <ele>957.8</ele>
        <time>2019-05-12T07:30:14Z</time>
      </trkpt>
      <trkpt lat="38.6857590" lon="-0.6840370">
        <ele>957.6</ele>
        <time>2019-05-12T07:30:15Z</time>
      </trkpt>
      <trkpt lat="38.6857740" lon="-0.6839870">
        <ele>957.6</ele>
        <time>2019-05-12T07:30:16Z</time>
      </trkpt>
      <trkpt lat="38.6858190" lon="-0.6838800">
        <ele>957.0</ele>
        <time>2019-05-12T07:30:19Z</time>
      </trkpt>
      <trkpt lat="38.6858530" lon="-0.6837820">
        <ele>956.4</ele>
        <time>2019-05-12T07:30:21Z</time>
      </trkpt>
      <trkpt lat="38.6858910" lon="-0.6836930">
        <ele>954.8</ele>
        <time>2019-05-12T07:30:23Z</time>
      </trkpt>
      <trkpt lat="38.6859410" lon="-0.6835790">
        <ele>953.6</ele>
        <time>2019-05-12T07:30:26Z</time>
      </trkpt>
      <trkpt lat="38.6859870" lon="-0.6835100">
        <ele>952.8</ele>
        <time>2019-05-12T07:30:28Z</time>
      </trkpt>
      <trkpt lat="38.6860440" lon="-0.6834240">
        <ele>952.6</ele>
        <time>2019-05-12T07:30:30Z</time>
      </trkpt>
      <trkpt lat="38.6861020" lon="-0.6833280">
        <ele>952.2</ele>
        <time>2019-05-12T07:30:32Z</time>
      </trkpt>
      <trkpt lat="38.6861780" lon="-0.6832320">
        <ele>951.0</ele>
        <time>2019-05-12T07:30:34Z</time>
      </trkpt>
      <trkpt lat="38.6862530" lon="-0.6831460">
        <ele>949.8</ele>
        <time>2019-05-12T07:30:36Z</time>
      </trkpt>
      <trkpt lat="38.6863070" lon="-0.6831010">
        <ele>950.4</ele>
        <time>2019-05-12T07:30:38Z</time>
      </trkpt>
      <trkpt lat="38.6863640" lon="-0.6830500">
        <ele>951.2</ele>
        <time>2019-05-12T07:30:41Z</time>
      </trkpt>
      <trkpt lat="38.6863990" lon="-0.6830270">
        <ele>951.8</ele>
        <time>2019-05-12T07:30:43Z</time>
      </trkpt>
      <trkpt lat="38.6864600" lon="-0.6829290">
        <ele>952.2</ele>
        <time>2019-05-12T07:30:46Z</time>
      </trkpt>
      <trkpt lat="38.6864830" lon="-0.6828940">
        <ele>951.8</ele>
        <time>2019-05-12T07:30:47Z</time>
      </trkpt>
      <trkpt lat="38.6865210" lon="-0.6828130">
        <ele>951.0</ele>
        <time>2019-05-12T07:30:49Z</time>
      </trkpt>
      <trkpt lat="38.6865570" lon="-0.6826850">
        <ele>950.6</ele>
        <time>2019-05-12T07:30:52Z</time>
      </trkpt>
      <trkpt lat="38.6865870" lon="-0.6826000">
        <ele>949.4</ele>
        <time>2019-05-12T07:30:54Z</time>
      </trkpt>
      <trkpt lat="38.6866300" lon="-0.6825090">
        <ele>947.8</ele>
        <time>2019-05-12T07:30:56Z</time>
      </trkpt>
      <trkpt lat="38.6866480" lon="-0.6824430">
        <ele>946.8</ele>
        <time>2019-05-12T07:30:58Z</time>
      </trkpt>
      <trkpt lat="38.6866750" lon="-0.6823620">
        <ele>946.4</ele>
        <time>2019-05-12T07:31:00Z</time>
      </trkpt>
      <trkpt lat="38.6867460" lon="-0.6822430">
        <ele>945.6</ele>
        <time>2019-05-12T07:31:03Z</time>
      </trkpt>
      <trkpt lat="38.6867560" lon="-0.6821970">
        <ele>945.6</ele>
        <time>2019-05-12T07:31:04Z</time>
      </trkpt>
      <trkpt lat="38.6867520" lon="-0.6821540">
        <ele>946.0</ele>
        <time>2019-05-12T07:31:05Z</time>
      </trkpt>
      <trkpt lat="38.6867580" lon="-0.6820670">
        <ele>946.0</ele>
        <time>2019-05-12T07:31:07Z</time>
      </trkpt>
      <trkpt lat="38.6867990" lon="-0.6819810">
        <ele>946.2</ele>
        <time>2019-05-12T07:31:10Z</time>
      </trkpt>
      <trkpt lat="38.6868200" lon="-0.6819280">
        <ele>946.8</ele>
        <time>2019-05-12T07:31:12Z</time>
      </trkpt>
      <trkpt lat="38.6868440" lon="-0.6818020">
        <ele>947.4</ele>
        <time>2019-05-12T07:31:15Z</time>
      </trkpt>
      <trkpt lat="38.6868620" lon="-0.6816220">
        <ele>946.4</ele>
        <time>2019-05-12T07:31:18Z</time>
      </trkpt>
      <trkpt lat="38.6868640" lon="-0.6815800">
        <ele>946.4</ele>
        <time>2019-05-12T07:31:19Z</time>
      </trkpt>
      <trkpt lat="38.6868220" lon="-0.6814610">
        <ele>946.8</ele>
        <time>2019-05-12T07:31:22Z</time>
      </trkpt>
      <trkpt lat="38.6868310" lon="-0.6813080">
        <ele>946.8</ele>
        <time>2019-05-12T07:31:26Z</time>
      </trkpt>
      <trkpt lat="38.6869400" lon="-0.6811880">
        <ele>947.6</ele>
        <time>2019-05-12T07:31:30Z</time>
      </trkpt>
      <trkpt lat="38.6869760" lon="-0.6811730">
        <ele>948.2</ele>
        <time>2019-05-12T07:31:31Z</time>
      </trkpt>
      <trkpt lat="38.6870200" lon="-0.6811240">
        <ele>948.8</ele>
        <time>2019-05-12T07:31:33Z</time>
      </trkpt>
      <trkpt lat="38.6870370" lon="-0.6810870">
        <ele>949.0</ele>
        <time>2019-05-12T07:31:34Z</time>
      </trkpt>
      <trkpt lat="38.6870520" lon="-0.6810550">
        <ele>949.2</ele>
        <time>2019-05-12T07:31:35Z</time>
      </trkpt>
      <trkpt lat="38.6871370" lon="-0.6809540">
        <ele>949.8</ele>
        <time>2019-05-12T07:31:39Z</time>
      </trkpt>
      <trkpt lat="38.6872380" lon="-0.6808380">
        <ele>950.2</ele>
        <time>2019-05-12T07:31:43Z</time>
      </trkpt>
      <trkpt lat="38.6872940" lon="-0.6807990">
        <ele>950.6</ele>
        <time>2019-05-12T07:31:45Z</time>
      </trkpt>
      <trkpt lat="38.6873490" lon="-0.6807680">
        <ele>950.8</ele>
        <time>2019-05-12T07:31:47Z</time>
      </trkpt>
      <trkpt lat="38.6874360" lon="-0.6806550">
        <ele>951.0</ele>
        <time>2019-05-12T07:31:51Z</time>
      </trkpt>
      <trkpt lat="38.6874660" lon="-0.6806310">
        <ele>951.0</ele>
        <time>2019-05-12T07:31:52Z</time>
      </trkpt>
      <trkpt lat="38.6875440" lon="-0.6805280">
        <ele>951.2</ele>
        <time>2019-05-12T07:31:55Z</time>
      </trkpt>
      <trkpt lat="38.6876470" lon="-0.6805280">
        <ele>950.6</ele>
        <time>2019-05-12T07:31:58Z</time>
      </trkpt>
      <trkpt lat="38.6877730" lon="-0.6805780">
        <ele>951.2</ele>
        <time>2019-05-12T07:32:02Z</time>
      </trkpt>
      <trkpt lat="38.6877900" lon="-0.6805980">
        <ele>951.2</ele>
        <time>2019-05-12T07:32:03Z</time>
      </trkpt>
      <trkpt lat="38.6878430" lon="-0.6806270">
        <ele>952.4</ele>
        <time>2019-05-12T07:32:05Z</time>
      </trkpt>
      <trkpt lat="38.6878710" lon="-0.6806340">
        <ele>952.2</ele>
        <time>2019-05-12T07:32:06Z</time>
      </trkpt>
      <trkpt lat="38.6879310" lon="-0.6806270">
        <ele>952.4</ele>
        <time>2019-05-12T07:32:08Z</time>
      </trkpt>
      <trkpt lat="38.6880550" lon="-0.6806050">
        <ele>952.6</ele>
        <time>2019-05-12T07:32:12Z</time>
      </trkpt>
      <trkpt lat="38.6883380" lon="-0.6805750">
        <ele>952.0</ele>
        <time>2019-05-12T07:32:20Z</time>
      </trkpt>
      <trkpt lat="38.6886330" lon="-0.6805810">
        <ele>951.6</ele>
        <time>2019-05-12T07:32:27Z</time>
      </trkpt>
      <trkpt lat="38.6887820" lon="-0.6806090">
        <ele>951.2</ele>
        <time>2019-05-12T07:32:30Z</time>
      </trkpt>
      <trkpt lat="38.6888890" lon="-0.6806170">
        <ele>950.8</ele>
        <time>2019-05-12T07:32:32Z</time>
      </trkpt>
      <trkpt lat="38.6889800" lon="-0.6806110">
        <ele>950.8</ele>
        <time>2019-05-12T07:32:34Z</time>
      </trkpt>
      <trkpt lat="38.6890660" lon="-0.6806030">
        <ele>951.2</ele>
        <time>2019-05-12T07:32:36Z</time>
      </trkpt>
      <trkpt lat="38.6892060" lon="-0.6806150">
        <ele>951.4</ele>
        <time>2019-05-12T07:32:40Z</time>
      </trkpt>
      <trkpt lat="38.6893170" lon="-0.6805670">
        <ele>952.4</ele>
        <time>2019-05-12T07:32:43Z</time>
      </trkpt>
      <trkpt lat="38.6893490" lon="-0.6805300">
        <ele>952.2</ele>
        <time>2019-05-12T07:32:44Z</time>
      </trkpt>
      <trkpt lat="38.6894850" lon="-0.6802970">
        <ele>950.8</ele>
        <time>2019-05-12T07:32:48Z</time>
      </trkpt>
      <trkpt lat="38.6895880" lon="-0.6801950">
        <ele>949.4</ele>
        <time>2019-05-12T07:32:50Z</time>
      </trkpt>
      <trkpt lat="38.6896430" lon="-0.6801460">
        <ele>949.0</ele>
        <time>2019-05-12T07:32:51Z</time>
      </trkpt>
      <trkpt lat="38.6896960" lon="-0.6800930">
        <ele>948.8</ele>
        <time>2019-05-12T07:32:52Z</time>
      </trkpt>
      <trkpt lat="38.6897530" lon="-0.6800470">
        <ele>948.8</ele>
        <time>2019-05-12T07:32:53Z</time>
      </trkpt>
      <trkpt lat="38.6898740" lon="-0.6799740">
        <ele>948.4</ele>
        <time>2019-05-12T07:32:55Z</time>
      </trkpt>
      <trkpt lat="38.6899910" lon="-0.6798940">
        <ele>948.2</ele>
        <time>2019-05-12T07:32:57Z</time>
      </trkpt>
      <trkpt lat="38.6901110" lon="-0.6797690">
        <ele>947.8</ele>
        <time>2019-05-12T07:33:00Z</time>
      </trkpt>
      <trkpt lat="38.6901390" lon="-0.6797180">
        <ele>947.6</ele>
        <time>2019-05-12T07:33:01Z</time>
      </trkpt>
      <trkpt lat="38.6902250" lon="-0.6796480">
        <ele>947.2</ele>
        <time>2019-05-12T07:33:03Z</time>
      </trkpt>
      <trkpt lat="38.6902800" lon="-0.6796230">
        <ele>946.8</ele>
        <time>2019-05-12T07:33:04Z</time>
      </trkpt>
      <trkpt lat="38.6903350" lon="-0.6795950">
        <ele>946.8</ele>
        <time>2019-05-12T07:33:05Z</time>
      </trkpt>
      <trkpt lat="38.6903910" lon="-0.6795850">
        <ele>946.8</ele>
        <time>2019-05-12T07:33:06Z</time>
      </trkpt>
      <trkpt lat="38.6904940" lon="-0.6795870">
        <ele>947.0</ele>
        <time>2019-05-12T07:33:08Z</time>
      </trkpt>
      <trkpt lat="38.6905410" lon="-0.6795930">
        <ele>947.2</ele>
        <time>2019-05-12T07:33:09Z</time>
      </trkpt>
      <trkpt lat="38.6906630" lon="-0.6795870">
        <ele>948.0</ele>
        <time>2019-05-12T07:33:12Z</time>
      </trkpt>
      <trkpt lat="38.6908140" lon="-0.6795380">
        <ele>948.6</ele>
        <time>2019-05-12T07:33:16Z</time>
      </trkpt>
      <trkpt lat="38.6909000" lon="-0.6795250">
        <ele>948.8</ele>
        <time>2019-05-12T07:33:18Z</time>
      </trkpt>
      <trkpt lat="38.6909860" lon="-0.6795090">
        <ele>948.6</ele>
        <time>2019-05-12T07:33:20Z</time>
      </trkpt>
      <trkpt lat="38.6911140" lon="-0.6794180">
        <ele>948.0</ele>
        <time>2019-05-12T07:33:23Z</time>
      </trkpt>
      <trkpt lat="38.6911670" lon="-0.6793860">
        <ele>947.8</ele>
        <time>2019-05-12T07:33:24Z</time>
      </trkpt>
      <trkpt lat="38.6912170" lon="-0.6793420">
        <ele>947.4</ele>
        <time>2019-05-12T07:33:25Z</time>
      </trkpt>
      <trkpt lat="38.6913230" lon="-0.6792610">
        <ele>946.6</ele>
        <time>2019-05-12T07:33:27Z</time>
      </trkpt>
      <trkpt lat="38.6913780" lon="-0.6792250">
        <ele>946.4</ele>
        <time>2019-05-12T07:33:28Z</time>
      </trkpt>
      <trkpt lat="38.6914200" lon="-0.6791830">
        <ele>946.4</ele>
        <time>2019-05-12T07:33:29Z</time>
      </trkpt>
      <trkpt lat="38.6914870" lon="-0.6790960">
        <ele>946.4</ele>
        <time>2019-05-12T07:33:31Z</time>
      </trkpt>
      <trkpt lat="38.6916010" lon="-0.6788840">
        <ele>946.4</ele>
        <time>2019-05-12T07:33:35Z</time>
      </trkpt>
      <trkpt lat="38.6916280" lon="-0.6788230">
        <ele>946.4</ele>
        <time>2019-05-12T07:33:36Z</time>
      </trkpt>
      <trkpt lat="38.6917670" lon="-0.6785460">
        <ele>946.6</ele>
        <time>2019-05-12T07:33:41Z</time>
      </trkpt>
      <trkpt lat="38.6917990" lon="-0.6785120">
        <ele>946.6</ele>
        <time>2019-05-12T07:33:42Z</time>
      </trkpt>
      <trkpt lat="38.6918810" lon="-0.6784140">
        <ele>947.0</ele>
        <time>2019-05-12T07:33:45Z</time>
      </trkpt>
      <trkpt lat="38.6919050" lon="-0.6783750">
        <ele>947.2</ele>
        <time>2019-05-12T07:33:46Z</time>
      </trkpt>
      <trkpt lat="38.6919420" lon="-0.6783280">
        <ele>947.4</ele>
        <time>2019-05-12T07:33:48Z</time>
      </trkpt>
      <trkpt lat="38.6919850" lon="-0.6782660">
        <ele>948.2</ele>
        <time>2019-05-12T07:33:50Z</time>
      </trkpt>
      <trkpt lat="38.6920970" lon="-0.6781340">
        <ele>948.4</ele>
        <time>2019-05-12T07:33:54Z</time>
      </trkpt>
      <trkpt lat="38.6921170" lon="-0.6781080">
        <ele>948.6</ele>
        <time>2019-05-12T07:33:55Z</time>
      </trkpt>
      <trkpt lat="38.6921810" lon="-0.6780330">
        <ele>949.2</ele>
        <time>2019-05-12T07:33:59Z</time>
      </trkpt>
      <trkpt lat="38.6922030" lon="-0.6780320">
        <ele>949.8</ele>
        <time>2019-05-12T07:34:00Z</time>
      </trkpt>
      <trkpt lat="38.6922400" lon="-0.6780530">
        <ele>950.0</ele>
        <time>2019-05-12T07:34:02Z</time>
      </trkpt>
      <trkpt lat="38.6923270" lon="-0.6781590">
        <ele>950.2</ele>
        <time>2019-05-12T07:34:07Z</time>
      </trkpt>
      <trkpt lat="38.6924210" lon="-0.6781690">
        <ele>951.0</ele>
        <time>2019-05-12T07:34:11Z</time>
      </trkpt>
      <trkpt lat="38.6924400" lon="-0.6781680">
        <ele>951.2</ele>
        <time>2019-05-12T07:34:12Z</time>
      </trkpt>
      <trkpt lat="38.6924570" lon="-0.6781670">
        <ele>951.4</ele>
        <time>2019-05-12T07:34:13Z</time>
      </trkpt>
      <trkpt lat="38.6925400" lon="-0.6781920">
        <ele>952.0</ele>
        <time>2019-05-12T07:34:17Z</time>
      </trkpt>
      <trkpt lat="38.6925570" lon="-0.6782060">
        <ele>952.2</ele>
        <time>2019-05-12T07:34:18Z</time>
      </trkpt>
      <trkpt lat="38.6926640" lon="-0.6782820">
        <ele>953.2</ele>
        <time>2019-05-12T07:34:24Z</time>
      </trkpt>
      <trkpt lat="38.6927940" lon="-0.6783510">
        <ele>954.2</ele>
        <time>2019-05-12T07:34:31Z</time>
      </trkpt>
      <trkpt lat="38.6927980" lon="-0.6783660">
        <ele>954.2</ele>
        <time>2019-05-12T07:34:32Z</time>
      </trkpt>
      <trkpt lat="38.6928080" lon="-0.6783760">
        <ele>954.2</ele>
        <time>2019-05-12T07:34:33Z</time>
      </trkpt>
      <trkpt lat="38.6928290" lon="-0.6784050">
        <ele>954.8</ele>
        <time>2019-05-12T07:34:35Z</time>
      </trkpt>
      <trkpt lat="38.6928540" lon="-0.6784700">
        <ele>955.6</ele>
        <time>2019-05-12T07:34:39Z</time>
      </trkpt>
      <trkpt lat="38.6928640" lon="-0.6784780">
        <ele>955.6</ele>
        <time>2019-05-12T07:34:40Z</time>
      </trkpt>
      <trkpt lat="38.6928770" lon="-0.6784870">
        <ele>955.8</ele>
        <time>2019-05-12T07:34:41Z</time>
      </trkpt>
      <trkpt lat="38.6929050" lon="-0.6785240">
        <ele>956.2</ele>
        <time>2019-05-12T07:34:46Z</time>
      </trkpt>
      <trkpt lat="38.6929580" lon="-0.6784920">
        <ele>956.6</ele>
        <time>2019-05-12T07:36:23Z</time>
      </trkpt>
      <trkpt lat="38.6929970" lon="-0.6784450">
        <ele>956.4</ele>
        <time>2019-05-12T07:36:26Z</time>
      </trkpt>
      <trkpt lat="38.6930370" lon="-0.6783920">
        <ele>956.0</ele>
        <time>2019-05-12T07:36:28Z</time>
      </trkpt>
      <trkpt lat="38.6930950" lon="-0.6783270">
        <ele>955.4</ele>
        <time>2019-05-12T07:36:30Z</time>
      </trkpt>
      <trkpt lat="38.6932430" lon="-0.6782180">
        <ele>954.0</ele>
        <time>2019-05-12T07:36:34Z</time>
      </trkpt>
      <trkpt lat="38.6932810" lon="-0.6782170">
        <ele>953.8</ele>
        <time>2019-05-12T07:36:35Z</time>
      </trkpt>
      <trkpt lat="38.6933990" lon="-0.6782190">
        <ele>953.2</ele>
        <time>2019-05-12T07:36:38Z</time>
      </trkpt>
      <trkpt lat="38.6934460" lon="-0.6782080">
        <ele>953.0</ele>
        <time>2019-05-12T07:36:39Z</time>
      </trkpt>
      <trkpt lat="38.6934960" lon="-0.6781970">
        <ele>952.2</ele>
        <time>2019-05-12T07:36:40Z</time>
      </trkpt>
      <trkpt lat="38.6935380" lon="-0.6781810">
        <ele>952.0</ele>
        <time>2019-05-12T07:36:41Z</time>
      </trkpt>
      <trkpt lat="38.6936300" lon="-0.6781580">
        <ele>951.6</ele>
        <time>2019-05-12T07:36:43Z</time>
      </trkpt>
      <trkpt lat="38.6936700" lon="-0.6781430">
        <ele>951.6</ele>
        <time>2019-05-12T07:36:44Z</time>
      </trkpt>
      <trkpt lat="38.6937240" lon="-0.6780730">
        <ele>951.2</ele>
        <time>2019-05-12T07:36:46Z</time>
      </trkpt>
      <trkpt lat="38.6937460" lon="-0.6780740">
        <ele>950.8</ele>
        <time>2019-05-12T07:36:47Z</time>
      </trkpt>
      <trkpt lat="38.6938330" lon="-0.6780370">
        <ele>950.0</ele>
        <time>2019-05-12T07:36:50Z</time>
      </trkpt>
      <trkpt lat="38.6939120" lon="-0.6779600">
        <ele>949.2</ele>
        <time>2019-05-12T07:36:52Z</time>
      </trkpt>
      <trkpt lat="38.6939520" lon="-0.6779030">
        <ele>948.6</ele>
        <time>2019-05-12T07:36:53Z</time>
      </trkpt>
      <trkpt lat="38.6939970" lon="-0.6778450">
        <ele>947.8</ele>
        <time>2019-05-12T07:36:54Z</time>
      </trkpt>
      <trkpt lat="38.6940520" lon="-0.6777990">
        <ele>946.8</ele>
        <time>2019-05-12T07:36:55Z</time>
      </trkpt>
      <trkpt lat="38.6941380" lon="-0.6777330">
        <ele>945.4</ele>
        <time>2019-05-12T07:36:57Z</time>
      </trkpt>
      <trkpt lat="38.6942000" lon="-0.6775760">
        <ele>945.2</ele>
        <time>2019-05-12T07:37:00Z</time>
      </trkpt>
      <trkpt lat="38.6942220" lon="-0.6774870">
        <ele>944.8</ele>
        <time>2019-05-12T07:37:03Z</time>
      </trkpt>
      <trkpt lat="38.6942790" lon="-0.6775270">
        <ele>944.6</ele>
        <time>2019-05-12T07:37:06Z</time>
      </trkpt>
      <trkpt lat="38.6942960" lon="-0.6775440">
        <ele>944.6</ele>
        <time>2019-05-12T07:37:07Z</time>
      </trkpt>
      <trkpt lat="38.6943200" lon="-0.6775880">
        <ele>944.4</ele>
        <time>2019-05-12T07:37:08Z</time>
      </trkpt>
      <trkpt lat="38.6943550" lon="-0.6776170">
        <ele>944.0</ele>
        <time>2019-05-12T07:37:09Z</time>
      </trkpt>
      <trkpt lat="38.6943960" lon="-0.6776250">
        <ele>943.6</ele>
        <time>2019-05-12T07:37:10Z</time>
      </trkpt>
      <trkpt lat="38.6945210" lon="-0.6775960">
        <ele>943.2</ele>
        <time>2019-05-12T07:37:13Z</time>
      </trkpt>
      <trkpt lat="38.6945660" lon="-0.6775650">
        <ele>942.6</ele>
        <time>2019-05-12T07:37:14Z</time>
      </trkpt>
      <trkpt lat="38.6946070" lon="-0.6775330">
        <ele>942.0</ele>
        <time>2019-05-12T07:37:15Z</time>
      </trkpt>
      <trkpt lat="38.6947290" lon="-0.6775040">
        <ele>940.8</ele>
        <time>2019-05-12T07:37:18Z</time>
      </trkpt>
      <trkpt lat="38.6948220" lon="-0.6774220">
        <ele>939.2</ele>
        <time>2019-05-12T07:37:20Z</time>
      </trkpt>
      <trkpt lat="38.6948660" lon="-0.6773750">
        <ele>938.4</ele>
        <time>2019-05-12T07:37:21Z</time>
      </trkpt>
      <trkpt lat="38.6949130" lon="-0.6773470">
        <ele>937.6</ele>
        <time>2019-05-12T07:37:22Z</time>
      </trkpt>
      <trkpt lat="38.6950030" lon="-0.6773130">
        <ele>936.2</ele>
        <time>2019-05-12T07:37:24Z</time>
      </trkpt>
      <trkpt lat="38.6951080" lon="-0.6772720">
        <ele>935.0</ele>
        <time>2019-05-12T07:37:26Z</time>
      </trkpt>
      <trkpt lat="38.6951480" lon="-0.6772410">
        <ele>934.2</ele>
        <time>2019-05-12T07:37:27Z</time>
      </trkpt>
      <trkpt lat="38.6951910" lon="-0.6772250">
        <ele>933.6</ele>
        <time>2019-05-12T07:37:28Z</time>
      </trkpt>
      <trkpt lat="38.6952500" lon="-0.6771500">
        <ele>932.2</ele>
        <time>2019-05-12T07:37:30Z</time>
      </trkpt>
      <trkpt lat="38.6952860" lon="-0.6771230">
        <ele>931.8</ele>
        <time>2019-05-12T07:37:31Z</time>
      </trkpt>
      <trkpt lat="38.6953520" lon="-0.6770740">
        <ele>930.4</ele>
        <time>2019-05-12T07:37:33Z</time>
      </trkpt>
      <trkpt lat="38.6953890" lon="-0.6770430">
        <ele>929.4</ele>
        <time>2019-05-12T07:37:34Z</time>
      </trkpt>
      <trkpt lat="38.6954330" lon="-0.6770200">
        <ele>928.8</ele>
        <time>2019-05-12T07:37:35Z</time>
      </trkpt>
      <trkpt lat="38.6954750" lon="-0.6770000">
        <ele>928.0</ele>
        <time>2019-05-12T07:37:36Z</time>
      </trkpt>
      <trkpt lat="38.6955050" lon="-0.6769720">
        <ele>927.4</ele>
        <time>2019-05-12T07:37:37Z</time>
      </trkpt>
      <trkpt lat="38.6955450" lon="-0.6769570">
        <ele>926.4</ele>
        <time>2019-05-12T07:37:38Z</time>
      </trkpt>
      <trkpt lat="38.6955770" lon="-0.6769350">
        <ele>925.6</ele>
        <time>2019-05-12T07:37:39Z</time>
      </trkpt>
      <trkpt lat="38.6956210" lon="-0.6769180">
        <ele>924.6</ele>
        <time>2019-05-12T07:37:40Z</time>
      </trkpt>
      <trkpt lat="38.6956590" lon="-0.6768990">
        <ele>923.8</ele>
        <time>2019-05-12T07:37:41Z</time>
      </trkpt>
      <trkpt lat="38.6956970" lon="-0.6768760">
        <ele>922.6</ele>
        <time>2019-05-12T07:37:42Z</time>
      </trkpt>
      <trkpt lat="38.6957660" lon="-0.6768310">
        <ele>921.2</ele>
        <time>2019-05-12T07:37:44Z</time>
      </trkpt>
      <trkpt lat="38.6958420" lon="-0.6767890">
        <ele>920.0</ele>
        <time>2019-05-12T07:37:46Z</time>
      </trkpt>
      <trkpt lat="38.6958770" lon="-0.6767800">
        <ele>919.2</ele>
        <time>2019-05-12T07:37:47Z</time>
      </trkpt>
      <trkpt lat="38.6959040" lon="-0.6767650">
        <ele>918.4</ele>
        <time>2019-05-12T07:37:48Z</time>
      </trkpt>
      <trkpt lat="38.6959830" lon="-0.6767340">
        <ele>917.0</ele>
        <time>2019-05-12T07:37:50Z</time>
      </trkpt>
      <trkpt lat="38.6960450" lon="-0.6767100">
        <ele>915.6</ele>
        <time>2019-05-12T07:37:52Z</time>
      </trkpt>
      <trkpt lat="38.6961260" lon="-0.6766720">
        <ele>914.2</ele>
        <time>2019-05-12T07:37:54Z</time>
      </trkpt>
      <trkpt lat="38.6961650" lon="-0.6766590">
        <ele>912.4</ele>
        <time>2019-05-12T07:37:55Z</time>
      </trkpt>
      <trkpt lat="38.6961960" lon="-0.6766700">
        <ele>911.6</ele>
        <time>2019-05-12T07:37:56Z</time>
      </trkpt>
      <trkpt lat="38.6962310" lon="-0.6766670">
        <ele>911.0</ele>
        <time>2019-05-12T07:37:57Z</time>
      </trkpt>
      <trkpt lat="38.6962640" lon="-0.6766550">
        <ele>910.0</ele>
        <time>2019-05-12T07:37:58Z</time>
      </trkpt>
      <trkpt lat="38.6962800" lon="-0.6766370">
        <ele>909.6</ele>
        <time>2019-05-12T07:37:59Z</time>
      </trkpt>
      <trkpt lat="38.6963090" lon="-0.6766100">
        <ele>909.0</ele>
        <time>2019-05-12T07:38:01Z</time>
      </trkpt>
      <trkpt lat="38.6963690" lon="-0.6766030">
        <ele>908.4</ele>
        <time>2019-05-12T07:38:03Z</time>
      </trkpt>
      <trkpt lat="38.6964290" lon="-0.6765640">
        <ele>906.8</ele>
        <time>2019-05-12T07:38:05Z</time>
      </trkpt>
      <trkpt lat="38.6965230" lon="-0.6765330">
        <ele>904.8</ele>
        <time>2019-05-12T07:38:07Z</time>
      </trkpt>
      <trkpt lat="38.6965730" lon="-0.6765290">
        <ele>903.6</ele>
        <time>2019-05-12T07:38:08Z</time>
      </trkpt>
      <trkpt lat="38.6966220" lon="-0.6765160">
        <ele>902.4</ele>
        <time>2019-05-12T07:38:09Z</time>
      </trkpt>
      <trkpt lat="38.6966740" lon="-0.6764950">
        <ele>901.2</ele>
        <time>2019-05-12T07:38:10Z</time>
      </trkpt>
      <trkpt lat="38.6967270" lon="-0.6764750">
        <ele>900.0</ele>
        <time>2019-05-12T07:38:11Z</time>
      </trkpt>
      <trkpt lat="38.6967820" lon="-0.6764460">
        <ele>899.0</ele>
        <time>2019-05-12T07:38:12Z</time>
      </trkpt>
      <trkpt lat="38.6968340" lon="-0.6764110">
        <ele>897.8</ele>
        <time>2019-05-12T07:38:13Z</time>
      </trkpt>
      <trkpt lat="38.6968830" lon="-0.6763760">
        <ele>896.8</ele>
        <time>2019-05-12T07:38:14Z</time>
      </trkpt>
      <trkpt lat="38.6969730" lon="-0.6762890">
        <ele>894.8</ele>
        <time>2019-05-12T07:38:16Z</time>
      </trkpt>
      <trkpt lat="38.6970790" lon="-0.6761910">
        <ele>893.0</ele>
        <time>2019-05-12T07:38:18Z</time>
      </trkpt>
      <trkpt lat="38.6971440" lon="-0.6761640">
        <ele>891.6</ele>
        <time>2019-05-12T07:38:19Z</time>
      </trkpt>
      <trkpt lat="38.6972500" lon="-0.6761210">
        <ele>890.0</ele>
        <time>2019-05-12T07:38:21Z</time>
      </trkpt>
      <trkpt lat="38.6973300" lon="-0.6760310">
        <ele>888.8</ele>
        <time>2019-05-12T07:38:23Z</time>
      </trkpt>
      <trkpt lat="38.6973720" lon="-0.6759700">
        <ele>888.2</ele>
        <time>2019-05-12T07:38:24Z</time>
      </trkpt>
      <trkpt lat="38.6974130" lon="-0.6759170">
        <ele>887.2</ele>
        <time>2019-05-12T07:38:25Z</time>
      </trkpt>
      <trkpt lat="38.6974830" lon="-0.6757970">
        <ele>885.4</ele>
        <time>2019-05-12T07:38:27Z</time>
      </trkpt>
      <trkpt lat="38.6975130" lon="-0.6757150">
        <ele>884.4</ele>
        <time>2019-05-12T07:38:28Z</time>
      </trkpt>
      <trkpt lat="38.6975780" lon="-0.6755340">
        <ele>882.4</ele>
        <time>2019-05-12T07:38:30Z</time>
      </trkpt>
      <trkpt lat="38.6976290" lon="-0.6753800">
        <ele>880.6</ele>
        <time>2019-05-12T07:38:32Z</time>
      </trkpt>
      <trkpt lat="38.6976740" lon="-0.6752190">
        <ele>879.0</ele>
        <time>2019-05-12T07:38:34Z</time>
      </trkpt>
      <trkpt lat="38.6977100" lon="-0.6751420">
        <ele>878.0</ele>
        <time>2019-05-12T07:38:35Z</time>
      </trkpt>
      <trkpt lat="38.6977460" lon="-0.6750620">
        <ele>877.2</ele>
        <time>2019-05-12T07:38:36Z</time>
      </trkpt>
      <trkpt lat="38.6977750" lon="-0.6749810">
        <ele>876.0</ele>
        <time>2019-05-12T07:38:37Z</time>
      </trkpt>
      <trkpt lat="38.6977960" lon="-0.6749040">
        <ele>875.0</ele>
        <time>2019-05-12T07:38:38Z</time>
      </trkpt>
      <trkpt lat="38.6978430" lon="-0.6748330">
        <ele>873.8</ele>
        <time>2019-05-12T07:38:39Z</time>
      </trkpt>
      <trkpt lat="38.6979060" lon="-0.6747690">
        <ele>872.8</ele>
        <time>2019-05-12T07:38:40Z</time>
      </trkpt>
      <trkpt lat="38.6979860" lon="-0.6747210">
        <ele>871.6</ele>
        <time>2019-05-12T07:38:41Z</time>
      </trkpt>
      <trkpt lat="38.6981280" lon="-0.6745900">
        <ele>869.4</ele>
        <time>2019-05-12T07:38:43Z</time>
      </trkpt>
      <trkpt lat="38.6981990" lon="-0.6745310">
        <ele>867.4</ele>
        <time>2019-05-12T07:38:44Z</time>
      </trkpt>
      <trkpt lat="38.6983420" lon="-0.6744620">
        <ele>866.0</ele>
        <time>2019-05-12T07:38:46Z</time>
      </trkpt>
      <trkpt lat="38.6984140" lon="-0.6744420">
        <ele>865.0</ele>
        <time>2019-05-12T07:38:47Z</time>
      </trkpt>
      <trkpt lat="38.6985530" lon="-0.6743400">
        <ele>863.0</ele>
        <time>2019-05-12T07:38:49Z</time>
      </trkpt>
      <trkpt lat="38.6986050" lon="-0.6742550">
        <ele>861.8</ele>
        <time>2019-05-12T07:38:50Z</time>
      </trkpt>
      <trkpt lat="38.6986710" lon="-0.6741830">
        <ele>860.2</ele>
        <time>2019-05-12T07:38:51Z</time>
      </trkpt>
      <trkpt lat="38.6987400" lon="-0.6741230">
        <ele>859.2</ele>
        <time>2019-05-12T07:38:52Z</time>
      </trkpt>
      <trkpt lat="38.6988150" lon="-0.6740720">
        <ele>857.8</ele>
        <time>2019-05-12T07:38:53Z</time>
      </trkpt>
      <trkpt lat="38.6988910" lon="-0.6740410">
        <ele>856.6</ele>
        <time>2019-05-12T07:38:54Z</time>
      </trkpt>
      <trkpt lat="38.6989650" lon="-0.6740110">
        <ele>855.0</ele>
        <time>2019-05-12T07:38:55Z</time>
      </trkpt>
      <trkpt lat="38.6990340" lon="-0.6739830">
        <ele>853.8</ele>
        <time>2019-05-12T07:38:56Z</time>
      </trkpt>
      <trkpt lat="38.6991320" lon="-0.6739370">
        <ele>852.2</ele>
        <time>2019-05-12T07:38:58Z</time>
      </trkpt>
      <trkpt lat="38.6991660" lon="-0.6739120">
        <ele>852.0</ele>
        <time>2019-05-12T07:38:59Z</time>
      </trkpt>
      <trkpt lat="38.6991970" lon="-0.6738940">
        <ele>852.0</ele>
        <time>2019-05-12T07:39:01Z</time>
      </trkpt>
      <trkpt lat="38.6992020" lon="-0.6738760">
        <ele>852.0</ele>
        <time>2019-05-12T07:39:02Z</time>
      </trkpt>
      <trkpt lat="38.6992110" lon="-0.6737890">
        <ele>852.4</ele>
        <time>2019-05-12T07:39:07Z</time>
      </trkpt>
      <trkpt lat="38.6992900" lon="-0.6736290">
        <ele>852.4</ele>
        <time>2019-05-12T07:39:12Z</time>
      </trkpt>
      <trkpt lat="38.6993150" lon="-0.6736020">
        <ele>852.6</ele>
        <time>2019-05-12T07:39:13Z</time>
      </trkpt>
      <trkpt lat="38.6993970" lon="-0.6735300">
        <ele>852.8</ele>
        <time>2019-05-12T07:39:17Z</time>
      </trkpt>
      <trkpt lat="38.6994700" lon="-0.6734570">
        <ele>853.4</ele>
        <time>2019-05-12T07:39:21Z</time>
      </trkpt>
      <trkpt lat="38.6994910" lon="-0.6734300">
        <ele>853.8</ele>
        <time>2019-05-12T07:39:22Z</time>
      </trkpt>
      <trkpt lat="38.6995320" lon="-0.6733850">
        <ele>854.6</ele>
        <time>2019-05-12T07:39:24Z</time>
      </trkpt>
      <trkpt lat="38.6995840" lon="-0.6733070">
        <ele>856.0</ele>
        <time>2019-05-12T07:39:27Z</time>
      </trkpt>
      <trkpt lat="38.6996020" lon="-0.6732800">
        <ele>856.2</ele>
        <time>2019-05-12T07:39:28Z</time>
      </trkpt>
      <trkpt lat="38.6996250" lon="-0.6732240">
        <ele>857.0</ele>
        <time>2019-05-12T07:39:30Z</time>
      </trkpt>
      <trkpt lat="38.6996300" lon="-0.6731920">
        <ele>857.4</ele>
        <time>2019-05-12T07:39:31Z</time>
      </trkpt>
      <trkpt lat="38.6996500" lon="-0.6731280">
        <ele>857.4</ele>
        <time>2019-05-12T07:39:33Z</time>
      </trkpt>
      <trkpt lat="38.6996730" lon="-0.6730680">
        <ele>858.4</ele>
        <time>2019-05-12T07:39:35Z</time>
      </trkpt>
      <trkpt lat="38.6997040" lon="-0.6729690">
        <ele>858.6</ele>
        <time>2019-05-12T07:39:38Z</time>
      </trkpt>
      <trkpt lat="38.6997360" lon="-0.6728340">
        <ele>859.6</ele>
        <time>2019-05-12T07:39:43Z</time>
      </trkpt>
      <trkpt lat="38.6997950" lon="-0.6727470">
        <ele>860.6</ele>
        <time>2019-05-12T07:39:48Z</time>
      </trkpt>
      <trkpt lat="38.6998150" lon="-0.6727290">
        <ele>860.8</ele>
        <time>2019-05-12T07:39:49Z</time>
      </trkpt>
      <trkpt lat="38.6998840" lon="-0.6726440">
        <ele>861.4</ele>
        <time>2019-05-12T07:39:53Z</time>
      </trkpt>
      <trkpt lat="38.6999440" lon="-0.6725670">
        <ele>861.8</ele>
        <time>2019-05-12T07:39:56Z</time>
      </trkpt>
      <trkpt lat="38.6999740" lon="-0.6725110">
        <ele>862.2</ele>
        <time>2019-05-12T07:39:58Z</time>
      </trkpt>
      <trkpt lat="38.7000350" lon="-0.6724030">
        <ele>862.8</ele>
        <time>2019-05-12T07:40:03Z</time>
      </trkpt>
      <trkpt lat="38.7001140" lon="-0.6723020">
        <ele>863.4</ele>
        <time>2019-05-12T07:40:07Z</time>
      </trkpt>
      <trkpt lat="38.7001290" lon="-0.6722750">
        <ele>863.6</ele>
        <time>2019-05-12T07:40:08Z</time>
      </trkpt>
      <trkpt lat="38.7001950" lon="-0.6721540">
        <ele>864.0</ele>
        <time>2019-05-12T07:40:12Z</time>
      </trkpt>
      <trkpt lat="38.7002140" lon="-0.6721080">
        <ele>865.0</ele>
        <time>2019-05-12T07:40:14Z</time>
      </trkpt>
      <trkpt lat="38.7002350" lon="-0.6720870">
        <ele>865.4</ele>
        <time>2019-05-12T07:40:15Z</time>
      </trkpt>
      <trkpt lat="38.7002900" lon="-0.6720060">
        <ele>865.8</ele>
        <time>2019-05-12T07:40:18Z</time>
      </trkpt>
      <trkpt lat="38.7003140" lon="-0.6719830">
        <ele>866.0</ele>
        <time>2019-05-12T07:40:19Z</time>
      </trkpt>
      <trkpt lat="38.7004090" lon="-0.6718690">
        <ele>866.2</ele>
        <time>2019-05-12T07:40:24Z</time>
      </trkpt>
      <trkpt lat="38.7004310" lon="-0.6718500">
        <ele>866.4</ele>
        <time>2019-05-12T07:40:25Z</time>
      </trkpt>
      <trkpt lat="38.7005340" lon="-0.6717830">
        <ele>867.6</ele>
        <time>2019-05-12T07:40:30Z</time>
      </trkpt>
      <trkpt lat="38.7005940" lon="-0.6717370">
        <ele>868.8</ele>
        <time>2019-05-12T07:40:35Z</time>
      </trkpt>
      <trkpt lat="38.7006100" lon="-0.6717200">
        <ele>868.8</ele>
        <time>2019-05-12T07:40:36Z</time>
      </trkpt>
      <trkpt lat="38.7006700" lon="-0.6716080">
        <ele>868.6</ele>
        <time>2019-05-12T07:40:41Z</time>
      </trkpt>
      <trkpt lat="38.7006960" lon="-0.6714570">
        <ele>867.8</ele>
        <time>2019-05-12T07:40:45Z</time>
      </trkpt>
      <trkpt lat="38.7007070" lon="-0.6714040">
        <ele>867.6</ele>
        <time>2019-05-12T07:40:46Z</time>
      </trkpt>
      <trkpt lat="38.7007230" lon="-0.6713530">
        <ele>867.2</ele>
        <time>2019-05-12T07:40:47Z</time>
      </trkpt>
      <trkpt lat="38.7007750" lon="-0.6712410">
        <ele>866.0</ele>
        <time>2019-05-12T07:40:49Z</time>
      </trkpt>
      <trkpt lat="38.7008270" lon="-0.6711220">
        <ele>864.4</ele>
        <time>2019-05-12T07:40:51Z</time>
      </trkpt>
      <trkpt lat="38.7008500" lon="-0.6710600">
        <ele>864.0</ele>
        <time>2019-05-12T07:40:53Z</time>
      </trkpt>
      <trkpt lat="38.7008770" lon="-0.6709430">
        <ele>863.2</ele>
        <time>2019-05-12T07:40:56Z</time>
      </trkpt>
      <trkpt lat="38.7008900" lon="-0.6708930">
        <ele>863.0</ele>
        <time>2019-05-12T07:40:57Z</time>
      </trkpt>
      <trkpt lat="38.7009550" lon="-0.6707780">
        <ele>862.0</ele>
        <time>2019-05-12T07:41:00Z</time>
      </trkpt>
      <trkpt lat="38.7009730" lon="-0.6707660">
        <ele>862.0</ele>
        <time>2019-05-12T07:41:01Z</time>
      </trkpt>
      <trkpt lat="38.7010030" lon="-0.6706430">
        <ele>861.4</ele>
        <time>2019-05-12T07:41:04Z</time>
      </trkpt>
      <trkpt lat="38.7010310" lon="-0.6705990">
        <ele>861.0</ele>
        <time>2019-05-12T07:41:05Z</time>
      </trkpt>
      <trkpt lat="38.7010620" lon="-0.6705050">
        <ele>860.2</ele>
        <time>2019-05-12T07:41:07Z</time>
      </trkpt>
      <trkpt lat="38.7010700" lon="-0.6704480">
        <ele>859.8</ele>
        <time>2019-05-12T07:41:08Z</time>
      </trkpt>
      <trkpt lat="38.7011310" lon="-0.6703280">
        <ele>858.8</ele>
        <time>2019-05-12T07:41:11Z</time>
      </trkpt>
      <trkpt lat="38.7011810" lon="-0.6702340">
        <ele>857.8</ele>
        <time>2019-05-12T07:41:13Z</time>
      </trkpt>
      <trkpt lat="38.7012100" lon="-0.6701840">
        <ele>856.4</ele>
        <time>2019-05-12T07:41:14Z</time>
      </trkpt>
      <trkpt lat="38.7012310" lon="-0.6701340">
        <ele>856.0</ele>
        <time>2019-05-12T07:41:15Z</time>
      </trkpt>
      <trkpt lat="38.7012540" lon="-0.6701000">
        <ele>855.6</ele>
        <time>2019-05-12T07:41:16Z</time>
      </trkpt>
      <trkpt lat="38.7012710" lon="-0.6700380">
        <ele>855.2</ele>
        <time>2019-05-12T07:41:18Z</time>
      </trkpt>
      <trkpt lat="38.7013000" lon="-0.6700240">
        <ele>854.8</ele>
        <time>2019-05-12T07:41:19Z</time>
      </trkpt>
      <trkpt lat="38.7013520" lon="-0.6699490">
        <ele>853.6</ele>
        <time>2019-05-12T07:41:21Z</time>
      </trkpt>
      <trkpt lat="38.7013740" lon="-0.6698620">
        <ele>852.4</ele>
        <time>2019-05-12T07:41:23Z</time>
      </trkpt>
      <trkpt lat="38.7014800" lon="-0.6696880">
        <ele>851.2</ele>
        <time>2019-05-12T07:41:27Z</time>
      </trkpt>
      <trkpt lat="38.7015110" lon="-0.6696470">
        <ele>851.0</ele>
        <time>2019-05-12T07:41:28Z</time>
      </trkpt>
      <trkpt lat="38.7015190" lon="-0.6696010">
        <ele>850.8</ele>
        <time>2019-05-12T07:41:29Z</time>
      </trkpt>
      <trkpt lat="38.7015490" lon="-0.6695590">
        <ele>851.0</ele>
        <time>2019-05-12T07:41:30Z</time>
      </trkpt>
      <trkpt lat="38.7016040" lon="-0.6694120">
        <ele>851.0</ele>
        <time>2019-05-12T07:41:33Z</time>
      </trkpt>
      <trkpt lat="38.7016300" lon="-0.6693760">
        <ele>850.8</ele>
        <time>2019-05-12T07:41:34Z</time>
      </trkpt>
      <trkpt lat="38.7016610" lon="-0.6692660">
        <ele>849.8</ele>
        <time>2019-05-12T07:41:36Z</time>
      </trkpt>
      <trkpt lat="38.7016840" lon="-0.6692190">
        <ele>849.2</ele>
        <time>2019-05-12T07:41:37Z</time>
      </trkpt>
      <trkpt lat="38.7017020" lon="-0.6691820">
        <ele>848.4</ele>
        <time>2019-05-12T07:41:38Z</time>
      </trkpt>
      <trkpt lat="38.7017540" lon="-0.6690740">
        <ele>847.2</ele>
        <time>2019-05-12T07:41:41Z</time>
      </trkpt>
      <trkpt lat="38.7017740" lon="-0.6690210">
        <ele>845.8</ele>
        <time>2019-05-12T07:41:43Z</time>
      </trkpt>
      <trkpt lat="38.7017950" lon="-0.6689710">
        <ele>844.6</ele>
        <time>2019-05-12T07:41:45Z</time>
      </trkpt>
      <trkpt lat="38.7018140" lon="-0.6689290">
        <ele>843.6</ele>
        <time>2019-05-12T07:41:47Z</time>
      </trkpt>
      <trkpt lat="38.7018100" lon="-0.6689110">
        <ele>843.2</ele>
        <time>2019-05-12T07:41:48Z</time>
      </trkpt>
      <trkpt lat="38.7018120" lon="-0.6688840">
        <ele>842.6</ele>
        <time>2019-05-12T07:41:49Z</time>
      </trkpt>
      <trkpt lat="38.7018200" lon="-0.6688570">
        <ele>842.2</ele>
        <time>2019-05-12T07:41:50Z</time>
      </trkpt>
      <trkpt lat="38.7018180" lon="-0.6688210">
        <ele>840.8</ele>
        <time>2019-05-12T07:41:52Z</time>
      </trkpt>
      <trkpt lat="38.7018170" lon="-0.6687990">
        <ele>840.0</ele>
        <time>2019-05-12T07:41:53Z</time>
      </trkpt>
      <trkpt lat="38.7018270" lon="-0.6687540">
        <ele>839.6</ele>
        <time>2019-05-12T07:41:55Z</time>
      </trkpt>
      <trkpt lat="38.7018590" lon="-0.6686840">
        <ele>838.4</ele>
        <time>2019-05-12T07:41:58Z</time>
      </trkpt>
      <trkpt lat="38.7018800" lon="-0.6686400">
        <ele>837.0</ele>
        <time>2019-05-12T07:42:00Z</time>
      </trkpt>
      <trkpt lat="38.7018980" lon="-0.6685890">
        <ele>835.6</ele>
        <time>2019-05-12T07:42:02Z</time>
      </trkpt>
      <trkpt lat="38.7019100" lon="-0.6685630">
        <ele>834.4</ele>
        <time>2019-05-12T07:42:03Z</time>
      </trkpt>
      <trkpt lat="38.7019040" lon="-0.6685300">
        <ele>834.0</ele>
        <time>2019-05-12T07:42:04Z</time>
      </trkpt>
      <trkpt lat="38.7019110" lon="-0.6684820">
        <ele>833.2</ele>
        <time>2019-05-12T07:42:05Z</time>
      </trkpt>
      <trkpt lat="38.7018950" lon="-0.6684040">
        <ele>831.6</ele>
        <time>2019-05-12T07:42:07Z</time>
      </trkpt>
      <trkpt lat="38.7018950" lon="-0.6683030">
        <ele>830.6</ele>
        <time>2019-05-12T07:42:09Z</time>
      </trkpt>
      <trkpt lat="38.7018880" lon="-0.6682230">
        <ele>829.6</ele>
        <time>2019-05-12T07:42:11Z</time>
      </trkpt>
      <trkpt lat="38.7018720" lon="-0.6681760">
        <ele>829.0</ele>
        <time>2019-05-12T07:42:12Z</time>
      </trkpt>
      <trkpt lat="38.7018460" lon="-0.6680890">
        <ele>827.6</ele>
        <time>2019-05-12T07:42:14Z</time>
      </trkpt>
      <trkpt lat="38.7018500" lon="-0.6680460">
        <ele>827.6</ele>
        <time>2019-05-12T07:42:15Z</time>
      </trkpt>
      <trkpt lat="38.7018780" lon="-0.6679520">
        <ele>826.0</ele>
        <time>2019-05-12T07:42:17Z</time>
      </trkpt>
      <trkpt lat="38.7018930" lon="-0.6678450">
        <ele>824.4</ele>
        <time>2019-05-12T07:42:19Z</time>
      </trkpt>
      <trkpt lat="38.7019060" lon="-0.6677270">
        <ele>822.6</ele>
        <time>2019-05-12T07:42:21Z</time>
      </trkpt>
      <trkpt lat="38.7019410" lon="-0.6676220">
        <ele>820.4</ele>
        <time>2019-05-12T07:42:23Z</time>
      </trkpt>
      <trkpt lat="38.7019640" lon="-0.6675550">
        <ele>819.4</ele>
        <time>2019-05-12T07:42:24Z</time>
      </trkpt>
      <trkpt lat="38.7019930" lon="-0.6674930">
        <ele>818.6</ele>
        <time>2019-05-12T07:42:25Z</time>
      </trkpt>
      <trkpt lat="38.7020530" lon="-0.6673780">
        <ele>817.8</ele>
        <time>2019-05-12T07:42:27Z</time>
      </trkpt>
      <trkpt lat="38.7021150" lon="-0.6673500">
        <ele>816.6</ele>
        <time>2019-05-12T07:42:28Z</time>
      </trkpt>
      <trkpt lat="38.7022250" lon="-0.6672640">
        <ele>815.4</ele>
        <time>2019-05-12T07:42:30Z</time>
      </trkpt>
      <trkpt lat="38.7023420" lon="-0.6671110">
        <ele>814.8</ele>
        <time>2019-05-12T07:42:33Z</time>
      </trkpt>
      <trkpt lat="38.7023660" lon="-0.6670650">
        <ele>814.8</ele>
        <time>2019-05-12T07:42:34Z</time>
      </trkpt>
      <trkpt lat="38.7023950" lon="-0.6670550">
        <ele>814.8</ele>
        <time>2019-05-12T07:42:35Z</time>
      </trkpt>
      <trkpt lat="38.7024330" lon="-0.6670260">
        <ele>814.8</ele>
        <time>2019-05-12T07:42:36Z</time>
      </trkpt>
      <trkpt lat="38.7024530" lon="-0.6669940">
        <ele>814.2</ele>
        <time>2019-05-12T07:42:37Z</time>
      </trkpt>
      <trkpt lat="38.7024740" lon="-0.6669630">
        <ele>813.8</ele>
        <time>2019-05-12T07:42:39Z</time>
      </trkpt>
      <trkpt lat="38.7025240" lon="-0.6669500">
        <ele>814.2</ele>
        <time>2019-05-12T07:43:21Z</time>
      </trkpt>
      <trkpt lat="38.7025470" lon="-0.6669470">
        <ele>814.0</ele>
        <time>2019-05-12T07:43:22Z</time>
      </trkpt>
      <trkpt lat="38.7026750" lon="-0.6669440">
        <ele>814.0</ele>
        <time>2019-05-12T07:43:27Z</time>
      </trkpt>
      <trkpt lat="38.7027990" lon="-0.6669610">
        <ele>815.4</ele>
        <time>2019-05-12T07:43:31Z</time>
      </trkpt>
      <trkpt lat="38.7028240" lon="-0.6669490">
        <ele>815.8</ele>
        <time>2019-05-12T07:43:32Z</time>
      </trkpt>
      <trkpt lat="38.7028610" lon="-0.6669150">
        <ele>816.8</ele>
        <time>2019-05-12T07:43:34Z</time>
      </trkpt>
      <trkpt lat="38.7028760" lon="-0.6668660">
        <ele>817.0</ele>
        <time>2019-05-12T07:43:36Z</time>
      </trkpt>
      <trkpt lat="38.7029390" lon="-0.6667510">
        <ele>817.0</ele>
        <time>2019-05-12T07:43:40Z</time>
      </trkpt>
      <trkpt lat="38.7029480" lon="-0.6666650">
        <ele>817.8</ele>
        <time>2019-05-12T07:43:44Z</time>
      </trkpt>
      <trkpt lat="38.7029460" lon="-0.6666510">
        <ele>818.4</ele>
        <time>2019-05-12T07:43:45Z</time>
      </trkpt>
      <trkpt lat="38.7029420" lon="-0.6666000">
        <ele>819.2</ele>
        <time>2019-05-12T07:43:47Z</time>
      </trkpt>
      <trkpt lat="38.7029590" lon="-0.6665540">
        <ele>819.8</ele>
        <time>2019-05-12T07:43:49Z</time>
      </trkpt>
      <trkpt lat="38.7029880" lon="-0.6664780">
        <ele>820.2</ele>
        <time>2019-05-12T07:43:51Z</time>
      </trkpt>
      <trkpt lat="38.7029930" lon="-0.6664420">
        <ele>820.4</ele>
        <time>2019-05-12T07:43:52Z</time>
      </trkpt>
      <trkpt lat="38.7029980" lon="-0.6664000">
        <ele>820.4</ele>
        <time>2019-05-12T07:43:53Z</time>
      </trkpt>
      <trkpt lat="38.7030100" lon="-0.6662940">
        <ele>820.4</ele>
        <time>2019-05-12T07:43:56Z</time>
      </trkpt>
      <trkpt lat="38.7030230" lon="-0.6662600">
        <ele>820.2</ele>
        <time>2019-05-12T07:43:57Z</time>
      </trkpt>
      <trkpt lat="38.7030780" lon="-0.6662190">
        <ele>820.4</ele>
        <time>2019-05-12T07:43:59Z</time>
      </trkpt>
      <trkpt lat="38.7031240" lon="-0.6661560">
        <ele>820.2</ele>
        <time>2019-05-12T07:44:01Z</time>
      </trkpt>
      <trkpt lat="38.7031720" lon="-0.6661110">
        <ele>820.2</ele>
        <time>2019-05-12T07:44:03Z</time>
      </trkpt>
      <trkpt lat="38.7032620" lon="-0.6659560">
        <ele>820.0</ele>
        <time>2019-05-12T07:44:07Z</time>
      </trkpt>
      <trkpt lat="38.7033400" lon="-0.6658600">
        <ele>821.6</ele>
        <time>2019-05-12T07:44:11Z</time>
      </trkpt>
      <trkpt lat="38.7033660" lon="-0.6657970">
        <ele>822.6</ele>
        <time>2019-05-12T07:44:15Z</time>
      </trkpt>
      <trkpt lat="38.7034260" lon="-0.6657710">
        <ele>823.8</ele>
        <time>2019-05-12T07:44:19Z</time>
      </trkpt>
      <trkpt lat="38.7034400" lon="-0.6657670">
        <ele>823.6</ele>
        <time>2019-05-12T07:44:20Z</time>
      </trkpt>
      <trkpt lat="38.7035260" lon="-0.6657120">
        <ele>823.4</ele>
        <time>2019-05-12T07:44:24Z</time>
      </trkpt>
      <trkpt lat="38.7035610" lon="-0.6657020">
        <ele>824.0</ele>
        <time>2019-05-12T07:44:26Z</time>
      </trkpt>
      <trkpt lat="38.7036490" lon="-0.6656660">
        <ele>826.4</ele>
        <time>2019-05-12T07:44:36Z</time>
      </trkpt>
      <trkpt lat="38.7036760" lon="-0.6656320">
        <ele>826.4</ele>
        <time>2019-05-12T07:44:38Z</time>
      </trkpt>
      <trkpt lat="38.7037830" lon="-0.6655760">
        <ele>825.8</ele>
        <time>2019-05-12T07:44:44Z</time>
      </trkpt>
      <trkpt lat="38.7038110" lon="-0.6655780">
        <ele>825.2</ele>
        <time>2019-05-12T07:44:46Z</time>
      </trkpt>
      <trkpt lat="38.7038220" lon="-0.6655880">
        <ele>824.8</ele>
        <time>2019-05-12T07:44:47Z</time>
      </trkpt>
      <trkpt lat="38.7038450" lon="-0.6655930">
        <ele>823.6</ele>
        <time>2019-05-12T07:44:49Z</time>
      </trkpt>
      <trkpt lat="38.7038740" lon="-0.6655810">
        <ele>822.6</ele>
        <time>2019-05-12T07:44:51Z</time>
      </trkpt>
      <trkpt lat="38.7039140" lon="-0.6656020">
        <ele>821.2</ele>
        <time>2019-05-12T07:44:54Z</time>
      </trkpt>
      <trkpt lat="38.7040530" lon="-0.6656830">
        <ele>814.8</ele>
        <time>2019-05-12T07:45:24Z</time>
      </trkpt>
      <trkpt lat="38.7040630" lon="-0.6656890">
        <ele>814.6</ele>
        <time>2019-05-12T07:45:25Z</time>
      </trkpt>
      <trkpt lat="38.7041000" lon="-0.6656980">
        <ele>813.4</ele>
        <time>2019-05-12T07:45:28Z</time>
      </trkpt>
      <trkpt lat="38.7042470" lon="-0.6657790">
        <ele>809.2</ele>
        <time>2019-05-12T07:46:03Z</time>
      </trkpt>
      <trkpt lat="38.7042940" lon="-0.6657910">
        <ele>808.0</ele>
        <time>2019-05-12T07:46:05Z</time>
      </trkpt>
      <trkpt lat="38.7043290" lon="-0.6658160">
        <ele>807.0</ele>
        <time>2019-05-12T07:46:07Z</time>
      </trkpt>
      <trkpt lat="38.7043360" lon="-0.6658310">
        <ele>806.4</ele>
        <time>2019-05-12T07:46:08Z</time>
      </trkpt>
      <trkpt lat="38.7043580" lon="-0.6658450">
        <ele>805.6</ele>
        <time>2019-05-12T07:46:09Z</time>
      </trkpt>
      <trkpt lat="38.7044180" lon="-0.6658250">
        <ele>804.4</ele>
        <time>2019-05-12T07:46:11Z</time>
      </trkpt>
      <trkpt lat="38.7044670" lon="-0.6658400">
        <ele>803.2</ele>
        <time>2019-05-12T07:46:13Z</time>
      </trkpt>
      <trkpt lat="38.7044850" lon="-0.6658660">
        <ele>802.8</ele>
        <time>2019-05-12T07:46:14Z</time>
      </trkpt>
      <trkpt lat="38.7045060" lon="-0.6658800">
        <ele>801.8</ele>
        <time>2019-05-12T07:46:15Z</time>
      </trkpt>
      <trkpt lat="38.7046110" lon="-0.6658890">
        <ele>800.4</ele>
        <time>2019-05-12T07:46:18Z</time>
      </trkpt>
      <trkpt lat="38.7046430" lon="-0.6659060">
        <ele>800.2</ele>
        <time>2019-05-12T07:46:19Z</time>
      </trkpt>
      <trkpt lat="38.7046750" lon="-0.6659680">
        <ele>799.4</ele>
        <time>2019-05-12T07:46:21Z</time>
      </trkpt>
      <trkpt lat="38.7046620" lon="-0.6659940">
        <ele>799.0</ele>
        <time>2019-05-12T07:46:22Z</time>
      </trkpt>
      <trkpt lat="38.7046230" lon="-0.6660340">
        <ele>798.2</ele>
        <time>2019-05-12T07:46:24Z</time>
      </trkpt>
      <trkpt lat="38.7045350" lon="-0.6660880">
        <ele>796.8</ele>
        <time>2019-05-12T07:46:27Z</time>
      </trkpt>
      <trkpt lat="38.7045170" lon="-0.6661190">
        <ele>795.8</ele>
        <time>2019-05-12T07:46:29Z</time>
      </trkpt>
      <trkpt lat="38.7045020" lon="-0.6661520">
        <ele>795.4</ele>
        <time>2019-05-12T07:46:30Z</time>
      </trkpt>
      <trkpt lat="38.7044570" lon="-0.6662270">
        <ele>793.8</ele>
        <time>2019-05-12T07:46:33Z</time>
      </trkpt>
      <trkpt lat="38.7044580" lon="-0.6662800">
        <ele>793.2</ele>
        <time>2019-05-12T07:46:34Z</time>
      </trkpt>
      <trkpt lat="38.7044430" lon="-0.6663190">
        <ele>792.4</ele>
        <time>2019-05-12T07:46:35Z</time>
      </trkpt>
      <trkpt lat="38.7043790" lon="-0.6663380">
        <ele>791.4</ele>
        <time>2019-05-12T07:46:37Z</time>
      </trkpt>
      <trkpt lat="38.7043130" lon="-0.6663930">
        <ele>790.8</ele>
        <time>2019-05-12T07:46:39Z</time>
      </trkpt>
      <trkpt lat="38.7042800" lon="-0.6664190">
        <ele>790.2</ele>
        <time>2019-05-12T07:46:40Z</time>
      </trkpt>
      <trkpt lat="38.7042480" lon="-0.6664210">
        <ele>790.2</ele>
        <time>2019-05-12T07:46:41Z</time>
      </trkpt>
      <trkpt lat="38.7041990" lon="-0.6664640">
        <ele>790.4</ele>
        <time>2019-05-12T07:46:44Z</time>
      </trkpt>
      <trkpt lat="38.7041950" lon="-0.6664870">
        <ele>790.2</ele>
        <time>2019-05-12T07:46:45Z</time>
      </trkpt>
      <trkpt lat="38.7041770" lon="-0.6665680">
        <ele>789.2</ele>
        <time>2019-05-12T07:46:47Z</time>
      </trkpt>
      <trkpt lat="38.7041730" lon="-0.6666190">
        <ele>788.2</ele>
        <time>2019-05-12T07:46:48Z</time>
      </trkpt>
      <trkpt lat="38.7041590" lon="-0.6666430">
        <ele>787.0</ele>
        <time>2019-05-12T07:46:49Z</time>
      </trkpt>
      <trkpt lat="38.7041580" lon="-0.6666420">
        <ele>785.8</ele>
        <time>2019-05-12T07:46:50Z</time>
      </trkpt>
      <trkpt lat="38.7041560" lon="-0.6666400">
        <ele>785.0</ele>
        <time>2019-05-12T07:46:52Z</time>
      </trkpt>
      <trkpt lat="38.7042100" lon="-0.6666420">
        <ele>784.4</ele>
        <time>2019-05-12T07:47:10Z</time>
      </trkpt>
      <trkpt lat="38.7042600" lon="-0.6666590">
        <ele>783.4</ele>
        <time>2019-05-12T07:47:12Z</time>
      </trkpt>
      <trkpt lat="38.7043140" lon="-0.6666860">
        <ele>782.2</ele>
        <time>2019-05-12T07:47:14Z</time>
      </trkpt>
      <trkpt lat="38.7043740" lon="-0.6667320">
        <ele>781.2</ele>
        <time>2019-05-12T07:47:16Z</time>
      </trkpt>
      <trkpt lat="38.7043980" lon="-0.6667530">
        <ele>780.8</ele>
        <time>2019-05-12T07:47:17Z</time>
      </trkpt>
      <trkpt lat="38.7044390" lon="-0.6667850">
        <ele>780.0</ele>
        <time>2019-05-12T07:47:19Z</time>
      </trkpt>
      <trkpt lat="38.7044860" lon="-0.6668330">
        <ele>778.8</ele>
        <time>2019-05-12T07:47:21Z</time>
      </trkpt>
      <trkpt lat="38.7045150" lon="-0.6669320">
        <ele>777.4</ele>
        <time>2019-05-12T07:47:23Z</time>
      </trkpt>
      <trkpt lat="38.7045640" lon="-0.6670380">
        <ele>776.0</ele>
        <time>2019-05-12T07:47:25Z</time>
      </trkpt>
      <trkpt lat="38.7046210" lon="-0.6671230">
        <ele>774.8</ele>
        <time>2019-05-12T07:47:27Z</time>
      </trkpt>
      <trkpt lat="38.7046490" lon="-0.6671960">
        <ele>774.6</ele>
        <time>2019-05-12T07:47:29Z</time>
      </trkpt>
      <trkpt lat="38.7046660" lon="-0.6672760">
        <ele>773.8</ele>
        <time>2019-05-12T07:47:31Z</time>
      </trkpt>
      <trkpt lat="38.7046790" lon="-0.6673700">
        <ele>772.8</ele>
        <time>2019-05-12T07:47:34Z</time>
      </trkpt>
      <trkpt lat="38.7047050" lon="-0.6674400">
        <ele>771.6</ele>
        <time>2019-05-12T07:47:36Z</time>
      </trkpt>
      <trkpt lat="38.7047640" lon="-0.6675190">
        <ele>771.0</ele>
        <time>2019-05-12T07:47:38Z</time>
      </trkpt>
      <trkpt lat="38.7048250" lon="-0.6675790">
        <ele>771.2</ele>
        <time>2019-05-12T07:47:40Z</time>
      </trkpt>
      <trkpt lat="38.7048500" lon="-0.6676070">
        <ele>771.4</ele>
        <time>2019-05-12T07:47:42Z</time>
      </trkpt>
      <trkpt lat="38.7049050" lon="-0.6676950">
        <ele>770.0</ele>
        <time>2019-05-12T07:48:09Z</time>
      </trkpt>
      <trkpt lat="38.7049220" lon="-0.6676950">
        <ele>769.8</ele>
        <time>2019-05-12T07:48:10Z</time>
      </trkpt>
      <trkpt lat="38.7050050" lon="-0.6677600">
        <ele>768.8</ele>
        <time>2019-05-12T07:48:14Z</time>
      </trkpt>
      <trkpt lat="38.7050770" lon="-0.6677890">
        <ele>767.8</ele>
        <time>2019-05-12T07:48:16Z</time>
      </trkpt>
      <trkpt lat="38.7051150" lon="-0.6677890">
        <ele>767.2</ele>
        <time>2019-05-12T07:48:17Z</time>
      </trkpt>
      <trkpt lat="38.7051470" lon="-0.6677780">
        <ele>766.8</ele>
        <time>2019-05-12T07:48:18Z</time>
      </trkpt>
      <trkpt lat="38.7051870" lon="-0.6678100">
        <ele>767.0</ele>
        <time>2019-05-12T07:48:20Z</time>
      </trkpt>
      <trkpt lat="38.7051980" lon="-0.6678030">
        <ele>767.2</ele>
        <time>2019-05-12T07:48:23Z</time>
      </trkpt>
      <trkpt lat="38.7053060" lon="-0.6678180">
        <ele>766.8</ele>
        <time>2019-05-12T07:48:27Z</time>
      </trkpt>
      <trkpt lat="38.7053330" lon="-0.6678590">
        <ele>766.6</ele>
        <time>2019-05-12T07:48:28Z</time>
      </trkpt>
      <trkpt lat="38.7053920" lon="-0.6679140">
        <ele>765.6</ele>
        <time>2019-05-12T07:48:30Z</time>
      </trkpt>
      <trkpt lat="38.7054450" lon="-0.6679240">
        <ele>764.6</ele>
        <time>2019-05-12T07:48:32Z</time>
      </trkpt>
      <trkpt lat="38.7054870" lon="-0.6679160">
        <ele>764.0</ele>
        <time>2019-05-12T07:48:33Z</time>
      </trkpt>
      <trkpt lat="38.7055730" lon="-0.6678780">
        <ele>763.4</ele>
        <time>2019-05-12T07:48:35Z</time>
      </trkpt>
      <trkpt lat="38.7056410" lon="-0.6678280">
        <ele>762.8</ele>
        <time>2019-05-12T07:48:37Z</time>
      </trkpt>
      <trkpt lat="38.7057730" lon="-0.6676720">
        <ele>764.0</ele>
        <time>2019-05-12T07:48:42Z</time>
      </trkpt>
      <trkpt lat="38.7058390" lon="-0.6676130">
        <ele>763.8</ele>
        <time>2019-05-12T07:48:44Z</time>
      </trkpt>
      <trkpt lat="38.7059340" lon="-0.6675260">
        <ele>762.6</ele>
        <time>2019-05-12T07:48:47Z</time>
      </trkpt>
      <trkpt lat="38.7059540" lon="-0.6675040">
        <ele>762.2</ele>
        <time>2019-05-12T07:48:48Z</time>
      </trkpt>
      <trkpt lat="38.7060510" lon="-0.6674110">
        <ele>761.0</ele>
        <time>2019-05-12T07:48:52Z</time>
      </trkpt>
      <trkpt lat="38.7060960" lon="-0.6673590">
        <ele>759.8</ele>
        <time>2019-05-12T07:48:54Z</time>
      </trkpt>
      <trkpt lat="38.7061240" lon="-0.6673260">
        <ele>758.6</ele>
        <time>2019-05-12T07:48:56Z</time>
      </trkpt>
      <trkpt lat="38.7061450" lon="-0.6673050">
        <ele>758.4</ele>
        <time>2019-05-12T07:48:57Z</time>
      </trkpt>
      <trkpt lat="38.7061640" lon="-0.6672810">
        <ele>757.6</ele>
        <time>2019-05-12T07:48:58Z</time>
      </trkpt>
      <trkpt lat="38.7062140" lon="-0.6672370">
        <ele>756.4</ele>
        <time>2019-05-12T07:49:00Z</time>
      </trkpt>
      <trkpt lat="38.7062760" lon="-0.6672020">
        <ele>755.2</ele>
        <time>2019-05-12T07:49:02Z</time>
      </trkpt>
      <trkpt lat="38.7063050" lon="-0.6671970">
        <ele>754.4</ele>
        <time>2019-05-12T07:49:03Z</time>
      </trkpt>
      <trkpt lat="38.7063310" lon="-0.6671960">
        <ele>753.6</ele>
        <time>2019-05-12T07:49:04Z</time>
      </trkpt>
      <trkpt lat="38.7063600" lon="-0.6671740">
        <ele>753.0</ele>
        <time>2019-05-12T07:49:05Z</time>
      </trkpt>
      <trkpt lat="38.7063850" lon="-0.6671560">
        <ele>752.2</ele>
        <time>2019-05-12T07:49:06Z</time>
      </trkpt>
      <trkpt lat="38.7064110" lon="-0.6671280">
        <ele>751.6</ele>
        <time>2019-05-12T07:49:07Z</time>
      </trkpt>
      <trkpt lat="38.7064300" lon="-0.6671090">
        <ele>751.0</ele>
        <time>2019-05-12T07:49:08Z</time>
      </trkpt>
      <trkpt lat="38.7064780" lon="-0.6670760">
        <ele>749.2</ele>
        <time>2019-05-12T07:49:10Z</time>
      </trkpt>
      <trkpt lat="38.7065360" lon="-0.6670410">
        <ele>748.0</ele>
        <time>2019-05-12T07:49:12Z</time>
      </trkpt>
      <trkpt lat="38.7065950" lon="-0.6669810">
        <ele>746.0</ele>
        <time>2019-05-12T07:49:14Z</time>
      </trkpt>
      <trkpt lat="38.7066400" lon="-0.6668970">
        <ele>744.4</ele>
        <time>2019-05-12T07:49:16Z</time>
      </trkpt>
      <trkpt lat="38.7066720" lon="-0.6668480">
        <ele>743.4</ele>
        <time>2019-05-12T07:49:17Z</time>
      </trkpt>
      <trkpt lat="38.7067020" lon="-0.6668050">
        <ele>742.4</ele>
        <time>2019-05-12T07:49:18Z</time>
      </trkpt>
      <trkpt lat="38.7067270" lon="-0.6667560">
        <ele>741.2</ele>
        <time>2019-05-12T07:49:19Z</time>
      </trkpt>
      <trkpt lat="38.7067470" lon="-0.6667130">
        <ele>740.0</ele>
        <time>2019-05-12T07:49:20Z</time>
      </trkpt>
      <trkpt lat="38.7067800" lon="-0.6666790">
        <ele>739.4</ele>
        <time>2019-05-12T07:49:21Z</time>
      </trkpt>
      <trkpt lat="38.7068020" lon="-0.6666290">
        <ele>738.6</ele>
        <time>2019-05-12T07:49:22Z</time>
      </trkpt>
      <trkpt lat="38.7068630" lon="-0.6665310">
        <ele>737.0</ele>
        <time>2019-05-12T07:49:24Z</time>
      </trkpt>
      <trkpt lat="38.7069010" lon="-0.6664890">
        <ele>736.2</ele>
        <time>2019-05-12T07:49:25Z</time>
      </trkpt>
      <trkpt lat="38.7069370" lon="-0.6664370">
        <ele>734.8</ele>
        <time>2019-05-12T07:49:26Z</time>
      </trkpt>
      <trkpt lat="38.7069700" lon="-0.6663960">
        <ele>733.8</ele>
        <time>2019-05-12T07:49:27Z</time>
      </trkpt>
      <trkpt lat="38.7069960" lon="-0.6663540">
        <ele>732.6</ele>
        <time>2019-05-12T07:49:28Z</time>
      </trkpt>
      <trkpt lat="38.7070450" lon="-0.6663060">
        <ele>731.6</ele>
        <time>2019-05-12T07:49:30Z</time>
      </trkpt>
      <trkpt lat="38.7071210" lon="-0.6662600">
        <ele>730.4</ele>
        <time>2019-05-12T07:49:33Z</time>
      </trkpt>
      <trkpt lat="38.7071630" lon="-0.6662410">
        <ele>730.0</ele>
        <time>2019-05-12T07:49:34Z</time>
      </trkpt>
      <trkpt lat="38.7072090" lon="-0.6662160">
        <ele>728.4</ele>
        <time>2019-05-12T07:49:35Z</time>
      </trkpt>
      <trkpt lat="38.7073070" lon="-0.6661540">
        <ele>726.6</ele>
        <time>2019-05-12T07:49:37Z</time>
      </trkpt>
      <trkpt lat="38.7074030" lon="-0.6660830">
        <ele>724.8</ele>
        <time>2019-05-12T07:49:39Z</time>
      </trkpt>
      <trkpt lat="38.7075040" lon="-0.6660110">
        <ele>723.4</ele>
        <time>2019-05-12T07:49:41Z</time>
      </trkpt>
      <trkpt lat="38.7075710" lon="-0.6658820">
        <ele>721.6</ele>
        <time>2019-05-12T07:49:43Z</time>
      </trkpt>
      <trkpt lat="38.7076300" lon="-0.6657940">
        <ele>720.0</ele>
        <time>2019-05-12T07:49:45Z</time>
      </trkpt>
      <trkpt lat="38.7076660" lon="-0.6657760">
        <ele>719.2</ele>
        <time>2019-05-12T07:49:46Z</time>
      </trkpt>
      <trkpt lat="38.7077040" lon="-0.6657740">
        <ele>718.4</ele>
        <time>2019-05-12T07:49:47Z</time>
      </trkpt>
      <trkpt lat="38.7077650" lon="-0.6657670">
        <ele>716.8</ele>
        <time>2019-05-12T07:49:49Z</time>
      </trkpt>
      <trkpt lat="38.7077940" lon="-0.6657670">
        <ele>716.0</ele>
        <time>2019-05-12T07:49:50Z</time>
      </trkpt>
      <trkpt lat="38.7078270" lon="-0.6657680">
        <ele>715.2</ele>
        <time>2019-05-12T07:49:51Z</time>
      </trkpt>
      <trkpt lat="38.7078640" lon="-0.6657470">
        <ele>714.0</ele>
        <time>2019-05-12T07:49:53Z</time>
      </trkpt>
      <trkpt lat="38.7078850" lon="-0.6657230">
        <ele>713.6</ele>
        <time>2019-05-12T07:49:54Z</time>
      </trkpt>
      <trkpt lat="38.7079240" lon="-0.6657110">
        <ele>713.2</ele>
        <time>2019-05-12T07:49:55Z</time>
      </trkpt>
      <trkpt lat="38.7079630" lon="-0.6657130">
        <ele>712.4</ele>
        <time>2019-05-12T07:49:56Z</time>
      </trkpt>
      <trkpt lat="38.7080050" lon="-0.6657080">
        <ele>711.2</ele>
        <time>2019-05-12T07:49:57Z</time>
      </trkpt>
      <trkpt lat="38.7080520" lon="-0.6656850">
        <ele>710.0</ele>
        <time>2019-05-12T07:49:58Z</time>
      </trkpt>
      <trkpt lat="38.7081050" lon="-0.6656650">
        <ele>709.0</ele>
        <time>2019-05-12T07:49:59Z</time>
      </trkpt>
      <trkpt lat="38.7081650" lon="-0.6656440">
        <ele>706.8</ele>
        <time>2019-05-12T07:50:00Z</time>
      </trkpt>
      <trkpt lat="38.7082300" lon="-0.6656380">
        <ele>705.6</ele>
        <time>2019-05-12T07:50:01Z</time>
      </trkpt>
      <trkpt lat="38.7082950" lon="-0.6656190">
        <ele>703.8</ele>
        <time>2019-05-12T07:50:02Z</time>
      </trkpt>
      <trkpt lat="38.7083540" lon="-0.6656030">
        <ele>702.2</ele>
        <time>2019-05-12T07:50:03Z</time>
      </trkpt>
      <trkpt lat="38.7084100" lon="-0.6655910">
        <ele>701.0</ele>
        <time>2019-05-12T07:50:04Z</time>
      </trkpt>
      <trkpt lat="38.7085010" lon="-0.6655570">
        <ele>699.2</ele>
        <time>2019-05-12T07:50:06Z</time>
      </trkpt>
      <trkpt lat="38.7085130" lon="-0.6654690">
        <ele>698.0</ele>
        <time>2019-05-12T07:50:08Z</time>
      </trkpt>
      <trkpt lat="38.7084370" lon="-0.6653530">
        <ele>697.2</ele>
        <time>2019-05-12T07:50:11Z</time>
      </trkpt>
      <trkpt lat="38.7083950" lon="-0.6653140">
        <ele>697.0</ele>
        <time>2019-05-12T07:50:12Z</time>
      </trkpt>
      <trkpt lat="38.7083640" lon="-0.6652670">
        <ele>697.0</ele>
        <time>2019-05-12T07:50:13Z</time>
      </trkpt>
      <trkpt lat="38.7082800" lon="-0.6652360">
        <ele>697.2</ele>
        <time>2019-05-12T07:50:15Z</time>
      </trkpt>
      <trkpt lat="38.7081090" lon="-0.6652100">
        <ele>697.8</ele>
        <time>2019-05-12T07:50:19Z</time>
      </trkpt>
      <trkpt lat="38.7080610" lon="-0.6652500">
        <ele>698.6</ele>
        <time>2019-05-12T07:50:21Z</time>
      </trkpt>
      <trkpt lat="38.7080420" lon="-0.6652330">
        <ele>699.0</ele>
        <time>2019-05-12T07:50:22Z</time>
      </trkpt>
      <trkpt lat="38.7078800" lon="-0.6651930">
        <ele>698.2</ele>
        <time>2019-05-12T07:50:28Z</time>
      </trkpt>
      <trkpt lat="38.7078540" lon="-0.6651970">
        <ele>697.6</ele>
        <time>2019-05-12T07:50:29Z</time>
      </trkpt>
      <trkpt lat="38.7078280" lon="-0.6651990">
        <ele>697.6</ele>
        <time>2019-05-12T07:50:31Z</time>
      </trkpt>
      <trkpt lat="38.7077710" lon="-0.6652080">
        <ele>697.6</ele>
        <time>2019-05-12T07:50:39Z</time>
      </trkpt>
      <trkpt lat="38.7077030" lon="-0.6652150">
        <ele>697.8</ele>
        <time>2019-05-12T07:50:42Z</time>
      </trkpt>
      <trkpt lat="38.7076380" lon="-0.6652100">
        <ele>697.6</ele>
        <time>2019-05-12T07:50:45Z</time>
      </trkpt>
      <trkpt lat="38.7075920" lon="-0.6651840">
        <ele>697.6</ele>
        <time>2019-05-12T07:50:47Z</time>
      </trkpt>
      <trkpt lat="38.7075160" lon="-0.6651400">
        <ele>698.2</ele>
        <time>2019-05-12T07:50:50Z</time>
      </trkpt>
      <trkpt lat="38.7074680" lon="-0.6651110">
        <ele>698.2</ele>
        <time>2019-05-12T07:50:52Z</time>
      </trkpt>
      <trkpt lat="38.7073880" lon="-0.6650600">
        <ele>698.6</ele>
        <time>2019-05-12T07:50:56Z</time>
      </trkpt>
      <trkpt lat="38.7073550" lon="-0.6650430">
        <ele>698.6</ele>
        <time>2019-05-12T07:50:58Z</time>
      </trkpt>
      <trkpt lat="38.7073390" lon="-0.6650230">
        <ele>699.2</ele>
        <time>2019-05-12T07:51:02Z</time>
      </trkpt>
      <trkpt lat="38.7073680" lon="-0.6649780">
        <ele>700.0</ele>
        <time>2019-05-12T07:51:08Z</time>
      </trkpt>
      <trkpt lat="38.7073870" lon="-0.6649620">
        <ele>700.4</ele>
        <time>2019-05-12T07:51:10Z</time>
      </trkpt>
      <trkpt lat="38.7074100" lon="-0.6649350">
        <ele>700.2</ele>
        <time>2019-05-12T07:51:13Z</time>
      </trkpt>
      <trkpt lat="38.7074210" lon="-0.6649160">
        <ele>700.0</ele>
        <time>2019-05-12T07:51:15Z</time>
      </trkpt>
      <trkpt lat="38.7074300" lon="-0.6649090">
        <ele>700.2</ele>
        <time>2019-05-12T07:51:16Z</time>
      </trkpt>
      <trkpt lat="38.7074440" lon="-0.6648900">
        <ele>701.4</ele>
        <time>2019-05-12T07:51:19Z</time>
      </trkpt>
      <trkpt lat="38.7074400" lon="-0.6648540">
        <ele>701.8</ele>
        <time>2019-05-12T07:51:22Z</time>
      </trkpt>
      <trkpt lat="38.7074170" lon="-0.6648240">
        <ele>701.8</ele>
        <time>2019-05-12T07:51:25Z</time>
      </trkpt>
      <trkpt lat="38.7074150" lon="-0.6648260">
        <ele>702.0</ele>
        <time>2019-05-12T07:51:27Z</time>
      </trkpt>
      <trkpt lat="38.7074060" lon="-0.6648150">
        <ele>702.0</ele>
        <time>2019-05-12T07:51:28Z</time>
      </trkpt>
      <trkpt lat="38.7073500" lon="-0.6647720">
        <ele>702.0</ele>
        <time>2019-05-12T07:51:32Z</time>
      </trkpt>
      <trkpt lat="38.7072710" lon="-0.6646950">
        <ele>701.8</ele>
        <time>2019-05-12T07:51:36Z</time>
      </trkpt>
      <trkpt lat="38.7071750" lon="-0.6645780">
        <ele>702.2</ele>
        <time>2019-05-12T07:51:40Z</time>
      </trkpt>
      <trkpt lat="38.7071130" lon="-0.6644340">
        <ele>701.8</ele>
        <time>2019-05-12T07:51:45Z</time>
      </trkpt>
      <trkpt lat="38.7071090" lon="-0.6643530">
        <ele>702.4</ele>
        <time>2019-05-12T07:51:48Z</time>
      </trkpt>
      <trkpt lat="38.7071040" lon="-0.6643130">
        <ele>702.2</ele>
        <time>2019-05-12T07:51:50Z</time>
      </trkpt>
      <trkpt lat="38.7070940" lon="-0.6642750">
        <ele>702.4</ele>
        <time>2019-05-12T07:51:52Z</time>
      </trkpt>
      <trkpt lat="38.7070750" lon="-0.6641990">
        <ele>702.4</ele>
        <time>2019-05-12T07:51:55Z</time>
      </trkpt>
      <trkpt lat="38.7070280" lon="-0.6639920">
        <ele>702.4</ele>
        <time>2019-05-12T07:52:02Z</time>
      </trkpt>
      <trkpt lat="38.7069820" lon="-0.6638510">
        <ele>702.6</ele>
        <time>2019-05-12T07:52:07Z</time>
      </trkpt>
      <trkpt lat="38.7069250" lon="-0.6636130">
        <ele>702.4</ele>
        <time>2019-05-12T07:52:14Z</time>
      </trkpt>
      <trkpt lat="38.7069630" lon="-0.6635590">
        <ele>703.0</ele>
        <time>2019-05-12T07:52:17Z</time>
      </trkpt>
      <trkpt lat="38.7069750" lon="-0.6635480">
        <ele>703.2</ele>
        <time>2019-05-12T07:52:18Z</time>
      </trkpt>
      <trkpt lat="38.7069880" lon="-0.6635500">
        <ele>703.6</ele>
        <time>2019-05-12T07:52:19Z</time>
      </trkpt>
      <trkpt lat="38.7070270" lon="-0.6636130">
        <ele>703.6</ele>
        <time>2019-05-12T07:52:22Z</time>
      </trkpt>
      <trkpt lat="38.7070320" lon="-0.6637430">
        <ele>704.4</ele>
        <time>2019-05-12T07:52:26Z</time>
      </trkpt>
      <trkpt lat="38.7070400" lon="-0.6637750">
        <ele>704.8</ele>
        <time>2019-05-12T07:52:27Z</time>
      </trkpt>
      <trkpt lat="38.7070900" lon="-0.6639390">
        <ele>705.6</ele>
        <time>2019-05-12T07:52:32Z</time>
      </trkpt>
      <trkpt lat="38.7071260" lon="-0.6640000">
        <ele>706.0</ele>
        <time>2019-05-12T07:52:34Z</time>
      </trkpt>
      <trkpt lat="38.7072070" lon="-0.6641160">
        <ele>705.8</ele>
        <time>2019-05-12T07:52:38Z</time>
      </trkpt>
      <trkpt lat="38.7073470" lon="-0.6642390">
        <ele>705.8</ele>
        <time>2019-05-12T07:52:44Z</time>
      </trkpt>
      <trkpt lat="38.7074570" lon="-0.6643610">
        <ele>705.8</ele>
        <time>2019-05-12T07:52:49Z</time>
      </trkpt>
      <trkpt lat="38.7076170" lon="-0.6644420">
        <ele>705.6</ele>
        <time>2019-05-12T07:52:55Z</time>
      </trkpt>
      <trkpt lat="38.7077800" lon="-0.6644050">
        <ele>705.6</ele>
        <time>2019-05-12T07:53:00Z</time>
      </trkpt>
      <trkpt lat="38.7079690" lon="-0.6643970">
        <ele>705.4</ele>
        <time>2019-05-12T07:53:06Z</time>
      </trkpt>
      <trkpt lat="38.7081910" lon="-0.6643860">
        <ele>706.0</ele>
        <time>2019-05-12T07:53:13Z</time>
      </trkpt>
      <trkpt lat="38.7083850" lon="-0.6644060">
        <ele>706.4</ele>
        <time>2019-05-12T07:53:19Z</time>
      </trkpt>
      <trkpt lat="38.7086260" lon="-0.6644580">
        <ele>706.4</ele>
        <time>2019-05-12T07:53:26Z</time>
      </trkpt>
      <trkpt lat="38.7087750" lon="-0.6646030">
        <ele>706.0</ele>
        <time>2019-05-12T07:53:31Z</time>
      </trkpt>
      <trkpt lat="38.7088440" lon="-0.6648010">
        <ele>705.6</ele>
        <time>2019-05-12T07:53:36Z</time>
      </trkpt>
      <trkpt lat="38.7088850" lon="-0.6649050">
        <ele>705.8</ele>
        <time>2019-05-12T07:53:41Z</time>
      </trkpt>
      <trkpt lat="38.7089220" lon="-0.6649330">
        <ele>705.8</ele>
        <time>2019-05-12T07:53:43Z</time>
      </trkpt>
      <trkpt lat="38.7089670" lon="-0.6649210">
        <ele>705.4</ele>
        <time>2019-05-12T07:53:45Z</time>
      </trkpt>
      <trkpt lat="38.7089850" lon="-0.6648360">
        <ele>705.8</ele>
        <time>2019-05-12T07:53:48Z</time>
      </trkpt>
      <trkpt lat="38.7089930" lon="-0.6648030">
        <ele>706.0</ele>
        <time>2019-05-12T07:53:49Z</time>
      </trkpt>
      <trkpt lat="38.7090080" lon="-0.6647080">
        <ele>707.2</ele>
        <time>2019-05-12T07:53:52Z</time>
      </trkpt>
      <trkpt lat="38.7090310" lon="-0.6646200">
        <ele>708.2</ele>
        <time>2019-05-12T07:53:55Z</time>
      </trkpt>
      <trkpt lat="38.7090710" lon="-0.6645340">
        <ele>709.2</ele>
        <time>2019-05-12T07:53:58Z</time>
      </trkpt>
      <trkpt lat="38.7091090" lon="-0.6644890">
        <ele>710.6</ele>
        <time>2019-05-12T07:54:00Z</time>
      </trkpt>
      <trkpt lat="38.7091510" lon="-0.6644390">
        <ele>711.6</ele>
        <time>2019-05-12T07:54:02Z</time>
      </trkpt>
      <trkpt lat="38.7092460" lon="-0.6643360">
        <ele>712.8</ele>
        <time>2019-05-12T07:54:06Z</time>
      </trkpt>
      <trkpt lat="38.7092880" lon="-0.6642760">
        <ele>713.2</ele>
        <time>2019-05-12T07:54:08Z</time>
      </trkpt>
      <trkpt lat="38.7093310" lon="-0.6642320">
        <ele>714.0</ele>
        <time>2019-05-12T07:54:10Z</time>
      </trkpt>
      <trkpt lat="38.7093690" lon="-0.6641790">
        <ele>715.0</ele>
        <time>2019-05-12T07:54:12Z</time>
      </trkpt>
      <trkpt lat="38.7094010" lon="-0.6641370">
        <ele>715.6</ele>
        <time>2019-05-12T07:54:14Z</time>
      </trkpt>
      <trkpt lat="38.7094390" lon="-0.6640980">
        <ele>716.0</ele>
        <time>2019-05-12T07:54:16Z</time>
      </trkpt>
      <trkpt lat="38.7094880" lon="-0.6640350">
        <ele>717.2</ele>
        <time>2019-05-12T07:54:19Z</time>
      </trkpt>
      <trkpt lat="38.7095210" lon="-0.6639900">
        <ele>717.6</ele>
        <time>2019-05-12T07:54:21Z</time>
      </trkpt>
      <trkpt lat="38.7095640" lon="-0.6639610">
        <ele>718.4</ele>
        <time>2019-05-12T07:54:23Z</time>
      </trkpt>
      <trkpt lat="38.7096220" lon="-0.6638910">
        <ele>719.2</ele>
        <time>2019-05-12T07:54:26Z</time>
      </trkpt>
      <trkpt lat="38.7096570" lon="-0.6638410">
        <ele>719.8</ele>
        <time>2019-05-12T07:54:28Z</time>
      </trkpt>
      <trkpt lat="38.7097340" lon="-0.6637530">
        <ele>720.6</ele>
        <time>2019-05-12T07:54:32Z</time>
      </trkpt>
      <trkpt lat="38.7097500" lon="-0.6637270">
        <ele>720.8</ele>
        <time>2019-05-12T07:54:33Z</time>
      </trkpt>
      <trkpt lat="38.7098440" lon="-0.6636210">
        <ele>721.8</ele>
        <time>2019-05-12T07:54:38Z</time>
      </trkpt>
      <trkpt lat="38.7098630" lon="-0.6636040">
        <ele>722.4</ele>
        <time>2019-05-12T07:54:39Z</time>
      </trkpt>
      <trkpt lat="38.7098990" lon="-0.6635660">
        <ele>723.0</ele>
        <time>2019-05-12T07:54:41Z</time>
      </trkpt>
      <trkpt lat="38.7099260" lon="-0.6635130">
        <ele>723.4</ele>
        <time>2019-05-12T07:54:43Z</time>
      </trkpt>
      <trkpt lat="38.7099600" lon="-0.6634540">
        <ele>723.4</ele>
        <time>2019-05-12T07:54:45Z</time>
      </trkpt>
      <trkpt lat="38.7100270" lon="-0.6633380">
        <ele>724.2</ele>
        <time>2019-05-12T07:54:49Z</time>
      </trkpt>
      <trkpt lat="38.7100450" lon="-0.6633140">
        <ele>724.4</ele>
        <time>2019-05-12T07:54:50Z</time>
      </trkpt>
      <trkpt lat="38.7101340" lon="-0.6631910">
        <ele>725.2</ele>
        <time>2019-05-12T07:54:55Z</time>
      </trkpt>
      <trkpt lat="38.7101700" lon="-0.6631440">
        <ele>725.6</ele>
        <time>2019-05-12T07:54:57Z</time>
      </trkpt>
      <trkpt lat="38.7102180" lon="-0.6630610">
        <ele>726.2</ele>
        <time>2019-05-12T07:55:00Z</time>
      </trkpt>
      <trkpt lat="38.7102790" lon="-0.6629820">
        <ele>726.8</ele>
        <time>2019-05-12T07:55:03Z</time>
      </trkpt>
      <trkpt lat="38.7103160" lon="-0.6629320">
        <ele>727.4</ele>
        <time>2019-05-12T07:55:05Z</time>
      </trkpt>
      <trkpt lat="38.7103850" lon="-0.6628350">
        <ele>728.6</ele>
        <time>2019-05-12T07:55:09Z</time>
      </trkpt>
      <trkpt lat="38.7103960" lon="-0.6628100">
        <ele>728.8</ele>
        <time>2019-05-12T07:55:10Z</time>
      </trkpt>
      <trkpt lat="38.7104650" lon="-0.6627220">
        <ele>730.0</ele>
        <time>2019-05-12T07:55:14Z</time>
      </trkpt>
      <trkpt lat="38.7104840" lon="-0.6627070">
        <ele>730.4</ele>
        <time>2019-05-12T07:55:15Z</time>
      </trkpt>
      <trkpt lat="38.7105330" lon="-0.6626450">
        <ele>731.2</ele>
        <time>2019-05-12T07:55:18Z</time>
      </trkpt>
      <trkpt lat="38.7106100" lon="-0.6626030">
        <ele>731.6</ele>
        <time>2019-05-12T07:55:21Z</time>
      </trkpt>
      <trkpt lat="38.7106340" lon="-0.6626150">
        <ele>731.6</ele>
        <time>2019-05-12T07:55:22Z</time>
      </trkpt>
      <trkpt lat="38.7107060" lon="-0.6626400">
        <ele>732.2</ele>
        <time>2019-05-12T07:55:25Z</time>
      </trkpt>
      <trkpt lat="38.7107310" lon="-0.6626510">
        <ele>732.6</ele>
        <time>2019-05-12T07:55:26Z</time>
      </trkpt>
      <trkpt lat="38.7108730" lon="-0.6626160">
        <ele>732.8</ele>
        <time>2019-05-12T07:55:31Z</time>
      </trkpt>
      <trkpt lat="38.7110870" lon="-0.6625310">
        <ele>733.2</ele>
        <time>2019-05-12T07:55:38Z</time>
      </trkpt>
      <trkpt lat="38.7113340" lon="-0.6625470">
        <ele>733.6</ele>
        <time>2019-05-12T07:55:45Z</time>
      </trkpt>
      <trkpt lat="38.7114790" lon="-0.6626880">
        <ele>733.6</ele>
        <time>2019-05-12T07:55:50Z</time>
      </trkpt>
      <trkpt lat="38.7116070" lon="-0.6629330">
        <ele>734.2</ele>
        <time>2019-05-12T07:55:56Z</time>
      </trkpt>
      <trkpt lat="38.7117040" lon="-0.6631450">
        <ele>734.8</ele>
        <time>2019-05-12T07:56:02Z</time>
      </trkpt>
      <trkpt lat="38.7117480" lon="-0.6632540">
        <ele>735.8</ele>
        <time>2019-05-12T07:56:06Z</time>
      </trkpt>
      <trkpt lat="38.7117760" lon="-0.6633290">
        <ele>736.8</ele>
        <time>2019-05-12T07:56:09Z</time>
      </trkpt>
      <trkpt lat="38.7117850" lon="-0.6633570">
        <ele>737.0</ele>
        <time>2019-05-12T07:56:10Z</time>
      </trkpt>
      <trkpt lat="38.7117930" lon="-0.6633840">
        <ele>737.2</ele>
        <time>2019-05-12T07:56:11Z</time>
      </trkpt>
      <trkpt lat="38.7118210" lon="-0.6634580">
        <ele>738.2</ele>
        <time>2019-05-12T07:56:14Z</time>
      </trkpt>
      <trkpt lat="38.7118630" lon="-0.6635170">
        <ele>739.4</ele>
        <time>2019-05-12T07:56:17Z</time>
      </trkpt>
      <trkpt lat="38.7118860" lon="-0.6635000">
        <ele>739.8</ele>
        <time>2019-05-12T07:56:18Z</time>
      </trkpt>
      <trkpt lat="38.7119060" lon="-0.6634210">
        <ele>739.8</ele>
        <time>2019-05-12T07:56:20Z</time>
      </trkpt>
      <trkpt lat="38.7119680" lon="-0.6631760">
        <ele>739.2</ele>
        <time>2019-05-12T07:56:25Z</time>
      </trkpt>
      <trkpt lat="38.7120960" lon="-0.6628700">
        <ele>739.0</ele>
        <time>2019-05-12T07:56:31Z</time>
      </trkpt>
      <trkpt lat="38.7122160" lon="-0.6626710">
        <ele>740.2</ele>
        <time>2019-05-12T07:56:37Z</time>
      </trkpt>
      <trkpt lat="38.7122520" lon="-0.6626420">
        <ele>740.6</ele>
        <time>2019-05-12T07:56:39Z</time>
      </trkpt>
      <trkpt lat="38.7122860" lon="-0.6625820">
        <ele>740.8</ele>
        <time>2019-05-12T07:56:42Z</time>
      </trkpt>
      <trkpt lat="38.7122170" lon="-0.6625360">
        <ele>740.2</ele>
        <time>2019-05-12T08:35:25Z</time>
      </trkpt>
      <trkpt lat="38.7122990" lon="-0.6624660">
        <ele>740.6</ele>
        <time>2019-05-12T08:40:56Z</time>
      </trkpt>
      <trkpt lat="38.7123110" lon="-0.6624340">
        <ele>740.8</ele>
        <time>2019-05-12T08:40:57Z</time>
      </trkpt>
      <trkpt lat="38.7123610" lon="-0.6622660">
        <ele>740.8</ele>
        <time>2019-05-12T08:41:02Z</time>
      </trkpt>
      <trkpt lat="38.7124280" lon="-0.6620940">
        <ele>741.2</ele>
        <time>2019-05-12T08:41:07Z</time>
      </trkpt>
      <trkpt lat="38.7124410" lon="-0.6620600">
        <ele>741.4</ele>
        <time>2019-05-12T08:41:08Z</time>
      </trkpt>
      <trkpt lat="38.7124970" lon="-0.6618800">
        <ele>742.6</ele>
        <time>2019-05-12T08:41:13Z</time>
      </trkpt>
      <trkpt lat="38.7125000" lon="-0.6618400">
        <ele>742.6</ele>
        <time>2019-05-12T08:41:14Z</time>
      </trkpt>
      <trkpt lat="38.7124490" lon="-0.6616240">
        <ele>743.2</ele>
        <time>2019-05-12T08:41:19Z</time>
      </trkpt>
      <trkpt lat="38.7124070" lon="-0.6615640">
        <ele>743.8</ele>
        <time>2019-05-12T08:41:21Z</time>
      </trkpt>
      <trkpt lat="38.7123410" lon="-0.6614890">
        <ele>744.6</ele>
        <time>2019-05-12T08:41:24Z</time>
      </trkpt>
      <trkpt lat="38.7123150" lon="-0.6614720">
        <ele>745.0</ele>
        <time>2019-05-12T08:41:25Z</time>
      </trkpt>
      <trkpt lat="38.7122120" lon="-0.6613970">
        <ele>746.0</ele>
        <time>2019-05-12T08:41:29Z</time>
      </trkpt>
      <trkpt lat="38.7121900" lon="-0.6613750">
        <ele>746.2</ele>
        <time>2019-05-12T08:41:30Z</time>
      </trkpt>
      <trkpt lat="38.7121050" lon="-0.6613130">
        <ele>747.2</ele>
        <time>2019-05-12T08:41:33Z</time>
      </trkpt>
      <trkpt lat="38.7120510" lon="-0.6612840">
        <ele>747.4</ele>
        <time>2019-05-12T08:41:35Z</time>
      </trkpt>
      <trkpt lat="38.7119580" lon="-0.6612190">
        <ele>748.4</ele>
        <time>2019-05-12T08:41:39Z</time>
      </trkpt>
      <trkpt lat="38.7118430" lon="-0.6611310">
        <ele>749.4</ele>
        <time>2019-05-12T08:41:44Z</time>
      </trkpt>
      <trkpt lat="38.7117140" lon="-0.6610100">
        <ele>750.8</ele>
        <time>2019-05-12T08:41:50Z</time>
      </trkpt>
      <trkpt lat="38.7116570" lon="-0.6609450">
        <ele>751.4</ele>
        <time>2019-05-12T08:41:53Z</time>
      </trkpt>
      <trkpt lat="38.7116260" lon="-0.6608910">
        <ele>751.8</ele>
        <time>2019-05-12T08:41:55Z</time>
      </trkpt>
      <trkpt lat="38.7115860" lon="-0.6608150">
        <ele>752.2</ele>
        <time>2019-05-12T08:41:58Z</time>
      </trkpt>
      <trkpt lat="38.7115770" lon="-0.6607820">
        <ele>752.4</ele>
        <time>2019-05-12T08:41:59Z</time>
      </trkpt>
      <trkpt lat="38.7115590" lon="-0.6607130">
        <ele>753.0</ele>
        <time>2019-05-12T08:42:01Z</time>
      </trkpt>
      <trkpt lat="38.7115220" lon="-0.6605490">
        <ele>754.2</ele>
        <time>2019-05-12T08:42:06Z</time>
      </trkpt>
      <trkpt lat="38.7114970" lon="-0.6604120">
        <ele>755.2</ele>
        <time>2019-05-12T08:42:10Z</time>
      </trkpt>
      <trkpt lat="38.7114880" lon="-0.6603370">
        <ele>755.2</ele>
        <time>2019-05-12T08:42:12Z</time>
      </trkpt>
      <trkpt lat="38.7114870" lon="-0.6600400">
        <ele>756.0</ele>
        <time>2019-05-12T08:42:19Z</time>
      </trkpt>
      <trkpt lat="38.7115420" lon="-0.6598150">
        <ele>755.6</ele>
        <time>2019-05-12T08:42:24Z</time>
      </trkpt>
      <trkpt lat="38.7117040" lon="-0.6595090">
        <ele>755.4</ele>
        <time>2019-05-12T08:42:30Z</time>
      </trkpt>
      <trkpt lat="38.7119400" lon="-0.6590970">
        <ele>754.6</ele>
        <time>2019-05-12T08:42:38Z</time>
      </trkpt>
      <trkpt lat="38.7119840" lon="-0.6589950">
        <ele>754.6</ele>
        <time>2019-05-12T08:42:40Z</time>
      </trkpt>
      <trkpt lat="38.7120460" lon="-0.6588340">
        <ele>754.8</ele>
        <time>2019-05-12T08:42:43Z</time>
      </trkpt>
      <trkpt lat="38.7120600" lon="-0.6587750">
        <ele>755.0</ele>
        <time>2019-05-12T08:42:44Z</time>
      </trkpt>
      <trkpt lat="38.7120700" lon="-0.6585090">
        <ele>755.6</ele>
        <time>2019-05-12T08:42:49Z</time>
      </trkpt>
      <trkpt lat="38.7120640" lon="-0.6582410">
        <ele>756.2</ele>
        <time>2019-05-12T08:42:55Z</time>
      </trkpt>
      <trkpt lat="38.7120610" lon="-0.6581970">
        <ele>756.4</ele>
        <time>2019-05-12T08:42:56Z</time>
      </trkpt>
      <trkpt lat="38.7120470" lon="-0.6579250">
        <ele>757.2</ele>
        <time>2019-05-12T08:43:02Z</time>
      </trkpt>
      <trkpt lat="38.7120170" lon="-0.6575920">
        <ele>758.4</ele>
        <time>2019-05-12T08:43:09Z</time>
      </trkpt>
      <trkpt lat="38.7119830" lon="-0.6575210">
        <ele>759.0</ele>
        <time>2019-05-12T08:43:11Z</time>
      </trkpt>
      <trkpt lat="38.7119550" lon="-0.6574960">
        <ele>759.0</ele>
        <time>2019-05-12T08:43:12Z</time>
      </trkpt>
      <trkpt lat="38.7118840" lon="-0.6574760">
        <ele>759.0</ele>
        <time>2019-05-12T08:43:14Z</time>
      </trkpt>
      <trkpt lat="38.7118110" lon="-0.6574700">
        <ele>759.2</ele>
        <time>2019-05-12T08:43:16Z</time>
      </trkpt>
      <trkpt lat="38.7116210" lon="-0.6574770">
        <ele>759.2</ele>
        <time>2019-05-12T08:43:21Z</time>
      </trkpt>
      <trkpt lat="38.7114760" lon="-0.6574750">
        <ele>759.6</ele>
        <time>2019-05-12T08:43:25Z</time>
      </trkpt>
      <trkpt lat="38.7113240" lon="-0.6574810">
        <ele>760.8</ele>
        <time>2019-05-12T08:43:29Z</time>
      </trkpt>
      <trkpt lat="38.7111090" lon="-0.6574830">
        <ele>762.0</ele>
        <time>2019-05-12T08:43:35Z</time>
      </trkpt>
      <trkpt lat="38.7109240" lon="-0.6574970">
        <ele>763.0</ele>
        <time>2019-05-12T08:43:40Z</time>
      </trkpt>
      <trkpt lat="38.7108870" lon="-0.6574960">
        <ele>763.2</ele>
        <time>2019-05-12T08:43:41Z</time>
      </trkpt>
      <trkpt lat="38.7106580" lon="-0.6575150">
        <ele>763.8</ele>
        <time>2019-05-12T08:43:47Z</time>
      </trkpt>
      <trkpt lat="38.7105740" lon="-0.6575180">
        <ele>764.2</ele>
        <time>2019-05-12T08:43:50Z</time>
      </trkpt>
      <trkpt lat="38.7105220" lon="-0.6575180">
        <ele>764.6</ele>
        <time>2019-05-12T08:43:52Z</time>
      </trkpt>
      <trkpt lat="38.7103810" lon="-0.6575280">
        <ele>765.2</ele>
        <time>2019-05-12T08:43:56Z</time>
      </trkpt>
      <trkpt lat="38.7103510" lon="-0.6575320">
        <ele>765.2</ele>
        <time>2019-05-12T08:43:57Z</time>
      </trkpt>
      <trkpt lat="38.7101800" lon="-0.6575410">
        <ele>766.0</ele>
        <time>2019-05-12T08:44:03Z</time>
      </trkpt>
      <trkpt lat="38.7101580" lon="-0.6575420">
        <ele>766.2</ele>
        <time>2019-05-12T08:44:04Z</time>
      </trkpt>
      <trkpt lat="38.7100450" lon="-0.6575460">
        <ele>767.0</ele>
        <time>2019-05-12T08:44:09Z</time>
      </trkpt>
      <trkpt lat="38.7099470" lon="-0.6575530">
        <ele>767.2</ele>
        <time>2019-05-12T08:44:13Z</time>
      </trkpt>
      <trkpt lat="38.7098820" lon="-0.6575530">
        <ele>767.4</ele>
        <time>2019-05-12T08:44:15Z</time>
      </trkpt>
      <trkpt lat="38.7096620" lon="-0.6575530">
        <ele>768.0</ele>
        <time>2019-05-12T08:44:22Z</time>
      </trkpt>
      <trkpt lat="38.7095400" lon="-0.6575130">
        <ele>767.8</ele>
        <time>2019-05-12T08:44:27Z</time>
      </trkpt>
      <trkpt lat="38.7094610" lon="-0.6573400">
        <ele>767.6</ele>
        <time>2019-05-12T08:44:31Z</time>
      </trkpt>
      <trkpt lat="38.7094340" lon="-0.6572890">
        <ele>768.6</ele>
        <time>2019-05-12T08:44:33Z</time>
      </trkpt>
      <trkpt lat="38.7094070" lon="-0.6572390">
        <ele>769.6</ele>
        <time>2019-05-12T08:44:35Z</time>
      </trkpt>
      <trkpt lat="38.7093800" lon="-0.6571950">
        <ele>770.4</ele>
        <time>2019-05-12T08:44:37Z</time>
      </trkpt>
      <trkpt lat="38.7093500" lon="-0.6571520">
        <ele>771.0</ele>
        <time>2019-05-12T08:44:39Z</time>
      </trkpt>
      <trkpt lat="38.7093000" lon="-0.6570650">
        <ele>772.4</ele>
        <time>2019-05-12T08:44:43Z</time>
      </trkpt>
      <trkpt lat="38.7092670" lon="-0.6570020">
        <ele>773.2</ele>
        <time>2019-05-12T08:44:46Z</time>
      </trkpt>
      <trkpt lat="38.7092570" lon="-0.6569830">
        <ele>773.4</ele>
        <time>2019-05-12T08:44:47Z</time>
      </trkpt>
      <trkpt lat="38.7092180" lon="-0.6569300">
        <ele>774.8</ele>
        <time>2019-05-12T08:44:50Z</time>
      </trkpt>
      <trkpt lat="38.7091860" lon="-0.6568790">
        <ele>775.6</ele>
        <time>2019-05-12T08:44:53Z</time>
      </trkpt>
      <trkpt lat="38.7091730" lon="-0.6568650">
        <ele>776.0</ele>
        <time>2019-05-12T08:44:54Z</time>
      </trkpt>
      <trkpt lat="38.7091300" lon="-0.6567960">
        <ele>777.4</ele>
        <time>2019-05-12T08:44:58Z</time>
      </trkpt>
      <trkpt lat="38.7090930" lon="-0.6567480">
        <ele>778.4</ele>
        <time>2019-05-12T08:45:02Z</time>
      </trkpt>
      <trkpt lat="38.7090710" lon="-0.6567140">
        <ele>778.6</ele>
        <time>2019-05-12T08:45:04Z</time>
      </trkpt>
      <trkpt lat="38.7090430" lon="-0.6566610">
        <ele>779.8</ele>
        <time>2019-05-12T08:45:07Z</time>
      </trkpt>
      <trkpt lat="38.7090000" lon="-0.6566230">
        <ele>780.8</ele>
        <time>2019-05-12T08:45:10Z</time>
      </trkpt>
      <trkpt lat="38.7089890" lon="-0.6566040">
        <ele>781.0</ele>
        <time>2019-05-12T08:45:11Z</time>
      </trkpt>
      <trkpt lat="38.7089650" lon="-0.6565320">
        <ele>782.0</ele>
        <time>2019-05-12T08:45:15Z</time>
      </trkpt>
      <trkpt lat="38.7089380" lon="-0.6564870">
        <ele>782.6</ele>
        <time>2019-05-12T08:45:18Z</time>
      </trkpt>
      <trkpt lat="38.7089220" lon="-0.6564560">
        <ele>783.0</ele>
        <time>2019-05-12T08:45:20Z</time>
      </trkpt>
      <trkpt lat="38.7088960" lon="-0.6564110">
        <ele>784.2</ele>
        <time>2019-05-12T08:45:23Z</time>
      </trkpt>
      <trkpt lat="38.7088810" lon="-0.6563480">
        <ele>785.2</ele>
        <time>2019-05-12T08:45:27Z</time>
      </trkpt>
      <trkpt lat="38.7088770" lon="-0.6563320">
        <ele>785.4</ele>
        <time>2019-05-12T08:45:28Z</time>
      </trkpt>
      <trkpt lat="38.7088660" lon="-0.6562810">
        <ele>786.2</ele>
        <time>2019-05-12T08:45:31Z</time>
      </trkpt>
      <trkpt lat="38.7088570" lon="-0.6561840">
        <ele>787.6</ele>
        <time>2019-05-12T08:45:36Z</time>
      </trkpt>
      <trkpt lat="38.7088540" lon="-0.6561650">
        <ele>788.0</ele>
        <time>2019-05-12T08:45:37Z</time>
      </trkpt>
      <trkpt lat="38.7088540" lon="-0.6561030">
        <ele>788.8</ele>
        <time>2019-05-12T08:45:40Z</time>
      </trkpt>
      <trkpt lat="38.7088530" lon="-0.6560430">
        <ele>790.0</ele>
        <time>2019-05-12T08:45:43Z</time>
      </trkpt>
      <trkpt lat="38.7088730" lon="-0.6559510">
        <ele>791.2</ele>
        <time>2019-05-12T08:45:48Z</time>
      </trkpt>
      <trkpt lat="38.7088810" lon="-0.6559130">
        <ele>791.6</ele>
        <time>2019-05-12T08:45:50Z</time>
      </trkpt>
      <trkpt lat="38.7089050" lon="-0.6558450">
        <ele>792.4</ele>
        <time>2019-05-12T08:45:54Z</time>
      </trkpt>
      <trkpt lat="38.7089320" lon="-0.6557800">
        <ele>793.8</ele>
        <time>2019-05-12T08:45:58Z</time>
      </trkpt>
      <trkpt lat="38.7089630" lon="-0.6556720">
        <ele>794.8</ele>
        <time>2019-05-12T08:46:04Z</time>
      </trkpt>
      <trkpt lat="38.7089850" lon="-0.6556240">
        <ele>796.0</ele>
        <time>2019-05-12T08:46:07Z</time>
      </trkpt>
      <trkpt lat="38.7090210" lon="-0.6555430">
        <ele>797.0</ele>
        <time>2019-05-12T08:46:12Z</time>
      </trkpt>
      <trkpt lat="38.7090540" lon="-0.6554790">
        <ele>798.2</ele>
        <time>2019-05-12T08:46:16Z</time>
      </trkpt>
      <trkpt lat="38.7090700" lon="-0.6554300">
        <ele>798.6</ele>
        <time>2019-05-12T08:46:19Z</time>
      </trkpt>
      <trkpt lat="38.7090850" lon="-0.6554000">
        <ele>799.2</ele>
        <time>2019-05-12T08:46:21Z</time>
      </trkpt>
      <trkpt lat="38.7090920" lon="-0.6553820">
        <ele>799.6</ele>
        <time>2019-05-12T08:46:22Z</time>
      </trkpt>
      <trkpt lat="38.7091390" lon="-0.6552700">
        <ele>800.8</ele>
        <time>2019-05-12T08:46:29Z</time>
      </trkpt>
      <trkpt lat="38.7091520" lon="-0.6552350">
        <ele>801.4</ele>
        <time>2019-05-12T08:46:31Z</time>
      </trkpt>
      <trkpt lat="38.7091670" lon="-0.6552050">
        <ele>801.8</ele>
        <time>2019-05-12T08:46:33Z</time>
      </trkpt>
      <trkpt lat="38.7091930" lon="-0.6551420">
        <ele>803.0</ele>
        <time>2019-05-12T08:46:37Z</time>
      </trkpt>
      <trkpt lat="38.7092070" lon="-0.6551030">
        <ele>803.4</ele>
        <time>2019-05-12T08:46:39Z</time>
      </trkpt>
      <trkpt lat="38.7092190" lon="-0.6550720">
        <ele>804.2</ele>
        <time>2019-05-12T08:46:41Z</time>
      </trkpt>
      <trkpt lat="38.7092540" lon="-0.6549910">
        <ele>805.2</ele>
        <time>2019-05-12T08:46:46Z</time>
      </trkpt>
      <trkpt lat="38.7092600" lon="-0.6549760">
        <ele>805.4</ele>
        <time>2019-05-12T08:46:47Z</time>
      </trkpt>
      <trkpt lat="38.7092880" lon="-0.6549300">
        <ele>806.4</ele>
        <time>2019-05-12T08:46:50Z</time>
      </trkpt>
      <trkpt lat="38.7093280" lon="-0.6548730">
        <ele>807.0</ele>
        <time>2019-05-12T08:46:54Z</time>
      </trkpt>
      <trkpt lat="38.7093400" lon="-0.6548610">
        <ele>807.6</ele>
        <time>2019-05-12T08:46:55Z</time>
      </trkpt>
      <trkpt lat="38.7093550" lon="-0.6548550">
        <ele>807.8</ele>
        <time>2019-05-12T08:46:56Z</time>
      </trkpt>
      <trkpt lat="38.7094160" lon="-0.6548380">
        <ele>808.6</ele>
        <time>2019-05-12T08:47:00Z</time>
      </trkpt>
      <trkpt lat="38.7094490" lon="-0.6548320">
        <ele>808.8</ele>
        <time>2019-05-12T08:47:02Z</time>
      </trkpt>
      <trkpt lat="38.7095430" lon="-0.6548300">
        <ele>809.8</ele>
        <time>2019-05-12T08:47:08Z</time>
      </trkpt>
      <trkpt lat="38.7095580" lon="-0.6548350">
        <ele>810.2</ele>
        <time>2019-05-12T08:47:09Z</time>
      </trkpt>
      <trkpt lat="38.7096190" lon="-0.6548460">
        <ele>811.4</ele>
        <time>2019-05-12T08:47:13Z</time>
      </trkpt>
      <trkpt lat="38.7096780" lon="-0.6548570">
        <ele>812.0</ele>
        <time>2019-05-12T08:47:17Z</time>
      </trkpt>
      <trkpt lat="38.7097080" lon="-0.6548630">
        <ele>812.6</ele>
        <time>2019-05-12T08:47:19Z</time>
      </trkpt>
      <trkpt lat="38.7097230" lon="-0.6548580">
        <ele>813.2</ele>
        <time>2019-05-12T08:47:20Z</time>
      </trkpt>
      <trkpt lat="38.7097480" lon="-0.6548390">
        <ele>813.8</ele>
        <time>2019-05-12T08:47:22Z</time>
      </trkpt>
      <trkpt lat="38.7097720" lon="-0.6548190">
        <ele>814.4</ele>
        <time>2019-05-12T08:47:24Z</time>
      </trkpt>
      <trkpt lat="38.7097890" lon="-0.6547930">
        <ele>815.0</ele>
        <time>2019-05-12T08:47:26Z</time>
      </trkpt>
      <trkpt lat="38.7098330" lon="-0.6547260">
        <ele>816.2</ele>
        <time>2019-05-12T08:47:31Z</time>
      </trkpt>
      <trkpt lat="38.7098900" lon="-0.6546470">
        <ele>817.4</ele>
        <time>2019-05-12T08:47:37Z</time>
      </trkpt>
      <trkpt lat="38.7099080" lon="-0.6546180">
        <ele>817.8</ele>
        <time>2019-05-12T08:47:39Z</time>
      </trkpt>
      <trkpt lat="38.7099370" lon="-0.6545790">
        <ele>818.4</ele>
        <time>2019-05-12T08:47:42Z</time>
      </trkpt>
      <trkpt lat="38.7099650" lon="-0.6545340">
        <ele>819.6</ele>
        <time>2019-05-12T08:47:45Z</time>
      </trkpt>
      <trkpt lat="38.7100020" lon="-0.6544830">
        <ele>820.0</ele>
        <time>2019-05-12T08:47:48Z</time>
      </trkpt>
      <trkpt lat="38.7100250" lon="-0.6544540">
        <ele>820.4</ele>
        <time>2019-05-12T08:47:51Z</time>
      </trkpt>
      <trkpt lat="38.7100320" lon="-0.6544400">
        <ele>820.6</ele>
        <time>2019-05-12T08:47:52Z</time>
      </trkpt>
      <trkpt lat="38.7100630" lon="-0.6543970">
        <ele>821.0</ele>
        <time>2019-05-12T08:47:55Z</time>
      </trkpt>
      <trkpt lat="38.7100930" lon="-0.6543560">
        <ele>821.8</ele>
        <time>2019-05-12T08:47:58Z</time>
      </trkpt>
      <trkpt lat="38.7101400" lon="-0.6542850">
        <ele>822.8</ele>
        <time>2019-05-12T08:48:03Z</time>
      </trkpt>
      <trkpt lat="38.7101510" lon="-0.6542720">
        <ele>822.8</ele>
        <time>2019-05-12T08:48:04Z</time>
      </trkpt>
      <trkpt lat="38.7101980" lon="-0.6542140">
        <ele>824.0</ele>
        <time>2019-05-12T08:48:08Z</time>
      </trkpt>
      <trkpt lat="38.7102410" lon="-0.6541550">
        <ele>825.2</ele>
        <time>2019-05-12T08:48:12Z</time>
      </trkpt>
      <trkpt lat="38.7102930" lon="-0.6540800">
        <ele>826.2</ele>
        <time>2019-05-12T08:48:17Z</time>
      </trkpt>
      <trkpt lat="38.7103390" lon="-0.6540210">
        <ele>827.2</ele>
        <time>2019-05-12T08:48:21Z</time>
      </trkpt>
      <trkpt lat="38.7103500" lon="-0.6540070">
        <ele>827.4</ele>
        <time>2019-05-12T08:48:22Z</time>
      </trkpt>
      <trkpt lat="38.7104150" lon="-0.6539130">
        <ele>828.6</ele>
        <time>2019-05-12T08:48:28Z</time>
      </trkpt>
      <trkpt lat="38.7104260" lon="-0.6539010">
        <ele>828.8</ele>
        <time>2019-05-12T08:48:29Z</time>
      </trkpt>
      <trkpt lat="38.7104570" lon="-0.6538640">
        <ele>829.8</ele>
        <time>2019-05-12T08:48:32Z</time>
      </trkpt>
      <trkpt lat="38.7104890" lon="-0.6537970">
        <ele>830.8</ele>
        <time>2019-05-12T08:48:36Z</time>
      </trkpt>
      <trkpt lat="38.7105000" lon="-0.6537810">
        <ele>831.2</ele>
        <time>2019-05-12T08:48:37Z</time>
      </trkpt>
      <trkpt lat="38.7105650" lon="-0.6536810">
        <ele>832.2</ele>
        <time>2019-05-12T08:48:43Z</time>
      </trkpt>
      <trkpt lat="38.7105840" lon="-0.6536470">
        <ele>832.8</ele>
        <time>2019-05-12T08:48:45Z</time>
      </trkpt>
      <trkpt lat="38.7106020" lon="-0.6536100">
        <ele>833.4</ele>
        <time>2019-05-12T08:48:47Z</time>
      </trkpt>
      <trkpt lat="38.7106290" lon="-0.6534860">
        <ele>834.2</ele>
        <time>2019-05-12T08:48:52Z</time>
      </trkpt>
      <trkpt lat="38.7106320" lon="-0.6534640">
        <ele>834.6</ele>
        <time>2019-05-12T08:48:53Z</time>
      </trkpt>
      <trkpt lat="38.7106140" lon="-0.6533490">
        <ele>835.6</ele>
        <time>2019-05-12T08:48:58Z</time>
      </trkpt>
      <trkpt lat="38.7105890" lon="-0.6533120">
        <ele>835.6</ele>
        <time>2019-05-12T08:49:00Z</time>
      </trkpt>
      <trkpt lat="38.7105430" lon="-0.6532370">
        <ele>836.0</ele>
        <time>2019-05-12T08:49:04Z</time>
      </trkpt>
      <trkpt lat="38.7104690" lon="-0.6531110">
        <ele>836.8</ele>
        <time>2019-05-12T08:49:10Z</time>
      </trkpt>
      <trkpt lat="38.7104430" lon="-0.6530640">
        <ele>836.8</ele>
        <time>2019-05-12T08:49:12Z</time>
      </trkpt>
      <trkpt lat="38.7103680" lon="-0.6529000">
        <ele>837.6</ele>
        <time>2019-05-12T08:49:19Z</time>
      </trkpt>
      <trkpt lat="38.7103590" lon="-0.6528740">
        <ele>837.8</ele>
        <time>2019-05-12T08:49:20Z</time>
      </trkpt>
      <trkpt lat="38.7103510" lon="-0.6527450">
        <ele>838.8</ele>
        <time>2019-05-12T08:49:25Z</time>
      </trkpt>
      <trkpt lat="38.7103510" lon="-0.6527210">
        <ele>839.0</ele>
        <time>2019-05-12T08:49:26Z</time>
      </trkpt>
      <trkpt lat="38.7103770" lon="-0.6525990">
        <ele>840.2</ele>
        <time>2019-05-12T08:49:31Z</time>
      </trkpt>
      <trkpt lat="38.7103910" lon="-0.6525540">
        <ele>840.4</ele>
        <time>2019-05-12T08:49:33Z</time>
      </trkpt>
      <trkpt lat="38.7104130" lon="-0.6524890">
        <ele>841.2</ele>
        <time>2019-05-12T08:49:36Z</time>
      </trkpt>
      <trkpt lat="38.7104330" lon="-0.6524250">
        <ele>841.6</ele>
        <time>2019-05-12T08:49:39Z</time>
      </trkpt>
      <trkpt lat="38.7104610" lon="-0.6523360">
        <ele>842.4</ele>
        <time>2019-05-12T08:49:43Z</time>
      </trkpt>
      <trkpt lat="38.7104910" lon="-0.6522210">
        <ele>843.6</ele>
        <time>2019-05-12T08:49:48Z</time>
      </trkpt>
      <trkpt lat="38.7105080" lon="-0.6521530">
        <ele>844.6</ele>
        <time>2019-05-12T08:49:51Z</time>
      </trkpt>
      <trkpt lat="38.7105320" lon="-0.6520650">
        <ele>845.8</ele>
        <time>2019-05-12T08:49:55Z</time>
      </trkpt>
      <trkpt lat="38.7105370" lon="-0.6520420">
        <ele>845.8</ele>
        <time>2019-05-12T08:49:56Z</time>
      </trkpt>
      <trkpt lat="38.7105650" lon="-0.6519480">
        <ele>846.8</ele>
        <time>2019-05-12T08:50:00Z</time>
      </trkpt>
      <trkpt lat="38.7106020" lon="-0.6518590">
        <ele>847.8</ele>
        <time>2019-05-12T08:50:04Z</time>
      </trkpt>
      <trkpt lat="38.7106090" lon="-0.6518380">
        <ele>848.0</ele>
        <time>2019-05-12T08:50:05Z</time>
      </trkpt>
      <trkpt lat="38.7106350" lon="-0.6517180">
        <ele>849.0</ele>
        <time>2019-05-12T08:50:10Z</time>
      </trkpt>
      <trkpt lat="38.7106440" lon="-0.6516960">
        <ele>849.4</ele>
        <time>2019-05-12T08:50:11Z</time>
      </trkpt>
      <trkpt lat="38.7106680" lon="-0.6516220">
        <ele>850.2</ele>
        <time>2019-05-12T08:50:14Z</time>
      </trkpt>
      <trkpt lat="38.7107230" lon="-0.6514850">
        <ele>851.4</ele>
        <time>2019-05-12T08:50:19Z</time>
      </trkpt>
      <trkpt lat="38.7108190" lon="-0.6513860">
        <ele>851.8</ele>
        <time>2019-05-12T08:50:24Z</time>
      </trkpt>
      <trkpt lat="38.7108980" lon="-0.6512980">
        <ele>852.6</ele>
        <time>2019-05-12T08:50:28Z</time>
      </trkpt>
      <trkpt lat="38.7109180" lon="-0.6512740">
        <ele>852.6</ele>
        <time>2019-05-12T08:50:29Z</time>
      </trkpt>
      <trkpt lat="38.7110650" lon="-0.6511100">
        <ele>853.0</ele>
        <time>2019-05-12T08:50:36Z</time>
      </trkpt>
      <trkpt lat="38.7112340" lon="-0.6509170">
        <ele>853.0</ele>
        <time>2019-05-12T08:50:43Z</time>
      </trkpt>
      <trkpt lat="38.7113670" lon="-0.6507640">
        <ele>853.8</ele>
        <time>2019-05-12T08:50:48Z</time>
      </trkpt>
      <trkpt lat="38.7114530" lon="-0.6506720">
        <ele>853.8</ele>
        <time>2019-05-12T08:50:51Z</time>
      </trkpt>
      <trkpt lat="38.7116880" lon="-0.6504020">
        <ele>853.0</ele>
        <time>2019-05-12T08:50:58Z</time>
      </trkpt>
      <trkpt lat="38.7117260" lon="-0.6503590">
        <ele>852.6</ele>
        <time>2019-05-12T08:50:59Z</time>
      </trkpt>
      <trkpt lat="38.7118800" lon="-0.6501880">
        <ele>851.6</ele>
        <time>2019-05-12T08:51:03Z</time>
      </trkpt>
      <trkpt lat="38.7120350" lon="-0.6500150">
        <ele>851.0</ele>
        <time>2019-05-12T08:51:07Z</time>
      </trkpt>
      <trkpt lat="38.7123750" lon="-0.6496430">
        <ele>850.8</ele>
        <time>2019-05-12T08:51:16Z</time>
      </trkpt>
      <trkpt lat="38.7127460" lon="-0.6493110">
        <ele>850.8</ele>
        <time>2019-05-12T08:51:25Z</time>
      </trkpt>
      <trkpt lat="38.7128340" lon="-0.6492400">
        <ele>850.4</ele>
        <time>2019-05-12T08:51:27Z</time>
      </trkpt>
      <trkpt lat="38.7130440" lon="-0.6490740">
        <ele>850.4</ele>
        <time>2019-05-12T08:51:32Z</time>
      </trkpt>
      <trkpt lat="38.7133970" lon="-0.6488100">
        <ele>850.2</ele>
        <time>2019-05-12T08:51:40Z</time>
      </trkpt>
      <trkpt lat="38.7137170" lon="-0.6485720">
        <ele>851.2</ele>
        <time>2019-05-12T08:51:48Z</time>
      </trkpt>
      <trkpt lat="38.7140660" lon="-0.6483140">
        <ele>851.4</ele>
        <time>2019-05-12T08:51:57Z</time>
      </trkpt>
      <trkpt lat="38.7141470" lon="-0.6482530">
        <ele>851.6</ele>
        <time>2019-05-12T08:51:59Z</time>
      </trkpt>
      <trkpt lat="38.7144540" lon="-0.6480170">
        <ele>851.6</ele>
        <time>2019-05-12T08:52:06Z</time>
      </trkpt>
      <trkpt lat="38.7146680" lon="-0.6478570">
        <ele>851.6</ele>
        <time>2019-05-12T08:52:11Z</time>
      </trkpt>
      <trkpt lat="38.7147740" lon="-0.6477530">
        <ele>851.2</ele>
        <time>2019-05-12T08:52:14Z</time>
      </trkpt>
      <trkpt lat="38.7148100" lon="-0.6476490">
        <ele>851.2</ele>
        <time>2019-05-12T08:52:16Z</time>
      </trkpt>
      <trkpt lat="38.7149200" lon="-0.6475270">
        <ele>852.4</ele>
        <time>2019-05-12T08:52:20Z</time>
      </trkpt>
      <trkpt lat="38.7149600" lon="-0.6475360">
        <ele>852.6</ele>
        <time>2019-05-12T08:52:21Z</time>
      </trkpt>
      <trkpt lat="38.7150430" lon="-0.6475740">
        <ele>852.6</ele>
        <time>2019-05-12T08:52:23Z</time>
      </trkpt>
      <trkpt lat="38.7150880" lon="-0.6476010">
        <ele>852.0</ele>
        <time>2019-05-12T08:52:24Z</time>
      </trkpt>
      <trkpt lat="38.7151340" lon="-0.6476290">
        <ele>851.6</ele>
        <time>2019-05-12T08:52:25Z</time>
      </trkpt>
      <trkpt lat="38.7152200" lon="-0.6476940">
        <ele>850.6</ele>
        <time>2019-05-12T08:52:27Z</time>
      </trkpt>
      <trkpt lat="38.7152630" lon="-0.6477250">
        <ele>850.4</ele>
        <time>2019-05-12T08:52:28Z</time>
      </trkpt>
      <trkpt lat="38.7156200" lon="-0.6480090">
        <ele>849.4</ele>
        <time>2019-05-12T08:52:36Z</time>
      </trkpt>
      <trkpt lat="38.7157580" lon="-0.6480810">
        <ele>849.6</ele>
        <time>2019-05-12T08:52:39Z</time>
      </trkpt>
      <trkpt lat="38.7157900" lon="-0.6480780">
        <ele>849.8</ele>
        <time>2019-05-12T08:52:40Z</time>
      </trkpt>
      <trkpt lat="38.7158960" lon="-0.6481670">
        <ele>849.8</ele>
        <time>2019-05-12T08:52:43Z</time>
      </trkpt>
      <trkpt lat="38.7161050" lon="-0.6483260">
        <ele>849.4</ele>
        <time>2019-05-12T08:52:48Z</time>
      </trkpt>
      <trkpt lat="38.7163030" lon="-0.6484710">
        <ele>850.4</ele>
        <time>2019-05-12T08:52:54Z</time>
      </trkpt>
      <trkpt lat="38.7163360" lon="-0.6484990">
        <ele>850.4</ele>
        <time>2019-05-12T08:52:55Z</time>
      </trkpt>
      <trkpt lat="38.7166220" lon="-0.6487320">
        <ele>851.2</ele>
        <time>2019-05-12T08:53:03Z</time>
      </trkpt>
      <trkpt lat="38.7166590" lon="-0.6487580">
        <ele>851.2</ele>
        <time>2019-05-12T08:53:04Z</time>
      </trkpt>
      <trkpt lat="38.7167690" lon="-0.6488340">
        <ele>851.4</ele>
        <time>2019-05-12T08:53:07Z</time>
      </trkpt>
      <trkpt lat="38.7168330" lon="-0.6488920">
        <ele>852.4</ele>
        <time>2019-05-12T08:53:09Z</time>
      </trkpt>
      <trkpt lat="38.7168630" lon="-0.6489220">
        <ele>852.6</ele>
        <time>2019-05-12T08:53:10Z</time>
      </trkpt>
      <trkpt lat="38.7170340" lon="-0.6491540">
        <ele>852.2</ele>
        <time>2019-05-12T08:53:16Z</time>
      </trkpt>
      <trkpt lat="38.7171470" lon="-0.6493040">
        <ele>853.6</ele>
        <time>2019-05-12T08:53:21Z</time>
      </trkpt>
      <trkpt lat="38.7171720" lon="-0.6493280">
        <ele>853.6</ele>
        <time>2019-05-12T08:53:22Z</time>
      </trkpt>
      <trkpt lat="38.7172960" lon="-0.6494060">
        <ele>853.6</ele>
        <time>2019-05-12T08:53:27Z</time>
      </trkpt>
      <trkpt lat="38.7174520" lon="-0.6493780">
        <ele>854.0</ele>
        <time>2019-05-12T08:53:32Z</time>
      </trkpt>
      <trkpt lat="38.7176190" lon="-0.6493140">
        <ele>855.0</ele>
        <time>2019-05-12T08:53:38Z</time>
      </trkpt>
      <trkpt lat="38.7176430" lon="-0.6493070">
        <ele>855.2</ele>
        <time>2019-05-12T08:53:39Z</time>
      </trkpt>
      <trkpt lat="38.7177260" lon="-0.6492580">
        <ele>856.0</ele>
        <time>2019-05-12T08:53:43Z</time>
      </trkpt>
      <trkpt lat="38.7177890" lon="-0.6492200">
        <ele>856.6</ele>
        <time>2019-05-12T08:53:46Z</time>
      </trkpt>
      <trkpt lat="38.7178610" lon="-0.6491880">
        <ele>857.2</ele>
        <time>2019-05-12T08:53:49Z</time>
      </trkpt>
      <trkpt lat="38.7179640" lon="-0.6491220">
        <ele>857.4</ele>
        <time>2019-05-12T08:53:53Z</time>
      </trkpt>
      <trkpt lat="38.7179920" lon="-0.6491040">
        <ele>857.4</ele>
        <time>2019-05-12T08:53:54Z</time>
      </trkpt>
      <trkpt lat="38.7181350" lon="-0.6490060">
        <ele>858.0</ele>
        <time>2019-05-12T08:53:59Z</time>
      </trkpt>
      <trkpt lat="38.7182020" lon="-0.6489340">
        <ele>858.2</ele>
        <time>2019-05-12T08:54:02Z</time>
      </trkpt>
      <trkpt lat="38.7182650" lon="-0.6488560">
        <ele>859.2</ele>
        <time>2019-05-12T08:54:05Z</time>
      </trkpt>
      <trkpt lat="38.7182840" lon="-0.6488290">
        <ele>859.4</ele>
        <time>2019-05-12T08:54:06Z</time>
      </trkpt>
      <trkpt lat="38.7184100" lon="-0.6486120">
        <ele>860.6</ele>
        <time>2019-05-12T08:54:13Z</time>
      </trkpt>
      <trkpt lat="38.7184980" lon="-0.6484140">
        <ele>861.4</ele>
        <time>2019-05-12T08:54:19Z</time>
      </trkpt>
      <trkpt lat="38.7185130" lon="-0.6483780">
        <ele>861.6</ele>
        <time>2019-05-12T08:54:20Z</time>
      </trkpt>
      <trkpt lat="38.7185990" lon="-0.6481520">
        <ele>862.4</ele>
        <time>2019-05-12T08:54:26Z</time>
      </trkpt>
      <trkpt lat="38.7186300" lon="-0.6480720">
        <ele>862.8</ele>
        <time>2019-05-12T08:54:28Z</time>
      </trkpt>
      <trkpt lat="38.7187240" lon="-0.6478060">
        <ele>862.8</ele>
        <time>2019-05-12T08:54:34Z</time>
      </trkpt>
      <trkpt lat="38.7187580" lon="-0.6477150">
        <ele>862.8</ele>
        <time>2019-05-12T08:54:36Z</time>
      </trkpt>
      <trkpt lat="38.7187920" lon="-0.6476180">
        <ele>862.8</ele>
        <time>2019-05-12T08:54:38Z</time>
      </trkpt>
      <trkpt lat="38.7188050" lon="-0.6475690">
        <ele>862.6</ele>
        <time>2019-05-12T08:54:39Z</time>
      </trkpt>
      <trkpt lat="38.7189200" lon="-0.6472340">
        <ele>863.0</ele>
        <time>2019-05-12T08:54:46Z</time>
      </trkpt>
      <trkpt lat="38.7190250" lon="-0.6469890">
        <ele>863.0</ele>
        <time>2019-05-12T08:54:51Z</time>
      </trkpt>
      <trkpt lat="38.7190420" lon="-0.6469380">
        <ele>863.2</ele>
        <time>2019-05-12T08:54:52Z</time>
      </trkpt>
      <trkpt lat="38.7190540" lon="-0.6468840">
        <ele>863.2</ele>
        <time>2019-05-12T08:54:53Z</time>
      </trkpt>
      <trkpt lat="38.7190850" lon="-0.6467860">
        <ele>863.4</ele>
        <time>2019-05-12T08:54:55Z</time>
      </trkpt>
      <trkpt lat="38.7191260" lon="-0.6466920">
        <ele>863.4</ele>
        <time>2019-05-12T08:54:57Z</time>
      </trkpt>
      <trkpt lat="38.7192030" lon="-0.6465000">
        <ele>864.0</ele>
        <time>2019-05-12T08:55:01Z</time>
      </trkpt>
      <trkpt lat="38.7192480" lon="-0.6463670">
        <ele>864.2</ele>
        <time>2019-05-12T08:55:04Z</time>
      </trkpt>
      <trkpt lat="38.7193530" lon="-0.6461290">
        <ele>864.8</ele>
        <time>2019-05-12T08:55:09Z</time>
      </trkpt>
      <trkpt lat="38.7195000" lon="-0.6457590">
        <ele>865.0</ele>
        <time>2019-05-12T08:55:16Z</time>
      </trkpt>
      <trkpt lat="38.7195190" lon="-0.6457070">
        <ele>865.0</ele>
        <time>2019-05-12T08:55:17Z</time>
      </trkpt>
      <trkpt lat="38.7195630" lon="-0.6456050">
        <ele>865.2</ele>
        <time>2019-05-12T08:55:19Z</time>
      </trkpt>
      <trkpt lat="38.7196230" lon="-0.6454440">
        <ele>865.4</ele>
        <time>2019-05-12T08:55:22Z</time>
      </trkpt>
      <trkpt lat="38.7196380" lon="-0.6453870">
        <ele>865.6</ele>
        <time>2019-05-12T08:55:23Z</time>
      </trkpt>
      <trkpt lat="38.7196790" lon="-0.6452240">
        <ele>865.6</ele>
        <time>2019-05-12T08:55:26Z</time>
      </trkpt>
      <trkpt lat="38.7197020" lon="-0.6451760">
        <ele>866.0</ele>
        <time>2019-05-12T08:55:27Z</time>
      </trkpt>
      <trkpt lat="38.7197410" lon="-0.6450720">
        <ele>866.2</ele>
        <time>2019-05-12T08:55:29Z</time>
      </trkpt>
      <trkpt lat="38.7198390" lon="-0.6448000">
        <ele>866.2</ele>
        <time>2019-05-12T08:55:34Z</time>
      </trkpt>
      <trkpt lat="38.7199410" lon="-0.6444780">
        <ele>866.4</ele>
        <time>2019-05-12T08:55:40Z</time>
      </trkpt>
      <trkpt lat="38.7199620" lon="-0.6444320">
        <ele>866.6</ele>
        <time>2019-05-12T08:55:41Z</time>
      </trkpt>
      <trkpt lat="38.7200090" lon="-0.6443490">
        <ele>867.0</ele>
        <time>2019-05-12T08:55:43Z</time>
      </trkpt>
      <trkpt lat="38.7200350" lon="-0.6443120">
        <ele>867.4</ele>
        <time>2019-05-12T08:55:44Z</time>
      </trkpt>
      <trkpt lat="38.7201360" lon="-0.6441770">
        <ele>868.0</ele>
        <time>2019-05-12T08:55:48Z</time>
      </trkpt>
      <trkpt lat="38.7202600" lon="-0.6439730">
        <ele>868.2</ele>
        <time>2019-05-12T08:55:53Z</time>
      </trkpt>
      <trkpt lat="38.7203010" lon="-0.6438870">
        <ele>868.4</ele>
        <time>2019-05-12T08:55:55Z</time>
      </trkpt>
      <trkpt lat="38.7203380" lon="-0.6437950">
        <ele>868.6</ele>
        <time>2019-05-12T08:55:57Z</time>
      </trkpt>
      <trkpt lat="38.7204230" lon="-0.6435840">
        <ele>869.4</ele>
        <time>2019-05-12T08:56:02Z</time>
      </trkpt>
      <trkpt lat="38.7205700" lon="-0.6434320">
        <ele>869.6</ele>
        <time>2019-05-12T08:56:07Z</time>
      </trkpt>
      <trkpt lat="38.7206000" lon="-0.6434000">
        <ele>869.8</ele>
        <time>2019-05-12T08:56:08Z</time>
      </trkpt>
      <trkpt lat="38.7207720" lon="-0.6432160">
        <ele>870.6</ele>
        <time>2019-05-12T08:56:14Z</time>
      </trkpt>
      <trkpt lat="38.7208280" lon="-0.6431570">
        <ele>871.0</ele>
        <time>2019-05-12T08:56:16Z</time>
      </trkpt>
      <trkpt lat="38.7210000" lon="-0.6429550">
        <ele>871.4</ele>
        <time>2019-05-12T08:56:22Z</time>
      </trkpt>
      <trkpt lat="38.7210860" lon="-0.6428460">
        <ele>872.0</ele>
        <time>2019-05-12T08:56:25Z</time>
      </trkpt>
      <trkpt lat="38.7211920" lon="-0.6426790">
        <ele>872.4</ele>
        <time>2019-05-12T08:56:29Z</time>
      </trkpt>
      <trkpt lat="38.7212550" lon="-0.6425440">
        <ele>872.4</ele>
        <time>2019-05-12T08:56:32Z</time>
      </trkpt>
      <trkpt lat="38.7213260" lon="-0.6423560">
        <ele>872.2</ele>
        <time>2019-05-12T08:56:36Z</time>
      </trkpt>
      <trkpt lat="38.7214390" lon="-0.6420220">
        <ele>873.0</ele>
        <time>2019-05-12T08:56:43Z</time>
      </trkpt>
      <trkpt lat="38.7215110" lon="-0.6419000">
        <ele>873.0</ele>
        <time>2019-05-12T08:56:46Z</time>
      </trkpt>
      <trkpt lat="38.7215330" lon="-0.6418560">
        <ele>873.2</ele>
        <time>2019-05-12T08:56:47Z</time>
      </trkpt>
      <trkpt lat="38.7215720" lon="-0.6417620">
        <ele>873.4</ele>
        <time>2019-05-12T08:56:49Z</time>
      </trkpt>
      <trkpt lat="38.7216660" lon="-0.6415690">
        <ele>873.4</ele>
        <time>2019-05-12T08:56:53Z</time>
      </trkpt>
      <trkpt lat="38.7218520" lon="-0.6412850">
        <ele>872.8</ele>
        <time>2019-05-12T08:56:59Z</time>
      </trkpt>
      <trkpt lat="38.7220000" lon="-0.6410750">
        <ele>872.8</ele>
        <time>2019-05-12T08:57:04Z</time>
      </trkpt>
      <trkpt lat="38.7220550" lon="-0.6409670">
        <ele>871.8</ele>
        <time>2019-05-12T08:57:06Z</time>
      </trkpt>
      <trkpt lat="38.7220980" lon="-0.6408450">
        <ele>871.4</ele>
        <time>2019-05-12T08:57:08Z</time>
      </trkpt>
      <trkpt lat="38.7221110" lon="-0.6407780">
        <ele>871.6</ele>
        <time>2019-05-12T08:57:09Z</time>
      </trkpt>
      <trkpt lat="38.7221360" lon="-0.6406250">
        <ele>871.2</ele>
        <time>2019-05-12T08:57:11Z</time>
      </trkpt>
      <trkpt lat="38.7221490" lon="-0.6405420">
        <ele>870.8</ele>
        <time>2019-05-12T08:57:12Z</time>
      </trkpt>
      <trkpt lat="38.7221530" lon="-0.6404570">
        <ele>870.4</ele>
        <time>2019-05-12T08:57:13Z</time>
      </trkpt>
      <trkpt lat="38.7221470" lon="-0.6403720">
        <ele>870.2</ele>
        <time>2019-05-12T08:57:14Z</time>
      </trkpt>
      <trkpt lat="38.7221650" lon="-0.6402760">
        <ele>870.0</ele>
        <time>2019-05-12T08:57:16Z</time>
      </trkpt>
      <trkpt lat="38.7221810" lon="-0.6402600">
        <ele>870.4</ele>
        <time>2019-05-12T08:57:17Z</time>
      </trkpt>
      <trkpt lat="38.7222220" lon="-0.6402320">
        <ele>871.0</ele>
        <time>2019-05-12T08:57:21Z</time>
      </trkpt>
      <trkpt lat="38.7221930" lon="-0.6402020">
        <ele>871.4</ele>
        <time>2019-05-12T08:57:24Z</time>
      </trkpt>
      <trkpt lat="38.7222480" lon="-0.6401810">
        <ele>871.0</ele>
        <time>2019-05-12T08:57:28Z</time>
      </trkpt>
      <trkpt lat="38.7222720" lon="-0.6401880">
        <ele>871.2</ele>
        <time>2019-05-12T08:57:29Z</time>
      </trkpt>
      <trkpt lat="38.7222950" lon="-0.6401770">
        <ele>871.0</ele>
        <time>2019-05-12T08:57:30Z</time>
      </trkpt>
      <trkpt lat="38.7223440" lon="-0.6401550">
        <ele>871.2</ele>
        <time>2019-05-12T08:57:33Z</time>
      </trkpt>
      <trkpt lat="38.7224240" lon="-0.6400870">
        <ele>871.4</ele>
        <time>2019-05-12T08:57:37Z</time>
      </trkpt>
      <trkpt lat="38.7223450" lon="-0.6401290">
        <ele>871.4</ele>
        <time>2019-05-12T08:57:59Z</time>
      </trkpt>
      <trkpt lat="38.7222790" lon="-0.6401560">
        <ele>871.2</ele>
        <time>2019-05-12T08:58:04Z</time>
      </trkpt>
      <trkpt lat="38.7221820" lon="-0.6402230">
        <ele>871.2</ele>
        <time>2019-05-12T08:58:08Z</time>
      </trkpt>
      <trkpt lat="38.7221490" lon="-0.6402920">
        <ele>870.8</ele>
        <time>2019-05-12T08:58:10Z</time>
      </trkpt>
      <trkpt lat="38.7221380" lon="-0.6403870">
        <ele>870.4</ele>
        <time>2019-05-12T08:58:12Z</time>
      </trkpt>
      <trkpt lat="38.7221290" lon="-0.6406530">
        <ele>870.2</ele>
        <time>2019-05-12T08:58:18Z</time>
      </trkpt>
      <trkpt lat="38.7220880" lon="-0.6408610">
        <ele>870.8</ele>
        <time>2019-05-12T08:58:24Z</time>
      </trkpt>
      <trkpt lat="38.7221110" lon="-0.6408900">
        <ele>871.4</ele>
        <time>2019-05-12T08:58:26Z</time>
      </trkpt>
      <trkpt lat="38.7221220" lon="-0.6409060">
        <ele>872.0</ele>
        <time>2019-05-12T08:58:27Z</time>
      </trkpt>
      <trkpt lat="38.7221350" lon="-0.6409080">
        <ele>872.2</ele>
        <time>2019-05-12T08:58:28Z</time>
      </trkpt>
      <trkpt lat="38.7221770" lon="-0.6408590">
        <ele>872.6</ele>
        <time>2019-05-12T08:58:32Z</time>
      </trkpt>
      <trkpt lat="38.7222010" lon="-0.6408020">
        <ele>872.4</ele>
        <time>2019-05-12T08:58:35Z</time>
      </trkpt>
      <trkpt lat="38.7222360" lon="-0.6407190">
        <ele>872.2</ele>
        <time>2019-05-12T08:58:38Z</time>
      </trkpt>
      <trkpt lat="38.7222770" lon="-0.6406330">
        <ele>872.4</ele>
        <time>2019-05-12T08:58:41Z</time>
      </trkpt>
      <trkpt lat="38.7222860" lon="-0.6405980">
        <ele>872.4</ele>
        <time>2019-05-12T08:58:42Z</time>
      </trkpt>
      <trkpt lat="38.7223430" lon="-0.6404520">
        <ele>872.4</ele>
        <time>2019-05-12T08:58:46Z</time>
      </trkpt>
      <trkpt lat="38.7224310" lon="-0.6403790">
        <ele>872.8</ele>
        <time>2019-05-12T08:58:50Z</time>
      </trkpt>
      <trkpt lat="38.7224760" lon="-0.6403310">
        <ele>873.0</ele>
        <time>2019-05-12T08:58:52Z</time>
      </trkpt>
      <trkpt lat="38.7225030" lon="-0.6403090">
        <ele>873.0</ele>
        <time>2019-05-12T08:58:53Z</time>
      </trkpt>
      <trkpt lat="38.7225310" lon="-0.6402920">
        <ele>872.8</ele>
        <time>2019-05-12T08:58:54Z</time>
      </trkpt>
      <trkpt lat="38.7226990" lon="-0.6401580">
        <ele>872.6</ele>
        <time>2019-05-12T08:59:00Z</time>
      </trkpt>
      <trkpt lat="38.7227290" lon="-0.6401490">
        <ele>872.8</ele>
        <time>2019-05-12T08:59:01Z</time>
      </trkpt>
      <trkpt lat="38.7227980" lon="-0.6400970">
        <ele>873.2</ele>
        <time>2019-05-12T08:59:04Z</time>
      </trkpt>
      <trkpt lat="38.7229160" lon="-0.6399870">
        <ele>872.8</ele>
        <time>2019-05-12T08:59:08Z</time>
      </trkpt>
      <trkpt lat="38.7229970" lon="-0.6398890">
        <ele>872.8</ele>
        <time>2019-05-12T08:59:11Z</time>
      </trkpt>
      <trkpt lat="38.7230590" lon="-0.6398110">
        <ele>872.8</ele>
        <time>2019-05-12T08:59:13Z</time>
      </trkpt>
      <trkpt lat="38.7231300" lon="-0.6397420">
        <ele>872.4</ele>
        <time>2019-05-12T08:59:15Z</time>
      </trkpt>
      <trkpt lat="38.7232530" lon="-0.6396150">
        <ele>872.8</ele>
        <time>2019-05-12T08:59:19Z</time>
      </trkpt>
      <trkpt lat="38.7233850" lon="-0.6395140">
        <ele>872.8</ele>
        <time>2019-05-12T08:59:23Z</time>
      </trkpt>
      <trkpt lat="38.7234140" lon="-0.6394780">
        <ele>872.6</ele>
        <time>2019-05-12T08:59:24Z</time>
      </trkpt>
      <trkpt lat="38.7235330" lon="-0.6394070">
        <ele>872.4</ele>
        <time>2019-05-12T08:59:27Z</time>
      </trkpt>
      <trkpt lat="38.7237010" lon="-0.6392540">
        <ele>872.8</ele>
        <time>2019-05-12T08:59:32Z</time>
      </trkpt>
      <trkpt lat="38.7237820" lon="-0.6391460">
        <ele>872.8</ele>
        <time>2019-05-12T08:59:35Z</time>
      </trkpt>
      <trkpt lat="38.7238360" lon="-0.6390570">
        <ele>872.8</ele>
        <time>2019-05-12T08:59:37Z</time>
      </trkpt>
      <trkpt lat="38.7239670" lon="-0.6388830">
        <ele>873.0</ele>
        <time>2019-05-12T08:59:41Z</time>
      </trkpt>
      <trkpt lat="38.7240080" lon="-0.6387760">
        <ele>873.0</ele>
        <time>2019-05-12T08:59:43Z</time>
      </trkpt>
      <trkpt lat="38.7240640" lon="-0.6386820">
        <ele>873.0</ele>
        <time>2019-05-12T08:59:45Z</time>
      </trkpt>
      <trkpt lat="38.7242180" lon="-0.6384580">
        <ele>873.8</ele>
        <time>2019-05-12T08:59:51Z</time>
      </trkpt>
      <trkpt lat="38.7242480" lon="-0.6384300">
        <ele>874.2</ele>
        <time>2019-05-12T08:59:52Z</time>
      </trkpt>
      <trkpt lat="38.7244070" lon="-0.6382920">
        <ele>874.4</ele>
        <time>2019-05-12T08:59:57Z</time>
      </trkpt>
      <trkpt lat="38.7245590" lon="-0.6382450">
        <ele>874.4</ele>
        <time>2019-05-12T09:00:01Z</time>
      </trkpt>
      <trkpt lat="38.7246370" lon="-0.6382300">
        <ele>875.2</ele>
        <time>2019-05-12T09:00:04Z</time>
      </trkpt>
      <trkpt lat="38.7247300" lon="-0.6381980">
        <ele>875.8</ele>
        <time>2019-05-12T09:00:07Z</time>
      </trkpt>
      <trkpt lat="38.7248770" lon="-0.6381390">
        <ele>876.2</ele>
        <time>2019-05-12T09:00:11Z</time>
      </trkpt>
      <trkpt lat="38.7249050" lon="-0.6381060">
        <ele>875.8</ele>
        <time>2019-05-12T09:00:12Z</time>
      </trkpt>
      <trkpt lat="38.7249690" lon="-0.6380290">
        <ele>875.8</ele>
        <time>2019-05-12T09:00:14Z</time>
      </trkpt>
      <trkpt lat="38.7250720" lon="-0.6379050">
        <ele>875.6</ele>
        <time>2019-05-12T09:00:17Z</time>
      </trkpt>
      <trkpt lat="38.7251700" lon="-0.6378420">
        <ele>875.0</ele>
        <time>2019-05-12T09:00:19Z</time>
      </trkpt>
      <trkpt lat="38.7252170" lon="-0.6377990">
        <ele>874.6</ele>
        <time>2019-05-12T09:00:20Z</time>
      </trkpt>
      <trkpt lat="38.7252670" lon="-0.6377560">
        <ele>874.4</ele>
        <time>2019-05-12T09:00:21Z</time>
      </trkpt>
      <trkpt lat="38.7253590" lon="-0.6376610">
        <ele>874.2</ele>
        <time>2019-05-12T09:00:23Z</time>
      </trkpt>
      <trkpt lat="38.7254450" lon="-0.6375610">
        <ele>874.0</ele>
        <time>2019-05-12T09:00:25Z</time>
      </trkpt>
      <trkpt lat="38.7255190" lon="-0.6374390">
        <ele>874.6</ele>
        <time>2019-05-12T09:00:27Z</time>
      </trkpt>
      <trkpt lat="38.7258220" lon="-0.6370320">
        <ele>874.2</ele>
        <time>2019-05-12T09:00:34Z</time>
      </trkpt>
      <trkpt lat="38.7260690" lon="-0.6367180">
        <ele>873.0</ele>
        <time>2019-05-12T09:00:39Z</time>
      </trkpt>
      <trkpt lat="38.7261240" lon="-0.6366450">
        <ele>872.8</ele>
        <time>2019-05-12T09:00:40Z</time>
      </trkpt>
      <trkpt lat="38.7261880" lon="-0.6365870">
        <ele>871.8</ele>
        <time>2019-05-12T09:00:41Z</time>
      </trkpt>
      <trkpt lat="38.7263110" lon="-0.6364720">
        <ele>870.6</ele>
        <time>2019-05-12T09:00:43Z</time>
      </trkpt>
      <trkpt lat="38.7263610" lon="-0.6363930">
        <ele>870.6</ele>
        <time>2019-05-12T09:00:44Z</time>
      </trkpt>
      <trkpt lat="38.7264120" lon="-0.6363210">
        <ele>870.0</ele>
        <time>2019-05-12T09:00:45Z</time>
      </trkpt>
      <trkpt lat="38.7265750" lon="-0.6360900">
        <ele>870.6</ele>
        <time>2019-05-12T09:00:49Z</time>
      </trkpt>
      <trkpt lat="38.7266270" lon="-0.6360040">
        <ele>871.8</ele>
        <time>2019-05-12T09:00:51Z</time>
      </trkpt>
      <trkpt lat="38.7266870" lon="-0.6358570">
        <ele>872.8</ele>
        <time>2019-05-12T09:00:54Z</time>
      </trkpt>
      <trkpt lat="38.7267060" lon="-0.6358070">
        <ele>873.0</ele>
        <time>2019-05-12T09:00:55Z</time>
      </trkpt>
      <trkpt lat="38.7267770" lon="-0.6355940">
        <ele>874.4</ele>
        <time>2019-05-12T09:00:59Z</time>
      </trkpt>
      <trkpt lat="38.7268070" lon="-0.6354710">
        <ele>874.4</ele>
        <time>2019-05-12T09:01:01Z</time>
      </trkpt>
      <trkpt lat="38.7269020" lon="-0.6350340">
        <ele>874.2</ele>
        <time>2019-05-12T09:01:08Z</time>
      </trkpt>
      <trkpt lat="38.7269570" lon="-0.6347340">
        <ele>875.8</ele>
        <time>2019-05-12T09:01:14Z</time>
      </trkpt>
      <trkpt lat="38.7270110" lon="-0.6346450">
        <ele>877.2</ele>
        <time>2019-05-12T09:01:17Z</time>
      </trkpt>
      <trkpt lat="38.7270440" lon="-0.6345860">
        <ele>878.2</ele>
        <time>2019-05-12T09:01:19Z</time>
      </trkpt>
      <trkpt lat="38.7270610" lon="-0.6345530">
        <ele>878.8</ele>
        <time>2019-05-12T09:01:20Z</time>
      </trkpt>
      <trkpt lat="38.7271030" lon="-0.6343940">
        <ele>879.8</ele>
        <time>2019-05-12T09:01:24Z</time>
      </trkpt>
      <trkpt lat="38.7271460" lon="-0.6342210">
        <ele>879.8</ele>
        <time>2019-05-12T09:01:28Z</time>
      </trkpt>
      <trkpt lat="38.7272240" lon="-0.6340290">
        <ele>880.4</ele>
        <time>2019-05-12T09:01:33Z</time>
      </trkpt>
      <trkpt lat="38.7273360" lon="-0.6338020">
        <ele>880.2</ele>
        <time>2019-05-12T09:01:38Z</time>
      </trkpt>
      <trkpt lat="38.7273970" lon="-0.6337220">
        <ele>880.2</ele>
        <time>2019-05-12T09:01:40Z</time>
      </trkpt>
      <trkpt lat="38.7274360" lon="-0.6336810">
        <ele>880.0</ele>
        <time>2019-05-12T09:01:41Z</time>
      </trkpt>
      <trkpt lat="38.7276050" lon="-0.6334980">
        <ele>879.0</ele>
        <time>2019-05-12T09:01:45Z</time>
      </trkpt>
      <trkpt lat="38.7277680" lon="-0.6333790">
        <ele>878.8</ele>
        <time>2019-05-12T09:01:48Z</time>
      </trkpt>
      <trkpt lat="38.7278730" lon="-0.6332940">
        <ele>878.6</ele>
        <time>2019-05-12T09:01:50Z</time>
      </trkpt>
      <trkpt lat="38.7282140" lon="-0.6329790">
        <ele>878.8</ele>
        <time>2019-05-12T09:01:57Z</time>
      </trkpt>
      <trkpt lat="38.7282880" lon="-0.6328630">
        <ele>878.6</ele>
        <time>2019-05-12T09:01:59Z</time>
      </trkpt>
      <trkpt lat="38.7283420" lon="-0.6327320">
        <ele>878.8</ele>
        <time>2019-05-12T09:02:01Z</time>
      </trkpt>
      <trkpt lat="38.7283740" lon="-0.6326770">
        <ele>878.8</ele>
        <time>2019-05-12T09:02:02Z</time>
      </trkpt>
      <trkpt lat="38.7285230" lon="-0.6324760">
        <ele>878.4</ele>
        <time>2019-05-12T09:02:06Z</time>
      </trkpt>
      <trkpt lat="38.7287130" lon="-0.6323750">
        <ele>878.8</ele>
        <time>2019-05-12T09:02:10Z</time>
      </trkpt>
      <trkpt lat="38.7289210" lon="-0.6322430">
        <ele>879.6</ele>
        <time>2019-05-12T09:02:15Z</time>
      </trkpt>
      <trkpt lat="38.7290010" lon="-0.6320850">
        <ele>880.0</ele>
        <time>2019-05-12T09:02:18Z</time>
      </trkpt>
      <trkpt lat="38.7290490" lon="-0.6319690">
        <ele>880.2</ele>
        <time>2019-05-12T09:02:20Z</time>
      </trkpt>
      <trkpt lat="38.7292310" lon="-0.6316740">
        <ele>880.8</ele>
        <time>2019-05-12T09:02:26Z</time>
      </trkpt>
      <trkpt lat="38.7292680" lon="-0.6316410">
        <ele>881.0</ele>
        <time>2019-05-12T09:02:27Z</time>
      </trkpt>
      <trkpt lat="38.7294370" lon="-0.6315750">
        <ele>881.6</ele>
        <time>2019-05-12T09:02:31Z</time>
      </trkpt>
      <trkpt lat="38.7295780" lon="-0.6314210">
        <ele>881.8</ele>
        <time>2019-05-12T09:02:35Z</time>
      </trkpt>
      <trkpt lat="38.7296170" lon="-0.6313160">
        <ele>882.2</ele>
        <time>2019-05-12T09:02:37Z</time>
      </trkpt>
      <trkpt lat="38.7296460" lon="-0.6312050">
        <ele>882.4</ele>
        <time>2019-05-12T09:02:39Z</time>
      </trkpt>
      <trkpt lat="38.7296620" lon="-0.6311550">
        <ele>882.8</ele>
        <time>2019-05-12T09:02:40Z</time>
      </trkpt>
      <trkpt lat="38.7296830" lon="-0.6310590">
        <ele>883.2</ele>
        <time>2019-05-12T09:02:42Z</time>
      </trkpt>
      <trkpt lat="38.7297210" lon="-0.6308530">
        <ele>883.2</ele>
        <time>2019-05-12T09:02:46Z</time>
      </trkpt>
      <trkpt lat="38.7297390" lon="-0.6308040">
        <ele>883.0</ele>
        <time>2019-05-12T09:02:47Z</time>
      </trkpt>
      <trkpt lat="38.7298610" lon="-0.6305500">
        <ele>882.2</ele>
        <time>2019-05-12T09:02:52Z</time>
      </trkpt>
      <trkpt lat="38.7298950" lon="-0.6305030">
        <ele>882.4</ele>
        <time>2019-05-12T09:02:53Z</time>
      </trkpt>
      <trkpt lat="38.7299300" lon="-0.6304580">
        <ele>882.0</ele>
        <time>2019-05-12T09:02:54Z</time>
      </trkpt>
      <trkpt lat="38.7300700" lon="-0.6302790">
        <ele>881.6</ele>
        <time>2019-05-12T09:02:58Z</time>
      </trkpt>
      <trkpt lat="38.7303240" lon="-0.6299580">
        <ele>881.6</ele>
        <time>2019-05-12T09:03:05Z</time>
      </trkpt>
      <trkpt lat="38.7305760" lon="-0.6296830">
        <ele>882.6</ele>
        <time>2019-05-12T09:03:12Z</time>
      </trkpt>
      <trkpt lat="38.7306480" lon="-0.6296350">
        <ele>883.2</ele>
        <time>2019-05-12T09:03:14Z</time>
      </trkpt>
      <trkpt lat="38.7307550" lon="-0.6296020">
        <ele>884.2</ele>
        <time>2019-05-12T09:03:17Z</time>
      </trkpt>
      <trkpt lat="38.7307870" lon="-0.6295870">
        <ele>884.6</ele>
        <time>2019-05-12T09:03:18Z</time>
      </trkpt>
      <trkpt lat="38.7308900" lon="-0.6295470">
        <ele>885.8</ele>
        <time>2019-05-12T09:03:21Z</time>
      </trkpt>
      <trkpt lat="38.7309660" lon="-0.6295140">
        <ele>885.8</ele>
        <time>2019-05-12T09:03:23Z</time>
      </trkpt>
      <trkpt lat="38.7311650" lon="-0.6293990">
        <ele>887.0</ele>
        <time>2019-05-12T09:03:29Z</time>
      </trkpt>
      <trkpt lat="38.7312300" lon="-0.6293590">
        <ele>887.6</ele>
        <time>2019-05-12T09:03:31Z</time>
      </trkpt>
      <trkpt lat="38.7314010" lon="-0.6293340">
        <ele>887.6</ele>
        <time>2019-05-12T09:03:36Z</time>
      </trkpt>
      <trkpt lat="38.7314670" lon="-0.6293180">
        <ele>888.2</ele>
        <time>2019-05-12T09:03:38Z</time>
      </trkpt>
      <trkpt lat="38.7315490" lon="-0.6292530">
        <ele>889.4</ele>
        <time>2019-05-12T09:03:41Z</time>
      </trkpt>
      <trkpt lat="38.7317210" lon="-0.6290430">
        <ele>888.4</ele>
        <time>2019-05-12T09:03:47Z</time>
      </trkpt>
      <trkpt lat="38.7317810" lon="-0.6289590">
        <ele>888.2</ele>
        <time>2019-05-12T09:03:49Z</time>
      </trkpt>
      <trkpt lat="38.7319160" lon="-0.6287310">
        <ele>887.0</ele>
        <time>2019-05-12T09:03:53Z</time>
      </trkpt>
      <trkpt lat="38.7319960" lon="-0.6285980">
        <ele>886.0</ele>
        <time>2019-05-12T09:03:55Z</time>
      </trkpt>
      <trkpt lat="38.7320470" lon="-0.6285340">
        <ele>885.4</ele>
        <time>2019-05-12T09:03:56Z</time>
      </trkpt>
      <trkpt lat="38.7320970" lon="-0.6284580">
        <ele>884.8</ele>
        <time>2019-05-12T09:03:57Z</time>
      </trkpt>
      <trkpt lat="38.7321400" lon="-0.6283730">
        <ele>884.2</ele>
        <time>2019-05-12T09:03:58Z</time>
      </trkpt>
      <trkpt lat="38.7321860" lon="-0.6282840">
        <ele>883.4</ele>
        <time>2019-05-12T09:03:59Z</time>
      </trkpt>
      <trkpt lat="38.7322450" lon="-0.6281980">
        <ele>882.8</ele>
        <time>2019-05-12T09:04:00Z</time>
      </trkpt>
      <trkpt lat="38.7323050" lon="-0.6281150">
        <ele>881.8</ele>
        <time>2019-05-12T09:04:01Z</time>
      </trkpt>
      <trkpt lat="38.7323600" lon="-0.6280230">
        <ele>881.0</ele>
        <time>2019-05-12T09:04:02Z</time>
      </trkpt>
      <trkpt lat="38.7324150" lon="-0.6279330">
        <ele>880.2</ele>
        <time>2019-05-12T09:04:03Z</time>
      </trkpt>
      <trkpt lat="38.7324770" lon="-0.6278570">
        <ele>879.8</ele>
        <time>2019-05-12T09:04:04Z</time>
      </trkpt>
      <trkpt lat="38.7326170" lon="-0.6277190">
        <ele>878.6</ele>
        <time>2019-05-12T09:04:06Z</time>
      </trkpt>
      <trkpt lat="38.7326900" lon="-0.6276590">
        <ele>878.4</ele>
        <time>2019-05-12T09:04:07Z</time>
      </trkpt>
      <trkpt lat="38.7327640" lon="-0.6276040">
        <ele>878.4</ele>
        <time>2019-05-12T09:04:08Z</time>
      </trkpt>
      <trkpt lat="38.7328220" lon="-0.6275260">
        <ele>878.6</ele>
        <time>2019-05-12T09:04:09Z</time>
      </trkpt>
      <trkpt lat="38.7328980" lon="-0.6273270">
        <ele>877.8</ele>
        <time>2019-05-12T09:04:11Z</time>
      </trkpt>
      <trkpt lat="38.7329260" lon="-0.6272270">
        <ele>877.4</ele>
        <time>2019-05-12T09:04:12Z</time>
      </trkpt>
      <trkpt lat="38.7329860" lon="-0.6269010">
        <ele>876.6</ele>
        <time>2019-05-12T09:04:15Z</time>
      </trkpt>
      <trkpt lat="38.7330340" lon="-0.6268080">
        <ele>876.0</ele>
        <time>2019-05-12T09:04:16Z</time>
      </trkpt>
      <trkpt lat="38.7330770" lon="-0.6267160">
        <ele>875.8</ele>
        <time>2019-05-12T09:04:17Z</time>
      </trkpt>
      <trkpt lat="38.7331150" lon="-0.6266160">
        <ele>875.2</ele>
        <time>2019-05-12T09:04:18Z</time>
      </trkpt>
      <trkpt lat="38.7331570" lon="-0.6265130">
        <ele>874.8</ele>
        <time>2019-05-12T09:04:19Z</time>
      </trkpt>
      <trkpt lat="38.7332900" lon="-0.6261990">
        <ele>873.4</ele>
        <time>2019-05-12T09:04:22Z</time>
      </trkpt>
      <trkpt lat="38.7333490" lon="-0.6261020">
        <ele>873.2</ele>
        <time>2019-05-12T09:04:23Z</time>
      </trkpt>
      <trkpt lat="38.7334910" lon="-0.6259460">
        <ele>872.4</ele>
        <time>2019-05-12T09:04:25Z</time>
      </trkpt>
      <trkpt lat="38.7335690" lon="-0.6258930">
        <ele>872.0</ele>
        <time>2019-05-12T09:04:26Z</time>
      </trkpt>
      <trkpt lat="38.7337350" lon="-0.6258370">
        <ele>871.4</ele>
        <time>2019-05-12T09:04:28Z</time>
      </trkpt>
      <trkpt lat="38.7338120" lon="-0.6257910">
        <ele>871.4</ele>
        <time>2019-05-12T09:04:29Z</time>
      </trkpt>
      <trkpt lat="38.7338840" lon="-0.6257460">
        <ele>871.6</ele>
        <time>2019-05-12T09:04:30Z</time>
      </trkpt>
      <trkpt lat="38.7340260" lon="-0.6256460">
        <ele>872.2</ele>
        <time>2019-05-12T09:04:32Z</time>
      </trkpt>
      <trkpt lat="38.7340900" lon="-0.6255800">
        <ele>872.4</ele>
        <time>2019-05-12T09:04:33Z</time>
      </trkpt>
      <trkpt lat="38.7341570" lon="-0.6255190">
        <ele>872.2</ele>
        <time>2019-05-12T09:04:34Z</time>
      </trkpt>
      <trkpt lat="38.7344650" lon="-0.6251820">
        <ele>871.2</ele>
        <time>2019-05-12T09:04:39Z</time>
      </trkpt>
      <trkpt lat="38.7345710" lon="-0.6250680">
        <ele>870.4</ele>
        <time>2019-05-12T09:04:41Z</time>
      </trkpt>
      <trkpt lat="38.7346310" lon="-0.6249900">
        <ele>871.0</ele>
        <time>2019-05-12T09:04:44Z</time>
      </trkpt>
      <trkpt lat="38.7346290" lon="-0.6249320">
        <ele>871.4</ele>
        <time>2019-05-12T09:04:48Z</time>
      </trkpt>
      <trkpt lat="38.7346050" lon="-0.6249500">
        <ele>871.0</ele>
        <time>2019-05-12T09:04:52Z</time>
      </trkpt>
      <trkpt lat="38.7346370" lon="-0.6249950">
        <ele>870.8</ele>
        <time>2019-05-12T09:04:57Z</time>
      </trkpt>
      <trkpt lat="38.7346750" lon="-0.6249630">
        <ele>871.0</ele>
        <time>2019-05-12T09:04:59Z</time>
      </trkpt>
      <trkpt lat="38.7347390" lon="-0.6249320">
        <ele>871.0</ele>
        <time>2019-05-12T09:05:01Z</time>
      </trkpt>
      <trkpt lat="38.7347720" lon="-0.6248930">
        <ele>871.0</ele>
        <time>2019-05-12T09:05:02Z</time>
      </trkpt>
      <trkpt lat="38.7348050" lon="-0.6248530">
        <ele>871.0</ele>
        <time>2019-05-12T09:05:03Z</time>
      </trkpt>
      <trkpt lat="38.7349180" lon="-0.6246920">
        <ele>869.8</ele>
        <time>2019-05-12T09:05:06Z</time>
      </trkpt>
      <trkpt lat="38.7349660" lon="-0.6246510">
        <ele>869.6</ele>
        <time>2019-05-12T09:05:07Z</time>
      </trkpt>
      <trkpt lat="38.7351680" lon="-0.6245670">
        <ele>869.0</ele>
        <time>2019-05-12T09:05:11Z</time>
      </trkpt>
      <trkpt lat="38.7353620" lon="-0.6244910">
        <ele>870.0</ele>
        <time>2019-05-12T09:05:16Z</time>
      </trkpt>
      <trkpt lat="38.7355580" lon="-0.6244610">
        <ele>870.4</ele>
        <time>2019-05-12T09:05:21Z</time>
      </trkpt>
      <trkpt lat="38.7355990" lon="-0.6244720">
        <ele>870.4</ele>
        <time>2019-05-12T09:05:22Z</time>
      </trkpt>
      <trkpt lat="38.7356440" lon="-0.6244540">
        <ele>870.4</ele>
        <time>2019-05-12T09:05:23Z</time>
      </trkpt>
      <trkpt lat="38.7357290" lon="-0.6244520">
        <ele>870.6</ele>
        <time>2019-05-12T09:05:25Z</time>
      </trkpt>
      <trkpt lat="38.7358050" lon="-0.6244680">
        <ele>870.6</ele>
        <time>2019-05-12T09:05:27Z</time>
      </trkpt>
      <trkpt lat="38.7359270" lon="-0.6244740">
        <ele>871.0</ele>
        <time>2019-05-12T09:05:30Z</time>
      </trkpt>
      <trkpt lat="38.7360130" lon="-0.6244750">
        <ele>871.2</ele>
        <time>2019-05-12T09:05:32Z</time>
      </trkpt>
      <trkpt lat="38.7361020" lon="-0.6244680">
        <ele>871.2</ele>
        <time>2019-05-12T09:05:34Z</time>
      </trkpt>
      <trkpt lat="38.7361980" lon="-0.6244770">
        <ele>871.2</ele>
        <time>2019-05-12T09:05:36Z</time>
      </trkpt>
      <trkpt lat="38.7363510" lon="-0.6245260">
        <ele>870.6</ele>
        <time>2019-05-12T09:05:39Z</time>
      </trkpt>
      <trkpt lat="38.7365190" lon="-0.6246070">
        <ele>869.6</ele>
        <time>2019-05-12T09:05:42Z</time>
      </trkpt>
      <trkpt lat="38.7366400" lon="-0.6246490">
        <ele>869.0</ele>
        <time>2019-05-12T09:05:44Z</time>
      </trkpt>
      <trkpt lat="38.7367410" lon="-0.6247160">
        <ele>869.2</ele>
        <time>2019-05-12T09:05:46Z</time>
      </trkpt>
      <trkpt lat="38.7367840" lon="-0.6247530">
        <ele>869.0</ele>
        <time>2019-05-12T09:05:47Z</time>
      </trkpt>
      <trkpt lat="38.7368310" lon="-0.6247600">
        <ele>869.0</ele>
        <time>2019-05-12T09:05:48Z</time>
      </trkpt>
      <trkpt lat="38.7369230" lon="-0.6248660">
        <ele>869.6</ele>
        <time>2019-05-12T09:05:51Z</time>
      </trkpt>
      <trkpt lat="38.7370770" lon="-0.6250600">
        <ele>870.2</ele>
        <time>2019-05-12T09:05:57Z</time>
      </trkpt>
      <trkpt lat="38.7371110" lon="-0.6250430">
        <ele>870.6</ele>
        <time>2019-05-12T09:05:59Z</time>
      </trkpt>
      <trkpt lat="38.7371150" lon="-0.6250150">
        <ele>870.4</ele>
        <time>2019-05-12T09:06:00Z</time>
      </trkpt>
      <trkpt lat="38.7370590" lon="-0.6248730">
        <ele>870.0</ele>
        <time>2019-05-12T09:06:03Z</time>
      </trkpt>
      <trkpt lat="38.7370160" lon="-0.6247450">
        <ele>869.2</ele>
        <time>2019-05-12T09:06:05Z</time>
      </trkpt>
      <trkpt lat="38.7369720" lon="-0.6246010">
        <ele>868.4</ele>
        <time>2019-05-12T09:06:07Z</time>
      </trkpt>
      <trkpt lat="38.7369420" lon="-0.6245340">
        <ele>868.2</ele>
        <time>2019-05-12T09:06:08Z</time>
      </trkpt>
      <trkpt lat="38.7368850" lon="-0.6244060">
        <ele>867.2</ele>
        <time>2019-05-12T09:06:10Z</time>
      </trkpt>
      <trkpt lat="38.7367920" lon="-0.6241900">
        <ele>866.0</ele>
        <time>2019-05-12T09:06:13Z</time>
      </trkpt>
      <trkpt lat="38.7367610" lon="-0.6241110">
        <ele>865.6</ele>
        <time>2019-05-12T09:06:14Z</time>
      </trkpt>
      <trkpt lat="38.7367230" lon="-0.6240340">
        <ele>865.0</ele>
        <time>2019-05-12T09:06:15Z</time>
      </trkpt>
      <trkpt lat="38.7366520" lon="-0.6238670">
        <ele>863.8</ele>
        <time>2019-05-12T09:06:17Z</time>
      </trkpt>
      <trkpt lat="38.7365650" lon="-0.6236910">
        <ele>863.2</ele>
        <time>2019-05-12T09:06:19Z</time>
      </trkpt>
      <trkpt lat="38.7365210" lon="-0.6235990">
        <ele>862.6</ele>
        <time>2019-05-12T09:06:20Z</time>
      </trkpt>
      <trkpt lat="38.7363320" lon="-0.6232750">
        <ele>861.6</ele>
        <time>2019-05-12T09:06:24Z</time>
      </trkpt>
      <trkpt lat="38.7362700" lon="-0.6232090">
        <ele>861.6</ele>
        <time>2019-05-12T09:06:25Z</time>
      </trkpt>
      <trkpt lat="38.7362100" lon="-0.6231440">
        <ele>861.4</ele>
        <time>2019-05-12T09:06:26Z</time>
      </trkpt>
      <trkpt lat="38.7361120" lon="-0.6230200">
        <ele>861.0</ele>
        <time>2019-05-12T09:06:28Z</time>
      </trkpt>
      <trkpt lat="38.7360050" lon="-0.6229420">
        <ele>860.8</ele>
        <time>2019-05-12T09:06:30Z</time>
      </trkpt>
      <trkpt lat="38.7358930" lon="-0.6228340">
        <ele>860.0</ele>
        <time>2019-05-12T09:06:32Z</time>
      </trkpt>
      <trkpt lat="38.7358380" lon="-0.6227650">
        <ele>858.8</ele>
        <time>2019-05-12T09:06:33Z</time>
      </trkpt>
      <trkpt lat="38.7357940" lon="-0.6226830">
        <ele>858.2</ele>
        <time>2019-05-12T09:06:34Z</time>
      </trkpt>
      <trkpt lat="38.7357500" lon="-0.6226050">
        <ele>857.4</ele>
        <time>2019-05-12T09:06:35Z</time>
      </trkpt>
      <trkpt lat="38.7356860" lon="-0.6224450">
        <ele>856.0</ele>
        <time>2019-05-12T09:06:37Z</time>
      </trkpt>
      <trkpt lat="38.7356880" lon="-0.6223580">
        <ele>856.2</ele>
        <time>2019-05-12T09:06:38Z</time>
      </trkpt>
      <trkpt lat="38.7356950" lon="-0.6221080">
        <ele>857.0</ele>
        <time>2019-05-12T09:06:41Z</time>
      </trkpt>
      <trkpt lat="38.7356900" lon="-0.6220190">
        <ele>856.8</ele>
        <time>2019-05-12T09:06:42Z</time>
      </trkpt>
      <trkpt lat="38.7356540" lon="-0.6218370">
        <ele>856.2</ele>
        <time>2019-05-12T09:06:44Z</time>
      </trkpt>
      <trkpt lat="38.7356380" lon="-0.6217410">
        <ele>856.0</ele>
        <time>2019-05-12T09:06:45Z</time>
      </trkpt>
      <trkpt lat="38.7356330" lon="-0.6216590">
        <ele>855.4</ele>
        <time>2019-05-12T09:06:46Z</time>
      </trkpt>
      <trkpt lat="38.7356380" lon="-0.6215680">
        <ele>854.8</ele>
        <time>2019-05-12T09:06:47Z</time>
      </trkpt>
      <trkpt lat="38.7356910" lon="-0.6213790">
        <ele>853.6</ele>
        <time>2019-05-12T09:06:49Z</time>
      </trkpt>
      <trkpt lat="38.7357570" lon="-0.6211980">
        <ele>853.2</ele>
        <time>2019-05-12T09:06:51Z</time>
      </trkpt>
      <trkpt lat="38.7358190" lon="-0.6210160">
        <ele>852.6</ele>
        <time>2019-05-12T09:06:53Z</time>
      </trkpt>
      <trkpt lat="38.7359120" lon="-0.6207870">
        <ele>852.0</ele>
        <time>2019-05-12T09:06:56Z</time>
      </trkpt>
      <trkpt lat="38.7360040" lon="-0.6205330">
        <ele>851.6</ele>
        <time>2019-05-12T09:07:00Z</time>
      </trkpt>
      <trkpt lat="38.7360210" lon="-0.6204590">
        <ele>851.6</ele>
        <time>2019-05-12T09:07:01Z</time>
      </trkpt>
      <trkpt lat="38.7360470" lon="-0.6203840">
        <ele>851.2</ele>
        <time>2019-05-12T09:07:02Z</time>
      </trkpt>
      <trkpt lat="38.7361550" lon="-0.6201790">
        <ele>850.6</ele>
        <time>2019-05-12T09:07:05Z</time>
      </trkpt>
      <trkpt lat="38.7363200" lon="-0.6198770">
        <ele>849.4</ele>
        <time>2019-05-12T09:07:10Z</time>
      </trkpt>
      <trkpt lat="38.7363530" lon="-0.6198160">
        <ele>849.2</ele>
        <time>2019-05-12T09:07:11Z</time>
      </trkpt>
      <trkpt lat="38.7365120" lon="-0.6195820">
        <ele>848.4</ele>
        <time>2019-05-12T09:07:15Z</time>
      </trkpt>
      <trkpt lat="38.7366010" lon="-0.6194730">
        <ele>847.8</ele>
        <time>2019-05-12T09:07:17Z</time>
      </trkpt>
      <trkpt lat="38.7368700" lon="-0.6191250">
        <ele>847.6</ele>
        <time>2019-05-12T09:07:23Z</time>
      </trkpt>
      <trkpt lat="38.7371590" lon="-0.6187010">
        <ele>847.6</ele>
        <time>2019-05-12T09:07:30Z</time>
      </trkpt>
      <trkpt lat="38.7373230" lon="-0.6186200">
        <ele>847.4</ele>
        <time>2019-05-12T09:07:33Z</time>
      </trkpt>
      <trkpt lat="38.7373780" lon="-0.6186130">
        <ele>847.2</ele>
        <time>2019-05-12T09:07:34Z</time>
      </trkpt>
      <trkpt lat="38.7375530" lon="-0.6186590">
        <ele>848.6</ele>
        <time>2019-05-12T09:07:38Z</time>
      </trkpt>
      <trkpt lat="38.7376550" lon="-0.6186850">
        <ele>849.8</ele>
        <time>2019-05-12T09:07:41Z</time>
      </trkpt>
      <trkpt lat="38.7377010" lon="-0.6186910">
        <ele>850.4</ele>
        <time>2019-05-12T09:07:43Z</time>
      </trkpt>
      <trkpt lat="38.7378050" lon="-0.6186880">
        <ele>851.0</ele>
        <time>2019-05-12T09:07:47Z</time>
      </trkpt>
      <trkpt lat="38.7378380" lon="-0.6186840">
        <ele>851.2</ele>
        <time>2019-05-12T09:07:48Z</time>
      </trkpt>
      <trkpt lat="38.7380520" lon="-0.6185820">
        <ele>850.4</ele>
        <time>2019-05-12T09:07:54Z</time>
      </trkpt>
      <trkpt lat="38.7380940" lon="-0.6185670">
        <ele>850.2</ele>
        <time>2019-05-12T09:07:55Z</time>
      </trkpt>
      <trkpt lat="38.7382290" lon="-0.6184970">
        <ele>850.4</ele>
        <time>2019-05-12T09:07:59Z</time>
      </trkpt>
      <trkpt lat="38.7383400" lon="-0.6184540">
        <ele>850.2</ele>
        <time>2019-05-12T09:08:02Z</time>
      </trkpt>
      <trkpt lat="38.7383860" lon="-0.6184400">
        <ele>850.0</ele>
        <time>2019-05-12T09:08:03Z</time>
      </trkpt>
      <trkpt lat="38.7384340" lon="-0.6184220">
        <ele>849.8</ele>
        <time>2019-05-12T09:08:04Z</time>
      </trkpt>
      <trkpt lat="38.7384780" lon="-0.6183940">
        <ele>849.4</ele>
        <time>2019-05-12T09:08:05Z</time>
      </trkpt>
      <trkpt lat="38.7386840" lon="-0.6182520">
        <ele>849.2</ele>
        <time>2019-05-12T09:08:10Z</time>
      </trkpt>
      <trkpt lat="38.7388080" lon="-0.6181460">
        <ele>849.6</ele>
        <time>2019-05-12T09:08:13Z</time>
      </trkpt>
      <trkpt lat="38.7388790" lon="-0.6180430">
        <ele>849.8</ele>
        <time>2019-05-12T09:08:15Z</time>
      </trkpt>
      <trkpt lat="38.7389890" lon="-0.6179110">
        <ele>848.6</ele>
        <time>2019-05-12T09:08:18Z</time>
      </trkpt>
      <trkpt lat="38.7391520" lon="-0.6177400">
        <ele>849.0</ele>
        <time>2019-05-12T09:08:22Z</time>
      </trkpt>
      <trkpt lat="38.7394290" lon="-0.6174950">
        <ele>849.6</ele>
        <time>2019-05-12T09:08:29Z</time>
      </trkpt>
      <trkpt lat="38.7394610" lon="-0.6174700">
        <ele>849.8</ele>
        <time>2019-05-12T09:08:30Z</time>
      </trkpt>
      <trkpt lat="38.7396050" lon="-0.6173320">
        <ele>850.8</ele>
        <time>2019-05-12T09:08:35Z</time>
      </trkpt>
      <trkpt lat="38.7397310" lon="-0.6171300">
        <ele>851.2</ele>
        <time>2019-05-12T09:08:40Z</time>
      </trkpt>
      <trkpt lat="38.7398910" lon="-0.6168720">
        <ele>851.2</ele>
        <time>2019-05-12T09:08:46Z</time>
      </trkpt>
      <trkpt lat="38.7399370" lon="-0.6167840">
        <ele>851.2</ele>
        <time>2019-05-12T09:08:48Z</time>
      </trkpt>
      <trkpt lat="38.7400420" lon="-0.6165380">
        <ele>851.6</ele>
        <time>2019-05-12T09:08:53Z</time>
      </trkpt>
      <trkpt lat="38.7401390" lon="-0.6163440">
        <ele>851.8</ele>
        <time>2019-05-12T09:08:57Z</time>
      </trkpt>
      <trkpt lat="38.7401900" lon="-0.6162570">
        <ele>851.8</ele>
        <time>2019-05-12T09:08:59Z</time>
      </trkpt>
      <trkpt lat="38.7402950" lon="-0.6160690">
        <ele>851.8</ele>
        <time>2019-05-12T09:09:03Z</time>
      </trkpt>
      <trkpt lat="38.7403600" lon="-0.6159090">
        <ele>851.8</ele>
        <time>2019-05-12T09:09:06Z</time>
      </trkpt>
      <trkpt lat="38.7404300" lon="-0.6157060">
        <ele>852.6</ele>
        <time>2019-05-12T09:09:10Z</time>
      </trkpt>
      <trkpt lat="38.7404560" lon="-0.6156010">
        <ele>852.8</ele>
        <time>2019-05-12T09:09:12Z</time>
      </trkpt>
      <trkpt lat="38.7404880" lon="-0.6154340">
        <ele>853.0</ele>
        <time>2019-05-12T09:09:15Z</time>
      </trkpt>
      <trkpt lat="38.7405550" lon="-0.6151450">
        <ele>853.0</ele>
        <time>2019-05-12T09:09:20Z</time>
      </trkpt>
      <trkpt lat="38.7407200" lon="-0.6147310">
        <ele>852.6</ele>
        <time>2019-05-12T09:09:27Z</time>
      </trkpt>
      <trkpt lat="38.7407510" lon="-0.6146770">
        <ele>852.6</ele>
        <time>2019-05-12T09:09:28Z</time>
      </trkpt>
      <trkpt lat="38.7408700" lon="-0.6144500">
        <ele>852.6</ele>
        <time>2019-05-12T09:09:32Z</time>
      </trkpt>
      <trkpt lat="38.7410470" lon="-0.6141990">
        <ele>852.2</ele>
        <time>2019-05-12T09:09:37Z</time>
      </trkpt>
      <trkpt lat="38.7410840" lon="-0.6141510">
        <ele>852.0</ele>
        <time>2019-05-12T09:09:38Z</time>
      </trkpt>
      <trkpt lat="38.7411200" lon="-0.6141020">
        <ele>851.8</ele>
        <time>2019-05-12T09:09:39Z</time>
      </trkpt>
      <trkpt lat="38.7413770" lon="-0.6137560">
        <ele>851.8</ele>
        <time>2019-05-12T09:09:46Z</time>
      </trkpt>
      <trkpt lat="38.7416230" lon="-0.6133780">
        <ele>851.6</ele>
        <time>2019-05-12T09:09:53Z</time>
      </trkpt>
      <trkpt lat="38.7416940" lon="-0.6132170">
        <ele>851.0</ele>
        <time>2019-05-12T09:09:56Z</time>
      </trkpt>
      <trkpt lat="38.7417410" lon="-0.6131270">
        <ele>851.0</ele>
        <time>2019-05-12T09:09:58Z</time>
      </trkpt>
      <trkpt lat="38.7417970" lon="-0.6129990">
        <ele>850.8</ele>
        <time>2019-05-12T09:10:00Z</time>
      </trkpt>
      <trkpt lat="38.7418910" lon="-0.6127610">
        <ele>850.0</ele>
        <time>2019-05-12T09:10:04Z</time>
      </trkpt>
      <trkpt lat="38.7419210" lon="-0.6126940">
        <ele>849.8</ele>
        <time>2019-05-12T09:10:05Z</time>
      </trkpt>
      <trkpt lat="38.7420140" lon="-0.6124360">
        <ele>849.4</ele>
        <time>2019-05-12T09:10:09Z</time>
      </trkpt>
      <trkpt lat="38.7420520" lon="-0.6123760">
        <ele>849.2</ele>
        <time>2019-05-12T09:10:10Z</time>
      </trkpt>
      <trkpt lat="38.7421200" lon="-0.6122840">
        <ele>849.0</ele>
        <time>2019-05-12T09:10:12Z</time>
      </trkpt>
      <trkpt lat="38.7421670" lon="-0.6122470">
        <ele>848.8</ele>
        <time>2019-05-12T09:10:13Z</time>
      </trkpt>
      <trkpt lat="38.7422590" lon="-0.6121620">
        <ele>848.4</ele>
        <time>2019-05-12T09:10:15Z</time>
      </trkpt>
      <trkpt lat="38.7422970" lon="-0.6121230">
        <ele>848.4</ele>
        <time>2019-05-12T09:10:16Z</time>
      </trkpt>
      <trkpt lat="38.7423350" lon="-0.6120740">
        <ele>848.2</ele>
        <time>2019-05-12T09:10:17Z</time>
      </trkpt>
      <trkpt lat="38.7424510" lon="-0.6119180">
        <ele>848.4</ele>
        <time>2019-05-12T09:10:20Z</time>
      </trkpt>
      <trkpt lat="38.7425340" lon="-0.6117880">
        <ele>847.8</ele>
        <time>2019-05-12T09:10:23Z</time>
      </trkpt>
      <trkpt lat="38.7425680" lon="-0.6117490">
        <ele>848.0</ele>
        <time>2019-05-12T09:10:24Z</time>
      </trkpt>
      <trkpt lat="38.7427140" lon="-0.6115760">
        <ele>847.2</ele>
        <time>2019-05-12T09:10:28Z</time>
      </trkpt>
      <trkpt lat="38.7427620" lon="-0.6114850">
        <ele>847.0</ele>
        <time>2019-05-12T09:10:30Z</time>
      </trkpt>
      <trkpt lat="38.7427780" lon="-0.6114260">
        <ele>847.0</ele>
        <time>2019-05-12T09:10:31Z</time>
      </trkpt>
      <trkpt lat="38.7428050" lon="-0.6112950">
        <ele>847.0</ele>
        <time>2019-05-12T09:10:33Z</time>
      </trkpt>
      <trkpt lat="38.7428380" lon="-0.6111690">
        <ele>846.6</ele>
        <time>2019-05-12T09:10:35Z</time>
      </trkpt>
      <trkpt lat="38.7429090" lon="-0.6109240">
        <ele>846.6</ele>
        <time>2019-05-12T09:10:39Z</time>
      </trkpt>
      <trkpt lat="38.7429300" lon="-0.6107850">
        <ele>846.8</ele>
        <time>2019-05-12T09:10:43Z</time>
      </trkpt>
      <trkpt lat="38.7429450" lon="-0.6107530">
        <ele>846.8</ele>
        <time>2019-05-12T09:10:45Z</time>
      </trkpt>
      <trkpt lat="38.7429640" lon="-0.6107480">
        <ele>847.0</ele>
        <time>2019-05-12T09:10:47Z</time>
      </trkpt>
      <trkpt lat="38.7429750" lon="-0.6107580">
        <ele>847.0</ele>
        <time>2019-05-12T09:10:48Z</time>
      </trkpt>
      <trkpt lat="38.7429970" lon="-0.6107220">
        <ele>847.2</ele>
        <time>2019-05-12T09:10:51Z</time>
      </trkpt>
      <trkpt lat="38.7429710" lon="-0.6107070">
        <ele>847.0</ele>
        <time>2019-05-12T09:10:53Z</time>
      </trkpt>
      <trkpt lat="38.7429610" lon="-0.6106890">
        <ele>847.0</ele>
        <time>2019-05-12T09:10:54Z</time>
      </trkpt>
      <trkpt lat="38.7429470" lon="-0.6106530">
        <ele>847.2</ele>
        <time>2019-05-12T09:10:56Z</time>
      </trkpt>
      <trkpt lat="38.7430030" lon="-0.6105250">
        <ele>847.0</ele>
        <time>2019-05-12T09:11:00Z</time>
      </trkpt>
      <trkpt lat="38.7431330" lon="-0.6103490">
        <ele>847.6</ele>
        <time>2019-05-12T09:11:05Z</time>
      </trkpt>
      <trkpt lat="38.7431910" lon="-0.6101620">
        <ele>848.4</ele>
        <time>2019-05-12T09:11:10Z</time>
      </trkpt>
      <trkpt lat="38.7432060" lon="-0.6101270">
        <ele>848.6</ele>
        <time>2019-05-12T09:11:11Z</time>
      </trkpt>
      <trkpt lat="38.7432490" lon="-0.6099190">
        <ele>849.4</ele>
        <time>2019-05-12T09:11:16Z</time>
      </trkpt>
      <trkpt lat="38.7433650" lon="-0.6096120">
        <ele>850.6</ele>
        <time>2019-05-12T09:11:24Z</time>
      </trkpt>
      <trkpt lat="38.7433820" lon="-0.6094080">
        <ele>851.4</ele>
        <time>2019-05-12T09:11:29Z</time>
      </trkpt>
      <trkpt lat="38.7433540" lon="-0.6092990">
        <ele>851.8</ele>
        <time>2019-05-12T09:11:32Z</time>
      </trkpt>
      <trkpt lat="38.7433450" lon="-0.6092600">
        <ele>852.2</ele>
        <time>2019-05-12T09:11:33Z</time>
      </trkpt>
      <trkpt lat="38.7433290" lon="-0.6091780">
        <ele>852.8</ele>
        <time>2019-05-12T09:11:35Z</time>
      </trkpt>
      <trkpt lat="38.7433010" lon="-0.6089820">
        <ele>853.8</ele>
        <time>2019-05-12T09:11:40Z</time>
      </trkpt>
      <trkpt lat="38.7433020" lon="-0.6089030">
        <ele>854.0</ele>
        <time>2019-05-12T09:11:42Z</time>
      </trkpt>
      <trkpt lat="38.7432900" lon="-0.6087060">
        <ele>854.8</ele>
        <time>2019-05-12T09:11:47Z</time>
      </trkpt>
      <trkpt lat="38.7432760" lon="-0.6086260">
        <ele>855.2</ele>
        <time>2019-05-12T09:11:49Z</time>
      </trkpt>
      <trkpt lat="38.7432350" lon="-0.6084310">
        <ele>855.8</ele>
        <time>2019-05-12T09:11:54Z</time>
      </trkpt>
      <trkpt lat="38.7432140" lon="-0.6082520">
        <ele>856.4</ele>
        <time>2019-05-12T09:11:59Z</time>
      </trkpt>
      <trkpt lat="38.7432120" lon="-0.6082140">
        <ele>856.6</ele>
        <time>2019-05-12T09:12:00Z</time>
      </trkpt>
      <trkpt lat="38.7431650" lon="-0.6079060">
        <ele>857.2</ele>
        <time>2019-05-12T09:12:08Z</time>
      </trkpt>
      <trkpt lat="38.7431610" lon="-0.6078270">
        <ele>857.6</ele>
        <time>2019-05-12T09:12:10Z</time>
      </trkpt>
      <trkpt lat="38.7431360" lon="-0.6076250">
        <ele>857.8</ele>
        <time>2019-05-12T09:12:15Z</time>
      </trkpt>
      <trkpt lat="38.7431380" lon="-0.6075490">
        <ele>858.0</ele>
        <time>2019-05-12T09:12:17Z</time>
      </trkpt>
      <trkpt lat="38.7431640" lon="-0.6074820">
        <ele>858.4</ele>
        <time>2019-05-12T09:12:19Z</time>
      </trkpt>
      <trkpt lat="38.7432010" lon="-0.6073690">
        <ele>858.8</ele>
        <time>2019-05-12T09:12:22Z</time>
      </trkpt>
      <trkpt lat="38.7432140" lon="-0.6072840">
        <ele>859.4</ele>
        <time>2019-05-12T09:12:24Z</time>
      </trkpt>
      <trkpt lat="38.7432390" lon="-0.6071980">
        <ele>859.6</ele>
        <time>2019-05-12T09:12:26Z</time>
      </trkpt>
      <trkpt lat="38.7432620" lon="-0.6070960">
        <ele>859.8</ele>
        <time>2019-05-12T09:12:28Z</time>
      </trkpt>
      <trkpt lat="38.7432670" lon="-0.6070500">
        <ele>860.0</ele>
        <time>2019-05-12T09:12:29Z</time>
      </trkpt>
      <trkpt lat="38.7433140" lon="-0.6068300">
        <ele>860.0</ele>
        <time>2019-05-12T09:12:34Z</time>
      </trkpt>
      <trkpt lat="38.7433360" lon="-0.6067860">
        <ele>859.8</ele>
        <time>2019-05-12T09:12:35Z</time>
      </trkpt>
      <trkpt lat="38.7434040" lon="-0.6065940">
        <ele>860.2</ele>
        <time>2019-05-12T09:12:39Z</time>
      </trkpt>
      <trkpt lat="38.7434170" lon="-0.6064920">
        <ele>860.2</ele>
        <time>2019-05-12T09:12:41Z</time>
      </trkpt>
      <trkpt lat="38.7434360" lon="-0.6063860">
        <ele>860.2</ele>
        <time>2019-05-12T09:12:43Z</time>
      </trkpt>
      <trkpt lat="38.7434640" lon="-0.6062860">
        <ele>860.4</ele>
        <time>2019-05-12T09:12:45Z</time>
      </trkpt>
      <trkpt lat="38.7435230" lon="-0.6060860">
        <ele>861.0</ele>
        <time>2019-05-12T09:12:49Z</time>
      </trkpt>
      <trkpt lat="38.7435800" lon="-0.6058950">
        <ele>861.4</ele>
        <time>2019-05-12T09:12:53Z</time>
      </trkpt>
      <trkpt lat="38.7436690" lon="-0.6055750">
        <ele>862.0</ele>
        <time>2019-05-12T09:12:59Z</time>
      </trkpt>
      <trkpt lat="38.7436830" lon="-0.6055420">
        <ele>862.0</ele>
        <time>2019-05-12T09:13:00Z</time>
      </trkpt>
      <trkpt lat="38.7437030" lon="-0.6054960">
        <ele>862.0</ele>
        <time>2019-05-12T09:13:01Z</time>
      </trkpt>
      <trkpt lat="38.7437170" lon="-0.6054440">
        <ele>862.2</ele>
        <time>2019-05-12T09:13:02Z</time>
      </trkpt>
      <trkpt lat="38.7437410" lon="-0.6053360">
        <ele>862.2</ele>
        <time>2019-05-12T09:13:04Z</time>
      </trkpt>
      <trkpt lat="38.7437600" lon="-0.6052840">
        <ele>862.2</ele>
        <time>2019-05-12T09:13:05Z</time>
      </trkpt>
      <trkpt lat="38.7438410" lon="-0.6050740">
        <ele>862.0</ele>
        <time>2019-05-12T09:13:09Z</time>
      </trkpt>
      <trkpt lat="38.7438760" lon="-0.6049660">
        <ele>862.0</ele>
        <time>2019-05-12T09:13:11Z</time>
      </trkpt>
      <trkpt lat="38.7439980" lon="-0.6046930">
        <ele>861.8</ele>
        <time>2019-05-12T09:13:17Z</time>
      </trkpt>
      <trkpt lat="38.7440720" lon="-0.6045960">
        <ele>862.4</ele>
        <time>2019-05-12T09:13:20Z</time>
      </trkpt>
      <trkpt lat="38.7440760" lon="-0.6045500">
        <ele>862.8</ele>
        <time>2019-05-12T09:13:21Z</time>
      </trkpt>
      <trkpt lat="38.7440830" lon="-0.6044950">
        <ele>863.0</ele>
        <time>2019-05-12T09:13:22Z</time>
      </trkpt>
      <trkpt lat="38.7440920" lon="-0.6044390">
        <ele>863.2</ele>
        <time>2019-05-12T09:13:23Z</time>
      </trkpt>
      <trkpt lat="38.7441210" lon="-0.6043390">
        <ele>863.4</ele>
        <time>2019-05-12T09:13:25Z</time>
      </trkpt>
      <trkpt lat="38.7441820" lon="-0.6041890">
        <ele>864.0</ele>
        <time>2019-05-12T09:13:29Z</time>
      </trkpt>
      <trkpt lat="38.7441870" lon="-0.6041450">
        <ele>864.2</ele>
        <time>2019-05-12T09:13:30Z</time>
      </trkpt>
      <trkpt lat="38.7441990" lon="-0.6040560">
        <ele>864.8</ele>
        <time>2019-05-12T09:13:32Z</time>
      </trkpt>
      <trkpt lat="38.7442100" lon="-0.6039600">
        <ele>865.0</ele>
        <time>2019-05-12T09:13:34Z</time>
      </trkpt>
      <trkpt lat="38.7442240" lon="-0.6038690">
        <ele>865.4</ele>
        <time>2019-05-12T09:13:36Z</time>
      </trkpt>
      <trkpt lat="38.7442830" lon="-0.6037000">
        <ele>865.6</ele>
        <time>2019-05-12T09:13:40Z</time>
      </trkpt>
      <trkpt lat="38.7443260" lon="-0.6033940">
        <ele>866.2</ele>
        <time>2019-05-12T09:13:46Z</time>
      </trkpt>
      <trkpt lat="38.7443460" lon="-0.6032870">
        <ele>866.4</ele>
        <time>2019-05-12T09:13:48Z</time>
      </trkpt>
      <trkpt lat="38.7444050" lon="-0.6031470">
        <ele>866.2</ele>
        <time>2019-05-12T09:13:51Z</time>
      </trkpt>
      <trkpt lat="38.7444410" lon="-0.6028590">
        <ele>866.0</ele>
        <time>2019-05-12T09:13:56Z</time>
      </trkpt>
      <trkpt lat="38.7444750" lon="-0.6026470">
        <ele>865.4</ele>
        <time>2019-05-12T09:13:59Z</time>
      </trkpt>
      <trkpt lat="38.7444990" lon="-0.6025580">
        <ele>865.2</ele>
        <time>2019-05-12T09:14:01Z</time>
      </trkpt>
      <trkpt lat="38.7445190" lon="-0.6025010">
        <ele>865.2</ele>
        <time>2019-05-12T09:14:02Z</time>
      </trkpt>
      <trkpt lat="38.7445640" lon="-0.6023940">
        <ele>864.8</ele>
        <time>2019-05-12T09:14:04Z</time>
      </trkpt>
      <trkpt lat="38.7446170" lon="-0.6023050">
        <ele>865.0</ele>
        <time>2019-05-12T09:14:06Z</time>
      </trkpt>
      <trkpt lat="38.7446620" lon="-0.6021970">
        <ele>866.0</ele>
        <time>2019-05-12T09:14:08Z</time>
      </trkpt>
      <trkpt lat="38.7446870" lon="-0.6021420">
        <ele>865.8</ele>
        <time>2019-05-12T09:14:09Z</time>
      </trkpt>
      <trkpt lat="38.7447460" lon="-0.6020370">
        <ele>865.8</ele>
        <time>2019-05-12T09:14:11Z</time>
      </trkpt>
      <trkpt lat="38.7447710" lon="-0.6019810">
        <ele>865.8</ele>
        <time>2019-05-12T09:14:12Z</time>
      </trkpt>
      <trkpt lat="38.7448400" lon="-0.6018080">
        <ele>865.8</ele>
        <time>2019-05-12T09:14:15Z</time>
      </trkpt>
      <trkpt lat="38.7449530" lon="-0.6016280">
        <ele>866.4</ele>
        <time>2019-05-12T09:14:19Z</time>
      </trkpt>
      <trkpt lat="38.7450190" lon="-0.6014670">
        <ele>866.2</ele>
        <time>2019-05-12T09:14:22Z</time>
      </trkpt>
      <trkpt lat="38.7450820" lon="-0.6013080">
        <ele>866.0</ele>
        <time>2019-05-12T09:14:25Z</time>
      </trkpt>
      <trkpt lat="38.7451040" lon="-0.6012580">
        <ele>865.8</ele>
        <time>2019-05-12T09:14:26Z</time>
      </trkpt>
      <trkpt lat="38.7451830" lon="-0.6010890">
        <ele>865.0</ele>
        <time>2019-05-12T09:14:29Z</time>
      </trkpt>
      <trkpt lat="38.7452440" lon="-0.6009690">
        <ele>865.0</ele>
        <time>2019-05-12T09:14:31Z</time>
      </trkpt>
      <trkpt lat="38.7452950" lon="-0.6008310">
        <ele>864.6</ele>
        <time>2019-05-12T09:14:33Z</time>
      </trkpt>
      <trkpt lat="38.7453150" lon="-0.6007560">
        <ele>864.2</ele>
        <time>2019-05-12T09:14:34Z</time>
      </trkpt>
      <trkpt lat="38.7453830" lon="-0.6005350">
        <ele>864.4</ele>
        <time>2019-05-12T09:14:37Z</time>
      </trkpt>
      <trkpt lat="38.7453970" lon="-0.6004630">
        <ele>864.4</ele>
        <time>2019-05-12T09:14:38Z</time>
      </trkpt>
      <trkpt lat="38.7454150" lon="-0.6003940">
        <ele>864.4</ele>
        <time>2019-05-12T09:14:39Z</time>
      </trkpt>
      <trkpt lat="38.7454530" lon="-0.6002580">
        <ele>864.6</ele>
        <time>2019-05-12T09:14:41Z</time>
      </trkpt>
      <trkpt lat="38.7454690" lon="-0.6001960">
        <ele>864.6</ele>
        <time>2019-05-12T09:14:42Z</time>
      </trkpt>
      <trkpt lat="38.7455040" lon="-0.5999820">
        <ele>864.4</ele>
        <time>2019-05-12T09:14:45Z</time>
      </trkpt>
      <trkpt lat="38.7455160" lon="-0.5997380">
        <ele>864.0</ele>
        <time>2019-05-12T09:14:48Z</time>
      </trkpt>
      <trkpt lat="38.7455170" lon="-0.5993840">
        <ele>863.6</ele>
        <time>2019-05-12T09:14:52Z</time>
      </trkpt>
      <trkpt lat="38.7455300" lon="-0.5991240">
        <ele>863.4</ele>
        <time>2019-05-12T09:14:55Z</time>
      </trkpt>
      <trkpt lat="38.7455350" lon="-0.5990380">
        <ele>863.2</ele>
        <time>2019-05-12T09:14:56Z</time>
      </trkpt>
      <trkpt lat="38.7455610" lon="-0.5988640">
        <ele>862.8</ele>
        <time>2019-05-12T09:14:58Z</time>
      </trkpt>
      <trkpt lat="38.7456020" lon="-0.5986530">
        <ele>862.6</ele>
        <time>2019-05-12T09:15:00Z</time>
      </trkpt>
      <trkpt lat="38.7456090" lon="-0.5986110">
        <ele>862.6</ele>
        <time>2019-05-12T09:15:01Z</time>
      </trkpt>
      <trkpt lat="38.7456160" lon="-0.5985320">
        <ele>862.4</ele>
        <time>2019-05-12T09:15:02Z</time>
      </trkpt>
      <trkpt lat="38.7456470" lon="-0.5983950">
        <ele>862.2</ele>
        <time>2019-05-12T09:15:04Z</time>
      </trkpt>
      <trkpt lat="38.7457080" lon="-0.5982640">
        <ele>862.4</ele>
        <time>2019-05-12T09:15:07Z</time>
      </trkpt>
      <trkpt lat="38.7457380" lon="-0.5982290">
        <ele>862.4</ele>
        <time>2019-05-12T09:15:08Z</time>
      </trkpt>
      <trkpt lat="38.7458390" lon="-0.5981150">
        <ele>862.0</ele>
        <time>2019-05-12T09:15:11Z</time>
      </trkpt>
      <trkpt lat="38.7458810" lon="-0.5980740">
        <ele>861.6</ele>
        <time>2019-05-12T09:15:12Z</time>
      </trkpt>
      <trkpt lat="38.7459310" lon="-0.5980380">
        <ele>861.4</ele>
        <time>2019-05-12T09:15:13Z</time>
      </trkpt>
      <trkpt lat="38.7460440" lon="-0.5980060">
        <ele>860.4</ele>
        <time>2019-05-12T09:15:15Z</time>
      </trkpt>
      <trkpt lat="38.7461640" lon="-0.5979850">
        <ele>859.6</ele>
        <time>2019-05-12T09:15:17Z</time>
      </trkpt>
      <trkpt lat="38.7462200" lon="-0.5979600">
        <ele>859.4</ele>
        <time>2019-05-12T09:15:18Z</time>
      </trkpt>
      <trkpt lat="38.7462750" lon="-0.5979280">
        <ele>859.4</ele>
        <time>2019-05-12T09:15:19Z</time>
      </trkpt>
      <trkpt lat="38.7463700" lon="-0.5977870">
        <ele>859.6</ele>
        <time>2019-05-12T09:15:22Z</time>
      </trkpt>
      <trkpt lat="38.7463980" lon="-0.5977380">
        <ele>859.8</ele>
        <time>2019-05-12T09:15:23Z</time>
      </trkpt>
      <trkpt lat="38.7464200" lon="-0.5976910">
        <ele>859.8</ele>
        <time>2019-05-12T09:15:24Z</time>
      </trkpt>
      <trkpt lat="38.7464770" lon="-0.5976060">
        <ele>859.8</ele>
        <time>2019-05-12T09:15:26Z</time>
      </trkpt>
      <trkpt lat="38.7465230" lon="-0.5974310">
        <ele>859.6</ele>
        <time>2019-05-12T09:15:29Z</time>
      </trkpt>
      <trkpt lat="38.7464520" lon="-0.5972570">
        <ele>859.4</ele>
        <time>2019-05-12T09:15:32Z</time>
      </trkpt>
      <trkpt lat="38.7464420" lon="-0.5971350">
        <ele>858.2</ele>
        <time>2019-05-12T09:15:34Z</time>
      </trkpt>
      <trkpt lat="38.7464560" lon="-0.5970810">
        <ele>857.8</ele>
        <time>2019-05-12T09:15:35Z</time>
      </trkpt>
      <trkpt lat="38.7464870" lon="-0.5968720">
        <ele>857.4</ele>
        <time>2019-05-12T09:15:38Z</time>
      </trkpt>
      <trkpt lat="38.7465110" lon="-0.5967920">
        <ele>857.2</ele>
        <time>2019-05-12T09:15:39Z</time>
      </trkpt>
      <trkpt lat="38.7465410" lon="-0.5967200">
        <ele>857.0</ele>
        <time>2019-05-12T09:15:40Z</time>
      </trkpt>
      <trkpt lat="38.7465760" lon="-0.5966490">
        <ele>857.0</ele>
        <time>2019-05-12T09:15:41Z</time>
      </trkpt>
      <trkpt lat="38.7466750" lon="-0.5964190">
        <ele>856.6</ele>
        <time>2019-05-12T09:15:44Z</time>
      </trkpt>
      <trkpt lat="38.7466820" lon="-0.5963380">
        <ele>856.2</ele>
        <time>2019-05-12T09:15:45Z</time>
      </trkpt>
      <trkpt lat="38.7466700" lon="-0.5962640">
        <ele>856.0</ele>
        <time>2019-05-12T09:15:46Z</time>
      </trkpt>
      <trkpt lat="38.7466840" lon="-0.5960600">
        <ele>856.2</ele>
        <time>2019-05-12T09:15:49Z</time>
      </trkpt>
      <trkpt lat="38.7467710" lon="-0.5958010">
        <ele>856.0</ele>
        <time>2019-05-12T09:15:53Z</time>
      </trkpt>
      <trkpt lat="38.7468890" lon="-0.5956280">
        <ele>855.6</ele>
        <time>2019-05-12T09:15:56Z</time>
      </trkpt>
      <trkpt lat="38.7469300" lon="-0.5955810">
        <ele>855.6</ele>
        <time>2019-05-12T09:15:57Z</time>
      </trkpt>
      <trkpt lat="38.7470240" lon="-0.5954840">
        <ele>856.0</ele>
        <time>2019-05-12T09:15:59Z</time>
      </trkpt>
      <trkpt lat="38.7471140" lon="-0.5953250">
        <ele>855.2</ele>
        <time>2019-05-12T09:16:01Z</time>
      </trkpt>
      <trkpt lat="38.7471340" lon="-0.5952900">
        <ele>854.6</ele>
        <time>2019-05-12T09:16:02Z</time>
      </trkpt>
      <trkpt lat="38.7471640" lon="-0.5952190">
        <ele>854.4</ele>
        <time>2019-05-12T09:16:03Z</time>
      </trkpt>
      <trkpt lat="38.7471730" lon="-0.5950700">
        <ele>854.6</ele>
        <time>2019-05-12T09:16:05Z</time>
      </trkpt>
      <trkpt lat="38.7471880" lon="-0.5949950">
        <ele>854.8</ele>
        <time>2019-05-12T09:16:06Z</time>
      </trkpt>
      <trkpt lat="38.7471880" lon="-0.5948420">
        <ele>855.0</ele>
        <time>2019-05-12T09:16:08Z</time>
      </trkpt>
      <trkpt lat="38.7471680" lon="-0.5946290">
        <ele>854.8</ele>
        <time>2019-05-12T09:16:11Z</time>
      </trkpt>
      <trkpt lat="38.7472170" lon="-0.5945230">
        <ele>854.6</ele>
        <time>2019-05-12T09:16:13Z</time>
      </trkpt>
      <trkpt lat="38.7472450" lon="-0.5944730">
        <ele>854.8</ele>
        <time>2019-05-12T09:16:14Z</time>
      </trkpt>
      <trkpt lat="38.7472770" lon="-0.5944260">
        <ele>854.8</ele>
        <time>2019-05-12T09:16:15Z</time>
      </trkpt>
      <trkpt lat="38.7473120" lon="-0.5943830">
        <ele>855.0</ele>
        <time>2019-05-12T09:16:16Z</time>
      </trkpt>
      <trkpt lat="38.7474420" lon="-0.5942480">
        <ele>855.2</ele>
        <time>2019-05-12T09:16:19Z</time>
      </trkpt>
      <trkpt lat="38.7474730" lon="-0.5941940">
        <ele>855.6</ele>
        <time>2019-05-12T09:16:20Z</time>
      </trkpt>
      <trkpt lat="38.7474950" lon="-0.5941370">
        <ele>855.8</ele>
        <time>2019-05-12T09:16:21Z</time>
      </trkpt>
      <trkpt lat="38.7475550" lon="-0.5939530">
        <ele>856.2</ele>
        <time>2019-05-12T09:16:24Z</time>
      </trkpt>
      <trkpt lat="38.7477150" lon="-0.5936410">
        <ele>855.6</ele>
        <time>2019-05-12T09:16:29Z</time>
      </trkpt>
      <trkpt lat="38.7478760" lon="-0.5932570">
        <ele>856.0</ele>
        <time>2019-05-12T09:16:35Z</time>
      </trkpt>
      <trkpt lat="38.7479300" lon="-0.5931420">
        <ele>855.6</ele>
        <time>2019-05-12T09:16:37Z</time>
      </trkpt>
      <trkpt lat="38.7480720" lon="-0.5928740">
        <ele>856.2</ele>
        <time>2019-05-12T09:16:42Z</time>
      </trkpt>
      <trkpt lat="38.7481990" lon="-0.5926040">
        <ele>856.8</ele>
        <time>2019-05-12T09:16:47Z</time>
      </trkpt>
      <trkpt lat="38.7482450" lon="-0.5925040">
        <ele>857.4</ele>
        <time>2019-05-12T09:16:49Z</time>
      </trkpt>
      <trkpt lat="38.7483300" lon="-0.5923350">
        <ele>858.0</ele>
        <time>2019-05-12T09:16:53Z</time>
      </trkpt>
      <trkpt lat="38.7483870" lon="-0.5922210">
        <ele>858.8</ele>
        <time>2019-05-12T09:16:56Z</time>
      </trkpt>
      <trkpt lat="38.7484300" lon="-0.5921080">
        <ele>859.2</ele>
        <time>2019-05-12T09:16:59Z</time>
      </trkpt>
      <trkpt lat="38.7484780" lon="-0.5919630">
        <ele>860.0</ele>
        <time>2019-05-12T09:17:03Z</time>
      </trkpt>
      <trkpt lat="38.7484910" lon="-0.5918890">
        <ele>860.2</ele>
        <time>2019-05-12T09:17:05Z</time>
      </trkpt>
      <trkpt lat="38.7485140" lon="-0.5917760">
        <ele>861.2</ele>
        <time>2019-05-12T09:17:08Z</time>
      </trkpt>
      <trkpt lat="38.7485350" lon="-0.5917000">
        <ele>861.4</ele>
        <time>2019-05-12T09:17:10Z</time>
      </trkpt>
      <trkpt lat="38.7485950" lon="-0.5914620">
        <ele>861.8</ele>
        <time>2019-05-12T09:17:15Z</time>
      </trkpt>
      <trkpt lat="38.7486090" lon="-0.5914090">
        <ele>861.6</ele>
        <time>2019-05-12T09:17:16Z</time>
      </trkpt>
      <trkpt lat="38.7486360" lon="-0.5913040">
        <ele>861.2</ele>
        <time>2019-05-12T09:17:18Z</time>
      </trkpt>
      <trkpt lat="38.7486860" lon="-0.5911120">
        <ele>861.4</ele>
        <time>2019-05-12T09:17:22Z</time>
      </trkpt>
      <trkpt lat="38.7487190" lon="-0.5910830">
        <ele>861.6</ele>
        <time>2019-05-12T09:17:23Z</time>
      </trkpt>
      <trkpt lat="38.7487940" lon="-0.5910280">
        <ele>861.4</ele>
        <time>2019-05-12T09:17:25Z</time>
      </trkpt>
      <trkpt lat="38.7488330" lon="-0.5908490">
        <ele>861.2</ele>
        <time>2019-05-12T09:17:28Z</time>
      </trkpt>
      <trkpt lat="38.7488690" lon="-0.5904190">
        <ele>860.8</ele>
        <time>2019-05-12T09:17:35Z</time>
      </trkpt>
      <trkpt lat="38.7489070" lon="-0.5899160">
        <ele>860.8</ele>
        <time>2019-05-12T09:17:43Z</time>
      </trkpt>
      <trkpt lat="38.7490030" lon="-0.5894530">
        <ele>862.0</ele>
        <time>2019-05-12T09:17:51Z</time>
      </trkpt>
      <trkpt lat="38.7490230" lon="-0.5893960">
        <ele>861.8</ele>
        <time>2019-05-12T09:17:52Z</time>
      </trkpt>
      <trkpt lat="38.7491220" lon="-0.5891840">
        <ele>862.4</ele>
        <time>2019-05-12T09:17:56Z</time>
      </trkpt>
      <trkpt lat="38.7491460" lon="-0.5891330">
        <ele>862.6</ele>
        <time>2019-05-12T09:17:57Z</time>
      </trkpt>
      <trkpt lat="38.7491930" lon="-0.5890310">
        <ele>862.6</ele>
        <time>2019-05-12T09:17:59Z</time>
      </trkpt>
      <trkpt lat="38.7492770" lon="-0.5888270">
        <ele>863.6</ele>
        <time>2019-05-12T09:18:03Z</time>
      </trkpt>
      <trkpt lat="38.7492970" lon="-0.5887740">
        <ele>863.8</ele>
        <time>2019-05-12T09:18:04Z</time>
      </trkpt>
      <trkpt lat="38.7493210" lon="-0.5887220">
        <ele>863.8</ele>
        <time>2019-05-12T09:18:05Z</time>
      </trkpt>
      <trkpt lat="38.7494290" lon="-0.5885110">
        <ele>863.6</ele>
        <time>2019-05-12T09:18:09Z</time>
      </trkpt>
      <trkpt lat="38.7495200" lon="-0.5883640">
        <ele>864.0</ele>
        <time>2019-05-12T09:18:13Z</time>
      </trkpt>
      <trkpt lat="38.7495890" lon="-0.5883030">
        <ele>864.0</ele>
        <time>2019-05-12T09:18:15Z</time>
      </trkpt>
      <trkpt lat="38.7496770" lon="-0.5882330">
        <ele>863.8</ele>
        <time>2019-05-12T09:18:17Z</time>
      </trkpt>
      <trkpt lat="38.7497720" lon="-0.5881770">
        <ele>863.8</ele>
        <time>2019-05-12T09:18:19Z</time>
      </trkpt>
      <trkpt lat="38.7498760" lon="-0.5881670">
        <ele>863.8</ele>
        <time>2019-05-12T09:18:21Z</time>
      </trkpt>
      <trkpt lat="38.7500670" lon="-0.5882390">
        <ele>864.0</ele>
        <time>2019-05-12T09:18:25Z</time>
      </trkpt>
      <trkpt lat="38.7501100" lon="-0.5882590">
        <ele>863.8</ele>
        <time>2019-05-12T09:18:26Z</time>
      </trkpt>
      <trkpt lat="38.7501950" lon="-0.5883020">
        <ele>863.6</ele>
        <time>2019-05-12T09:18:28Z</time>
      </trkpt>
      <trkpt lat="38.7503200" lon="-0.5883660">
        <ele>863.6</ele>
        <time>2019-05-12T09:18:31Z</time>
      </trkpt>
      <trkpt lat="38.7504050" lon="-0.5884100">
        <ele>863.6</ele>
        <time>2019-05-12T09:18:33Z</time>
      </trkpt>
      <trkpt lat="38.7504930" lon="-0.5884450">
        <ele>864.2</ele>
        <time>2019-05-12T09:18:35Z</time>
      </trkpt>
      <trkpt lat="38.7505870" lon="-0.5884440">
        <ele>864.2</ele>
        <time>2019-05-12T09:18:37Z</time>
      </trkpt>
      <trkpt lat="38.7507050" lon="-0.5883470">
        <ele>864.2</ele>
        <time>2019-05-12T09:18:40Z</time>
      </trkpt>
      <trkpt lat="38.7507360" lon="-0.5883080">
        <ele>864.4</ele>
        <time>2019-05-12T09:18:41Z</time>
      </trkpt>
      <trkpt lat="38.7507670" lon="-0.5882700">
        <ele>864.6</ele>
        <time>2019-05-12T09:18:42Z</time>
      </trkpt>
      <trkpt lat="38.7508050" lon="-0.5882340">
        <ele>865.0</ele>
        <time>2019-05-12T09:18:43Z</time>
      </trkpt>
      <trkpt lat="38.7508870" lon="-0.5881680">
        <ele>865.0</ele>
        <time>2019-05-12T09:18:45Z</time>
      </trkpt>
      <trkpt lat="38.7511440" lon="-0.5880450">
        <ele>866.0</ele>
        <time>2019-05-12T09:18:51Z</time>
      </trkpt>
      <trkpt lat="38.7512500" lon="-0.5880170">
        <ele>867.2</ele>
        <time>2019-05-12T09:18:54Z</time>
      </trkpt>
      <trkpt lat="38.7513610" lon="-0.5880040">
        <ele>868.2</ele>
        <time>2019-05-12T09:18:57Z</time>
      </trkpt>
      <trkpt lat="38.7515310" lon="-0.5879930">
        <ele>869.2</ele>
        <time>2019-05-12T09:19:02Z</time>
      </trkpt>
      <trkpt lat="38.7515950" lon="-0.5879900">
        <ele>870.2</ele>
        <time>2019-05-12T09:19:04Z</time>
      </trkpt>
      <trkpt lat="38.7516260" lon="-0.5879880">
        <ele>870.6</ele>
        <time>2019-05-12T09:19:05Z</time>
      </trkpt>
      <trkpt lat="38.7517090" lon="-0.5879860">
        <ele>871.6</ele>
        <time>2019-05-12T09:19:08Z</time>
      </trkpt>
      <trkpt lat="38.7517530" lon="-0.5879810">
        <ele>872.4</ele>
        <time>2019-05-12T09:19:10Z</time>
      </trkpt>
      <trkpt lat="38.7517990" lon="-0.5879720">
        <ele>873.0</ele>
        <time>2019-05-12T09:19:12Z</time>
      </trkpt>
      <trkpt lat="38.7518710" lon="-0.5879310">
        <ele>873.8</ele>
        <time>2019-05-12T09:19:15Z</time>
      </trkpt>
      <trkpt lat="38.7518950" lon="-0.5879120">
        <ele>874.2</ele>
        <time>2019-05-12T09:19:16Z</time>
      </trkpt>
      <trkpt lat="38.7519940" lon="-0.5877700">
        <ele>875.0</ele>
        <time>2019-05-12T09:19:21Z</time>
      </trkpt>
      <trkpt lat="38.7520120" lon="-0.5877360">
        <ele>875.4</ele>
        <time>2019-05-12T09:19:22Z</time>
      </trkpt>
      <trkpt lat="38.7520900" lon="-0.5875190">
        <ele>876.0</ele>
        <time>2019-05-12T09:19:28Z</time>
      </trkpt>
      <trkpt lat="38.7521630" lon="-0.5873530">
        <ele>876.6</ele>
        <time>2019-05-12T09:19:33Z</time>
      </trkpt>
      <trkpt lat="38.7521780" lon="-0.5873180">
        <ele>876.6</ele>
        <time>2019-05-12T09:19:34Z</time>
      </trkpt>
      <trkpt lat="38.7523140" lon="-0.5870920">
        <ele>877.6</ele>
        <time>2019-05-12T09:19:41Z</time>
      </trkpt>
      <trkpt lat="38.7523370" lon="-0.5870680">
        <ele>877.8</ele>
        <time>2019-05-12T09:19:42Z</time>
      </trkpt>
      <trkpt lat="38.7524090" lon="-0.5870210">
        <ele>879.0</ele>
        <time>2019-05-12T09:19:45Z</time>
      </trkpt>
      <trkpt lat="38.7524560" lon="-0.5869940">
        <ele>879.4</ele>
        <time>2019-05-12T09:19:47Z</time>
      </trkpt>
      <trkpt lat="38.7525310" lon="-0.5869730">
        <ele>880.0</ele>
        <time>2019-05-12T09:19:50Z</time>
      </trkpt>
      <trkpt lat="38.7526100" lon="-0.5869500">
        <ele>880.4</ele>
        <time>2019-05-12T09:19:53Z</time>
      </trkpt>
      <trkpt lat="38.7526790" lon="-0.5869230">
        <ele>881.2</ele>
        <time>2019-05-12T09:19:56Z</time>
      </trkpt>
      <trkpt lat="38.7527250" lon="-0.5869070">
        <ele>881.4</ele>
        <time>2019-05-12T09:19:58Z</time>
      </trkpt>
      <trkpt lat="38.7527400" lon="-0.5868930">
        <ele>881.8</ele>
        <time>2019-05-12T09:19:59Z</time>
      </trkpt>
      <trkpt lat="38.7527570" lon="-0.5868740">
        <ele>882.2</ele>
        <time>2019-05-12T09:20:00Z</time>
      </trkpt>
      <trkpt lat="38.7527950" lon="-0.5868300">
        <ele>882.8</ele>
        <time>2019-05-12T09:20:02Z</time>
      </trkpt>
      <trkpt lat="38.7529060" lon="-0.5866260">
        <ele>883.2</ele>
        <time>2019-05-12T09:20:08Z</time>
      </trkpt>
      <trkpt lat="38.7529550" lon="-0.5865420">
        <ele>883.2</ele>
        <time>2019-05-12T09:20:10Z</time>
      </trkpt>
      <trkpt lat="38.7530260" lon="-0.5864550">
        <ele>882.8</ele>
        <time>2019-05-12T09:20:12Z</time>
      </trkpt>
      <trkpt lat="38.7530670" lon="-0.5864100">
        <ele>882.4</ele>
        <time>2019-05-12T09:20:13Z</time>
      </trkpt>
      <trkpt lat="38.7531050" lon="-0.5863600">
        <ele>882.0</ele>
        <time>2019-05-12T09:20:14Z</time>
      </trkpt>
      <trkpt lat="38.7532410" lon="-0.5861540">
        <ele>882.0</ele>
        <time>2019-05-12T09:20:18Z</time>
      </trkpt>
      <trkpt lat="38.7534240" lon="-0.5858220">
        <ele>882.6</ele>
        <time>2019-05-12T09:20:25Z</time>
      </trkpt>
      <trkpt lat="38.7534950" lon="-0.5857290">
        <ele>883.6</ele>
        <time>2019-05-12T09:20:28Z</time>
      </trkpt>
      <trkpt lat="38.7535440" lon="-0.5856790">
        <ele>884.4</ele>
        <time>2019-05-12T09:20:30Z</time>
      </trkpt>
      <trkpt lat="38.7537720" lon="-0.5854740">
        <ele>884.4</ele>
        <time>2019-05-12T09:20:37Z</time>
      </trkpt>
      <trkpt lat="38.7538520" lon="-0.5854200">
        <ele>884.4</ele>
        <time>2019-05-12T09:20:39Z</time>
      </trkpt>
      <trkpt lat="38.7539760" lon="-0.5853660">
        <ele>884.4</ele>
        <time>2019-05-12T09:20:42Z</time>
      </trkpt>
      <trkpt lat="38.7540190" lon="-0.5853520">
        <ele>884.6</ele>
        <time>2019-05-12T09:20:43Z</time>
      </trkpt>
      <trkpt lat="38.7541540" lon="-0.5853190">
        <ele>884.6</ele>
        <time>2019-05-12T09:20:46Z</time>
      </trkpt>
      <trkpt lat="38.7543410" lon="-0.5852680">
        <ele>884.2</ele>
        <time>2019-05-12T09:20:50Z</time>
      </trkpt>
      <trkpt lat="38.7545180" lon="-0.5851210">
        <ele>885.0</ele>
        <time>2019-05-12T09:20:55Z</time>
      </trkpt>
      <trkpt lat="38.7546160" lon="-0.5850160">
        <ele>886.0</ele>
        <time>2019-05-12T09:20:59Z</time>
      </trkpt>
      <trkpt lat="38.7546390" lon="-0.5849910">
        <ele>886.6</ele>
        <time>2019-05-12T09:21:00Z</time>
      </trkpt>
      <trkpt lat="38.7546930" lon="-0.5849470">
        <ele>887.4</ele>
        <time>2019-05-12T09:21:02Z</time>
      </trkpt>
      <trkpt lat="38.7548340" lon="-0.5848590">
        <ele>888.4</ele>
        <time>2019-05-12T09:21:06Z</time>
      </trkpt>
      <trkpt lat="38.7548350" lon="-0.5848580">
        <ele>888.4</ele>
        <time>2019-05-12T09:21:07Z</time>
      </trkpt>
      <trkpt lat="38.7549940" lon="-0.5847880">
        <ele>889.6</ele>
        <time>2019-05-12T09:21:12Z</time>
      </trkpt>
      <trkpt lat="38.7552330" lon="-0.5847070">
        <ele>890.0</ele>
        <time>2019-05-12T09:21:18Z</time>
      </trkpt>
      <trkpt lat="38.7552740" lon="-0.5846950">
        <ele>890.4</ele>
        <time>2019-05-12T09:21:19Z</time>
      </trkpt>
      <trkpt lat="38.7554360" lon="-0.5846270">
        <ele>889.8</ele>
        <time>2019-05-12T09:21:23Z</time>
      </trkpt>
      <trkpt lat="38.7555210" lon="-0.5845840">
        <ele>890.0</ele>
        <time>2019-05-12T09:21:25Z</time>
      </trkpt>
      <trkpt lat="38.7556720" lon="-0.5844870">
        <ele>888.4</ele>
        <time>2019-05-12T09:21:28Z</time>
      </trkpt>
      <trkpt lat="38.7557800" lon="-0.5844170">
        <ele>888.0</ele>
        <time>2019-05-12T09:21:30Z</time>
      </trkpt>
      <trkpt lat="38.7559720" lon="-0.5842560">
        <ele>887.8</ele>
        <time>2019-05-12T09:21:34Z</time>
      </trkpt>
      <trkpt lat="38.7560420" lon="-0.5841560">
        <ele>887.2</ele>
        <time>2019-05-12T09:21:36Z</time>
      </trkpt>
      <trkpt lat="38.7561040" lon="-0.5840530">
        <ele>887.0</ele>
        <time>2019-05-12T09:21:38Z</time>
      </trkpt>
      <trkpt lat="38.7562110" lon="-0.5838430">
        <ele>887.8</ele>
        <time>2019-05-12T09:21:42Z</time>
      </trkpt>
      <trkpt lat="38.7562360" lon="-0.5837930">
        <ele>888.2</ele>
        <time>2019-05-12T09:21:43Z</time>
      </trkpt>
      <trkpt lat="38.7562940" lon="-0.5836420">
        <ele>889.4</ele>
        <time>2019-05-12T09:21:46Z</time>
      </trkpt>
      <trkpt lat="38.7563500" lon="-0.5834960">
        <ele>889.0</ele>
        <time>2019-05-12T09:21:49Z</time>
      </trkpt>
      <trkpt lat="38.7564280" lon="-0.5832660">
        <ele>888.4</ele>
        <time>2019-05-12T09:21:53Z</time>
      </trkpt>
      <trkpt lat="38.7564890" lon="-0.5830930">
        <ele>887.8</ele>
        <time>2019-05-12T09:21:56Z</time>
      </trkpt>
      <trkpt lat="38.7566150" lon="-0.5826950">
        <ele>889.4</ele>
        <time>2019-05-12T09:22:03Z</time>
      </trkpt>
      <trkpt lat="38.7566360" lon="-0.5826390">
        <ele>889.4</ele>
        <time>2019-05-12T09:22:04Z</time>
      </trkpt>
      <trkpt lat="38.7567970" lon="-0.5822670">
        <ele>889.8</ele>
        <time>2019-05-12T09:22:11Z</time>
      </trkpt>
      <trkpt lat="38.7568530" lon="-0.5820710">
        <ele>890.2</ele>
        <time>2019-05-12T09:22:15Z</time>
      </trkpt>
      <trkpt lat="38.7568490" lon="-0.5820190">
        <ele>890.6</ele>
        <time>2019-05-12T09:22:16Z</time>
      </trkpt>
      <trkpt lat="38.7567730" lon="-0.5818090">
        <ele>890.8</ele>
        <time>2019-05-12T09:22:20Z</time>
      </trkpt>
      <trkpt lat="38.7567170" lon="-0.5816480">
        <ele>891.0</ele>
        <time>2019-05-12T09:22:23Z</time>
      </trkpt>
      <trkpt lat="38.7566380" lon="-0.5814600">
        <ele>891.6</ele>
        <time>2019-05-12T09:22:27Z</time>
      </trkpt>
      <trkpt lat="38.7566240" lon="-0.5814080">
        <ele>891.8</ele>
        <time>2019-05-12T09:22:28Z</time>
      </trkpt>
      <trkpt lat="38.7565960" lon="-0.5812490">
        <ele>892.4</ele>
        <time>2019-05-12T09:22:31Z</time>
      </trkpt>
      <trkpt lat="38.7565860" lon="-0.5811980">
        <ele>892.6</ele>
        <time>2019-05-12T09:22:32Z</time>
      </trkpt>
      <trkpt lat="38.7565550" lon="-0.5811090">
        <ele>893.0</ele>
        <time>2019-05-12T09:22:34Z</time>
      </trkpt>
      <trkpt lat="38.7565050" lon="-0.5810030">
        <ele>893.4</ele>
        <time>2019-05-12T09:22:37Z</time>
      </trkpt>
      <trkpt lat="38.7564100" lon="-0.5808340">
        <ele>894.0</ele>
        <time>2019-05-12T09:22:43Z</time>
      </trkpt>
      <trkpt lat="38.7563710" lon="-0.5807400">
        <ele>895.0</ele>
        <time>2019-05-12T09:22:46Z</time>
      </trkpt>
      <trkpt lat="38.7563410" lon="-0.5806510">
        <ele>895.2</ele>
        <time>2019-05-12T09:22:49Z</time>
      </trkpt>
      <trkpt lat="38.7563200" lon="-0.5805970">
        <ele>896.2</ele>
        <time>2019-05-12T09:22:51Z</time>
      </trkpt>
      <trkpt lat="38.7562780" lon="-0.5805020">
        <ele>896.8</ele>
        <time>2019-05-12T09:22:55Z</time>
      </trkpt>
      <trkpt lat="38.7562740" lon="-0.5804740">
        <ele>897.2</ele>
        <time>2019-05-12T09:22:56Z</time>
      </trkpt>
      <trkpt lat="38.7562550" lon="-0.5803360">
        <ele>898.4</ele>
        <time>2019-05-12T09:23:01Z</time>
      </trkpt>
      <trkpt lat="38.7562310" lon="-0.5802180">
        <ele>899.6</ele>
        <time>2019-05-12T09:23:05Z</time>
      </trkpt>
      <trkpt lat="38.7562220" lon="-0.5801920">
        <ele>899.8</ele>
        <time>2019-05-12T09:23:06Z</time>
      </trkpt>
      <trkpt lat="38.7561660" lon="-0.5800180">
        <ele>900.8</ele>
        <time>2019-05-12T09:23:12Z</time>
      </trkpt>
      <trkpt lat="38.7561440" lon="-0.5798550">
        <ele>901.2</ele>
        <time>2019-05-12T09:23:17Z</time>
      </trkpt>
      <trkpt lat="38.7561060" lon="-0.5797510">
        <ele>902.0</ele>
        <time>2019-05-12T09:23:21Z</time>
      </trkpt>
      <trkpt lat="38.7560970" lon="-0.5797270">
        <ele>902.2</ele>
        <time>2019-05-12T09:23:22Z</time>
      </trkpt>
      <trkpt lat="38.7560760" lon="-0.5796500">
        <ele>903.0</ele>
        <time>2019-05-12T09:23:25Z</time>
      </trkpt>
      <trkpt lat="38.7560800" lon="-0.5796220">
        <ele>903.2</ele>
        <time>2019-05-12T09:23:26Z</time>
      </trkpt>
      <trkpt lat="38.7560870" lon="-0.5795870">
        <ele>903.4</ele>
        <time>2019-05-12T09:23:27Z</time>
      </trkpt>
      <trkpt lat="38.7560630" lon="-0.5794670">
        <ele>904.0</ele>
        <time>2019-05-12T09:23:31Z</time>
      </trkpt>
      <trkpt lat="38.7560560" lon="-0.5794390">
        <ele>904.0</ele>
        <time>2019-05-12T09:23:32Z</time>
      </trkpt>
      <trkpt lat="38.7560580" lon="-0.5793840">
        <ele>904.4</ele>
        <time>2019-05-12T09:23:34Z</time>
      </trkpt>
      <trkpt lat="38.7560530" lon="-0.5792950">
        <ele>905.0</ele>
        <time>2019-05-12T09:23:37Z</time>
      </trkpt>
      <trkpt lat="38.7560580" lon="-0.5791610">
        <ele>905.8</ele>
        <time>2019-05-12T09:23:42Z</time>
      </trkpt>
      <trkpt lat="38.7560570" lon="-0.5791370">
        <ele>906.2</ele>
        <time>2019-05-12T09:23:43Z</time>
      </trkpt>
      <trkpt lat="38.7560530" lon="-0.5791120">
        <ele>907.0</ele>
        <time>2019-05-12T09:23:44Z</time>
      </trkpt>
      <trkpt lat="38.7560420" lon="-0.5790190">
        <ele>907.8</ele>
        <time>2019-05-12T09:23:48Z</time>
      </trkpt>
      <trkpt lat="38.7560260" lon="-0.5789460">
        <ele>908.0</ele>
        <time>2019-05-12T09:23:51Z</time>
      </trkpt>
      <trkpt lat="38.7559990" lon="-0.5789180">
        <ele>908.8</ele>
        <time>2019-05-12T09:23:53Z</time>
      </trkpt>
      <trkpt lat="38.7559720" lon="-0.5788890">
        <ele>909.4</ele>
        <time>2019-05-12T09:23:55Z</time>
      </trkpt>
      <trkpt lat="38.7559210" lon="-0.5788300">
        <ele>910.2</ele>
        <time>2019-05-12T09:23:59Z</time>
      </trkpt>
      <trkpt lat="38.7558960" lon="-0.5787980">
        <ele>910.4</ele>
        <time>2019-05-12T09:24:01Z</time>
      </trkpt>
      <trkpt lat="38.7558560" lon="-0.5787480">
        <ele>910.8</ele>
        <time>2019-05-12T09:24:04Z</time>
      </trkpt>
      <trkpt lat="38.7557740" lon="-0.5786820">
        <ele>911.6</ele>
        <time>2019-05-12T09:24:08Z</time>
      </trkpt>
      <trkpt lat="38.7557080" lon="-0.5786290">
        <ele>911.8</ele>
        <time>2019-05-12T09:24:11Z</time>
      </trkpt>
      <trkpt lat="38.7555280" lon="-0.5784310">
        <ele>912.6</ele>
        <time>2019-05-12T09:24:20Z</time>
      </trkpt>
      <trkpt lat="38.7554960" lon="-0.5783860">
        <ele>912.8</ele>
        <time>2019-05-12T09:24:22Z</time>
      </trkpt>
      <trkpt lat="38.7554240" lon="-0.5782690">
        <ele>914.0</ele>
        <time>2019-05-12T09:24:27Z</time>
      </trkpt>
      <trkpt lat="38.7554090" lon="-0.5782430">
        <ele>914.2</ele>
        <time>2019-05-12T09:24:28Z</time>
      </trkpt>
      <trkpt lat="38.7553780" lon="-0.5781940">
        <ele>915.0</ele>
        <time>2019-05-12T09:24:30Z</time>
      </trkpt>
      <trkpt lat="38.7553370" lon="-0.5780770">
        <ele>915.6</ele>
        <time>2019-05-12T09:24:34Z</time>
      </trkpt>
      <trkpt lat="38.7553250" lon="-0.5780160">
        <ele>916.0</ele>
        <time>2019-05-12T09:24:36Z</time>
      </trkpt>
      <trkpt lat="38.7552910" lon="-0.5778540">
        <ele>916.8</ele>
        <time>2019-05-12T09:24:41Z</time>
      </trkpt>
      <trkpt lat="38.7552820" lon="-0.5778250">
        <ele>917.2</ele>
        <time>2019-05-12T09:24:42Z</time>
      </trkpt>
      <trkpt lat="38.7552230" lon="-0.5777040">
        <ele>918.2</ele>
        <time>2019-05-12T09:24:47Z</time>
      </trkpt>
      <trkpt lat="38.7552090" lon="-0.5776820">
        <ele>918.4</ele>
        <time>2019-05-12T09:24:48Z</time>
      </trkpt>
      <trkpt lat="38.7551560" lon="-0.5775950">
        <ele>919.8</ele>
        <time>2019-05-12T09:24:52Z</time>
      </trkpt>
      <trkpt lat="38.7551390" lon="-0.5775490">
        <ele>920.0</ele>
        <time>2019-05-12T09:24:54Z</time>
      </trkpt>
      <trkpt lat="38.7551080" lon="-0.5774780">
        <ele>921.0</ele>
        <time>2019-05-12T09:24:57Z</time>
      </trkpt>
      <trkpt lat="38.7550850" lon="-0.5773990">
        <ele>921.8</ele>
        <time>2019-05-12T09:25:00Z</time>
      </trkpt>
      <trkpt lat="38.7550800" lon="-0.5773700">
        <ele>922.0</ele>
        <time>2019-05-12T09:25:01Z</time>
      </trkpt>
      <trkpt lat="38.7550580" lon="-0.5772120">
        <ele>922.6</ele>
        <time>2019-05-12T09:25:06Z</time>
      </trkpt>
      <trkpt lat="38.7550570" lon="-0.5771710">
        <ele>922.6</ele>
        <time>2019-05-12T09:25:07Z</time>
      </trkpt>
      <trkpt lat="38.7550240" lon="-0.5768520">
        <ele>923.0</ele>
        <time>2019-05-12T09:25:15Z</time>
      </trkpt>
      <trkpt lat="38.7549600" lon="-0.5767000">
        <ele>923.8</ele>
        <time>2019-05-12T09:25:20Z</time>
      </trkpt>
      <trkpt lat="38.7548400" lon="-0.5765570">
        <ele>923.0</ele>
        <time>2019-05-12T09:25:25Z</time>
      </trkpt>
      <trkpt lat="38.7547170" lon="-0.5764930">
        <ele>922.0</ele>
        <time>2019-05-12T09:25:28Z</time>
      </trkpt>
      <trkpt lat="38.7546720" lon="-0.5764500">
        <ele>921.6</ele>
        <time>2019-05-12T09:25:29Z</time>
      </trkpt>
      <trkpt lat="38.7545900" lon="-0.5763250">
        <ele>920.4</ele>
        <time>2019-05-12T09:25:31Z</time>
      </trkpt>
      <trkpt lat="38.7545540" lon="-0.5762620">
        <ele>919.6</ele>
        <time>2019-05-12T09:25:32Z</time>
      </trkpt>
      <trkpt lat="38.7545230" lon="-0.5761930">
        <ele>919.2</ele>
        <time>2019-05-12T09:25:33Z</time>
      </trkpt>
      <trkpt lat="38.7544840" lon="-0.5760430">
        <ele>918.0</ele>
        <time>2019-05-12T09:25:35Z</time>
      </trkpt>
      <trkpt lat="38.7544690" lon="-0.5759690">
        <ele>917.6</ele>
        <time>2019-05-12T09:25:36Z</time>
      </trkpt>
      <trkpt lat="38.7544290" lon="-0.5758370">
        <ele>917.8</ele>
        <time>2019-05-12T09:25:38Z</time>
      </trkpt>
      <trkpt lat="38.7543820" lon="-0.5756750">
        <ele>918.2</ele>
        <time>2019-05-12T09:25:41Z</time>
      </trkpt>
      <trkpt lat="38.7543840" lon="-0.5755830">
        <ele>919.2</ele>
        <time>2019-05-12T09:25:43Z</time>
      </trkpt>
      <trkpt lat="38.7544010" lon="-0.5755090">
        <ele>920.0</ele>
        <time>2019-05-12T09:25:45Z</time>
      </trkpt>
      <trkpt lat="38.7544150" lon="-0.5754710">
        <ele>920.6</ele>
        <time>2019-05-12T09:25:46Z</time>
      </trkpt>
      <trkpt lat="38.7544470" lon="-0.5753170">
        <ele>921.2</ele>
        <time>2019-05-12T09:25:50Z</time>
      </trkpt>
      <trkpt lat="38.7544590" lon="-0.5752510">
        <ele>921.8</ele>
        <time>2019-05-12T09:25:52Z</time>
      </trkpt>
      <trkpt lat="38.7545050" lon="-0.5750920">
        <ele>922.6</ele>
        <time>2019-05-12T09:25:57Z</time>
      </trkpt>
      <trkpt lat="38.7545310" lon="-0.5750230">
        <ele>923.0</ele>
        <time>2019-05-12T09:25:59Z</time>
      </trkpt>
      <trkpt lat="38.7545590" lon="-0.5748300">
        <ele>923.6</ele>
        <time>2019-05-12T09:26:04Z</time>
      </trkpt>
      <trkpt lat="38.7545530" lon="-0.5747550">
        <ele>924.0</ele>
        <time>2019-05-12T09:26:06Z</time>
      </trkpt>
      <trkpt lat="38.7544930" lon="-0.5745750">
        <ele>924.2</ele>
        <time>2019-05-12T09:26:11Z</time>
      </trkpt>
      <trkpt lat="38.7543820" lon="-0.5744340">
        <ele>924.6</ele>
        <time>2019-05-12T09:26:17Z</time>
      </trkpt>
      <trkpt lat="38.7541980" lon="-0.5744090">
        <ele>923.8</ele>
        <time>2019-05-12T09:26:22Z</time>
      </trkpt>
      <trkpt lat="38.7541280" lon="-0.5743390">
        <ele>923.0</ele>
        <time>2019-05-12T09:26:24Z</time>
      </trkpt>
      <trkpt lat="38.7541050" lon="-0.5742830">
        <ele>922.8</ele>
        <time>2019-05-12T09:26:25Z</time>
      </trkpt>
      <trkpt lat="38.7540980" lon="-0.5741500">
        <ele>922.0</ele>
        <time>2019-05-12T09:26:27Z</time>
      </trkpt>
      <trkpt lat="38.7540920" lon="-0.5740820">
        <ele>921.6</ele>
        <time>2019-05-12T09:26:28Z</time>
      </trkpt>
      <trkpt lat="38.7540830" lon="-0.5740140">
        <ele>921.4</ele>
        <time>2019-05-12T09:26:29Z</time>
      </trkpt>
      <trkpt lat="38.7540570" lon="-0.5739510">
        <ele>921.4</ele>
        <time>2019-05-12T09:26:30Z</time>
      </trkpt>
      <trkpt lat="38.7540160" lon="-0.5739020">
        <ele>921.4</ele>
        <time>2019-05-12T09:26:31Z</time>
      </trkpt>
      <trkpt lat="38.7538350" lon="-0.5737480">
        <ele>921.4</ele>
        <time>2019-05-12T09:26:35Z</time>
      </trkpt>
      <trkpt lat="38.7537320" lon="-0.5736710">
        <ele>922.6</ele>
        <time>2019-05-12T09:26:39Z</time>
      </trkpt>
      <trkpt lat="38.7537100" lon="-0.5736530">
        <ele>923.2</ele>
        <time>2019-05-12T09:26:40Z</time>
      </trkpt>
      <trkpt lat="38.7536620" lon="-0.5736150">
        <ele>924.6</ele>
        <time>2019-05-12T09:26:42Z</time>
      </trkpt>
      <trkpt lat="38.7535900" lon="-0.5735700">
        <ele>925.4</ele>
        <time>2019-05-12T09:26:45Z</time>
      </trkpt>
      <trkpt lat="38.7535460" lon="-0.5735390">
        <ele>925.8</ele>
        <time>2019-05-12T09:26:47Z</time>
      </trkpt>
      <trkpt lat="38.7534690" lon="-0.5734730">
        <ele>927.0</ele>
        <time>2019-05-12T09:26:51Z</time>
      </trkpt>
      <trkpt lat="38.7534500" lon="-0.5734540">
        <ele>927.0</ele>
        <time>2019-05-12T09:26:52Z</time>
      </trkpt>
      <trkpt lat="38.7533400" lon="-0.5733320">
        <ele>928.0</ele>
        <time>2019-05-12T09:26:58Z</time>
      </trkpt>
      <trkpt lat="38.7533200" lon="-0.5733130">
        <ele>928.2</ele>
        <time>2019-05-12T09:26:59Z</time>
      </trkpt>
      <trkpt lat="38.7532690" lon="-0.5732510">
        <ele>929.4</ele>
        <time>2019-05-12T09:27:02Z</time>
      </trkpt>
      <trkpt lat="38.7532190" lon="-0.5731790">
        <ele>930.2</ele>
        <time>2019-05-12T09:27:05Z</time>
      </trkpt>
      <trkpt lat="38.7531870" lon="-0.5731320">
        <ele>930.6</ele>
        <time>2019-05-12T09:27:07Z</time>
      </trkpt>
      <trkpt lat="38.7531330" lon="-0.5730370">
        <ele>931.8</ele>
        <time>2019-05-12T09:27:11Z</time>
      </trkpt>
      <trkpt lat="38.7531190" lon="-0.5730180">
        <ele>932.0</ele>
        <time>2019-05-12T09:27:12Z</time>
      </trkpt>
      <trkpt lat="38.7530670" lon="-0.5729580">
        <ele>933.0</ele>
        <time>2019-05-12T09:27:15Z</time>
      </trkpt>
      <trkpt lat="38.7530290" lon="-0.5729110">
        <ele>933.4</ele>
        <time>2019-05-12T09:27:18Z</time>
      </trkpt>
      <trkpt lat="38.7529970" lon="-0.5728180">
        <ele>934.0</ele>
        <time>2019-05-12T09:27:22Z</time>
      </trkpt>
      <trkpt lat="38.7529740" lon="-0.5727650">
        <ele>934.6</ele>
        <time>2019-05-12T09:27:24Z</time>
      </trkpt>
      <trkpt lat="38.7528910" lon="-0.5726070">
        <ele>935.2</ele>
        <time>2019-05-12T09:27:30Z</time>
      </trkpt>
      <trkpt lat="38.7528760" lon="-0.5725810">
        <ele>935.4</ele>
        <time>2019-05-12T09:27:31Z</time>
      </trkpt>
      <trkpt lat="38.7527670" lon="-0.5723600">
        <ele>936.0</ele>
        <time>2019-05-12T09:27:39Z</time>
      </trkpt>
      <trkpt lat="38.7527650" lon="-0.5723300">
        <ele>936.2</ele>
        <time>2019-05-12T09:27:40Z</time>
      </trkpt>
      <trkpt lat="38.7527770" lon="-0.5722020">
        <ele>936.8</ele>
        <time>2019-05-12T09:27:44Z</time>
      </trkpt>
      <trkpt lat="38.7527860" lon="-0.5721470">
        <ele>937.4</ele>
        <time>2019-05-12T09:27:46Z</time>
      </trkpt>
      <trkpt lat="38.7527960" lon="-0.5720520">
        <ele>938.6</ele>
        <time>2019-05-12T09:27:50Z</time>
      </trkpt>
      <trkpt lat="38.7528000" lon="-0.5720280">
        <ele>939.0</ele>
        <time>2019-05-12T09:27:51Z</time>
      </trkpt>
      <trkpt lat="38.7528090" lon="-0.5719770">
        <ele>939.8</ele>
        <time>2019-05-12T09:27:53Z</time>
      </trkpt>
      <trkpt lat="38.7528190" lon="-0.5718740">
        <ele>941.4</ele>
        <time>2019-05-12T09:27:57Z</time>
      </trkpt>
      <trkpt lat="38.7528220" lon="-0.5718500">
        <ele>941.8</ele>
        <time>2019-05-12T09:27:58Z</time>
      </trkpt>
      <trkpt lat="38.7528240" lon="-0.5717780">
        <ele>942.4</ele>
        <time>2019-05-12T09:28:01Z</time>
      </trkpt>
      <trkpt lat="38.7528150" lon="-0.5716780">
        <ele>943.0</ele>
        <time>2019-05-12T09:28:05Z</time>
      </trkpt>
      <trkpt lat="38.7527930" lon="-0.5715640">
        <ele>943.6</ele>
        <time>2019-05-12T09:28:09Z</time>
      </trkpt>
      <trkpt lat="38.7527660" lon="-0.5714530">
        <ele>943.0</ele>
        <time>2019-05-12T09:28:12Z</time>
      </trkpt>
      <trkpt lat="38.7527250" lon="-0.5711870">
        <ele>942.8</ele>
        <time>2019-05-12T09:28:18Z</time>
      </trkpt>
      <trkpt lat="38.7527090" lon="-0.5711370">
        <ele>942.6</ele>
        <time>2019-05-12T09:28:19Z</time>
      </trkpt>
      <trkpt lat="38.7526620" lon="-0.5709560">
        <ele>941.8</ele>
        <time>2019-05-12T09:28:22Z</time>
      </trkpt>
      <trkpt lat="38.7526530" lon="-0.5708950">
        <ele>941.4</ele>
        <time>2019-05-12T09:28:23Z</time>
      </trkpt>
      <trkpt lat="38.7526370" lon="-0.5706630">
        <ele>941.8</ele>
        <time>2019-05-12T09:28:27Z</time>
      </trkpt>
      <trkpt lat="38.7526470" lon="-0.5705690">
        <ele>942.4</ele>
        <time>2019-05-12T09:28:29Z</time>
      </trkpt>
      <trkpt lat="38.7526530" lon="-0.5705270">
        <ele>942.8</ele>
        <time>2019-05-12T09:28:30Z</time>
      </trkpt>
      <trkpt lat="38.7526610" lon="-0.5703100">
        <ele>943.4</ele>
        <time>2019-05-12T09:28:35Z</time>
      </trkpt>
      <trkpt lat="38.7526750" lon="-0.5702350">
        <ele>943.8</ele>
        <time>2019-05-12T09:28:37Z</time>
      </trkpt>
      <trkpt lat="38.7526980" lon="-0.5701500">
        <ele>944.6</ele>
        <time>2019-05-12T09:28:40Z</time>
      </trkpt>
      <trkpt lat="38.7527020" lon="-0.5701190">
        <ele>944.8</ele>
        <time>2019-05-12T09:28:41Z</time>
      </trkpt>
      <trkpt lat="38.7527070" lon="-0.5700190">
        <ele>946.0</ele>
        <time>2019-05-12T09:28:44Z</time>
      </trkpt>
      <trkpt lat="38.7527010" lon="-0.5699790">
        <ele>946.0</ele>
        <time>2019-05-12T09:28:45Z</time>
      </trkpt>
      <trkpt lat="38.7526620" lon="-0.5697600">
        <ele>945.0</ele>
        <time>2019-05-12T09:28:49Z</time>
      </trkpt>
      <trkpt lat="38.7526700" lon="-0.5697000">
        <ele>944.6</ele>
        <time>2019-05-12T09:28:50Z</time>
      </trkpt>
      <trkpt lat="38.7526880" lon="-0.5695360">
        <ele>945.0</ele>
        <time>2019-05-12T09:28:53Z</time>
      </trkpt>
      <trkpt lat="38.7526830" lon="-0.5694800">
        <ele>944.8</ele>
        <time>2019-05-12T09:28:54Z</time>
      </trkpt>
      <trkpt lat="38.7526740" lon="-0.5692840">
        <ele>944.2</ele>
        <time>2019-05-12T09:28:57Z</time>
      </trkpt>
      <trkpt lat="38.7526470" lon="-0.5690790">
        <ele>944.0</ele>
        <time>2019-05-12T09:29:00Z</time>
      </trkpt>
      <trkpt lat="38.7526010" lon="-0.5689330">
        <ele>943.6</ele>
        <time>2019-05-12T09:29:02Z</time>
      </trkpt>
      <trkpt lat="38.7526120" lon="-0.5687050">
        <ele>942.6</ele>
        <time>2019-05-12T09:29:05Z</time>
      </trkpt>
      <trkpt lat="38.7526180" lon="-0.5685600">
        <ele>942.4</ele>
        <time>2019-05-12T09:29:07Z</time>
      </trkpt>
      <trkpt lat="38.7526130" lon="-0.5684890">
        <ele>942.6</ele>
        <time>2019-05-12T09:29:08Z</time>
      </trkpt>
      <trkpt lat="38.7525910" lon="-0.5684180">
        <ele>942.2</ele>
        <time>2019-05-12T09:29:09Z</time>
      </trkpt>
      <trkpt lat="38.7525030" lon="-0.5682220">
        <ele>941.4</ele>
        <time>2019-05-12T09:29:12Z</time>
      </trkpt>
      <trkpt lat="38.7524890" lon="-0.5681610">
        <ele>941.2</ele>
        <time>2019-05-12T09:29:13Z</time>
      </trkpt>
      <trkpt lat="38.7525170" lon="-0.5679810">
        <ele>940.8</ele>
        <time>2019-05-12T09:29:16Z</time>
      </trkpt>
      <trkpt lat="38.7525640" lon="-0.5678400">
        <ele>941.4</ele>
        <time>2019-05-12T09:29:19Z</time>
      </trkpt>
      <trkpt lat="38.7525730" lon="-0.5677940">
        <ele>941.6</ele>
        <time>2019-05-12T09:29:20Z</time>
      </trkpt>
      <trkpt lat="38.7525960" lon="-0.5676660">
        <ele>942.6</ele>
        <time>2019-05-12T09:29:23Z</time>
      </trkpt>
      <trkpt lat="38.7525920" lon="-0.5675700">
        <ele>943.0</ele>
        <time>2019-05-12T09:29:25Z</time>
      </trkpt>
      <trkpt lat="38.7525820" lon="-0.5674670">
        <ele>943.0</ele>
        <time>2019-05-12T09:29:27Z</time>
      </trkpt>
      <trkpt lat="38.7525600" lon="-0.5672760">
        <ele>942.0</ele>
        <time>2019-05-12T09:29:30Z</time>
      </trkpt>
      <trkpt lat="38.7525600" lon="-0.5672070">
        <ele>941.8</ele>
        <time>2019-05-12T09:29:31Z</time>
      </trkpt>
      <trkpt lat="38.7525890" lon="-0.5670670">
        <ele>941.4</ele>
        <time>2019-05-12T09:29:33Z</time>
      </trkpt>
      <trkpt lat="38.7526420" lon="-0.5669320">
        <ele>941.0</ele>
        <time>2019-05-12T09:29:35Z</time>
      </trkpt>
      <trkpt lat="38.7527040" lon="-0.5668090">
        <ele>940.2</ele>
        <time>2019-05-12T09:29:37Z</time>
      </trkpt>
      <trkpt lat="38.7527910" lon="-0.5666540">
        <ele>940.2</ele>
        <time>2019-05-12T09:29:40Z</time>
      </trkpt>
      <trkpt lat="38.7530020" lon="-0.5663800">
        <ele>939.4</ele>
        <time>2019-05-12T09:29:46Z</time>
      </trkpt>
      <trkpt lat="38.7530440" lon="-0.5663410">
        <ele>939.2</ele>
        <time>2019-05-12T09:29:47Z</time>
      </trkpt>
      <trkpt lat="38.7530900" lon="-0.5663030">
        <ele>939.2</ele>
        <time>2019-05-12T09:29:48Z</time>
      </trkpt>
      <trkpt lat="38.7531770" lon="-0.5662100">
        <ele>938.8</ele>
        <time>2019-05-12T09:29:50Z</time>
      </trkpt>
      <trkpt lat="38.7532180" lon="-0.5661590">
        <ele>938.8</ele>
        <time>2019-05-12T09:29:51Z</time>
      </trkpt>
      <trkpt lat="38.7533480" lon="-0.5660080">
        <ele>938.2</ele>
        <time>2019-05-12T09:29:54Z</time>
      </trkpt>
      <trkpt lat="38.7534850" lon="-0.5658610">
        <ele>938.0</ele>
        <time>2019-05-12T09:29:57Z</time>
      </trkpt>
      <trkpt lat="38.7535740" lon="-0.5657610">
        <ele>937.8</ele>
        <time>2019-05-12T09:29:59Z</time>
      </trkpt>
      <trkpt lat="38.7536330" lon="-0.5656310">
        <ele>937.8</ele>
        <time>2019-05-12T09:30:01Z</time>
      </trkpt>
      <trkpt lat="38.7536610" lon="-0.5654940">
        <ele>938.2</ele>
        <time>2019-05-12T09:30:03Z</time>
      </trkpt>
      <trkpt lat="38.7536840" lon="-0.5653750">
        <ele>938.8</ele>
        <time>2019-05-12T09:30:05Z</time>
      </trkpt>
      <trkpt lat="38.7536950" lon="-0.5652870">
        <ele>939.4</ele>
        <time>2019-05-12T09:30:07Z</time>
      </trkpt>
      <trkpt lat="38.7537280" lon="-0.5652320">
        <ele>940.0</ele>
        <time>2019-05-12T09:30:09Z</time>
      </trkpt>
      <trkpt lat="38.7538300" lon="-0.5652130">
        <ele>940.4</ele>
        <time>2019-05-12T09:30:13Z</time>
      </trkpt>
      <trkpt lat="38.7538540" lon="-0.5652160">
        <ele>940.8</ele>
        <time>2019-05-12T09:30:14Z</time>
      </trkpt>
      <trkpt lat="38.7538960" lon="-0.5652340">
        <ele>941.8</ele>
        <time>2019-05-12T09:30:16Z</time>
      </trkpt>
      <trkpt lat="38.7539400" lon="-0.5652250">
        <ele>942.4</ele>
        <time>2019-05-12T09:30:18Z</time>
      </trkpt>
      <trkpt lat="38.7539870" lon="-0.5651730">
        <ele>943.0</ele>
        <time>2019-05-12T09:30:20Z</time>
      </trkpt>
      <trkpt lat="38.7540020" lon="-0.5650890">
        <ele>943.8</ele>
        <time>2019-05-12T09:30:22Z</time>
      </trkpt>
      <trkpt lat="38.7540070" lon="-0.5650440">
        <ele>944.0</ele>
        <time>2019-05-12T09:30:23Z</time>
      </trkpt>
      <trkpt lat="38.7540810" lon="-0.5648070">
        <ele>944.4</ele>
        <time>2019-05-12T09:30:28Z</time>
      </trkpt>
      <trkpt lat="38.7541460" lon="-0.5646090">
        <ele>944.4</ele>
        <time>2019-05-12T09:30:32Z</time>
      </trkpt>
      <trkpt lat="38.7541750" lon="-0.5644580">
        <ele>945.0</ele>
        <time>2019-05-12T09:30:35Z</time>
      </trkpt>
      <trkpt lat="38.7541790" lon="-0.5644110">
        <ele>945.2</ele>
        <time>2019-05-12T09:30:36Z</time>
      </trkpt>
      <trkpt lat="38.7542220" lon="-0.5641410">
        <ele>945.4</ele>
        <time>2019-05-12T09:30:42Z</time>
      </trkpt>
      <trkpt lat="38.7542900" lon="-0.5639280">
        <ele>946.2</ele>
        <time>2019-05-12T09:30:47Z</time>
      </trkpt>
      <trkpt lat="38.7543140" lon="-0.5638950">
        <ele>946.4</ele>
        <time>2019-05-12T09:30:48Z</time>
      </trkpt>
      <trkpt lat="38.7545010" lon="-0.5636210">
        <ele>947.0</ele>
        <time>2019-05-12T09:30:56Z</time>
      </trkpt>
      <trkpt lat="38.7545150" lon="-0.5635770">
        <ele>947.2</ele>
        <time>2019-05-12T09:30:57Z</time>
      </trkpt>
      <trkpt lat="38.7545880" lon="-0.5633460">
        <ele>947.2</ele>
        <time>2019-05-12T09:31:02Z</time>
      </trkpt>
      <trkpt lat="38.7546630" lon="-0.5631050">
        <ele>947.6</ele>
        <time>2019-05-12T09:31:07Z</time>
      </trkpt>
      <trkpt lat="38.7547070" lon="-0.5630190">
        <ele>947.6</ele>
        <time>2019-05-12T09:31:09Z</time>
      </trkpt>
      <trkpt lat="38.7548710" lon="-0.5627630">
        <ele>948.2</ele>
        <time>2019-05-12T09:31:16Z</time>
      </trkpt>
      <trkpt lat="38.7548930" lon="-0.5627340">
        <ele>948.6</ele>
        <time>2019-05-12T09:31:17Z</time>
      </trkpt>
      <trkpt lat="38.7549380" lon="-0.5626680">
        <ele>949.4</ele>
        <time>2019-05-12T09:31:19Z</time>
      </trkpt>
      <trkpt lat="38.7550500" lon="-0.5624790">
        <ele>949.6</ele>
        <time>2019-05-12T09:31:24Z</time>
      </trkpt>
      <trkpt lat="38.7551790" lon="-0.5622030">
        <ele>950.2</ele>
        <time>2019-05-12T09:31:31Z</time>
      </trkpt>
      <trkpt lat="38.7552630" lon="-0.5619390">
        <ele>950.4</ele>
        <time>2019-05-12T09:31:37Z</time>
      </trkpt>
      <trkpt lat="38.7552780" lon="-0.5618950">
        <ele>950.6</ele>
        <time>2019-05-12T09:31:38Z</time>
      </trkpt>
      <trkpt lat="38.7552650" lon="-0.5617560">
        <ele>950.8</ele>
        <time>2019-05-12T09:31:41Z</time>
      </trkpt>
      <trkpt lat="38.7552000" lon="-0.5616990">
        <ele>951.8</ele>
        <time>2019-05-12T09:31:43Z</time>
      </trkpt>
      <trkpt lat="38.7551650" lon="-0.5616810">
        <ele>952.0</ele>
        <time>2019-05-12T09:31:44Z</time>
      </trkpt>
      <trkpt lat="38.7551030" lon="-0.5616490">
        <ele>953.0</ele>
        <time>2019-05-12T09:31:46Z</time>
      </trkpt>
      <trkpt lat="38.7550720" lon="-0.5616280">
        <ele>953.2</ele>
        <time>2019-05-12T09:31:47Z</time>
      </trkpt>
      <trkpt lat="38.7550120" lon="-0.5615730">
        <ele>953.0</ele>
        <time>2019-05-12T09:31:49Z</time>
      </trkpt>
      <trkpt lat="38.7548260" lon="-0.5614420">
        <ele>952.8</ele>
        <time>2019-05-12T09:31:54Z</time>
      </trkpt>
      <trkpt lat="38.7547820" lon="-0.5614280">
        <ele>952.4</ele>
        <time>2019-05-12T09:31:55Z</time>
      </trkpt>
      <trkpt lat="38.7546090" lon="-0.5613660">
        <ele>953.0</ele>
        <time>2019-05-12T09:31:59Z</time>
      </trkpt>
      <trkpt lat="38.7544920" lon="-0.5613060">
        <ele>953.0</ele>
        <time>2019-05-12T09:32:02Z</time>
      </trkpt>
      <trkpt lat="38.7544080" lon="-0.5612740">
        <ele>954.0</ele>
        <time>2019-05-12T09:32:05Z</time>
      </trkpt>
      <trkpt lat="38.7543850" lon="-0.5612500">
        <ele>954.6</ele>
        <time>2019-05-12T09:32:06Z</time>
      </trkpt>
      <trkpt lat="38.7543500" lon="-0.5611580">
        <ele>954.0</ele>
        <time>2019-05-12T09:32:08Z</time>
      </trkpt>
      <trkpt lat="38.7543340" lon="-0.5610880">
        <ele>953.2</ele>
        <time>2019-05-12T09:32:09Z</time>
      </trkpt>
      <trkpt lat="38.7543130" lon="-0.5610080">
        <ele>952.2</ele>
        <time>2019-05-12T09:32:10Z</time>
      </trkpt>
      <trkpt lat="38.7542710" lon="-0.5608260">
        <ele>949.8</ele>
        <time>2019-05-12T09:32:12Z</time>
      </trkpt>
      <trkpt lat="38.7542420" lon="-0.5607270">
        <ele>948.6</ele>
        <time>2019-05-12T09:32:13Z</time>
      </trkpt>
      <trkpt lat="38.7541990" lon="-0.5606270">
        <ele>947.0</ele>
        <time>2019-05-12T09:32:14Z</time>
      </trkpt>
      <trkpt lat="38.7541450" lon="-0.5605280">
        <ele>945.6</ele>
        <time>2019-05-12T09:32:15Z</time>
      </trkpt>
      <trkpt lat="38.7540840" lon="-0.5604350">
        <ele>944.2</ele>
        <time>2019-05-12T09:32:16Z</time>
      </trkpt>
      <trkpt lat="38.7539550" lon="-0.5602620">
        <ele>943.0</ele>
        <time>2019-05-12T09:32:18Z</time>
      </trkpt>
      <trkpt lat="38.7539040" lon="-0.5601700">
        <ele>942.8</ele>
        <time>2019-05-12T09:32:19Z</time>
      </trkpt>
      <trkpt lat="38.7538750" lon="-0.5600770">
        <ele>942.4</ele>
        <time>2019-05-12T09:32:20Z</time>
      </trkpt>
      <trkpt lat="38.7537830" lon="-0.5598240">
        <ele>944.2</ele>
        <time>2019-05-12T09:32:23Z</time>
      </trkpt>
      <trkpt lat="38.7537500" lon="-0.5597430">
        <ele>944.8</ele>
        <time>2019-05-12T09:32:24Z</time>
      </trkpt>
      <trkpt lat="38.7537210" lon="-0.5596610">
        <ele>945.0</ele>
        <time>2019-05-12T09:32:25Z</time>
      </trkpt>
      <trkpt lat="38.7536940" lon="-0.5595780">
        <ele>945.2</ele>
        <time>2019-05-12T09:32:26Z</time>
      </trkpt>
      <trkpt lat="38.7536580" lon="-0.5594260">
        <ele>945.6</ele>
        <time>2019-05-12T09:32:28Z</time>
      </trkpt>
      <trkpt lat="38.7536520" lon="-0.5593480">
        <ele>945.6</ele>
        <time>2019-05-12T09:32:29Z</time>
      </trkpt>
      <trkpt lat="38.7536950" lon="-0.5590710">
        <ele>945.8</ele>
        <time>2019-05-12T09:32:33Z</time>
      </trkpt>
      <trkpt lat="38.7537350" lon="-0.5589540">
        <ele>946.4</ele>
        <time>2019-05-12T09:32:35Z</time>
      </trkpt>
      <trkpt lat="38.7538140" lon="-0.5587820">
        <ele>945.8</ele>
        <time>2019-05-12T09:32:38Z</time>
      </trkpt>
      <trkpt lat="38.7538480" lon="-0.5587280">
        <ele>945.6</ele>
        <time>2019-05-12T09:32:39Z</time>
      </trkpt>
      <trkpt lat="38.7538870" lon="-0.5586790">
        <ele>945.0</ele>
        <time>2019-05-12T09:32:40Z</time>
      </trkpt>
      <trkpt lat="38.7539630" lon="-0.5585740">
        <ele>944.6</ele>
        <time>2019-05-12T09:32:42Z</time>
      </trkpt>
      <trkpt lat="38.7540060" lon="-0.5584500">
        <ele>944.2</ele>
        <time>2019-05-12T09:32:44Z</time>
      </trkpt>
      <trkpt lat="38.7540160" lon="-0.5583880">
        <ele>943.6</ele>
        <time>2019-05-12T09:32:45Z</time>
      </trkpt>
      <trkpt lat="38.7540500" lon="-0.5581740">
        <ele>943.4</ele>
        <time>2019-05-12T09:32:48Z</time>
      </trkpt>
      <trkpt lat="38.7540710" lon="-0.5581000">
        <ele>943.0</ele>
        <time>2019-05-12T09:32:49Z</time>
      </trkpt>
      <trkpt lat="38.7540890" lon="-0.5580420">
        <ele>942.6</ele>
        <time>2019-05-12T09:32:50Z</time>
      </trkpt>
      <trkpt lat="38.7541240" lon="-0.5579290">
        <ele>942.0</ele>
        <time>2019-05-12T09:32:52Z</time>
      </trkpt>
      <trkpt lat="38.7541650" lon="-0.5578090">
        <ele>941.4</ele>
        <time>2019-05-12T09:32:54Z</time>
      </trkpt>
      <trkpt lat="38.7541950" lon="-0.5577410">
        <ele>941.2</ele>
        <time>2019-05-12T09:32:55Z</time>
      </trkpt>
      <trkpt lat="38.7542310" lon="-0.5576670">
        <ele>940.4</ele>
        <time>2019-05-12T09:32:56Z</time>
      </trkpt>
      <trkpt lat="38.7542590" lon="-0.5575840">
        <ele>939.6</ele>
        <time>2019-05-12T09:32:57Z</time>
      </trkpt>
      <trkpt lat="38.7542880" lon="-0.5575000">
        <ele>938.2</ele>
        <time>2019-05-12T09:32:58Z</time>
      </trkpt>
      <trkpt lat="38.7543400" lon="-0.5573290">
        <ele>936.2</ele>
        <time>2019-05-12T09:33:00Z</time>
      </trkpt>
      <trkpt lat="38.7543580" lon="-0.5572350">
        <ele>935.2</ele>
        <time>2019-05-12T09:33:01Z</time>
      </trkpt>
      <trkpt lat="38.7543690" lon="-0.5571430">
        <ele>934.2</ele>
        <time>2019-05-12T09:33:02Z</time>
      </trkpt>
      <trkpt lat="38.7543860" lon="-0.5570550">
        <ele>933.0</ele>
        <time>2019-05-12T09:33:03Z</time>
      </trkpt>
      <trkpt lat="38.7544190" lon="-0.5569210">
        <ele>931.8</ele>
        <time>2019-05-12T09:33:05Z</time>
      </trkpt>
      <trkpt lat="38.7544220" lon="-0.5568780">
        <ele>931.2</ele>
        <time>2019-05-12T09:33:06Z</time>
      </trkpt>
      <trkpt lat="38.7544100" lon="-0.5568140">
        <ele>930.8</ele>
        <time>2019-05-12T09:33:08Z</time>
      </trkpt>
      <trkpt lat="38.7543790" lon="-0.5567280">
        <ele>930.4</ele>
        <time>2019-05-12T09:33:10Z</time>
      </trkpt>
      <trkpt lat="38.7543110" lon="-0.5565420">
        <ele>929.4</ele>
        <time>2019-05-12T09:33:13Z</time>
      </trkpt>
      <trkpt lat="38.7542960" lon="-0.5564610">
        <ele>929.0</ele>
        <time>2019-05-12T09:33:14Z</time>
      </trkpt>
      <trkpt lat="38.7542800" lon="-0.5563770">
        <ele>928.4</ele>
        <time>2019-05-12T09:33:15Z</time>
      </trkpt>
      <trkpt lat="38.7542580" lon="-0.5562970">
        <ele>928.0</ele>
        <time>2019-05-12T09:33:16Z</time>
      </trkpt>
      <trkpt lat="38.7541870" lon="-0.5561510">
        <ele>927.2</ele>
        <time>2019-05-12T09:33:18Z</time>
      </trkpt>
      <trkpt lat="38.7540760" lon="-0.5558650">
        <ele>926.6</ele>
        <time>2019-05-12T09:33:22Z</time>
      </trkpt>
      <trkpt lat="38.7540640" lon="-0.5557710">
        <ele>925.4</ele>
        <time>2019-05-12T09:33:23Z</time>
      </trkpt>
      <trkpt lat="38.7540310" lon="-0.5556000">
        <ele>923.6</ele>
        <time>2019-05-12T09:33:25Z</time>
      </trkpt>
      <trkpt lat="38.7540230" lon="-0.5555230">
        <ele>923.0</ele>
        <time>2019-05-12T09:33:26Z</time>
      </trkpt>
      <trkpt lat="38.7540390" lon="-0.5553540">
        <ele>922.4</ele>
        <time>2019-05-12T09:33:28Z</time>
      </trkpt>
      <trkpt lat="38.7540410" lon="-0.5552660">
        <ele>922.0</ele>
        <time>2019-05-12T09:33:29Z</time>
      </trkpt>
      <trkpt lat="38.7540280" lon="-0.5551730">
        <ele>921.0</ele>
        <time>2019-05-12T09:33:30Z</time>
      </trkpt>
      <trkpt lat="38.7539810" lon="-0.5549790">
        <ele>919.8</ele>
        <time>2019-05-12T09:33:32Z</time>
      </trkpt>
      <trkpt lat="38.7539500" lon="-0.5548830">
        <ele>919.4</ele>
        <time>2019-05-12T09:33:33Z</time>
      </trkpt>
      <trkpt lat="38.7538410" lon="-0.5545930">
        <ele>918.6</ele>
        <time>2019-05-12T09:33:36Z</time>
      </trkpt>
      <trkpt lat="38.7537620" lon="-0.5544000">
        <ele>918.0</ele>
        <time>2019-05-12T09:33:38Z</time>
      </trkpt>
      <trkpt lat="38.7536820" lon="-0.5542070">
        <ele>917.4</ele>
        <time>2019-05-12T09:33:40Z</time>
      </trkpt>
      <trkpt lat="38.7536170" lon="-0.5540120">
        <ele>916.0</ele>
        <time>2019-05-12T09:33:42Z</time>
      </trkpt>
      <trkpt lat="38.7535840" lon="-0.5539150">
        <ele>915.4</ele>
        <time>2019-05-12T09:33:43Z</time>
      </trkpt>
      <trkpt lat="38.7535460" lon="-0.5538220">
        <ele>915.2</ele>
        <time>2019-05-12T09:33:44Z</time>
      </trkpt>
      <trkpt lat="38.7534650" lon="-0.5536280">
        <ele>914.8</ele>
        <time>2019-05-12T09:33:46Z</time>
      </trkpt>
      <trkpt lat="38.7534400" lon="-0.5535230">
        <ele>914.8</ele>
        <time>2019-05-12T09:33:47Z</time>
      </trkpt>
      <trkpt lat="38.7533690" lon="-0.5531450">
        <ele>914.4</ele>
        <time>2019-05-12T09:33:51Z</time>
      </trkpt>
      <trkpt lat="38.7533230" lon="-0.5529870">
        <ele>914.6</ele>
        <time>2019-05-12T09:33:53Z</time>
      </trkpt>
      <trkpt lat="38.7532530" lon="-0.5528280">
        <ele>913.6</ele>
        <time>2019-05-12T09:33:55Z</time>
      </trkpt>
      <trkpt lat="38.7532270" lon="-0.5527390">
        <ele>913.4</ele>
        <time>2019-05-12T09:33:56Z</time>
      </trkpt>
      <trkpt lat="38.7531760" lon="-0.5524640">
        <ele>912.4</ele>
        <time>2019-05-12T09:33:59Z</time>
      </trkpt>
      <trkpt lat="38.7531660" lon="-0.5521190">
        <ele>913.2</ele>
        <time>2019-05-12T09:34:03Z</time>
      </trkpt>
      <trkpt lat="38.7531490" lon="-0.5520320">
        <ele>913.0</ele>
        <time>2019-05-12T09:34:04Z</time>
      </trkpt>
      <trkpt lat="38.7530840" lon="-0.5515950">
        <ele>911.8</ele>
        <time>2019-05-12T09:34:09Z</time>
      </trkpt>
      <trkpt lat="38.7530840" lon="-0.5515130">
        <ele>911.4</ele>
        <time>2019-05-12T09:34:10Z</time>
      </trkpt>
      <trkpt lat="38.7530890" lon="-0.5514360">
        <ele>911.2</ele>
        <time>2019-05-12T09:34:11Z</time>
      </trkpt>
      <trkpt lat="38.7530910" lon="-0.5512880">
        <ele>911.6</ele>
        <time>2019-05-12T09:34:13Z</time>
      </trkpt>
      <trkpt lat="38.7530940" lon="-0.5511570">
        <ele>911.8</ele>
        <time>2019-05-12T09:34:15Z</time>
      </trkpt>
      <trkpt lat="38.7530930" lon="-0.5509880">
        <ele>912.2</ele>
        <time>2019-05-12T09:34:18Z</time>
      </trkpt>
      <trkpt lat="38.7530910" lon="-0.5506770">
        <ele>911.6</ele>
        <time>2019-05-12T09:34:24Z</time>
      </trkpt>
      <trkpt lat="38.7530970" lon="-0.5505640">
        <ele>911.4</ele>
        <time>2019-05-12T09:34:26Z</time>
      </trkpt>
      <trkpt lat="38.7531190" lon="-0.5504370">
        <ele>910.8</ele>
        <time>2019-05-12T09:34:28Z</time>
      </trkpt>
      <trkpt lat="38.7531440" lon="-0.5503710">
        <ele>910.6</ele>
        <time>2019-05-12T09:34:29Z</time>
      </trkpt>
      <trkpt lat="38.7531750" lon="-0.5503050">
        <ele>910.0</ele>
        <time>2019-05-12T09:34:30Z</time>
      </trkpt>
      <trkpt lat="38.7532390" lon="-0.5501740">
        <ele>909.0</ele>
        <time>2019-05-12T09:34:32Z</time>
      </trkpt>
      <trkpt lat="38.7533320" lon="-0.5499890">
        <ele>909.0</ele>
        <time>2019-05-12T09:34:35Z</time>
      </trkpt>
      <trkpt lat="38.7534840" lon="-0.5497060">
        <ele>909.2</ele>
        <time>2019-05-12T09:34:41Z</time>
      </trkpt>
      <trkpt lat="38.7535130" lon="-0.5496110">
        <ele>909.0</ele>
        <time>2019-05-12T09:34:43Z</time>
      </trkpt>
      <trkpt lat="38.7534690" lon="-0.5494930">
        <ele>908.2</ele>
        <time>2019-05-12T09:34:45Z</time>
      </trkpt>
      <trkpt lat="38.7534280" lon="-0.5494420">
        <ele>907.8</ele>
        <time>2019-05-12T09:34:46Z</time>
      </trkpt>
      <trkpt lat="38.7533380" lon="-0.5493600">
        <ele>907.6</ele>
        <time>2019-05-12T09:34:48Z</time>
      </trkpt>
      <trkpt lat="38.7532930" lon="-0.5493210">
        <ele>907.2</ele>
        <time>2019-05-12T09:34:49Z</time>
      </trkpt>
      <trkpt lat="38.7532210" lon="-0.5492480">
        <ele>906.4</ele>
        <time>2019-05-12T09:34:51Z</time>
      </trkpt>
      <trkpt lat="38.7531060" lon="-0.5491170">
        <ele>906.0</ele>
        <time>2019-05-12T09:34:54Z</time>
      </trkpt>
      <trkpt lat="38.7530140" lon="-0.5490050">
        <ele>905.0</ele>
        <time>2019-05-12T09:34:56Z</time>
      </trkpt>
      <trkpt lat="38.7529050" lon="-0.5488920">
        <ele>903.6</ele>
        <time>2019-05-12T09:34:58Z</time>
      </trkpt>
      <trkpt lat="38.7528430" lon="-0.5488380">
        <ele>903.0</ele>
        <time>2019-05-12T09:34:59Z</time>
      </trkpt>
      <trkpt lat="38.7527780" lon="-0.5487850">
        <ele>902.4</ele>
        <time>2019-05-12T09:35:00Z</time>
      </trkpt>
      <trkpt lat="38.7526460" lon="-0.5486660">
        <ele>901.0</ele>
        <time>2019-05-12T09:35:02Z</time>
      </trkpt>
      <trkpt lat="38.7525800" lon="-0.5486110">
        <ele>899.6</ele>
        <time>2019-05-12T09:35:03Z</time>
      </trkpt>
      <trkpt lat="38.7524650" lon="-0.5485040">
        <ele>899.4</ele>
        <time>2019-05-12T09:35:05Z</time>
      </trkpt>
      <trkpt lat="38.7522170" lon="-0.5482100">
        <ele>898.4</ele>
        <time>2019-05-12T09:35:10Z</time>
      </trkpt>
      <trkpt lat="38.7520510" lon="-0.5481620">
        <ele>899.2</ele>
        <time>2019-05-12T09:35:13Z</time>
      </trkpt>
      <trkpt lat="38.7520010" lon="-0.5481590">
        <ele>899.8</ele>
        <time>2019-05-12T09:35:14Z</time>
      </trkpt>
      <trkpt lat="38.7517440" lon="-0.5481330">
        <ele>900.0</ele>
        <time>2019-05-12T09:35:19Z</time>
      </trkpt>
      <trkpt lat="38.7514840" lon="-0.5481190">
        <ele>900.8</ele>
        <time>2019-05-12T09:35:25Z</time>
      </trkpt>
      <trkpt lat="38.7514440" lon="-0.5481050">
        <ele>900.8</ele>
        <time>2019-05-12T09:35:26Z</time>
      </trkpt>
      <trkpt lat="38.7513050" lon="-0.5480620">
        <ele>902.0</ele>
        <time>2019-05-12T09:35:29Z</time>
      </trkpt>
      <trkpt lat="38.7512520" lon="-0.5480490">
        <ele>902.0</ele>
        <time>2019-05-12T09:35:30Z</time>
      </trkpt>
      <trkpt lat="38.7511520" lon="-0.5480400">
        <ele>902.0</ele>
        <time>2019-05-12T09:35:32Z</time>
      </trkpt>
      <trkpt lat="38.7510130" lon="-0.5480340">
        <ele>902.6</ele>
        <time>2019-05-12T09:35:35Z</time>
      </trkpt>
      <trkpt lat="38.7508910" lon="-0.5480340">
        <ele>903.2</ele>
        <time>2019-05-12T09:35:38Z</time>
      </trkpt>
      <trkpt lat="38.7507860" lon="-0.5480260">
        <ele>904.6</ele>
        <time>2019-05-12T09:35:41Z</time>
      </trkpt>
      <trkpt lat="38.7506250" lon="-0.5480010">
        <ele>905.8</ele>
        <time>2019-05-12T09:35:46Z</time>
      </trkpt>
      <trkpt lat="38.7505870" lon="-0.5479950">
        <ele>905.8</ele>
        <time>2019-05-12T09:35:47Z</time>
      </trkpt>
      <trkpt lat="38.7503410" lon="-0.5478880">
        <ele>905.8</ele>
        <time>2019-05-12T09:35:53Z</time>
      </trkpt>
      <trkpt lat="38.7502560" lon="-0.5478480">
        <ele>906.0</ele>
        <time>2019-05-12T09:35:55Z</time>
      </trkpt>
      <trkpt lat="38.7501310" lon="-0.5477670">
        <ele>905.4</ele>
        <time>2019-05-12T09:35:58Z</time>
      </trkpt>
      <trkpt lat="38.7499150" lon="-0.5476340">
        <ele>905.0</ele>
        <time>2019-05-12T09:36:03Z</time>
      </trkpt>
      <trkpt lat="38.7498700" lon="-0.5476010">
        <ele>905.0</ele>
        <time>2019-05-12T09:36:04Z</time>
      </trkpt>
      <trkpt lat="38.7498250" lon="-0.5475690">
        <ele>904.8</ele>
        <time>2019-05-12T09:36:05Z</time>
      </trkpt>
      <trkpt lat="38.7496160" lon="-0.5474390">
        <ele>903.6</ele>
        <time>2019-05-12T09:36:09Z</time>
      </trkpt>
      <trkpt lat="38.7495590" lon="-0.5474120">
        <ele>903.2</ele>
        <time>2019-05-12T09:36:10Z</time>
      </trkpt>
      <trkpt lat="38.7493830" lon="-0.5473640">
        <ele>903.0</ele>
        <time>2019-05-12T09:36:13Z</time>
      </trkpt>
      <trkpt lat="38.7492530" lon="-0.5473320">
        <ele>902.6</ele>
        <time>2019-05-12T09:36:15Z</time>
      </trkpt>
      <trkpt lat="38.7490360" lon="-0.5471800">
        <ele>901.8</ele>
        <time>2019-05-12T09:36:19Z</time>
      </trkpt>
      <trkpt lat="38.7488130" lon="-0.5470110">
        <ele>902.8</ele>
        <time>2019-05-12T09:36:24Z</time>
      </trkpt>
      <trkpt lat="38.7485140" lon="-0.5467820">
        <ele>903.4</ele>
        <time>2019-05-12T09:36:31Z</time>
      </trkpt>
      <trkpt lat="38.7483890" lon="-0.5466760">
        <ele>903.6</ele>
        <time>2019-05-12T09:36:34Z</time>
      </trkpt>
      <trkpt lat="38.7483040" lon="-0.5465980">
        <ele>903.8</ele>
        <time>2019-05-12T09:36:36Z</time>
      </trkpt>
      <trkpt lat="38.7482580" lon="-0.5465630">
        <ele>903.8</ele>
        <time>2019-05-12T09:36:37Z</time>
      </trkpt>
      <trkpt lat="38.7479480" lon="-0.5462830">
        <ele>903.4</ele>
        <time>2019-05-12T09:36:44Z</time>
      </trkpt>
      <trkpt lat="38.7479080" lon="-0.5462360">
        <ele>903.4</ele>
        <time>2019-05-12T09:36:45Z</time>
      </trkpt>
      <trkpt lat="38.7476560" lon="-0.5459680">
        <ele>902.8</ele>
        <time>2019-05-12T09:36:51Z</time>
      </trkpt>
      <trkpt lat="38.7476170" lon="-0.5459280">
        <ele>902.6</ele>
        <time>2019-05-12T09:36:52Z</time>
      </trkpt>
      <trkpt lat="38.7475460" lon="-0.5458590">
        <ele>902.4</ele>
        <time>2019-05-12T09:36:54Z</time>
      </trkpt>
      <trkpt lat="38.7474290" lon="-0.5457860">
        <ele>901.8</ele>
        <time>2019-05-12T09:36:57Z</time>
      </trkpt>
      <trkpt lat="38.7472940" lon="-0.5457110">
        <ele>900.2</ele>
        <time>2019-05-12T09:37:00Z</time>
      </trkpt>
      <trkpt lat="38.7471980" lon="-0.5456650">
        <ele>898.8</ele>
        <time>2019-05-12T09:37:02Z</time>
      </trkpt>
      <trkpt lat="38.7471170" lon="-0.5455970">
        <ele>898.2</ele>
        <time>2019-05-12T09:37:05Z</time>
      </trkpt>
      <trkpt lat="38.7471530" lon="-0.5455270">
        <ele>898.2</ele>
        <time>2019-05-12T09:37:08Z</time>
      </trkpt>
      <trkpt lat="38.7471870" lon="-0.5454930">
        <ele>898.6</ele>
        <time>2019-05-12T09:37:10Z</time>
      </trkpt>
      <trkpt lat="38.7472230" lon="-0.5454480">
        <ele>899.0</ele>
        <time>2019-05-12T09:37:12Z</time>
      </trkpt>
      <trkpt lat="38.7472370" lon="-0.5454150">
        <ele>899.2</ele>
        <time>2019-05-12T09:37:13Z</time>
      </trkpt>
      <trkpt lat="38.7473430" lon="-0.5451980">
        <ele>899.8</ele>
        <time>2019-05-12T09:37:19Z</time>
      </trkpt>
      <trkpt lat="38.7473640" lon="-0.5451650">
        <ele>900.0</ele>
        <time>2019-05-12T09:37:20Z</time>
      </trkpt>
      <trkpt lat="38.7474180" lon="-0.5450820">
        <ele>901.2</ele>
        <time>2019-05-12T09:37:23Z</time>
      </trkpt>
      <trkpt lat="38.7474530" lon="-0.5450320">
        <ele>901.8</ele>
        <time>2019-05-12T09:37:25Z</time>
      </trkpt>
      <trkpt lat="38.7474880" lon="-0.5449750">
        <ele>902.6</ele>
        <time>2019-05-12T09:37:27Z</time>
      </trkpt>
      <trkpt lat="38.7475370" lon="-0.5448400">
        <ele>903.6</ele>
        <time>2019-05-12T09:37:31Z</time>
      </trkpt>
      <trkpt lat="38.7475970" lon="-0.5445610">
        <ele>904.0</ele>
        <time>2019-05-12T09:37:38Z</time>
      </trkpt>
      <trkpt lat="38.7476060" lon="-0.5443290">
        <ele>903.8</ele>
        <time>2019-05-12T09:37:43Z</time>
      </trkpt>
      <trkpt lat="38.7476470" lon="-0.5439810">
        <ele>904.0</ele>
        <time>2019-05-12T09:37:50Z</time>
      </trkpt>
      <trkpt lat="38.7476810" lon="-0.5437470">
        <ele>904.0</ele>
        <time>2019-05-12T09:37:54Z</time>
      </trkpt>
      <trkpt lat="38.7477080" lon="-0.5436350">
        <ele>904.0</ele>
        <time>2019-05-12T09:37:56Z</time>
      </trkpt>
      <trkpt lat="38.7478120" lon="-0.5432480">
        <ele>903.8</ele>
        <time>2019-05-12T09:38:03Z</time>
      </trkpt>
      <trkpt lat="38.7479490" lon="-0.5428920">
        <ele>903.4</ele>
        <time>2019-05-12T09:38:09Z</time>
      </trkpt>
      <trkpt lat="38.7480850" lon="-0.5426830">
        <ele>902.4</ele>
        <time>2019-05-12T09:38:13Z</time>
      </trkpt>
      <trkpt lat="38.7481560" lon="-0.5425800">
        <ele>901.6</ele>
        <time>2019-05-12T09:38:15Z</time>
      </trkpt>
      <trkpt lat="38.7481960" lon="-0.5425250">
        <ele>901.0</ele>
        <time>2019-05-12T09:38:16Z</time>
      </trkpt>
      <trkpt lat="38.7482460" lon="-0.5424760">
        <ele>900.8</ele>
        <time>2019-05-12T09:38:17Z</time>
      </trkpt>
      <trkpt lat="38.7483580" lon="-0.5423890">
        <ele>900.0</ele>
        <time>2019-05-12T09:38:19Z</time>
      </trkpt>
      <trkpt lat="38.7485010" lon="-0.5422080">
        <ele>898.8</ele>
        <time>2019-05-12T09:38:22Z</time>
      </trkpt>
      <trkpt lat="38.7485550" lon="-0.5421440">
        <ele>898.4</ele>
        <time>2019-05-12T09:38:23Z</time>
      </trkpt>
      <trkpt lat="38.7486170" lon="-0.5420860">
        <ele>898.2</ele>
        <time>2019-05-12T09:38:24Z</time>
      </trkpt>
      <trkpt lat="38.7487690" lon="-0.5418740">
        <ele>897.4</ele>
        <time>2019-05-12T09:38:27Z</time>
      </trkpt>
      <trkpt lat="38.7489220" lon="-0.5416600">
        <ele>896.2</ele>
        <time>2019-05-12T09:38:30Z</time>
      </trkpt>
      <trkpt lat="38.7491270" lon="-0.5413860">
        <ele>896.6</ele>
        <time>2019-05-12T09:38:34Z</time>
      </trkpt>
      <trkpt lat="38.7491930" lon="-0.5412380">
        <ele>896.8</ele>
        <time>2019-05-12T09:38:36Z</time>
      </trkpt>
      <trkpt lat="38.7492150" lon="-0.5411500">
        <ele>896.4</ele>
        <time>2019-05-12T09:38:37Z</time>
      </trkpt>
      <trkpt lat="38.7493330" lon="-0.5409060">
        <ele>895.2</ele>
        <time>2019-05-12T09:38:40Z</time>
      </trkpt>
      <trkpt lat="38.7493860" lon="-0.5408450">
        <ele>894.8</ele>
        <time>2019-05-12T09:38:41Z</time>
      </trkpt>
      <trkpt lat="38.7494400" lon="-0.5407870">
        <ele>894.8</ele>
        <time>2019-05-12T09:38:42Z</time>
      </trkpt>
      <trkpt lat="38.7495780" lon="-0.5406190">
        <ele>895.6</ele>
        <time>2019-05-12T09:38:45Z</time>
      </trkpt>
      <trkpt lat="38.7496260" lon="-0.5405730">
        <ele>895.8</ele>
        <time>2019-05-12T09:38:46Z</time>
      </trkpt>
      <trkpt lat="38.7497790" lon="-0.5404980">
        <ele>896.2</ele>
        <time>2019-05-12T09:38:49Z</time>
      </trkpt>
      <trkpt lat="38.7498270" lon="-0.5404710">
        <ele>896.6</ele>
        <time>2019-05-12T09:38:50Z</time>
      </trkpt>
      <trkpt lat="38.7499670" lon="-0.5404160">
        <ele>897.2</ele>
        <time>2019-05-12T09:38:53Z</time>
      </trkpt>
      <trkpt lat="38.7500530" lon="-0.5403970">
        <ele>897.6</ele>
        <time>2019-05-12T09:38:55Z</time>
      </trkpt>
      <trkpt lat="38.7500980" lon="-0.5403990">
        <ele>898.0</ele>
        <time>2019-05-12T09:38:56Z</time>
      </trkpt>
      <trkpt lat="38.7502710" lon="-0.5404160">
        <ele>898.8</ele>
        <time>2019-05-12T09:39:00Z</time>
      </trkpt>
      <trkpt lat="38.7505440" lon="-0.5404790">
        <ele>899.6</ele>
        <time>2019-05-12T09:39:07Z</time>
      </trkpt>
      <trkpt lat="38.7506660" lon="-0.5405200">
        <ele>900.0</ele>
        <time>2019-05-12T09:39:10Z</time>
      </trkpt>
      <trkpt lat="38.7507030" lon="-0.5405310">
        <ele>900.2</ele>
        <time>2019-05-12T09:39:11Z</time>
      </trkpt>
      <trkpt lat="38.7508020" lon="-0.5405730">
        <ele>901.2</ele>
        <time>2019-05-12T09:39:14Z</time>
      </trkpt>
      <trkpt lat="38.7508680" lon="-0.5405960">
        <ele>901.8</ele>
        <time>2019-05-12T09:39:16Z</time>
      </trkpt>
      <trkpt lat="38.7509070" lon="-0.5406000">
        <ele>902.6</ele>
        <time>2019-05-12T09:39:17Z</time>
      </trkpt>
      <trkpt lat="38.7510480" lon="-0.5406000">
        <ele>903.0</ele>
        <time>2019-05-12T09:39:21Z</time>
      </trkpt>
      <trkpt lat="38.7513280" lon="-0.5405630">
        <ele>903.2</ele>
        <time>2019-05-12T09:39:28Z</time>
      </trkpt>
      <trkpt lat="38.7513630" lon="-0.5405570">
        <ele>903.6</ele>
        <time>2019-05-12T09:39:29Z</time>
      </trkpt>
      <trkpt lat="38.7515200" lon="-0.5405320">
        <ele>904.0</ele>
        <time>2019-05-12T09:39:34Z</time>
      </trkpt>
      <trkpt lat="38.7515930" lon="-0.5405330">
        <ele>904.6</ele>
        <time>2019-05-12T09:39:37Z</time>
      </trkpt>
      <trkpt lat="38.7516470" lon="-0.5405320">
        <ele>905.4</ele>
        <time>2019-05-12T09:39:39Z</time>
      </trkpt>
      <trkpt lat="38.7516750" lon="-0.5405350">
        <ele>905.8</ele>
        <time>2019-05-12T09:39:40Z</time>
      </trkpt>
      <trkpt lat="38.7517270" lon="-0.5405400">
        <ele>906.8</ele>
        <time>2019-05-12T09:39:42Z</time>
      </trkpt>
      <trkpt lat="38.7517910" lon="-0.5405440">
        <ele>908.0</ele>
        <time>2019-05-12T09:39:45Z</time>
      </trkpt>
      <trkpt lat="38.7519470" lon="-0.5405270">
        <ele>908.8</ele>
        <time>2019-05-12T09:39:51Z</time>
      </trkpt>
      <trkpt lat="38.7519760" lon="-0.5405270">
        <ele>909.0</ele>
        <time>2019-05-12T09:39:52Z</time>
      </trkpt>
      <trkpt lat="38.7521390" lon="-0.5405010">
        <ele>909.2</ele>
        <time>2019-05-12T09:39:57Z</time>
      </trkpt>
      <trkpt lat="38.7523700" lon="-0.5404700">
        <ele>909.6</ele>
        <time>2019-05-12T09:40:03Z</time>
      </trkpt>
      <trkpt lat="38.7526050" lon="-0.5404380">
        <ele>909.2</ele>
        <time>2019-05-12T09:40:09Z</time>
      </trkpt>
      <trkpt lat="38.7528660" lon="-0.5404200">
        <ele>907.8</ele>
        <time>2019-05-12T09:40:15Z</time>
      </trkpt>
      <trkpt lat="38.7529260" lon="-0.5403700">
        <ele>907.6</ele>
        <time>2019-05-12T09:40:17Z</time>
      </trkpt>
      <trkpt lat="38.7528820" lon="-0.5402560">
        <ele>907.2</ele>
        <time>2019-05-12T09:40:20Z</time>
      </trkpt>
      <trkpt lat="38.7527900" lon="-0.5402070">
        <ele>907.0</ele>
        <time>2019-05-12T09:40:22Z</time>
      </trkpt>
      <trkpt lat="38.7527390" lon="-0.5401850">
        <ele>906.6</ele>
        <time>2019-05-12T09:40:23Z</time>
      </trkpt>
      <trkpt lat="38.7526900" lon="-0.5401530">
        <ele>906.0</ele>
        <time>2019-05-12T09:40:24Z</time>
      </trkpt>
      <trkpt lat="38.7526420" lon="-0.5401200">
        <ele>905.6</ele>
        <time>2019-05-12T09:40:25Z</time>
      </trkpt>
      <trkpt lat="38.7523500" lon="-0.5399090">
        <ele>904.4</ele>
        <time>2019-05-12T09:40:31Z</time>
      </trkpt>
      <trkpt lat="38.7521850" lon="-0.5398020">
        <ele>903.0</ele>
        <time>2019-05-12T09:40:34Z</time>
      </trkpt>
      <trkpt lat="38.7520750" lon="-0.5397300">
        <ele>902.4</ele>
        <time>2019-05-12T09:40:36Z</time>
      </trkpt>
      <trkpt lat="38.7520220" lon="-0.5396890">
        <ele>902.0</ele>
        <time>2019-05-12T09:40:37Z</time>
      </trkpt>
      <trkpt lat="38.7519510" lon="-0.5396040">
        <ele>901.8</ele>
        <time>2019-05-12T09:40:39Z</time>
      </trkpt>
      <trkpt lat="38.7519380" lon="-0.5395550">
        <ele>901.8</ele>
        <time>2019-05-12T09:40:40Z</time>
      </trkpt>
      <trkpt lat="38.7520030" lon="-0.5394460">
        <ele>901.6</ele>
        <time>2019-05-12T09:40:43Z</time>
      </trkpt>
      <trkpt lat="38.7520920" lon="-0.5394080">
        <ele>901.2</ele>
        <time>2019-05-12T09:40:45Z</time>
      </trkpt>
      <trkpt lat="38.7521360" lon="-0.5393880">
        <ele>901.0</ele>
        <time>2019-05-12T09:40:46Z</time>
      </trkpt>
      <trkpt lat="38.7521800" lon="-0.5393670">
        <ele>900.8</ele>
        <time>2019-05-12T09:40:47Z</time>
      </trkpt>
      <trkpt lat="38.7524590" lon="-0.5392490">
        <ele>901.6</ele>
        <time>2019-05-12T09:40:53Z</time>
      </trkpt>
      <trkpt lat="38.7525920" lon="-0.5392000">
        <ele>902.2</ele>
        <time>2019-05-12T09:40:56Z</time>
      </trkpt>
      <trkpt lat="38.7528090" lon="-0.5391080">
        <ele>903.2</ele>
        <time>2019-05-12T09:41:01Z</time>
      </trkpt>
      <trkpt lat="38.7528560" lon="-0.5390970">
        <ele>903.2</ele>
        <time>2019-05-12T09:41:02Z</time>
      </trkpt>
      <trkpt lat="38.7531280" lon="-0.5390100">
        <ele>904.2</ele>
        <time>2019-05-12T09:41:08Z</time>
      </trkpt>
      <trkpt lat="38.7532570" lon="-0.5389440">
        <ele>904.2</ele>
        <time>2019-05-12T09:41:11Z</time>
      </trkpt>
      <trkpt lat="38.7532960" lon="-0.5389170">
        <ele>904.4</ele>
        <time>2019-05-12T09:41:12Z</time>
      </trkpt>
      <trkpt lat="38.7534110" lon="-0.5388400">
        <ele>905.4</ele>
        <time>2019-05-12T09:41:15Z</time>
      </trkpt>
      <trkpt lat="38.7534510" lon="-0.5388190">
        <ele>905.6</ele>
        <time>2019-05-12T09:41:16Z</time>
      </trkpt>
      <trkpt lat="38.7536650" lon="-0.5387060">
        <ele>906.2</ele>
        <time>2019-05-12T09:41:21Z</time>
      </trkpt>
      <trkpt lat="38.7537050" lon="-0.5386770">
        <ele>906.2</ele>
        <time>2019-05-12T09:41:22Z</time>
      </trkpt>
      <trkpt lat="38.7538250" lon="-0.5386110">
        <ele>906.8</ele>
        <time>2019-05-12T09:41:25Z</time>
      </trkpt>
      <trkpt lat="38.7539820" lon="-0.5385120">
        <ele>907.0</ele>
        <time>2019-05-12T09:41:29Z</time>
      </trkpt>
      <trkpt lat="38.7542370" lon="-0.5382700">
        <ele>906.4</ele>
        <time>2019-05-12T09:41:36Z</time>
      </trkpt>
      <trkpt lat="38.7543020" lon="-0.5381870">
        <ele>906.8</ele>
        <time>2019-05-12T09:41:38Z</time>
      </trkpt>
      <trkpt lat="38.7543630" lon="-0.5380960">
        <ele>906.8</ele>
        <time>2019-05-12T09:41:40Z</time>
      </trkpt>
      <trkpt lat="38.7543840" lon="-0.5380460">
        <ele>906.8</ele>
        <time>2019-05-12T09:41:41Z</time>
      </trkpt>
      <trkpt lat="38.7544310" lon="-0.5378540">
        <ele>907.4</ele>
        <time>2019-05-12T09:41:45Z</time>
      </trkpt>
      <trkpt lat="38.7544400" lon="-0.5378100">
        <ele>907.8</ele>
        <time>2019-05-12T09:41:46Z</time>
      </trkpt>
      <trkpt lat="38.7544460" lon="-0.5377660">
        <ele>908.2</ele>
        <time>2019-05-12T09:41:47Z</time>
      </trkpt>
      <trkpt lat="38.7544580" lon="-0.5376810">
        <ele>909.6</ele>
        <time>2019-05-12T09:41:49Z</time>
      </trkpt>
      <trkpt lat="38.7544870" lon="-0.5374960">
        <ele>910.0</ele>
        <time>2019-05-12T09:41:53Z</time>
      </trkpt>
      <trkpt lat="38.7545020" lon="-0.5373750">
        <ele>910.6</ele>
        <time>2019-05-12T09:41:56Z</time>
      </trkpt>
      <trkpt lat="38.7545140" lon="-0.5373000">
        <ele>911.2</ele>
        <time>2019-05-12T09:41:58Z</time>
      </trkpt>
      <trkpt lat="38.7545360" lon="-0.5372240">
        <ele>911.8</ele>
        <time>2019-05-12T09:42:00Z</time>
      </trkpt>
      <trkpt lat="38.7545850" lon="-0.5370730">
        <ele>912.8</ele>
        <time>2019-05-12T09:42:04Z</time>
      </trkpt>
      <trkpt lat="38.7546150" lon="-0.5370020">
        <ele>913.4</ele>
        <time>2019-05-12T09:42:06Z</time>
      </trkpt>
      <trkpt lat="38.7547360" lon="-0.5367540">
        <ele>914.4</ele>
        <time>2019-05-12T09:42:13Z</time>
      </trkpt>
      <trkpt lat="38.7548720" lon="-0.5365450">
        <ele>915.0</ele>
        <time>2019-05-12T09:42:19Z</time>
      </trkpt>
      <trkpt lat="38.7550740" lon="-0.5363060">
        <ele>915.6</ele>
        <time>2019-05-12T09:42:26Z</time>
      </trkpt>
      <trkpt lat="38.7551050" lon="-0.5362700">
        <ele>915.8</ele>
        <time>2019-05-12T09:42:27Z</time>
      </trkpt>
      <trkpt lat="38.7552630" lon="-0.5361290">
        <ele>916.4</ele>
        <time>2019-05-12T09:42:32Z</time>
      </trkpt>
      <trkpt lat="38.7552920" lon="-0.5361010">
        <ele>917.0</ele>
        <time>2019-05-12T09:42:33Z</time>
      </trkpt>
      <trkpt lat="38.7554170" lon="-0.5359440">
        <ele>918.0</ele>
        <time>2019-05-12T09:42:38Z</time>
      </trkpt>
      <trkpt lat="38.7554410" lon="-0.5359110">
        <ele>918.4</ele>
        <time>2019-05-12T09:42:39Z</time>
      </trkpt>
      <trkpt lat="38.7555140" lon="-0.5358230">
        <ele>919.2</ele>
        <time>2019-05-12T09:42:42Z</time>
      </trkpt>
      <trkpt lat="38.7556420" lon="-0.5356840">
        <ele>919.6</ele>
        <time>2019-05-12T09:42:47Z</time>
      </trkpt>
      <trkpt lat="38.7557390" lon="-0.5355610">
        <ele>920.2</ele>
        <time>2019-05-12T09:42:51Z</time>
      </trkpt>
      <trkpt lat="38.7558230" lon="-0.5354730">
        <ele>920.6</ele>
        <time>2019-05-12T09:42:54Z</time>
      </trkpt>
      <trkpt lat="38.7559980" lon="-0.5353100">
        <ele>921.2</ele>
        <time>2019-05-12T09:43:00Z</time>
      </trkpt>
      <trkpt lat="38.7561230" lon="-0.5351930">
        <ele>921.4</ele>
        <time>2019-05-12T09:43:04Z</time>
      </trkpt>
      <trkpt lat="38.7562120" lon="-0.5351170">
        <ele>922.0</ele>
        <time>2019-05-12T09:43:07Z</time>
      </trkpt>
      <trkpt lat="38.7562870" lon="-0.5350200">
        <ele>922.6</ele>
        <time>2019-05-12T09:43:10Z</time>
      </trkpt>
      <trkpt lat="38.7563640" lon="-0.5349270">
        <ele>923.0</ele>
        <time>2019-05-12T09:43:13Z</time>
      </trkpt>
      <trkpt lat="38.7564730" lon="-0.5347570">
        <ele>923.8</ele>
        <time>2019-05-12T09:43:18Z</time>
      </trkpt>
      <trkpt lat="38.7564930" lon="-0.5347250">
        <ele>924.2</ele>
        <time>2019-05-12T09:43:19Z</time>
      </trkpt>
      <trkpt lat="38.7566680" lon="-0.5345330">
        <ele>924.6</ele>
        <time>2019-05-12T09:43:26Z</time>
      </trkpt>
      <trkpt lat="38.7566940" lon="-0.5345050">
        <ele>924.8</ele>
        <time>2019-05-12T09:43:27Z</time>
      </trkpt>
      <trkpt lat="38.7567550" lon="-0.5343660">
        <ele>925.4</ele>
        <time>2019-05-12T09:43:31Z</time>
      </trkpt>
      <trkpt lat="38.7567490" lon="-0.5341670">
        <ele>926.0</ele>
        <time>2019-05-12T09:43:36Z</time>
      </trkpt>
      <trkpt lat="38.7567240" lon="-0.5339740">
        <ele>927.2</ele>
        <time>2019-05-12T09:43:41Z</time>
      </trkpt>
      <trkpt lat="38.7567160" lon="-0.5339370">
        <ele>927.2</ele>
        <time>2019-05-12T09:43:42Z</time>
      </trkpt>
      <trkpt lat="38.7566810" lon="-0.5337920">
        <ele>928.2</ele>
        <time>2019-05-12T09:43:46Z</time>
      </trkpt>
      <trkpt lat="38.7566350" lon="-0.5336980">
        <ele>928.8</ele>
        <time>2019-05-12T09:43:49Z</time>
      </trkpt>
      <trkpt lat="38.7566220" lon="-0.5336660">
        <ele>929.4</ele>
        <time>2019-05-12T09:43:50Z</time>
      </trkpt>
      <trkpt lat="38.7565880" lon="-0.5335740">
        <ele>930.4</ele>
        <time>2019-05-12T09:43:53Z</time>
      </trkpt>
      <trkpt lat="38.7565800" lon="-0.5334620">
        <ele>930.4</ele>
        <time>2019-05-12T09:43:56Z</time>
      </trkpt>
      <trkpt lat="38.7566160" lon="-0.5332020">
        <ele>930.6</ele>
        <time>2019-05-12T09:44:02Z</time>
      </trkpt>
      <trkpt lat="38.7566890" lon="-0.5330770">
        <ele>931.6</ele>
        <time>2019-05-12T09:44:06Z</time>
      </trkpt>
      <trkpt lat="38.7567070" lon="-0.5330490">
        <ele>931.8</ele>
        <time>2019-05-12T09:44:07Z</time>
      </trkpt>
      <trkpt lat="38.7568780" lon="-0.5328110">
        <ele>932.6</ele>
        <time>2019-05-12T09:44:15Z</time>
      </trkpt>
      <trkpt lat="38.7569780" lon="-0.5326670">
        <ele>933.8</ele>
        <time>2019-05-12T09:44:20Z</time>
      </trkpt>
      <trkpt lat="38.7570190" lon="-0.5326180">
        <ele>934.4</ele>
        <time>2019-05-12T09:44:22Z</time>
      </trkpt>
      <trkpt lat="38.7571270" lon="-0.5324550">
        <ele>935.0</ele>
        <time>2019-05-12T09:44:28Z</time>
      </trkpt>
      <trkpt lat="38.7571460" lon="-0.5324280">
        <ele>935.2</ele>
        <time>2019-05-12T09:44:29Z</time>
      </trkpt>
      <trkpt lat="38.7572080" lon="-0.5323490">
        <ele>936.2</ele>
        <time>2019-05-12T09:44:32Z</time>
      </trkpt>
      <trkpt lat="38.7572800" lon="-0.5322500">
        <ele>937.4</ele>
        <time>2019-05-12T09:44:36Z</time>
      </trkpt>
      <trkpt lat="38.7573410" lon="-0.5321360">
        <ele>938.6</ele>
        <time>2019-05-12T09:44:40Z</time>
      </trkpt>
      <trkpt lat="38.7573680" lon="-0.5320740">
        <ele>939.2</ele>
        <time>2019-05-12T09:44:42Z</time>
      </trkpt>
      <trkpt lat="38.7573910" lon="-0.5320080">
        <ele>939.8</ele>
        <time>2019-05-12T09:44:44Z</time>
      </trkpt>
      <trkpt lat="38.7574340" lon="-0.5318380">
        <ele>940.6</ele>
        <time>2019-05-12T09:44:49Z</time>
      </trkpt>
      <trkpt lat="38.7574390" lon="-0.5318020">
        <ele>941.0</ele>
        <time>2019-05-12T09:44:50Z</time>
      </trkpt>
      <trkpt lat="38.7574500" lon="-0.5316610">
        <ele>942.4</ele>
        <time>2019-05-12T09:44:54Z</time>
      </trkpt>
      <trkpt lat="38.7574600" lon="-0.5315880">
        <ele>942.8</ele>
        <time>2019-05-12T09:44:56Z</time>
      </trkpt>
      <trkpt lat="38.7574900" lon="-0.5313620">
        <ele>943.6</ele>
        <time>2019-05-12T09:45:02Z</time>
      </trkpt>
      <trkpt lat="38.7574970" lon="-0.5313230">
        <ele>944.0</ele>
        <time>2019-05-12T09:45:03Z</time>
      </trkpt>
      <trkpt lat="38.7575360" lon="-0.5310940">
        <ele>944.8</ele>
        <time>2019-05-12T09:45:09Z</time>
      </trkpt>
      <trkpt lat="38.7575520" lon="-0.5310190">
        <ele>945.0</ele>
        <time>2019-05-12T09:45:11Z</time>
      </trkpt>
      <trkpt lat="38.7576450" lon="-0.5307720">
        <ele>945.8</ele>
        <time>2019-05-12T09:45:18Z</time>
      </trkpt>
      <trkpt lat="38.7576610" lon="-0.5307390">
        <ele>945.8</ele>
        <time>2019-05-12T09:45:19Z</time>
      </trkpt>
      <trkpt lat="38.7577740" lon="-0.5305610">
        <ele>947.0</ele>
        <time>2019-05-12T09:45:25Z</time>
      </trkpt>
      <trkpt lat="38.7578580" lon="-0.5304290">
        <ele>948.2</ele>
        <time>2019-05-12T09:45:30Z</time>
      </trkpt>
      <trkpt lat="38.7578930" lon="-0.5303730">
        <ele>948.8</ele>
        <time>2019-05-12T09:45:32Z</time>
      </trkpt>
      <trkpt lat="38.7579200" lon="-0.5303130">
        <ele>949.4</ele>
        <time>2019-05-12T09:45:34Z</time>
      </trkpt>
      <trkpt lat="38.7579560" lon="-0.5302080">
        <ele>950.4</ele>
        <time>2019-05-12T09:45:38Z</time>
      </trkpt>
      <trkpt lat="38.7579680" lon="-0.5301840">
        <ele>950.8</ele>
        <time>2019-05-12T09:45:39Z</time>
      </trkpt>
      <trkpt lat="38.7580000" lon="-0.5301070">
        <ele>951.8</ele>
        <time>2019-05-12T09:45:42Z</time>
      </trkpt>
      <trkpt lat="38.7580320" lon="-0.5300170">
        <ele>952.2</ele>
        <time>2019-05-12T09:45:45Z</time>
      </trkpt>
      <trkpt lat="38.7580490" lon="-0.5299680">
        <ele>953.0</ele>
        <time>2019-05-12T09:45:47Z</time>
      </trkpt>
      <trkpt lat="38.7580880" lon="-0.5298660">
        <ele>954.0</ele>
        <time>2019-05-12T09:45:51Z</time>
      </trkpt>
      <trkpt lat="38.7581180" lon="-0.5297900">
        <ele>955.0</ele>
        <time>2019-05-12T09:45:54Z</time>
      </trkpt>
      <trkpt lat="38.7581480" lon="-0.5297160">
        <ele>956.2</ele>
        <time>2019-05-12T09:45:57Z</time>
      </trkpt>
      <trkpt lat="38.7582630" lon="-0.5295980">
        <ele>957.2</ele>
        <time>2019-05-12T09:46:03Z</time>
      </trkpt>
      <trkpt lat="38.7584730" lon="-0.5294770">
        <ele>957.6</ele>
        <time>2019-05-12T09:46:11Z</time>
      </trkpt>
      <trkpt lat="38.7586410" lon="-0.5294250">
        <ele>958.6</ele>
        <time>2019-05-12T09:46:17Z</time>
      </trkpt>
      <trkpt lat="38.7588360" lon="-0.5294540">
        <ele>959.6</ele>
        <time>2019-05-12T09:46:24Z</time>
      </trkpt>
      <trkpt lat="38.7588620" lon="-0.5294720">
        <ele>959.8</ele>
        <time>2019-05-12T09:46:25Z</time>
      </trkpt>
      <trkpt lat="38.7589980" lon="-0.5294910">
        <ele>960.4</ele>
        <time>2019-05-12T09:46:30Z</time>
      </trkpt>
      <trkpt lat="38.7590500" lon="-0.5294650">
        <ele>961.0</ele>
        <time>2019-05-12T09:46:32Z</time>
      </trkpt>
      <trkpt lat="38.7591190" lon="-0.5294100">
        <ele>961.8</ele>
        <time>2019-05-12T09:46:35Z</time>
      </trkpt>
      <trkpt lat="38.7591410" lon="-0.5293860">
        <ele>962.2</ele>
        <time>2019-05-12T09:46:36Z</time>
      </trkpt>
      <trkpt lat="38.7592470" lon="-0.5292020">
        <ele>962.8</ele>
        <time>2019-05-12T09:46:42Z</time>
      </trkpt>
      <trkpt lat="38.7592940" lon="-0.5290950">
        <ele>963.2</ele>
        <time>2019-05-12T09:46:45Z</time>
      </trkpt>
      <trkpt lat="38.7593820" lon="-0.5289670">
        <ele>963.6</ele>
        <time>2019-05-12T09:46:49Z</time>
      </trkpt>
      <trkpt lat="38.7595700" lon="-0.5288460">
        <ele>962.4</ele>
        <time>2019-05-12T09:46:54Z</time>
      </trkpt>
      <trkpt lat="38.7596150" lon="-0.5288200">
        <ele>962.0</ele>
        <time>2019-05-12T09:46:55Z</time>
      </trkpt>
      <trkpt lat="38.7597430" lon="-0.5286920">
        <ele>960.8</ele>
        <time>2019-05-12T09:46:58Z</time>
      </trkpt>
      <trkpt lat="38.7597750" lon="-0.5286300">
        <ele>960.6</ele>
        <time>2019-05-12T09:46:59Z</time>
      </trkpt>
      <trkpt lat="38.7598070" lon="-0.5285740">
        <ele>960.4</ele>
        <time>2019-05-12T09:47:00Z</time>
      </trkpt>
      <trkpt lat="38.7599100" lon="-0.5284270">
        <ele>960.0</ele>
        <time>2019-05-12T09:47:03Z</time>
      </trkpt>
      <trkpt lat="38.7599860" lon="-0.5283140">
        <ele>959.8</ele>
        <time>2019-05-12T09:47:05Z</time>
      </trkpt>
      <trkpt lat="38.7600530" lon="-0.5281500">
        <ele>958.4</ele>
        <time>2019-05-12T09:47:07Z</time>
      </trkpt>
      <trkpt lat="38.7601110" lon="-0.5279800">
        <ele>957.4</ele>
        <time>2019-05-12T09:47:09Z</time>
      </trkpt>
      <trkpt lat="38.7601460" lon="-0.5278890">
        <ele>957.2</ele>
        <time>2019-05-12T09:47:10Z</time>
      </trkpt>
      <trkpt lat="38.7602180" lon="-0.5276900">
        <ele>956.0</ele>
        <time>2019-05-12T09:47:12Z</time>
      </trkpt>
      <trkpt lat="38.7602460" lon="-0.5275900">
        <ele>955.2</ele>
        <time>2019-05-12T09:47:13Z</time>
      </trkpt>
      <trkpt lat="38.7602640" lon="-0.5274840">
        <ele>954.4</ele>
        <time>2019-05-12T09:47:14Z</time>
      </trkpt>
      <trkpt lat="38.7603060" lon="-0.5272900">
        <ele>954.0</ele>
        <time>2019-05-12T09:47:16Z</time>
      </trkpt>
      <trkpt lat="38.7603300" lon="-0.5272060">
        <ele>954.4</ele>
        <time>2019-05-12T09:47:17Z</time>
      </trkpt>
      <trkpt lat="38.7603630" lon="-0.5270580">
        <ele>955.8</ele>
        <time>2019-05-12T09:47:19Z</time>
      </trkpt>
      <trkpt lat="38.7603890" lon="-0.5269260">
        <ele>957.0</ele>
        <time>2019-05-12T09:47:21Z</time>
      </trkpt>
      <trkpt lat="38.7604270" lon="-0.5266320">
        <ele>958.2</ele>
        <time>2019-05-12T09:47:26Z</time>
      </trkpt>
      <trkpt lat="38.7604360" lon="-0.5265770">
        <ele>958.6</ele>
        <time>2019-05-12T09:47:27Z</time>
      </trkpt>
      <trkpt lat="38.7604480" lon="-0.5264120">
        <ele>959.2</ele>
        <time>2019-05-12T09:47:30Z</time>
      </trkpt>
      <trkpt lat="38.7604610" lon="-0.5261320">
        <ele>960.2</ele>
        <time>2019-05-12T09:47:35Z</time>
      </trkpt>
      <trkpt lat="38.7604590" lon="-0.5260770">
        <ele>960.2</ele>
        <time>2019-05-12T09:47:36Z</time>
      </trkpt>
      <trkpt lat="38.7604390" lon="-0.5258680">
        <ele>961.4</ele>
        <time>2019-05-12T09:47:40Z</time>
      </trkpt>
      <trkpt lat="38.7604300" lon="-0.5257670">
        <ele>961.8</ele>
        <time>2019-05-12T09:47:42Z</time>
      </trkpt>
      <trkpt lat="38.7604300" lon="-0.5256810">
        <ele>962.8</ele>
        <time>2019-05-12T09:47:44Z</time>
      </trkpt>
      <trkpt lat="38.7604410" lon="-0.5255080">
        <ele>963.8</ele>
        <time>2019-05-12T09:47:48Z</time>
      </trkpt>
      <trkpt lat="38.7604670" lon="-0.5252450">
        <ele>963.6</ele>
        <time>2019-05-12T09:47:53Z</time>
      </trkpt>
      <trkpt lat="38.7604760" lon="-0.5251890">
        <ele>963.2</ele>
        <time>2019-05-12T09:47:54Z</time>
      </trkpt>
      <trkpt lat="38.7604840" lon="-0.5249740">
        <ele>963.8</ele>
        <time>2019-05-12T09:47:58Z</time>
      </trkpt>
      <trkpt lat="38.7604710" lon="-0.5247510">
        <ele>964.6</ele>
        <time>2019-05-12T09:48:03Z</time>
      </trkpt>
      <trkpt lat="38.7604780" lon="-0.5247090">
        <ele>965.0</ele>
        <time>2019-05-12T09:48:04Z</time>
      </trkpt>
      <trkpt lat="38.7605060" lon="-0.5246050">
        <ele>966.4</ele>
        <time>2019-05-12T09:48:07Z</time>
      </trkpt>
      <trkpt lat="38.7605170" lon="-0.5245640">
        <ele>966.6</ele>
        <time>2019-05-12T09:48:08Z</time>
      </trkpt>
      <trkpt lat="38.7605530" lon="-0.5243960">
        <ele>967.6</ele>
        <time>2019-05-12T09:48:12Z</time>
      </trkpt>
      <trkpt lat="38.7605660" lon="-0.5242710">
        <ele>968.8</ele>
        <time>2019-05-12T09:48:15Z</time>
      </trkpt>
      <trkpt lat="38.7605660" lon="-0.5242330">
        <ele>968.8</ele>
        <time>2019-05-12T09:48:16Z</time>
      </trkpt>
      <trkpt lat="38.7605490" lon="-0.5239840">
        <ele>969.4</ele>
        <time>2019-05-12T09:48:23Z</time>
      </trkpt>
      <trkpt lat="38.7605320" lon="-0.5238650">
        <ele>969.8</ele>
        <time>2019-05-12T09:48:26Z</time>
      </trkpt>
      <trkpt lat="38.7605090" lon="-0.5236610">
        <ele>971.0</ele>
        <time>2019-05-12T09:48:31Z</time>
      </trkpt>
      <trkpt lat="38.7604370" lon="-0.5233190">
        <ele>972.2</ele>
        <time>2019-05-12T09:48:40Z</time>
      </trkpt>
      <trkpt lat="38.7603670" lon="-0.5231040">
        <ele>973.2</ele>
        <time>2019-05-12T09:48:46Z</time>
      </trkpt>
      <trkpt lat="38.7603600" lon="-0.5230670">
        <ele>973.4</ele>
        <time>2019-05-12T09:48:47Z</time>
      </trkpt>
      <trkpt lat="38.7603590" lon="-0.5228900">
        <ele>974.4</ele>
        <time>2019-05-12T09:48:52Z</time>
      </trkpt>
      <trkpt lat="38.7603640" lon="-0.5228560">
        <ele>974.6</ele>
        <time>2019-05-12T09:48:53Z</time>
      </trkpt>
      <trkpt lat="38.7603740" lon="-0.5227600">
        <ele>975.8</ele>
        <time>2019-05-12T09:48:56Z</time>
      </trkpt>
      <trkpt lat="38.7603950" lon="-0.5226520">
        <ele>976.6</ele>
        <time>2019-05-12T09:49:00Z</time>
      </trkpt>
      <trkpt lat="38.7603990" lon="-0.5226210">
        <ele>976.8</ele>
        <time>2019-05-12T09:49:01Z</time>
      </trkpt>
      <trkpt lat="38.7604090" lon="-0.5224330">
        <ele>978.0</ele>
        <time>2019-05-12T09:49:07Z</time>
      </trkpt>
      <trkpt lat="38.7604080" lon="-0.5223990">
        <ele>978.4</ele>
        <time>2019-05-12T09:49:08Z</time>
      </trkpt>
      <trkpt lat="38.7603980" lon="-0.5222940">
        <ele>979.2</ele>
        <time>2019-05-12T09:49:11Z</time>
      </trkpt>
      <trkpt lat="38.7603920" lon="-0.5221980">
        <ele>980.6</ele>
        <time>2019-05-12T09:49:14Z</time>
      </trkpt>
      <trkpt lat="38.7603840" lon="-0.5221700">
        <ele>981.0</ele>
        <time>2019-05-12T09:49:15Z</time>
      </trkpt>
      <trkpt lat="38.7603630" lon="-0.5220550">
        <ele>981.8</ele>
        <time>2019-05-12T09:49:19Z</time>
      </trkpt>
      <trkpt lat="38.7603450" lon="-0.5220000">
        <ele>982.8</ele>
        <time>2019-05-12T09:49:21Z</time>
      </trkpt>
      <trkpt lat="38.7603400" lon="-0.5219700">
        <ele>983.0</ele>
        <time>2019-05-12T09:49:22Z</time>
      </trkpt>
      <trkpt lat="38.7603180" lon="-0.5218520">
        <ele>984.2</ele>
        <time>2019-05-12T09:49:26Z</time>
      </trkpt>
      <trkpt lat="38.7603050" lon="-0.5216520">
        <ele>985.0</ele>
        <time>2019-05-12T09:49:32Z</time>
      </trkpt>
      <trkpt lat="38.7603160" lon="-0.5215810">
        <ele>985.4</ele>
        <time>2019-05-12T09:49:34Z</time>
      </trkpt>
      <trkpt lat="38.7603410" lon="-0.5214660">
        <ele>985.8</ele>
        <time>2019-05-12T09:49:38Z</time>
      </trkpt>
      <trkpt lat="38.7603760" lon="-0.5213630">
        <ele>986.4</ele>
        <time>2019-05-12T09:49:41Z</time>
      </trkpt>
      <trkpt lat="38.7603850" lon="-0.5213260">
        <ele>986.6</ele>
        <time>2019-05-12T09:49:42Z</time>
      </trkpt>
      <trkpt lat="38.7604550" lon="-0.5210350">
        <ele>987.6</ele>
        <time>2019-05-12T09:49:50Z</time>
      </trkpt>
      <trkpt lat="38.7605060" lon="-0.5208210">
        <ele>988.6</ele>
        <time>2019-05-12T09:49:56Z</time>
      </trkpt>
      <trkpt lat="38.7605540" lon="-0.5206450">
        <ele>989.6</ele>
        <time>2019-05-12T09:50:01Z</time>
      </trkpt>
      <trkpt lat="38.7605620" lon="-0.5206040">
        <ele>989.8</ele>
        <time>2019-05-12T09:50:02Z</time>
      </trkpt>
      <trkpt lat="38.7606130" lon="-0.5203710">
        <ele>990.6</ele>
        <time>2019-05-12T09:50:08Z</time>
      </trkpt>
      <trkpt lat="38.7606440" lon="-0.5201540">
        <ele>990.8</ele>
        <time>2019-05-12T09:50:13Z</time>
      </trkpt>
      <trkpt lat="38.7606500" lon="-0.5201140">
        <ele>990.8</ele>
        <time>2019-05-12T09:50:14Z</time>
      </trkpt>
      <trkpt lat="38.7606960" lon="-0.5198840">
        <ele>991.8</ele>
        <time>2019-05-12T09:50:20Z</time>
      </trkpt>
      <trkpt lat="38.7607190" lon="-0.5197390">
        <ele>992.8</ele>
        <time>2019-05-12T09:50:24Z</time>
      </trkpt>
      <trkpt lat="38.7607280" lon="-0.5196770">
        <ele>993.4</ele>
        <time>2019-05-12T09:50:26Z</time>
      </trkpt>
      <trkpt lat="38.7607340" lon="-0.5196110">
        <ele>994.0</ele>
        <time>2019-05-12T09:50:28Z</time>
      </trkpt>
      <trkpt lat="38.7607450" lon="-0.5194880">
        <ele>995.0</ele>
        <time>2019-05-12T09:50:32Z</time>
      </trkpt>
      <trkpt lat="38.7607440" lon="-0.5194540">
        <ele>995.4</ele>
        <time>2019-05-12T09:50:33Z</time>
      </trkpt>
      <trkpt lat="38.7607490" lon="-0.5192560">
        <ele>996.6</ele>
        <time>2019-05-12T09:50:39Z</time>
      </trkpt>
      <trkpt lat="38.7607490" lon="-0.5192290">
        <ele>996.8</ele>
        <time>2019-05-12T09:50:40Z</time>
      </trkpt>
      <trkpt lat="38.7607560" lon="-0.5191740">
        <ele>997.8</ele>
        <time>2019-05-12T09:50:42Z</time>
      </trkpt>
      <trkpt lat="38.7607680" lon="-0.5190700">
        <ele>999.0</ele>
        <time>2019-05-12T09:50:46Z</time>
      </trkpt>
      <trkpt lat="38.7607800" lon="-0.5190470">
        <ele>999.4</ele>
        <time>2019-05-12T09:50:47Z</time>
      </trkpt>
      <trkpt lat="38.7607850" lon="-0.5189970">
        <ele>1000.2</ele>
        <time>2019-05-12T09:50:49Z</time>
      </trkpt>
      <trkpt lat="38.7607730" lon="-0.5189220">
        <ele>1001.4</ele>
        <time>2019-05-12T09:50:52Z</time>
      </trkpt>
      <trkpt lat="38.7607530" lon="-0.5188460">
        <ele>1001.8</ele>
        <time>2019-05-12T09:50:55Z</time>
      </trkpt>
      <trkpt lat="38.7607240" lon="-0.5188010">
        <ele>1002.6</ele>
        <time>2019-05-12T09:50:57Z</time>
      </trkpt>
      <trkpt lat="38.7606760" lon="-0.5187370">
        <ele>1003.0</ele>
        <time>2019-05-12T09:51:00Z</time>
      </trkpt>
      <trkpt lat="38.7606570" lon="-0.5187100">
        <ele>1003.6</ele>
        <time>2019-05-12T09:51:01Z</time>
      </trkpt>
      <trkpt lat="38.7606020" lon="-0.5186530">
        <ele>1004.8</ele>
        <time>2019-05-12T09:51:04Z</time>
      </trkpt>
      <trkpt lat="38.7604940" lon="-0.5185690">
        <ele>1005.8</ele>
        <time>2019-05-12T09:51:10Z</time>
      </trkpt>
      <trkpt lat="38.7604710" lon="-0.5185510">
        <ele>1006.0</ele>
        <time>2019-05-12T09:51:11Z</time>
      </trkpt>
      <trkpt lat="38.7603630" lon="-0.5184350">
        <ele>1006.8</ele>
        <time>2019-05-12T09:51:17Z</time>
      </trkpt>
      <trkpt lat="38.7603560" lon="-0.5184170">
        <ele>1007.0</ele>
        <time>2019-05-12T09:51:18Z</time>
      </trkpt>
      <trkpt lat="38.7603240" lon="-0.5183490">
        <ele>1008.4</ele>
        <time>2019-05-12T09:51:22Z</time>
      </trkpt>
      <trkpt lat="38.7602760" lon="-0.5182300">
        <ele>1009.4</ele>
        <time>2019-05-12T09:51:27Z</time>
      </trkpt>
      <trkpt lat="38.7602680" lon="-0.5182030">
        <ele>1009.6</ele>
        <time>2019-05-12T09:51:28Z</time>
      </trkpt>
      <trkpt lat="38.7601990" lon="-0.5180550">
        <ele>1010.4</ele>
        <time>2019-05-12T09:51:34Z</time>
      </trkpt>
      <trkpt lat="38.7601510" lon="-0.5179030">
        <ele>1011.4</ele>
        <time>2019-05-12T09:51:40Z</time>
      </trkpt>
      <trkpt lat="38.7601420" lon="-0.5178790">
        <ele>1011.6</ele>
        <time>2019-05-12T09:51:41Z</time>
      </trkpt>
      <trkpt lat="38.7601290" lon="-0.5178050">
        <ele>1012.6</ele>
        <time>2019-05-12T09:51:44Z</time>
      </trkpt>
      <trkpt lat="38.7601130" lon="-0.5176840">
        <ele>1013.8</ele>
        <time>2019-05-12T09:51:49Z</time>
      </trkpt>
      <trkpt lat="38.7601150" lon="-0.5175780">
        <ele>1014.8</ele>
        <time>2019-05-12T09:51:53Z</time>
      </trkpt>
      <trkpt lat="38.7601050" lon="-0.5175230">
        <ele>1015.2</ele>
        <time>2019-05-12T09:51:55Z</time>
      </trkpt>
      <trkpt lat="38.7600920" lon="-0.5174350">
        <ele>1016.0</ele>
        <time>2019-05-12T09:51:58Z</time>
      </trkpt>
      <trkpt lat="38.7600600" lon="-0.5173620">
        <ele>1017.0</ele>
        <time>2019-05-12T09:52:01Z</time>
      </trkpt>
      <trkpt lat="38.7600470" lon="-0.5173400">
        <ele>1017.0</ele>
        <time>2019-05-12T09:52:02Z</time>
      </trkpt>
      <trkpt lat="38.7599950" lon="-0.5172500">
        <ele>1018.2</ele>
        <time>2019-05-12T09:52:06Z</time>
      </trkpt>
      <trkpt lat="38.7599820" lon="-0.5172300">
        <ele>1018.4</ele>
        <time>2019-05-12T09:52:07Z</time>
      </trkpt>
      <trkpt lat="38.7599490" lon="-0.5171240">
        <ele>1019.4</ele>
        <time>2019-05-12T09:52:12Z</time>
      </trkpt>
      <trkpt lat="38.7599580" lon="-0.5171010">
        <ele>1019.8</ele>
        <time>2019-05-12T09:52:13Z</time>
      </trkpt>
      <trkpt lat="38.7599680" lon="-0.5170310">
        <ele>1021.0</ele>
        <time>2019-05-12T09:52:16Z</time>
      </trkpt>
      <trkpt lat="38.7599800" lon="-0.5169390">
        <ele>1022.2</ele>
        <time>2019-05-12T09:52:20Z</time>
      </trkpt>
      <trkpt lat="38.7599710" lon="-0.5168290">
        <ele>1023.2</ele>
        <time>2019-05-12T09:52:25Z</time>
      </trkpt>
      <trkpt lat="38.7599710" lon="-0.5167810">
        <ele>1023.2</ele>
        <time>2019-05-12T09:52:27Z</time>
      </trkpt>
      <trkpt lat="38.7599480" lon="-0.5166640">
        <ele>1024.4</ele>
        <time>2019-05-12T09:52:32Z</time>
      </trkpt>
      <trkpt lat="38.7599520" lon="-0.5166190">
        <ele>1024.6</ele>
        <time>2019-05-12T09:52:34Z</time>
      </trkpt>
      <trkpt lat="38.7599530" lon="-0.5165450">
        <ele>1025.2</ele>
        <time>2019-05-12T09:52:37Z</time>
      </trkpt>
      <trkpt lat="38.7599450" lon="-0.5165040">
        <ele>1025.6</ele>
        <time>2019-05-12T09:52:39Z</time>
      </trkpt>
      <trkpt lat="38.7599590" lon="-0.5164380">
        <ele>1026.8</ele>
        <time>2019-05-12T09:52:42Z</time>
      </trkpt>
      <trkpt lat="38.7599630" lon="-0.5163890">
        <ele>1027.4</ele>
        <time>2019-05-12T09:52:44Z</time>
      </trkpt>
      <trkpt lat="38.7599750" lon="-0.5163190">
        <ele>1028.0</ele>
        <time>2019-05-12T09:52:47Z</time>
      </trkpt>
      <trkpt lat="38.7599780" lon="-0.5162590">
        <ele>1029.2</ele>
        <time>2019-05-12T09:52:50Z</time>
      </trkpt>
      <trkpt lat="38.7599740" lon="-0.5162370">
        <ele>1029.4</ele>
        <time>2019-05-12T09:52:51Z</time>
      </trkpt>
      <trkpt lat="38.7599600" lon="-0.5161460">
        <ele>1030.6</ele>
        <time>2019-05-12T09:52:55Z</time>
      </trkpt>
      <trkpt lat="38.7599550" lon="-0.5160800">
        <ele>1031.2</ele>
        <time>2019-05-12T09:52:58Z</time>
      </trkpt>
      <trkpt lat="38.7599480" lon="-0.5160380">
        <ele>1031.8</ele>
        <time>2019-05-12T09:53:00Z</time>
      </trkpt>
      <trkpt lat="38.7599340" lon="-0.5159570">
        <ele>1033.0</ele>
        <time>2019-05-12T09:53:04Z</time>
      </trkpt>
      <trkpt lat="38.7599240" lon="-0.5159210">
        <ele>1033.8</ele>
        <time>2019-05-12T09:53:06Z</time>
      </trkpt>
      <trkpt lat="38.7599150" lon="-0.5159030">
        <ele>1034.2</ele>
        <time>2019-05-12T09:53:07Z</time>
      </trkpt>
      <trkpt lat="38.7599090" lon="-0.5158470">
        <ele>1034.8</ele>
        <time>2019-05-12T09:53:10Z</time>
      </trkpt>
      <trkpt lat="38.7599040" lon="-0.5158070">
        <ele>1035.4</ele>
        <time>2019-05-12T09:53:12Z</time>
      </trkpt>
      <trkpt lat="38.7598950" lon="-0.5157490">
        <ele>1036.6</ele>
        <time>2019-05-12T09:53:15Z</time>
      </trkpt>
      <trkpt lat="38.7598970" lon="-0.5156530">
        <ele>1037.6</ele>
        <time>2019-05-12T09:53:19Z</time>
      </trkpt>
      <trkpt lat="38.7598940" lon="-0.5156260">
        <ele>1037.8</ele>
        <time>2019-05-12T09:53:20Z</time>
      </trkpt>
      <trkpt lat="38.7598940" lon="-0.5155310">
        <ele>1039.0</ele>
        <time>2019-05-12T09:53:24Z</time>
      </trkpt>
      <trkpt lat="38.7598880" lon="-0.5154640">
        <ele>1039.8</ele>
        <time>2019-05-12T09:53:27Z</time>
      </trkpt>
      <trkpt lat="38.7598830" lon="-0.5154410">
        <ele>1040.0</ele>
        <time>2019-05-12T09:53:28Z</time>
      </trkpt>
      <trkpt lat="38.7598680" lon="-0.5153480">
        <ele>1041.0</ele>
        <time>2019-05-12T09:53:32Z</time>
      </trkpt>
      <trkpt lat="38.7598570" lon="-0.5152810">
        <ele>1041.8</ele>
        <time>2019-05-12T09:53:35Z</time>
      </trkpt>
      <trkpt lat="38.7598560" lon="-0.5152560">
        <ele>1042.0</ele>
        <time>2019-05-12T09:53:36Z</time>
      </trkpt>
      <trkpt lat="38.7598410" lon="-0.5151410">
        <ele>1043.2</ele>
        <time>2019-05-12T09:53:41Z</time>
      </trkpt>
      <trkpt lat="38.7598200" lon="-0.5150300">
        <ele>1044.2</ele>
        <time>2019-05-12T09:53:46Z</time>
      </trkpt>
      <trkpt lat="38.7598230" lon="-0.5149610">
        <ele>1044.8</ele>
        <time>2019-05-12T09:53:49Z</time>
      </trkpt>
      <trkpt lat="38.7598210" lon="-0.5149220">
        <ele>1045.6</ele>
        <time>2019-05-12T09:53:51Z</time>
      </trkpt>
      <trkpt lat="38.7598080" lon="-0.5148670">
        <ele>1046.6</ele>
        <time>2019-05-12T09:53:54Z</time>
      </trkpt>
      <trkpt lat="38.7597950" lon="-0.5148520">
        <ele>1046.6</ele>
        <time>2019-05-12T09:53:55Z</time>
      </trkpt>
      <trkpt lat="38.7597780" lon="-0.5147580">
        <ele>1047.8</ele>
        <time>2019-05-12T09:53:59Z</time>
      </trkpt>
      <trkpt lat="38.7597670" lon="-0.5147050">
        <ele>1048.6</ele>
        <time>2019-05-12T09:54:01Z</time>
      </trkpt>
      <trkpt lat="38.7597640" lon="-0.5146830">
        <ele>1048.8</ele>
        <time>2019-05-12T09:54:02Z</time>
      </trkpt>
      <trkpt lat="38.7597630" lon="-0.5146590">
        <ele>1048.8</ele>
        <time>2019-05-12T09:54:03Z</time>
      </trkpt>
      <trkpt lat="38.7597490" lon="-0.5145380">
        <ele>1050.0</ele>
        <time>2019-05-12T09:54:08Z</time>
      </trkpt>
      <trkpt lat="38.7597360" lon="-0.5144280">
        <ele>1051.2</ele>
        <time>2019-05-12T09:54:13Z</time>
      </trkpt>
      <trkpt lat="38.7597330" lon="-0.5143810">
        <ele>1051.8</ele>
        <time>2019-05-12T09:54:15Z</time>
      </trkpt>
      <trkpt lat="38.7597320" lon="-0.5143390">
        <ele>1052.2</ele>
        <time>2019-05-12T09:54:17Z</time>
      </trkpt>
      <trkpt lat="38.7597150" lon="-0.5142710">
        <ele>1052.8</ele>
        <time>2019-05-12T09:54:20Z</time>
      </trkpt>
      <trkpt lat="38.7597150" lon="-0.5142460">
        <ele>1053.4</ele>
        <time>2019-05-12T09:54:21Z</time>
      </trkpt>
      <trkpt lat="38.7596990" lon="-0.5141450">
        <ele>1054.6</ele>
        <time>2019-05-12T09:54:25Z</time>
      </trkpt>
      <trkpt lat="38.7596960" lon="-0.5141210">
        <ele>1054.8</ele>
        <time>2019-05-12T09:54:26Z</time>
      </trkpt>
      <trkpt lat="38.7596710" lon="-0.5140350">
        <ele>1056.0</ele>
        <time>2019-05-12T09:54:30Z</time>
      </trkpt>
      <trkpt lat="38.7596670" lon="-0.5139860">
        <ele>1056.2</ele>
        <time>2019-05-12T09:54:32Z</time>
      </trkpt>
      <trkpt lat="38.7596460" lon="-0.5138950">
        <ele>1057.2</ele>
        <time>2019-05-12T09:54:36Z</time>
      </trkpt>
      <trkpt lat="38.7596310" lon="-0.5138300">
        <ele>1057.6</ele>
        <time>2019-05-12T09:54:39Z</time>
      </trkpt>
      <trkpt lat="38.7596270" lon="-0.5137820">
        <ele>1058.4</ele>
        <time>2019-05-12T09:54:41Z</time>
      </trkpt>
      <trkpt lat="38.7596260" lon="-0.5136710">
        <ele>1059.4</ele>
        <time>2019-05-12T09:54:46Z</time>
      </trkpt>
      <trkpt lat="38.7596290" lon="-0.5136470">
        <ele>1059.6</ele>
        <time>2019-05-12T09:54:47Z</time>
      </trkpt>
      <trkpt lat="38.7596490" lon="-0.5135690">
        <ele>1060.2</ele>
        <time>2019-05-12T09:54:50Z</time>
      </trkpt>
      <trkpt lat="38.7596460" lon="-0.5135480">
        <ele>1060.4</ele>
        <time>2019-05-12T09:54:51Z</time>
      </trkpt>
      <trkpt lat="38.7596430" lon="-0.5135250">
        <ele>1060.8</ele>
        <time>2019-05-12T09:54:52Z</time>
      </trkpt>
      <trkpt lat="38.7596390" lon="-0.5134470">
        <ele>1061.4</ele>
        <time>2019-05-12T09:54:55Z</time>
      </trkpt>
      <trkpt lat="38.7596460" lon="-0.5133620">
        <ele>1061.8</ele>
        <time>2019-05-12T09:54:58Z</time>
      </trkpt>
      <trkpt lat="38.7596520" lon="-0.5132780">
        <ele>1062.2</ele>
        <time>2019-05-12T09:55:01Z</time>
      </trkpt>
      <trkpt lat="38.7596480" lon="-0.5132280">
        <ele>1062.8</ele>
        <time>2019-05-12T09:55:03Z</time>
      </trkpt>
      <trkpt lat="38.7596440" lon="-0.5132000">
        <ele>1063.0</ele>
        <time>2019-05-12T09:55:04Z</time>
      </trkpt>
      <trkpt lat="38.7596800" lon="-0.5130780">
        <ele>1064.2</ele>
        <time>2019-05-12T09:55:09Z</time>
      </trkpt>
      <trkpt lat="38.7597260" lon="-0.5130200">
        <ele>1065.4</ele>
        <time>2019-05-12T09:55:12Z</time>
      </trkpt>
      <trkpt lat="38.7597610" lon="-0.5129740">
        <ele>1065.8</ele>
        <time>2019-05-12T09:55:14Z</time>
      </trkpt>
      <trkpt lat="38.7598130" lon="-0.5129070">
        <ele>1066.4</ele>
        <time>2019-05-12T09:55:17Z</time>
      </trkpt>
      <trkpt lat="38.7598750" lon="-0.5128170">
        <ele>1067.2</ele>
        <time>2019-05-12T09:55:21Z</time>
      </trkpt>
      <trkpt lat="38.7598890" lon="-0.5127930">
        <ele>1067.6</ele>
        <time>2019-05-12T09:55:22Z</time>
      </trkpt>
      <trkpt lat="38.7598910" lon="-0.5126830">
        <ele>1068.4</ele>
        <time>2019-05-12T09:55:26Z</time>
      </trkpt>
      <trkpt lat="38.7598860" lon="-0.5126550">
        <ele>1068.8</ele>
        <time>2019-05-12T09:55:27Z</time>
      </trkpt>
      <trkpt lat="38.7598480" lon="-0.5125440">
        <ele>1070.0</ele>
        <time>2019-05-12T09:55:32Z</time>
      </trkpt>
      <trkpt lat="38.7598330" lon="-0.5124990">
        <ele>1070.6</ele>
        <time>2019-05-12T09:55:34Z</time>
      </trkpt>
      <trkpt lat="38.7598210" lon="-0.5124560">
        <ele>1071.4</ele>
        <time>2019-05-12T09:55:36Z</time>
      </trkpt>
      <trkpt lat="38.7598060" lon="-0.5123950">
        <ele>1072.6</ele>
        <time>2019-05-12T09:55:39Z</time>
      </trkpt>
      <trkpt lat="38.7597910" lon="-0.5123580">
        <ele>1073.0</ele>
        <time>2019-05-12T09:55:41Z</time>
      </trkpt>
      <trkpt lat="38.7597810" lon="-0.5123230">
        <ele>1073.6</ele>
        <time>2019-05-12T09:55:43Z</time>
      </trkpt>
      <trkpt lat="38.7597410" lon="-0.5122510">
        <ele>1075.0</ele>
        <time>2019-05-12T09:55:47Z</time>
      </trkpt>
      <trkpt lat="38.7596960" lon="-0.5121740">
        <ele>1076.2</ele>
        <time>2019-05-12T09:55:51Z</time>
      </trkpt>
      <trkpt lat="38.7596680" lon="-0.5121390">
        <ele>1076.4</ele>
        <time>2019-05-12T09:55:53Z</time>
      </trkpt>
      <trkpt lat="38.7596190" lon="-0.5121050">
        <ele>1077.2</ele>
        <time>2019-05-12T09:55:56Z</time>
      </trkpt>
      <trkpt lat="38.7595490" lon="-0.5120810">
        <ele>1077.8</ele>
        <time>2019-05-12T09:56:00Z</time>
      </trkpt>
      <trkpt lat="38.7595340" lon="-0.5120790">
        <ele>1078.4</ele>
        <time>2019-05-12T09:56:01Z</time>
      </trkpt>
      <trkpt lat="38.7594700" lon="-0.5120440">
        <ele>1079.2</ele>
        <time>2019-05-12T09:56:05Z</time>
      </trkpt>
      <trkpt lat="38.7594490" lon="-0.5120370">
        <ele>1079.6</ele>
        <time>2019-05-12T09:56:06Z</time>
      </trkpt>
      <trkpt lat="38.7594200" lon="-0.5120200">
        <ele>1080.2</ele>
        <time>2019-05-12T09:56:08Z</time>
      </trkpt>
      <trkpt lat="38.7593950" lon="-0.5119990">
        <ele>1080.6</ele>
        <time>2019-05-12T09:56:10Z</time>
      </trkpt>
      <trkpt lat="38.7593820" lon="-0.5119890">
        <ele>1080.6</ele>
        <time>2019-05-12T09:56:11Z</time>
      </trkpt>
      <trkpt lat="38.7593730" lon="-0.5119700">
        <ele>1081.0</ele>
        <time>2019-05-12T09:56:12Z</time>
      </trkpt>
      <trkpt lat="38.7593570" lon="-0.5118880">
        <ele>1081.8</ele>
        <time>2019-05-12T09:56:16Z</time>
      </trkpt>
      <trkpt lat="38.7593510" lon="-0.5118640">
        <ele>1082.0</ele>
        <time>2019-05-12T09:56:17Z</time>
      </trkpt>
      <trkpt lat="38.7593230" lon="-0.5117740">
        <ele>1083.0</ele>
        <time>2019-05-12T09:56:21Z</time>
      </trkpt>
      <trkpt lat="38.7593220" lon="-0.5117490">
        <ele>1083.2</ele>
        <time>2019-05-12T09:56:22Z</time>
      </trkpt>
      <trkpt lat="38.7593270" lon="-0.5117230">
        <ele>1083.4</ele>
        <time>2019-05-12T09:56:23Z</time>
      </trkpt>
      <trkpt lat="38.7593490" lon="-0.5115510">
        <ele>1083.8</ele>
        <time>2019-05-12T09:56:29Z</time>
      </trkpt>
      <trkpt lat="38.7593990" lon="-0.5113150">
        <ele>1083.6</ele>
        <time>2019-05-12T09:56:35Z</time>
      </trkpt>
      <trkpt lat="38.7594000" lon="-0.5112010">
        <ele>1084.2</ele>
        <time>2019-05-12T09:56:38Z</time>
      </trkpt>
      <trkpt lat="38.7593790" lon="-0.5110910">
        <ele>1084.0</ele>
        <time>2019-05-12T09:56:41Z</time>
      </trkpt>
      <trkpt lat="38.7592890" lon="-0.5108330">
        <ele>1083.2</ele>
        <time>2019-05-12T09:56:47Z</time>
      </trkpt>
      <trkpt lat="38.7592720" lon="-0.5107820">
        <ele>1083.0</ele>
        <time>2019-05-12T09:56:48Z</time>
      </trkpt>
      <trkpt lat="38.7591640" lon="-0.5105630">
        <ele>1082.2</ele>
        <time>2019-05-12T09:56:52Z</time>
      </trkpt>
      <trkpt lat="38.7591360" lon="-0.5105030">
        <ele>1082.0</ele>
        <time>2019-05-12T09:56:53Z</time>
      </trkpt>
      <trkpt lat="38.7590480" lon="-0.5103180">
        <ele>1080.6</ele>
        <time>2019-05-12T09:56:56Z</time>
      </trkpt>
      <trkpt lat="38.7589780" lon="-0.5101840">
        <ele>1079.4</ele>
        <time>2019-05-12T09:56:58Z</time>
      </trkpt>
      <trkpt lat="38.7589480" lon="-0.5101080">
        <ele>1078.8</ele>
        <time>2019-05-12T09:56:59Z</time>
      </trkpt>
      <trkpt lat="38.7588960" lon="-0.5099350">
        <ele>1077.8</ele>
        <time>2019-05-12T09:57:01Z</time>
      </trkpt>
      <trkpt lat="38.7588540" lon="-0.5097670">
        <ele>1076.6</ele>
        <time>2019-05-12T09:57:03Z</time>
      </trkpt>
      <trkpt lat="38.7588370" lon="-0.5096870">
        <ele>1076.0</ele>
        <time>2019-05-12T09:57:04Z</time>
      </trkpt>
      <trkpt lat="38.7587990" lon="-0.5095360">
        <ele>1075.4</ele>
        <time>2019-05-12T09:57:06Z</time>
      </trkpt>
      <trkpt lat="38.7587700" lon="-0.5092770">
        <ele>1074.4</ele>
        <time>2019-05-12T09:57:09Z</time>
      </trkpt>
      <trkpt lat="38.7587740" lon="-0.5091740">
        <ele>1073.6</ele>
        <time>2019-05-12T09:57:10Z</time>
      </trkpt>
      <trkpt lat="38.7587770" lon="-0.5090600">
        <ele>1072.4</ele>
        <time>2019-05-12T09:57:11Z</time>
      </trkpt>
      <trkpt lat="38.7587860" lon="-0.5089460">
        <ele>1071.2</ele>
        <time>2019-05-12T09:57:12Z</time>
      </trkpt>
      <trkpt lat="38.7587920" lon="-0.5088250">
        <ele>1069.4</ele>
        <time>2019-05-12T09:57:13Z</time>
      </trkpt>
      <trkpt lat="38.7588000" lon="-0.5087120">
        <ele>1068.2</ele>
        <time>2019-05-12T09:57:14Z</time>
      </trkpt>
      <trkpt lat="38.7588100" lon="-0.5085990">
        <ele>1067.0</ele>
        <time>2019-05-12T09:57:15Z</time>
      </trkpt>
      <trkpt lat="38.7588270" lon="-0.5083830">
        <ele>1066.0</ele>
        <time>2019-05-12T09:57:17Z</time>
      </trkpt>
      <trkpt lat="38.7588350" lon="-0.5080080">
        <ele>1065.8</ele>
        <time>2019-05-12T09:57:21Z</time>
      </trkpt>
      <trkpt lat="38.7588220" lon="-0.5078670">
        <ele>1066.6</ele>
        <time>2019-05-12T09:57:23Z</time>
      </trkpt>
      <trkpt lat="38.7588120" lon="-0.5077330">
        <ele>1067.0</ele>
        <time>2019-05-12T09:57:25Z</time>
      </trkpt>
      <trkpt lat="38.7588070" lon="-0.5076720">
        <ele>1067.0</ele>
        <time>2019-05-12T09:57:26Z</time>
      </trkpt>
      <trkpt lat="38.7588240" lon="-0.5075340">
        <ele>1067.4</ele>
        <time>2019-05-12T09:57:29Z</time>
      </trkpt>
      <trkpt lat="38.7588740" lon="-0.5074660">
        <ele>1067.8</ele>
        <time>2019-05-12T09:57:31Z</time>
      </trkpt>
      <trkpt lat="38.7589110" lon="-0.5074470">
        <ele>1067.8</ele>
        <time>2019-05-12T09:57:32Z</time>
      </trkpt>
      <trkpt lat="38.7589450" lon="-0.5074380">
        <ele>1068.2</ele>
        <time>2019-05-12T09:57:33Z</time>
      </trkpt>
      <trkpt lat="38.7590240" lon="-0.5074570">
        <ele>1069.0</ele>
        <time>2019-05-12T09:57:36Z</time>
      </trkpt>
      <trkpt lat="38.7590440" lon="-0.5074710">
        <ele>1069.6</ele>
        <time>2019-05-12T09:57:37Z</time>
      </trkpt>
      <trkpt lat="38.7590830" lon="-0.5075440">
        <ele>1070.2</ele>
        <time>2019-05-12T09:57:40Z</time>
      </trkpt>
      <trkpt lat="38.7590850" lon="-0.5075750">
        <ele>1070.6</ele>
        <time>2019-05-12T09:57:41Z</time>
      </trkpt>
      <trkpt lat="38.7590950" lon="-0.5077380">
        <ele>1071.6</ele>
        <time>2019-05-12T09:57:46Z</time>
      </trkpt>
      <trkpt lat="38.7591000" lon="-0.5077710">
        <ele>1071.6</ele>
        <time>2019-05-12T09:57:47Z</time>
      </trkpt>
      <trkpt lat="38.7591170" lon="-0.5079140">
        <ele>1072.6</ele>
        <time>2019-05-12T09:57:52Z</time>
      </trkpt>
      <trkpt lat="38.7591310" lon="-0.5079700">
        <ele>1073.0</ele>
        <time>2019-05-12T09:57:54Z</time>
      </trkpt>
      <trkpt lat="38.7591660" lon="-0.5080560">
        <ele>1073.8</ele>
        <time>2019-05-12T09:57:58Z</time>
      </trkpt>
      <trkpt lat="38.7591850" lon="-0.5081010">
        <ele>1074.6</ele>
        <time>2019-05-12T09:58:00Z</time>
      </trkpt>
      <trkpt lat="38.7592070" lon="-0.5081440">
        <ele>1074.8</ele>
        <time>2019-05-12T09:58:02Z</time>
      </trkpt>
      <trkpt lat="38.7592470" lon="-0.5082070">
        <ele>1076.2</ele>
        <time>2019-05-12T09:58:05Z</time>
      </trkpt>
      <trkpt lat="38.7592890" lon="-0.5082690">
        <ele>1077.4</ele>
        <time>2019-05-12T09:58:08Z</time>
      </trkpt>
      <trkpt lat="38.7593350" lon="-0.5083510">
        <ele>1078.6</ele>
        <time>2019-05-12T09:58:12Z</time>
      </trkpt>
      <trkpt lat="38.7593950" lon="-0.5084110">
        <ele>1079.4</ele>
        <time>2019-05-12T09:58:16Z</time>
      </trkpt>
      <trkpt lat="38.7594200" lon="-0.5084380">
        <ele>1079.6</ele>
        <time>2019-05-12T09:58:18Z</time>
      </trkpt>
      <trkpt lat="38.7594730" lon="-0.5084920">
        <ele>1080.2</ele>
        <time>2019-05-12T09:58:22Z</time>
      </trkpt>
      <trkpt lat="38.7594870" lon="-0.5085100">
        <ele>1080.6</ele>
        <time>2019-05-12T09:58:23Z</time>
      </trkpt>
      <trkpt lat="38.7594980" lon="-0.5085230">
        <ele>1081.0</ele>
        <time>2019-05-12T09:58:24Z</time>
      </trkpt>
      <trkpt lat="38.7595650" lon="-0.5085930">
        <ele>1082.0</ele>
        <time>2019-05-12T09:58:29Z</time>
      </trkpt>
      <trkpt lat="38.7595790" lon="-0.5086150">
        <ele>1082.2</ele>
        <time>2019-05-12T09:58:30Z</time>
      </trkpt>
      <trkpt lat="38.7596430" lon="-0.5086740">
        <ele>1083.2</ele>
        <time>2019-05-12T09:58:34Z</time>
      </trkpt>
      <trkpt lat="38.7596670" lon="-0.5087010">
        <ele>1083.6</ele>
        <time>2019-05-12T09:58:36Z</time>
      </trkpt>
      <trkpt lat="38.7597090" lon="-0.5087380">
        <ele>1084.2</ele>
        <time>2019-05-12T09:58:39Z</time>
      </trkpt>
      <trkpt lat="38.7597660" lon="-0.5087960">
        <ele>1085.2</ele>
        <time>2019-05-12T09:58:43Z</time>
      </trkpt>
      <trkpt lat="38.7597780" lon="-0.5088050">
        <ele>1085.6</ele>
        <time>2019-05-12T09:58:44Z</time>
      </trkpt>
      <trkpt lat="38.7598170" lon="-0.5088480">
        <ele>1086.4</ele>
        <time>2019-05-12T09:58:47Z</time>
      </trkpt>
      <trkpt lat="38.7598660" lon="-0.5089060">
        <ele>1087.2</ele>
        <time>2019-05-12T09:58:51Z</time>
      </trkpt>
      <trkpt lat="38.7598910" lon="-0.5089320">
        <ele>1087.4</ele>
        <time>2019-05-12T09:58:53Z</time>
      </trkpt>
      <trkpt lat="38.7599590" lon="-0.5089980">
        <ele>1088.8</ele>
        <time>2019-05-12T09:58:58Z</time>
      </trkpt>
      <trkpt lat="38.7599900" lon="-0.5090230">
        <ele>1089.4</ele>
        <time>2019-05-12T09:59:00Z</time>
      </trkpt>
      <trkpt lat="38.7600170" lon="-0.5090500">
        <ele>1090.0</ele>
        <time>2019-05-12T09:59:02Z</time>
      </trkpt>
      <trkpt lat="38.7600550" lon="-0.5090930">
        <ele>1091.2</ele>
        <time>2019-05-12T09:59:05Z</time>
      </trkpt>
      <trkpt lat="38.7600810" lon="-0.5091170">
        <ele>1091.6</ele>
        <time>2019-05-12T09:59:07Z</time>
      </trkpt>
      <trkpt lat="38.7601250" lon="-0.5091480">
        <ele>1092.6</ele>
        <time>2019-05-12T09:59:10Z</time>
      </trkpt>
      <trkpt lat="38.7601990" lon="-0.5091980">
        <ele>1093.8</ele>
        <time>2019-05-12T09:59:15Z</time>
      </trkpt>
      <trkpt lat="38.7602700" lon="-0.5092580">
        <ele>1094.8</ele>
        <time>2019-05-12T09:59:20Z</time>
      </trkpt>
      <trkpt lat="38.7602850" lon="-0.5092700">
        <ele>1095.2</ele>
        <time>2019-05-12T09:59:21Z</time>
      </trkpt>
      <trkpt lat="38.7603040" lon="-0.5093020">
        <ele>1096.0</ele>
        <time>2019-05-12T09:59:23Z</time>
      </trkpt>
      <trkpt lat="38.7603380" lon="-0.5094000">
        <ele>1096.8</ele>
        <time>2019-05-12T09:59:28Z</time>
      </trkpt>
      <trkpt lat="38.7603490" lon="-0.5094370">
        <ele>1097.4</ele>
        <time>2019-05-12T09:59:30Z</time>
      </trkpt>
      <trkpt lat="38.7603560" lon="-0.5095570">
        <ele>1098.0</ele>
        <time>2019-05-12T09:59:35Z</time>
      </trkpt>
      <trkpt lat="38.7603890" lon="-0.5097180">
        <ele>1098.0</ele>
        <time>2019-05-12T09:59:41Z</time>
      </trkpt>
      <trkpt lat="38.7604070" lon="-0.5097670">
        <ele>1098.6</ele>
        <time>2019-05-12T09:59:43Z</time>
      </trkpt>
      <trkpt lat="38.7604600" lon="-0.5098780">
        <ele>1099.6</ele>
        <time>2019-05-12T09:59:48Z</time>
      </trkpt>
      <trkpt lat="38.7604680" lon="-0.5099020">
        <ele>1099.6</ele>
        <time>2019-05-12T09:59:49Z</time>
      </trkpt>
      <trkpt lat="38.7605170" lon="-0.5100220">
        <ele>1100.8</ele>
        <time>2019-05-12T09:59:54Z</time>
      </trkpt>
      <trkpt lat="38.7605340" lon="-0.5100690">
        <ele>1101.2</ele>
        <time>2019-05-12T09:59:56Z</time>
      </trkpt>
      <trkpt lat="38.7606110" lon="-0.5102220">
        <ele>1102.2</ele>
        <time>2019-05-12T10:00:03Z</time>
      </trkpt>
      <trkpt lat="38.7606250" lon="-0.5102450">
        <ele>1102.2</ele>
        <time>2019-05-12T10:00:04Z</time>
      </trkpt>
      <trkpt lat="38.7607280" lon="-0.5103890">
        <ele>1103.2</ele>
        <time>2019-05-12T10:00:11Z</time>
      </trkpt>
      <trkpt lat="38.7607450" lon="-0.5104100">
        <ele>1103.4</ele>
        <time>2019-05-12T10:00:12Z</time>
      </trkpt>
      <trkpt lat="38.7608150" lon="-0.5105140">
        <ele>1104.2</ele>
        <time>2019-05-12T10:00:17Z</time>
      </trkpt>
      <trkpt lat="38.7608410" lon="-0.5105600">
        <ele>1104.8</ele>
        <time>2019-05-12T10:00:19Z</time>
      </trkpt>
      <trkpt lat="38.7609000" lon="-0.5107100">
        <ele>1105.4</ele>
        <time>2019-05-12T10:00:25Z</time>
      </trkpt>
      <trkpt lat="38.7609020" lon="-0.5107370">
        <ele>1105.4</ele>
        <time>2019-05-12T10:00:26Z</time>
      </trkpt>
      <trkpt lat="38.7609610" lon="-0.5109440">
        <ele>1106.0</ele>
        <time>2019-05-12T10:00:33Z</time>
      </trkpt>
      <trkpt lat="38.7610280" lon="-0.5111020">
        <ele>1106.0</ele>
        <time>2019-05-12T10:00:39Z</time>
      </trkpt>
      <trkpt lat="38.7610910" lon="-0.5112010">
        <ele>1106.4</ele>
        <time>2019-05-12T10:00:43Z</time>
      </trkpt>
      <trkpt lat="38.7611460" lon="-0.5112650">
        <ele>1106.6</ele>
        <time>2019-05-12T10:00:46Z</time>
      </trkpt>
      <trkpt lat="38.7612760" lon="-0.5113750">
        <ele>1107.4</ele>
        <time>2019-05-12T10:00:52Z</time>
      </trkpt>
      <trkpt lat="38.7612960" lon="-0.5113940">
        <ele>1107.6</ele>
        <time>2019-05-12T10:00:53Z</time>
      </trkpt>
      <trkpt lat="38.7614660" lon="-0.5115840">
        <ele>1108.0</ele>
        <time>2019-05-12T10:01:01Z</time>
      </trkpt>
      <trkpt lat="38.7615620" lon="-0.5117220">
        <ele>1108.4</ele>
        <time>2019-05-12T10:01:06Z</time>
      </trkpt>
      <trkpt lat="38.7616000" lon="-0.5117750">
        <ele>1108.4</ele>
        <time>2019-05-12T10:01:08Z</time>
      </trkpt>
      <trkpt lat="38.7617510" lon="-0.5120300">
        <ele>1108.0</ele>
        <time>2019-05-12T10:01:15Z</time>
      </trkpt>
      <trkpt lat="38.7618990" lon="-0.5122210">
        <ele>1109.6</ele>
        <time>2019-05-12T10:01:22Z</time>
      </trkpt>
      <trkpt lat="38.7619190" lon="-0.5122430">
        <ele>1110.0</ele>
        <time>2019-05-12T10:01:23Z</time>
      </trkpt>
      <trkpt lat="38.7619540" lon="-0.5122810">
        <ele>1111.0</ele>
        <time>2019-05-12T10:01:25Z</time>
      </trkpt>
      <trkpt lat="38.7620000" lon="-0.5123350">
        <ele>1112.0</ele>
        <time>2019-05-12T10:01:28Z</time>
      </trkpt>
      <trkpt lat="38.7620300" lon="-0.5123670">
        <ele>1113.0</ele>
        <time>2019-05-12T10:01:30Z</time>
      </trkpt>
      <trkpt lat="38.7620760" lon="-0.5124250">
        <ele>1114.0</ele>
        <time>2019-05-12T10:01:33Z</time>
      </trkpt>
      <trkpt lat="38.7621540" lon="-0.5124840">
        <ele>1115.4</ele>
        <time>2019-05-12T10:01:37Z</time>
      </trkpt>
      <trkpt lat="38.7622390" lon="-0.5125750">
        <ele>1116.6</ele>
        <time>2019-05-12T10:01:42Z</time>
      </trkpt>
      <trkpt lat="38.7622660" lon="-0.5126050">
        <ele>1117.0</ele>
        <time>2019-05-12T10:01:44Z</time>
      </trkpt>
      <trkpt lat="38.7623030" lon="-0.5126330">
        <ele>1117.8</ele>
        <time>2019-05-12T10:01:46Z</time>
      </trkpt>
      <trkpt lat="38.7623580" lon="-0.5126940">
        <ele>1118.8</ele>
        <time>2019-05-12T10:01:50Z</time>
      </trkpt>
      <trkpt lat="38.7624180" lon="-0.5127530">
        <ele>1120.0</ele>
        <time>2019-05-12T10:01:54Z</time>
      </trkpt>
      <trkpt lat="38.7624650" lon="-0.5128060">
        <ele>1121.2</ele>
        <time>2019-05-12T10:01:57Z</time>
      </trkpt>
      <trkpt lat="38.7625450" lon="-0.5129250">
        <ele>1122.4</ele>
        <time>2019-05-12T10:02:03Z</time>
      </trkpt>
      <trkpt lat="38.7625780" lon="-0.5129860">
        <ele>1123.6</ele>
        <time>2019-05-12T10:02:06Z</time>
      </trkpt>
      <trkpt lat="38.7626040" lon="-0.5130600">
        <ele>1124.0</ele>
        <time>2019-05-12T10:02:09Z</time>
      </trkpt>
      <trkpt lat="38.7626680" lon="-0.5131950">
        <ele>1124.6</ele>
        <time>2019-05-12T10:02:15Z</time>
      </trkpt>
      <trkpt lat="38.7626800" lon="-0.5132130">
        <ele>1125.0</ele>
        <time>2019-05-12T10:02:16Z</time>
      </trkpt>
      <trkpt lat="38.7627130" lon="-0.5132460">
        <ele>1125.6</ele>
        <time>2019-05-12T10:02:18Z</time>
      </trkpt>
      <trkpt lat="38.7627640" lon="-0.5132850">
        <ele>1126.8</ele>
        <time>2019-05-12T10:02:21Z</time>
      </trkpt>
      <trkpt lat="38.7628030" lon="-0.5133040">
        <ele>1127.2</ele>
        <time>2019-05-12T10:02:23Z</time>
      </trkpt>
      <trkpt lat="38.7628410" lon="-0.5133240">
        <ele>1128.0</ele>
        <time>2019-05-12T10:02:25Z</time>
      </trkpt>
      <trkpt lat="38.7629110" lon="-0.5133680">
        <ele>1129.2</ele>
        <time>2019-05-12T10:02:29Z</time>
      </trkpt>
      <trkpt lat="38.7629260" lon="-0.5133860">
        <ele>1129.4</ele>
        <time>2019-05-12T10:02:30Z</time>
      </trkpt>
      <trkpt lat="38.7629910" lon="-0.5134510">
        <ele>1130.4</ele>
        <time>2019-05-12T10:02:34Z</time>
      </trkpt>
      <trkpt lat="38.7630190" lon="-0.5134940">
        <ele>1130.6</ele>
        <time>2019-05-12T10:02:36Z</time>
      </trkpt>
      <trkpt lat="38.7631470" lon="-0.5136610">
        <ele>1131.0</ele>
        <time>2019-05-12T10:02:43Z</time>
      </trkpt>
      <trkpt lat="38.7631650" lon="-0.5136830">
        <ele>1131.4</ele>
        <time>2019-05-12T10:02:44Z</time>
      </trkpt>
      <trkpt lat="38.7632990" lon="-0.5137810">
        <ele>1132.0</ele>
        <time>2019-05-12T10:02:50Z</time>
      </trkpt>
      <trkpt lat="38.7634330" lon="-0.5138610">
        <ele>1132.4</ele>
        <time>2019-05-12T10:02:56Z</time>
      </trkpt>
      <trkpt lat="38.7634770" lon="-0.5138890">
        <ele>1133.2</ele>
        <time>2019-05-12T10:02:58Z</time>
      </trkpt>
      <trkpt lat="38.7635980" lon="-0.5139550">
        <ele>1133.6</ele>
        <time>2019-05-12T10:03:03Z</time>
      </trkpt>
      <trkpt lat="38.7636640" lon="-0.5139740">
        <ele>1134.4</ele>
        <time>2019-05-12T10:03:06Z</time>
      </trkpt>
      <trkpt lat="38.7637030" lon="-0.5139870">
        <ele>1134.6</ele>
        <time>2019-05-12T10:03:08Z</time>
      </trkpt>
      <trkpt lat="38.7637430" lon="-0.5139940">
        <ele>1136.2</ele>
        <time>2019-05-12T10:03:10Z</time>
      </trkpt>
      <trkpt lat="38.7638460" lon="-0.5140020">
        <ele>1137.2</ele>
        <time>2019-05-12T10:03:15Z</time>
      </trkpt>
      <trkpt lat="38.7639230" lon="-0.5139900">
        <ele>1138.4</ele>
        <time>2019-05-12T10:03:19Z</time>
      </trkpt>
      <trkpt lat="38.7639760" lon="-0.5139770">
        <ele>1139.2</ele>
        <time>2019-05-12T10:03:22Z</time>
      </trkpt>
      <trkpt lat="38.7640110" lon="-0.5139610">
        <ele>1139.6</ele>
        <time>2019-05-12T10:03:24Z</time>
      </trkpt>
      <trkpt lat="38.7641030" lon="-0.5139130">
        <ele>1140.6</ele>
        <time>2019-05-12T10:03:29Z</time>
      </trkpt>
      <trkpt lat="38.7641310" lon="-0.5138790">
        <ele>1141.0</ele>
        <time>2019-05-12T10:03:31Z</time>
      </trkpt>
      <trkpt lat="38.7641360" lon="-0.5138540">
        <ele>1141.2</ele>
        <time>2019-05-12T10:03:32Z</time>
      </trkpt>
      <trkpt lat="38.7641470" lon="-0.5138030">
        <ele>1142.0</ele>
        <time>2019-05-12T10:03:34Z</time>
      </trkpt>
      <trkpt lat="38.7641420" lon="-0.5137520">
        <ele>1142.2</ele>
        <time>2019-05-12T10:03:36Z</time>
      </trkpt>
      <trkpt lat="38.7641030" lon="-0.5136930">
        <ele>1143.2</ele>
        <time>2019-05-12T10:03:39Z</time>
      </trkpt>
      <trkpt lat="38.7640690" lon="-0.5136560">
        <ele>1143.6</ele>
        <time>2019-05-12T10:03:41Z</time>
      </trkpt>
      <trkpt lat="38.7639940" lon="-0.5135960">
        <ele>1144.2</ele>
        <time>2019-05-12T10:03:45Z</time>
      </trkpt>
      <trkpt lat="38.7639630" lon="-0.5135610">
        <ele>1144.8</ele>
        <time>2019-05-12T10:03:47Z</time>
      </trkpt>
      <trkpt lat="38.7639350" lon="-0.5135230">
        <ele>1145.2</ele>
        <time>2019-05-12T10:03:49Z</time>
      </trkpt>
      <trkpt lat="38.7638930" lon="-0.5134660">
        <ele>1146.4</ele>
        <time>2019-05-12T10:03:52Z</time>
      </trkpt>
      <trkpt lat="38.7638490" lon="-0.5133900">
        <ele>1147.4</ele>
        <time>2019-05-12T10:03:56Z</time>
      </trkpt>
      <trkpt lat="38.7638410" lon="-0.5133700">
        <ele>1147.4</ele>
        <time>2019-05-12T10:03:57Z</time>
      </trkpt>
      <trkpt lat="38.7638090" lon="-0.5132420">
        <ele>1148.6</ele>
        <time>2019-05-12T10:04:02Z</time>
      </trkpt>
      <trkpt lat="38.7638040" lon="-0.5132210">
        <ele>1148.8</ele>
        <time>2019-05-12T10:04:03Z</time>
      </trkpt>
      <trkpt lat="38.7637750" lon="-0.5130250">
        <ele>1149.6</ele>
        <time>2019-05-12T10:04:10Z</time>
      </trkpt>
      <trkpt lat="38.7637750" lon="-0.5129980">
        <ele>1149.8</ele>
        <time>2019-05-12T10:04:11Z</time>
      </trkpt>
      <trkpt lat="38.7637440" lon="-0.5127760">
        <ele>1150.8</ele>
        <time>2019-05-12T10:04:19Z</time>
      </trkpt>
      <trkpt lat="38.7636850" lon="-0.5126460">
        <ele>1152.0</ele>
        <time>2019-05-12T10:04:24Z</time>
      </trkpt>
      <trkpt lat="38.7636690" lon="-0.5126320">
        <ele>1152.4</ele>
        <time>2019-05-12T10:04:25Z</time>
      </trkpt>
      <trkpt lat="38.7636280" lon="-0.5126000">
        <ele>1152.8</ele>
        <time>2019-05-12T10:04:27Z</time>
      </trkpt>
      <trkpt lat="38.7635340" lon="-0.5125820">
        <ele>1153.0</ele>
        <time>2019-05-12T10:04:31Z</time>
      </trkpt>
      <trkpt lat="38.7633620" lon="-0.5125470">
        <ele>1154.0</ele>
        <time>2019-05-12T10:04:38Z</time>
      </trkpt>
      <trkpt lat="38.7633370" lon="-0.5125390">
        <ele>1154.4</ele>
        <time>2019-05-12T10:04:39Z</time>
      </trkpt>
      <trkpt lat="38.7632220" lon="-0.5124320">
        <ele>1155.4</ele>
        <time>2019-05-12T10:04:45Z</time>
      </trkpt>
      <trkpt lat="38.7632080" lon="-0.5124100">
        <ele>1156.0</ele>
        <time>2019-05-12T10:04:46Z</time>
      </trkpt>
      <trkpt lat="38.7631650" lon="-0.5123160">
        <ele>1156.8</ele>
        <time>2019-05-12T10:04:49Z</time>
      </trkpt>
      <trkpt lat="38.7631310" lon="-0.5122020">
        <ele>1158.0</ele>
        <time>2019-05-12T10:04:53Z</time>
      </trkpt>
      <trkpt lat="38.7631180" lon="-0.5121440">
        <ele>1158.6</ele>
        <time>2019-05-12T10:04:55Z</time>
      </trkpt>
      <trkpt lat="38.7631120" lon="-0.5121170">
        <ele>1159.0</ele>
        <time>2019-05-12T10:04:56Z</time>
      </trkpt>
      <trkpt lat="38.7630960" lon="-0.5120320">
        <ele>1160.2</ele>
        <time>2019-05-12T10:04:59Z</time>
      </trkpt>
      <trkpt lat="38.7630860" lon="-0.5119140">
        <ele>1161.4</ele>
        <time>2019-05-12T10:05:03Z</time>
      </trkpt>
      <trkpt lat="38.7630850" lon="-0.5118040">
        <ele>1162.4</ele>
        <time>2019-05-12T10:05:07Z</time>
      </trkpt>
      <trkpt lat="38.7630870" lon="-0.5116940">
        <ele>1163.8</ele>
        <time>2019-05-12T10:05:11Z</time>
      </trkpt>
      <trkpt lat="38.7631190" lon="-0.5115990">
        <ele>1165.2</ele>
        <time>2019-05-12T10:05:15Z</time>
      </trkpt>
      <trkpt lat="38.7631710" lon="-0.5114790">
        <ele>1166.2</ele>
        <time>2019-05-12T10:05:20Z</time>
      </trkpt>
      <trkpt lat="38.7631900" lon="-0.5114300">
        <ele>1166.4</ele>
        <time>2019-05-12T10:05:22Z</time>
      </trkpt>
      <trkpt lat="38.7632200" lon="-0.5113660">
        <ele>1167.4</ele>
        <time>2019-05-12T10:05:25Z</time>
      </trkpt>
      <trkpt lat="38.7632570" lon="-0.5113000">
        <ele>1168.0</ele>
        <time>2019-05-12T10:05:28Z</time>
      </trkpt>
      <trkpt lat="38.7632780" lon="-0.5112590">
        <ele>1168.6</ele>
        <time>2019-05-12T10:05:30Z</time>
      </trkpt>
      <trkpt lat="38.7633270" lon="-0.5111870">
        <ele>1169.8</ele>
        <time>2019-05-12T10:05:34Z</time>
      </trkpt>
      <trkpt lat="38.7633680" lon="-0.5111390">
        <ele>1170.8</ele>
        <time>2019-05-12T10:05:37Z</time>
      </trkpt>
      <trkpt lat="38.7634110" lon="-0.5111020">
        <ele>1172.0</ele>
        <time>2019-05-12T10:05:40Z</time>
      </trkpt>
      <trkpt lat="38.7634540" lon="-0.5110710">
        <ele>1173.0</ele>
        <time>2019-05-12T10:05:43Z</time>
      </trkpt>
      <trkpt lat="38.7634850" lon="-0.5110530">
        <ele>1173.8</ele>
        <time>2019-05-12T10:05:45Z</time>
      </trkpt>
      <trkpt lat="38.7635010" lon="-0.5110480">
        <ele>1174.2</ele>
        <time>2019-05-12T10:05:46Z</time>
      </trkpt>
      <trkpt lat="38.7635750" lon="-0.5110170">
        <ele>1175.6</ele>
        <time>2019-05-12T10:05:51Z</time>
      </trkpt>
      <trkpt lat="38.7635920" lon="-0.5110080">
        <ele>1176.0</ele>
        <time>2019-05-12T10:05:53Z</time>
      </trkpt>
      <trkpt lat="38.7636460" lon="-0.5109870">
        <ele>1176.6</ele>
        <time>2019-05-12T10:05:56Z</time>
      </trkpt>
      <trkpt lat="38.7637340" lon="-0.5109620">
        <ele>1177.4</ele>
        <time>2019-05-12T10:06:01Z</time>
      </trkpt>
      <trkpt lat="38.7637500" lon="-0.5109550">
        <ele>1177.8</ele>
        <time>2019-05-12T10:06:02Z</time>
      </trkpt>
      <trkpt lat="38.7638460" lon="-0.5109190">
        <ele>1179.0</ele>
        <time>2019-05-12T10:06:07Z</time>
      </trkpt>
      <trkpt lat="38.7638660" lon="-0.5109140">
        <ele>1179.2</ele>
        <time>2019-05-12T10:06:08Z</time>
      </trkpt>
      <trkpt lat="38.7640000" lon="-0.5108630">
        <ele>1180.2</ele>
        <time>2019-05-12T10:06:14Z</time>
      </trkpt>
      <trkpt lat="38.7640220" lon="-0.5108530">
        <ele>1180.2</ele>
        <time>2019-05-12T10:06:15Z</time>
      </trkpt>
      <trkpt lat="38.7641490" lon="-0.5107480">
        <ele>1180.4</ele>
        <time>2019-05-12T10:06:22Z</time>
      </trkpt>
      <trkpt lat="38.7642240" lon="-0.5106580">
        <ele>1180.8</ele>
        <time>2019-05-12T10:06:27Z</time>
      </trkpt>
      <trkpt lat="38.7643090" lon="-0.5105080">
        <ele>1181.2</ele>
        <time>2019-05-12T10:06:33Z</time>
      </trkpt>
      <trkpt lat="38.7643780" lon="-0.5102720">
        <ele>1181.0</ele>
        <time>2019-05-12T10:06:40Z</time>
      </trkpt>
      <trkpt lat="38.7644060" lon="-0.5102170">
        <ele>1181.2</ele>
        <time>2019-05-12T10:06:42Z</time>
      </trkpt>
      <trkpt lat="38.7644630" lon="-0.5101180">
        <ele>1182.2</ele>
        <time>2019-05-12T10:06:46Z</time>
      </trkpt>
      <trkpt lat="38.7644820" lon="-0.5100930">
        <ele>1182.4</ele>
        <time>2019-05-12T10:06:47Z</time>
      </trkpt>
      <trkpt lat="38.7646010" lon="-0.5099810">
        <ele>1182.8</ele>
        <time>2019-05-12T10:06:53Z</time>
      </trkpt>
      <trkpt lat="38.7646620" lon="-0.5099210">
        <ele>1183.4</ele>
        <time>2019-05-12T10:06:56Z</time>
      </trkpt>
      <trkpt lat="38.7647810" lon="-0.5097790">
        <ele>1184.4</ele>
        <time>2019-05-12T10:07:02Z</time>
      </trkpt>
      <trkpt lat="38.7647990" lon="-0.5097520">
        <ele>1184.6</ele>
        <time>2019-05-12T10:07:03Z</time>
      </trkpt>
      <trkpt lat="38.7648730" lon="-0.5096500">
        <ele>1185.8</ele>
        <time>2019-05-12T10:07:07Z</time>
      </trkpt>
      <trkpt lat="38.7649220" lon="-0.5095790">
        <ele>1186.4</ele>
        <time>2019-05-12T10:07:10Z</time>
      </trkpt>
      <trkpt lat="38.7649550" lon="-0.5095350">
        <ele>1187.0</ele>
        <time>2019-05-12T10:07:12Z</time>
      </trkpt>
      <trkpt lat="38.7649970" lon="-0.5094750">
        <ele>1188.2</ele>
        <time>2019-05-12T10:07:15Z</time>
      </trkpt>
      <trkpt lat="38.7650290" lon="-0.5094340">
        <ele>1188.4</ele>
        <time>2019-05-12T10:07:17Z</time>
      </trkpt>
      <trkpt lat="38.7650810" lon="-0.5093700">
        <ele>1189.8</ele>
        <time>2019-05-12T10:07:20Z</time>
      </trkpt>
      <trkpt lat="38.7651260" lon="-0.5093230">
        <ele>1190.8</ele>
        <time>2019-05-12T10:07:23Z</time>
      </trkpt>
      <trkpt lat="38.7651840" lon="-0.5092710">
        <ele>1192.0</ele>
        <time>2019-05-12T10:07:27Z</time>
      </trkpt>
      <trkpt lat="38.7652040" lon="-0.5092750">
        <ele>1192.2</ele>
        <time>2019-05-12T10:07:28Z</time>
      </trkpt>
      <trkpt lat="38.7652340" lon="-0.5093240">
        <ele>1193.0</ele>
        <time>2019-05-12T10:07:31Z</time>
      </trkpt>
      <trkpt lat="38.7652340" lon="-0.5093490">
        <ele>1193.4</ele>
        <time>2019-05-12T10:07:32Z</time>
      </trkpt>
      <trkpt lat="38.7652290" lon="-0.5094010">
        <ele>1194.0</ele>
        <time>2019-05-12T10:07:34Z</time>
      </trkpt>
      <trkpt lat="38.7652280" lon="-0.5094280">
        <ele>1194.2</ele>
        <time>2019-05-12T10:07:35Z</time>
      </trkpt>
      <trkpt lat="38.7652250" lon="-0.5095000">
        <ele>1194.8</ele>
        <time>2019-05-12T10:07:38Z</time>
      </trkpt>
      <trkpt lat="38.7652340" lon="-0.5095430">
        <ele>1195.4</ele>
        <time>2019-05-12T10:07:40Z</time>
      </trkpt>
      <trkpt lat="38.7652440" lon="-0.5096070">
        <ele>1196.0</ele>
        <time>2019-05-12T10:07:43Z</time>
      </trkpt>
      <trkpt lat="38.7652550" lon="-0.5096490">
        <ele>1196.6</ele>
        <time>2019-05-12T10:07:45Z</time>
      </trkpt>
      <trkpt lat="38.7652650" lon="-0.5096930">
        <ele>1197.8</ele>
        <time>2019-05-12T10:07:47Z</time>
      </trkpt>
      <trkpt lat="38.7652680" lon="-0.5097140">
        <ele>1198.2</ele>
        <time>2019-05-12T10:07:48Z</time>
      </trkpt>
      <trkpt lat="38.7652730" lon="-0.5097590">
        <ele>1198.8</ele>
        <time>2019-05-12T10:07:50Z</time>
      </trkpt>
      <trkpt lat="38.7652810" lon="-0.5098000">
        <ele>1199.2</ele>
        <time>2019-05-12T10:07:52Z</time>
      </trkpt>
      <trkpt lat="38.7652920" lon="-0.5098360">
        <ele>1199.4</ele>
        <time>2019-05-12T10:07:53Z</time>
      </trkpt>
      <trkpt lat="38.7652940" lon="-0.5098630">
        <ele>1200.0</ele>
        <time>2019-05-12T10:07:55Z</time>
      </trkpt>
      <trkpt lat="38.7653020" lon="-0.5099230">
        <ele>1201.0</ele>
        <time>2019-05-12T10:07:58Z</time>
      </trkpt>
      <trkpt lat="38.7653030" lon="-0.5099450">
        <ele>1201.4</ele>
        <time>2019-05-12T10:07:59Z</time>
      </trkpt>
      <trkpt lat="38.7653230" lon="-0.5100440">
        <ele>1202.4</ele>
        <time>2019-05-12T10:08:04Z</time>
      </trkpt>
      <trkpt lat="38.7653520" lon="-0.5101230">
        <ele>1203.6</ele>
        <time>2019-05-12T10:08:08Z</time>
      </trkpt>
      <trkpt lat="38.7653750" lon="-0.5101620">
        <ele>1204.4</ele>
        <time>2019-05-12T10:08:10Z</time>
      </trkpt>
      <trkpt lat="38.7653850" lon="-0.5101810">
        <ele>1204.6</ele>
        <time>2019-05-12T10:08:11Z</time>
      </trkpt>
      <trkpt lat="38.7654400" lon="-0.5102420">
        <ele>1205.8</ele>
        <time>2019-05-12T10:08:15Z</time>
      </trkpt>
      <trkpt lat="38.7655050" lon="-0.5102740">
        <ele>1207.0</ele>
        <time>2019-05-12T10:08:19Z</time>
      </trkpt>
      <trkpt lat="38.7655400" lon="-0.5102790">
        <ele>1207.4</ele>
        <time>2019-05-12T10:08:21Z</time>
      </trkpt>
      <trkpt lat="38.7656100" lon="-0.5102680">
        <ele>1208.0</ele>
        <time>2019-05-12T10:08:25Z</time>
      </trkpt>
      <trkpt lat="38.7656420" lon="-0.5102520">
        <ele>1208.6</ele>
        <time>2019-05-12T10:08:27Z</time>
      </trkpt>
      <trkpt lat="38.7656930" lon="-0.5102440">
        <ele>1209.0</ele>
        <time>2019-05-12T10:08:30Z</time>
      </trkpt>
      <trkpt lat="38.7657300" lon="-0.5102470">
        <ele>1209.8</ele>
        <time>2019-05-12T10:08:32Z</time>
      </trkpt>
      <trkpt lat="38.7657620" lon="-0.5102470">
        <ele>1210.0</ele>
        <time>2019-05-12T10:08:34Z</time>
      </trkpt>
      <trkpt lat="38.7658310" lon="-0.5102500">
        <ele>1211.2</ele>
        <time>2019-05-12T10:08:38Z</time>
      </trkpt>
      <trkpt lat="38.7658980" lon="-0.5102660">
        <ele>1212.4</ele>
        <time>2019-05-12T10:08:42Z</time>
      </trkpt>
      <trkpt lat="38.7659840" lon="-0.5103160">
        <ele>1213.6</ele>
        <time>2019-05-12T10:08:47Z</time>
      </trkpt>
      <trkpt lat="38.7660740" lon="-0.5104320">
        <ele>1214.8</ele>
        <time>2019-05-12T10:08:53Z</time>
      </trkpt>
      <trkpt lat="38.7660970" lon="-0.5104810">
        <ele>1214.8</ele>
        <time>2019-05-12T10:08:56Z</time>
      </trkpt>
      <trkpt lat="38.7661850" lon="-0.5105540">
        <ele>1215.8</ele>
        <time>2019-05-12T10:09:01Z</time>
      </trkpt>
      <trkpt lat="38.7662370" lon="-0.5105550">
        <ele>1217.0</ele>
        <time>2019-05-12T10:09:04Z</time>
      </trkpt>
      <trkpt lat="38.7662890" lon="-0.5105260">
        <ele>1217.8</ele>
        <time>2019-05-12T10:09:07Z</time>
      </trkpt>
      <trkpt lat="38.7663220" lon="-0.5104990">
        <ele>1218.2</ele>
        <time>2019-05-12T10:09:09Z</time>
      </trkpt>
      <trkpt lat="38.7663670" lon="-0.5104170">
        <ele>1219.6</ele>
        <time>2019-05-12T10:09:13Z</time>
      </trkpt>
      <trkpt lat="38.7663690" lon="-0.5102960">
        <ele>1220.0</ele>
        <time>2019-05-12T10:09:18Z</time>
      </trkpt>
      <trkpt lat="38.7663630" lon="-0.5102690">
        <ele>1220.2</ele>
        <time>2019-05-12T10:09:19Z</time>
      </trkpt>
      <trkpt lat="38.7663550" lon="-0.5102170">
        <ele>1221.0</ele>
        <time>2019-05-12T10:09:21Z</time>
      </trkpt>
      <trkpt lat="38.7663370" lon="-0.5101390">
        <ele>1222.0</ele>
        <time>2019-05-12T10:09:24Z</time>
      </trkpt>
      <trkpt lat="38.7663320" lon="-0.5100900">
        <ele>1222.6</ele>
        <time>2019-05-12T10:09:26Z</time>
      </trkpt>
      <trkpt lat="38.7663370" lon="-0.5100470">
        <ele>1223.0</ele>
        <time>2019-05-12T10:09:28Z</time>
      </trkpt>
      <trkpt lat="38.7663390" lon="-0.5100020">
        <ele>1223.2</ele>
        <time>2019-05-12T10:09:30Z</time>
      </trkpt>
      <trkpt lat="38.7663400" lon="-0.5099560">
        <ele>1223.2</ele>
        <time>2019-05-12T10:09:32Z</time>
      </trkpt>
      <trkpt lat="38.7663650" lon="-0.5098390">
        <ele>1224.4</ele>
        <time>2019-05-12T10:09:38Z</time>
      </trkpt>
      <trkpt lat="38.7663660" lon="-0.5096990">
        <ele>1225.0</ele>
        <time>2019-05-12T10:09:44Z</time>
      </trkpt>
      <trkpt lat="38.7663660" lon="-0.5096510">
        <ele>1225.4</ele>
        <time>2019-05-12T10:09:46Z</time>
      </trkpt>
      <trkpt lat="38.7663720" lon="-0.5095570">
        <ele>1226.0</ele>
        <time>2019-05-12T10:09:50Z</time>
      </trkpt>
      <trkpt lat="38.7663720" lon="-0.5095320">
        <ele>1226.6</ele>
        <time>2019-05-12T10:09:51Z</time>
      </trkpt>
      <trkpt lat="38.7663750" lon="-0.5094090">
        <ele>1227.0</ele>
        <time>2019-05-12T10:09:56Z</time>
      </trkpt>
      <trkpt lat="38.7664050" lon="-0.5092820">
        <ele>1227.2</ele>
        <time>2019-05-12T10:10:01Z</time>
      </trkpt>
      <trkpt lat="38.7664600" lon="-0.5090760">
        <ele>1227.4</ele>
        <time>2019-05-12T10:10:07Z</time>
      </trkpt>
      <trkpt lat="38.7665150" lon="-0.5088960">
        <ele>1227.2</ele>
        <time>2019-05-12T10:10:12Z</time>
      </trkpt>
      <trkpt lat="38.7665830" lon="-0.5086790">
        <ele>1227.4</ele>
        <time>2019-05-12T10:10:18Z</time>
      </trkpt>
      <trkpt lat="38.7666260" lon="-0.5085290">
        <ele>1227.8</ele>
        <time>2019-05-12T10:10:22Z</time>
      </trkpt>
      <trkpt lat="38.7666680" lon="-0.5083800">
        <ele>1228.0</ele>
        <time>2019-05-12T10:10:26Z</time>
      </trkpt>
      <trkpt lat="38.7667540" lon="-0.5080770">
        <ele>1228.0</ele>
        <time>2019-05-12T10:10:34Z</time>
      </trkpt>
      <trkpt lat="38.7668230" lon="-0.5077340">
        <ele>1228.4</ele>
        <time>2019-05-12T10:10:43Z</time>
      </trkpt>
      <trkpt lat="38.7668690" lon="-0.5075020">
        <ele>1228.2</ele>
        <time>2019-05-12T10:10:49Z</time>
      </trkpt>
      <trkpt lat="38.7669230" lon="-0.5071790">
        <ele>1227.8</ele>
        <time>2019-05-12T10:10:57Z</time>
      </trkpt>
      <trkpt lat="38.7669540" lon="-0.5068740">
        <ele>1227.0</ele>
        <time>2019-05-12T10:11:03Z</time>
      </trkpt>
      <trkpt lat="38.7669630" lon="-0.5067550">
        <ele>1226.8</ele>
        <time>2019-05-12T10:11:05Z</time>
      </trkpt>
      <trkpt lat="38.7669790" lon="-0.5065460">
        <ele>1225.8</ele>
        <time>2019-05-12T10:11:08Z</time>
      </trkpt>
      <trkpt lat="38.7669840" lon="-0.5064640">
        <ele>1225.6</ele>
        <time>2019-05-12T10:11:09Z</time>
      </trkpt>
      <trkpt lat="38.7669940" lon="-0.5062850">
        <ele>1224.8</ele>
        <time>2019-05-12T10:11:11Z</time>
      </trkpt>
      <trkpt lat="38.7669940" lon="-0.5061890">
        <ele>1224.2</ele>
        <time>2019-05-12T10:11:12Z</time>
      </trkpt>
      <trkpt lat="38.7669920" lon="-0.5060910">
        <ele>1223.6</ele>
        <time>2019-05-12T10:11:13Z</time>
      </trkpt>
      <trkpt lat="38.7669880" lon="-0.5059900">
        <ele>1223.0</ele>
        <time>2019-05-12T10:11:14Z</time>
      </trkpt>
      <trkpt lat="38.7669710" lon="-0.5057690">
        <ele>1221.4</ele>
        <time>2019-05-12T10:11:16Z</time>
      </trkpt>
      <trkpt lat="38.7669470" lon="-0.5055340">
        <ele>1219.8</ele>
        <time>2019-05-12T10:11:18Z</time>
      </trkpt>
      <trkpt lat="38.7669280" lon="-0.5052900">
        <ele>1218.4</ele>
        <time>2019-05-12T10:11:20Z</time>
      </trkpt>
      <trkpt lat="38.7669350" lon="-0.5050460">
        <ele>1216.4</ele>
        <time>2019-05-12T10:11:22Z</time>
      </trkpt>
      <trkpt lat="38.7669540" lon="-0.5049330">
        <ele>1215.4</ele>
        <time>2019-05-12T10:11:23Z</time>
      </trkpt>
      <trkpt lat="38.7669800" lon="-0.5048210">
        <ele>1215.0</ele>
        <time>2019-05-12T10:11:24Z</time>
      </trkpt>
      <trkpt lat="38.7670370" lon="-0.5045850">
        <ele>1213.8</ele>
        <time>2019-05-12T10:11:26Z</time>
      </trkpt>
      <trkpt lat="38.7671190" lon="-0.5043380">
        <ele>1211.8</ele>
        <time>2019-05-12T10:11:28Z</time>
      </trkpt>
      <trkpt lat="38.7672240" lon="-0.5040850">
        <ele>1209.6</ele>
        <time>2019-05-12T10:11:30Z</time>
      </trkpt>
      <trkpt lat="38.7672810" lon="-0.5039610">
        <ele>1207.4</ele>
        <time>2019-05-12T10:11:31Z</time>
      </trkpt>
      <trkpt lat="38.7673980" lon="-0.5037360">
        <ele>1206.2</ele>
        <time>2019-05-12T10:11:33Z</time>
      </trkpt>
      <trkpt lat="38.7675660" lon="-0.5035270">
        <ele>1206.4</ele>
        <time>2019-05-12T10:11:36Z</time>
      </trkpt>
      <trkpt lat="38.7676260" lon="-0.5034780">
        <ele>1206.6</ele>
        <time>2019-05-12T10:11:37Z</time>
      </trkpt>
      <trkpt lat="38.7677630" lon="-0.5034290">
        <ele>1205.6</ele>
        <time>2019-05-12T10:11:39Z</time>
      </trkpt>
      <trkpt lat="38.7678330" lon="-0.5034270">
        <ele>1204.8</ele>
        <time>2019-05-12T10:11:40Z</time>
      </trkpt>
      <trkpt lat="38.7680070" lon="-0.5034280">
        <ele>1204.6</ele>
        <time>2019-05-12T10:11:43Z</time>
      </trkpt>
      <trkpt lat="38.7680580" lon="-0.5034150">
        <ele>1205.8</ele>
        <time>2019-05-12T10:11:44Z</time>
      </trkpt>
      <trkpt lat="38.7681430" lon="-0.5033430">
        <ele>1206.6</ele>
        <time>2019-05-12T10:11:46Z</time>
      </trkpt>
      <trkpt lat="38.7682460" lon="-0.5031280">
        <ele>1205.8</ele>
        <time>2019-05-12T10:11:49Z</time>
      </trkpt>
      <trkpt lat="38.7682810" lon="-0.5030370">
        <ele>1205.0</ele>
        <time>2019-05-12T10:11:50Z</time>
      </trkpt>
      <trkpt lat="38.7683210" lon="-0.5029470">
        <ele>1203.8</ele>
        <time>2019-05-12T10:11:51Z</time>
      </trkpt>
      <trkpt lat="38.7683650" lon="-0.5028630">
        <ele>1202.6</ele>
        <time>2019-05-12T10:11:52Z</time>
      </trkpt>
      <trkpt lat="38.7684070" lon="-0.5027890">
        <ele>1201.8</ele>
        <time>2019-05-12T10:11:53Z</time>
      </trkpt>
      <trkpt lat="38.7684480" lon="-0.5027220">
        <ele>1201.4</ele>
        <time>2019-05-12T10:11:54Z</time>
      </trkpt>
      <trkpt lat="38.7685100" lon="-0.5026160">
        <ele>1202.6</ele>
        <time>2019-05-12T10:11:56Z</time>
      </trkpt>
      <trkpt lat="38.7685320" lon="-0.5025770">
        <ele>1204.0</ele>
        <time>2019-05-12T10:11:57Z</time>
      </trkpt>
      <trkpt lat="38.7685690" lon="-0.5025190">
        <ele>1205.4</ele>
        <time>2019-05-12T10:11:59Z</time>
      </trkpt>
      <trkpt lat="38.7686120" lon="-0.5024490">
        <ele>1206.6</ele>
        <time>2019-05-12T10:12:02Z</time>
      </trkpt>
      <trkpt lat="38.7686550" lon="-0.5023090">
        <ele>1207.8</ele>
        <time>2019-05-12T10:12:07Z</time>
      </trkpt>
      <trkpt lat="38.7686610" lon="-0.5022790">
        <ele>1208.4</ele>
        <time>2019-05-12T10:12:08Z</time>
      </trkpt>
      <trkpt lat="38.7686640" lon="-0.5022480">
        <ele>1208.8</ele>
        <time>2019-05-12T10:12:09Z</time>
      </trkpt>
      <trkpt lat="38.7686640" lon="-0.5020910">
        <ele>1210.0</ele>
        <time>2019-05-12T10:12:14Z</time>
      </trkpt>
      <trkpt lat="38.7686600" lon="-0.5020010">
        <ele>1211.2</ele>
        <time>2019-05-12T10:12:17Z</time>
      </trkpt>
      <trkpt lat="38.7686620" lon="-0.5018780">
        <ele>1210.6</ele>
        <time>2019-05-12T10:12:21Z</time>
      </trkpt>
      <trkpt lat="38.7686620" lon="-0.5017850">
        <ele>1212.6</ele>
        <time>2019-05-12T10:12:24Z</time>
      </trkpt>
      <trkpt lat="38.7686460" lon="-0.5016580">
        <ele>1212.8</ele>
        <time>2019-05-12T10:12:28Z</time>
      </trkpt>
      <trkpt lat="38.7686330" lon="-0.5015070">
        <ele>1213.4</ele>
        <time>2019-05-12T10:12:33Z</time>
      </trkpt>
      <trkpt lat="38.7686310" lon="-0.5014770">
        <ele>1213.6</ele>
        <time>2019-05-12T10:12:34Z</time>
      </trkpt>
      <trkpt lat="38.7685920" lon="-0.5012810">
        <ele>1214.2</ele>
        <time>2019-05-12T10:12:41Z</time>
      </trkpt>
      <trkpt lat="38.7685820" lon="-0.5012220">
        <ele>1214.8</ele>
        <time>2019-05-12T10:12:43Z</time>
      </trkpt>
      <trkpt lat="38.7685920" lon="-0.5011110">
        <ele>1215.8</ele>
        <time>2019-05-12T10:12:47Z</time>
      </trkpt>
      <trkpt lat="38.7686050" lon="-0.5010900">
        <ele>1216.2</ele>
        <time>2019-05-12T10:12:48Z</time>
      </trkpt>
      <trkpt lat="38.7686610" lon="-0.5010730">
        <ele>1217.0</ele>
        <time>2019-05-12T10:12:51Z</time>
      </trkpt>
      <trkpt lat="38.7687130" lon="-0.5010990">
        <ele>1218.0</ele>
        <time>2019-05-12T10:12:54Z</time>
      </trkpt>
      <trkpt lat="38.7687500" lon="-0.5011210">
        <ele>1218.2</ele>
        <time>2019-05-12T10:12:56Z</time>
      </trkpt>
      <trkpt lat="38.7688020" lon="-0.5011660">
        <ele>1219.0</ele>
        <time>2019-05-12T10:12:59Z</time>
      </trkpt>
      <trkpt lat="38.7688360" lon="-0.5011950">
        <ele>1219.6</ele>
        <time>2019-05-12T10:13:01Z</time>
      </trkpt>
      <trkpt lat="38.7688780" lon="-0.5012160">
        <ele>1220.0</ele>
        <time>2019-05-12T10:13:03Z</time>
      </trkpt>
      <trkpt lat="38.7689000" lon="-0.5012220">
        <ele>1220.2</ele>
        <time>2019-05-12T10:13:04Z</time>
      </trkpt>
      <trkpt lat="38.7689450" lon="-0.5012250">
        <ele>1220.4</ele>
        <time>2019-05-12T10:13:06Z</time>
      </trkpt>
      <trkpt lat="38.7689850" lon="-0.5011970">
        <ele>1220.6</ele>
        <time>2019-05-12T10:13:08Z</time>
      </trkpt>
      <trkpt lat="38.7690330" lon="-0.5010940">
        <ele>1221.6</ele>
        <time>2019-05-12T10:13:12Z</time>
      </trkpt>
      <trkpt lat="38.7690380" lon="-0.5010650">
        <ele>1221.6</ele>
        <time>2019-05-12T10:13:13Z</time>
      </trkpt>
      <trkpt lat="38.7690400" lon="-0.5010090">
        <ele>1222.2</ele>
        <time>2019-05-12T10:13:15Z</time>
      </trkpt>
      <trkpt lat="38.7690370" lon="-0.5009830">
        <ele>1222.8</ele>
        <time>2019-05-12T10:13:16Z</time>
      </trkpt>
      <trkpt lat="38.7690220" lon="-0.5009030">
        <ele>1223.2</ele>
        <time>2019-05-12T10:13:19Z</time>
      </trkpt>
      <trkpt lat="38.7690110" lon="-0.5008190">
        <ele>1223.8</ele>
        <time>2019-05-12T10:13:22Z</time>
      </trkpt>
      <trkpt lat="38.7690030" lon="-0.5007120">
        <ele>1224.8</ele>
        <time>2019-05-12T10:13:26Z</time>
      </trkpt>
      <trkpt lat="38.7690150" lon="-0.5005510">
        <ele>1226.2</ele>
        <time>2019-05-12T10:13:33Z</time>
      </trkpt>
      <trkpt lat="38.7690250" lon="-0.5004090">
        <ele>1227.4</ele>
        <time>2019-05-12T10:13:39Z</time>
      </trkpt>
      <trkpt lat="38.7690260" lon="-0.5003860">
        <ele>1227.6</ele>
        <time>2019-05-12T10:13:40Z</time>
      </trkpt>
      <trkpt lat="38.7690520" lon="-0.5002690">
        <ele>1228.4</ele>
        <time>2019-05-12T10:13:45Z</time>
      </trkpt>
      <trkpt lat="38.7690570" lon="-0.5002390">
        <ele>1228.4</ele>
        <time>2019-05-12T10:13:46Z</time>
      </trkpt>
      <trkpt lat="38.7691100" lon="-0.5001120">
        <ele>1228.6</ele>
        <time>2019-05-12T10:13:51Z</time>
      </trkpt>
      <trkpt lat="38.7691940" lon="-0.5000350">
        <ele>1228.0</ele>
        <time>2019-05-12T10:13:55Z</time>
      </trkpt>
      <trkpt lat="38.7692450" lon="-0.4999990">
        <ele>1227.4</ele>
        <time>2019-05-12T10:13:57Z</time>
      </trkpt>
      <trkpt lat="38.7693310" lon="-0.4999380">
        <ele>1227.2</ele>
        <time>2019-05-12T10:14:00Z</time>
      </trkpt>
      <trkpt lat="38.7694580" lon="-0.4998510">
        <ele>1226.4</ele>
        <time>2019-05-12T10:14:04Z</time>
      </trkpt>
      <trkpt lat="38.7695470" lon="-0.4998060">
        <ele>1226.0</ele>
        <time>2019-05-12T10:14:07Z</time>
      </trkpt>
      <trkpt lat="38.7697410" lon="-0.4997090">
        <ele>1227.2</ele>
        <time>2019-05-12T10:14:14Z</time>
      </trkpt>
      <trkpt lat="38.7698040" lon="-0.4996690">
        <ele>1227.4</ele>
        <time>2019-05-12T10:14:17Z</time>
      </trkpt>
      <trkpt lat="38.7698650" lon="-0.4996230">
        <ele>1228.0</ele>
        <time>2019-05-12T10:14:20Z</time>
      </trkpt>
      <trkpt lat="38.7698970" lon="-0.4995930">
        <ele>1228.8</ele>
        <time>2019-05-12T10:14:22Z</time>
      </trkpt>
      <trkpt lat="38.7699350" lon="-0.4995360">
        <ele>1230.2</ele>
        <time>2019-05-12T10:14:25Z</time>
      </trkpt>
      <trkpt lat="38.7699480" lon="-0.4995180">
        <ele>1230.8</ele>
        <time>2019-05-12T10:14:26Z</time>
      </trkpt>
      <trkpt lat="38.7699630" lon="-0.4995010">
        <ele>1231.4</ele>
        <time>2019-05-12T10:14:27Z</time>
      </trkpt>
      <trkpt lat="38.7700140" lon="-0.4994370">
        <ele>1232.8</ele>
        <time>2019-05-12T10:14:31Z</time>
      </trkpt>
      <trkpt lat="38.7700400" lon="-0.4994110">
        <ele>1233.6</ele>
        <time>2019-05-12T10:14:33Z</time>
      </trkpt>
      <trkpt lat="38.7700570" lon="-0.4993960">
        <ele>1233.8</ele>
        <time>2019-05-12T10:14:34Z</time>
      </trkpt>
      <trkpt lat="38.7701040" lon="-0.4993600">
        <ele>1234.8</ele>
        <time>2019-05-12T10:14:37Z</time>
      </trkpt>
      <trkpt lat="38.7701630" lon="-0.4993210">
        <ele>1236.0</ele>
        <time>2019-05-12T10:14:41Z</time>
      </trkpt>
      <trkpt lat="38.7701770" lon="-0.4993120">
        <ele>1236.4</ele>
        <time>2019-05-12T10:14:42Z</time>
      </trkpt>
      <trkpt lat="38.7702210" lon="-0.4992850">
        <ele>1237.2</ele>
        <time>2019-05-12T10:14:45Z</time>
      </trkpt>
      <trkpt lat="38.7702810" lon="-0.4992490">
        <ele>1238.0</ele>
        <time>2019-05-12T10:14:49Z</time>
      </trkpt>
      <trkpt lat="38.7702970" lon="-0.4992340">
        <ele>1238.2</ele>
        <time>2019-05-12T10:14:50Z</time>
      </trkpt>
      <trkpt lat="38.7703530" lon="-0.4991690">
        <ele>1239.2</ele>
        <time>2019-05-12T10:14:54Z</time>
      </trkpt>
      <trkpt lat="38.7703680" lon="-0.4991550">
        <ele>1239.6</ele>
        <time>2019-05-12T10:14:55Z</time>
      </trkpt>
      <trkpt lat="38.7703960" lon="-0.4991270">
        <ele>1240.4</ele>
        <time>2019-05-12T10:14:57Z</time>
      </trkpt>
      <trkpt lat="38.7704410" lon="-0.4990700">
        <ele>1241.4</ele>
        <time>2019-05-12T10:15:01Z</time>
      </trkpt>
      <trkpt lat="38.7704620" lon="-0.4990450">
        <ele>1242.4</ele>
        <time>2019-05-12T10:15:03Z</time>
      </trkpt>
      <trkpt lat="38.7704710" lon="-0.4990340">
        <ele>1242.6</ele>
        <time>2019-05-12T10:15:04Z</time>
      </trkpt>
      <trkpt lat="38.7705280" lon="-0.4989800">
        <ele>1243.8</ele>
        <time>2019-05-12T10:15:09Z</time>
      </trkpt>
      <trkpt lat="38.7705480" lon="-0.4989560">
        <ele>1244.0</ele>
        <time>2019-05-12T10:15:11Z</time>
      </trkpt>
      <trkpt lat="38.7705810" lon="-0.4989140">
        <ele>1245.0</ele>
        <time>2019-05-12T10:15:14Z</time>
      </trkpt>
      <trkpt lat="38.7705940" lon="-0.4989030">
        <ele>1245.4</ele>
        <time>2019-05-12T10:15:15Z</time>
      </trkpt>
      <trkpt lat="38.7706150" lon="-0.4988790">
        <ele>1246.0</ele>
        <time>2019-05-12T10:15:17Z</time>
      </trkpt>
      <trkpt lat="38.7706650" lon="-0.4988290">
        <ele>1247.2</ele>
        <time>2019-05-12T10:15:21Z</time>
      </trkpt>
      <trkpt lat="38.7707080" lon="-0.4987750">
        <ele>1248.4</ele>
        <time>2019-05-12T10:15:25Z</time>
      </trkpt>
      <trkpt lat="38.7707670" lon="-0.4987060">
        <ele>1249.4</ele>
        <time>2019-05-12T10:15:30Z</time>
      </trkpt>
      <trkpt lat="38.7707790" lon="-0.4986930">
        <ele>1249.4</ele>
        <time>2019-05-12T10:15:31Z</time>
      </trkpt>
      <trkpt lat="38.7708070" lon="-0.4986550">
        <ele>1250.6</ele>
        <time>2019-05-12T10:15:34Z</time>
      </trkpt>
      <trkpt lat="38.7708520" lon="-0.4986070">
        <ele>1251.4</ele>
        <time>2019-05-12T10:15:38Z</time>
      </trkpt>
      <trkpt lat="38.7708620" lon="-0.4985990">
        <ele>1251.8</ele>
        <time>2019-05-12T10:15:39Z</time>
      </trkpt>
      <trkpt lat="38.7708950" lon="-0.4985690">
        <ele>1253.0</ele>
        <time>2019-05-12T10:15:42Z</time>
      </trkpt>
      <trkpt lat="38.7709230" lon="-0.4985360">
        <ele>1253.8</ele>
        <time>2019-05-12T10:15:45Z</time>
      </trkpt>
      <trkpt lat="38.7709360" lon="-0.4985250">
        <ele>1254.2</ele>
        <time>2019-05-12T10:15:46Z</time>
      </trkpt>
      <trkpt lat="38.7709910" lon="-0.4985020">
        <ele>1255.0</ele>
        <time>2019-05-12T10:15:50Z</time>
      </trkpt>
      <trkpt lat="38.7710030" lon="-0.4985000">
        <ele>1255.2</ele>
        <time>2019-05-12T10:15:51Z</time>
      </trkpt>
      <trkpt lat="38.7710610" lon="-0.4984730">
        <ele>1256.4</ele>
        <time>2019-05-12T10:15:55Z</time>
      </trkpt>
      <trkpt lat="38.7710750" lon="-0.4984720">
        <ele>1256.6</ele>
        <time>2019-05-12T10:15:56Z</time>
      </trkpt>
      <trkpt lat="38.7711150" lon="-0.4984640">
        <ele>1257.6</ele>
        <time>2019-05-12T10:15:59Z</time>
      </trkpt>
      <trkpt lat="38.7711710" lon="-0.4984430">
        <ele>1258.6</ele>
        <time>2019-05-12T10:16:04Z</time>
      </trkpt>
      <trkpt lat="38.7712450" lon="-0.4984160">
        <ele>1259.2</ele>
        <time>2019-05-12T10:16:10Z</time>
      </trkpt>
      <trkpt lat="38.7712210" lon="-0.4984280">
        <ele>1259.2</ele>
        <time>2019-05-12T10:18:11Z</time>
      </trkpt>
      <trkpt lat="38.7712090" lon="-0.4984310">
        <ele>1259.2</ele>
        <time>2019-05-12T10:18:12Z</time>
      </trkpt>
      <trkpt lat="38.7711060" lon="-0.4984580">
        <ele>1259.2</ele>
        <time>2019-05-12T10:18:17Z</time>
      </trkpt>
      <trkpt lat="38.7710670" lon="-0.4984680">
        <ele>1259.0</ele>
        <time>2019-05-12T10:18:18Z</time>
      </trkpt>
      <trkpt lat="38.7709320" lon="-0.4985280">
        <ele>1256.8</ele>
        <time>2019-05-12T10:18:21Z</time>
      </trkpt>
      <trkpt lat="38.7708880" lon="-0.4985600">
        <ele>1255.8</ele>
        <time>2019-05-12T10:18:22Z</time>
      </trkpt>
      <trkpt lat="38.7708490" lon="-0.4985940">
        <ele>1254.4</ele>
        <time>2019-05-12T10:18:23Z</time>
      </trkpt>
      <trkpt lat="38.7707710" lon="-0.4986850">
        <ele>1252.6</ele>
        <time>2019-05-12T10:18:25Z</time>
      </trkpt>
      <trkpt lat="38.7706790" lon="-0.4988020">
        <ele>1250.4</ele>
        <time>2019-05-12T10:18:27Z</time>
      </trkpt>
      <trkpt lat="38.7706280" lon="-0.4988600">
        <ele>1249.0</ele>
        <time>2019-05-12T10:18:28Z</time>
      </trkpt>
      <trkpt lat="38.7705700" lon="-0.4989190">
        <ele>1247.8</ele>
        <time>2019-05-12T10:18:29Z</time>
      </trkpt>
      <trkpt lat="38.7705160" lon="-0.4989770">
        <ele>1246.6</ele>
        <time>2019-05-12T10:18:30Z</time>
      </trkpt>
      <trkpt lat="38.7704640" lon="-0.4990350">
        <ele>1245.6</ele>
        <time>2019-05-12T10:18:31Z</time>
      </trkpt>
      <trkpt lat="38.7704170" lon="-0.4990870">
        <ele>1244.0</ele>
        <time>2019-05-12T10:18:32Z</time>
      </trkpt>
      <trkpt lat="38.7703640" lon="-0.4991470">
        <ele>1242.8</ele>
        <time>2019-05-12T10:18:33Z</time>
      </trkpt>
      <trkpt lat="38.7702980" lon="-0.4992110">
        <ele>1241.8</ele>
        <time>2019-05-12T10:18:34Z</time>
      </trkpt>
      <trkpt lat="38.7702210" lon="-0.4992780">
        <ele>1240.6</ele>
        <time>2019-05-12T10:18:35Z</time>
      </trkpt>
      <trkpt lat="38.7701380" lon="-0.4993390">
        <ele>1239.4</ele>
        <time>2019-05-12T10:18:36Z</time>
      </trkpt>
      <trkpt lat="38.7700600" lon="-0.4994060">
        <ele>1237.6</ele>
        <time>2019-05-12T10:18:37Z</time>
      </trkpt>
      <trkpt lat="38.7699860" lon="-0.4994770">
        <ele>1234.6</ele>
        <time>2019-05-12T10:18:38Z</time>
      </trkpt>
      <trkpt lat="38.7699240" lon="-0.4995500">
        <ele>1233.8</ele>
        <time>2019-05-12T10:18:39Z</time>
      </trkpt>
      <trkpt lat="38.7698570" lon="-0.4996170">
        <ele>1232.6</ele>
        <time>2019-05-12T10:18:40Z</time>
      </trkpt>
      <trkpt lat="38.7697800" lon="-0.4996800">
        <ele>1231.2</ele>
        <time>2019-05-12T10:18:41Z</time>
      </trkpt>
      <trkpt lat="38.7696970" lon="-0.4997330">
        <ele>1230.0</ele>
        <time>2019-05-12T10:18:42Z</time>
      </trkpt>
      <trkpt lat="38.7696130" lon="-0.4997790">
        <ele>1228.6</ele>
        <time>2019-05-12T10:18:43Z</time>
      </trkpt>
      <trkpt lat="38.7695290" lon="-0.4998190">
        <ele>1227.4</ele>
        <time>2019-05-12T10:18:44Z</time>
      </trkpt>
      <trkpt lat="38.7694500" lon="-0.4998620">
        <ele>1226.6</ele>
        <time>2019-05-12T10:18:45Z</time>
      </trkpt>
      <trkpt lat="38.7693750" lon="-0.4999110">
        <ele>1226.4</ele>
        <time>2019-05-12T10:18:46Z</time>
      </trkpt>
      <trkpt lat="38.7691810" lon="-0.5000600">
        <ele>1226.6</ele>
        <time>2019-05-12T10:18:49Z</time>
      </trkpt>
      <trkpt lat="38.7691280" lon="-0.5001060">
        <ele>1226.8</ele>
        <time>2019-05-12T10:18:50Z</time>
      </trkpt>
      <trkpt lat="38.7690890" lon="-0.5001600">
        <ele>1227.4</ele>
        <time>2019-05-12T10:18:51Z</time>
      </trkpt>
      <trkpt lat="38.7690620" lon="-0.5002160">
        <ele>1227.8</ele>
        <time>2019-05-12T10:18:52Z</time>
      </trkpt>
      <trkpt lat="38.7690320" lon="-0.5003470">
        <ele>1228.4</ele>
        <time>2019-05-12T10:18:54Z</time>
      </trkpt>
      <trkpt lat="38.7690130" lon="-0.5005040">
        <ele>1228.2</ele>
        <time>2019-05-12T10:18:56Z</time>
      </trkpt>
      <trkpt lat="38.7689970" lon="-0.5008080">
        <ele>1226.0</ele>
        <time>2019-05-12T10:19:00Z</time>
      </trkpt>
      <trkpt lat="38.7690160" lon="-0.5009580">
        <ele>1225.0</ele>
        <time>2019-05-12T10:19:02Z</time>
      </trkpt>
      <trkpt lat="38.7690210" lon="-0.5010280">
        <ele>1223.4</ele>
        <time>2019-05-12T10:19:03Z</time>
      </trkpt>
      <trkpt lat="38.7690160" lon="-0.5010920">
        <ele>1222.8</ele>
        <time>2019-05-12T10:19:04Z</time>
      </trkpt>
      <trkpt lat="38.7689450" lon="-0.5012100">
        <ele>1222.4</ele>
        <time>2019-05-12T10:19:07Z</time>
      </trkpt>
      <trkpt lat="38.7689060" lon="-0.5012190">
        <ele>1222.2</ele>
        <time>2019-05-12T10:19:08Z</time>
      </trkpt>
      <trkpt lat="38.7688180" lon="-0.5011860">
        <ele>1222.0</ele>
        <time>2019-05-12T10:19:10Z</time>
      </trkpt>
      <trkpt lat="38.7687410" lon="-0.5011210">
        <ele>1221.2</ele>
        <time>2019-05-12T10:19:12Z</time>
      </trkpt>
      <trkpt lat="38.7686990" lon="-0.5010920">
        <ele>1220.6</ele>
        <time>2019-05-12T10:19:13Z</time>
      </trkpt>
      <trkpt lat="38.7686570" lon="-0.5010690">
        <ele>1220.2</ele>
        <time>2019-05-12T10:19:14Z</time>
      </trkpt>
      <trkpt lat="38.7685800" lon="-0.5010230">
        <ele>1219.6</ele>
        <time>2019-05-12T10:19:16Z</time>
      </trkpt>
      <trkpt lat="38.7685010" lon="-0.5009360">
        <ele>1218.4</ele>
        <time>2019-05-12T10:19:19Z</time>
      </trkpt>
      <trkpt lat="38.7684600" lon="-0.5009000">
        <ele>1218.2</ele>
        <time>2019-05-12T10:19:21Z</time>
      </trkpt>
      <trkpt lat="38.7684330" lon="-0.5008760">
        <ele>1218.0</ele>
        <time>2019-05-12T10:19:23Z</time>
      </trkpt>
      <trkpt lat="38.7684320" lon="-0.5008490">
        <ele>1218.0</ele>
        <time>2019-05-12T10:19:24Z</time>
      </trkpt>
      <trkpt lat="38.7683830" lon="-0.5007490">
        <ele>1218.0</ele>
        <time>2019-05-12T10:19:27Z</time>
      </trkpt>
      <trkpt lat="38.7682550" lon="-0.5005380">
        <ele>1217.6</ele>
        <time>2019-05-12T10:19:33Z</time>
      </trkpt>
      <trkpt lat="38.7681560" lon="-0.5004100">
        <ele>1218.0</ele>
        <time>2019-05-12T10:19:38Z</time>
      </trkpt>
      <trkpt lat="38.7680940" lon="-0.5003590">
        <ele>1218.0</ele>
        <time>2019-05-12T10:28:06Z</time>
      </trkpt>
      <trkpt lat="38.7680380" lon="-0.5003040">
        <ele>1217.4</ele>
        <time>2019-05-12T10:28:10Z</time>
      </trkpt>
      <trkpt lat="38.7680220" lon="-0.5002880">
        <ele>1217.6</ele>
        <time>2019-05-12T10:28:11Z</time>
      </trkpt>
      <trkpt lat="38.7679850" lon="-0.5002530">
        <ele>1217.4</ele>
        <time>2019-05-12T10:28:13Z</time>
      </trkpt>
      <trkpt lat="38.7679290" lon="-0.5001880">
        <ele>1217.4</ele>
        <time>2019-05-12T10:28:16Z</time>
      </trkpt>
      <trkpt lat="38.7678110" lon="-0.5000260">
        <ele>1218.2</ele>
        <time>2019-05-12T10:28:24Z</time>
      </trkpt>
      <trkpt lat="38.7677980" lon="-0.4999530">
        <ele>1218.4</ele>
        <time>2019-05-12T10:28:27Z</time>
      </trkpt>
      <trkpt lat="38.7677990" lon="-0.4998560">
        <ele>1218.6</ele>
        <time>2019-05-12T10:28:30Z</time>
      </trkpt>
      <trkpt lat="38.7678400" lon="-0.4997290">
        <ele>1217.4</ele>
        <time>2019-05-12T10:28:34Z</time>
      </trkpt>
      <trkpt lat="38.7678500" lon="-0.4997010">
        <ele>1217.2</ele>
        <time>2019-05-12T10:28:35Z</time>
      </trkpt>
      <trkpt lat="38.7678750" lon="-0.4996460">
        <ele>1215.8</ele>
        <time>2019-05-12T10:28:37Z</time>
      </trkpt>
      <trkpt lat="38.7679110" lon="-0.4995640">
        <ele>1214.8</ele>
        <time>2019-05-12T10:28:39Z</time>
      </trkpt>
      <trkpt lat="38.7679530" lon="-0.4994610">
        <ele>1213.2</ele>
        <time>2019-05-12T10:28:41Z</time>
      </trkpt>
      <trkpt lat="38.7679920" lon="-0.4993690">
        <ele>1212.0</ele>
        <time>2019-05-12T10:28:43Z</time>
      </trkpt>
      <trkpt lat="38.7680140" lon="-0.4993270">
        <ele>1212.0</ele>
        <time>2019-05-12T10:28:44Z</time>
      </trkpt>
      <trkpt lat="38.7680690" lon="-0.4992030">
        <ele>1210.8</ele>
        <time>2019-05-12T10:28:47Z</time>
      </trkpt>
      <trkpt lat="38.7681230" lon="-0.4990860">
        <ele>1210.0</ele>
        <time>2019-05-12T10:28:50Z</time>
      </trkpt>
      <trkpt lat="38.7681440" lon="-0.4990460">
        <ele>1209.4</ele>
        <time>2019-05-12T10:28:51Z</time>
      </trkpt>
      <trkpt lat="38.7681710" lon="-0.4989590">
        <ele>1208.6</ele>
        <time>2019-05-12T10:28:53Z</time>
      </trkpt>
      <trkpt lat="38.7681770" lon="-0.4989160">
        <ele>1208.2</ele>
        <time>2019-05-12T10:28:54Z</time>
      </trkpt>
      <trkpt lat="38.7682020" lon="-0.4988290">
        <ele>1207.0</ele>
        <time>2019-05-12T10:28:56Z</time>
      </trkpt>
      <trkpt lat="38.7682080" lon="-0.4987400">
        <ele>1205.8</ele>
        <time>2019-05-12T10:28:58Z</time>
      </trkpt>
      <trkpt lat="38.7682120" lon="-0.4986040">
        <ele>1204.6</ele>
        <time>2019-05-12T10:29:01Z</time>
      </trkpt>
      <trkpt lat="38.7682140" lon="-0.4985550">
        <ele>1203.4</ele>
        <time>2019-05-12T10:29:02Z</time>
      </trkpt>
      <trkpt lat="38.7682220" lon="-0.4985010">
        <ele>1202.6</ele>
        <time>2019-05-12T10:29:03Z</time>
      </trkpt>
      <trkpt lat="38.7682340" lon="-0.4984360">
        <ele>1202.0</ele>
        <time>2019-05-12T10:29:04Z</time>
      </trkpt>
      <trkpt lat="38.7682480" lon="-0.4983240">
        <ele>1200.2</ele>
        <time>2019-05-12T10:29:06Z</time>
      </trkpt>
      <trkpt lat="38.7682660" lon="-0.4982120">
        <ele>1198.8</ele>
        <time>2019-05-12T10:29:08Z</time>
      </trkpt>
      <trkpt lat="38.7682760" lon="-0.4981170">
        <ele>1198.2</ele>
        <time>2019-05-12T10:29:10Z</time>
      </trkpt>
      <trkpt lat="38.7682840" lon="-0.4980560">
        <ele>1197.6</ele>
        <time>2019-05-12T10:29:11Z</time>
      </trkpt>
      <trkpt lat="38.7682980" lon="-0.4979500">
        <ele>1196.6</ele>
        <time>2019-05-12T10:29:13Z</time>
      </trkpt>
      <trkpt lat="38.7683090" lon="-0.4978550">
        <ele>1196.0</ele>
        <time>2019-05-12T10:29:15Z</time>
      </trkpt>
      <trkpt lat="38.7683090" lon="-0.4978060">
        <ele>1195.2</ele>
        <time>2019-05-12T10:29:16Z</time>
      </trkpt>
      <trkpt lat="38.7682980" lon="-0.4977130">
        <ele>1194.0</ele>
        <time>2019-05-12T10:29:18Z</time>
      </trkpt>
      <trkpt lat="38.7682980" lon="-0.4976610">
        <ele>1193.8</ele>
        <time>2019-05-12T10:29:19Z</time>
      </trkpt>
      <trkpt lat="38.7682960" lon="-0.4975660">
        <ele>1192.8</ele>
        <time>2019-05-12T10:29:21Z</time>
      </trkpt>
      <trkpt lat="38.7682710" lon="-0.4974100">
        <ele>1191.8</ele>
        <time>2019-05-12T10:29:24Z</time>
      </trkpt>
      <trkpt lat="38.7682550" lon="-0.4973560">
        <ele>1191.6</ele>
        <time>2019-05-12T10:29:25Z</time>
      </trkpt>
      <trkpt lat="38.7681970" lon="-0.4972580">
        <ele>1189.0</ele>
        <time>2019-05-12T10:29:27Z</time>
      </trkpt>
      <trkpt lat="38.7681550" lon="-0.4972200">
        <ele>1188.0</ele>
        <time>2019-05-12T10:29:28Z</time>
      </trkpt>
      <trkpt lat="38.7680130" lon="-0.4971870">
        <ele>1186.6</ele>
        <time>2019-05-12T10:29:31Z</time>
      </trkpt>
      <trkpt lat="38.7678890" lon="-0.4971370">
        <ele>1186.0</ele>
        <time>2019-05-12T10:29:35Z</time>
      </trkpt>
      <trkpt lat="38.7679030" lon="-0.4971390">
        <ele>1186.0</ele>
        <time>2019-05-12T10:29:37Z</time>
      </trkpt>
      <trkpt lat="38.7679090" lon="-0.4971510">
        <ele>1186.2</ele>
        <time>2019-05-12T10:29:38Z</time>
      </trkpt>
      <trkpt lat="38.7679730" lon="-0.4971960">
        <ele>1186.2</ele>
        <time>2019-05-12T10:29:43Z</time>
      </trkpt>
      <trkpt lat="38.7679550" lon="-0.4972950">
        <ele>1186.0</ele>
        <time>2019-05-12T10:29:47Z</time>
      </trkpt>
      <trkpt lat="38.7679490" lon="-0.4973400">
        <ele>1185.6</ele>
        <time>2019-05-12T10:29:48Z</time>
      </trkpt>
      <trkpt lat="38.7679400" lon="-0.4974870">
        <ele>1184.8</ele>
        <time>2019-05-12T10:29:51Z</time>
      </trkpt>
      <trkpt lat="38.7679370" lon="-0.4975180">
        <ele>1184.4</ele>
        <time>2019-05-12T10:29:52Z</time>
      </trkpt>
      <trkpt lat="38.7678950" lon="-0.4976370">
        <ele>1183.8</ele>
        <time>2019-05-12T10:29:55Z</time>
      </trkpt>
      <trkpt lat="38.7678670" lon="-0.4976620">
        <ele>1184.0</ele>
        <time>2019-05-12T10:29:56Z</time>
      </trkpt>
      <trkpt lat="38.7678060" lon="-0.4976710">
        <ele>1183.2</ele>
        <time>2019-05-12T10:29:58Z</time>
      </trkpt>
      <trkpt lat="38.7677550" lon="-0.4976310">
        <ele>1182.2</ele>
        <time>2019-05-12T10:30:00Z</time>
      </trkpt>
      <trkpt lat="38.7677330" lon="-0.4976060">
        <ele>1181.6</ele>
        <time>2019-05-12T10:30:01Z</time>
      </trkpt>
      <trkpt lat="38.7677090" lon="-0.4975810">
        <ele>1180.8</ele>
        <time>2019-05-12T10:30:02Z</time>
      </trkpt>
      <trkpt lat="38.7676710" lon="-0.4975590">
        <ele>1179.8</ele>
        <time>2019-05-12T10:30:04Z</time>
      </trkpt>
      <trkpt lat="38.7676250" lon="-0.4975140">
        <ele>1179.2</ele>
        <time>2019-05-12T10:30:06Z</time>
      </trkpt>
      <trkpt lat="38.7675490" lon="-0.4974810">
        <ele>1178.2</ele>
        <time>2019-05-12T10:30:08Z</time>
      </trkpt>
      <trkpt lat="38.7674530" lon="-0.4974630">
        <ele>1176.4</ele>
        <time>2019-05-12T10:30:10Z</time>
      </trkpt>
      <trkpt lat="38.7673780" lon="-0.4974450">
        <ele>1175.2</ele>
        <time>2019-05-12T10:30:12Z</time>
      </trkpt>
      <trkpt lat="38.7672990" lon="-0.4974150">
        <ele>1174.4</ele>
        <time>2019-05-12T10:30:14Z</time>
      </trkpt>
      <trkpt lat="38.7672460" lon="-0.4974140">
        <ele>1174.0</ele>
        <time>2019-05-12T10:30:15Z</time>
      </trkpt>
      <trkpt lat="38.7671480" lon="-0.4973980">
        <ele>1171.8</ele>
        <time>2019-05-12T10:30:17Z</time>
      </trkpt>
      <trkpt lat="38.7671090" lon="-0.4973830">
        <ele>1171.4</ele>
        <time>2019-05-12T10:30:18Z</time>
      </trkpt>
      <trkpt lat="38.7670380" lon="-0.4974450">
        <ele>1170.6</ele>
        <time>2019-05-12T10:30:21Z</time>
      </trkpt>
      <trkpt lat="38.7670650" lon="-0.4975320">
        <ele>1169.4</ele>
        <time>2019-05-12T10:30:23Z</time>
      </trkpt>
      <trkpt lat="38.7670930" lon="-0.4975710">
        <ele>1168.8</ele>
        <time>2019-05-12T10:30:24Z</time>
      </trkpt>
      <trkpt lat="38.7671210" lon="-0.4975980">
        <ele>1168.2</ele>
        <time>2019-05-12T10:30:25Z</time>
      </trkpt>
      <trkpt lat="38.7671430" lon="-0.4976640">
        <ele>1167.4</ele>
        <time>2019-05-12T10:30:27Z</time>
      </trkpt>
      <trkpt lat="38.7671430" lon="-0.4977080">
        <ele>1167.2</ele>
        <time>2019-05-12T10:30:28Z</time>
      </trkpt>
      <trkpt lat="38.7671130" lon="-0.4977980">
        <ele>1165.8</ele>
        <time>2019-05-12T10:30:31Z</time>
      </trkpt>
      <trkpt lat="38.7670890" lon="-0.4978070">
        <ele>1165.0</ele>
        <time>2019-05-12T10:30:34Z</time>
      </trkpt>
      <trkpt lat="38.7670370" lon="-0.4977970">
        <ele>1164.4</ele>
        <time>2019-05-12T10:30:40Z</time>
      </trkpt>
      <trkpt lat="38.7670070" lon="-0.4977740">
        <ele>1164.4</ele>
        <time>2019-05-12T10:30:41Z</time>
      </trkpt>
      <trkpt lat="38.7669460" lon="-0.4977210">
        <ele>1163.0</ele>
        <time>2019-05-12T10:30:43Z</time>
      </trkpt>
      <trkpt lat="38.7669070" lon="-0.4977150">
        <ele>1162.4</ele>
        <time>2019-05-12T10:30:44Z</time>
      </trkpt>
      <trkpt lat="38.7668630" lon="-0.4977110">
        <ele>1162.0</ele>
        <time>2019-05-12T10:30:45Z</time>
      </trkpt>
      <trkpt lat="38.7667570" lon="-0.4976950">
        <ele>1160.8</ele>
        <time>2019-05-12T10:30:48Z</time>
      </trkpt>
      <trkpt lat="38.7667100" lon="-0.4976950">
        <ele>1159.6</ele>
        <time>2019-05-12T10:30:51Z</time>
      </trkpt>
      <trkpt lat="38.7667060" lon="-0.4976910">
        <ele>1159.2</ele>
        <time>2019-05-12T10:30:52Z</time>
      </trkpt>
      <trkpt lat="38.7666970" lon="-0.4976940">
        <ele>1159.0</ele>
        <time>2019-05-12T10:30:53Z</time>
      </trkpt>
      <trkpt lat="38.7666710" lon="-0.4976890">
        <ele>1158.6</ele>
        <time>2019-05-12T10:30:56Z</time>
      </trkpt>
      <trkpt lat="38.7666630" lon="-0.4976890">
        <ele>1158.6</ele>
        <time>2019-05-12T10:30:57Z</time>
      </trkpt>
      <trkpt lat="38.7666280" lon="-0.4977020">
        <ele>1158.2</ele>
        <time>2019-05-12T10:31:01Z</time>
      </trkpt>
      <trkpt lat="38.7665910" lon="-0.4976970">
        <ele>1157.4</ele>
        <time>2019-05-12T10:31:03Z</time>
      </trkpt>
      <trkpt lat="38.7665550" lon="-0.4976860">
        <ele>1157.0</ele>
        <time>2019-05-12T10:31:05Z</time>
      </trkpt>
      <trkpt lat="38.7665370" lon="-0.4976860">
        <ele>1156.8</ele>
        <time>2019-05-12T10:31:06Z</time>
      </trkpt>
      <trkpt lat="38.7665140" lon="-0.4976960">
        <ele>1156.2</ele>
        <time>2019-05-12T10:31:07Z</time>
      </trkpt>
      <trkpt lat="38.7664800" lon="-0.4977100">
        <ele>1155.2</ele>
        <time>2019-05-12T10:31:09Z</time>
      </trkpt>
      <trkpt lat="38.7664620" lon="-0.4977100">
        <ele>1154.4</ele>
        <time>2019-05-12T10:31:10Z</time>
      </trkpt>
      <trkpt lat="38.7664170" lon="-0.4976880">
        <ele>1153.8</ele>
        <time>2019-05-12T10:31:12Z</time>
      </trkpt>
      <trkpt lat="38.7663590" lon="-0.4976640">
        <ele>1153.0</ele>
        <time>2019-05-12T10:31:14Z</time>
      </trkpt>
      <trkpt lat="38.7663330" lon="-0.4976580">
        <ele>1152.8</ele>
        <time>2019-05-12T10:31:15Z</time>
      </trkpt>
      <trkpt lat="38.7663160" lon="-0.4976440">
        <ele>1152.4</ele>
        <time>2019-05-12T10:31:16Z</time>
      </trkpt>
      <trkpt lat="38.7662720" lon="-0.4976080">
        <ele>1151.8</ele>
        <time>2019-05-12T10:31:18Z</time>
      </trkpt>
      <trkpt lat="38.7662550" lon="-0.4975870">
        <ele>1151.6</ele>
        <time>2019-05-12T10:31:19Z</time>
      </trkpt>
      <trkpt lat="38.7661890" lon="-0.4975130">
        <ele>1151.0</ele>
        <time>2019-05-12T10:31:23Z</time>
      </trkpt>
      <trkpt lat="38.7661710" lon="-0.4974980">
        <ele>1150.4</ele>
        <time>2019-05-12T10:31:25Z</time>
      </trkpt>
      <trkpt lat="38.7660350" lon="-0.4975310">
        <ele>1146.8</ele>
        <time>2019-05-12T10:31:47Z</time>
      </trkpt>
      <trkpt lat="38.7659950" lon="-0.4975430">
        <ele>1145.6</ele>
        <time>2019-05-12T10:31:50Z</time>
      </trkpt>
      <trkpt lat="38.7659680" lon="-0.4975480">
        <ele>1145.6</ele>
        <time>2019-05-12T10:31:51Z</time>
      </trkpt>
      <trkpt lat="38.7659500" lon="-0.4975510">
        <ele>1145.2</ele>
        <time>2019-05-12T10:31:52Z</time>
      </trkpt>
      <trkpt lat="38.7659260" lon="-0.4975540">
        <ele>1144.6</ele>
        <time>2019-05-12T10:31:53Z</time>
      </trkpt>
      <trkpt lat="38.7658780" lon="-0.4975570">
        <ele>1143.6</ele>
        <time>2019-05-12T10:31:55Z</time>
      </trkpt>
      <trkpt lat="38.7657810" lon="-0.4975620">
        <ele>1142.0</ele>
        <time>2019-05-12T10:31:58Z</time>
      </trkpt>
      <trkpt lat="38.7657490" lon="-0.4975480">
        <ele>1141.8</ele>
        <time>2019-05-12T10:31:59Z</time>
      </trkpt>
      <trkpt lat="38.7656450" lon="-0.4975360">
        <ele>1140.8</ele>
        <time>2019-05-12T10:32:02Z</time>
      </trkpt>
      <trkpt lat="38.7655840" lon="-0.4975380">
        <ele>1139.8</ele>
        <time>2019-05-12T10:32:04Z</time>
      </trkpt>
      <trkpt lat="38.7655590" lon="-0.4975420">
        <ele>1139.4</ele>
        <time>2019-05-12T10:32:05Z</time>
      </trkpt>
      <trkpt lat="38.7655120" lon="-0.4975360">
        <ele>1138.6</ele>
        <time>2019-05-12T10:32:08Z</time>
      </trkpt>
      <trkpt lat="38.7654900" lon="-0.4975320">
        <ele>1138.2</ele>
        <time>2019-05-12T10:32:09Z</time>
      </trkpt>
      <trkpt lat="38.7654300" lon="-0.4975370">
        <ele>1137.0</ele>
        <time>2019-05-12T10:32:12Z</time>
      </trkpt>
      <trkpt lat="38.7654030" lon="-0.4975230">
        <ele>1136.6</ele>
        <time>2019-05-12T10:32:13Z</time>
      </trkpt>
      <trkpt lat="38.7653500" lon="-0.4975150">
        <ele>1136.0</ele>
        <time>2019-05-12T10:32:15Z</time>
      </trkpt>
      <trkpt lat="38.7652950" lon="-0.4975170">
        <ele>1135.6</ele>
        <time>2019-05-12T10:32:17Z</time>
      </trkpt>
      <trkpt lat="38.7652190" lon="-0.4974970">
        <ele>1134.6</ele>
        <time>2019-05-12T10:32:20Z</time>
      </trkpt>
      <trkpt lat="38.7651930" lon="-0.4974830">
        <ele>1133.8</ele>
        <time>2019-05-12T10:32:21Z</time>
      </trkpt>
      <trkpt lat="38.7651660" lon="-0.4974790">
        <ele>1133.4</ele>
        <time>2019-05-12T10:32:22Z</time>
      </trkpt>
      <trkpt lat="38.7651550" lon="-0.4974640">
        <ele>1133.0</ele>
        <time>2019-05-12T10:32:23Z</time>
      </trkpt>
      <trkpt lat="38.7651220" lon="-0.4974280">
        <ele>1132.4</ele>
        <time>2019-05-12T10:32:25Z</time>
      </trkpt>
      <trkpt lat="38.7651050" lon="-0.4973990">
        <ele>1132.0</ele>
        <time>2019-05-12T10:32:26Z</time>
      </trkpt>
      <trkpt lat="38.7650560" lon="-0.4973160">
        <ele>1130.8</ele>
        <time>2019-05-12T10:32:28Z</time>
      </trkpt>
      <trkpt lat="38.7650270" lon="-0.4972630">
        <ele>1130.2</ele>
        <time>2019-05-12T10:32:29Z</time>
      </trkpt>
      <trkpt lat="38.7649610" lon="-0.4971600">
        <ele>1129.6</ele>
        <time>2019-05-12T10:32:31Z</time>
      </trkpt>
      <trkpt lat="38.7648980" lon="-0.4970920">
        <ele>1129.6</ele>
        <time>2019-05-12T10:32:33Z</time>
      </trkpt>
      <trkpt lat="38.7647980" lon="-0.4969830">
        <ele>1129.2</ele>
        <time>2019-05-12T10:32:36Z</time>
      </trkpt>
      <trkpt lat="38.7647460" lon="-0.4969490">
        <ele>1128.8</ele>
        <time>2019-05-12T10:32:37Z</time>
      </trkpt>
      <trkpt lat="38.7646270" lon="-0.4968970">
        <ele>1127.8</ele>
        <time>2019-05-12T10:32:39Z</time>
      </trkpt>
      <trkpt lat="38.7645620" lon="-0.4968680">
        <ele>1127.4</ele>
        <time>2019-05-12T10:32:40Z</time>
      </trkpt>
      <trkpt lat="38.7644240" lon="-0.4968170">
        <ele>1126.6</ele>
        <time>2019-05-12T10:32:42Z</time>
      </trkpt>
      <trkpt lat="38.7643540" lon="-0.4968040">
        <ele>1126.2</ele>
        <time>2019-05-12T10:32:43Z</time>
      </trkpt>
      <trkpt lat="38.7642210" lon="-0.4968010">
        <ele>1126.2</ele>
        <time>2019-05-12T10:32:45Z</time>
      </trkpt>
      <trkpt lat="38.7639630" lon="-0.4968290">
        <ele>1126.2</ele>
        <time>2019-05-12T10:32:49Z</time>
      </trkpt>
      <trkpt lat="38.7638370" lon="-0.4968610">
        <ele>1125.8</ele>
        <time>2019-05-12T10:32:51Z</time>
      </trkpt>
      <trkpt lat="38.7637770" lon="-0.4968710">
        <ele>1125.4</ele>
        <time>2019-05-12T10:32:52Z</time>
      </trkpt>
      <trkpt lat="38.7637310" lon="-0.4968890">
        <ele>1125.2</ele>
        <time>2019-05-12T10:32:53Z</time>
      </trkpt>
      <trkpt lat="38.7636900" lon="-0.4968850">
        <ele>1125.2</ele>
        <time>2019-05-12T10:32:54Z</time>
      </trkpt>
      <trkpt lat="38.7635310" lon="-0.4969090">
        <ele>1125.6</ele>
        <time>2019-05-12T10:32:58Z</time>
      </trkpt>
      <trkpt lat="38.7634970" lon="-0.4969170">
        <ele>1125.6</ele>
        <time>2019-05-12T10:32:59Z</time>
      </trkpt>
      <trkpt lat="38.7633310" lon="-0.4969370">
        <ele>1125.2</ele>
        <time>2019-05-12T10:33:04Z</time>
      </trkpt>
      <trkpt lat="38.7632490" lon="-0.4969560">
        <ele>1124.0</ele>
        <time>2019-05-12T10:33:06Z</time>
      </trkpt>
      <trkpt lat="38.7631710" lon="-0.4969100">
        <ele>1123.0</ele>
        <time>2019-05-12T10:33:08Z</time>
      </trkpt>
      <trkpt lat="38.7631280" lon="-0.4967670">
        <ele>1122.0</ele>
        <time>2019-05-12T10:33:11Z</time>
      </trkpt>
      <trkpt lat="38.7631050" lon="-0.4966650">
        <ele>1121.2</ele>
        <time>2019-05-12T10:33:13Z</time>
      </trkpt>
      <trkpt lat="38.7631040" lon="-0.4966110">
        <ele>1121.0</ele>
        <time>2019-05-12T10:33:14Z</time>
      </trkpt>
      <trkpt lat="38.7631000" lon="-0.4965250">
        <ele>1120.4</ele>
        <time>2019-05-12T10:33:16Z</time>
      </trkpt>
      <trkpt lat="38.7630890" lon="-0.4964850">
        <ele>1119.8</ele>
        <time>2019-05-12T10:33:17Z</time>
      </trkpt>
      <trkpt lat="38.7630990" lon="-0.4963730">
        <ele>1119.0</ele>
        <time>2019-05-12T10:33:20Z</time>
      </trkpt>
      <trkpt lat="38.7630920" lon="-0.4963340">
        <ele>1118.4</ele>
        <time>2019-05-12T10:33:21Z</time>
      </trkpt>
      <trkpt lat="38.7630870" lon="-0.4962990">
        <ele>1117.6</ele>
        <time>2019-05-12T10:33:22Z</time>
      </trkpt>
      <trkpt lat="38.7630710" lon="-0.4962570">
        <ele>1117.0</ele>
        <time>2019-05-12T10:33:23Z</time>
      </trkpt>
      <trkpt lat="38.7630470" lon="-0.4961670">
        <ele>1115.6</ele>
        <time>2019-05-12T10:33:25Z</time>
      </trkpt>
      <trkpt lat="38.7630380" lon="-0.4960910">
        <ele>1114.6</ele>
        <time>2019-05-12T10:33:27Z</time>
      </trkpt>
      <trkpt lat="38.7630250" lon="-0.4960520">
        <ele>1114.2</ele>
        <time>2019-05-12T10:33:28Z</time>
      </trkpt>
      <trkpt lat="38.7629930" lon="-0.4959610">
        <ele>1113.0</ele>
        <time>2019-05-12T10:33:30Z</time>
      </trkpt>
      <trkpt lat="38.7629790" lon="-0.4958810">
        <ele>1112.2</ele>
        <time>2019-05-12T10:33:32Z</time>
      </trkpt>
      <trkpt lat="38.7629610" lon="-0.4958720">
        <ele>1112.0</ele>
        <time>2019-05-12T10:33:33Z</time>
      </trkpt>
      <trkpt lat="38.7629180" lon="-0.4958230">
        <ele>1111.4</ele>
        <time>2019-05-12T10:33:35Z</time>
      </trkpt>
      <trkpt lat="38.7628850" lon="-0.4957130">
        <ele>1110.4</ele>
        <time>2019-05-12T10:33:37Z</time>
      </trkpt>
      <trkpt lat="38.7628680" lon="-0.4956480">
        <ele>1109.0</ele>
        <time>2019-05-12T10:33:38Z</time>
      </trkpt>
      <trkpt lat="38.7628370" lon="-0.4956000">
        <ele>1108.2</ele>
        <time>2019-05-12T10:33:39Z</time>
      </trkpt>
      <trkpt lat="38.7628130" lon="-0.4955570">
        <ele>1107.8</ele>
        <time>2019-05-12T10:33:40Z</time>
      </trkpt>
      <trkpt lat="38.7627840" lon="-0.4955490">
        <ele>1107.6</ele>
        <time>2019-05-12T10:33:41Z</time>
      </trkpt>
      <trkpt lat="38.7626860" lon="-0.4956100">
        <ele>1107.4</ele>
        <time>2019-05-12T10:33:44Z</time>
      </trkpt>
      <trkpt lat="38.7626530" lon="-0.4956440">
        <ele>1107.4</ele>
        <time>2019-05-12T10:33:45Z</time>
      </trkpt>
      <trkpt lat="38.7626270" lon="-0.4957440">
        <ele>1106.2</ele>
        <time>2019-05-12T10:33:47Z</time>
      </trkpt>
      <trkpt lat="38.7625840" lon="-0.4958520">
        <ele>1106.0</ele>
        <time>2019-05-12T10:33:49Z</time>
      </trkpt>
      <trkpt lat="38.7625410" lon="-0.4959630">
        <ele>1105.2</ele>
        <time>2019-05-12T10:33:51Z</time>
      </trkpt>
      <trkpt lat="38.7625030" lon="-0.4960700">
        <ele>1104.2</ele>
        <time>2019-05-12T10:33:53Z</time>
      </trkpt>
      <trkpt lat="38.7625010" lon="-0.4961180">
        <ele>1103.8</ele>
        <time>2019-05-12T10:33:54Z</time>
      </trkpt>
      <trkpt lat="38.7625160" lon="-0.4961630">
        <ele>1103.6</ele>
        <time>2019-05-12T10:33:55Z</time>
      </trkpt>
      <trkpt lat="38.7625580" lon="-0.4962700">
        <ele>1102.6</ele>
        <time>2019-05-12T10:33:57Z</time>
      </trkpt>
      <trkpt lat="38.7625460" lon="-0.4963310">
        <ele>1102.4</ele>
        <time>2019-05-12T10:33:58Z</time>
      </trkpt>
      <trkpt lat="38.7625130" lon="-0.4964600">
        <ele>1101.2</ele>
        <time>2019-05-12T10:34:00Z</time>
      </trkpt>
      <trkpt lat="38.7624920" lon="-0.4965150">
        <ele>1100.6</ele>
        <time>2019-05-12T10:34:01Z</time>
      </trkpt>
      <trkpt lat="38.7624800" lon="-0.4965830">
        <ele>1100.4</ele>
        <time>2019-05-12T10:34:02Z</time>
      </trkpt>
      <trkpt lat="38.7624760" lon="-0.4966510">
        <ele>1099.6</ele>
        <time>2019-05-12T10:34:03Z</time>
      </trkpt>
      <trkpt lat="38.7624510" lon="-0.4968290">
        <ele>1098.8</ele>
        <time>2019-05-12T10:34:06Z</time>
      </trkpt>
      <trkpt lat="38.7624520" lon="-0.4968980">
        <ele>1098.4</ele>
        <time>2019-05-12T10:34:07Z</time>
      </trkpt>
      <trkpt lat="38.7624520" lon="-0.4969720">
        <ele>1098.0</ele>
        <time>2019-05-12T10:34:08Z</time>
      </trkpt>
      <trkpt lat="38.7624440" lon="-0.4970390">
        <ele>1097.0</ele>
        <time>2019-05-12T10:34:09Z</time>
      </trkpt>
      <trkpt lat="38.7624290" lon="-0.4971020">
        <ele>1096.2</ele>
        <time>2019-05-12T10:34:10Z</time>
      </trkpt>
      <trkpt lat="38.7624280" lon="-0.4971690">
        <ele>1095.4</ele>
        <time>2019-05-12T10:34:11Z</time>
      </trkpt>
      <trkpt lat="38.7624350" lon="-0.4973130">
        <ele>1094.8</ele>
        <time>2019-05-12T10:34:13Z</time>
      </trkpt>
      <trkpt lat="38.7624440" lon="-0.4973890">
        <ele>1094.4</ele>
        <time>2019-05-12T10:34:14Z</time>
      </trkpt>
      <trkpt lat="38.7624490" lon="-0.4974670">
        <ele>1094.2</ele>
        <time>2019-05-12T10:34:15Z</time>
      </trkpt>
      <trkpt lat="38.7624470" lon="-0.4975530">
        <ele>1093.8</ele>
        <time>2019-05-12T10:34:16Z</time>
      </trkpt>
      <trkpt lat="38.7624110" lon="-0.4978210">
        <ele>1093.0</ele>
        <time>2019-05-12T10:34:19Z</time>
      </trkpt>
      <trkpt lat="38.7623180" lon="-0.4981740">
        <ele>1092.2</ele>
        <time>2019-05-12T10:34:23Z</time>
      </trkpt>
      <trkpt lat="38.7623040" lon="-0.4982610">
        <ele>1091.6</ele>
        <time>2019-05-12T10:34:24Z</time>
      </trkpt>
      <trkpt lat="38.7622990" lon="-0.4983530">
        <ele>1090.8</ele>
        <time>2019-05-12T10:34:25Z</time>
      </trkpt>
      <trkpt lat="38.7622960" lon="-0.4984500">
        <ele>1090.4</ele>
        <time>2019-05-12T10:34:26Z</time>
      </trkpt>
      <trkpt lat="38.7622830" lon="-0.4985500">
        <ele>1089.8</ele>
        <time>2019-05-12T10:34:27Z</time>
      </trkpt>
      <trkpt lat="38.7622690" lon="-0.4986430">
        <ele>1089.4</ele>
        <time>2019-05-12T10:34:28Z</time>
      </trkpt>
      <trkpt lat="38.7622710" lon="-0.4987390">
        <ele>1088.0</ele>
        <time>2019-05-12T10:34:29Z</time>
      </trkpt>
      <trkpt lat="38.7622760" lon="-0.4989430">
        <ele>1086.6</ele>
        <time>2019-05-12T10:34:31Z</time>
      </trkpt>
      <trkpt lat="38.7622470" lon="-0.4991320">
        <ele>1085.4</ele>
        <time>2019-05-12T10:34:33Z</time>
      </trkpt>
      <trkpt lat="38.7622420" lon="-0.4992150">
        <ele>1085.2</ele>
        <time>2019-05-12T10:34:34Z</time>
      </trkpt>
      <trkpt lat="38.7622200" lon="-0.4993780">
        <ele>1085.0</ele>
        <time>2019-05-12T10:34:36Z</time>
      </trkpt>
      <trkpt lat="38.7622130" lon="-0.4994680">
        <ele>1084.2</ele>
        <time>2019-05-12T10:34:37Z</time>
      </trkpt>
      <trkpt lat="38.7621970" lon="-0.4995460">
        <ele>1083.4</ele>
        <time>2019-05-12T10:34:38Z</time>
      </trkpt>
      <trkpt lat="38.7621680" lon="-0.4996180">
        <ele>1082.6</ele>
        <time>2019-05-12T10:34:39Z</time>
      </trkpt>
      <trkpt lat="38.7620150" lon="-0.4997950">
        <ele>1081.4</ele>
        <time>2019-05-12T10:34:42Z</time>
      </trkpt>
      <trkpt lat="38.7618170" lon="-0.4999910">
        <ele>1081.4</ele>
        <time>2019-05-12T10:34:46Z</time>
      </trkpt>
      <trkpt lat="38.7617800" lon="-0.5000490">
        <ele>1081.4</ele>
        <time>2019-05-12T10:34:47Z</time>
      </trkpt>
      <trkpt lat="38.7617400" lon="-0.5000930">
        <ele>1081.6</ele>
        <time>2019-05-12T10:34:48Z</time>
      </trkpt>
      <trkpt lat="38.7616680" lon="-0.5001890">
        <ele>1081.6</ele>
        <time>2019-05-12T10:34:50Z</time>
      </trkpt>
      <trkpt lat="38.7616520" lon="-0.5002470">
        <ele>1081.0</ele>
        <time>2019-05-12T10:34:51Z</time>
      </trkpt>
      <trkpt lat="38.7615550" lon="-0.5004600">
        <ele>1079.8</ele>
        <time>2019-05-12T10:34:55Z</time>
      </trkpt>
      <trkpt lat="38.7614620" lon="-0.5005420">
        <ele>1078.2</ele>
        <time>2019-05-12T10:34:57Z</time>
      </trkpt>
      <trkpt lat="38.7614090" lon="-0.5005860">
        <ele>1078.0</ele>
        <time>2019-05-12T10:34:58Z</time>
      </trkpt>
      <trkpt lat="38.7613560" lon="-0.5006370">
        <ele>1077.8</ele>
        <time>2019-05-12T10:34:59Z</time>
      </trkpt>
      <trkpt lat="38.7612370" lon="-0.5007260">
        <ele>1077.0</ele>
        <time>2019-05-12T10:35:01Z</time>
      </trkpt>
      <trkpt lat="38.7611440" lon="-0.5008420">
        <ele>1077.0</ele>
        <time>2019-05-12T10:35:03Z</time>
      </trkpt>
      <trkpt lat="38.7610470" lon="-0.5010310">
        <ele>1076.2</ele>
        <time>2019-05-12T10:35:06Z</time>
      </trkpt>
      <trkpt lat="38.7610190" lon="-0.5010970">
        <ele>1076.0</ele>
        <time>2019-05-12T10:35:07Z</time>
      </trkpt>
      <trkpt lat="38.7609880" lon="-0.5011670">
        <ele>1075.6</ele>
        <time>2019-05-12T10:35:08Z</time>
      </trkpt>
      <trkpt lat="38.7609390" lon="-0.5012910">
        <ele>1074.2</ele>
        <time>2019-05-12T10:35:10Z</time>
      </trkpt>
      <trkpt lat="38.7609030" lon="-0.5014020">
        <ele>1074.2</ele>
        <time>2019-05-12T10:35:12Z</time>
      </trkpt>
      <trkpt lat="38.7608500" lon="-0.5015250">
        <ele>1074.0</ele>
        <time>2019-05-12T10:35:14Z</time>
      </trkpt>
      <trkpt lat="38.7608060" lon="-0.5016230">
        <ele>1072.6</ele>
        <time>2019-05-12T10:35:16Z</time>
      </trkpt>
      <trkpt lat="38.7607660" lon="-0.5017040">
        <ele>1071.6</ele>
        <time>2019-05-12T10:35:18Z</time>
      </trkpt>
      <trkpt lat="38.7607050" lon="-0.5018060">
        <ele>1070.2</ele>
        <time>2019-05-12T10:35:20Z</time>
      </trkpt>
      <trkpt lat="38.7606790" lon="-0.5018680">
        <ele>1070.0</ele>
        <time>2019-05-12T10:35:21Z</time>
      </trkpt>
      <trkpt lat="38.7606170" lon="-0.5019970">
        <ele>1069.0</ele>
        <time>2019-05-12T10:35:23Z</time>
      </trkpt>
      <trkpt lat="38.7605800" lon="-0.5020640">
        <ele>1068.4</ele>
        <time>2019-05-12T10:35:24Z</time>
      </trkpt>
      <trkpt lat="38.7605420" lon="-0.5021230">
        <ele>1067.4</ele>
        <time>2019-05-12T10:35:25Z</time>
      </trkpt>
      <trkpt lat="38.7605010" lon="-0.5021790">
        <ele>1066.4</ele>
        <time>2019-05-12T10:35:26Z</time>
      </trkpt>
      <trkpt lat="38.7604600" lon="-0.5022440">
        <ele>1065.8</ele>
        <time>2019-05-12T10:35:27Z</time>
      </trkpt>
      <trkpt lat="38.7604140" lon="-0.5023010">
        <ele>1065.8</ele>
        <time>2019-05-12T10:35:28Z</time>
      </trkpt>
      <trkpt lat="38.7602800" lon="-0.5024780">
        <ele>1064.6</ele>
        <time>2019-05-12T10:35:31Z</time>
      </trkpt>
      <trkpt lat="38.7601780" lon="-0.5025640">
        <ele>1064.0</ele>
        <time>2019-05-12T10:35:33Z</time>
      </trkpt>
      <trkpt lat="38.7600730" lon="-0.5026450">
        <ele>1063.6</ele>
        <time>2019-05-12T10:35:35Z</time>
      </trkpt>
      <trkpt lat="38.7599640" lon="-0.5027350">
        <ele>1062.2</ele>
        <time>2019-05-12T10:35:37Z</time>
      </trkpt>
      <trkpt lat="38.7599170" lon="-0.5027840">
        <ele>1061.0</ele>
        <time>2019-05-12T10:35:38Z</time>
      </trkpt>
      <trkpt lat="38.7598780" lon="-0.5028310">
        <ele>1060.8</ele>
        <time>2019-05-12T10:35:39Z</time>
      </trkpt>
      <trkpt lat="38.7598210" lon="-0.5029180">
        <ele>1061.4</ele>
        <time>2019-05-12T10:35:41Z</time>
      </trkpt>
      <trkpt lat="38.7597690" lon="-0.5029870">
        <ele>1061.8</ele>
        <time>2019-05-12T10:35:43Z</time>
      </trkpt>
      <trkpt lat="38.7597490" lon="-0.5030340">
        <ele>1062.6</ele>
        <time>2019-05-12T10:35:44Z</time>
      </trkpt>
      <trkpt lat="38.7597270" lon="-0.5030860">
        <ele>1062.6</ele>
        <time>2019-05-12T10:35:45Z</time>
      </trkpt>
      <trkpt lat="38.7596730" lon="-0.5031880">
        <ele>1062.2</ele>
        <time>2019-05-12T10:35:47Z</time>
      </trkpt>
      <trkpt lat="38.7596100" lon="-0.5032960">
        <ele>1061.4</ele>
        <time>2019-05-12T10:35:49Z</time>
      </trkpt>
      <trkpt lat="38.7594480" lon="-0.5035060">
        <ele>1060.4</ele>
        <time>2019-05-12T10:35:53Z</time>
      </trkpt>
      <trkpt lat="38.7593310" lon="-0.5036760">
        <ele>1059.8</ele>
        <time>2019-05-12T10:35:56Z</time>
      </trkpt>
      <trkpt lat="38.7592600" lon="-0.5037910">
        <ele>1059.6</ele>
        <time>2019-05-12T10:35:58Z</time>
      </trkpt>
      <trkpt lat="38.7591840" lon="-0.5039030">
        <ele>1059.2</ele>
        <time>2019-05-12T10:36:00Z</time>
      </trkpt>
      <trkpt lat="38.7591280" lon="-0.5040020">
        <ele>1059.2</ele>
        <time>2019-05-12T10:36:02Z</time>
      </trkpt>
      <trkpt lat="38.7591090" lon="-0.5040390">
        <ele>1059.4</ele>
        <time>2019-05-12T10:36:03Z</time>
      </trkpt>
      <trkpt lat="38.7590840" lon="-0.5040610">
        <ele>1059.6</ele>
        <time>2019-05-12T10:36:04Z</time>
      </trkpt>
      <trkpt lat="38.7590190" lon="-0.5040660">
        <ele>1059.8</ele>
        <time>2019-05-12T10:36:06Z</time>
      </trkpt>
      <trkpt lat="38.7589610" lon="-0.5040080">
        <ele>1059.2</ele>
        <time>2019-05-12T10:36:08Z</time>
      </trkpt>
      <trkpt lat="38.7589190" lon="-0.5039740">
        <ele>1058.2</ele>
        <time>2019-05-12T10:36:09Z</time>
      </trkpt>
      <trkpt lat="38.7588780" lon="-0.5039580">
        <ele>1057.6</ele>
        <time>2019-05-12T10:36:10Z</time>
      </trkpt>
      <trkpt lat="38.7588010" lon="-0.5039120">
        <ele>1056.8</ele>
        <time>2019-05-12T10:36:12Z</time>
      </trkpt>
      <trkpt lat="38.7587740" lon="-0.5039050">
        <ele>1056.6</ele>
        <time>2019-05-12T10:36:13Z</time>
      </trkpt>
      <trkpt lat="38.7587100" lon="-0.5039120">
        <ele>1056.4</ele>
        <time>2019-05-12T10:36:15Z</time>
      </trkpt>
      <trkpt lat="38.7586390" lon="-0.5039710">
        <ele>1056.2</ele>
        <time>2019-05-12T10:36:17Z</time>
      </trkpt>
      <trkpt lat="38.7585440" lon="-0.5040020">
        <ele>1055.8</ele>
        <time>2019-05-12T10:36:19Z</time>
      </trkpt>
      <trkpt lat="38.7584950" lon="-0.5040240">
        <ele>1055.6</ele>
        <time>2019-05-12T10:36:20Z</time>
      </trkpt>
      <trkpt lat="38.7584420" lon="-0.5040320">
        <ele>1055.2</ele>
        <time>2019-05-12T10:36:21Z</time>
      </trkpt>
      <trkpt lat="38.7583250" lon="-0.5040550">
        <ele>1055.0</ele>
        <time>2019-05-12T10:36:24Z</time>
      </trkpt>
      <trkpt lat="38.7582880" lon="-0.5040590">
        <ele>1055.2</ele>
        <time>2019-05-12T10:36:25Z</time>
      </trkpt>
      <trkpt lat="38.7582200" lon="-0.5040940">
        <ele>1054.8</ele>
        <time>2019-05-12T10:36:27Z</time>
      </trkpt>
      <trkpt lat="38.7581950" lon="-0.5041200">
        <ele>1054.8</ele>
        <time>2019-05-12T10:36:28Z</time>
      </trkpt>
      <trkpt lat="38.7581600" lon="-0.5041280">
        <ele>1054.8</ele>
        <time>2019-05-12T10:36:29Z</time>
      </trkpt>
      <trkpt lat="38.7580670" lon="-0.5041260">
        <ele>1054.4</ele>
        <time>2019-05-12T10:36:31Z</time>
      </trkpt>
      <trkpt lat="38.7579680" lon="-0.5041210">
        <ele>1053.6</ele>
        <time>2019-05-12T10:36:33Z</time>
      </trkpt>
      <trkpt lat="38.7578210" lon="-0.5041270">
        <ele>1053.2</ele>
        <time>2019-05-12T10:36:36Z</time>
      </trkpt>
      <trkpt lat="38.7576690" lon="-0.5041240">
        <ele>1052.8</ele>
        <time>2019-05-12T10:36:39Z</time>
      </trkpt>
      <trkpt lat="38.7576230" lon="-0.5041140">
        <ele>1052.8</ele>
        <time>2019-05-12T10:36:40Z</time>
      </trkpt>
      <trkpt lat="38.7574900" lon="-0.5041760">
        <ele>1052.8</ele>
        <time>2019-05-12T10:36:43Z</time>
      </trkpt>
      <trkpt lat="38.7573880" lon="-0.5041960">
        <ele>1052.2</ele>
        <time>2019-05-12T10:36:45Z</time>
      </trkpt>
      <trkpt lat="38.7573370" lon="-0.5041840">
        <ele>1051.8</ele>
        <time>2019-05-12T10:36:46Z</time>
      </trkpt>
      <trkpt lat="38.7572310" lon="-0.5042020">
        <ele>1051.2</ele>
        <time>2019-05-12T10:36:48Z</time>
      </trkpt>
      <trkpt lat="38.7571040" lon="-0.5042330">
        <ele>1051.0</ele>
        <time>2019-05-12T10:36:50Z</time>
      </trkpt>
      <trkpt lat="38.7569620" lon="-0.5042770">
        <ele>1050.2</ele>
        <time>2019-05-12T10:36:52Z</time>
      </trkpt>
      <trkpt lat="38.7568110" lon="-0.5043290">
        <ele>1048.6</ele>
        <time>2019-05-12T10:36:54Z</time>
      </trkpt>
      <trkpt lat="38.7566530" lon="-0.5043580">
        <ele>1047.6</ele>
        <time>2019-05-12T10:36:56Z</time>
      </trkpt>
      <trkpt lat="38.7565720" lon="-0.5043750">
        <ele>1047.0</ele>
        <time>2019-05-12T10:36:57Z</time>
      </trkpt>
      <trkpt lat="38.7564040" lon="-0.5043960">
        <ele>1044.6</ele>
        <time>2019-05-12T10:36:59Z</time>
      </trkpt>
      <trkpt lat="38.7563240" lon="-0.5044160">
        <ele>1044.6</ele>
        <time>2019-05-12T10:37:00Z</time>
      </trkpt>
      <trkpt lat="38.7562580" lon="-0.5044200">
        <ele>1044.4</ele>
        <time>2019-05-12T10:37:01Z</time>
      </trkpt>
      <trkpt lat="38.7561280" lon="-0.5043510">
        <ele>1044.6</ele>
        <time>2019-05-12T10:37:03Z</time>
      </trkpt>
      <trkpt lat="38.7559880" lon="-0.5042470">
        <ele>1044.4</ele>
        <time>2019-05-12T10:37:05Z</time>
      </trkpt>
      <trkpt lat="38.7558040" lon="-0.5041040">
        <ele>1044.0</ele>
        <time>2019-05-12T10:37:08Z</time>
      </trkpt>
      <trkpt lat="38.7557020" lon="-0.5038800">
        <ele>1043.8</ele>
        <time>2019-05-12T10:37:11Z</time>
      </trkpt>
      <trkpt lat="38.7556620" lon="-0.5038080">
        <ele>1043.6</ele>
        <time>2019-05-12T10:37:12Z</time>
      </trkpt>
      <trkpt lat="38.7555230" lon="-0.5035150">
        <ele>1043.2</ele>
        <time>2019-05-12T10:37:16Z</time>
      </trkpt>
      <trkpt lat="38.7553820" lon="-0.5033020">
        <ele>1043.4</ele>
        <time>2019-05-12T10:37:20Z</time>
      </trkpt>
      <trkpt lat="38.7552210" lon="-0.5031990">
        <ele>1043.2</ele>
        <time>2019-05-12T10:37:24Z</time>
      </trkpt>
      <trkpt lat="38.7550070" lon="-0.5031090">
        <ele>1043.2</ele>
        <time>2019-05-12T10:37:29Z</time>
      </trkpt>
      <trkpt lat="38.7549600" lon="-0.5030810">
        <ele>1043.0</ele>
        <time>2019-05-12T10:37:30Z</time>
      </trkpt>
      <trkpt lat="38.7548570" lon="-0.5030220">
        <ele>1042.4</ele>
        <time>2019-05-12T10:37:32Z</time>
      </trkpt>
      <trkpt lat="38.7547150" lon="-0.5029580">
        <ele>1042.2</ele>
        <time>2019-05-12T10:37:35Z</time>
      </trkpt>
      <trkpt lat="38.7545800" lon="-0.5030240">
        <ele>1042.0</ele>
        <time>2019-05-12T10:37:38Z</time>
      </trkpt>
      <trkpt lat="38.7544140" lon="-0.5032140">
        <ele>1041.2</ele>
        <time>2019-05-12T10:37:42Z</time>
      </trkpt>
      <trkpt lat="38.7543680" lon="-0.5032500">
        <ele>1040.8</ele>
        <time>2019-05-12T10:37:43Z</time>
      </trkpt>
      <trkpt lat="38.7543140" lon="-0.5032580">
        <ele>1040.2</ele>
        <time>2019-05-12T10:37:44Z</time>
      </trkpt>
      <trkpt lat="38.7542590" lon="-0.5032560">
        <ele>1039.4</ele>
        <time>2019-05-12T10:37:45Z</time>
      </trkpt>
      <trkpt lat="38.7542020" lon="-0.5032620">
        <ele>1039.2</ele>
        <time>2019-05-12T10:37:46Z</time>
      </trkpt>
      <trkpt lat="38.7541390" lon="-0.5033110">
        <ele>1039.2</ele>
        <time>2019-05-12T10:37:48Z</time>
      </trkpt>
      <trkpt lat="38.7539780" lon="-0.5034280">
        <ele>1038.4</ele>
        <time>2019-05-12T10:37:52Z</time>
      </trkpt>
      <trkpt lat="38.7539220" lon="-0.5034340">
        <ele>1037.2</ele>
        <time>2019-05-12T10:37:53Z</time>
      </trkpt>
      <trkpt lat="38.7538710" lon="-0.5034110">
        <ele>1036.2</ele>
        <time>2019-05-12T10:37:54Z</time>
      </trkpt>
      <trkpt lat="38.7538190" lon="-0.5033760">
        <ele>1035.4</ele>
        <time>2019-05-12T10:37:55Z</time>
      </trkpt>
      <trkpt lat="38.7537000" lon="-0.5033420">
        <ele>1034.8</ele>
        <time>2019-05-12T10:37:57Z</time>
      </trkpt>
      <trkpt lat="38.7536360" lon="-0.5033330">
        <ele>1034.4</ele>
        <time>2019-05-12T10:37:58Z</time>
      </trkpt>
      <trkpt lat="38.7535830" lon="-0.5033220">
        <ele>1033.8</ele>
        <time>2019-05-12T10:37:59Z</time>
      </trkpt>
      <trkpt lat="38.7533610" lon="-0.5032900">
        <ele>1036.0</ele>
        <time>2019-05-12T10:38:04Z</time>
      </trkpt>
      <trkpt lat="38.7532460" lon="-0.5032870">
        <ele>1036.2</ele>
        <time>2019-05-12T10:38:07Z</time>
      </trkpt>
      <trkpt lat="38.7531410" lon="-0.5032890">
        <ele>1036.2</ele>
        <time>2019-05-12T10:38:09Z</time>
      </trkpt>
      <trkpt lat="38.7529050" lon="-0.5033250">
        <ele>1034.8</ele>
        <time>2019-05-12T10:38:13Z</time>
      </trkpt>
      <trkpt lat="38.7527870" lon="-0.5033480">
        <ele>1034.6</ele>
        <time>2019-05-12T10:38:15Z</time>
      </trkpt>
      <trkpt lat="38.7527330" lon="-0.5033480">
        <ele>1034.2</ele>
        <time>2019-05-12T10:38:16Z</time>
      </trkpt>
      <trkpt lat="38.7526230" lon="-0.5033300">
        <ele>1035.0</ele>
        <time>2019-05-12T10:38:19Z</time>
      </trkpt>
      <trkpt lat="38.7525410" lon="-0.5033200">
        <ele>1035.4</ele>
        <time>2019-05-12T10:38:21Z</time>
      </trkpt>
      <trkpt lat="38.7524520" lon="-0.5033520">
        <ele>1035.0</ele>
        <time>2019-05-12T10:38:23Z</time>
      </trkpt>
      <trkpt lat="38.7523550" lon="-0.5034030">
        <ele>1036.0</ele>
        <time>2019-05-12T10:38:26Z</time>
      </trkpt>
      <trkpt lat="38.7522980" lon="-0.5034190">
        <ele>1036.4</ele>
        <time>2019-05-12T10:38:28Z</time>
      </trkpt>
      <trkpt lat="38.7521740" lon="-0.5034490">
        <ele>1036.8</ele>
        <time>2019-05-12T10:38:31Z</time>
      </trkpt>
      <trkpt lat="38.7521320" lon="-0.5034740">
        <ele>1036.6</ele>
        <time>2019-05-12T10:38:32Z</time>
      </trkpt>
      <trkpt lat="38.7520140" lon="-0.5035730">
        <ele>1036.2</ele>
        <time>2019-05-12T10:38:35Z</time>
      </trkpt>
      <trkpt lat="38.7519160" lon="-0.5036770">
        <ele>1036.2</ele>
        <time>2019-05-12T10:38:38Z</time>
      </trkpt>
      <trkpt lat="38.7518340" lon="-0.5037450">
        <ele>1037.2</ele>
        <time>2019-05-12T10:38:41Z</time>
      </trkpt>
      <trkpt lat="38.7517730" lon="-0.5037780">
        <ele>1037.2</ele>
        <time>2019-05-12T10:38:43Z</time>
      </trkpt>
      <trkpt lat="38.7515630" lon="-0.5038290">
        <ele>1038.2</ele>
        <time>2019-05-12T10:38:49Z</time>
      </trkpt>
      <trkpt lat="38.7514020" lon="-0.5038130">
        <ele>1037.2</ele>
        <time>2019-05-12T10:38:52Z</time>
      </trkpt>
      <trkpt lat="38.7513460" lon="-0.5038170">
        <ele>1036.8</ele>
        <time>2019-05-12T10:38:53Z</time>
      </trkpt>
      <trkpt lat="38.7512300" lon="-0.5038280">
        <ele>1036.2</ele>
        <time>2019-05-12T10:38:55Z</time>
      </trkpt>
      <trkpt lat="38.7511770" lon="-0.5038430">
        <ele>1035.6</ele>
        <time>2019-05-12T10:38:56Z</time>
      </trkpt>
      <trkpt lat="38.7511240" lon="-0.5038550">
        <ele>1035.2</ele>
        <time>2019-05-12T10:38:57Z</time>
      </trkpt>
      <trkpt lat="38.7510090" lon="-0.5038780">
        <ele>1035.0</ele>
        <time>2019-05-12T10:38:59Z</time>
      </trkpt>
      <trkpt lat="38.7507950" lon="-0.5039010">
        <ele>1033.8</ele>
        <time>2019-05-12T10:39:02Z</time>
      </trkpt>
      <trkpt lat="38.7507220" lon="-0.5039140">
        <ele>1032.8</ele>
        <time>2019-05-12T10:39:03Z</time>
      </trkpt>
      <trkpt lat="38.7506500" lon="-0.5039340">
        <ele>1031.6</ele>
        <time>2019-05-12T10:39:04Z</time>
      </trkpt>
      <trkpt lat="38.7505750" lon="-0.5039360">
        <ele>1031.4</ele>
        <time>2019-05-12T10:39:05Z</time>
      </trkpt>
      <trkpt lat="38.7504300" lon="-0.5039300">
        <ele>1031.0</ele>
        <time>2019-05-12T10:39:07Z</time>
      </trkpt>
      <trkpt lat="38.7501570" lon="-0.5039210">
        <ele>1031.0</ele>
        <time>2019-05-12T10:39:11Z</time>
      </trkpt>
      <trkpt lat="38.7501010" lon="-0.5038960">
        <ele>1031.0</ele>
        <time>2019-05-12T10:39:12Z</time>
      </trkpt>
      <trkpt lat="38.7499350" lon="-0.5038610">
        <ele>1031.8</ele>
        <time>2019-05-12T10:39:15Z</time>
      </trkpt>
      <trkpt lat="38.7498460" lon="-0.5038610">
        <ele>1032.4</ele>
        <time>2019-05-12T10:39:17Z</time>
      </trkpt>
      <trkpt lat="38.7498060" lon="-0.5038670">
        <ele>1032.8</ele>
        <time>2019-05-12T10:39:18Z</time>
      </trkpt>
      <trkpt lat="38.7497210" lon="-0.5039110">
        <ele>1034.2</ele>
        <time>2019-05-12T10:39:21Z</time>
      </trkpt>
      <trkpt lat="38.7496930" lon="-0.5039190">
        <ele>1034.6</ele>
        <time>2019-05-12T10:39:22Z</time>
      </trkpt>
      <trkpt lat="38.7495080" lon="-0.5038960">
        <ele>1035.0</ele>
        <time>2019-05-12T10:39:27Z</time>
      </trkpt>
      <trkpt lat="38.7493700" lon="-0.5038610">
        <ele>1034.0</ele>
        <time>2019-05-12T10:39:30Z</time>
      </trkpt>
      <trkpt lat="38.7492470" lon="-0.5038360">
        <ele>1034.0</ele>
        <time>2019-05-12T10:39:33Z</time>
      </trkpt>
      <trkpt lat="38.7490660" lon="-0.5038430">
        <ele>1035.0</ele>
        <time>2019-05-12T10:39:38Z</time>
      </trkpt>
      <trkpt lat="38.7489590" lon="-0.5039790">
        <ele>1035.2</ele>
        <time>2019-05-12T10:39:42Z</time>
      </trkpt>
      <trkpt lat="38.7488700" lon="-0.5040680">
        <ele>1035.2</ele>
        <time>2019-05-12T10:39:45Z</time>
      </trkpt>
      <trkpt lat="38.7488310" lon="-0.5040880">
        <ele>1035.2</ele>
        <time>2019-05-12T10:39:46Z</time>
      </trkpt>
      <trkpt lat="38.7487930" lon="-0.5040900">
        <ele>1035.4</ele>
        <time>2019-05-12T10:39:47Z</time>
      </trkpt>
      <trkpt lat="38.7486520" lon="-0.5040570">
        <ele>1035.4</ele>
        <time>2019-05-12T10:39:50Z</time>
      </trkpt>
      <trkpt lat="38.7485980" lon="-0.5040450">
        <ele>1035.2</ele>
        <time>2019-05-12T10:39:51Z</time>
      </trkpt>
      <trkpt lat="38.7483550" lon="-0.5040550">
        <ele>1034.0</ele>
        <time>2019-05-12T10:39:55Z</time>
      </trkpt>
      <trkpt lat="38.7482960" lon="-0.5040670">
        <ele>1033.6</ele>
        <time>2019-05-12T10:39:56Z</time>
      </trkpt>
      <trkpt lat="38.7482450" lon="-0.5040860">
        <ele>1033.4</ele>
        <time>2019-05-12T10:39:57Z</time>
      </trkpt>
      <trkpt lat="38.7480330" lon="-0.5041800">
        <ele>1033.2</ele>
        <time>2019-05-12T10:40:01Z</time>
      </trkpt>
      <trkpt lat="38.7479830" lon="-0.5042180">
        <ele>1033.4</ele>
        <time>2019-05-12T10:40:02Z</time>
      </trkpt>
      <trkpt lat="38.7478370" lon="-0.5043290">
        <ele>1033.0</ele>
        <time>2019-05-12T10:40:05Z</time>
      </trkpt>
      <trkpt lat="38.7477800" lon="-0.5043600">
        <ele>1033.0</ele>
        <time>2019-05-12T10:40:06Z</time>
      </trkpt>
      <trkpt lat="38.7476660" lon="-0.5044210">
        <ele>1032.6</ele>
        <time>2019-05-12T10:40:08Z</time>
      </trkpt>
      <trkpt lat="38.7475280" lon="-0.5044900">
        <ele>1032.8</ele>
        <time>2019-05-12T10:40:11Z</time>
      </trkpt>
      <trkpt lat="38.7474870" lon="-0.5045200">
        <ele>1033.2</ele>
        <time>2019-05-12T10:40:12Z</time>
      </trkpt>
      <trkpt lat="38.7474040" lon="-0.5045720">
        <ele>1033.8</ele>
        <time>2019-05-12T10:40:14Z</time>
      </trkpt>
      <trkpt lat="38.7472610" lon="-0.5046510">
        <ele>1034.2</ele>
        <time>2019-05-12T10:40:17Z</time>
      </trkpt>
      <trkpt lat="38.7471540" lon="-0.5047050">
        <ele>1032.6</ele>
        <time>2019-05-12T10:40:19Z</time>
      </trkpt>
      <trkpt lat="38.7469890" lon="-0.5048220">
        <ele>1030.8</ele>
        <time>2019-05-12T10:40:22Z</time>
      </trkpt>
      <trkpt lat="38.7469110" lon="-0.5049490">
        <ele>1029.4</ele>
        <time>2019-05-12T10:40:24Z</time>
      </trkpt>
      <trkpt lat="38.7468890" lon="-0.5050250">
        <ele>1028.6</ele>
        <time>2019-05-12T10:40:25Z</time>
      </trkpt>
      <trkpt lat="38.7468860" lon="-0.5051210">
        <ele>1028.0</ele>
        <time>2019-05-12T10:40:26Z</time>
      </trkpt>
      <trkpt lat="38.7468810" lon="-0.5052260">
        <ele>1026.8</ele>
        <time>2019-05-12T10:40:27Z</time>
      </trkpt>
      <trkpt lat="38.7468690" lon="-0.5053270">
        <ele>1026.0</ele>
        <time>2019-05-12T10:40:28Z</time>
      </trkpt>
      <trkpt lat="38.7468450" lon="-0.5054140">
        <ele>1025.0</ele>
        <time>2019-05-12T10:40:29Z</time>
      </trkpt>
      <trkpt lat="38.7467680" lon="-0.5055920">
        <ele>1023.6</ele>
        <time>2019-05-12T10:40:31Z</time>
      </trkpt>
      <trkpt lat="38.7466520" lon="-0.5057530">
        <ele>1022.6</ele>
        <time>2019-05-12T10:40:33Z</time>
      </trkpt>
      <trkpt lat="38.7465480" lon="-0.5059080">
        <ele>1022.0</ele>
        <time>2019-05-12T10:40:35Z</time>
      </trkpt>
      <trkpt lat="38.7465090" lon="-0.5059850">
        <ele>1022.6</ele>
        <time>2019-05-12T10:40:36Z</time>
      </trkpt>
      <trkpt lat="38.7464570" lon="-0.5061260">
        <ele>1024.0</ele>
        <time>2019-05-12T10:40:38Z</time>
      </trkpt>
      <trkpt lat="38.7464360" lon="-0.5061950">
        <ele>1024.6</ele>
        <time>2019-05-12T10:40:39Z</time>
      </trkpt>
      <trkpt lat="38.7464170" lon="-0.5062640">
        <ele>1025.2</ele>
        <time>2019-05-12T10:40:40Z</time>
      </trkpt>
      <trkpt lat="38.7464060" lon="-0.5063250">
        <ele>1025.2</ele>
        <time>2019-05-12T10:40:41Z</time>
      </trkpt>
      <trkpt lat="38.7463920" lon="-0.5064390">
        <ele>1024.8</ele>
        <time>2019-05-12T10:40:43Z</time>
      </trkpt>
      <trkpt lat="38.7463820" lon="-0.5065060">
        <ele>1024.0</ele>
        <time>2019-05-12T10:40:44Z</time>
      </trkpt>
      <trkpt lat="38.7463360" lon="-0.5066460">
        <ele>1023.0</ele>
        <time>2019-05-12T10:40:46Z</time>
      </trkpt>
      <trkpt lat="38.7462910" lon="-0.5067020">
        <ele>1022.2</ele>
        <time>2019-05-12T10:40:47Z</time>
      </trkpt>
      <trkpt lat="38.7462370" lon="-0.5067490">
        <ele>1021.8</ele>
        <time>2019-05-12T10:40:48Z</time>
      </trkpt>
      <trkpt lat="38.7461080" lon="-0.5068020">
        <ele>1021.4</ele>
        <time>2019-05-12T10:40:50Z</time>
      </trkpt>
      <trkpt lat="38.7460420" lon="-0.5068230">
        <ele>1021.4</ele>
        <time>2019-05-12T10:40:51Z</time>
      </trkpt>
      <trkpt lat="38.7458400" lon="-0.5069010">
        <ele>1020.4</ele>
        <time>2019-05-12T10:40:54Z</time>
      </trkpt>
      <trkpt lat="38.7457070" lon="-0.5069690">
        <ele>1019.2</ele>
        <time>2019-05-12T10:40:56Z</time>
      </trkpt>
      <trkpt lat="38.7455950" lon="-0.5070460">
        <ele>1018.2</ele>
        <time>2019-05-12T10:40:58Z</time>
      </trkpt>
      <trkpt lat="38.7455280" lon="-0.5071670">
        <ele>1017.0</ele>
        <time>2019-05-12T10:41:00Z</time>
      </trkpt>
      <trkpt lat="38.7455550" lon="-0.5074090">
        <ele>1015.8</ele>
        <time>2019-05-12T10:41:03Z</time>
      </trkpt>
      <trkpt lat="38.7455770" lon="-0.5075030">
        <ele>1014.6</ele>
        <time>2019-05-12T10:41:04Z</time>
      </trkpt>
      <trkpt lat="38.7455910" lon="-0.5075900">
        <ele>1013.6</ele>
        <time>2019-05-12T10:41:05Z</time>
      </trkpt>
      <trkpt lat="38.7456260" lon="-0.5076650">
        <ele>1012.8</ele>
        <time>2019-05-12T10:41:06Z</time>
      </trkpt>
      <trkpt lat="38.7456710" lon="-0.5077350">
        <ele>1012.0</ele>
        <time>2019-05-12T10:41:07Z</time>
      </trkpt>
      <trkpt lat="38.7457370" lon="-0.5078780">
        <ele>1009.8</ele>
        <time>2019-05-12T10:41:09Z</time>
      </trkpt>
      <trkpt lat="38.7457120" lon="-0.5080040">
        <ele>1009.6</ele>
        <time>2019-05-12T10:41:11Z</time>
      </trkpt>
      <trkpt lat="38.7456180" lon="-0.5080990">
        <ele>1008.6</ele>
        <time>2019-05-12T10:41:13Z</time>
      </trkpt>
      <trkpt lat="38.7455540" lon="-0.5081440">
        <ele>1007.8</ele>
        <time>2019-05-12T10:41:14Z</time>
      </trkpt>
      <trkpt lat="38.7454880" lon="-0.5081940">
        <ele>1006.8</ele>
        <time>2019-05-12T10:41:15Z</time>
      </trkpt>
      <trkpt lat="38.7453630" lon="-0.5082830">
        <ele>1005.2</ele>
        <time>2019-05-12T10:41:17Z</time>
      </trkpt>
      <trkpt lat="38.7453030" lon="-0.5083080">
        <ele>1004.4</ele>
        <time>2019-05-12T10:41:18Z</time>
      </trkpt>
      <trkpt lat="38.7452350" lon="-0.5083110">
        <ele>1003.8</ele>
        <time>2019-05-12T10:41:19Z</time>
      </trkpt>
      <trkpt lat="38.7451010" lon="-0.5082900">
        <ele>1003.0</ele>
        <time>2019-05-12T10:41:21Z</time>
      </trkpt>
      <trkpt lat="38.7450490" lon="-0.5083070">
        <ele>1002.8</ele>
        <time>2019-05-12T10:41:22Z</time>
      </trkpt>
      <trkpt lat="38.7449990" lon="-0.5084170">
        <ele>1002.8</ele>
        <time>2019-05-12T10:41:24Z</time>
      </trkpt>
      <trkpt lat="38.7449850" lon="-0.5085250">
        <ele>1003.4</ele>
        <time>2019-05-12T10:41:26Z</time>
      </trkpt>
      <trkpt lat="38.7449800" lon="-0.5085830">
        <ele>1004.2</ele>
        <time>2019-05-12T10:41:28Z</time>
      </trkpt>
      <trkpt lat="38.7449620" lon="-0.5086170">
        <ele>1004.8</ele>
        <time>2019-05-12T10:41:30Z</time>
      </trkpt>
      <trkpt lat="38.7449520" lon="-0.5086530">
        <ele>1005.4</ele>
        <time>2019-05-12T10:41:33Z</time>
      </trkpt>
      <trkpt lat="38.7449390" lon="-0.5086660">
        <ele>1005.8</ele>
        <time>2019-05-12T10:41:35Z</time>
      </trkpt>
      <trkpt lat="38.7449310" lon="-0.5086680">
        <ele>1005.8</ele>
        <time>2019-05-12T10:41:36Z</time>
      </trkpt>
      <trkpt lat="38.7449060" lon="-0.5086550">
        <ele>1006.0</ele>
        <time>2019-05-12T10:41:38Z</time>
      </trkpt>
      <trkpt lat="38.7449000" lon="-0.5086500">
        <ele>1006.4</ele>
        <time>2019-05-12T10:41:39Z</time>
      </trkpt>
      <trkpt lat="38.7448910" lon="-0.5086520">
        <ele>1006.6</ele>
        <time>2019-05-12T10:41:40Z</time>
      </trkpt>
      <trkpt lat="38.7448700" lon="-0.5086440">
        <ele>1007.0</ele>
        <time>2019-05-12T10:41:42Z</time>
      </trkpt>
      <trkpt lat="38.7448510" lon="-0.5086560">
        <ele>1007.4</ele>
        <time>2019-05-12T10:41:44Z</time>
      </trkpt>
      <trkpt lat="38.7448540" lon="-0.5086830">
        <ele>1007.8</ele>
        <time>2019-05-12T10:41:46Z</time>
      </trkpt>
      <trkpt lat="38.7448580" lon="-0.5087020">
        <ele>1008.0</ele>
        <time>2019-05-12T10:41:47Z</time>
      </trkpt>
      <trkpt lat="38.7448530" lon="-0.5087200">
        <ele>1008.0</ele>
        <time>2019-05-12T10:41:48Z</time>
      </trkpt>
      <trkpt lat="38.7447850" lon="-0.5088370">
        <ele>1007.8</ele>
        <time>2019-05-12T10:41:53Z</time>
      </trkpt>
      <trkpt lat="38.7447680" lon="-0.5088560">
        <ele>1008.2</ele>
        <time>2019-05-12T10:41:54Z</time>
      </trkpt>
      <trkpt lat="38.7446890" lon="-0.5089650">
        <ele>1009.2</ele>
        <time>2019-05-12T10:41:58Z</time>
      </trkpt>
      <trkpt lat="38.7446730" lon="-0.5090000">
        <ele>1009.4</ele>
        <time>2019-05-12T10:41:59Z</time>
      </trkpt>
      <trkpt lat="38.7446220" lon="-0.5090720">
        <ele>1010.2</ele>
        <time>2019-05-12T10:42:02Z</time>
      </trkpt>
      <trkpt lat="38.7445670" lon="-0.5091490">
        <ele>1011.2</ele>
        <time>2019-05-12T10:42:05Z</time>
      </trkpt>
      <trkpt lat="38.7445430" lon="-0.5091760">
        <ele>1011.4</ele>
        <time>2019-05-12T10:42:06Z</time>
      </trkpt>
      <trkpt lat="38.7444740" lon="-0.5092510">
        <ele>1012.2</ele>
        <time>2019-05-12T10:42:10Z</time>
      </trkpt>
      <trkpt lat="38.7444620" lon="-0.5092670">
        <ele>1012.6</ele>
        <time>2019-05-12T10:42:11Z</time>
      </trkpt>
      <trkpt lat="38.7444170" lon="-0.5093390">
        <ele>1013.6</ele>
        <time>2019-05-12T10:42:15Z</time>
      </trkpt>
      <trkpt lat="38.7443990" lon="-0.5093770">
        <ele>1014.2</ele>
        <time>2019-05-12T10:42:17Z</time>
      </trkpt>
      <trkpt lat="38.7443670" lon="-0.5094430">
        <ele>1014.6</ele>
        <time>2019-05-12T10:42:20Z</time>
      </trkpt>
      <trkpt lat="38.7443460" lon="-0.5094920">
        <ele>1014.8</ele>
        <time>2019-05-12T10:42:22Z</time>
      </trkpt>
      <trkpt lat="38.7443150" lon="-0.5095820">
        <ele>1015.8</ele>
        <time>2019-05-12T10:42:26Z</time>
      </trkpt>
      <trkpt lat="38.7442910" lon="-0.5096400">
        <ele>1016.6</ele>
        <time>2019-05-12T10:42:29Z</time>
      </trkpt>
      <trkpt lat="38.7442630" lon="-0.5096710">
        <ele>1017.0</ele>
        <time>2019-05-12T10:42:31Z</time>
      </trkpt>
      <trkpt lat="38.7442120" lon="-0.5097010">
        <ele>1018.2</ele>
        <time>2019-05-12T10:42:34Z</time>
      </trkpt>
      <trkpt lat="38.7441900" lon="-0.5097040">
        <ele>1018.6</ele>
        <time>2019-05-12T10:42:35Z</time>
      </trkpt>
      <trkpt lat="38.7441260" lon="-0.5096660">
        <ele>1019.4</ele>
        <time>2019-05-12T10:42:39Z</time>
      </trkpt>
      <trkpt lat="38.7441190" lon="-0.5096490">
        <ele>1019.4</ele>
        <time>2019-05-12T10:42:40Z</time>
      </trkpt>
      <trkpt lat="38.7441060" lon="-0.5095460">
        <ele>1020.2</ele>
        <time>2019-05-12T10:42:44Z</time>
      </trkpt>
      <trkpt lat="38.7441070" lon="-0.5094820">
        <ele>1020.2</ele>
        <time>2019-05-12T10:42:46Z</time>
      </trkpt>
      <trkpt lat="38.7441080" lon="-0.5094190">
        <ele>1020.4</ele>
        <time>2019-05-12T10:42:48Z</time>
      </trkpt>
      <trkpt lat="38.7440890" lon="-0.5092900">
        <ele>1020.8</ele>
        <time>2019-05-12T10:42:52Z</time>
      </trkpt>
      <trkpt lat="38.7440720" lon="-0.5090690">
        <ele>1021.2</ele>
        <time>2019-05-12T10:42:58Z</time>
      </trkpt>
      <trkpt lat="38.7440730" lon="-0.5090300">
        <ele>1021.4</ele>
        <time>2019-05-12T10:42:59Z</time>
      </trkpt>
      <trkpt lat="38.7441300" lon="-0.5088360">
        <ele>1021.8</ele>
        <time>2019-05-12T10:43:04Z</time>
      </trkpt>
      <trkpt lat="38.7441660" lon="-0.5086570">
        <ele>1022.2</ele>
        <time>2019-05-12T10:43:09Z</time>
      </trkpt>
      <trkpt lat="38.7442070" lon="-0.5084380">
        <ele>1022.6</ele>
        <time>2019-05-12T10:43:14Z</time>
      </trkpt>
      <trkpt lat="38.7442350" lon="-0.5083090">
        <ele>1022.6</ele>
        <time>2019-05-12T10:43:17Z</time>
      </trkpt>
      <trkpt lat="38.7442450" lon="-0.5081370">
        <ele>1023.2</ele>
        <time>2019-05-12T10:43:21Z</time>
      </trkpt>
      <trkpt lat="38.7442390" lon="-0.5080700">
        <ele>1023.8</ele>
        <time>2019-05-12T10:43:23Z</time>
      </trkpt>
      <trkpt lat="38.7442480" lon="-0.5079440">
        <ele>1025.0</ele>
        <time>2019-05-12T10:43:27Z</time>
      </trkpt>
      <trkpt lat="38.7442130" lon="-0.5078620">
        <ele>1026.2</ele>
        <time>2019-05-12T10:43:30Z</time>
      </trkpt>
      <trkpt lat="38.7441950" lon="-0.5078410">
        <ele>1026.4</ele>
        <time>2019-05-12T10:43:31Z</time>
      </trkpt>
      <trkpt lat="38.7441510" lon="-0.5078420">
        <ele>1027.2</ele>
        <time>2019-05-12T10:43:33Z</time>
      </trkpt>
      <trkpt lat="38.7441170" lon="-0.5078930">
        <ele>1027.8</ele>
        <time>2019-05-12T10:43:35Z</time>
      </trkpt>
      <trkpt lat="38.7441030" lon="-0.5079540">
        <ele>1028.2</ele>
        <time>2019-05-12T10:43:37Z</time>
      </trkpt>
      <trkpt lat="38.7440700" lon="-0.5080390">
        <ele>1028.8</ele>
        <time>2019-05-12T10:43:40Z</time>
      </trkpt>
      <trkpt lat="38.7440420" lon="-0.5080980">
        <ele>1029.2</ele>
        <time>2019-05-12T10:43:42Z</time>
      </trkpt>
      <trkpt lat="38.7440280" lon="-0.5081270">
        <ele>1029.2</ele>
        <time>2019-05-12T10:43:43Z</time>
      </trkpt>
      <trkpt lat="38.7439940" lon="-0.5082250">
        <ele>1029.6</ele>
        <time>2019-05-12T10:43:46Z</time>
      </trkpt>
      <trkpt lat="38.7439320" lon="-0.5084660">
        <ele>1029.4</ele>
        <time>2019-05-12T10:43:52Z</time>
      </trkpt>
      <trkpt lat="38.7438660" lon="-0.5087680">
        <ele>1029.0</ele>
        <time>2019-05-12T10:43:58Z</time>
      </trkpt>
      <trkpt lat="38.7438480" lon="-0.5088230">
        <ele>1029.2</ele>
        <time>2019-05-12T10:43:59Z</time>
      </trkpt>
      <trkpt lat="38.7438080" lon="-0.5089900">
        <ele>1028.2</ele>
        <time>2019-05-12T10:44:02Z</time>
      </trkpt>
      <trkpt lat="38.7437740" lon="-0.5091030">
        <ele>1028.2</ele>
        <time>2019-05-12T10:44:04Z</time>
      </trkpt>
      <trkpt lat="38.7436620" lon="-0.5095040">
        <ele>1028.0</ele>
        <time>2019-05-12T10:44:11Z</time>
      </trkpt>
      <trkpt lat="38.7435640" lon="-0.5097110">
        <ele>1028.2</ele>
        <time>2019-05-12T10:44:16Z</time>
      </trkpt>
      <trkpt lat="38.7434960" lon="-0.5097300">
        <ele>1028.8</ele>
        <time>2019-05-12T10:44:19Z</time>
      </trkpt>
      <trkpt lat="38.7434700" lon="-0.5097120">
        <ele>1029.2</ele>
        <time>2019-05-12T10:44:20Z</time>
      </trkpt>
      <trkpt lat="38.7434430" lon="-0.5096380">
        <ele>1030.8</ele>
        <time>2019-05-12T10:44:23Z</time>
      </trkpt>
      <trkpt lat="38.7434380" lon="-0.5096140">
        <ele>1031.2</ele>
        <time>2019-05-12T10:44:24Z</time>
      </trkpt>
      <trkpt lat="38.7434220" lon="-0.5095580">
        <ele>1031.8</ele>
        <time>2019-05-12T10:44:26Z</time>
      </trkpt>
      <trkpt lat="38.7433960" lon="-0.5094580">
        <ele>1032.6</ele>
        <time>2019-05-12T10:44:30Z</time>
      </trkpt>
      <trkpt lat="38.7433910" lon="-0.5094320">
        <ele>1033.2</ele>
        <time>2019-05-12T10:44:31Z</time>
      </trkpt>
      <trkpt lat="38.7433480" lon="-0.5093190">
        <ele>1034.6</ele>
        <time>2019-05-12T10:44:36Z</time>
      </trkpt>
      <trkpt lat="38.7433320" lon="-0.5092780">
        <ele>1035.4</ele>
        <time>2019-05-12T10:44:38Z</time>
      </trkpt>
      <trkpt lat="38.7433130" lon="-0.5092380">
        <ele>1036.0</ele>
        <time>2019-05-12T10:44:40Z</time>
      </trkpt>
      <trkpt lat="38.7432890" lon="-0.5091590">
        <ele>1037.0</ele>
        <time>2019-05-12T10:44:44Z</time>
      </trkpt>
      <trkpt lat="38.7432610" lon="-0.5090640">
        <ele>1038.2</ele>
        <time>2019-05-12T10:44:48Z</time>
      </trkpt>
      <trkpt lat="38.7432470" lon="-0.5090500">
        <ele>1038.6</ele>
        <time>2019-05-12T10:44:49Z</time>
      </trkpt>
      <trkpt lat="38.7432300" lon="-0.5090390">
        <ele>1038.8</ele>
        <time>2019-05-12T10:44:50Z</time>
      </trkpt>
      <trkpt lat="38.7432010" lon="-0.5090090">
        <ele>1039.4</ele>
        <time>2019-05-12T10:44:52Z</time>
      </trkpt>
      <trkpt lat="38.7431400" lon="-0.5089860">
        <ele>1040.4</ele>
        <time>2019-05-12T10:44:55Z</time>
      </trkpt>
      <trkpt lat="38.7431200" lon="-0.5089790">
        <ele>1041.0</ele>
        <time>2019-05-12T10:44:56Z</time>
      </trkpt>
      <trkpt lat="38.7430800" lon="-0.5089770">
        <ele>1041.4</ele>
        <time>2019-05-12T10:44:58Z</time>
      </trkpt>
      <trkpt lat="38.7429670" lon="-0.5089870">
        <ele>1042.2</ele>
        <time>2019-05-12T10:45:03Z</time>
      </trkpt>
      <trkpt lat="38.7428160" lon="-0.5090350">
        <ele>1041.6</ele>
        <time>2019-05-12T10:45:09Z</time>
      </trkpt>
      <trkpt lat="38.7426230" lon="-0.5090970">
        <ele>1040.4</ele>
        <time>2019-05-12T10:45:14Z</time>
      </trkpt>
      <trkpt lat="38.7424500" lon="-0.5091820">
        <ele>1039.2</ele>
        <time>2019-05-12T10:45:18Z</time>
      </trkpt>
      <trkpt lat="38.7424070" lon="-0.5092360">
        <ele>1038.6</ele>
        <time>2019-05-12T10:45:19Z</time>
      </trkpt>
      <trkpt lat="38.7423570" lon="-0.5092910">
        <ele>1038.0</ele>
        <time>2019-05-12T10:45:20Z</time>
      </trkpt>
      <trkpt lat="38.7423000" lon="-0.5093440">
        <ele>1036.4</ele>
        <time>2019-05-12T10:45:21Z</time>
      </trkpt>
      <trkpt lat="38.7421880" lon="-0.5094590">
        <ele>1034.2</ele>
        <time>2019-05-12T10:45:23Z</time>
      </trkpt>
      <trkpt lat="38.7421320" lon="-0.5095260">
        <ele>1033.0</ele>
        <time>2019-05-12T10:45:24Z</time>
      </trkpt>
      <trkpt lat="38.7420760" lon="-0.5096030">
        <ele>1031.8</ele>
        <time>2019-05-12T10:45:25Z</time>
      </trkpt>
      <trkpt lat="38.7420170" lon="-0.5096800">
        <ele>1030.4</ele>
        <time>2019-05-12T10:45:26Z</time>
      </trkpt>
      <trkpt lat="38.7419580" lon="-0.5097590">
        <ele>1029.0</ele>
        <time>2019-05-12T10:45:27Z</time>
      </trkpt>
      <trkpt lat="38.7418960" lon="-0.5098350">
        <ele>1027.4</ele>
        <time>2019-05-12T10:45:28Z</time>
      </trkpt>
      <trkpt lat="38.7418380" lon="-0.5099040">
        <ele>1025.6</ele>
        <time>2019-05-12T10:45:29Z</time>
      </trkpt>
      <trkpt lat="38.7417900" lon="-0.5099930">
        <ele>1024.2</ele>
        <time>2019-05-12T10:45:30Z</time>
      </trkpt>
      <trkpt lat="38.7417480" lon="-0.5101020">
        <ele>1023.0</ele>
        <time>2019-05-12T10:45:31Z</time>
      </trkpt>
      <trkpt lat="38.7417210" lon="-0.5101920">
        <ele>1022.2</ele>
        <time>2019-05-12T10:45:32Z</time>
      </trkpt>
      <trkpt lat="38.7416950" lon="-0.5102610">
        <ele>1021.6</ele>
        <time>2019-05-12T10:45:33Z</time>
      </trkpt>
      <trkpt lat="38.7416680" lon="-0.5103120">
        <ele>1020.8</ele>
        <time>2019-05-12T10:45:34Z</time>
      </trkpt>
      <trkpt lat="38.7416190" lon="-0.5103380">
        <ele>1020.2</ele>
        <time>2019-05-12T10:45:35Z</time>
      </trkpt>
      <trkpt lat="38.7415480" lon="-0.5102740">
        <ele>1019.6</ele>
        <time>2019-05-12T10:45:37Z</time>
      </trkpt>
      <trkpt lat="38.7415360" lon="-0.5101390">
        <ele>1018.8</ele>
        <time>2019-05-12T10:45:39Z</time>
      </trkpt>
      <trkpt lat="38.7415420" lon="-0.5100640">
        <ele>1018.2</ele>
        <time>2019-05-12T10:45:40Z</time>
      </trkpt>
      <trkpt lat="38.7415470" lon="-0.5099790">
        <ele>1017.6</ele>
        <time>2019-05-12T10:45:41Z</time>
      </trkpt>
      <trkpt lat="38.7415490" lon="-0.5097940">
        <ele>1016.6</ele>
        <time>2019-05-12T10:45:43Z</time>
      </trkpt>
      <trkpt lat="38.7415540" lon="-0.5096970">
        <ele>1016.0</ele>
        <time>2019-05-12T10:45:44Z</time>
      </trkpt>
      <trkpt lat="38.7415600" lon="-0.5096040">
        <ele>1015.4</ele>
        <time>2019-05-12T10:45:45Z</time>
      </trkpt>
      <trkpt lat="38.7415430" lon="-0.5095100">
        <ele>1013.8</ele>
        <time>2019-05-12T10:45:46Z</time>
      </trkpt>
      <trkpt lat="38.7414820" lon="-0.5093380">
        <ele>1012.8</ele>
        <time>2019-05-12T10:45:48Z</time>
      </trkpt>
      <trkpt lat="38.7414360" lon="-0.5090380">
        <ele>1011.4</ele>
        <time>2019-05-12T10:45:51Z</time>
      </trkpt>
      <trkpt lat="38.7414240" lon="-0.5089370">
        <ele>1011.2</ele>
        <time>2019-05-12T10:45:52Z</time>
      </trkpt>
      <trkpt lat="38.7413820" lon="-0.5087480">
        <ele>1010.8</ele>
        <time>2019-05-12T10:45:54Z</time>
      </trkpt>
      <trkpt lat="38.7413310" lon="-0.5085920">
        <ele>1010.8</ele>
        <time>2019-05-12T10:45:56Z</time>
      </trkpt>
      <trkpt lat="38.7412520" lon="-0.5084480">
        <ele>1010.6</ele>
        <time>2019-05-12T10:45:58Z</time>
      </trkpt>
      <trkpt lat="38.7412030" lon="-0.5083720">
        <ele>1010.2</ele>
        <time>2019-05-12T10:45:59Z</time>
      </trkpt>
      <trkpt lat="38.7411560" lon="-0.5082940">
        <ele>1009.8</ele>
        <time>2019-05-12T10:46:00Z</time>
      </trkpt>
      <trkpt lat="38.7410520" lon="-0.5081790">
        <ele>1009.2</ele>
        <time>2019-05-12T10:46:02Z</time>
      </trkpt>
      <trkpt lat="38.7409940" lon="-0.5081610">
        <ele>1009.0</ele>
        <time>2019-05-12T10:46:03Z</time>
      </trkpt>
      <trkpt lat="38.7408230" lon="-0.5082340">
        <ele>1009.4</ele>
        <time>2019-05-12T10:46:06Z</time>
      </trkpt>
      <trkpt lat="38.7407030" lon="-0.5083830">
        <ele>1007.4</ele>
        <time>2019-05-12T10:46:08Z</time>
      </trkpt>
      <trkpt lat="38.7406360" lon="-0.5084650">
        <ele>1006.0</ele>
        <time>2019-05-12T10:46:09Z</time>
      </trkpt>
      <trkpt lat="38.7405870" lon="-0.5085470">
        <ele>1004.6</ele>
        <time>2019-05-12T10:46:10Z</time>
      </trkpt>
      <trkpt lat="38.7405430" lon="-0.5086390">
        <ele>1001.8</ele>
        <time>2019-05-12T10:46:11Z</time>
      </trkpt>
      <trkpt lat="38.7405050" lon="-0.5087490">
        <ele>1000.8</ele>
        <time>2019-05-12T10:46:12Z</time>
      </trkpt>
      <trkpt lat="38.7404770" lon="-0.5088550">
        <ele>999.6</ele>
        <time>2019-05-12T10:46:13Z</time>
      </trkpt>
      <trkpt lat="38.7404390" lon="-0.5089650">
        <ele>998.2</ele>
        <time>2019-05-12T10:46:14Z</time>
      </trkpt>
      <trkpt lat="38.7403910" lon="-0.5090670">
        <ele>996.6</ele>
        <time>2019-05-12T10:46:15Z</time>
      </trkpt>
      <trkpt lat="38.7403320" lon="-0.5091510">
        <ele>995.4</ele>
        <time>2019-05-12T10:46:16Z</time>
      </trkpt>
      <trkpt lat="38.7402630" lon="-0.5092340">
        <ele>994.2</ele>
        <time>2019-05-12T10:46:17Z</time>
      </trkpt>
      <trkpt lat="38.7402050" lon="-0.5093310">
        <ele>993.2</ele>
        <time>2019-05-12T10:46:18Z</time>
      </trkpt>
      <trkpt lat="38.7401500" lon="-0.5094080">
        <ele>991.8</ele>
        <time>2019-05-12T10:46:19Z</time>
      </trkpt>
      <trkpt lat="38.7400830" lon="-0.5094630">
        <ele>990.2</ele>
        <time>2019-05-12T10:46:20Z</time>
      </trkpt>
      <trkpt lat="38.7400020" lon="-0.5094880">
        <ele>989.0</ele>
        <time>2019-05-12T10:46:21Z</time>
      </trkpt>
      <trkpt lat="38.7399240" lon="-0.5094980">
        <ele>987.8</ele>
        <time>2019-05-12T10:46:22Z</time>
      </trkpt>
      <trkpt lat="38.7397900" lon="-0.5095400">
        <ele>986.6</ele>
        <time>2019-05-12T10:46:24Z</time>
      </trkpt>
      <trkpt lat="38.7396570" lon="-0.5095980">
        <ele>984.8</ele>
        <time>2019-05-12T10:46:26Z</time>
      </trkpt>
      <trkpt lat="38.7395750" lon="-0.5096010">
        <ele>983.6</ele>
        <time>2019-05-12T10:46:27Z</time>
      </trkpt>
      <trkpt lat="38.7394840" lon="-0.5095920">
        <ele>982.4</ele>
        <time>2019-05-12T10:46:28Z</time>
      </trkpt>
      <trkpt lat="38.7393860" lon="-0.5095830">
        <ele>980.8</ele>
        <time>2019-05-12T10:46:29Z</time>
      </trkpt>
      <trkpt lat="38.7392870" lon="-0.5095810">
        <ele>979.4</ele>
        <time>2019-05-12T10:46:30Z</time>
      </trkpt>
      <trkpt lat="38.7391820" lon="-0.5095950">
        <ele>978.4</ele>
        <time>2019-05-12T10:46:31Z</time>
      </trkpt>
      <trkpt lat="38.7390790" lon="-0.5096230">
        <ele>977.2</ele>
        <time>2019-05-12T10:46:32Z</time>
      </trkpt>
      <trkpt lat="38.7389790" lon="-0.5096770">
        <ele>976.4</ele>
        <time>2019-05-12T10:46:33Z</time>
      </trkpt>
      <trkpt lat="38.7388930" lon="-0.5097420">
        <ele>974.8</ele>
        <time>2019-05-12T10:46:34Z</time>
      </trkpt>
      <trkpt lat="38.7388180" lon="-0.5098100">
        <ele>973.8</ele>
        <time>2019-05-12T10:46:35Z</time>
      </trkpt>
      <trkpt lat="38.7387490" lon="-0.5098790">
        <ele>974.8</ele>
        <time>2019-05-12T10:46:36Z</time>
      </trkpt>
      <trkpt lat="38.7386880" lon="-0.5099390">
        <ele>976.0</ele>
        <time>2019-05-12T10:46:37Z</time>
      </trkpt>
      <trkpt lat="38.7385660" lon="-0.5100230">
        <ele>977.6</ele>
        <time>2019-05-12T10:46:39Z</time>
      </trkpt>
      <trkpt lat="38.7385090" lon="-0.5100690">
        <ele>978.2</ele>
        <time>2019-05-12T10:46:40Z</time>
      </trkpt>
      <trkpt lat="38.7384530" lon="-0.5101140">
        <ele>978.8</ele>
        <time>2019-05-12T10:46:41Z</time>
      </trkpt>
      <trkpt lat="38.7383100" lon="-0.5102610">
        <ele>979.2</ele>
        <time>2019-05-12T10:46:44Z</time>
      </trkpt>
      <trkpt lat="38.7382680" lon="-0.5103190">
        <ele>979.0</ele>
        <time>2019-05-12T10:46:45Z</time>
      </trkpt>
      <trkpt lat="38.7381030" lon="-0.5105140">
        <ele>979.4</ele>
        <time>2019-05-12T10:46:49Z</time>
      </trkpt>
      <trkpt lat="38.7380480" lon="-0.5105400">
        <ele>979.2</ele>
        <time>2019-05-12T10:46:50Z</time>
      </trkpt>
      <trkpt lat="38.7378590" lon="-0.5106750">
        <ele>978.6</ele>
        <time>2019-05-12T10:46:54Z</time>
      </trkpt>
      <trkpt lat="38.7378030" lon="-0.5108950">
        <ele>977.8</ele>
        <time>2019-05-12T10:46:57Z</time>
      </trkpt>
      <trkpt lat="38.7377950" lon="-0.5109800">
        <ele>977.4</ele>
        <time>2019-05-12T10:46:58Z</time>
      </trkpt>
      <trkpt lat="38.7378150" lon="-0.5111460">
        <ele>976.2</ele>
        <time>2019-05-12T10:47:00Z</time>
      </trkpt>
      <trkpt lat="38.7377740" lon="-0.5113800">
        <ele>975.0</ele>
        <time>2019-05-12T10:47:03Z</time>
      </trkpt>
      <trkpt lat="38.7377450" lon="-0.5114530">
        <ele>974.6</ele>
        <time>2019-05-12T10:47:04Z</time>
      </trkpt>
      <trkpt lat="38.7377120" lon="-0.5115380">
        <ele>974.2</ele>
        <time>2019-05-12T10:47:05Z</time>
      </trkpt>
      <trkpt lat="38.7376850" lon="-0.5116320">
        <ele>973.4</ele>
        <time>2019-05-12T10:47:06Z</time>
      </trkpt>
      <trkpt lat="38.7376050" lon="-0.5117950">
        <ele>971.6</ele>
        <time>2019-05-12T10:47:08Z</time>
      </trkpt>
      <trkpt lat="38.7375120" lon="-0.5119170">
        <ele>970.2</ele>
        <time>2019-05-12T10:47:10Z</time>
      </trkpt>
      <trkpt lat="38.7374110" lon="-0.5119690">
        <ele>968.8</ele>
        <time>2019-05-12T10:47:12Z</time>
      </trkpt>
      <trkpt lat="38.7372780" lon="-0.5118570">
        <ele>967.4</ele>
        <time>2019-05-12T10:47:15Z</time>
      </trkpt>
      <trkpt lat="38.7371560" lon="-0.5117870">
        <ele>966.0</ele>
        <time>2019-05-12T10:47:17Z</time>
      </trkpt>
      <trkpt lat="38.7370830" lon="-0.5117870">
        <ele>965.2</ele>
        <time>2019-05-12T10:47:18Z</time>
      </trkpt>
      <trkpt lat="38.7370160" lon="-0.5118230">
        <ele>964.6</ele>
        <time>2019-05-12T10:47:19Z</time>
      </trkpt>
      <trkpt lat="38.7369530" lon="-0.5118800">
        <ele>963.6</ele>
        <time>2019-05-12T10:47:20Z</time>
      </trkpt>
      <trkpt lat="38.7368850" lon="-0.5119380">
        <ele>962.8</ele>
        <time>2019-05-12T10:47:21Z</time>
      </trkpt>
      <trkpt lat="38.7367530" lon="-0.5120350">
        <ele>961.2</ele>
        <time>2019-05-12T10:47:23Z</time>
      </trkpt>
      <trkpt lat="38.7367030" lon="-0.5121010">
        <ele>960.6</ele>
        <time>2019-05-12T10:47:24Z</time>
      </trkpt>
      <trkpt lat="38.7366330" lon="-0.5122770">
        <ele>958.6</ele>
        <time>2019-05-12T10:47:26Z</time>
      </trkpt>
      <trkpt lat="38.7366010" lon="-0.5123770">
        <ele>958.0</ele>
        <time>2019-05-12T10:47:27Z</time>
      </trkpt>
      <trkpt lat="38.7365670" lon="-0.5124730">
        <ele>957.4</ele>
        <time>2019-05-12T10:47:28Z</time>
      </trkpt>
      <trkpt lat="38.7365110" lon="-0.5126780">
        <ele>956.0</ele>
        <time>2019-05-12T10:47:30Z</time>
      </trkpt>
      <trkpt lat="38.7364660" lon="-0.5128810">
        <ele>955.8</ele>
        <time>2019-05-12T10:47:32Z</time>
      </trkpt>
      <trkpt lat="38.7364530" lon="-0.5129830">
        <ele>955.6</ele>
        <time>2019-05-12T10:47:33Z</time>
      </trkpt>
      <trkpt lat="38.7364160" lon="-0.5131620">
        <ele>955.4</ele>
        <time>2019-05-12T10:47:35Z</time>
      </trkpt>
      <trkpt lat="38.7363500" lon="-0.5133160">
        <ele>955.6</ele>
        <time>2019-05-12T10:47:37Z</time>
      </trkpt>
      <trkpt lat="38.7362590" lon="-0.5135280">
        <ele>956.4</ele>
        <time>2019-05-12T10:47:40Z</time>
      </trkpt>
      <trkpt lat="38.7362500" lon="-0.5136710">
        <ele>957.2</ele>
        <time>2019-05-12T10:47:42Z</time>
      </trkpt>
      <trkpt lat="38.7362340" lon="-0.5138110">
        <ele>957.4</ele>
        <time>2019-05-12T10:47:44Z</time>
      </trkpt>
      <trkpt lat="38.7362150" lon="-0.5139410">
        <ele>958.6</ele>
        <time>2019-05-12T10:47:46Z</time>
      </trkpt>
      <trkpt lat="38.7362080" lon="-0.5140000">
        <ele>959.2</ele>
        <time>2019-05-12T10:47:47Z</time>
      </trkpt>
      <trkpt lat="38.7361890" lon="-0.5140570">
        <ele>959.8</ele>
        <time>2019-05-12T10:47:48Z</time>
      </trkpt>
      <trkpt lat="38.7361720" lon="-0.5141700">
        <ele>960.8</ele>
        <time>2019-05-12T10:47:50Z</time>
      </trkpt>
      <trkpt lat="38.7361740" lon="-0.5142340">
        <ele>961.2</ele>
        <time>2019-05-12T10:47:51Z</time>
      </trkpt>
      <trkpt lat="38.7361840" lon="-0.5143530">
        <ele>960.8</ele>
        <time>2019-05-12T10:47:53Z</time>
      </trkpt>
      <trkpt lat="38.7361940" lon="-0.5146530">
        <ele>961.2</ele>
        <time>2019-05-12T10:47:58Z</time>
      </trkpt>
      <trkpt lat="38.7361910" lon="-0.5147730">
        <ele>961.6</ele>
        <time>2019-05-12T10:48:00Z</time>
      </trkpt>
      <trkpt lat="38.7361590" lon="-0.5149550">
        <ele>961.6</ele>
        <time>2019-05-12T10:48:03Z</time>
      </trkpt>
      <trkpt lat="38.7361620" lon="-0.5150210">
        <ele>961.8</ele>
        <time>2019-05-12T10:48:04Z</time>
      </trkpt>
      <trkpt lat="38.7361630" lon="-0.5152220">
        <ele>961.6</ele>
        <time>2019-05-12T10:48:07Z</time>
      </trkpt>
      <trkpt lat="38.7361670" lon="-0.5152870">
        <ele>961.6</ele>
        <time>2019-05-12T10:48:08Z</time>
      </trkpt>
      <trkpt lat="38.7361570" lon="-0.5154170">
        <ele>961.8</ele>
        <time>2019-05-12T10:48:10Z</time>
      </trkpt>
      <trkpt lat="38.7361470" lon="-0.5156750">
        <ele>961.6</ele>
        <time>2019-05-12T10:48:14Z</time>
      </trkpt>
      <trkpt lat="38.7361610" lon="-0.5158770">
        <ele>961.0</ele>
        <time>2019-05-12T10:48:17Z</time>
      </trkpt>
      <trkpt lat="38.7361580" lon="-0.5160030">
        <ele>960.8</ele>
        <time>2019-05-12T10:48:19Z</time>
      </trkpt>
      <trkpt lat="38.7361530" lon="-0.5160760">
        <ele>960.8</ele>
        <time>2019-05-12T10:48:20Z</time>
      </trkpt>
      <trkpt lat="38.7361590" lon="-0.5161510">
        <ele>960.6</ele>
        <time>2019-05-12T10:48:21Z</time>
      </trkpt>
      <trkpt lat="38.7361600" lon="-0.5162900">
        <ele>960.6</ele>
        <time>2019-05-12T10:48:23Z</time>
      </trkpt>
      <trkpt lat="38.7361590" lon="-0.5164280">
        <ele>961.0</ele>
        <time>2019-05-12T10:48:25Z</time>
      </trkpt>
      <trkpt lat="38.7361560" lon="-0.5165600">
        <ele>960.8</ele>
        <time>2019-05-12T10:48:27Z</time>
      </trkpt>
      <trkpt lat="38.7361390" lon="-0.5166810">
        <ele>961.0</ele>
        <time>2019-05-12T10:48:29Z</time>
      </trkpt>
      <trkpt lat="38.7360970" lon="-0.5168080">
        <ele>961.2</ele>
        <time>2019-05-12T10:48:31Z</time>
      </trkpt>
      <trkpt lat="38.7360410" lon="-0.5170050">
        <ele>961.2</ele>
        <time>2019-05-12T10:48:34Z</time>
      </trkpt>
      <trkpt lat="38.7360380" lon="-0.5170840">
        <ele>961.2</ele>
        <time>2019-05-12T10:48:35Z</time>
      </trkpt>
      <trkpt lat="38.7360300" lon="-0.5172380">
        <ele>960.8</ele>
        <time>2019-05-12T10:48:37Z</time>
      </trkpt>
      <trkpt lat="38.7360070" lon="-0.5174690">
        <ele>960.4</ele>
        <time>2019-05-12T10:48:41Z</time>
      </trkpt>
      <trkpt lat="38.7360070" lon="-0.5177290">
        <ele>960.4</ele>
        <time>2019-05-12T10:48:45Z</time>
      </trkpt>
      <trkpt lat="38.7360180" lon="-0.5177970">
        <ele>960.2</ele>
        <time>2019-05-12T10:48:46Z</time>
      </trkpt>
      <trkpt lat="38.7360470" lon="-0.5180820">
        <ele>959.8</ele>
        <time>2019-05-12T10:48:50Z</time>
      </trkpt>
      <trkpt lat="38.7360290" lon="-0.5181490">
        <ele>959.6</ele>
        <time>2019-05-12T10:48:51Z</time>
      </trkpt>
      <trkpt lat="38.7359260" lon="-0.5184280">
        <ele>959.0</ele>
        <time>2019-05-12T10:48:55Z</time>
      </trkpt>
      <trkpt lat="38.7358310" lon="-0.5186070">
        <ele>959.4</ele>
        <time>2019-05-12T10:48:58Z</time>
      </trkpt>
      <trkpt lat="38.7358020" lon="-0.5186640">
        <ele>959.6</ele>
        <time>2019-05-12T10:48:59Z</time>
      </trkpt>
      <trkpt lat="38.7357320" lon="-0.5187570">
        <ele>960.0</ele>
        <time>2019-05-12T10:49:01Z</time>
      </trkpt>
      <trkpt lat="38.7356170" lon="-0.5188590">
        <ele>960.2</ele>
        <time>2019-05-12T10:49:04Z</time>
      </trkpt>
      <trkpt lat="38.7355540" lon="-0.5189260">
        <ele>960.8</ele>
        <time>2019-05-12T10:49:06Z</time>
      </trkpt>
      <trkpt lat="38.7354590" lon="-0.5190480">
        <ele>961.4</ele>
        <time>2019-05-12T10:49:09Z</time>
      </trkpt>
      <trkpt lat="38.7354330" lon="-0.5190980">
        <ele>961.6</ele>
        <time>2019-05-12T10:49:10Z</time>
      </trkpt>
      <trkpt lat="38.7352660" lon="-0.5194150">
        <ele>961.2</ele>
        <time>2019-05-12T10:49:16Z</time>
      </trkpt>
      <trkpt lat="38.7351270" lon="-0.5196930">
        <ele>961.4</ele>
        <time>2019-05-12T10:49:22Z</time>
      </trkpt>
      <trkpt lat="38.7350400" lon="-0.5198850">
        <ele>961.0</ele>
        <time>2019-05-12T10:49:26Z</time>
      </trkpt>
      <trkpt lat="38.7349970" lon="-0.5199730">
        <ele>961.4</ele>
        <time>2019-05-12T10:49:28Z</time>
      </trkpt>
      <trkpt lat="38.7349550" lon="-0.5200620">
        <ele>961.8</ele>
        <time>2019-05-12T10:49:30Z</time>
      </trkpt>
      <trkpt lat="38.7348880" lon="-0.5202010">
        <ele>962.4</ele>
        <time>2019-05-12T10:49:33Z</time>
      </trkpt>
      <trkpt lat="38.7348420" lon="-0.5202940">
        <ele>963.0</ele>
        <time>2019-05-12T10:49:35Z</time>
      </trkpt>
      <trkpt lat="38.7347350" lon="-0.5205350">
        <ele>963.2</ele>
        <time>2019-05-12T10:49:40Z</time>
      </trkpt>
      <trkpt lat="38.7347130" lon="-0.5205820">
        <ele>963.4</ele>
        <time>2019-05-12T10:49:41Z</time>
      </trkpt>
      <trkpt lat="38.7345440" lon="-0.5209330">
        <ele>962.6</ele>
        <time>2019-05-12T10:49:47Z</time>
      </trkpt>
      <trkpt lat="38.7343490" lon="-0.5213410">
        <ele>963.2</ele>
        <time>2019-05-12T10:49:54Z</time>
      </trkpt>
      <trkpt lat="38.7341750" lon="-0.5217300">
        <ele>962.6</ele>
        <time>2019-05-12T10:50:01Z</time>
      </trkpt>
      <trkpt lat="38.7341260" lon="-0.5218740">
        <ele>963.0</ele>
        <time>2019-05-12T10:50:04Z</time>
      </trkpt>
      <trkpt lat="38.7341390" lon="-0.5219190">
        <ele>963.0</ele>
        <time>2019-05-12T10:50:05Z</time>
      </trkpt>
      <trkpt lat="38.7342670" lon="-0.5219940">
        <ele>962.6</ele>
        <time>2019-05-12T10:50:08Z</time>
      </trkpt>
      <trkpt lat="38.7344440" lon="-0.5221200">
        <ele>962.6</ele>
        <time>2019-05-12T10:50:12Z</time>
      </trkpt>
      <trkpt lat="38.7344890" lon="-0.5221360">
        <ele>962.8</ele>
        <time>2019-05-12T10:50:13Z</time>
      </trkpt>
      <trkpt lat="38.7345370" lon="-0.5221210">
        <ele>963.0</ele>
        <time>2019-05-12T10:50:14Z</time>
      </trkpt>
      <trkpt lat="38.7346540" lon="-0.5220010">
        <ele>962.8</ele>
        <time>2019-05-12T10:50:17Z</time>
      </trkpt>
      <trkpt lat="38.7346890" lon="-0.5219530">
        <ele>962.6</ele>
        <time>2019-05-12T10:50:18Z</time>
      </trkpt>
      <trkpt lat="38.7347310" lon="-0.5219190">
        <ele>962.4</ele>
        <time>2019-05-12T10:50:19Z</time>
      </trkpt>
      <trkpt lat="38.7348410" lon="-0.5218970">
        <ele>962.4</ele>
        <time>2019-05-12T10:50:21Z</time>
      </trkpt>
      <trkpt lat="38.7349020" lon="-0.5219060">
        <ele>961.4</ele>
        <time>2019-05-12T10:50:22Z</time>
      </trkpt>
      <trkpt lat="38.7350240" lon="-0.5219400">
        <ele>960.6</ele>
        <time>2019-05-12T10:50:24Z</time>
      </trkpt>
      <trkpt lat="38.7350830" lon="-0.5219380">
        <ele>960.2</ele>
        <time>2019-05-12T10:50:25Z</time>
      </trkpt>
      <trkpt lat="38.7352010" lon="-0.5218900">
        <ele>958.2</ele>
        <time>2019-05-12T10:50:27Z</time>
      </trkpt>
      <trkpt lat="38.7352590" lon="-0.5218420">
        <ele>957.0</ele>
        <time>2019-05-12T10:50:28Z</time>
      </trkpt>
      <trkpt lat="38.7353110" lon="-0.5218100">
        <ele>956.4</ele>
        <time>2019-05-12T10:50:29Z</time>
      </trkpt>
      <trkpt lat="38.7353700" lon="-0.5217980">
        <ele>956.0</ele>
        <time>2019-05-12T10:50:30Z</time>
      </trkpt>
      <trkpt lat="38.7354240" lon="-0.5218090">
        <ele>955.4</ele>
        <time>2019-05-12T10:50:31Z</time>
      </trkpt>
      <trkpt lat="38.7354890" lon="-0.5218180">
        <ele>954.8</ele>
        <time>2019-05-12T10:50:32Z</time>
      </trkpt>
      <trkpt lat="38.7355590" lon="-0.5218090">
        <ele>954.0</ele>
        <time>2019-05-12T10:50:33Z</time>
      </trkpt>
      <trkpt lat="38.7356340" lon="-0.5218040">
        <ele>953.4</ele>
        <time>2019-05-12T10:50:34Z</time>
      </trkpt>
      <trkpt lat="38.7357140" lon="-0.5218080">
        <ele>952.8</ele>
        <time>2019-05-12T10:50:35Z</time>
      </trkpt>
      <trkpt lat="38.7357930" lon="-0.5218260">
        <ele>952.0</ele>
        <time>2019-05-12T10:50:36Z</time>
      </trkpt>
      <trkpt lat="38.7359200" lon="-0.5219240">
        <ele>951.2</ele>
        <time>2019-05-12T10:50:38Z</time>
      </trkpt>
      <trkpt lat="38.7361840" lon="-0.5221850">
        <ele>951.8</ele>
        <time>2019-05-12T10:50:43Z</time>
      </trkpt>
      <trkpt lat="38.7362600" lon="-0.5222510">
        <ele>952.4</ele>
        <time>2019-05-12T10:50:45Z</time>
      </trkpt>
      <trkpt lat="38.7363000" lon="-0.5222640">
        <ele>952.8</ele>
        <time>2019-05-12T10:50:46Z</time>
      </trkpt>
      <trkpt lat="38.7363360" lon="-0.5222760">
        <ele>954.0</ele>
        <time>2019-05-12T10:50:47Z</time>
      </trkpt>
      <trkpt lat="38.7364040" lon="-0.5223030">
        <ele>955.4</ele>
        <time>2019-05-12T10:50:49Z</time>
      </trkpt>
      <trkpt lat="38.7364320" lon="-0.5223340">
        <ele>956.0</ele>
        <time>2019-05-12T10:50:50Z</time>
      </trkpt>
      <trkpt lat="38.7364770" lon="-0.5224090">
        <ele>956.8</ele>
        <time>2019-05-12T10:50:52Z</time>
      </trkpt>
      <trkpt lat="38.7364950" lon="-0.5224490">
        <ele>957.0</ele>
        <time>2019-05-12T10:50:53Z</time>
      </trkpt>
      <trkpt lat="38.7365400" lon="-0.5225190">
        <ele>957.6</ele>
        <time>2019-05-12T10:50:55Z</time>
      </trkpt>
      <trkpt lat="38.7365620" lon="-0.5225430">
        <ele>958.2</ele>
        <time>2019-05-12T10:50:56Z</time>
      </trkpt>
      <trkpt lat="38.7366450" lon="-0.5226080">
        <ele>959.4</ele>
        <time>2019-05-12T10:50:59Z</time>
      </trkpt>
      <trkpt lat="38.7368140" lon="-0.5226590">
        <ele>960.2</ele>
        <time>2019-05-12T10:51:04Z</time>
      </trkpt>
      <trkpt lat="38.7368440" lon="-0.5226680">
        <ele>960.4</ele>
        <time>2019-05-12T10:51:05Z</time>
      </trkpt>
      <trkpt lat="38.7369860" lon="-0.5227270">
        <ele>961.4</ele>
        <time>2019-05-12T10:51:10Z</time>
      </trkpt>
      <trkpt lat="38.7371640" lon="-0.5227650">
        <ele>962.0</ele>
        <time>2019-05-12T10:51:16Z</time>
      </trkpt>
      <trkpt lat="38.7372250" lon="-0.5228040">
        <ele>962.4</ele>
        <time>2019-05-12T10:51:19Z</time>
      </trkpt>
      <trkpt lat="38.7372420" lon="-0.5228120">
        <ele>962.6</ele>
        <time>2019-05-12T10:51:20Z</time>
      </trkpt>
      <trkpt lat="38.7373070" lon="-0.5228570">
        <ele>963.4</ele>
        <time>2019-05-12T10:51:27Z</time>
      </trkpt>
      <trkpt lat="38.7373680" lon="-0.5228590">
        <ele>963.0</ele>
        <time>2019-05-12T10:51:53Z</time>
      </trkpt>
      <trkpt lat="38.7373910" lon="-0.5228660">
        <ele>963.0</ele>
        <time>2019-05-12T10:51:54Z</time>
      </trkpt>
      <trkpt lat="38.7374860" lon="-0.5229380">
        <ele>963.0</ele>
        <time>2019-05-12T10:51:58Z</time>
      </trkpt>
      <trkpt lat="38.7376290" lon="-0.5230250">
        <ele>962.4</ele>
        <time>2019-05-12T10:52:02Z</time>
      </trkpt>
      <trkpt lat="38.7377220" lon="-0.5230690">
        <ele>961.8</ele>
        <time>2019-05-12T10:52:04Z</time>
      </trkpt>
      <trkpt lat="38.7377710" lon="-0.5230830">
        <ele>961.4</ele>
        <time>2019-05-12T10:52:05Z</time>
      </trkpt>
      <trkpt lat="38.7378200" lon="-0.5230990">
        <ele>961.2</ele>
        <time>2019-05-12T10:52:06Z</time>
      </trkpt>
      <trkpt lat="38.7379220" lon="-0.5231460">
        <ele>961.0</ele>
        <time>2019-05-12T10:52:08Z</time>
      </trkpt>
      <trkpt lat="38.7380750" lon="-0.5232270">
        <ele>960.2</ele>
        <time>2019-05-12T10:52:11Z</time>
      </trkpt>
      <trkpt lat="38.7381110" lon="-0.5232810">
        <ele>960.2</ele>
        <time>2019-05-12T10:52:12Z</time>
      </trkpt>
      <trkpt lat="38.7381540" lon="-0.5233330">
        <ele>959.8</ele>
        <time>2019-05-12T10:52:13Z</time>
      </trkpt>
      <trkpt lat="38.7381980" lon="-0.5233870">
        <ele>959.2</ele>
        <time>2019-05-12T10:52:14Z</time>
      </trkpt>
      <trkpt lat="38.7382370" lon="-0.5234340">
        <ele>958.8</ele>
        <time>2019-05-12T10:52:15Z</time>
      </trkpt>
      <trkpt lat="38.7382730" lon="-0.5234940">
        <ele>958.4</ele>
        <time>2019-05-12T10:52:16Z</time>
      </trkpt>
      <trkpt lat="38.7383360" lon="-0.5235720">
        <ele>958.4</ele>
        <time>2019-05-12T10:52:18Z</time>
      </trkpt>
      <trkpt lat="38.7383730" lon="-0.5235650">
        <ele>958.4</ele>
        <time>2019-05-12T10:52:19Z</time>
      </trkpt>
      <trkpt lat="38.7384350" lon="-0.5235420">
        <ele>958.0</ele>
        <time>2019-05-12T10:52:21Z</time>
      </trkpt>
      <trkpt lat="38.7384650" lon="-0.5235650">
        <ele>957.6</ele>
        <time>2019-05-12T10:52:22Z</time>
      </trkpt>
      <trkpt lat="38.7385250" lon="-0.5235500">
        <ele>956.8</ele>
        <time>2019-05-12T10:52:24Z</time>
      </trkpt>
      <trkpt lat="38.7385410" lon="-0.5235630">
        <ele>956.2</ele>
        <time>2019-05-12T10:52:25Z</time>
      </trkpt>
      <trkpt lat="38.7386040" lon="-0.5235900">
        <ele>954.6</ele>
        <time>2019-05-12T10:52:28Z</time>
      </trkpt>
      <trkpt lat="38.7386410" lon="-0.5236280">
        <ele>953.6</ele>
        <time>2019-05-12T10:52:30Z</time>
      </trkpt>
      <trkpt lat="38.7386470" lon="-0.5236410">
        <ele>952.6</ele>
        <time>2019-05-12T10:52:32Z</time>
      </trkpt>
      <trkpt lat="38.7387000" lon="-0.5237060">
        <ele>950.2</ele>
        <time>2019-05-12T10:52:51Z</time>
      </trkpt>
      <trkpt lat="38.7387120" lon="-0.5237130">
        <ele>950.0</ele>
        <time>2019-05-12T10:52:52Z</time>
      </trkpt>
      <trkpt lat="38.7387300" lon="-0.5237140">
        <ele>949.2</ele>
        <time>2019-05-12T10:52:54Z</time>
      </trkpt>
      <trkpt lat="38.7387660" lon="-0.5237360">
        <ele>948.4</ele>
        <time>2019-05-12T10:52:57Z</time>
      </trkpt>
      <trkpt lat="38.7387770" lon="-0.5237440">
        <ele>947.8</ele>
        <time>2019-05-12T10:52:58Z</time>
      </trkpt>
      <trkpt lat="38.7388500" lon="-0.5237700">
        <ele>946.0</ele>
        <time>2019-05-12T10:53:10Z</time>
      </trkpt>
      <trkpt lat="38.7388620" lon="-0.5237800">
        <ele>945.6</ele>
        <time>2019-05-12T10:53:11Z</time>
      </trkpt>
      <trkpt lat="38.7388980" lon="-0.5237970">
        <ele>944.8</ele>
        <time>2019-05-12T10:53:14Z</time>
      </trkpt>
      <trkpt lat="38.7389220" lon="-0.5238270">
        <ele>944.0</ele>
        <time>2019-05-12T10:53:16Z</time>
      </trkpt>
      <trkpt lat="38.7389400" lon="-0.5238420">
        <ele>943.6</ele>
        <time>2019-05-12T10:53:17Z</time>
      </trkpt>
      <trkpt lat="38.7389660" lon="-0.5238870">
        <ele>942.4</ele>
        <time>2019-05-12T10:53:19Z</time>
      </trkpt>
      <trkpt lat="38.7389660" lon="-0.5239460">
        <ele>941.6</ele>
        <time>2019-05-12T10:53:21Z</time>
      </trkpt>
      <trkpt lat="38.7389900" lon="-0.5240180">
        <ele>941.2</ele>
        <time>2019-05-12T10:53:23Z</time>
      </trkpt>
      <trkpt lat="38.7390460" lon="-0.5241240">
        <ele>940.2</ele>
        <time>2019-05-12T10:53:25Z</time>
      </trkpt>
      <trkpt lat="38.7391120" lon="-0.5242070">
        <ele>938.6</ele>
        <time>2019-05-12T10:53:27Z</time>
      </trkpt>
      <trkpt lat="38.7391850" lon="-0.5242770">
        <ele>937.2</ele>
        <time>2019-05-12T10:53:29Z</time>
      </trkpt>
      <trkpt lat="38.7392600" lon="-0.5243390">
        <ele>935.8</ele>
        <time>2019-05-12T10:53:31Z</time>
      </trkpt>
      <trkpt lat="38.7392920" lon="-0.5243730">
        <ele>935.0</ele>
        <time>2019-05-12T10:53:32Z</time>
      </trkpt>
      <trkpt lat="38.7393090" lon="-0.5244200">
        <ele>934.4</ele>
        <time>2019-05-12T10:53:33Z</time>
      </trkpt>
      <trkpt lat="38.7393530" lon="-0.5245560">
        <ele>932.6</ele>
        <time>2019-05-12T10:53:35Z</time>
      </trkpt>
      <trkpt lat="38.7393660" lon="-0.5246100">
        <ele>932.0</ele>
        <time>2019-05-12T10:53:36Z</time>
      </trkpt>
      <trkpt lat="38.7394020" lon="-0.5246690">
        <ele>931.2</ele>
        <time>2019-05-12T10:53:37Z</time>
      </trkpt>
      <trkpt lat="38.7394570" lon="-0.5247190">
        <ele>930.0</ele>
        <time>2019-05-12T10:53:39Z</time>
      </trkpt>
      <trkpt lat="38.7395000" lon="-0.5247070">
        <ele>929.0</ele>
        <time>2019-05-12T10:53:42Z</time>
      </trkpt>
      <trkpt lat="38.7395180" lon="-0.5247200">
        <ele>928.8</ele>
        <time>2019-05-12T10:53:43Z</time>
      </trkpt>
      <trkpt lat="38.7395480" lon="-0.5248120">
        <ele>927.8</ele>
        <time>2019-05-12T10:53:46Z</time>
      </trkpt>
      <trkpt lat="38.7395810" lon="-0.5249310">
        <ele>926.2</ele>
        <time>2019-05-12T10:53:48Z</time>
      </trkpt>
      <trkpt lat="38.7396100" lon="-0.5249900">
        <ele>925.0</ele>
        <time>2019-05-12T10:53:49Z</time>
      </trkpt>
      <trkpt lat="38.7396400" lon="-0.5251350">
        <ele>923.2</ele>
        <time>2019-05-12T10:53:51Z</time>
      </trkpt>
      <trkpt lat="38.7396540" lon="-0.5252200">
        <ele>922.4</ele>
        <time>2019-05-12T10:53:52Z</time>
      </trkpt>
      <trkpt lat="38.7396650" lon="-0.5252990">
        <ele>921.2</ele>
        <time>2019-05-12T10:53:53Z</time>
      </trkpt>
      <trkpt lat="38.7396560" lon="-0.5254440">
        <ele>919.0</ele>
        <time>2019-05-12T10:53:55Z</time>
      </trkpt>
      <trkpt lat="38.7396330" lon="-0.5255320">
        <ele>918.2</ele>
        <time>2019-05-12T10:53:56Z</time>
      </trkpt>
      <trkpt lat="38.7396030" lon="-0.5256260">
        <ele>917.0</ele>
        <time>2019-05-12T10:53:57Z</time>
      </trkpt>
      <trkpt lat="38.7395400" lon="-0.5258290">
        <ele>915.2</ele>
        <time>2019-05-12T10:53:59Z</time>
      </trkpt>
      <trkpt lat="38.7394980" lon="-0.5259220">
        <ele>914.6</ele>
        <time>2019-05-12T10:54:00Z</time>
      </trkpt>
      <trkpt lat="38.7394650" lon="-0.5260250">
        <ele>914.2</ele>
        <time>2019-05-12T10:54:01Z</time>
      </trkpt>
      <trkpt lat="38.7393930" lon="-0.5263180">
        <ele>913.0</ele>
        <time>2019-05-12T10:54:04Z</time>
      </trkpt>
      <trkpt lat="38.7393940" lon="-0.5264280">
        <ele>912.6</ele>
        <time>2019-05-12T10:54:05Z</time>
      </trkpt>
      <trkpt lat="38.7393840" lon="-0.5265270">
        <ele>911.8</ele>
        <time>2019-05-12T10:54:06Z</time>
      </trkpt>
      <trkpt lat="38.7393690" lon="-0.5266140">
        <ele>911.4</ele>
        <time>2019-05-12T10:54:07Z</time>
      </trkpt>
      <trkpt lat="38.7392980" lon="-0.5269380">
        <ele>910.8</ele>
        <time>2019-05-12T10:54:11Z</time>
      </trkpt>
      <trkpt lat="38.7392860" lon="-0.5269740">
        <ele>911.2</ele>
        <time>2019-05-12T10:54:12Z</time>
      </trkpt>
      <trkpt lat="38.7392750" lon="-0.5270450">
        <ele>911.6</ele>
        <time>2019-05-12T10:54:14Z</time>
      </trkpt>
      <trkpt lat="38.7392590" lon="-0.5271160">
        <ele>911.4</ele>
        <time>2019-05-12T10:54:16Z</time>
      </trkpt>
      <trkpt lat="38.7392260" lon="-0.5271840">
        <ele>911.2</ele>
        <time>2019-05-12T10:54:19Z</time>
      </trkpt>
      <trkpt lat="38.7392240" lon="-0.5272560">
        <ele>911.4</ele>
        <time>2019-05-12T10:54:21Z</time>
      </trkpt>
      <trkpt lat="38.7392320" lon="-0.5273970">
        <ele>910.8</ele>
        <time>2019-05-12T10:54:24Z</time>
      </trkpt>
      <trkpt lat="38.7392450" lon="-0.5274980">
        <ele>910.8</ele>
        <time>2019-05-12T10:54:26Z</time>
      </trkpt>
      <trkpt lat="38.7392420" lon="-0.5275540">
        <ele>910.8</ele>
        <time>2019-05-12T10:54:27Z</time>
      </trkpt>
      <trkpt lat="38.7392230" lon="-0.5278100">
        <ele>910.0</ele>
        <time>2019-05-12T10:54:31Z</time>
      </trkpt>
      <trkpt lat="38.7392260" lon="-0.5279670">
        <ele>910.2</ele>
        <time>2019-05-12T10:54:34Z</time>
      </trkpt>
      <trkpt lat="38.7392290" lon="-0.5280240">
        <ele>910.4</ele>
        <time>2019-05-12T10:54:35Z</time>
      </trkpt>
      <trkpt lat="38.7392210" lon="-0.5282250">
        <ele>909.6</ele>
        <time>2019-05-12T10:54:38Z</time>
      </trkpt>
      <trkpt lat="38.7392460" lon="-0.5282850">
        <ele>909.6</ele>
        <time>2019-05-12T10:54:39Z</time>
      </trkpt>
      <trkpt lat="38.7392640" lon="-0.5285340">
        <ele>908.8</ele>
        <time>2019-05-12T10:54:43Z</time>
      </trkpt>
      <trkpt lat="38.7392710" lon="-0.5285920">
        <ele>909.0</ele>
        <time>2019-05-12T10:54:44Z</time>
      </trkpt>
      <trkpt lat="38.7392980" lon="-0.5288060">
        <ele>908.8</ele>
        <time>2019-05-12T10:54:49Z</time>
      </trkpt>
      <trkpt lat="38.7393160" lon="-0.5289050">
        <ele>908.4</ele>
        <time>2019-05-12T10:54:52Z</time>
      </trkpt>
      <trkpt lat="38.7393370" lon="-0.5289790">
        <ele>908.8</ele>
        <time>2019-05-12T10:54:55Z</time>
      </trkpt>
      <trkpt lat="38.7394610" lon="-0.5291010">
        <ele>908.0</ele>
        <time>2019-05-12T10:55:00Z</time>
      </trkpt>
      <trkpt lat="38.7394980" lon="-0.5291690">
        <ele>907.2</ele>
        <time>2019-05-12T10:55:02Z</time>
      </trkpt>
      <trkpt lat="38.7395620" lon="-0.5292180">
        <ele>906.4</ele>
        <time>2019-05-12T10:55:04Z</time>
      </trkpt>
      <trkpt lat="38.7396300" lon="-0.5292170">
        <ele>906.2</ele>
        <time>2019-05-12T10:55:07Z</time>
      </trkpt>
      <trkpt lat="38.7396500" lon="-0.5292160">
        <ele>906.4</ele>
        <time>2019-05-12T10:55:08Z</time>
      </trkpt>
      <trkpt lat="38.7397810" lon="-0.5292640">
        <ele>906.8</ele>
        <time>2019-05-12T10:55:13Z</time>
      </trkpt>
      <trkpt lat="38.7399170" lon="-0.5294630">
        <ele>906.6</ele>
        <time>2019-05-12T10:55:18Z</time>
      </trkpt>
      <trkpt lat="38.7399430" lon="-0.5295180">
        <ele>906.4</ele>
        <time>2019-05-12T10:55:19Z</time>
      </trkpt>
      <trkpt lat="38.7400310" lon="-0.5297260">
        <ele>906.8</ele>
        <time>2019-05-12T10:55:23Z</time>
      </trkpt>
      <trkpt lat="38.7401300" lon="-0.5298560">
        <ele>908.4</ele>
        <time>2019-05-12T10:55:27Z</time>
      </trkpt>
      <trkpt lat="38.7401570" lon="-0.5299300">
        <ele>909.0</ele>
        <time>2019-05-12T10:55:29Z</time>
      </trkpt>
      <trkpt lat="38.7401810" lon="-0.5299510">
        <ele>909.6</ele>
        <time>2019-05-12T10:55:30Z</time>
      </trkpt>
      <trkpt lat="38.7402030" lon="-0.5299650">
        <ele>909.8</ele>
        <time>2019-05-12T10:55:31Z</time>
      </trkpt>
      <trkpt lat="38.7402160" lon="-0.5299950">
        <ele>910.2</ele>
        <time>2019-05-12T10:55:32Z</time>
      </trkpt>
      <trkpt lat="38.7402210" lon="-0.5301120">
        <ele>910.2</ele>
        <time>2019-05-12T10:55:35Z</time>
      </trkpt>
      <trkpt lat="38.7402460" lon="-0.5301840">
        <ele>910.0</ele>
        <time>2019-05-12T10:55:37Z</time>
      </trkpt>
      <trkpt lat="38.7402820" lon="-0.5303180">
        <ele>910.6</ele>
        <time>2019-05-12T10:55:41Z</time>
      </trkpt>
      <trkpt lat="38.7403200" lon="-0.5305410">
        <ele>911.0</ele>
        <time>2019-05-12T10:55:48Z</time>
      </trkpt>
      <trkpt lat="38.7403880" lon="-0.5307530">
        <ele>910.6</ele>
        <time>2019-05-12T10:55:55Z</time>
      </trkpt>
      <trkpt lat="38.7404470" lon="-0.5307860">
        <ele>911.4</ele>
        <time>2019-05-12T10:55:58Z</time>
      </trkpt>
      <trkpt lat="38.7404750" lon="-0.5307810">
        <ele>912.0</ele>
        <time>2019-05-12T10:55:59Z</time>
      </trkpt>
      <trkpt lat="38.7405510" lon="-0.5307820">
        <ele>913.6</ele>
        <time>2019-05-12T10:56:02Z</time>
      </trkpt>
      <trkpt lat="38.7406210" lon="-0.5307920">
        <ele>914.8</ele>
        <time>2019-05-12T10:56:06Z</time>
      </trkpt>
      <trkpt lat="38.7406920" lon="-0.5308100">
        <ele>916.0</ele>
        <time>2019-05-12T10:56:11Z</time>
      </trkpt>
      <trkpt lat="38.7407180" lon="-0.5308170">
        <ele>916.2</ele>
        <time>2019-05-12T10:56:13Z</time>
      </trkpt>
      <trkpt lat="38.7407740" lon="-0.5308280">
        <ele>917.2</ele>
        <time>2019-05-12T10:56:17Z</time>
      </trkpt>
      <trkpt lat="38.7408100" lon="-0.5308670">
        <ele>917.8</ele>
        <time>2019-05-12T10:56:20Z</time>
      </trkpt>
      <trkpt lat="38.7408420" lon="-0.5308910">
        <ele>918.0</ele>
        <time>2019-05-12T10:56:22Z</time>
      </trkpt>
      <trkpt lat="38.7408590" lon="-0.5308990">
        <ele>918.4</ele>
        <time>2019-05-12T10:56:23Z</time>
      </trkpt>
      <trkpt lat="38.7408910" lon="-0.5309000">
        <ele>919.2</ele>
        <time>2019-05-12T10:56:25Z</time>
      </trkpt>
      <trkpt lat="38.7409210" lon="-0.5309150">
        <ele>919.6</ele>
        <time>2019-05-12T10:56:27Z</time>
      </trkpt>
      <trkpt lat="38.7409730" lon="-0.5309300">
        <ele>920.6</ele>
        <time>2019-05-12T10:56:31Z</time>
      </trkpt>
      <trkpt lat="38.7410260" lon="-0.5309730">
        <ele>921.6</ele>
        <time>2019-05-12T10:56:36Z</time>
      </trkpt>
      <trkpt lat="38.7410370" lon="-0.5309810">
        <ele>921.6</ele>
        <time>2019-05-12T10:56:37Z</time>
      </trkpt>
      <trkpt lat="38.7410440" lon="-0.5309970">
        <ele>921.8</ele>
        <time>2019-05-12T10:56:38Z</time>
      </trkpt>
      <trkpt lat="38.7410620" lon="-0.5310420">
        <ele>922.4</ele>
        <time>2019-05-12T10:56:42Z</time>
      </trkpt>
      <trkpt lat="38.7410730" lon="-0.5310420">
        <ele>922.6</ele>
        <time>2019-05-12T10:56:43Z</time>
      </trkpt>
      <trkpt lat="38.7410740" lon="-0.5310460">
        <ele>922.8</ele>
        <time>2019-05-12T10:56:44Z</time>
      </trkpt>
      <trkpt lat="38.7411030" lon="-0.5310290">
        <ele>923.2</ele>
        <time>2019-05-12T10:56:47Z</time>
      </trkpt>
      <trkpt lat="38.7411290" lon="-0.5310050">
        <ele>923.4</ele>
        <time>2019-05-12T10:56:51Z</time>
      </trkpt>
      <trkpt lat="38.7411810" lon="-0.5309490">
        <ele>923.4</ele>
        <time>2019-05-12T10:56:55Z</time>
      </trkpt>
      <trkpt lat="38.7411990" lon="-0.5309560">
        <ele>923.2</ele>
        <time>2019-05-12T10:56:56Z</time>
      </trkpt>
      <trkpt lat="38.7412380" lon="-0.5309840">
        <ele>923.4</ele>
        <time>2019-05-12T10:56:59Z</time>
      </trkpt>
      <trkpt lat="38.7412710" lon="-0.5310150">
        <ele>923.4</ele>
        <time>2019-05-12T10:57:01Z</time>
      </trkpt>
      <trkpt lat="38.7413340" lon="-0.5310930">
        <ele>923.2</ele>
        <time>2019-05-12T10:57:05Z</time>
      </trkpt>
      <trkpt lat="38.7414670" lon="-0.5311920">
        <ele>922.8</ele>
        <time>2019-05-12T10:57:10Z</time>
      </trkpt>
      <trkpt lat="38.7415960" lon="-0.5312290">
        <ele>922.0</ele>
        <time>2019-05-12T10:57:13Z</time>
      </trkpt>
      <trkpt lat="38.7416940" lon="-0.5312360">
        <ele>921.4</ele>
        <time>2019-05-12T10:57:15Z</time>
      </trkpt>
      <trkpt lat="38.7418890" lon="-0.5312740">
        <ele>920.4</ele>
        <time>2019-05-12T10:57:19Z</time>
      </trkpt>
      <trkpt lat="38.7419930" lon="-0.5312590">
        <ele>919.8</ele>
        <time>2019-05-12T10:57:21Z</time>
      </trkpt>
      <trkpt lat="38.7421190" lon="-0.5312260">
        <ele>918.8</ele>
        <time>2019-05-12T10:57:23Z</time>
      </trkpt>
      <trkpt lat="38.7422580" lon="-0.5312240">
        <ele>917.6</ele>
        <time>2019-05-12T10:57:25Z</time>
      </trkpt>
      <trkpt lat="38.7423830" lon="-0.5312700">
        <ele>916.4</ele>
        <time>2019-05-12T10:57:27Z</time>
      </trkpt>
      <trkpt lat="38.7424790" lon="-0.5313550">
        <ele>916.4</ele>
        <time>2019-05-12T10:57:29Z</time>
      </trkpt>
      <trkpt lat="38.7425330" lon="-0.5314890">
        <ele>917.8</ele>
        <time>2019-05-12T10:57:32Z</time>
      </trkpt>
      <trkpt lat="38.7425470" lon="-0.5315390">
        <ele>918.4</ele>
        <time>2019-05-12T10:57:33Z</time>
      </trkpt>
      <trkpt lat="38.7425620" lon="-0.5315910">
        <ele>919.0</ele>
        <time>2019-05-12T10:57:34Z</time>
      </trkpt>
      <trkpt lat="38.7426050" lon="-0.5316930">
        <ele>919.2</ele>
        <time>2019-05-12T10:57:36Z</time>
      </trkpt>
      <trkpt lat="38.7426570" lon="-0.5317970">
        <ele>919.0</ele>
        <time>2019-05-12T10:57:38Z</time>
      </trkpt>
      <trkpt lat="38.7426880" lon="-0.5318450">
        <ele>918.8</ele>
        <time>2019-05-12T10:57:39Z</time>
      </trkpt>
      <trkpt lat="38.7428000" lon="-0.5320450">
        <ele>918.6</ele>
        <time>2019-05-12T10:57:43Z</time>
      </trkpt>
      <trkpt lat="38.7428510" lon="-0.5321510">
        <ele>919.0</ele>
        <time>2019-05-12T10:57:45Z</time>
      </trkpt>
      <trkpt lat="38.7429460" lon="-0.5323490">
        <ele>918.8</ele>
        <time>2019-05-12T10:57:49Z</time>
      </trkpt>
      <trkpt lat="38.7429800" lon="-0.5324270">
        <ele>919.2</ele>
        <time>2019-05-12T10:57:51Z</time>
      </trkpt>
      <trkpt lat="38.7430270" lon="-0.5325440">
        <ele>919.4</ele>
        <time>2019-05-12T10:57:55Z</time>
      </trkpt>
      <trkpt lat="38.7431530" lon="-0.5327700">
        <ele>918.6</ele>
        <time>2019-05-12T10:58:01Z</time>
      </trkpt>
      <trkpt lat="38.7432010" lon="-0.5329270">
        <ele>918.0</ele>
        <time>2019-05-12T10:58:04Z</time>
      </trkpt>
      <trkpt lat="38.7432050" lon="-0.5329870">
        <ele>918.0</ele>
        <time>2019-05-12T10:58:05Z</time>
      </trkpt>
      <trkpt lat="38.7432200" lon="-0.5330570">
        <ele>917.6</ele>
        <time>2019-05-12T10:58:06Z</time>
      </trkpt>
      <trkpt lat="38.7433130" lon="-0.5334070">
        <ele>917.0</ele>
        <time>2019-05-12T10:58:12Z</time>
      </trkpt>
      <trkpt lat="38.7433280" lon="-0.5334640">
        <ele>917.0</ele>
        <time>2019-05-12T10:58:13Z</time>
      </trkpt>
      <trkpt lat="38.7433910" lon="-0.5336340">
        <ele>916.8</ele>
        <time>2019-05-12T10:58:16Z</time>
      </trkpt>
      <trkpt lat="38.7434590" lon="-0.5337400">
        <ele>916.4</ele>
        <time>2019-05-12T10:58:18Z</time>
      </trkpt>
      <trkpt lat="38.7435060" lon="-0.5337990">
        <ele>915.6</ele>
        <time>2019-05-12T10:58:19Z</time>
      </trkpt>
      <trkpt lat="38.7435430" lon="-0.5338480">
        <ele>915.4</ele>
        <time>2019-05-12T10:58:20Z</time>
      </trkpt>
      <trkpt lat="38.7436920" lon="-0.5340730">
        <ele>915.8</ele>
        <time>2019-05-12T10:58:24Z</time>
      </trkpt>
      <trkpt lat="38.7437180" lon="-0.5341400">
        <ele>916.0</ele>
        <time>2019-05-12T10:58:25Z</time>
      </trkpt>
      <trkpt lat="38.7437820" lon="-0.5343170">
        <ele>915.8</ele>
        <time>2019-05-12T10:58:28Z</time>
      </trkpt>
      <trkpt lat="38.7437980" lon="-0.5343820">
        <ele>915.8</ele>
        <time>2019-05-12T10:58:29Z</time>
      </trkpt>
      <trkpt lat="38.7438530" lon="-0.5347140">
        <ele>915.8</ele>
        <time>2019-05-12T10:58:34Z</time>
      </trkpt>
      <trkpt lat="38.7438930" lon="-0.5349770">
        <ele>915.8</ele>
        <time>2019-05-12T10:58:38Z</time>
      </trkpt>
      <trkpt lat="38.7439520" lon="-0.5351620">
        <ele>915.4</ele>
        <time>2019-05-12T10:58:41Z</time>
      </trkpt>
      <trkpt lat="38.7440810" lon="-0.5354710">
        <ele>915.4</ele>
        <time>2019-05-12T10:58:46Z</time>
      </trkpt>
      <trkpt lat="38.7441430" lon="-0.5356510">
        <ele>915.6</ele>
        <time>2019-05-12T10:58:49Z</time>
      </trkpt>
      <trkpt lat="38.7443610" lon="-0.5363190">
        <ele>916.0</ele>
        <time>2019-05-12T10:59:00Z</time>
      </trkpt>
      <trkpt lat="38.7445170" lon="-0.5367170">
        <ele>916.6</ele>
        <time>2019-05-12T10:59:07Z</time>
      </trkpt>
      <trkpt lat="38.7445450" lon="-0.5367670">
        <ele>916.8</ele>
        <time>2019-05-12T10:59:08Z</time>
      </trkpt>
      <trkpt lat="38.7445790" lon="-0.5368170">
        <ele>916.8</ele>
        <time>2019-05-12T10:59:09Z</time>
      </trkpt>
      <trkpt lat="38.7447360" lon="-0.5370440">
        <ele>917.6</ele>
        <time>2019-05-12T10:59:14Z</time>
      </trkpt>
      <trkpt lat="38.7447620" lon="-0.5370870">
        <ele>917.8</ele>
        <time>2019-05-12T10:59:15Z</time>
      </trkpt>
      <trkpt lat="38.7447860" lon="-0.5371410">
        <ele>918.0</ele>
        <time>2019-05-12T10:59:16Z</time>
      </trkpt>
      <trkpt lat="38.7448290" lon="-0.5372400">
        <ele>918.8</ele>
        <time>2019-05-12T10:59:18Z</time>
      </trkpt>
      <trkpt lat="38.7448680" lon="-0.5373380">
        <ele>918.8</ele>
        <time>2019-05-12T10:59:20Z</time>
      </trkpt>
      <trkpt lat="38.7448870" lon="-0.5373840">
        <ele>918.8</ele>
        <time>2019-05-12T10:59:21Z</time>
      </trkpt>
      <trkpt lat="38.7449450" lon="-0.5375380">
        <ele>920.0</ele>
        <time>2019-05-12T10:59:25Z</time>
      </trkpt>
      <trkpt lat="38.7449690" lon="-0.5376080">
        <ele>920.4</ele>
        <time>2019-05-12T10:59:27Z</time>
      </trkpt>
      <trkpt lat="38.7450000" lon="-0.5377220">
        <ele>921.2</ele>
        <time>2019-05-12T10:59:30Z</time>
      </trkpt>
      <trkpt lat="38.7450370" lon="-0.5378600">
        <ele>922.0</ele>
        <time>2019-05-12T10:59:34Z</time>
      </trkpt>
      <trkpt lat="38.7451350" lon="-0.5381260">
        <ele>921.4</ele>
        <time>2019-05-12T10:59:42Z</time>
      </trkpt>
      <trkpt lat="38.7451980" lon="-0.5383510">
        <ele>921.0</ele>
        <time>2019-05-12T10:59:47Z</time>
      </trkpt>
      <trkpt lat="38.7452660" lon="-0.5384440">
        <ele>921.2</ele>
        <time>2019-05-12T10:59:52Z</time>
      </trkpt>
      <trkpt lat="38.7454290" lon="-0.5384650">
        <ele>921.4</ele>
        <time>2019-05-12T10:59:57Z</time>
      </trkpt>
      <trkpt lat="38.7454660" lon="-0.5384890">
        <ele>921.4</ele>
        <time>2019-05-12T10:59:58Z</time>
      </trkpt>
      <trkpt lat="38.7456550" lon="-0.5386180">
        <ele>922.0</ele>
        <time>2019-05-12T11:00:04Z</time>
      </trkpt>
      <trkpt lat="38.7458070" lon="-0.5387900">
        <ele>921.2</ele>
        <time>2019-05-12T11:00:10Z</time>
      </trkpt>
      <trkpt lat="38.7459250" lon="-0.5389540">
        <ele>920.2</ele>
        <time>2019-05-12T11:00:13Z</time>
      </trkpt>
      <trkpt lat="38.7459610" lon="-0.5390240">
        <ele>919.4</ele>
        <time>2019-05-12T11:00:14Z</time>
      </trkpt>
      <trkpt lat="38.7459960" lon="-0.5391040">
        <ele>919.0</ele>
        <time>2019-05-12T11:00:15Z</time>
      </trkpt>
      <trkpt lat="38.7460640" lon="-0.5392630">
        <ele>918.0</ele>
        <time>2019-05-12T11:00:17Z</time>
      </trkpt>
      <trkpt lat="38.7461170" lon="-0.5394290">
        <ele>916.2</ele>
        <time>2019-05-12T11:00:19Z</time>
      </trkpt>
      <trkpt lat="38.7461440" lon="-0.5395140">
        <ele>915.2</ele>
        <time>2019-05-12T11:00:20Z</time>
      </trkpt>
      <trkpt lat="38.7461780" lon="-0.5396070">
        <ele>914.2</ele>
        <time>2019-05-12T11:00:21Z</time>
      </trkpt>
      <trkpt lat="38.7462110" lon="-0.5397070">
        <ele>912.2</ele>
        <time>2019-05-12T11:00:22Z</time>
      </trkpt>
      <trkpt lat="38.7462400" lon="-0.5398050">
        <ele>910.8</ele>
        <time>2019-05-12T11:00:23Z</time>
      </trkpt>
      <trkpt lat="38.7462700" lon="-0.5399040">
        <ele>909.8</ele>
        <time>2019-05-12T11:00:24Z</time>
      </trkpt>
      <trkpt lat="38.7462970" lon="-0.5399900">
        <ele>908.8</ele>
        <time>2019-05-12T11:00:25Z</time>
      </trkpt>
      <trkpt lat="38.7463200" lon="-0.5400700">
        <ele>908.2</ele>
        <time>2019-05-12T11:00:26Z</time>
      </trkpt>
      <trkpt lat="38.7463320" lon="-0.5401440">
        <ele>907.8</ele>
        <time>2019-05-12T11:00:27Z</time>
      </trkpt>
      <trkpt lat="38.7463290" lon="-0.5402240">
        <ele>907.8</ele>
        <time>2019-05-12T11:00:28Z</time>
      </trkpt>
      <trkpt lat="38.7462780" lon="-0.5403820">
        <ele>906.6</ele>
        <time>2019-05-12T11:00:30Z</time>
      </trkpt>
      <trkpt lat="38.7462320" lon="-0.5404650">
        <ele>905.8</ele>
        <time>2019-05-12T11:00:31Z</time>
      </trkpt>
      <trkpt lat="38.7461800" lon="-0.5405390">
        <ele>905.0</ele>
        <time>2019-05-12T11:00:32Z</time>
      </trkpt>
      <trkpt lat="38.7461240" lon="-0.5406110">
        <ele>904.6</ele>
        <time>2019-05-12T11:00:33Z</time>
      </trkpt>
      <trkpt lat="38.7460710" lon="-0.5406790">
        <ele>903.8</ele>
        <time>2019-05-12T11:00:34Z</time>
      </trkpt>
      <trkpt lat="38.7460140" lon="-0.5407490">
        <ele>903.2</ele>
        <time>2019-05-12T11:00:35Z</time>
      </trkpt>
      <trkpt lat="38.7459560" lon="-0.5408130">
        <ele>902.6</ele>
        <time>2019-05-12T11:00:36Z</time>
      </trkpt>
      <trkpt lat="38.7457340" lon="-0.5410380">
        <ele>901.6</ele>
        <time>2019-05-12T11:00:40Z</time>
      </trkpt>
      <trkpt lat="38.7456790" lon="-0.5410970">
        <ele>901.4</ele>
        <time>2019-05-12T11:00:41Z</time>
      </trkpt>
      <trkpt lat="38.7454600" lon="-0.5414010">
        <ele>900.0</ele>
        <time>2019-05-12T11:00:46Z</time>
      </trkpt>
      <trkpt lat="38.7454260" lon="-0.5414680">
        <ele>898.0</ele>
        <time>2019-05-12T11:00:47Z</time>
      </trkpt>
      <trkpt lat="38.7454020" lon="-0.5415380">
        <ele>897.4</ele>
        <time>2019-05-12T11:00:48Z</time>
      </trkpt>
      <trkpt lat="38.7453850" lon="-0.5416180">
        <ele>897.0</ele>
        <time>2019-05-12T11:00:49Z</time>
      </trkpt>
      <trkpt lat="38.7453780" lon="-0.5417030">
        <ele>896.6</ele>
        <time>2019-05-12T11:00:50Z</time>
      </trkpt>
      <trkpt lat="38.7453760" lon="-0.5417860">
        <ele>895.8</ele>
        <time>2019-05-12T11:00:51Z</time>
      </trkpt>
      <trkpt lat="38.7453860" lon="-0.5419480">
        <ele>894.4</ele>
        <time>2019-05-12T11:00:53Z</time>
      </trkpt>
      <trkpt lat="38.7453900" lon="-0.5419900">
        <ele>893.8</ele>
        <time>2019-05-12T11:00:54Z</time>
      </trkpt>
      <trkpt lat="38.7453960" lon="-0.5420470">
        <ele>893.2</ele>
        <time>2019-05-12T11:00:55Z</time>
      </trkpt>
      <trkpt lat="38.7454000" lon="-0.5421660">
        <ele>892.2</ele>
        <time>2019-05-12T11:00:58Z</time>
      </trkpt>
      <trkpt lat="38.7454260" lon="-0.5422850">
        <ele>892.0</ele>
        <time>2019-05-12T11:01:03Z</time>
      </trkpt>
      <trkpt lat="38.7454520" lon="-0.5423940">
        <ele>891.4</ele>
        <time>2019-05-12T11:01:08Z</time>
      </trkpt>
      <trkpt lat="38.7454500" lon="-0.5424190">
        <ele>891.2</ele>
        <time>2019-05-12T11:01:09Z</time>
      </trkpt>
      <trkpt lat="38.7454020" lon="-0.5425310">
        <ele>891.0</ele>
        <time>2019-05-12T11:01:12Z</time>
      </trkpt>
      <trkpt lat="38.7453640" lon="-0.5426670">
        <ele>889.4</ele>
        <time>2019-05-12T11:01:14Z</time>
      </trkpt>
      <trkpt lat="38.7453300" lon="-0.5428240">
        <ele>888.2</ele>
        <time>2019-05-12T11:01:16Z</time>
      </trkpt>
      <trkpt lat="38.7453100" lon="-0.5429000">
        <ele>887.6</ele>
        <time>2019-05-12T11:01:17Z</time>
      </trkpt>
      <trkpt lat="38.7452850" lon="-0.5429770">
        <ele>887.2</ele>
        <time>2019-05-12T11:01:18Z</time>
      </trkpt>
      <trkpt lat="38.7452140" lon="-0.5431930">
        <ele>887.4</ele>
        <time>2019-05-12T11:01:21Z</time>
      </trkpt>
      <trkpt lat="38.7451650" lon="-0.5433160">
        <ele>887.6</ele>
        <time>2019-05-12T11:01:23Z</time>
      </trkpt>
      <trkpt lat="38.7450740" lon="-0.5434620">
        <ele>888.0</ele>
        <time>2019-05-12T11:01:26Z</time>
      </trkpt>
      <trkpt lat="38.7450470" lon="-0.5435050">
        <ele>888.4</ele>
        <time>2019-05-12T11:01:27Z</time>
      </trkpt>
      <trkpt lat="38.7449930" lon="-0.5435930">
        <ele>889.4</ele>
        <time>2019-05-12T11:01:29Z</time>
      </trkpt>
      <trkpt lat="38.7449680" lon="-0.5436350">
        <ele>889.8</ele>
        <time>2019-05-12T11:01:30Z</time>
      </trkpt>
      <trkpt lat="38.7448930" lon="-0.5437550">
        <ele>891.2</ele>
        <time>2019-05-12T11:01:33Z</time>
      </trkpt>
      <trkpt lat="38.7447770" lon="-0.5439370">
        <ele>892.4</ele>
        <time>2019-05-12T11:01:38Z</time>
      </trkpt>
      <trkpt lat="38.7447560" lon="-0.5439680">
        <ele>893.4</ele>
        <time>2019-05-12T11:01:39Z</time>
      </trkpt>
      <trkpt lat="38.7447360" lon="-0.5440000">
        <ele>893.6</ele>
        <time>2019-05-12T11:01:40Z</time>
      </trkpt>
      <trkpt lat="38.7446670" lon="-0.5440900">
        <ele>894.6</ele>
        <time>2019-05-12T11:01:43Z</time>
      </trkpt>
      <trkpt lat="38.7446120" lon="-0.5441350">
        <ele>895.0</ele>
        <time>2019-05-12T11:01:45Z</time>
      </trkpt>
      <trkpt lat="38.7444860" lon="-0.5442120">
        <ele>895.6</ele>
        <time>2019-05-12T11:01:49Z</time>
      </trkpt>
      <trkpt lat="38.7443870" lon="-0.5442690">
        <ele>895.8</ele>
        <time>2019-05-12T11:01:52Z</time>
      </trkpt>
      <trkpt lat="38.7441780" lon="-0.5443890">
        <ele>896.6</ele>
        <time>2019-05-12T11:01:58Z</time>
      </trkpt>
      <trkpt lat="38.7441460" lon="-0.5444090">
        <ele>896.8</ele>
        <time>2019-05-12T11:01:59Z</time>
      </trkpt>
      <trkpt lat="38.7440260" lon="-0.5444960">
        <ele>898.0</ele>
        <time>2019-05-12T11:02:03Z</time>
      </trkpt>
      <trkpt lat="38.7439810" lon="-0.5445450">
        <ele>898.6</ele>
        <time>2019-05-12T11:02:05Z</time>
      </trkpt>
      <trkpt lat="38.7439450" lon="-0.5445980">
        <ele>899.2</ele>
        <time>2019-05-12T11:02:07Z</time>
      </trkpt>
      <trkpt lat="38.7438990" lon="-0.5447530">
        <ele>899.2</ele>
        <time>2019-05-12T11:02:11Z</time>
      </trkpt>
      <trkpt lat="38.7439050" lon="-0.5449070">
        <ele>899.0</ele>
        <time>2019-05-12T11:02:14Z</time>
      </trkpt>
      <trkpt lat="38.7439280" lon="-0.5450150">
        <ele>898.6</ele>
        <time>2019-05-12T11:02:16Z</time>
      </trkpt>
      <trkpt lat="38.7439620" lon="-0.5451320">
        <ele>898.0</ele>
        <time>2019-05-12T11:02:18Z</time>
      </trkpt>
      <trkpt lat="38.7440570" lon="-0.5453100">
        <ele>896.8</ele>
        <time>2019-05-12T11:02:21Z</time>
      </trkpt>
      <trkpt lat="38.7441150" lon="-0.5454410">
        <ele>895.6</ele>
        <time>2019-05-12T11:02:23Z</time>
      </trkpt>
      <trkpt lat="38.7441330" lon="-0.5456100">
        <ele>895.2</ele>
        <time>2019-05-12T11:02:25Z</time>
      </trkpt>
      <trkpt lat="38.7441250" lon="-0.5457040">
        <ele>894.6</ele>
        <time>2019-05-12T11:02:26Z</time>
      </trkpt>
      <trkpt lat="38.7441140" lon="-0.5458030">
        <ele>893.8</ele>
        <time>2019-05-12T11:02:27Z</time>
      </trkpt>
      <trkpt lat="38.7440990" lon="-0.5459060">
        <ele>892.0</ele>
        <time>2019-05-12T11:02:28Z</time>
      </trkpt>
      <trkpt lat="38.7440910" lon="-0.5460080">
        <ele>891.0</ele>
        <time>2019-05-12T11:02:29Z</time>
      </trkpt>
      <trkpt lat="38.7440820" lon="-0.5462340">
        <ele>888.6</ele>
        <time>2019-05-12T11:02:31Z</time>
      </trkpt>
      <trkpt lat="38.7440670" lon="-0.5463560">
        <ele>887.4</ele>
        <time>2019-05-12T11:02:32Z</time>
      </trkpt>
      <trkpt lat="38.7440410" lon="-0.5464770">
        <ele>886.0</ele>
        <time>2019-05-12T11:02:33Z</time>
      </trkpt>
      <trkpt lat="38.7439600" lon="-0.5467110">
        <ele>884.0</ele>
        <time>2019-05-12T11:02:35Z</time>
      </trkpt>
      <trkpt lat="38.7438850" lon="-0.5469320">
        <ele>883.4</ele>
        <time>2019-05-12T11:02:37Z</time>
      </trkpt>
      <trkpt lat="38.7438590" lon="-0.5470390">
        <ele>883.6</ele>
        <time>2019-05-12T11:02:38Z</time>
      </trkpt>
      <trkpt lat="38.7437750" lon="-0.5473180">
        <ele>883.8</ele>
        <time>2019-05-12T11:02:41Z</time>
      </trkpt>
      <trkpt lat="38.7437300" lon="-0.5474860">
        <ele>884.8</ele>
        <time>2019-05-12T11:02:43Z</time>
      </trkpt>
      <trkpt lat="38.7437060" lon="-0.5476510">
        <ele>885.4</ele>
        <time>2019-05-12T11:02:45Z</time>
      </trkpt>
      <trkpt lat="38.7436920" lon="-0.5477290">
        <ele>885.8</ele>
        <time>2019-05-12T11:02:46Z</time>
      </trkpt>
      <trkpt lat="38.7436520" lon="-0.5479400">
        <ele>886.4</ele>
        <time>2019-05-12T11:02:49Z</time>
      </trkpt>
      <trkpt lat="38.7436440" lon="-0.5480620">
        <ele>886.8</ele>
        <time>2019-05-12T11:02:51Z</time>
      </trkpt>
      <trkpt lat="38.7435790" lon="-0.5481770">
        <ele>887.4</ele>
        <time>2019-05-12T11:02:54Z</time>
      </trkpt>
      <trkpt lat="38.7434900" lon="-0.5482060">
        <ele>887.0</ele>
        <time>2019-05-12T11:02:56Z</time>
      </trkpt>
      <trkpt lat="38.7434440" lon="-0.5482240">
        <ele>887.0</ele>
        <time>2019-05-12T11:02:57Z</time>
      </trkpt>
      <trkpt lat="38.7433970" lon="-0.5482510">
        <ele>886.8</ele>
        <time>2019-05-12T11:02:58Z</time>
      </trkpt>
      <trkpt lat="38.7432880" lon="-0.5484070">
        <ele>885.8</ele>
        <time>2019-05-12T11:03:01Z</time>
      </trkpt>
      <trkpt lat="38.7432690" lon="-0.5484860">
        <ele>885.2</ele>
        <time>2019-05-12T11:03:02Z</time>
      </trkpt>
      <trkpt lat="38.7432530" lon="-0.5486580">
        <ele>884.0</ele>
        <time>2019-05-12T11:03:04Z</time>
      </trkpt>
      <trkpt lat="38.7432500" lon="-0.5487430">
        <ele>883.8</ele>
        <time>2019-05-12T11:03:05Z</time>
      </trkpt>
      <trkpt lat="38.7432500" lon="-0.5488250">
        <ele>883.6</ele>
        <time>2019-05-12T11:03:06Z</time>
      </trkpt>
      <trkpt lat="38.7432530" lon="-0.5489840">
        <ele>883.8</ele>
        <time>2019-05-12T11:03:08Z</time>
      </trkpt>
      <trkpt lat="38.7432470" lon="-0.5490610">
        <ele>884.0</ele>
        <time>2019-05-12T11:03:09Z</time>
      </trkpt>
      <trkpt lat="38.7432340" lon="-0.5491380">
        <ele>884.2</ele>
        <time>2019-05-12T11:03:10Z</time>
      </trkpt>
      <trkpt lat="38.7431550" lon="-0.5493750">
        <ele>884.0</ele>
        <time>2019-05-12T11:03:13Z</time>
      </trkpt>
      <trkpt lat="38.7431100" lon="-0.5495360">
        <ele>883.0</ele>
        <time>2019-05-12T11:03:15Z</time>
      </trkpt>
      <trkpt lat="38.7430590" lon="-0.5497730">
        <ele>882.4</ele>
        <time>2019-05-12T11:03:18Z</time>
      </trkpt>
      <trkpt lat="38.7429500" lon="-0.5500270">
        <ele>883.6</ele>
        <time>2019-05-12T11:03:22Z</time>
      </trkpt>
      <trkpt lat="38.7429280" lon="-0.5500920">
        <ele>883.8</ele>
        <time>2019-05-12T11:03:23Z</time>
      </trkpt>
      <trkpt lat="38.7428910" lon="-0.5502210">
        <ele>884.0</ele>
        <time>2019-05-12T11:03:25Z</time>
      </trkpt>
      <trkpt lat="38.7428370" lon="-0.5504040">
        <ele>884.6</ele>
        <time>2019-05-12T11:03:28Z</time>
      </trkpt>
      <trkpt lat="38.7428150" lon="-0.5504620">
        <ele>884.8</ele>
        <time>2019-05-12T11:03:29Z</time>
      </trkpt>
      <trkpt lat="38.7427720" lon="-0.5505750">
        <ele>885.0</ele>
        <time>2019-05-12T11:03:31Z</time>
      </trkpt>
      <trkpt lat="38.7427550" lon="-0.5506330">
        <ele>885.6</ele>
        <time>2019-05-12T11:03:32Z</time>
      </trkpt>
      <trkpt lat="38.7427260" lon="-0.5507520">
        <ele>886.2</ele>
        <time>2019-05-12T11:03:34Z</time>
      </trkpt>
      <trkpt lat="38.7427000" lon="-0.5508710">
        <ele>886.2</ele>
        <time>2019-05-12T11:03:36Z</time>
      </trkpt>
      <trkpt lat="38.7425880" lon="-0.5512090">
        <ele>887.4</ele>
        <time>2019-05-12T11:03:42Z</time>
      </trkpt>
      <trkpt lat="38.7425680" lon="-0.5512640">
        <ele>887.6</ele>
        <time>2019-05-12T11:03:43Z</time>
      </trkpt>
      <trkpt lat="38.7424220" lon="-0.5516720">
        <ele>887.2</ele>
        <time>2019-05-12T11:03:50Z</time>
      </trkpt>
      <trkpt lat="38.7423100" lon="-0.5521190">
        <ele>887.4</ele>
        <time>2019-05-12T11:03:57Z</time>
      </trkpt>
      <trkpt lat="38.7421470" lon="-0.5523740">
        <ele>887.8</ele>
        <time>2019-05-12T11:04:02Z</time>
      </trkpt>
      <trkpt lat="38.7421050" lon="-0.5524090">
        <ele>887.8</ele>
        <time>2019-05-12T11:04:03Z</time>
      </trkpt>
      <trkpt lat="38.7420650" lon="-0.5524470">
        <ele>888.0</ele>
        <time>2019-05-12T11:04:04Z</time>
      </trkpt>
      <trkpt lat="38.7419860" lon="-0.5525920">
        <ele>888.0</ele>
        <time>2019-05-12T11:04:07Z</time>
      </trkpt>
      <trkpt lat="38.7419650" lon="-0.5526450">
        <ele>888.4</ele>
        <time>2019-05-12T11:04:08Z</time>
      </trkpt>
      <trkpt lat="38.7418560" lon="-0.5529120">
        <ele>888.4</ele>
        <time>2019-05-12T11:04:13Z</time>
      </trkpt>
      <trkpt lat="38.7418350" lon="-0.5529630">
        <ele>888.6</ele>
        <time>2019-05-12T11:04:14Z</time>
      </trkpt>
      <trkpt lat="38.7417620" lon="-0.5531170">
        <ele>889.0</ele>
        <time>2019-05-12T11:04:17Z</time>
      </trkpt>
      <trkpt lat="38.7417440" lon="-0.5531750">
        <ele>889.2</ele>
        <time>2019-05-12T11:04:18Z</time>
      </trkpt>
      <trkpt lat="38.7416460" lon="-0.5534360">
        <ele>889.8</ele>
        <time>2019-05-12T11:04:23Z</time>
      </trkpt>
      <trkpt lat="38.7416260" lon="-0.5534890">
        <ele>890.2</ele>
        <time>2019-05-12T11:04:24Z</time>
      </trkpt>
      <trkpt lat="38.7415090" lon="-0.5537930">
        <ele>890.6</ele>
        <time>2019-05-12T11:04:30Z</time>
      </trkpt>
      <trkpt lat="38.7414920" lon="-0.5538430">
        <ele>891.0</ele>
        <time>2019-05-12T11:04:31Z</time>
      </trkpt>
      <trkpt lat="38.7413580" lon="-0.5542550">
        <ele>891.0</ele>
        <time>2019-05-12T11:04:39Z</time>
      </trkpt>
      <trkpt lat="38.7412920" lon="-0.5544050">
        <ele>892.0</ele>
        <time>2019-05-12T11:04:42Z</time>
      </trkpt>
      <trkpt lat="38.7412200" lon="-0.5546020">
        <ele>892.2</ele>
        <time>2019-05-12T11:04:46Z</time>
      </trkpt>
      <trkpt lat="38.7411610" lon="-0.5548090">
        <ele>893.0</ele>
        <time>2019-05-12T11:04:50Z</time>
      </trkpt>
      <trkpt lat="38.7410670" lon="-0.5551040">
        <ele>894.0</ele>
        <time>2019-05-12T11:04:56Z</time>
      </trkpt>
      <trkpt lat="38.7409460" lon="-0.5554210">
        <ele>895.2</ele>
        <time>2019-05-12T11:05:03Z</time>
      </trkpt>
      <trkpt lat="38.7409070" lon="-0.5555090">
        <ele>895.6</ele>
        <time>2019-05-12T11:05:05Z</time>
      </trkpt>
      <trkpt lat="38.7408330" lon="-0.5557290">
        <ele>896.4</ele>
        <time>2019-05-12T11:05:10Z</time>
      </trkpt>
      <trkpt lat="38.7408260" lon="-0.5557760">
        <ele>896.2</ele>
        <time>2019-05-12T11:05:11Z</time>
      </trkpt>
      <trkpt lat="38.7407330" lon="-0.5560330">
        <ele>897.2</ele>
        <time>2019-05-12T11:05:17Z</time>
      </trkpt>
      <trkpt lat="38.7406950" lon="-0.5561130">
        <ele>897.6</ele>
        <time>2019-05-12T11:05:19Z</time>
      </trkpt>
      <trkpt lat="38.7405890" lon="-0.5563050">
        <ele>898.6</ele>
        <time>2019-05-12T11:05:24Z</time>
      </trkpt>
      <trkpt lat="38.7405660" lon="-0.5563440">
        <ele>898.8</ele>
        <time>2019-05-12T11:05:25Z</time>
      </trkpt>
      <trkpt lat="38.7404580" lon="-0.5565620">
        <ele>899.2</ele>
        <time>2019-05-12T11:05:30Z</time>
      </trkpt>
      <trkpt lat="38.7404330" lon="-0.5566020">
        <ele>899.2</ele>
        <time>2019-05-12T11:05:31Z</time>
      </trkpt>
      <trkpt lat="38.7403520" lon="-0.5567170">
        <ele>900.0</ele>
        <time>2019-05-12T11:05:34Z</time>
      </trkpt>
      <trkpt lat="38.7402530" lon="-0.5568790">
        <ele>900.2</ele>
        <time>2019-05-12T11:05:38Z</time>
      </trkpt>
      <trkpt lat="38.7401270" lon="-0.5571250">
        <ele>901.0</ele>
        <time>2019-05-12T11:05:44Z</time>
      </trkpt>
      <trkpt lat="38.7400900" lon="-0.5572130">
        <ele>901.0</ele>
        <time>2019-05-12T11:05:46Z</time>
      </trkpt>
      <trkpt lat="38.7399870" lon="-0.5575370">
        <ele>900.8</ele>
        <time>2019-05-12T11:05:53Z</time>
      </trkpt>
      <trkpt lat="38.7398720" lon="-0.5578150">
        <ele>902.0</ele>
        <time>2019-05-12T11:05:59Z</time>
      </trkpt>
      <trkpt lat="38.7398520" lon="-0.5578620">
        <ele>902.2</ele>
        <time>2019-05-12T11:06:00Z</time>
      </trkpt>
      <trkpt lat="38.7397290" lon="-0.5580520">
        <ele>903.0</ele>
        <time>2019-05-12T11:06:05Z</time>
      </trkpt>
      <trkpt lat="38.7396990" lon="-0.5580800">
        <ele>903.2</ele>
        <time>2019-05-12T11:06:06Z</time>
      </trkpt>
      <trkpt lat="38.7395220" lon="-0.5581640">
        <ele>903.8</ele>
        <time>2019-05-12T11:06:11Z</time>
      </trkpt>
      <trkpt lat="38.7394120" lon="-0.5581780">
        <ele>904.2</ele>
        <time>2019-05-12T11:06:14Z</time>
      </trkpt>
      <trkpt lat="38.7393410" lon="-0.5581880">
        <ele>904.2</ele>
        <time>2019-05-12T11:06:16Z</time>
      </trkpt>
      <trkpt lat="38.7392080" lon="-0.5582280">
        <ele>905.2</ele>
        <time>2019-05-12T11:06:20Z</time>
      </trkpt>
      <trkpt lat="38.7391490" lon="-0.5582620">
        <ele>905.2</ele>
        <time>2019-05-12T11:06:22Z</time>
      </trkpt>
      <trkpt lat="38.7390560" lon="-0.5583620">
        <ele>906.4</ele>
        <time>2019-05-12T11:06:26Z</time>
      </trkpt>
      <trkpt lat="38.7390170" lon="-0.5584190">
        <ele>907.0</ele>
        <time>2019-05-12T11:06:28Z</time>
      </trkpt>
      <trkpt lat="38.7389790" lon="-0.5584720">
        <ele>907.6</ele>
        <time>2019-05-12T11:06:30Z</time>
      </trkpt>
      <trkpt lat="38.7389090" lon="-0.5585350">
        <ele>908.4</ele>
        <time>2019-05-12T11:06:33Z</time>
      </trkpt>
      <trkpt lat="38.7388880" lon="-0.5585540">
        <ele>908.8</ele>
        <time>2019-05-12T11:06:34Z</time>
      </trkpt>
      <trkpt lat="38.7388280" lon="-0.5586130">
        <ele>910.0</ele>
        <time>2019-05-12T11:06:37Z</time>
      </trkpt>
      <trkpt lat="38.7387920" lon="-0.5586550">
        <ele>910.6</ele>
        <time>2019-05-12T11:06:39Z</time>
      </trkpt>
      <trkpt lat="38.7387570" lon="-0.5586940">
        <ele>911.2</ele>
        <time>2019-05-12T11:06:41Z</time>
      </trkpt>
      <trkpt lat="38.7387030" lon="-0.5587560">
        <ele>912.4</ele>
        <time>2019-05-12T11:06:44Z</time>
      </trkpt>
      <trkpt lat="38.7386840" lon="-0.5587800">
        <ele>912.8</ele>
        <time>2019-05-12T11:06:45Z</time>
      </trkpt>
      <trkpt lat="38.7386450" lon="-0.5588240">
        <ele>913.4</ele>
        <time>2019-05-12T11:06:47Z</time>
      </trkpt>
      <trkpt lat="38.7385160" lon="-0.5589390">
        <ele>914.6</ele>
        <time>2019-05-12T11:06:53Z</time>
      </trkpt>
      <trkpt lat="38.7384250" lon="-0.5590730">
        <ele>915.6</ele>
        <time>2019-05-12T11:06:58Z</time>
      </trkpt>
      <trkpt lat="38.7383870" lon="-0.5591320">
        <ele>915.8</ele>
        <time>2019-05-12T11:07:00Z</time>
      </trkpt>
      <trkpt lat="38.7383420" lon="-0.5593310">
        <ele>917.0</ele>
        <time>2019-05-12T11:07:05Z</time>
      </trkpt>
      <trkpt lat="38.7382880" lon="-0.5595720">
        <ele>917.2</ele>
        <time>2019-05-12T11:07:11Z</time>
      </trkpt>
      <trkpt lat="38.7382360" lon="-0.5596840">
        <ele>918.2</ele>
        <time>2019-05-12T11:07:14Z</time>
      </trkpt>
      <trkpt lat="38.7381470" lon="-0.5598050">
        <ele>918.8</ele>
        <time>2019-05-12T11:07:18Z</time>
      </trkpt>
      <trkpt lat="38.7381250" lon="-0.5598350">
        <ele>919.2</ele>
        <time>2019-05-12T11:07:19Z</time>
      </trkpt>
      <trkpt lat="38.7380200" lon="-0.5600340">
        <ele>920.0</ele>
        <time>2019-05-12T11:07:25Z</time>
      </trkpt>
      <trkpt lat="38.7379900" lon="-0.5601070">
        <ele>920.4</ele>
        <time>2019-05-12T11:07:27Z</time>
      </trkpt>
      <trkpt lat="38.7379280" lon="-0.5602570">
        <ele>920.8</ele>
        <time>2019-05-12T11:07:31Z</time>
      </trkpt>
      <trkpt lat="38.7378810" lon="-0.5603760">
        <ele>921.4</ele>
        <time>2019-05-12T11:07:34Z</time>
      </trkpt>
      <trkpt lat="38.7378330" lon="-0.5605030">
        <ele>921.4</ele>
        <time>2019-05-12T11:07:37Z</time>
      </trkpt>
      <trkpt lat="38.7377060" lon="-0.5607290">
        <ele>921.6</ele>
        <time>2019-05-12T11:07:43Z</time>
      </trkpt>
      <trkpt lat="38.7376330" lon="-0.5608150">
        <ele>922.6</ele>
        <time>2019-05-12T11:07:46Z</time>
      </trkpt>
      <trkpt lat="38.7375570" lon="-0.5608910">
        <ele>923.4</ele>
        <time>2019-05-12T11:07:49Z</time>
      </trkpt>
      <trkpt lat="38.7375040" lon="-0.5609390">
        <ele>923.8</ele>
        <time>2019-05-12T11:07:51Z</time>
      </trkpt>
      <trkpt lat="38.7374370" lon="-0.5610280">
        <ele>924.8</ele>
        <time>2019-05-12T11:07:54Z</time>
      </trkpt>
      <trkpt lat="38.7374180" lon="-0.5610610">
        <ele>925.2</ele>
        <time>2019-05-12T11:07:55Z</time>
      </trkpt>
      <trkpt lat="38.7373390" lon="-0.5612400">
        <ele>925.6</ele>
        <time>2019-05-12T11:08:00Z</time>
      </trkpt>
      <trkpt lat="38.7372730" lon="-0.5614640">
        <ele>925.6</ele>
        <time>2019-05-12T11:08:06Z</time>
      </trkpt>
      <trkpt lat="38.7372340" lon="-0.5615100">
        <ele>926.0</ele>
        <time>2019-05-12T11:08:08Z</time>
      </trkpt>
      <trkpt lat="38.7371450" lon="-0.5615990">
        <ele>926.8</ele>
        <time>2019-05-12T11:08:12Z</time>
      </trkpt>
      <trkpt lat="38.7371250" lon="-0.5616280">
        <ele>927.0</ele>
        <time>2019-05-12T11:08:13Z</time>
      </trkpt>
      <trkpt lat="38.7370300" lon="-0.5617210">
        <ele>928.2</ele>
        <time>2019-05-12T11:08:17Z</time>
      </trkpt>
      <trkpt lat="38.7370040" lon="-0.5617420">
        <ele>928.6</ele>
        <time>2019-05-12T11:08:18Z</time>
      </trkpt>
      <trkpt lat="38.7369310" lon="-0.5618190">
        <ele>929.4</ele>
        <time>2019-05-12T11:08:21Z</time>
      </trkpt>
      <trkpt lat="38.7368400" lon="-0.5619340">
        <ele>930.0</ele>
        <time>2019-05-12T11:08:25Z</time>
      </trkpt>
      <trkpt lat="38.7367660" lon="-0.5620940">
        <ele>930.6</ele>
        <time>2019-05-12T11:08:29Z</time>
      </trkpt>
      <trkpt lat="38.7367160" lon="-0.5622220">
        <ele>930.6</ele>
        <time>2019-05-12T11:08:32Z</time>
      </trkpt>
      <trkpt lat="38.7366220" lon="-0.5625320">
        <ele>930.0</ele>
        <time>2019-05-12T11:08:39Z</time>
      </trkpt>
      <trkpt lat="38.7365830" lon="-0.5626360">
        <ele>929.4</ele>
        <time>2019-05-12T11:08:41Z</time>
      </trkpt>
      <trkpt lat="38.7365370" lon="-0.5627530">
        <ele>928.2</ele>
        <time>2019-05-12T11:08:43Z</time>
      </trkpt>
      <trkpt lat="38.7365110" lon="-0.5628140">
        <ele>927.8</ele>
        <time>2019-05-12T11:08:44Z</time>
      </trkpt>
      <trkpt lat="38.7364800" lon="-0.5628740">
        <ele>927.4</ele>
        <time>2019-05-12T11:08:45Z</time>
      </trkpt>
      <trkpt lat="38.7364440" lon="-0.5629290">
        <ele>927.0</ele>
        <time>2019-05-12T11:08:46Z</time>
      </trkpt>
      <trkpt lat="38.7363240" lon="-0.5630750">
        <ele>926.6</ele>
        <time>2019-05-12T11:08:49Z</time>
      </trkpt>
      <trkpt lat="38.7361760" lon="-0.5631250">
        <ele>926.8</ele>
        <time>2019-05-12T11:08:52Z</time>
      </trkpt>
      <trkpt lat="38.7360530" lon="-0.5632460">
        <ele>926.8</ele>
        <time>2019-05-12T11:08:55Z</time>
      </trkpt>
      <trkpt lat="38.7360150" lon="-0.5633050">
        <ele>926.6</ele>
        <time>2019-05-12T11:08:56Z</time>
      </trkpt>
      <trkpt lat="38.7359430" lon="-0.5634400">
        <ele>925.6</ele>
        <time>2019-05-12T11:08:58Z</time>
      </trkpt>
      <trkpt lat="38.7358790" lon="-0.5635760">
        <ele>924.4</ele>
        <time>2019-05-12T11:09:00Z</time>
      </trkpt>
      <trkpt lat="38.7358220" lon="-0.5637050">
        <ele>924.2</ele>
        <time>2019-05-12T11:09:02Z</time>
      </trkpt>
      <trkpt lat="38.7357560" lon="-0.5638250">
        <ele>924.6</ele>
        <time>2019-05-12T11:09:04Z</time>
      </trkpt>
      <trkpt lat="38.7357330" lon="-0.5638940">
        <ele>924.8</ele>
        <time>2019-05-12T11:09:05Z</time>
      </trkpt>
      <trkpt lat="38.7355800" lon="-0.5642870">
        <ele>924.0</ele>
        <time>2019-05-12T11:09:11Z</time>
      </trkpt>
      <trkpt lat="38.7355360" lon="-0.5643960">
        <ele>924.6</ele>
        <time>2019-05-12T11:09:13Z</time>
      </trkpt>
      <trkpt lat="38.7354870" lon="-0.5645770">
        <ele>924.6</ele>
        <time>2019-05-12T11:09:16Z</time>
      </trkpt>
      <trkpt lat="38.7354260" lon="-0.5647450">
        <ele>924.2</ele>
        <time>2019-05-12T11:09:19Z</time>
      </trkpt>
      <trkpt lat="38.7353640" lon="-0.5648510">
        <ele>924.0</ele>
        <time>2019-05-12T11:09:21Z</time>
      </trkpt>
      <trkpt lat="38.7353030" lon="-0.5649830">
        <ele>923.6</ele>
        <time>2019-05-12T11:09:24Z</time>
      </trkpt>
      <trkpt lat="38.7352820" lon="-0.5650210">
        <ele>923.8</ele>
        <time>2019-05-12T11:09:25Z</time>
      </trkpt>
      <trkpt lat="38.7351630" lon="-0.5652280">
        <ele>923.6</ele>
        <time>2019-05-12T11:09:30Z</time>
      </trkpt>
      <trkpt lat="38.7351330" lon="-0.5652720">
        <ele>923.2</ele>
        <time>2019-05-12T11:09:31Z</time>
      </trkpt>
      <trkpt lat="38.7350980" lon="-0.5653160">
        <ele>922.8</ele>
        <time>2019-05-12T11:09:32Z</time>
      </trkpt>
      <trkpt lat="38.7350090" lon="-0.5653860">
        <ele>922.4</ele>
        <time>2019-05-12T11:09:34Z</time>
      </trkpt>
      <trkpt lat="38.7348570" lon="-0.5655320">
        <ele>922.4</ele>
        <time>2019-05-12T11:09:38Z</time>
      </trkpt>
      <trkpt lat="38.7348210" lon="-0.5655870">
        <ele>921.8</ele>
        <time>2019-05-12T11:09:39Z</time>
      </trkpt>
      <trkpt lat="38.7347390" lon="-0.5657080">
        <ele>920.2</ele>
        <time>2019-05-12T11:09:41Z</time>
      </trkpt>
      <trkpt lat="38.7347010" lon="-0.5657790">
        <ele>919.8</ele>
        <time>2019-05-12T11:09:42Z</time>
      </trkpt>
      <trkpt lat="38.7346650" lon="-0.5658620">
        <ele>919.4</ele>
        <time>2019-05-12T11:09:43Z</time>
      </trkpt>
      <trkpt lat="38.7346270" lon="-0.5659410">
        <ele>919.2</ele>
        <time>2019-05-12T11:09:44Z</time>
      </trkpt>
      <trkpt lat="38.7345280" lon="-0.5660850">
        <ele>917.8</ele>
        <time>2019-05-12T11:09:46Z</time>
      </trkpt>
      <trkpt lat="38.7344830" lon="-0.5661600">
        <ele>917.6</ele>
        <time>2019-05-12T11:09:47Z</time>
      </trkpt>
      <trkpt lat="38.7344290" lon="-0.5663270">
        <ele>917.4</ele>
        <time>2019-05-12T11:09:49Z</time>
      </trkpt>
      <trkpt lat="38.7344040" lon="-0.5664060">
        <ele>917.6</ele>
        <time>2019-05-12T11:09:50Z</time>
      </trkpt>
      <trkpt lat="38.7342820" lon="-0.5667610">
        <ele>917.8</ele>
        <time>2019-05-12T11:09:55Z</time>
      </trkpt>
      <trkpt lat="38.7341910" lon="-0.5669300">
        <ele>918.4</ele>
        <time>2019-05-12T11:09:58Z</time>
      </trkpt>
      <trkpt lat="38.7341420" lon="-0.5670470">
        <ele>918.8</ele>
        <time>2019-05-12T11:10:00Z</time>
      </trkpt>
      <trkpt lat="38.7341130" lon="-0.5670950">
        <ele>919.0</ele>
        <time>2019-05-12T11:10:01Z</time>
      </trkpt>
      <trkpt lat="38.7339920" lon="-0.5671940">
        <ele>919.8</ele>
        <time>2019-05-12T11:10:04Z</time>
      </trkpt>
      <trkpt lat="38.7339470" lon="-0.5672080">
        <ele>920.4</ele>
        <time>2019-05-12T11:10:05Z</time>
      </trkpt>
      <trkpt lat="38.7338620" lon="-0.5671980">
        <ele>921.0</ele>
        <time>2019-05-12T11:10:07Z</time>
      </trkpt>
      <trkpt lat="38.7337910" lon="-0.5671450">
        <ele>921.2</ele>
        <time>2019-05-12T11:10:09Z</time>
      </trkpt>
      <trkpt lat="38.7337590" lon="-0.5671150">
        <ele>921.6</ele>
        <time>2019-05-12T11:10:10Z</time>
      </trkpt>
      <trkpt lat="38.7337240" lon="-0.5670890">
        <ele>922.0</ele>
        <time>2019-05-12T11:10:11Z</time>
      </trkpt>
      <trkpt lat="38.7336870" lon="-0.5670830">
        <ele>922.2</ele>
        <time>2019-05-12T11:10:12Z</time>
      </trkpt>
      <trkpt lat="38.7336550" lon="-0.5670950">
        <ele>922.6</ele>
        <time>2019-05-12T11:10:13Z</time>
      </trkpt>
      <trkpt lat="38.7336230" lon="-0.5671170">
        <ele>923.0</ele>
        <time>2019-05-12T11:10:14Z</time>
      </trkpt>
      <trkpt lat="38.7335540" lon="-0.5672290">
        <ele>924.0</ele>
        <time>2019-05-12T11:10:17Z</time>
      </trkpt>
      <trkpt lat="38.7335320" lon="-0.5672710">
        <ele>924.2</ele>
        <time>2019-05-12T11:10:18Z</time>
      </trkpt>
      <trkpt lat="38.7334750" lon="-0.5673920">
        <ele>924.0</ele>
        <time>2019-05-12T11:10:21Z</time>
      </trkpt>
      <trkpt lat="38.7334280" lon="-0.5674610">
        <ele>924.6</ele>
        <time>2019-05-12T11:10:23Z</time>
      </trkpt>
      <trkpt lat="38.7334030" lon="-0.5674930">
        <ele>925.2</ele>
        <time>2019-05-12T11:10:24Z</time>
      </trkpt>
      <trkpt lat="38.7333400" lon="-0.5676380">
        <ele>925.8</ele>
        <time>2019-05-12T11:10:28Z</time>
      </trkpt>
      <trkpt lat="38.7333080" lon="-0.5677120">
        <ele>926.4</ele>
        <time>2019-05-12T11:10:30Z</time>
      </trkpt>
      <trkpt lat="38.7332480" lon="-0.5678610">
        <ele>927.2</ele>
        <time>2019-05-12T11:10:34Z</time>
      </trkpt>
      <trkpt lat="38.7332210" lon="-0.5679370">
        <ele>927.6</ele>
        <time>2019-05-12T11:10:36Z</time>
      </trkpt>
      <trkpt lat="38.7331820" lon="-0.5680330">
        <ele>928.4</ele>
        <time>2019-05-12T11:10:39Z</time>
      </trkpt>
      <trkpt lat="38.7331720" lon="-0.5680680">
        <ele>929.0</ele>
        <time>2019-05-12T11:10:40Z</time>
      </trkpt>
      <trkpt lat="38.7331620" lon="-0.5682230">
        <ele>929.6</ele>
        <time>2019-05-12T11:10:44Z</time>
      </trkpt>
      <trkpt lat="38.7331620" lon="-0.5683570">
        <ele>930.0</ele>
        <time>2019-05-12T11:10:47Z</time>
      </trkpt>
      <trkpt lat="38.7331510" lon="-0.5684910">
        <ele>930.6</ele>
        <time>2019-05-12T11:10:50Z</time>
      </trkpt>
      <trkpt lat="38.7331190" lon="-0.5686050">
        <ele>931.2</ele>
        <time>2019-05-12T11:10:53Z</time>
      </trkpt>
      <trkpt lat="38.7330740" lon="-0.5687070">
        <ele>931.6</ele>
        <time>2019-05-12T11:10:56Z</time>
      </trkpt>
      <trkpt lat="38.7330400" lon="-0.5688240">
        <ele>932.2</ele>
        <time>2019-05-12T11:10:59Z</time>
      </trkpt>
      <trkpt lat="38.7330280" lon="-0.5688660">
        <ele>932.4</ele>
        <time>2019-05-12T11:11:00Z</time>
      </trkpt>
      <trkpt lat="38.7329870" lon="-0.5690820">
        <ele>933.2</ele>
        <time>2019-05-12T11:11:05Z</time>
      </trkpt>
      <trkpt lat="38.7328660" lon="-0.5692740">
        <ele>934.0</ele>
        <time>2019-05-12T11:11:11Z</time>
      </trkpt>
      <trkpt lat="38.7327740" lon="-0.5693310">
        <ele>934.4</ele>
        <time>2019-05-12T11:11:14Z</time>
      </trkpt>
      <trkpt lat="38.7326840" lon="-0.5693920">
        <ele>935.0</ele>
        <time>2019-05-12T11:11:17Z</time>
      </trkpt>
      <trkpt lat="38.7326340" lon="-0.5694460">
        <ele>935.4</ele>
        <time>2019-05-12T11:11:19Z</time>
      </trkpt>
      <trkpt lat="38.7325930" lon="-0.5695800">
        <ele>936.0</ele>
        <time>2019-05-12T11:11:22Z</time>
      </trkpt>
      <trkpt lat="38.7325240" lon="-0.5698170">
        <ele>936.0</ele>
        <time>2019-05-12T11:11:27Z</time>
      </trkpt>
      <trkpt lat="38.7324210" lon="-0.5700570">
        <ele>936.8</ele>
        <time>2019-05-12T11:11:32Z</time>
      </trkpt>
      <trkpt lat="38.7324000" lon="-0.5701030">
        <ele>936.8</ele>
        <time>2019-05-12T11:11:33Z</time>
      </trkpt>
      <trkpt lat="38.7322880" lon="-0.5703040">
        <ele>937.8</ele>
        <time>2019-05-12T11:11:38Z</time>
      </trkpt>
      <trkpt lat="38.7322350" lon="-0.5703630">
        <ele>938.2</ele>
        <time>2019-05-12T11:11:40Z</time>
      </trkpt>
      <trkpt lat="38.7321950" lon="-0.5704280">
        <ele>938.8</ele>
        <time>2019-05-12T11:11:42Z</time>
      </trkpt>
      <trkpt lat="38.7321460" lon="-0.5705400">
        <ele>939.4</ele>
        <time>2019-05-12T11:11:45Z</time>
      </trkpt>
      <trkpt lat="38.7321150" lon="-0.5706140">
        <ele>939.8</ele>
        <time>2019-05-12T11:11:47Z</time>
      </trkpt>
      <trkpt lat="38.7320370" lon="-0.5707420">
        <ele>940.4</ele>
        <time>2019-05-12T11:11:51Z</time>
      </trkpt>
      <trkpt lat="38.7320040" lon="-0.5708130">
        <ele>941.0</ele>
        <time>2019-05-12T11:11:53Z</time>
      </trkpt>
      <trkpt lat="38.7319640" lon="-0.5709350">
        <ele>941.8</ele>
        <time>2019-05-12T11:11:56Z</time>
      </trkpt>
      <trkpt lat="38.7319260" lon="-0.5712020">
        <ele>941.8</ele>
        <time>2019-05-12T11:12:02Z</time>
      </trkpt>
      <trkpt lat="38.7319160" lon="-0.5712560">
        <ele>941.8</ele>
        <time>2019-05-12T11:12:03Z</time>
      </trkpt>
      <trkpt lat="38.7318740" lon="-0.5714800">
        <ele>941.6</ele>
        <time>2019-05-12T11:12:07Z</time>
      </trkpt>
      <trkpt lat="38.7318360" lon="-0.5716720">
        <ele>941.2</ele>
        <time>2019-05-12T11:12:10Z</time>
      </trkpt>
      <trkpt lat="38.7318130" lon="-0.5718030">
        <ele>941.0</ele>
        <time>2019-05-12T11:12:12Z</time>
      </trkpt>
      <trkpt lat="38.7317430" lon="-0.5720790">
        <ele>942.0</ele>
        <time>2019-05-12T11:12:17Z</time>
      </trkpt>
      <trkpt lat="38.7317320" lon="-0.5721260">
        <ele>942.4</ele>
        <time>2019-05-12T11:12:18Z</time>
      </trkpt>
      <trkpt lat="38.7317150" lon="-0.5722210">
        <ele>943.6</ele>
        <time>2019-05-12T11:12:20Z</time>
      </trkpt>
      <trkpt lat="38.7317130" lon="-0.5723300">
        <ele>944.0</ele>
        <time>2019-05-12T11:12:22Z</time>
      </trkpt>
      <trkpt lat="38.7317250" lon="-0.5723910">
        <ele>943.8</ele>
        <time>2019-05-12T11:12:23Z</time>
      </trkpt>
      <trkpt lat="38.7317930" lon="-0.5726090">
        <ele>942.2</ele>
        <time>2019-05-12T11:12:26Z</time>
      </trkpt>
      <trkpt lat="38.7318090" lon="-0.5726910">
        <ele>941.4</ele>
        <time>2019-05-12T11:12:27Z</time>
      </trkpt>
      <trkpt lat="38.7318180" lon="-0.5727770">
        <ele>940.8</ele>
        <time>2019-05-12T11:12:28Z</time>
      </trkpt>
      <trkpt lat="38.7318480" lon="-0.5730370">
        <ele>940.2</ele>
        <time>2019-05-12T11:12:31Z</time>
      </trkpt>
      <trkpt lat="38.7318610" lon="-0.5731210">
        <ele>940.0</ele>
        <time>2019-05-12T11:12:32Z</time>
      </trkpt>
      <trkpt lat="38.7318690" lon="-0.5732050">
        <ele>940.0</ele>
        <time>2019-05-12T11:12:33Z</time>
      </trkpt>
      <trkpt lat="38.7318990" lon="-0.5733620">
        <ele>940.2</ele>
        <time>2019-05-12T11:12:35Z</time>
      </trkpt>
      <trkpt lat="38.7319280" lon="-0.5734300">
        <ele>940.0</ele>
        <time>2019-05-12T11:12:36Z</time>
      </trkpt>
      <trkpt lat="38.7319840" lon="-0.5735600">
        <ele>940.2</ele>
        <time>2019-05-12T11:12:38Z</time>
      </trkpt>
      <trkpt lat="38.7320100" lon="-0.5737080">
        <ele>940.6</ele>
        <time>2019-05-12T11:12:40Z</time>
      </trkpt>
      <trkpt lat="38.7319770" lon="-0.5739390">
        <ele>940.8</ele>
        <time>2019-05-12T11:12:43Z</time>
      </trkpt>
      <trkpt lat="38.7318900" lon="-0.5741370">
        <ele>940.8</ele>
        <time>2019-05-12T11:12:46Z</time>
      </trkpt>
      <trkpt lat="38.7318690" lon="-0.5741990">
        <ele>940.8</ele>
        <time>2019-05-12T11:12:47Z</time>
      </trkpt>
      <trkpt lat="38.7318520" lon="-0.5742610">
        <ele>940.8</ele>
        <time>2019-05-12T11:12:48Z</time>
      </trkpt>
      <trkpt lat="38.7318100" lon="-0.5744720">
        <ele>939.6</ele>
        <time>2019-05-12T11:12:51Z</time>
      </trkpt>
      <trkpt lat="38.7318020" lon="-0.5746160">
        <ele>938.4</ele>
        <time>2019-05-12T11:12:53Z</time>
      </trkpt>
      <trkpt lat="38.7318300" lon="-0.5746740">
        <ele>938.0</ele>
        <time>2019-05-12T11:12:54Z</time>
      </trkpt>
      <trkpt lat="38.7319250" lon="-0.5747570">
        <ele>937.4</ele>
        <time>2019-05-12T11:12:56Z</time>
      </trkpt>
      <trkpt lat="38.7319810" lon="-0.5747930">
        <ele>936.6</ele>
        <time>2019-05-12T11:12:57Z</time>
      </trkpt>
      <trkpt lat="38.7320430" lon="-0.5748210">
        <ele>936.0</ele>
        <time>2019-05-12T11:12:58Z</time>
      </trkpt>
      <trkpt lat="38.7321760" lon="-0.5748500">
        <ele>934.8</ele>
        <time>2019-05-12T11:13:00Z</time>
      </trkpt>
      <trkpt lat="38.7322360" lon="-0.5748510">
        <ele>934.4</ele>
        <time>2019-05-12T11:13:01Z</time>
      </trkpt>
      <trkpt lat="38.7324120" lon="-0.5748640">
        <ele>934.6</ele>
        <time>2019-05-12T11:13:04Z</time>
      </trkpt>
      <trkpt lat="38.7325020" lon="-0.5748980">
        <ele>934.2</ele>
        <time>2019-05-12T11:13:06Z</time>
      </trkpt>
      <trkpt lat="38.7325130" lon="-0.5749930">
        <ele>933.8</ele>
        <time>2019-05-12T11:13:09Z</time>
      </trkpt>
      <trkpt lat="38.7324940" lon="-0.5750340">
        <ele>933.6</ele>
        <time>2019-05-12T11:13:10Z</time>
      </trkpt>
      <trkpt lat="38.7324750" lon="-0.5750910">
        <ele>933.2</ele>
        <time>2019-05-12T11:13:11Z</time>
      </trkpt>
      <trkpt lat="38.7324610" lon="-0.5751570">
        <ele>932.4</ele>
        <time>2019-05-12T11:13:12Z</time>
      </trkpt>
      <trkpt lat="38.7324460" lon="-0.5752280">
        <ele>931.8</ele>
        <time>2019-05-12T11:13:13Z</time>
      </trkpt>
      <trkpt lat="38.7324380" lon="-0.5753030">
        <ele>931.4</ele>
        <time>2019-05-12T11:13:14Z</time>
      </trkpt>
      <trkpt lat="38.7324540" lon="-0.5755520">
        <ele>930.2</ele>
        <time>2019-05-12T11:13:17Z</time>
      </trkpt>
      <trkpt lat="38.7324680" lon="-0.5756330">
        <ele>930.4</ele>
        <time>2019-05-12T11:13:18Z</time>
      </trkpt>
      <trkpt lat="38.7324860" lon="-0.5758930">
        <ele>929.8</ele>
        <time>2019-05-12T11:13:21Z</time>
      </trkpt>
      <trkpt lat="38.7324830" lon="-0.5759800">
        <ele>929.6</ele>
        <time>2019-05-12T11:13:22Z</time>
      </trkpt>
      <trkpt lat="38.7324910" lon="-0.5760660">
        <ele>929.8</ele>
        <time>2019-05-12T11:13:23Z</time>
      </trkpt>
      <trkpt lat="38.7325290" lon="-0.5763190">
        <ele>929.2</ele>
        <time>2019-05-12T11:13:26Z</time>
      </trkpt>
      <trkpt lat="38.7325330" lon="-0.5766500">
        <ele>929.4</ele>
        <time>2019-05-12T11:13:30Z</time>
      </trkpt>
      <trkpt lat="38.7325460" lon="-0.5767330">
        <ele>929.6</ele>
        <time>2019-05-12T11:13:31Z</time>
      </trkpt>
      <trkpt lat="38.7325560" lon="-0.5769980">
        <ele>929.4</ele>
        <time>2019-05-12T11:13:34Z</time>
      </trkpt>
      <trkpt lat="38.7325550" lon="-0.5770850">
        <ele>929.2</ele>
        <time>2019-05-12T11:13:35Z</time>
      </trkpt>
      <trkpt lat="38.7325270" lon="-0.5774590">
        <ele>930.6</ele>
        <time>2019-05-12T11:13:40Z</time>
      </trkpt>
      <trkpt lat="38.7325160" lon="-0.5775210">
        <ele>931.0</ele>
        <time>2019-05-12T11:13:41Z</time>
      </trkpt>
      <trkpt lat="38.7324990" lon="-0.5775810">
        <ele>931.6</ele>
        <time>2019-05-12T11:13:42Z</time>
      </trkpt>
      <trkpt lat="38.7324600" lon="-0.5776960">
        <ele>932.4</ele>
        <time>2019-05-12T11:13:44Z</time>
      </trkpt>
      <trkpt lat="38.7324260" lon="-0.5778140">
        <ele>932.6</ele>
        <time>2019-05-12T11:13:46Z</time>
      </trkpt>
      <trkpt lat="38.7324060" lon="-0.5780010">
        <ele>932.6</ele>
        <time>2019-05-12T11:13:49Z</time>
      </trkpt>
      <trkpt lat="38.7323980" lon="-0.5780680">
        <ele>932.8</ele>
        <time>2019-05-12T11:13:50Z</time>
      </trkpt>
      <trkpt lat="38.7323850" lon="-0.5781320">
        <ele>933.0</ele>
        <time>2019-05-12T11:13:51Z</time>
      </trkpt>
      <trkpt lat="38.7323220" lon="-0.5782940">
        <ele>933.2</ele>
        <time>2019-05-12T11:13:54Z</time>
      </trkpt>
      <trkpt lat="38.7322550" lon="-0.5784400">
        <ele>934.0</ele>
        <time>2019-05-12T11:13:57Z</time>
      </trkpt>
      <trkpt lat="38.7322070" lon="-0.5785290">
        <ele>934.6</ele>
        <time>2019-05-12T11:13:59Z</time>
      </trkpt>
      <trkpt lat="38.7321810" lon="-0.5785660">
        <ele>935.0</ele>
        <time>2019-05-12T11:14:00Z</time>
      </trkpt>
      <trkpt lat="38.7321130" lon="-0.5786850">
        <ele>935.4</ele>
        <time>2019-05-12T11:14:03Z</time>
      </trkpt>
      <trkpt lat="38.7320420" lon="-0.5788140">
        <ele>936.4</ele>
        <time>2019-05-12T11:14:06Z</time>
      </trkpt>
      <trkpt lat="38.7320210" lon="-0.5788580">
        <ele>936.6</ele>
        <time>2019-05-12T11:14:07Z</time>
      </trkpt>
      <trkpt lat="38.7319080" lon="-0.5789920">
        <ele>936.8</ele>
        <time>2019-05-12T11:14:11Z</time>
      </trkpt>
      <trkpt lat="38.7317080" lon="-0.5791010">
        <ele>937.4</ele>
        <time>2019-05-12T11:14:16Z</time>
      </trkpt>
      <trkpt lat="38.7316750" lon="-0.5791380">
        <ele>937.4</ele>
        <time>2019-05-12T11:14:17Z</time>
      </trkpt>
      <trkpt lat="38.7315890" lon="-0.5792870">
        <ele>937.4</ele>
        <time>2019-05-12T11:14:20Z</time>
      </trkpt>
      <trkpt lat="38.7315540" lon="-0.5793340">
        <ele>937.2</ele>
        <time>2019-05-12T11:14:21Z</time>
      </trkpt>
      <trkpt lat="38.7313850" lon="-0.5794640">
        <ele>936.2</ele>
        <time>2019-05-12T11:14:25Z</time>
      </trkpt>
      <trkpt lat="38.7312480" lon="-0.5795600">
        <ele>937.6</ele>
        <time>2019-05-12T11:14:29Z</time>
      </trkpt>
      <trkpt lat="38.7311790" lon="-0.5796020">
        <ele>938.4</ele>
        <time>2019-05-12T11:14:31Z</time>
      </trkpt>
      <trkpt lat="38.7311350" lon="-0.5796140">
        <ele>938.2</ele>
        <time>2019-05-12T11:14:32Z</time>
      </trkpt>
      <trkpt lat="38.7310420" lon="-0.5796500">
        <ele>937.6</ele>
        <time>2019-05-12T11:14:34Z</time>
      </trkpt>
      <trkpt lat="38.7309620" lon="-0.5797450">
        <ele>937.4</ele>
        <time>2019-05-12T11:14:36Z</time>
      </trkpt>
      <trkpt lat="38.7309160" lon="-0.5799580">
        <ele>936.6</ele>
        <time>2019-05-12T11:14:39Z</time>
      </trkpt>
      <trkpt lat="38.7309110" lon="-0.5800290">
        <ele>936.8</ele>
        <time>2019-05-12T11:14:40Z</time>
      </trkpt>
      <trkpt lat="38.7309040" lon="-0.5800950">
        <ele>936.6</ele>
        <time>2019-05-12T11:14:41Z</time>
      </trkpt>
      <trkpt lat="38.7309050" lon="-0.5802100">
        <ele>935.8</ele>
        <time>2019-05-12T11:14:43Z</time>
      </trkpt>
      <trkpt lat="38.7309110" lon="-0.5802700">
        <ele>935.8</ele>
        <time>2019-05-12T11:14:44Z</time>
      </trkpt>
      <trkpt lat="38.7309120" lon="-0.5803390">
        <ele>935.6</ele>
        <time>2019-05-12T11:14:45Z</time>
      </trkpt>
      <trkpt lat="38.7309210" lon="-0.5805580">
        <ele>934.0</ele>
        <time>2019-05-12T11:14:48Z</time>
      </trkpt>
      <trkpt lat="38.7309390" lon="-0.5806770">
        <ele>933.4</ele>
        <time>2019-05-12T11:14:50Z</time>
      </trkpt>
      <trkpt lat="38.7309290" lon="-0.5807460">
        <ele>933.2</ele>
        <time>2019-05-12T11:14:51Z</time>
      </trkpt>
      <trkpt lat="38.7309020" lon="-0.5808220">
        <ele>932.6</ele>
        <time>2019-05-12T11:14:52Z</time>
      </trkpt>
      <trkpt lat="38.7308630" lon="-0.5808990">
        <ele>931.6</ele>
        <time>2019-05-12T11:14:53Z</time>
      </trkpt>
      <trkpt lat="38.7308210" lon="-0.5809760">
        <ele>930.2</ele>
        <time>2019-05-12T11:14:54Z</time>
      </trkpt>
      <trkpt lat="38.7307830" lon="-0.5810670">
        <ele>927.2</ele>
        <time>2019-05-12T11:14:55Z</time>
      </trkpt>
      <trkpt lat="38.7307540" lon="-0.5811720">
        <ele>925.4</ele>
        <time>2019-05-12T11:14:56Z</time>
      </trkpt>
      <trkpt lat="38.7307220" lon="-0.5812840">
        <ele>923.6</ele>
        <time>2019-05-12T11:14:57Z</time>
      </trkpt>
      <trkpt lat="38.7306820" lon="-0.5813940">
        <ele>921.8</ele>
        <time>2019-05-12T11:14:58Z</time>
      </trkpt>
      <trkpt lat="38.7306420" lon="-0.5815020">
        <ele>920.4</ele>
        <time>2019-05-12T11:14:59Z</time>
      </trkpt>
      <trkpt lat="38.7306030" lon="-0.5816100">
        <ele>919.8</ele>
        <time>2019-05-12T11:15:00Z</time>
      </trkpt>
      <trkpt lat="38.7305690" lon="-0.5817180">
        <ele>919.4</ele>
        <time>2019-05-12T11:15:01Z</time>
      </trkpt>
      <trkpt lat="38.7305150" lon="-0.5819140">
        <ele>919.6</ele>
        <time>2019-05-12T11:15:03Z</time>
      </trkpt>
      <trkpt lat="38.7305130" lon="-0.5819880">
        <ele>919.8</ele>
        <time>2019-05-12T11:15:04Z</time>
      </trkpt>
      <trkpt lat="38.7305450" lon="-0.5820700">
        <ele>921.6</ele>
        <time>2019-05-12T11:15:06Z</time>
      </trkpt>
      <trkpt lat="38.7305690" lon="-0.5820960">
        <ele>923.0</ele>
        <time>2019-05-12T11:15:07Z</time>
      </trkpt>
      <trkpt lat="38.7305890" lon="-0.5821240">
        <ele>924.2</ele>
        <time>2019-05-12T11:15:08Z</time>
      </trkpt>
      <trkpt lat="38.7306130" lon="-0.5821860">
        <ele>925.4</ele>
        <time>2019-05-12T11:15:10Z</time>
      </trkpt>
      <trkpt lat="38.7306070" lon="-0.5822220">
        <ele>925.8</ele>
        <time>2019-05-12T11:15:11Z</time>
      </trkpt>
      <trkpt lat="38.7306050" lon="-0.5822880">
        <ele>926.6</ele>
        <time>2019-05-12T11:15:13Z</time>
      </trkpt>
      <trkpt lat="38.7306180" lon="-0.5823390">
        <ele>927.4</ele>
        <time>2019-05-12T11:15:15Z</time>
      </trkpt>
      <trkpt lat="38.7306280" lon="-0.5823610">
        <ele>927.8</ele>
        <time>2019-05-12T11:15:16Z</time>
      </trkpt>
      <trkpt lat="38.7306730" lon="-0.5824100">
        <ele>928.8</ele>
        <time>2019-05-12T11:15:19Z</time>
      </trkpt>
      <trkpt lat="38.7306890" lon="-0.5824220">
        <ele>929.6</ele>
        <time>2019-05-12T11:15:20Z</time>
      </trkpt>
      <trkpt lat="38.7307310" lon="-0.5824400">
        <ele>930.0</ele>
        <time>2019-05-12T11:15:22Z</time>
      </trkpt>
      <trkpt lat="38.7307980" lon="-0.5824410">
        <ele>930.6</ele>
        <time>2019-05-12T11:15:25Z</time>
      </trkpt>
      <trkpt lat="38.7308540" lon="-0.5824300">
        <ele>930.8</ele>
        <time>2019-05-12T11:15:27Z</time>
      </trkpt>
      <trkpt lat="38.7309240" lon="-0.5824370">
        <ele>931.2</ele>
        <time>2019-05-12T11:15:30Z</time>
      </trkpt>
      <trkpt lat="38.7309620" lon="-0.5824670">
        <ele>931.6</ele>
        <time>2019-05-12T11:15:32Z</time>
      </trkpt>
      <trkpt lat="38.7309830" lon="-0.5825390">
        <ele>932.2</ele>
        <time>2019-05-12T11:15:35Z</time>
      </trkpt>
      <trkpt lat="38.7309810" lon="-0.5825690">
        <ele>932.6</ele>
        <time>2019-05-12T11:15:36Z</time>
      </trkpt>
      <trkpt lat="38.7310130" lon="-0.5827060">
        <ele>933.0</ele>
        <time>2019-05-12T11:15:40Z</time>
      </trkpt>
      <trkpt lat="38.7310590" lon="-0.5827690">
        <ele>933.6</ele>
        <time>2019-05-12T11:15:42Z</time>
      </trkpt>
      <trkpt lat="38.7310820" lon="-0.5827970">
        <ele>933.6</ele>
        <time>2019-05-12T11:15:43Z</time>
      </trkpt>
      <trkpt lat="38.7311180" lon="-0.5828550">
        <ele>934.0</ele>
        <time>2019-05-12T11:15:45Z</time>
      </trkpt>
      <trkpt lat="38.7311840" lon="-0.5830480">
        <ele>934.2</ele>
        <time>2019-05-12T11:15:50Z</time>
      </trkpt>
      <trkpt lat="38.7312650" lon="-0.5832700">
        <ele>934.0</ele>
        <time>2019-05-12T11:15:56Z</time>
      </trkpt>
      <trkpt lat="38.7312780" lon="-0.5834960">
        <ele>933.4</ele>
        <time>2019-05-12T11:16:01Z</time>
      </trkpt>
      <trkpt lat="38.7312720" lon="-0.5836690">
        <ele>934.8</ele>
        <time>2019-05-12T11:16:05Z</time>
      </trkpt>
      <trkpt lat="38.7312820" lon="-0.5837630">
        <ele>935.2</ele>
        <time>2019-05-12T11:16:07Z</time>
      </trkpt>
      <trkpt lat="38.7312930" lon="-0.5838120">
        <ele>935.0</ele>
        <time>2019-05-12T11:16:08Z</time>
      </trkpt>
      <trkpt lat="38.7313700" lon="-0.5840260">
        <ele>934.0</ele>
        <time>2019-05-12T11:16:12Z</time>
      </trkpt>
      <trkpt lat="38.7313820" lon="-0.5840840">
        <ele>933.8</ele>
        <time>2019-05-12T11:16:13Z</time>
      </trkpt>
      <trkpt lat="38.7313710" lon="-0.5842450">
        <ele>933.8</ele>
        <time>2019-05-12T11:16:16Z</time>
      </trkpt>
      <trkpt lat="38.7313710" lon="-0.5842950">
        <ele>933.6</ele>
        <time>2019-05-12T11:16:17Z</time>
      </trkpt>
      <trkpt lat="38.7314280" lon="-0.5843850">
        <ele>933.6</ele>
        <time>2019-05-12T11:16:19Z</time>
      </trkpt>
      <trkpt lat="38.7315290" lon="-0.5844600">
        <ele>933.2</ele>
        <time>2019-05-12T11:16:21Z</time>
      </trkpt>
      <trkpt lat="38.7315860" lon="-0.5844980">
        <ele>932.4</ele>
        <time>2019-05-12T11:16:22Z</time>
      </trkpt>
      <trkpt lat="38.7316530" lon="-0.5845300">
        <ele>931.4</ele>
        <time>2019-05-12T11:16:23Z</time>
      </trkpt>
      <trkpt lat="38.7318030" lon="-0.5846010">
        <ele>929.4</ele>
        <time>2019-05-12T11:16:25Z</time>
      </trkpt>
      <trkpt lat="38.7319620" lon="-0.5846740">
        <ele>927.2</ele>
        <time>2019-05-12T11:16:27Z</time>
      </trkpt>
      <trkpt lat="38.7320440" lon="-0.5847140">
        <ele>925.8</ele>
        <time>2019-05-12T11:16:28Z</time>
      </trkpt>
      <trkpt lat="38.7321280" lon="-0.5847490">
        <ele>924.8</ele>
        <time>2019-05-12T11:16:29Z</time>
      </trkpt>
      <trkpt lat="38.7322940" lon="-0.5848340">
        <ele>923.2</ele>
        <time>2019-05-12T11:16:31Z</time>
      </trkpt>
      <trkpt lat="38.7324640" lon="-0.5849300">
        <ele>922.2</ele>
        <time>2019-05-12T11:16:33Z</time>
      </trkpt>
      <trkpt lat="38.7326320" lon="-0.5850390">
        <ele>919.8</ele>
        <time>2019-05-12T11:16:35Z</time>
      </trkpt>
      <trkpt lat="38.7327420" lon="-0.5851340">
        <ele>919.4</ele>
        <time>2019-05-12T11:16:37Z</time>
      </trkpt>
      <trkpt lat="38.7327910" lon="-0.5851980">
        <ele>921.0</ele>
        <time>2019-05-12T11:16:40Z</time>
      </trkpt>
      <trkpt lat="38.7327400" lon="-0.5852400">
        <ele>920.8</ele>
        <time>2019-05-12T11:16:44Z</time>
      </trkpt>
      <trkpt lat="38.7326320" lon="-0.5852630">
        <ele>920.8</ele>
        <time>2019-05-12T11:16:48Z</time>
      </trkpt>
      <trkpt lat="38.7326030" lon="-0.5852710">
        <ele>920.6</ele>
        <time>2019-05-12T11:16:49Z</time>
      </trkpt>
      <trkpt lat="38.7324780" lon="-0.5853450">
        <ele>920.6</ele>
        <time>2019-05-12T11:16:53Z</time>
      </trkpt>
      <trkpt lat="38.7322540" lon="-0.5854720">
        <ele>921.8</ele>
        <time>2019-05-12T11:16:59Z</time>
      </trkpt>
      <trkpt lat="38.7322180" lon="-0.5854810">
        <ele>922.4</ele>
        <time>2019-05-12T11:17:00Z</time>
      </trkpt>
      <trkpt lat="38.7321490" lon="-0.5854870">
        <ele>923.6</ele>
        <time>2019-05-12T11:17:02Z</time>
      </trkpt>
      <trkpt lat="38.7320790" lon="-0.5854810">
        <ele>924.0</ele>
        <time>2019-05-12T11:17:04Z</time>
      </trkpt>
      <trkpt lat="38.7320100" lon="-0.5854730">
        <ele>924.8</ele>
        <time>2019-05-12T11:17:06Z</time>
      </trkpt>
      <trkpt lat="38.7319440" lon="-0.5854700">
        <ele>925.8</ele>
        <time>2019-05-12T11:17:08Z</time>
      </trkpt>
      <trkpt lat="38.7318770" lon="-0.5854740">
        <ele>926.6</ele>
        <time>2019-05-12T11:17:10Z</time>
      </trkpt>
      <trkpt lat="38.7317690" lon="-0.5854690">
        <ele>926.8</ele>
        <time>2019-05-12T11:17:13Z</time>
      </trkpt>
      <trkpt lat="38.7316680" lon="-0.5854640">
        <ele>927.2</ele>
        <time>2019-05-12T11:17:16Z</time>
      </trkpt>
      <trkpt lat="38.7315330" lon="-0.5854560">
        <ele>927.8</ele>
        <time>2019-05-12T11:17:20Z</time>
      </trkpt>
      <trkpt lat="38.7314440" lon="-0.5854490">
        <ele>928.8</ele>
        <time>2019-05-12T11:17:23Z</time>
      </trkpt>
      <trkpt lat="38.7314150" lon="-0.5854530">
        <ele>929.0</ele>
        <time>2019-05-12T11:17:24Z</time>
      </trkpt>
      <trkpt lat="38.7313250" lon="-0.5854650">
        <ele>930.0</ele>
        <time>2019-05-12T11:17:27Z</time>
      </trkpt>
      <trkpt lat="38.7313010" lon="-0.5854780">
        <ele>930.2</ele>
        <time>2019-05-12T11:17:28Z</time>
      </trkpt>
      <trkpt lat="38.7311920" lon="-0.5855270">
        <ele>931.0</ele>
        <time>2019-05-12T11:17:32Z</time>
      </trkpt>
      <trkpt lat="38.7310970" lon="-0.5855490">
        <ele>931.4</ele>
        <time>2019-05-12T11:17:35Z</time>
      </trkpt>
      <trkpt lat="38.7309190" lon="-0.5855860">
        <ele>931.4</ele>
        <time>2019-05-12T11:17:41Z</time>
      </trkpt>
      <trkpt lat="38.7307910" lon="-0.5856290">
        <ele>932.2</ele>
        <time>2019-05-12T11:17:45Z</time>
      </trkpt>
      <trkpt lat="38.7306700" lon="-0.5856600">
        <ele>933.4</ele>
        <time>2019-05-12T11:17:49Z</time>
      </trkpt>
      <trkpt lat="38.7304230" lon="-0.5857020">
        <ele>934.0</ele>
        <time>2019-05-12T11:17:57Z</time>
      </trkpt>
      <trkpt lat="38.7303950" lon="-0.5857080">
        <ele>934.4</ele>
        <time>2019-05-12T11:17:58Z</time>
      </trkpt>
      <trkpt lat="38.7302390" lon="-0.5857360">
        <ele>935.2</ele>
        <time>2019-05-12T11:18:04Z</time>
      </trkpt>
      <trkpt lat="38.7302140" lon="-0.5857390">
        <ele>935.4</ele>
        <time>2019-05-12T11:18:05Z</time>
      </trkpt>
      <trkpt lat="38.7301390" lon="-0.5857430">
        <ele>936.4</ele>
        <time>2019-05-12T11:18:08Z</time>
      </trkpt>
      <trkpt lat="38.7300630" lon="-0.5857530">
        <ele>937.6</ele>
        <time>2019-05-12T11:18:11Z</time>
      </trkpt>
      <trkpt lat="38.7300390" lon="-0.5857610">
        <ele>937.8</ele>
        <time>2019-05-12T11:18:12Z</time>
      </trkpt>
      <trkpt lat="38.7299650" lon="-0.5858060">
        <ele>938.6</ele>
        <time>2019-05-12T11:18:15Z</time>
      </trkpt>
      <trkpt lat="38.7298930" lon="-0.5858440">
        <ele>939.2</ele>
        <time>2019-05-12T11:18:18Z</time>
      </trkpt>
      <trkpt lat="38.7298430" lon="-0.5858720">
        <ele>939.6</ele>
        <time>2019-05-12T11:18:20Z</time>
      </trkpt>
      <trkpt lat="38.7297720" lon="-0.5859080">
        <ele>940.8</ele>
        <time>2019-05-12T11:18:23Z</time>
      </trkpt>
      <trkpt lat="38.7296970" lon="-0.5859460">
        <ele>941.2</ele>
        <time>2019-05-12T11:18:26Z</time>
      </trkpt>
      <trkpt lat="38.7296220" lon="-0.5859940">
        <ele>941.8</ele>
        <time>2019-05-12T11:18:29Z</time>
      </trkpt>
      <trkpt lat="38.7295080" lon="-0.5860670">
        <ele>942.4</ele>
        <time>2019-05-12T11:18:34Z</time>
      </trkpt>
      <trkpt lat="38.7293520" lon="-0.5861770">
        <ele>942.8</ele>
        <time>2019-05-12T11:18:40Z</time>
      </trkpt>
      <trkpt lat="38.7291380" lon="-0.5863470">
        <ele>943.2</ele>
        <time>2019-05-12T11:18:47Z</time>
      </trkpt>
      <trkpt lat="38.7289790" lon="-0.5864840">
        <ele>943.6</ele>
        <time>2019-05-12T11:18:52Z</time>
      </trkpt>
      <trkpt lat="38.7287900" lon="-0.5866790">
        <ele>943.8</ele>
        <time>2019-05-12T11:18:58Z</time>
      </trkpt>
      <trkpt lat="38.7286110" lon="-0.5869320">
        <ele>943.2</ele>
        <time>2019-05-12T11:19:04Z</time>
      </trkpt>
      <trkpt lat="38.7284470" lon="-0.5872110">
        <ele>942.4</ele>
        <time>2019-05-12T11:19:09Z</time>
      </trkpt>
      <trkpt lat="38.7283410" lon="-0.5873930">
        <ele>941.6</ele>
        <time>2019-05-12T11:19:12Z</time>
      </trkpt>
      <trkpt lat="38.7281990" lon="-0.5876310">
        <ele>940.6</ele>
        <time>2019-05-12T11:19:16Z</time>
      </trkpt>
      <trkpt lat="38.7281700" lon="-0.5876890">
        <ele>940.6</ele>
        <time>2019-05-12T11:19:17Z</time>
      </trkpt>
      <trkpt lat="38.7280680" lon="-0.5879740">
        <ele>941.4</ele>
        <time>2019-05-12T11:19:22Z</time>
      </trkpt>
      <trkpt lat="38.7280560" lon="-0.5880350">
        <ele>941.8</ele>
        <time>2019-05-12T11:19:23Z</time>
      </trkpt>
      <trkpt lat="38.7280200" lon="-0.5882980">
        <ele>941.6</ele>
        <time>2019-05-12T11:19:27Z</time>
      </trkpt>
      <trkpt lat="38.7280080" lon="-0.5884230">
        <ele>941.6</ele>
        <time>2019-05-12T11:19:29Z</time>
      </trkpt>
      <trkpt lat="38.7279890" lon="-0.5885390">
        <ele>941.8</ele>
        <time>2019-05-12T11:19:31Z</time>
      </trkpt>
      <trkpt lat="38.7279230" lon="-0.5886800">
        <ele>943.0</ele>
        <time>2019-05-12T11:19:34Z</time>
      </trkpt>
      <trkpt lat="38.7278290" lon="-0.5887720">
        <ele>944.2</ele>
        <time>2019-05-12T11:19:37Z</time>
      </trkpt>
      <trkpt lat="38.7277690" lon="-0.5888300">
        <ele>944.6</ele>
        <time>2019-05-12T11:19:39Z</time>
      </trkpt>
      <trkpt lat="38.7276570" lon="-0.5889820">
        <ele>945.4</ele>
        <time>2019-05-12T11:19:43Z</time>
      </trkpt>
      <trkpt lat="38.7275950" lon="-0.5890760">
        <ele>945.4</ele>
        <time>2019-05-12T11:19:45Z</time>
      </trkpt>
      <trkpt lat="38.7275340" lon="-0.5891780">
        <ele>945.4</ele>
        <time>2019-05-12T11:19:47Z</time>
      </trkpt>
      <trkpt lat="38.7273950" lon="-0.5894400">
        <ele>944.8</ele>
        <time>2019-05-12T11:19:52Z</time>
      </trkpt>
      <trkpt lat="38.7273150" lon="-0.5895910">
        <ele>944.8</ele>
        <time>2019-05-12T11:19:55Z</time>
      </trkpt>
      <trkpt lat="38.7272730" lon="-0.5897030">
        <ele>944.8</ele>
        <time>2019-05-12T11:19:57Z</time>
      </trkpt>
      <trkpt lat="38.7272150" lon="-0.5898640">
        <ele>945.0</ele>
        <time>2019-05-12T11:20:00Z</time>
      </trkpt>
      <trkpt lat="38.7271540" lon="-0.5900030">
        <ele>945.4</ele>
        <time>2019-05-12T11:20:03Z</time>
      </trkpt>
      <trkpt lat="38.7270670" lon="-0.5902160">
        <ele>946.2</ele>
        <time>2019-05-12T11:20:08Z</time>
      </trkpt>
      <trkpt lat="38.7270510" lon="-0.5902620">
        <ele>946.6</ele>
        <time>2019-05-12T11:20:09Z</time>
      </trkpt>
      <trkpt lat="38.7270000" lon="-0.5903840">
        <ele>947.8</ele>
        <time>2019-05-12T11:20:12Z</time>
      </trkpt>
      <trkpt lat="38.7269790" lon="-0.5904160">
        <ele>948.2</ele>
        <time>2019-05-12T11:20:13Z</time>
      </trkpt>
      <trkpt lat="38.7269350" lon="-0.5904850">
        <ele>949.0</ele>
        <time>2019-05-12T11:20:15Z</time>
      </trkpt>
      <trkpt lat="38.7268810" lon="-0.5906600">
        <ele>950.0</ele>
        <time>2019-05-12T11:20:19Z</time>
      </trkpt>
      <trkpt lat="38.7268580" lon="-0.5907860">
        <ele>950.2</ele>
        <time>2019-05-12T11:20:22Z</time>
      </trkpt>
      <trkpt lat="38.7267930" lon="-0.5908850">
        <ele>951.4</ele>
        <time>2019-05-12T11:20:25Z</time>
      </trkpt>
      <trkpt lat="38.7265970" lon="-0.5910300">
        <ele>951.6</ele>
        <time>2019-05-12T11:20:31Z</time>
      </trkpt>
      <trkpt lat="38.7263320" lon="-0.5911880">
        <ele>951.4</ele>
        <time>2019-05-12T11:20:38Z</time>
      </trkpt>
      <trkpt lat="38.7262710" lon="-0.5912320">
        <ele>951.4</ele>
        <time>2019-05-12T11:20:40Z</time>
      </trkpt>
      <trkpt lat="38.7262570" lon="-0.5913210">
        <ele>951.4</ele>
        <time>2019-05-12T11:20:42Z</time>
      </trkpt>
      <trkpt lat="38.7262600" lon="-0.5915130">
        <ele>950.6</ele>
        <time>2019-05-12T11:20:45Z</time>
      </trkpt>
      <trkpt lat="38.7262560" lon="-0.5915840">
        <ele>950.2</ele>
        <time>2019-05-12T11:20:46Z</time>
      </trkpt>
      <trkpt lat="38.7262580" lon="-0.5920570">
        <ele>949.6</ele>
        <time>2019-05-12T11:20:53Z</time>
      </trkpt>
      <trkpt lat="38.7262370" lon="-0.5922250">
        <ele>949.2</ele>
        <time>2019-05-12T11:20:55Z</time>
      </trkpt>
      <trkpt lat="38.7261890" lon="-0.5923100">
        <ele>948.2</ele>
        <time>2019-05-12T11:20:57Z</time>
      </trkpt>
      <trkpt lat="38.7261460" lon="-0.5923580">
        <ele>947.8</ele>
        <time>2019-05-12T11:20:58Z</time>
      </trkpt>
      <trkpt lat="38.7259890" lon="-0.5924730">
        <ele>947.2</ele>
        <time>2019-05-12T11:21:01Z</time>
      </trkpt>
      <trkpt lat="38.7259330" lon="-0.5925210">
        <ele>947.0</ele>
        <time>2019-05-12T11:21:02Z</time>
      </trkpt>
      <trkpt lat="38.7258730" lon="-0.5925710">
        <ele>946.8</ele>
        <time>2019-05-12T11:21:03Z</time>
      </trkpt>
      <trkpt lat="38.7257360" lon="-0.5926780">
        <ele>945.4</ele>
        <time>2019-05-12T11:21:05Z</time>
      </trkpt>
      <trkpt lat="38.7256730" lon="-0.5927490">
        <ele>944.2</ele>
        <time>2019-05-12T11:21:06Z</time>
      </trkpt>
      <trkpt lat="38.7255520" lon="-0.5928950">
        <ele>942.2</ele>
        <time>2019-05-12T11:21:08Z</time>
      </trkpt>
      <trkpt lat="38.7255090" lon="-0.5929740">
        <ele>941.8</ele>
        <time>2019-05-12T11:21:09Z</time>
      </trkpt>
      <trkpt lat="38.7254800" lon="-0.5930560">
        <ele>941.4</ele>
        <time>2019-05-12T11:21:10Z</time>
      </trkpt>
      <trkpt lat="38.7254270" lon="-0.5932350">
        <ele>940.8</ele>
        <time>2019-05-12T11:21:12Z</time>
      </trkpt>
      <trkpt lat="38.7253890" lon="-0.5934050">
        <ele>939.6</ele>
        <time>2019-05-12T11:21:14Z</time>
      </trkpt>
      <trkpt lat="38.7253720" lon="-0.5934810">
        <ele>939.0</ele>
        <time>2019-05-12T11:21:15Z</time>
      </trkpt>
      <trkpt lat="38.7253530" lon="-0.5935470">
        <ele>938.6</ele>
        <time>2019-05-12T11:21:16Z</time>
      </trkpt>
      <trkpt lat="38.7253290" lon="-0.5935990">
        <ele>937.8</ele>
        <time>2019-05-12T11:21:17Z</time>
      </trkpt>
      <trkpt lat="38.7253060" lon="-0.5936440">
        <ele>937.0</ele>
        <time>2019-05-12T11:21:18Z</time>
      </trkpt>
      <trkpt lat="38.7252900" lon="-0.5936840">
        <ele>936.4</ele>
        <time>2019-05-12T11:21:19Z</time>
      </trkpt>
      <trkpt lat="38.7252890" lon="-0.5937180">
        <ele>936.0</ele>
        <time>2019-05-12T11:21:20Z</time>
      </trkpt>
      <trkpt lat="38.7253260" lon="-0.5937730">
        <ele>935.2</ele>
        <time>2019-05-12T11:21:22Z</time>
      </trkpt>
      <trkpt lat="38.7253650" lon="-0.5937890">
        <ele>934.4</ele>
        <time>2019-05-12T11:21:23Z</time>
      </trkpt>
      <trkpt lat="38.7254570" lon="-0.5937890">
        <ele>933.2</ele>
        <time>2019-05-12T11:21:25Z</time>
      </trkpt>
      <trkpt lat="38.7255430" lon="-0.5937960">
        <ele>932.0</ele>
        <time>2019-05-12T11:21:27Z</time>
      </trkpt>
      <trkpt lat="38.7255780" lon="-0.5938670">
        <ele>930.8</ele>
        <time>2019-05-12T11:21:29Z</time>
      </trkpt>
      <trkpt lat="38.7255500" lon="-0.5939590">
        <ele>929.6</ele>
        <time>2019-05-12T11:21:31Z</time>
      </trkpt>
      <trkpt lat="38.7255190" lon="-0.5940170">
        <ele>929.0</ele>
        <time>2019-05-12T11:21:32Z</time>
      </trkpt>
      <trkpt lat="38.7254910" lon="-0.5940810">
        <ele>927.6</ele>
        <time>2019-05-12T11:21:33Z</time>
      </trkpt>
      <trkpt lat="38.7254400" lon="-0.5942040">
        <ele>926.2</ele>
        <time>2019-05-12T11:21:35Z</time>
      </trkpt>
      <trkpt lat="38.7254060" lon="-0.5942470">
        <ele>925.6</ele>
        <time>2019-05-12T11:21:36Z</time>
      </trkpt>
      <trkpt lat="38.7253110" lon="-0.5942780">
        <ele>924.4</ele>
        <time>2019-05-12T11:21:38Z</time>
      </trkpt>
      <trkpt lat="38.7252530" lon="-0.5942780">
        <ele>923.8</ele>
        <time>2019-05-12T11:21:39Z</time>
      </trkpt>
      <trkpt lat="38.7251900" lon="-0.5942760">
        <ele>922.8</ele>
        <time>2019-05-12T11:21:40Z</time>
      </trkpt>
      <trkpt lat="38.7250700" lon="-0.5942670">
        <ele>921.8</ele>
        <time>2019-05-12T11:21:42Z</time>
      </trkpt>
      <trkpt lat="38.7250240" lon="-0.5942740">
        <ele>921.4</ele>
        <time>2019-05-12T11:21:43Z</time>
      </trkpt>
      <trkpt lat="38.7249690" lon="-0.5943430">
        <ele>920.6</ele>
        <time>2019-05-12T11:21:45Z</time>
      </trkpt>
      <trkpt lat="38.7249770" lon="-0.5943910">
        <ele>920.4</ele>
        <time>2019-05-12T11:21:46Z</time>
      </trkpt>
      <trkpt lat="38.7251100" lon="-0.5945220">
        <ele>919.8</ele>
        <time>2019-05-12T11:21:49Z</time>
      </trkpt>
      <trkpt lat="38.7251680" lon="-0.5945710">
        <ele>918.8</ele>
        <time>2019-05-12T11:21:50Z</time>
      </trkpt>
      <trkpt lat="38.7252870" lon="-0.5946920">
        <ele>916.8</ele>
        <time>2019-05-12T11:21:52Z</time>
      </trkpt>
      <trkpt lat="38.7253540" lon="-0.5947510">
        <ele>916.2</ele>
        <time>2019-05-12T11:21:53Z</time>
      </trkpt>
      <trkpt lat="38.7254270" lon="-0.5948070">
        <ele>915.2</ele>
        <time>2019-05-12T11:21:54Z</time>
      </trkpt>
      <trkpt lat="38.7255640" lon="-0.5949440">
        <ele>913.8</ele>
        <time>2019-05-12T11:21:56Z</time>
      </trkpt>
      <trkpt lat="38.7256290" lon="-0.5950080">
        <ele>913.0</ele>
        <time>2019-05-12T11:21:57Z</time>
      </trkpt>
      <trkpt lat="38.7256910" lon="-0.5950620">
        <ele>911.2</ele>
        <time>2019-05-12T11:21:58Z</time>
      </trkpt>
      <trkpt lat="38.7257610" lon="-0.5951110">
        <ele>910.4</ele>
        <time>2019-05-12T11:21:59Z</time>
      </trkpt>
      <trkpt lat="38.7258320" lon="-0.5951600">
        <ele>909.6</ele>
        <time>2019-05-12T11:22:00Z</time>
      </trkpt>
      <trkpt lat="38.7259080" lon="-0.5952100">
        <ele>908.6</ele>
        <time>2019-05-12T11:22:01Z</time>
      </trkpt>
      <trkpt lat="38.7259880" lon="-0.5952580">
        <ele>907.8</ele>
        <time>2019-05-12T11:22:02Z</time>
      </trkpt>
      <trkpt lat="38.7261560" lon="-0.5953550">
        <ele>906.2</ele>
        <time>2019-05-12T11:22:04Z</time>
      </trkpt>
      <trkpt lat="38.7263320" lon="-0.5954520">
        <ele>904.2</ele>
        <time>2019-05-12T11:22:06Z</time>
      </trkpt>
      <trkpt lat="38.7264120" lon="-0.5954900">
        <ele>903.8</ele>
        <time>2019-05-12T11:22:07Z</time>
      </trkpt>
      <trkpt lat="38.7264870" lon="-0.5955270">
        <ele>902.8</ele>
        <time>2019-05-12T11:22:08Z</time>
      </trkpt>
      <trkpt lat="38.7265600" lon="-0.5955730">
        <ele>902.4</ele>
        <time>2019-05-12T11:22:09Z</time>
      </trkpt>
      <trkpt lat="38.7266320" lon="-0.5956320">
        <ele>901.6</ele>
        <time>2019-05-12T11:22:10Z</time>
      </trkpt>
      <trkpt lat="38.7267050" lon="-0.5956940">
        <ele>901.0</ele>
        <time>2019-05-12T11:22:11Z</time>
      </trkpt>
      <trkpt lat="38.7267830" lon="-0.5957570">
        <ele>900.2</ele>
        <time>2019-05-12T11:22:12Z</time>
      </trkpt>
      <trkpt lat="38.7268610" lon="-0.5958180">
        <ele>899.2</ele>
        <time>2019-05-12T11:22:13Z</time>
      </trkpt>
      <trkpt lat="38.7269850" lon="-0.5959340">
        <ele>897.6</ele>
        <time>2019-05-12T11:22:15Z</time>
      </trkpt>
      <trkpt lat="38.7270260" lon="-0.5960030">
        <ele>897.4</ele>
        <time>2019-05-12T11:22:16Z</time>
      </trkpt>
      <trkpt lat="38.7271070" lon="-0.5961920">
        <ele>897.2</ele>
        <time>2019-05-12T11:22:19Z</time>
      </trkpt>
      <trkpt lat="38.7273160" lon="-0.5962940">
        <ele>895.4</ele>
        <time>2019-05-12T11:22:22Z</time>
      </trkpt>
      <trkpt lat="38.7273910" lon="-0.5963070">
        <ele>893.2</ele>
        <time>2019-05-12T11:22:23Z</time>
      </trkpt>
      <trkpt lat="38.7274680" lon="-0.5963260">
        <ele>892.4</ele>
        <time>2019-05-12T11:22:24Z</time>
      </trkpt>
      <trkpt lat="38.7275510" lon="-0.5963430">
        <ele>891.8</ele>
        <time>2019-05-12T11:22:25Z</time>
      </trkpt>
      <trkpt lat="38.7277230" lon="-0.5963690">
        <ele>890.4</ele>
        <time>2019-05-12T11:22:27Z</time>
      </trkpt>
      <trkpt lat="38.7278020" lon="-0.5963970">
        <ele>889.8</ele>
        <time>2019-05-12T11:22:28Z</time>
      </trkpt>
      <trkpt lat="38.7278840" lon="-0.5964260">
        <ele>889.0</ele>
        <time>2019-05-12T11:22:29Z</time>
      </trkpt>
      <trkpt lat="38.7280410" lon="-0.5964590">
        <ele>887.6</ele>
        <time>2019-05-12T11:22:31Z</time>
      </trkpt>
      <trkpt lat="38.7281250" lon="-0.5964840">
        <ele>886.8</ele>
        <time>2019-05-12T11:22:32Z</time>
      </trkpt>
      <trkpt lat="38.7282150" lon="-0.5965150">
        <ele>886.0</ele>
        <time>2019-05-12T11:22:33Z</time>
      </trkpt>
      <trkpt lat="38.7283040" lon="-0.5965540">
        <ele>884.4</ele>
        <time>2019-05-12T11:22:34Z</time>
      </trkpt>
      <trkpt lat="38.7283910" lon="-0.5966010">
        <ele>882.8</ele>
        <time>2019-05-12T11:22:35Z</time>
      </trkpt>
      <trkpt lat="38.7284820" lon="-0.5966470">
        <ele>881.6</ele>
        <time>2019-05-12T11:22:36Z</time>
      </trkpt>
      <trkpt lat="38.7286680" lon="-0.5967290">
        <ele>879.8</ele>
        <time>2019-05-12T11:22:38Z</time>
      </trkpt>
      <trkpt lat="38.7287620" lon="-0.5967570">
        <ele>879.0</ele>
        <time>2019-05-12T11:22:39Z</time>
      </trkpt>
      <trkpt lat="38.7288550" lon="-0.5967670">
        <ele>878.8</ele>
        <time>2019-05-12T11:22:40Z</time>
      </trkpt>
      <trkpt lat="38.7291010" lon="-0.5968080">
        <ele>879.4</ele>
        <time>2019-05-12T11:22:43Z</time>
      </trkpt>
      <trkpt lat="38.7291750" lon="-0.5968440">
        <ele>879.4</ele>
        <time>2019-05-12T11:22:44Z</time>
      </trkpt>
      <trkpt lat="38.7292950" lon="-0.5969330">
        <ele>878.2</ele>
        <time>2019-05-12T11:22:46Z</time>
      </trkpt>
      <trkpt lat="38.7293430" lon="-0.5969930">
        <ele>877.6</ele>
        <time>2019-05-12T11:22:47Z</time>
      </trkpt>
      <trkpt lat="38.7293830" lon="-0.5970600">
        <ele>876.6</ele>
        <time>2019-05-12T11:22:48Z</time>
      </trkpt>
      <trkpt lat="38.7294740" lon="-0.5972370">
        <ele>874.2</ele>
        <time>2019-05-12T11:22:50Z</time>
      </trkpt>
      <trkpt lat="38.7295310" lon="-0.5973280">
        <ele>872.4</ele>
        <time>2019-05-12T11:22:51Z</time>
      </trkpt>
      <trkpt lat="38.7296010" lon="-0.5974040">
        <ele>870.4</ele>
        <time>2019-05-12T11:22:52Z</time>
      </trkpt>
      <trkpt lat="38.7296720" lon="-0.5974810">
        <ele>869.0</ele>
        <time>2019-05-12T11:22:53Z</time>
      </trkpt>
      <trkpt lat="38.7298740" lon="-0.5977620">
        <ele>868.2</ele>
        <time>2019-05-12T11:22:57Z</time>
      </trkpt>
      <trkpt lat="38.7298660" lon="-0.5979760">
        <ele>869.8</ele>
        <time>2019-05-12T11:23:00Z</time>
      </trkpt>
      <trkpt lat="38.7298600" lon="-0.5980400">
        <ele>870.2</ele>
        <time>2019-05-12T11:23:01Z</time>
      </trkpt>
      <trkpt lat="38.7298430" lon="-0.5982390">
        <ele>869.2</ele>
        <time>2019-05-12T11:23:04Z</time>
      </trkpt>
      <trkpt lat="38.7298300" lon="-0.5983060">
        <ele>868.6</ele>
        <time>2019-05-12T11:23:05Z</time>
      </trkpt>
      <trkpt lat="38.7297160" lon="-0.5985220">
        <ele>868.4</ele>
        <time>2019-05-12T11:23:09Z</time>
      </trkpt>
      <trkpt lat="38.7296480" lon="-0.5986140">
        <ele>868.0</ele>
        <time>2019-05-12T11:23:11Z</time>
      </trkpt>
      <trkpt lat="38.7295680" lon="-0.5987030">
        <ele>867.4</ele>
        <time>2019-05-12T11:23:13Z</time>
      </trkpt>
      <trkpt lat="38.7295230" lon="-0.5987500">
        <ele>867.0</ele>
        <time>2019-05-12T11:23:14Z</time>
      </trkpt>
      <trkpt lat="38.7294810" lon="-0.5988020">
        <ele>866.6</ele>
        <time>2019-05-12T11:23:15Z</time>
      </trkpt>
      <trkpt lat="38.7292990" lon="-0.5990790">
        <ele>866.2</ele>
        <time>2019-05-12T11:23:20Z</time>
      </trkpt>
      <trkpt lat="38.7291870" lon="-0.5992370">
        <ele>866.0</ele>
        <time>2019-05-12T11:23:23Z</time>
      </trkpt>
      <trkpt lat="38.7290750" lon="-0.5993900">
        <ele>866.0</ele>
        <time>2019-05-12T11:23:26Z</time>
      </trkpt>
      <trkpt lat="38.7288720" lon="-0.5996870">
        <ele>866.2</ele>
        <time>2019-05-12T11:23:32Z</time>
      </trkpt>
      <trkpt lat="38.7287860" lon="-0.5998430">
        <ele>867.0</ele>
        <time>2019-05-12T11:23:35Z</time>
      </trkpt>
      <trkpt lat="38.7287620" lon="-0.5999040">
        <ele>867.2</ele>
        <time>2019-05-12T11:23:36Z</time>
      </trkpt>
      <trkpt lat="38.7287160" lon="-0.6000250">
        <ele>867.2</ele>
        <time>2019-05-12T11:23:38Z</time>
      </trkpt>
      <trkpt lat="38.7285680" lon="-0.6003810">
        <ele>866.8</ele>
        <time>2019-05-12T11:23:44Z</time>
      </trkpt>
      <trkpt lat="38.7284390" lon="-0.6006740">
        <ele>867.4</ele>
        <time>2019-05-12T11:23:49Z</time>
      </trkpt>
      <trkpt lat="38.7284090" lon="-0.6007240">
        <ele>867.6</ele>
        <time>2019-05-12T11:23:50Z</time>
      </trkpt>
      <trkpt lat="38.7282970" lon="-0.6009320">
        <ele>867.6</ele>
        <time>2019-05-12T11:23:54Z</time>
      </trkpt>
      <trkpt lat="38.7281870" lon="-0.6011510">
        <ele>866.6</ele>
        <time>2019-05-12T11:23:58Z</time>
      </trkpt>
      <trkpt lat="38.7281560" lon="-0.6012150">
        <ele>866.4</ele>
        <time>2019-05-12T11:23:59Z</time>
      </trkpt>
      <trkpt lat="38.7281250" lon="-0.6012800">
        <ele>865.8</ele>
        <time>2019-05-12T11:24:00Z</time>
      </trkpt>
      <trkpt lat="38.7280890" lon="-0.6013420">
        <ele>865.8</ele>
        <time>2019-05-12T11:24:01Z</time>
      </trkpt>
      <trkpt lat="38.7279960" lon="-0.6015310">
        <ele>865.8</ele>
        <time>2019-05-12T11:24:04Z</time>
      </trkpt>
      <trkpt lat="38.7279390" lon="-0.6016570">
        <ele>866.0</ele>
        <time>2019-05-12T11:24:06Z</time>
      </trkpt>
      <trkpt lat="38.7278450" lon="-0.6019380">
        <ele>865.6</ele>
        <time>2019-05-12T11:24:10Z</time>
      </trkpt>
      <trkpt lat="38.7278080" lon="-0.6021700">
        <ele>864.6</ele>
        <time>2019-05-12T11:24:13Z</time>
      </trkpt>
      <trkpt lat="38.7278080" lon="-0.6023920">
        <ele>864.2</ele>
        <time>2019-05-12T11:24:16Z</time>
      </trkpt>
      <trkpt lat="38.7278380" lon="-0.6025760">
        <ele>863.6</ele>
        <time>2019-05-12T11:24:19Z</time>
      </trkpt>
      <trkpt lat="38.7278620" lon="-0.6026440">
        <ele>863.0</ele>
        <time>2019-05-12T11:24:20Z</time>
      </trkpt>
      <trkpt lat="38.7278800" lon="-0.6027880">
        <ele>861.6</ele>
        <time>2019-05-12T11:24:22Z</time>
      </trkpt>
      <trkpt lat="38.7278840" lon="-0.6028680">
        <ele>860.8</ele>
        <time>2019-05-12T11:24:23Z</time>
      </trkpt>
      <trkpt lat="38.7279060" lon="-0.6029410">
        <ele>860.2</ele>
        <time>2019-05-12T11:24:24Z</time>
      </trkpt>
      <trkpt lat="38.7279630" lon="-0.6030910">
        <ele>859.2</ele>
        <time>2019-05-12T11:24:26Z</time>
      </trkpt>
      <trkpt lat="38.7279860" lon="-0.6031870">
        <ele>858.2</ele>
        <time>2019-05-12T11:24:27Z</time>
      </trkpt>
      <trkpt lat="38.7280170" lon="-0.6032960">
        <ele>855.2</ele>
        <time>2019-05-12T11:24:28Z</time>
      </trkpt>
      <trkpt lat="38.7280630" lon="-0.6034040">
        <ele>853.6</ele>
        <time>2019-05-12T11:24:29Z</time>
      </trkpt>
      <trkpt lat="38.7281160" lon="-0.6035090">
        <ele>852.2</ele>
        <time>2019-05-12T11:24:30Z</time>
      </trkpt>
      <trkpt lat="38.7281720" lon="-0.6036100">
        <ele>850.6</ele>
        <time>2019-05-12T11:24:31Z</time>
      </trkpt>
      <trkpt lat="38.7282190" lon="-0.6037060">
        <ele>849.4</ele>
        <time>2019-05-12T11:24:32Z</time>
      </trkpt>
      <trkpt lat="38.7282530" lon="-0.6038040">
        <ele>848.4</ele>
        <time>2019-05-12T11:24:33Z</time>
      </trkpt>
      <trkpt lat="38.7282660" lon="-0.6039040">
        <ele>847.6</ele>
        <time>2019-05-12T11:24:34Z</time>
      </trkpt>
      <trkpt lat="38.7282530" lon="-0.6040920">
        <ele>847.0</ele>
        <time>2019-05-12T11:24:36Z</time>
      </trkpt>
      <trkpt lat="38.7282250" lon="-0.6041830">
        <ele>846.8</ele>
        <time>2019-05-12T11:24:37Z</time>
      </trkpt>
      <trkpt lat="38.7282140" lon="-0.6043810">
        <ele>846.4</ele>
        <time>2019-05-12T11:24:39Z</time>
      </trkpt>
      <trkpt lat="38.7282610" lon="-0.6045730">
        <ele>845.0</ele>
        <time>2019-05-12T11:24:41Z</time>
      </trkpt>
      <trkpt lat="38.7283050" lon="-0.6046580">
        <ele>844.2</ele>
        <time>2019-05-12T11:24:42Z</time>
      </trkpt>
      <trkpt lat="38.7284110" lon="-0.6048340">
        <ele>843.4</ele>
        <time>2019-05-12T11:24:44Z</time>
      </trkpt>
      <trkpt lat="38.7285160" lon="-0.6050140">
        <ele>842.2</ele>
        <time>2019-05-12T11:24:46Z</time>
      </trkpt>
      <trkpt lat="38.7285700" lon="-0.6051050">
        <ele>841.8</ele>
        <time>2019-05-12T11:24:47Z</time>
      </trkpt>
      <trkpt lat="38.7286280" lon="-0.6051930">
        <ele>841.2</ele>
        <time>2019-05-12T11:24:48Z</time>
      </trkpt>
      <trkpt lat="38.7287460" lon="-0.6053530">
        <ele>839.4</ele>
        <time>2019-05-12T11:24:50Z</time>
      </trkpt>
      <trkpt lat="38.7288370" lon="-0.6055260">
        <ele>838.4</ele>
        <time>2019-05-12T11:24:52Z</time>
      </trkpt>
      <trkpt lat="38.7288980" lon="-0.6059180">
        <ele>837.4</ele>
        <time>2019-05-12T11:24:56Z</time>
      </trkpt>
      <trkpt lat="38.7289250" lon="-0.6060120">
        <ele>836.8</ele>
        <time>2019-05-12T11:24:57Z</time>
      </trkpt>
      <trkpt lat="38.7290120" lon="-0.6061940">
        <ele>835.6</ele>
        <time>2019-05-12T11:24:59Z</time>
      </trkpt>
      <trkpt lat="38.7290610" lon="-0.6062880">
        <ele>834.4</ele>
        <time>2019-05-12T11:25:00Z</time>
      </trkpt>
      <trkpt lat="38.7291160" lon="-0.6063810">
        <ele>833.2</ele>
        <time>2019-05-12T11:25:01Z</time>
      </trkpt>
      <trkpt lat="38.7291800" lon="-0.6064610">
        <ele>832.4</ele>
        <time>2019-05-12T11:25:02Z</time>
      </trkpt>
      <trkpt lat="38.7292510" lon="-0.6065260">
        <ele>832.0</ele>
        <time>2019-05-12T11:25:03Z</time>
      </trkpt>
      <trkpt lat="38.7295390" lon="-0.6067160">
        <ele>831.8</ele>
        <time>2019-05-12T11:25:07Z</time>
      </trkpt>
      <trkpt lat="38.7296770" lon="-0.6069520">
        <ele>831.4</ele>
        <time>2019-05-12T11:25:10Z</time>
      </trkpt>
      <trkpt lat="38.7297080" lon="-0.6070050">
        <ele>831.2</ele>
        <time>2019-05-12T11:25:11Z</time>
      </trkpt>
      <trkpt lat="38.7297160" lon="-0.6070400">
        <ele>831.2</ele>
        <time>2019-05-12T11:25:12Z</time>
      </trkpt>
      <trkpt lat="38.7297140" lon="-0.6070700">
        <ele>831.6</ele>
        <time>2019-05-12T11:25:13Z</time>
      </trkpt>
      <trkpt lat="38.7296740" lon="-0.6070990">
        <ele>832.8</ele>
        <time>2019-05-12T11:25:15Z</time>
      </trkpt>
      <trkpt lat="38.7296420" lon="-0.6070980">
        <ele>833.0</ele>
        <time>2019-05-12T11:25:16Z</time>
      </trkpt>
      <trkpt lat="38.7295480" lon="-0.6071020">
        <ele>833.0</ele>
        <time>2019-05-12T11:25:19Z</time>
      </trkpt>
      <trkpt lat="38.7295160" lon="-0.6071070">
        <ele>833.0</ele>
        <time>2019-05-12T11:25:20Z</time>
      </trkpt>
      <trkpt lat="38.7293640" lon="-0.6071890">
        <ele>833.4</ele>
        <time>2019-05-12T11:25:25Z</time>
      </trkpt>
      <trkpt lat="38.7292980" lon="-0.6072540">
        <ele>834.0</ele>
        <time>2019-05-12T11:25:29Z</time>
      </trkpt>
      <trkpt lat="38.7292750" lon="-0.6072660">
        <ele>834.2</ele>
        <time>2019-05-12T11:25:30Z</time>
      </trkpt>
      <trkpt lat="38.7291760" lon="-0.6073200">
        <ele>835.6</ele>
        <time>2019-05-12T11:25:34Z</time>
      </trkpt>
      <trkpt lat="38.7291520" lon="-0.6073330">
        <ele>836.0</ele>
        <time>2019-05-12T11:25:35Z</time>
      </trkpt>
      <trkpt lat="38.7291070" lon="-0.6073500">
        <ele>836.6</ele>
        <time>2019-05-12T11:25:37Z</time>
      </trkpt>
      <trkpt lat="38.7290380" lon="-0.6073740">
        <ele>837.8</ele>
        <time>2019-05-12T11:25:41Z</time>
      </trkpt>
      <trkpt lat="38.7289630" lon="-0.6073600">
        <ele>839.2</ele>
        <time>2019-05-12T11:25:45Z</time>
      </trkpt>
      <trkpt lat="38.7289250" lon="-0.6073400">
        <ele>839.6</ele>
        <time>2019-05-12T11:25:47Z</time>
      </trkpt>
      <trkpt lat="38.7287750" lon="-0.6072300">
        <ele>840.0</ele>
        <time>2019-05-12T11:25:54Z</time>
      </trkpt>
      <trkpt lat="38.7286580" lon="-0.6071230">
        <ele>840.4</ele>
        <time>2019-05-12T11:25:59Z</time>
      </trkpt>
      <trkpt lat="38.7285890" lon="-0.6070490">
        <ele>841.0</ele>
        <time>2019-05-12T11:26:02Z</time>
      </trkpt>
      <trkpt lat="38.7285460" lon="-0.6069930">
        <ele>841.4</ele>
        <time>2019-05-12T11:26:04Z</time>
      </trkpt>
      <trkpt lat="38.7284590" lon="-0.6068800">
        <ele>842.6</ele>
        <time>2019-05-12T11:26:08Z</time>
      </trkpt>
      <trkpt lat="38.7284370" lon="-0.6068540">
        <ele>842.8</ele>
        <time>2019-05-12T11:26:09Z</time>
      </trkpt>
      <trkpt lat="38.7282870" lon="-0.6066310">
        <ele>842.2</ele>
        <time>2019-05-12T11:26:16Z</time>
      </trkpt>
      <trkpt lat="38.7280970" lon="-0.6063220">
        <ele>843.0</ele>
        <time>2019-05-12T11:26:26Z</time>
      </trkpt>
      <trkpt lat="38.7280190" lon="-0.6062090">
        <ele>843.6</ele>
        <time>2019-05-12T11:26:30Z</time>
      </trkpt>
      <trkpt lat="38.7279600" lon="-0.6061150">
        <ele>844.2</ele>
        <time>2019-05-12T11:26:33Z</time>
      </trkpt>
      <trkpt lat="38.7278350" lon="-0.6060100">
        <ele>844.4</ele>
        <time>2019-05-12T11:26:39Z</time>
      </trkpt>
      <trkpt lat="38.7277610" lon="-0.6060030">
        <ele>844.6</ele>
        <time>2019-05-12T11:26:43Z</time>
      </trkpt>
      <trkpt lat="38.7277370" lon="-0.6060100">
        <ele>844.6</ele>
        <time>2019-05-12T11:26:44Z</time>
      </trkpt>
      <trkpt lat="38.7276010" lon="-0.6061130">
        <ele>843.8</ele>
        <time>2019-05-12T11:26:48Z</time>
      </trkpt>
      <trkpt lat="38.7274660" lon="-0.6062600">
        <ele>843.6</ele>
        <time>2019-05-12T11:26:52Z</time>
      </trkpt>
      <trkpt lat="38.7274060" lon="-0.6063240">
        <ele>843.8</ele>
        <time>2019-05-12T11:26:54Z</time>
      </trkpt>
      <trkpt lat="38.7273420" lon="-0.6063890">
        <ele>843.6</ele>
        <time>2019-05-12T11:26:56Z</time>
      </trkpt>
      <trkpt lat="38.7272800" lon="-0.6064700">
        <ele>843.8</ele>
        <time>2019-05-12T11:26:58Z</time>
      </trkpt>
      <trkpt lat="38.7272520" lon="-0.6065170">
        <ele>844.0</ele>
        <time>2019-05-12T11:26:59Z</time>
      </trkpt>
      <trkpt lat="38.7270590" lon="-0.6067690">
        <ele>844.4</ele>
        <time>2019-05-12T11:27:06Z</time>
      </trkpt>
      <trkpt lat="38.7270280" lon="-0.6068010">
        <ele>844.6</ele>
        <time>2019-05-12T11:27:07Z</time>
      </trkpt>
      <trkpt lat="38.7268980" lon="-0.6069330">
        <ele>845.2</ele>
        <time>2019-05-12T11:27:11Z</time>
      </trkpt>
      <trkpt lat="38.7268170" lon="-0.6070080">
        <ele>845.4</ele>
        <time>2019-05-12T11:27:13Z</time>
      </trkpt>
      <trkpt lat="38.7267420" lon="-0.6070860">
        <ele>845.4</ele>
        <time>2019-05-12T11:27:15Z</time>
      </trkpt>
      <trkpt lat="38.7266310" lon="-0.6071980">
        <ele>844.8</ele>
        <time>2019-05-12T11:27:18Z</time>
      </trkpt>
      <trkpt lat="38.7263400" lon="-0.6075240">
        <ele>845.2</ele>
        <time>2019-05-12T11:27:26Z</time>
      </trkpt>
      <trkpt lat="38.7260650" lon="-0.6078630">
        <ele>843.6</ele>
        <time>2019-05-12T11:27:33Z</time>
      </trkpt>
      <trkpt lat="38.7260220" lon="-0.6079160">
        <ele>843.2</ele>
        <time>2019-05-12T11:27:34Z</time>
      </trkpt>
      <trkpt lat="38.7256870" lon="-0.6082340">
        <ele>842.4</ele>
        <time>2019-05-12T11:27:41Z</time>
      </trkpt>
      <trkpt lat="38.7255340" lon="-0.6083580">
        <ele>842.2</ele>
        <time>2019-05-12T11:27:44Z</time>
      </trkpt>
      <trkpt lat="38.7253740" lon="-0.6084950">
        <ele>841.4</ele>
        <time>2019-05-12T11:27:47Z</time>
      </trkpt>
      <trkpt lat="38.7253180" lon="-0.6085430">
        <ele>841.0</ele>
        <time>2019-05-12T11:27:48Z</time>
      </trkpt>
      <trkpt lat="38.7250810" lon="-0.6087280">
        <ele>839.6</ele>
        <time>2019-05-12T11:27:52Z</time>
      </trkpt>
      <trkpt lat="38.7249600" lon="-0.6088190">
        <ele>839.0</ele>
        <time>2019-05-12T11:27:54Z</time>
      </trkpt>
      <trkpt lat="38.7248430" lon="-0.6089320">
        <ele>838.4</ele>
        <time>2019-05-12T11:27:56Z</time>
      </trkpt>
      <trkpt lat="38.7246820" lon="-0.6091270">
        <ele>837.8</ele>
        <time>2019-05-12T11:27:59Z</time>
      </trkpt>
      <trkpt lat="38.7244370" lon="-0.6094550">
        <ele>837.8</ele>
        <time>2019-05-12T11:28:04Z</time>
      </trkpt>
      <trkpt lat="38.7242190" lon="-0.6097630">
        <ele>837.8</ele>
        <time>2019-05-12T11:28:09Z</time>
      </trkpt>
      <trkpt lat="38.7240070" lon="-0.6100300">
        <ele>838.8</ele>
        <time>2019-05-12T11:28:14Z</time>
      </trkpt>
      <trkpt lat="38.7239350" lon="-0.6101310">
        <ele>839.6</ele>
        <time>2019-05-12T11:28:16Z</time>
      </trkpt>
      <trkpt lat="38.7237770" lon="-0.6103720">
        <ele>840.8</ele>
        <time>2019-05-12T11:28:21Z</time>
      </trkpt>
      <trkpt lat="38.7236290" lon="-0.6105940">
        <ele>841.8</ele>
        <time>2019-05-12T11:28:26Z</time>
      </trkpt>
      <trkpt lat="38.7236040" lon="-0.6106320">
        <ele>842.0</ele>
        <time>2019-05-12T11:28:27Z</time>
      </trkpt>
      <trkpt lat="38.7235410" lon="-0.6107960">
        <ele>842.8</ele>
        <time>2019-05-12T11:28:31Z</time>
      </trkpt>
      <trkpt lat="38.7235340" lon="-0.6108460">
        <ele>843.0</ele>
        <time>2019-05-12T11:28:32Z</time>
      </trkpt>
      <trkpt lat="38.7234800" lon="-0.6112260">
        <ele>841.4</ele>
        <time>2019-05-12T11:28:38Z</time>
      </trkpt>
      <trkpt lat="38.7234610" lon="-0.6112990">
        <ele>839.8</ele>
        <time>2019-05-12T11:28:39Z</time>
      </trkpt>
      <trkpt lat="38.7234150" lon="-0.6114570">
        <ele>838.4</ele>
        <time>2019-05-12T11:28:41Z</time>
      </trkpt>
      <trkpt lat="38.7233630" lon="-0.6116280">
        <ele>836.8</ele>
        <time>2019-05-12T11:28:43Z</time>
      </trkpt>
      <trkpt lat="38.7233510" lon="-0.6117230">
        <ele>836.2</ele>
        <time>2019-05-12T11:28:44Z</time>
      </trkpt>
      <trkpt lat="38.7233450" lon="-0.6118180">
        <ele>835.6</ele>
        <time>2019-05-12T11:28:45Z</time>
      </trkpt>
      <trkpt lat="38.7233460" lon="-0.6119110">
        <ele>835.0</ele>
        <time>2019-05-12T11:28:46Z</time>
      </trkpt>
      <trkpt lat="38.7233520" lon="-0.6120940">
        <ele>834.4</ele>
        <time>2019-05-12T11:28:48Z</time>
      </trkpt>
      <trkpt lat="38.7233290" lon="-0.6122760">
        <ele>834.6</ele>
        <time>2019-05-12T11:28:50Z</time>
      </trkpt>
      <trkpt lat="38.7232850" lon="-0.6125690">
        <ele>834.8</ele>
        <time>2019-05-12T11:28:53Z</time>
      </trkpt>
      <trkpt lat="38.7232660" lon="-0.6127630">
        <ele>833.8</ele>
        <time>2019-05-12T11:28:55Z</time>
      </trkpt>
      <trkpt lat="38.7232580" lon="-0.6128580">
        <ele>833.2</ele>
        <time>2019-05-12T11:28:56Z</time>
      </trkpt>
      <trkpt lat="38.7231780" lon="-0.6133640">
        <ele>832.8</ele>
        <time>2019-05-12T11:29:02Z</time>
      </trkpt>
      <trkpt lat="38.7231300" lon="-0.6137190">
        <ele>831.2</ele>
        <time>2019-05-12T11:29:06Z</time>
      </trkpt>
      <trkpt lat="38.7231160" lon="-0.6139180">
        <ele>829.6</ele>
        <time>2019-05-12T11:29:08Z</time>
      </trkpt>
      <trkpt lat="38.7230790" lon="-0.6141150">
        <ele>829.2</ele>
        <time>2019-05-12T11:29:10Z</time>
      </trkpt>
      <trkpt lat="38.7230510" lon="-0.6142120">
        <ele>828.8</ele>
        <time>2019-05-12T11:29:11Z</time>
      </trkpt>
      <trkpt lat="38.7229860" lon="-0.6143910">
        <ele>828.2</ele>
        <time>2019-05-12T11:29:13Z</time>
      </trkpt>
      <trkpt lat="38.7229600" lon="-0.6144840">
        <ele>828.0</ele>
        <time>2019-05-12T11:29:14Z</time>
      </trkpt>
      <trkpt lat="38.7229120" lon="-0.6146750">
        <ele>827.2</ele>
        <time>2019-05-12T11:29:16Z</time>
      </trkpt>
      <trkpt lat="38.7228850" lon="-0.6147680">
        <ele>827.2</ele>
        <time>2019-05-12T11:29:17Z</time>
      </trkpt>
      <trkpt lat="38.7228090" lon="-0.6149540">
        <ele>826.4</ele>
        <time>2019-05-12T11:29:19Z</time>
      </trkpt>
      <trkpt lat="38.7227540" lon="-0.6150460">
        <ele>826.0</ele>
        <time>2019-05-12T11:29:20Z</time>
      </trkpt>
      <trkpt lat="38.7226600" lon="-0.6152500">
        <ele>824.8</ele>
        <time>2019-05-12T11:29:22Z</time>
      </trkpt>
      <trkpt lat="38.7226180" lon="-0.6153570">
        <ele>824.0</ele>
        <time>2019-05-12T11:29:23Z</time>
      </trkpt>
      <trkpt lat="38.7225770" lon="-0.6154620">
        <ele>823.0</ele>
        <time>2019-05-12T11:29:24Z</time>
      </trkpt>
      <trkpt lat="38.7225040" lon="-0.6156420">
        <ele>821.4</ele>
        <time>2019-05-12T11:29:26Z</time>
      </trkpt>
      <trkpt lat="38.7224380" lon="-0.6157720">
        <ele>820.2</ele>
        <time>2019-05-12T11:29:28Z</time>
      </trkpt>
      <trkpt lat="38.7224020" lon="-0.6158170">
        <ele>820.2</ele>
        <time>2019-05-12T11:29:29Z</time>
      </trkpt>
      <trkpt lat="38.7223170" lon="-0.6158700">
        <ele>820.0</ele>
        <time>2019-05-12T11:29:31Z</time>
      </trkpt>
      <trkpt lat="38.7221050" lon="-0.6159820">
        <ele>819.2</ele>
        <time>2019-05-12T11:29:35Z</time>
      </trkpt>
      <trkpt lat="38.7220460" lon="-0.6162190">
        <ele>818.0</ele>
        <time>2019-05-12T11:29:38Z</time>
      </trkpt>
      <trkpt lat="38.7220200" lon="-0.6163030">
        <ele>817.8</ele>
        <time>2019-05-12T11:29:39Z</time>
      </trkpt>
      <trkpt lat="38.7219290" lon="-0.6165300">
        <ele>818.4</ele>
        <time>2019-05-12T11:29:42Z</time>
      </trkpt>
      <trkpt lat="38.7217520" lon="-0.6166770">
        <ele>818.6</ele>
        <time>2019-05-12T11:29:45Z</time>
      </trkpt>
      <trkpt lat="38.7216800" lon="-0.6167150">
        <ele>818.6</ele>
        <time>2019-05-12T11:29:46Z</time>
      </trkpt>
      <trkpt lat="38.7214700" lon="-0.6168510">
        <ele>817.6</ele>
        <time>2019-05-12T11:29:49Z</time>
      </trkpt>
      <trkpt lat="38.7214110" lon="-0.6169120">
        <ele>817.6</ele>
        <time>2019-05-12T11:29:50Z</time>
      </trkpt>
      <trkpt lat="38.7211700" lon="-0.6171300">
        <ele>817.6</ele>
        <time>2019-05-12T11:29:54Z</time>
      </trkpt>
      <trkpt lat="38.7211160" lon="-0.6171920">
        <ele>817.8</ele>
        <time>2019-05-12T11:29:55Z</time>
      </trkpt>
      <trkpt lat="38.7208640" lon="-0.6175020">
        <ele>818.0</ele>
        <time>2019-05-12T11:30:00Z</time>
      </trkpt>
      <trkpt lat="38.7208020" lon="-0.6175300">
        <ele>818.0</ele>
        <time>2019-05-12T11:30:01Z</time>
      </trkpt>
      <trkpt lat="38.7206410" lon="-0.6175590">
        <ele>817.6</ele>
        <time>2019-05-12T11:30:04Z</time>
      </trkpt>
      <trkpt lat="38.7206070" lon="-0.6176000">
        <ele>816.8</ele>
        <time>2019-05-12T11:30:05Z</time>
      </trkpt>
      <trkpt lat="38.7205780" lon="-0.6176330">
        <ele>816.2</ele>
        <time>2019-05-12T11:30:06Z</time>
      </trkpt>
      <trkpt lat="38.7205700" lon="-0.6176820">
        <ele>816.0</ele>
        <time>2019-05-12T11:30:07Z</time>
      </trkpt>
      <trkpt lat="38.7206020" lon="-0.6178290">
        <ele>816.0</ele>
        <time>2019-05-12T11:30:10Z</time>
      </trkpt>
      <trkpt lat="38.7205510" lon="-0.6180650">
        <ele>817.0</ele>
        <time>2019-05-12T11:30:14Z</time>
      </trkpt>
      <trkpt lat="38.7204110" lon="-0.6181990">
        <ele>817.6</ele>
        <time>2019-05-12T11:30:17Z</time>
      </trkpt>
      <trkpt lat="38.7203650" lon="-0.6182480">
        <ele>818.0</ele>
        <time>2019-05-12T11:30:18Z</time>
      </trkpt>
      <trkpt lat="38.7202580" lon="-0.6184340">
        <ele>817.0</ele>
        <time>2019-05-12T11:30:21Z</time>
      </trkpt>
      <trkpt lat="38.7202290" lon="-0.6184940">
        <ele>817.4</ele>
        <time>2019-05-12T11:30:22Z</time>
      </trkpt>
      <trkpt lat="38.7200790" lon="-0.6188120">
        <ele>818.6</ele>
        <time>2019-05-12T11:30:27Z</time>
      </trkpt>
      <trkpt lat="38.7200570" lon="-0.6188790">
        <ele>818.4</ele>
        <time>2019-05-12T11:30:28Z</time>
      </trkpt>
      <trkpt lat="38.7199630" lon="-0.6190830">
        <ele>817.8</ele>
        <time>2019-05-12T11:30:31Z</time>
      </trkpt>
      <trkpt lat="38.7198750" lon="-0.6192930">
        <ele>817.4</ele>
        <time>2019-05-12T11:30:34Z</time>
      </trkpt>
      <trkpt lat="38.7198680" lon="-0.6193750">
        <ele>817.2</ele>
        <time>2019-05-12T11:30:35Z</time>
      </trkpt>
      <trkpt lat="38.7198440" lon="-0.6196070">
        <ele>816.8</ele>
        <time>2019-05-12T11:30:38Z</time>
      </trkpt>
      <trkpt lat="38.7198130" lon="-0.6196780">
        <ele>816.6</ele>
        <time>2019-05-12T11:30:39Z</time>
      </trkpt>
      <trkpt lat="38.7197420" lon="-0.6198220">
        <ele>816.8</ele>
        <time>2019-05-12T11:30:41Z</time>
      </trkpt>
      <trkpt lat="38.7196370" lon="-0.6200390">
        <ele>817.0</ele>
        <time>2019-05-12T11:30:44Z</time>
      </trkpt>
      <trkpt lat="38.7195230" lon="-0.6203280">
        <ele>816.6</ele>
        <time>2019-05-12T11:30:48Z</time>
      </trkpt>
      <trkpt lat="38.7194950" lon="-0.6204000">
        <ele>816.8</ele>
        <time>2019-05-12T11:30:49Z</time>
      </trkpt>
      <trkpt lat="38.7193930" lon="-0.6207630">
        <ele>816.6</ele>
        <time>2019-05-12T11:30:54Z</time>
      </trkpt>
      <trkpt lat="38.7193520" lon="-0.6209190">
        <ele>816.0</ele>
        <time>2019-05-12T11:30:56Z</time>
      </trkpt>
      <trkpt lat="38.7193210" lon="-0.6209940">
        <ele>815.6</ele>
        <time>2019-05-12T11:30:57Z</time>
      </trkpt>
      <trkpt lat="38.7192600" lon="-0.6211410">
        <ele>815.2</ele>
        <time>2019-05-12T11:30:59Z</time>
      </trkpt>
      <trkpt lat="38.7192410" lon="-0.6212030">
        <ele>815.4</ele>
        <time>2019-05-12T11:31:00Z</time>
      </trkpt>
      <trkpt lat="38.7191610" lon="-0.6213770">
        <ele>816.0</ele>
        <time>2019-05-12T11:31:03Z</time>
      </trkpt>
      <trkpt lat="38.7189580" lon="-0.6215790">
        <ele>814.0</ele>
        <time>2019-05-12T11:31:07Z</time>
      </trkpt>
      <trkpt lat="38.7189050" lon="-0.6216380">
        <ele>813.2</ele>
        <time>2019-05-12T11:31:08Z</time>
      </trkpt>
      <trkpt lat="38.7188580" lon="-0.6217130">
        <ele>812.4</ele>
        <time>2019-05-12T11:31:09Z</time>
      </trkpt>
      <trkpt lat="38.7188130" lon="-0.6217970">
        <ele>811.2</ele>
        <time>2019-05-12T11:31:10Z</time>
      </trkpt>
      <trkpt lat="38.7187660" lon="-0.6218860">
        <ele>810.2</ele>
        <time>2019-05-12T11:31:11Z</time>
      </trkpt>
      <trkpt lat="38.7186780" lon="-0.6220710">
        <ele>808.6</ele>
        <time>2019-05-12T11:31:13Z</time>
      </trkpt>
      <trkpt lat="38.7185830" lon="-0.6222550">
        <ele>806.8</ele>
        <time>2019-05-12T11:31:15Z</time>
      </trkpt>
      <trkpt lat="38.7185390" lon="-0.6223460">
        <ele>805.6</ele>
        <time>2019-05-12T11:31:16Z</time>
      </trkpt>
      <trkpt lat="38.7184970" lon="-0.6224330">
        <ele>805.0</ele>
        <time>2019-05-12T11:31:17Z</time>
      </trkpt>
      <trkpt lat="38.7184540" lon="-0.6225230">
        <ele>804.6</ele>
        <time>2019-05-12T11:31:18Z</time>
      </trkpt>
      <trkpt lat="38.7183270" lon="-0.6227680">
        <ele>803.2</ele>
        <time>2019-05-12T11:31:21Z</time>
      </trkpt>
      <trkpt lat="38.7182810" lon="-0.6228390">
        <ele>802.8</ele>
        <time>2019-05-12T11:31:22Z</time>
      </trkpt>
      <trkpt lat="38.7182320" lon="-0.6229000">
        <ele>802.4</ele>
        <time>2019-05-12T11:31:23Z</time>
      </trkpt>
      <trkpt lat="38.7181790" lon="-0.6229660">
        <ele>802.0</ele>
        <time>2019-05-12T11:31:24Z</time>
      </trkpt>
      <trkpt lat="38.7181390" lon="-0.6230410">
        <ele>801.4</ele>
        <time>2019-05-12T11:31:25Z</time>
      </trkpt>
      <trkpt lat="38.7180890" lon="-0.6231100">
        <ele>801.0</ele>
        <time>2019-05-12T11:31:26Z</time>
      </trkpt>
      <trkpt lat="38.7180370" lon="-0.6231800">
        <ele>800.6</ele>
        <time>2019-05-12T11:31:27Z</time>
      </trkpt>
      <trkpt lat="38.7179480" lon="-0.6233160">
        <ele>799.4</ele>
        <time>2019-05-12T11:31:29Z</time>
      </trkpt>
      <trkpt lat="38.7178980" lon="-0.6233780">
        <ele>798.8</ele>
        <time>2019-05-12T11:31:30Z</time>
      </trkpt>
      <trkpt lat="38.7178550" lon="-0.6234310">
        <ele>798.4</ele>
        <time>2019-05-12T11:31:31Z</time>
      </trkpt>
      <trkpt lat="38.7178100" lon="-0.6234550">
        <ele>798.2</ele>
        <time>2019-05-12T11:31:32Z</time>
      </trkpt>
      <trkpt lat="38.7177070" lon="-0.6234250">
        <ele>798.0</ele>
        <time>2019-05-12T11:31:34Z</time>
      </trkpt>
      <trkpt lat="38.7176640" lon="-0.6233820">
        <ele>796.8</ele>
        <time>2019-05-12T11:31:35Z</time>
      </trkpt>
      <trkpt lat="38.7176190" lon="-0.6233380">
        <ele>796.2</ele>
        <time>2019-05-12T11:31:36Z</time>
      </trkpt>
      <trkpt lat="38.7175590" lon="-0.6233160">
        <ele>796.0</ele>
        <time>2019-05-12T11:31:37Z</time>
      </trkpt>
      <trkpt lat="38.7175050" lon="-0.6233200">
        <ele>795.8</ele>
        <time>2019-05-12T11:31:38Z</time>
      </trkpt>
      <trkpt lat="38.7174660" lon="-0.6233640">
        <ele>795.4</ele>
        <time>2019-05-12T11:31:39Z</time>
      </trkpt>
      <trkpt lat="38.7173940" lon="-0.6234920">
        <ele>794.6</ele>
        <time>2019-05-12T11:31:41Z</time>
      </trkpt>
      <trkpt lat="38.7173530" lon="-0.6235620">
        <ele>794.6</ele>
        <time>2019-05-12T11:31:42Z</time>
      </trkpt>
      <trkpt lat="38.7173070" lon="-0.6236330">
        <ele>794.4</ele>
        <time>2019-05-12T11:31:43Z</time>
      </trkpt>
      <trkpt lat="38.7172710" lon="-0.6237180">
        <ele>794.2</ele>
        <time>2019-05-12T11:31:44Z</time>
      </trkpt>
      <trkpt lat="38.7172480" lon="-0.6238110">
        <ele>793.4</ele>
        <time>2019-05-12T11:31:45Z</time>
      </trkpt>
      <trkpt lat="38.7172250" lon="-0.6239130">
        <ele>792.8</ele>
        <time>2019-05-12T11:31:46Z</time>
      </trkpt>
      <trkpt lat="38.7172050" lon="-0.6240170">
        <ele>792.2</ele>
        <time>2019-05-12T11:31:47Z</time>
      </trkpt>
      <trkpt lat="38.7171970" lon="-0.6241280">
        <ele>791.8</ele>
        <time>2019-05-12T11:31:48Z</time>
      </trkpt>
      <trkpt lat="38.7171630" lon="-0.6243370">
        <ele>791.0</ele>
        <time>2019-05-12T11:31:50Z</time>
      </trkpt>
      <trkpt lat="38.7171170" lon="-0.6246520">
        <ele>790.2</ele>
        <time>2019-05-12T11:31:53Z</time>
      </trkpt>
      <trkpt lat="38.7171020" lon="-0.6247480">
        <ele>790.0</ele>
        <time>2019-05-12T11:31:54Z</time>
      </trkpt>
      <trkpt lat="38.7170430" lon="-0.6251090">
        <ele>790.8</ele>
        <time>2019-05-12T11:31:58Z</time>
      </trkpt>
      <trkpt lat="38.7170230" lon="-0.6251980">
        <ele>791.2</ele>
        <time>2019-05-12T11:31:59Z</time>
      </trkpt>
      <trkpt lat="38.7169900" lon="-0.6253840">
        <ele>792.0</ele>
        <time>2019-05-12T11:32:01Z</time>
      </trkpt>
      <trkpt lat="38.7169580" lon="-0.6255550">
        <ele>792.4</ele>
        <time>2019-05-12T11:32:03Z</time>
      </trkpt>
      <trkpt lat="38.7169430" lon="-0.6256370">
        <ele>792.6</ele>
        <time>2019-05-12T11:32:04Z</time>
      </trkpt>
      <trkpt lat="38.7169360" lon="-0.6257140">
        <ele>792.4</ele>
        <time>2019-05-12T11:32:05Z</time>
      </trkpt>
      <trkpt lat="38.7169060" lon="-0.6258460">
        <ele>792.2</ele>
        <time>2019-05-12T11:32:07Z</time>
      </trkpt>
      <trkpt lat="38.7168850" lon="-0.6259030">
        <ele>792.4</ele>
        <time>2019-05-12T11:32:08Z</time>
      </trkpt>
      <trkpt lat="38.7167640" lon="-0.6261570">
        <ele>791.0</ele>
        <time>2019-05-12T11:32:12Z</time>
      </trkpt>
      <trkpt lat="38.7167110" lon="-0.6263390">
        <ele>789.0</ele>
        <time>2019-05-12T11:32:14Z</time>
      </trkpt>
      <trkpt lat="38.7166600" lon="-0.6264240">
        <ele>787.8</ele>
        <time>2019-05-12T11:32:15Z</time>
      </trkpt>
      <trkpt lat="38.7166030" lon="-0.6265040">
        <ele>786.8</ele>
        <time>2019-05-12T11:32:16Z</time>
      </trkpt>
      <trkpt lat="38.7165330" lon="-0.6265740">
        <ele>785.8</ele>
        <time>2019-05-12T11:32:17Z</time>
      </trkpt>
      <trkpt lat="38.7164590" lon="-0.6266340">
        <ele>784.8</ele>
        <time>2019-05-12T11:32:18Z</time>
      </trkpt>
      <trkpt lat="38.7163840" lon="-0.6266910">
        <ele>784.0</ele>
        <time>2019-05-12T11:32:19Z</time>
      </trkpt>
      <trkpt lat="38.7163060" lon="-0.6267360">
        <ele>782.8</ele>
        <time>2019-05-12T11:32:20Z</time>
      </trkpt>
      <trkpt lat="38.7162310" lon="-0.6267800">
        <ele>781.8</ele>
        <time>2019-05-12T11:32:21Z</time>
      </trkpt>
      <trkpt lat="38.7161670" lon="-0.6268240">
        <ele>780.2</ele>
        <time>2019-05-12T11:32:22Z</time>
      </trkpt>
      <trkpt lat="38.7161000" lon="-0.6268710">
        <ele>779.2</ele>
        <time>2019-05-12T11:32:23Z</time>
      </trkpt>
      <trkpt lat="38.7160370" lon="-0.6269160">
        <ele>778.0</ele>
        <time>2019-05-12T11:32:24Z</time>
      </trkpt>
      <trkpt lat="38.7159730" lon="-0.6269570">
        <ele>776.2</ele>
        <time>2019-05-12T11:32:25Z</time>
      </trkpt>
      <trkpt lat="38.7158530" lon="-0.6270690">
        <ele>774.8</ele>
        <time>2019-05-12T11:32:27Z</time>
      </trkpt>
      <trkpt lat="38.7158170" lon="-0.6271480">
        <ele>774.0</ele>
        <time>2019-05-12T11:32:28Z</time>
      </trkpt>
      <trkpt lat="38.7157850" lon="-0.6272280">
        <ele>773.6</ele>
        <time>2019-05-12T11:32:29Z</time>
      </trkpt>
      <trkpt lat="38.7156650" lon="-0.6274200">
        <ele>773.2</ele>
        <time>2019-05-12T11:32:32Z</time>
      </trkpt>
      <trkpt lat="38.7156430" lon="-0.6274500">
        <ele>773.6</ele>
        <time>2019-05-12T11:32:33Z</time>
      </trkpt>
      <trkpt lat="38.7156160" lon="-0.6274900">
        <ele>774.8</ele>
        <time>2019-05-12T11:32:35Z</time>
      </trkpt>
      <trkpt lat="38.7156050" lon="-0.6275210">
        <ele>775.0</ele>
        <time>2019-05-12T11:32:37Z</time>
      </trkpt>
      <trkpt lat="38.7155980" lon="-0.6275580">
        <ele>775.2</ele>
        <time>2019-05-12T11:32:39Z</time>
      </trkpt>
      <trkpt lat="38.7155770" lon="-0.6275800">
        <ele>775.4</ele>
        <time>2019-05-12T11:32:43Z</time>
      </trkpt>
      <trkpt lat="38.7156190" lon="-0.6275150">
        <ele>775.2</ele>
        <time>2019-05-12T11:32:48Z</time>
      </trkpt>
      <trkpt lat="38.7156410" lon="-0.6275120">
        <ele>775.2</ele>
        <time>2019-05-12T11:32:49Z</time>
      </trkpt>
      <trkpt lat="38.7157100" lon="-0.6275220">
        <ele>774.6</ele>
        <time>2019-05-12T11:32:51Z</time>
      </trkpt>
      <trkpt lat="38.7157540" lon="-0.6275430">
        <ele>773.6</ele>
        <time>2019-05-12T11:32:53Z</time>
      </trkpt>
      <trkpt lat="38.7157730" lon="-0.6275550">
        <ele>773.6</ele>
        <time>2019-05-12T11:32:54Z</time>
      </trkpt>
      <trkpt lat="38.7158130" lon="-0.6275550">
        <ele>773.6</ele>
        <time>2019-05-12T11:32:56Z</time>
      </trkpt>
      <trkpt lat="38.7158470" lon="-0.6274870">
        <ele>773.4</ele>
        <time>2019-05-12T11:32:58Z</time>
      </trkpt>
      <trkpt lat="38.7158760" lon="-0.6274050">
        <ele>772.4</ele>
        <time>2019-05-12T11:33:00Z</time>
      </trkpt>
      <trkpt lat="38.7158900" lon="-0.6273560">
        <ele>771.8</ele>
        <time>2019-05-12T11:33:02Z</time>
      </trkpt>
      <trkpt lat="38.7159030" lon="-0.6273380">
        <ele>772.0</ele>
        <time>2019-05-12T11:33:03Z</time>
      </trkpt>
      <trkpt lat="38.7160070" lon="-0.6272850">
        <ele>772.6</ele>
        <time>2019-05-12T11:35:08Z</time>
      </trkpt>
      <trkpt lat="38.7160470" lon="-0.6272720">
        <ele>772.8</ele>
        <time>2019-05-12T11:35:11Z</time>
      </trkpt>
      <trkpt lat="38.7160970" lon="-0.6272580">
        <ele>772.6</ele>
        <time>2019-05-12T11:35:15Z</time>
      </trkpt>
      <trkpt lat="38.7161130" lon="-0.6272470">
        <ele>772.6</ele>
        <time>2019-05-12T11:35:17Z</time>
      </trkpt>
      <trkpt lat="38.7161200" lon="-0.6272520">
        <ele>772.4</ele>
        <time>2019-05-12T11:35:19Z</time>
      </trkpt>
      <trkpt lat="38.7161350" lon="-0.6272700">
        <ele>772.4</ele>
        <time>2019-05-12T11:35:21Z</time>
      </trkpt>
      <trkpt lat="38.7161450" lon="-0.6272750">
        <ele>772.6</ele>
        <time>2019-05-12T11:35:22Z</time>
      </trkpt>
      <trkpt lat="38.7162070" lon="-0.6273050">
        <ele>772.6</ele>
        <time>2019-05-12T11:35:25Z</time>
      </trkpt>
      <trkpt lat="38.7162960" lon="-0.6273750">
        <ele>773.0</ele>
        <time>2019-05-12T11:35:31Z</time>
      </trkpt>
      <trkpt lat="38.7163180" lon="-0.6273760">
        <ele>773.6</ele>
        <time>2019-05-12T11:35:33Z</time>
      </trkpt>
      <trkpt lat="38.7163600" lon="-0.6273820">
        <ele>774.0</ele>
        <time>2019-05-12T11:35:35Z</time>
      </trkpt>
      <trkpt lat="38.7163920" lon="-0.6273670">
        <ele>774.0</ele>
        <time>2019-05-12T11:35:36Z</time>
      </trkpt>
      <trkpt lat="38.7164630" lon="-0.6273280">
        <ele>774.4</ele>
        <time>2019-05-12T11:35:38Z</time>
      </trkpt>
      <trkpt lat="38.7166120" lon="-0.6272090">
        <ele>773.4</ele>
        <time>2019-05-12T11:35:42Z</time>
      </trkpt>
      <trkpt lat="38.7167420" lon="-0.6271360">
        <ele>774.6</ele>
        <time>2019-05-12T11:35:46Z</time>
      </trkpt>
      <trkpt lat="38.7167660" lon="-0.6271120">
        <ele>775.2</ele>
        <time>2019-05-12T11:35:47Z</time>
      </trkpt>
      <trkpt lat="38.7168240" lon="-0.6270310">
        <ele>775.8</ele>
        <time>2019-05-12T11:35:50Z</time>
      </trkpt>
      <trkpt lat="38.7169210" lon="-0.6268770">
        <ele>776.2</ele>
        <time>2019-05-12T11:35:55Z</time>
      </trkpt>
      <trkpt lat="38.7169500" lon="-0.6268620">
        <ele>776.4</ele>
        <time>2019-05-12T11:35:56Z</time>
      </trkpt>
      <trkpt lat="38.7170310" lon="-0.6267380">
        <ele>776.8</ele>
        <time>2019-05-12T11:36:00Z</time>
      </trkpt>
      <trkpt lat="38.7170720" lon="-0.6266490">
        <ele>777.4</ele>
        <time>2019-05-12T11:36:03Z</time>
      </trkpt>
      <trkpt lat="38.7171040" lon="-0.6265540">
        <ele>777.2</ele>
        <time>2019-05-12T11:36:06Z</time>
      </trkpt>
      <trkpt lat="38.7172050" lon="-0.6264630">
        <ele>777.6</ele>
        <time>2019-05-12T11:36:11Z</time>
      </trkpt>
      <trkpt lat="38.7172380" lon="-0.6264530">
        <ele>777.8</ele>
        <time>2019-05-12T11:36:15Z</time>
      </trkpt>
      <trkpt lat="38.7172090" lon="-0.6261700">
        <ele>780.8</ele>
        <time>2019-05-12T11:37:10Z</time>
      </trkpt>
      <trkpt lat="38.7172670" lon="-0.6261660">
        <ele>780.6</ele>
        <time>2019-05-12T11:37:12Z</time>
      </trkpt>
      <trkpt lat="38.7174270" lon="-0.6261200">
        <ele>780.6</ele>
        <time>2019-05-12T11:37:16Z</time>
      </trkpt>
      <trkpt lat="38.7175880" lon="-0.6260970">
        <ele>781.4</ele>
        <time>2019-05-12T11:37:21Z</time>
      </trkpt>
      <trkpt lat="38.7178690" lon="-0.6260880">
        <ele>780.6</ele>
        <time>2019-05-12T11:37:29Z</time>
      </trkpt>
      <trkpt lat="38.7181180" lon="-0.6261140">
        <ele>781.2</ele>
        <time>2019-05-12T11:37:36Z</time>
      </trkpt>
      <trkpt lat="38.7182980" lon="-0.6260670">
        <ele>781.4</ele>
        <time>2019-05-12T11:37:41Z</time>
      </trkpt>
      <trkpt lat="38.7185290" lon="-0.6260270">
        <ele>780.8</ele>
        <time>2019-05-12T11:37:47Z</time>
      </trkpt>
      <trkpt lat="38.7187120" lon="-0.6260200">
        <ele>781.2</ele>
        <time>2019-05-12T11:37:52Z</time>
      </trkpt>
      <trkpt lat="38.7188450" lon="-0.6259910">
        <ele>781.2</ele>
        <time>2019-05-12T11:37:57Z</time>
      </trkpt>
      <trkpt lat="38.7189010" lon="-0.6260010">
        <ele>781.6</ele>
        <time>2019-05-12T11:38:00Z</time>
      </trkpt>
      <trkpt lat="38.7189200" lon="-0.6260020">
        <ele>781.8</ele>
        <time>2019-05-12T11:38:01Z</time>
      </trkpt>
      <trkpt lat="38.7189340" lon="-0.6259970">
        <ele>782.0</ele>
        <time>2019-05-12T11:38:02Z</time>
      </trkpt>
      <trkpt lat="38.7190150" lon="-0.6259650">
        <ele>782.4</ele>
        <time>2019-05-12T11:38:07Z</time>
      </trkpt>
      <trkpt lat="38.7190380" lon="-0.6259360">
        <ele>782.2</ele>
        <time>2019-05-12T11:38:09Z</time>
      </trkpt>
      <trkpt lat="38.7190470" lon="-0.6259050">
        <ele>782.6</ele>
        <time>2019-05-12T11:38:11Z</time>
      </trkpt>
      <trkpt lat="38.7190500" lon="-0.6258950">
        <ele>782.8</ele>
        <time>2019-05-12T11:38:12Z</time>
      </trkpt>
      <trkpt lat="38.7190630" lon="-0.6258870">
        <ele>783.0</ele>
        <time>2019-05-12T11:38:13Z</time>
      </trkpt>
      <trkpt lat="38.7191100" lon="-0.6259230">
        <ele>783.4</ele>
        <time>2019-05-12T11:44:33Z</time>
      </trkpt>
      <trkpt lat="38.7192580" lon="-0.6259530">
        <ele>783.0</ele>
        <time>2019-05-12T11:44:38Z</time>
      </trkpt>
      <trkpt lat="38.7195530" lon="-0.6260130">
        <ele>783.6</ele>
        <time>2019-05-12T11:44:46Z</time>
      </trkpt>
      <trkpt lat="38.7197170" lon="-0.6259680">
        <ele>783.8</ele>
        <time>2019-05-12T11:44:51Z</time>
      </trkpt>
      <trkpt lat="38.7197390" lon="-0.6259620">
        <ele>784.2</ele>
        <time>2019-05-12T11:44:52Z</time>
      </trkpt>
      <trkpt lat="38.7197960" lon="-0.6259550">
        <ele>785.4</ele>
        <time>2019-05-12T11:44:54Z</time>
      </trkpt>
      <trkpt lat="38.7198240" lon="-0.6259470">
        <ele>785.6</ele>
        <time>2019-05-12T11:44:55Z</time>
      </trkpt>
      <trkpt lat="38.7199920" lon="-0.6258550">
        <ele>785.4</ele>
        <time>2019-05-12T11:45:01Z</time>
      </trkpt>
      <trkpt lat="38.7200770" lon="-0.6258580">
        <ele>784.8</ele>
        <time>2019-05-12T11:45:04Z</time>
      </trkpt>
      <trkpt lat="38.7201200" lon="-0.6258250">
        <ele>784.2</ele>
        <time>2019-05-12T11:45:05Z</time>
      </trkpt>
      <trkpt lat="38.7201590" lon="-0.6257230">
        <ele>784.0</ele>
        <time>2019-05-12T11:45:08Z</time>
      </trkpt>
      <trkpt lat="38.7202420" lon="-0.6255920">
        <ele>784.8</ele>
        <time>2019-05-12T11:45:12Z</time>
      </trkpt>
      <trkpt lat="38.7202700" lon="-0.6254620">
        <ele>785.0</ele>
        <time>2019-05-12T11:45:15Z</time>
      </trkpt>
      <trkpt lat="38.7202650" lon="-0.6254240">
        <ele>785.4</ele>
        <time>2019-05-12T11:45:16Z</time>
      </trkpt>
      <trkpt lat="38.7202780" lon="-0.6253500">
        <ele>786.2</ele>
        <time>2019-05-12T11:45:18Z</time>
      </trkpt>
      <trkpt lat="38.7202900" lon="-0.6253100">
        <ele>786.6</ele>
        <time>2019-05-12T11:45:19Z</time>
      </trkpt>
      <trkpt lat="38.7203100" lon="-0.6252240">
        <ele>786.6</ele>
        <time>2019-05-12T11:45:21Z</time>
      </trkpt>
      <trkpt lat="38.7203460" lon="-0.6251280">
        <ele>788.0</ele>
        <time>2019-05-12T11:45:24Z</time>
      </trkpt>
      <trkpt lat="38.7203530" lon="-0.6251040">
        <ele>788.6</ele>
        <time>2019-05-12T11:45:25Z</time>
      </trkpt>
      <trkpt lat="38.7203690" lon="-0.6250820">
        <ele>789.2</ele>
        <time>2019-05-12T11:45:26Z</time>
      </trkpt>
      <trkpt lat="38.7204010" lon="-0.6250700">
        <ele>789.4</ele>
        <time>2019-05-12T11:45:27Z</time>
      </trkpt>
      <trkpt lat="38.7204700" lon="-0.6250790">
        <ele>789.8</ele>
        <time>2019-05-12T11:45:29Z</time>
      </trkpt>
      <trkpt lat="38.7206110" lon="-0.6251120">
        <ele>789.0</ele>
        <time>2019-05-12T11:45:33Z</time>
      </trkpt>
      <trkpt lat="38.7206440" lon="-0.6251160">
        <ele>789.2</ele>
        <time>2019-05-12T11:45:34Z</time>
      </trkpt>
      <trkpt lat="38.7208430" lon="-0.6251060">
        <ele>789.8</ele>
        <time>2019-05-12T11:45:40Z</time>
      </trkpt>
      <trkpt lat="38.7209130" lon="-0.6250260">
        <ele>790.4</ele>
        <time>2019-05-12T11:45:43Z</time>
      </trkpt>
      <trkpt lat="38.7209290" lon="-0.6249960">
        <ele>790.4</ele>
        <time>2019-05-12T11:45:44Z</time>
      </trkpt>
      <trkpt lat="38.7209510" lon="-0.6248930">
        <ele>791.8</ele>
        <time>2019-05-12T11:45:47Z</time>
      </trkpt>
      <trkpt lat="38.7209510" lon="-0.6248290">
        <ele>792.8</ele>
        <time>2019-05-12T11:45:49Z</time>
      </trkpt>
      <trkpt lat="38.7209130" lon="-0.6247150">
        <ele>794.2</ele>
        <time>2019-05-12T11:45:53Z</time>
      </trkpt>
      <trkpt lat="38.7209210" lon="-0.6246850">
        <ele>794.2</ele>
        <time>2019-05-12T11:45:54Z</time>
      </trkpt>
      <trkpt lat="38.7209820" lon="-0.6245660">
        <ele>795.0</ele>
        <time>2019-05-12T11:45:59Z</time>
      </trkpt>
      <trkpt lat="38.7209950" lon="-0.6245430">
        <ele>795.2</ele>
        <time>2019-05-12T11:46:00Z</time>
      </trkpt>
      <trkpt lat="38.7210840" lon="-0.6244430">
        <ele>796.2</ele>
        <time>2019-05-12T11:46:05Z</time>
      </trkpt>
      <trkpt lat="38.7211300" lon="-0.6243850">
        <ele>796.2</ele>
        <time>2019-05-12T11:46:08Z</time>
      </trkpt>
      <trkpt lat="38.7211460" lon="-0.6243560">
        <ele>796.2</ele>
        <time>2019-05-12T11:46:09Z</time>
      </trkpt>
      <trkpt lat="38.7212210" lon="-0.6241320">
        <ele>796.2</ele>
        <time>2019-05-12T11:46:16Z</time>
      </trkpt>
      <trkpt lat="38.7212010" lon="-0.6238490">
        <ele>796.6</ele>
        <time>2019-05-12T11:46:24Z</time>
      </trkpt>
      <trkpt lat="38.7211690" lon="-0.6238150">
        <ele>797.4</ele>
        <time>2019-05-12T11:46:26Z</time>
      </trkpt>
      <trkpt lat="38.7211380" lon="-0.6237750">
        <ele>798.0</ele>
        <time>2019-05-12T11:46:28Z</time>
      </trkpt>
      <trkpt lat="38.7210960" lon="-0.6236510">
        <ele>798.2</ele>
        <time>2019-05-12T11:46:32Z</time>
      </trkpt>
      <trkpt lat="38.7210790" lon="-0.6236170">
        <ele>798.2</ele>
        <time>2019-05-12T11:46:33Z</time>
      </trkpt>
      <trkpt lat="38.7210890" lon="-0.6235310">
        <ele>798.2</ele>
        <time>2019-05-12T11:46:35Z</time>
      </trkpt>
      <trkpt lat="38.7211030" lon="-0.6235000">
        <ele>797.8</ele>
        <time>2019-05-12T11:46:36Z</time>
      </trkpt>
      <trkpt lat="38.7211360" lon="-0.6234000">
        <ele>796.4</ele>
        <time>2019-05-12T11:46:39Z</time>
      </trkpt>
      <trkpt lat="38.7211520" lon="-0.6233650">
        <ele>796.0</ele>
        <time>2019-05-12T11:46:40Z</time>
      </trkpt>
      <trkpt lat="38.7211670" lon="-0.6233240">
        <ele>795.6</ele>
        <time>2019-05-12T11:46:41Z</time>
      </trkpt>
      <trkpt lat="38.7211890" lon="-0.6232860">
        <ele>795.2</ele>
        <time>2019-05-12T11:46:42Z</time>
      </trkpt>
      <trkpt lat="38.7213050" lon="-0.6232360">
        <ele>794.8</ele>
        <time>2019-05-12T11:46:45Z</time>
      </trkpt>
      <trkpt lat="38.7214480" lon="-0.6232040">
        <ele>794.6</ele>
        <time>2019-05-12T11:46:49Z</time>
      </trkpt>
      <trkpt lat="38.7215140" lon="-0.6231360">
        <ele>795.8</ele>
        <time>2019-05-12T11:46:52Z</time>
      </trkpt>
      <trkpt lat="38.7215420" lon="-0.6231340">
        <ele>796.2</ele>
        <time>2019-05-12T11:46:53Z</time>
      </trkpt>
      <trkpt lat="38.7216050" lon="-0.6232210">
        <ele>797.2</ele>
        <time>2019-05-12T11:46:56Z</time>
      </trkpt>
      <trkpt lat="38.7216230" lon="-0.6232580">
        <ele>797.6</ele>
        <time>2019-05-12T11:46:57Z</time>
      </trkpt>
      <trkpt lat="38.7216840" lon="-0.6232980">
        <ele>797.4</ele>
        <time>2019-05-12T11:46:59Z</time>
      </trkpt>
      <trkpt lat="38.7217200" lon="-0.6233000">
        <ele>797.2</ele>
        <time>2019-05-12T11:47:00Z</time>
      </trkpt>
      <trkpt lat="38.7218090" lon="-0.6233330">
        <ele>798.2</ele>
        <time>2019-05-12T11:47:03Z</time>
      </trkpt>
      <trkpt lat="38.7218400" lon="-0.6233460">
        <ele>798.4</ele>
        <time>2019-05-12T11:47:04Z</time>
      </trkpt>
      <trkpt lat="38.7218760" lon="-0.6233640">
        <ele>798.6</ele>
        <time>2019-05-12T11:47:05Z</time>
      </trkpt>
      <trkpt lat="38.7220080" lon="-0.6233440">
        <ele>799.0</ele>
        <time>2019-05-12T11:47:09Z</time>
      </trkpt>
      <trkpt lat="38.7220730" lon="-0.6233350">
        <ele>799.6</ele>
        <time>2019-05-12T11:47:11Z</time>
      </trkpt>
      <trkpt lat="38.7222200" lon="-0.6233460">
        <ele>799.8</ele>
        <time>2019-05-12T11:47:15Z</time>
      </trkpt>
      <trkpt lat="38.7223400" lon="-0.6234130">
        <ele>799.2</ele>
        <time>2019-05-12T11:47:18Z</time>
      </trkpt>
      <trkpt lat="38.7223890" lon="-0.6234530">
        <ele>798.8</ele>
        <time>2019-05-12T11:47:19Z</time>
      </trkpt>
      <trkpt lat="38.7224330" lon="-0.6234560">
        <ele>798.2</ele>
        <time>2019-05-12T11:47:20Z</time>
      </trkpt>
      <trkpt lat="38.7224980" lon="-0.6235000">
        <ele>797.4</ele>
        <time>2019-05-12T11:47:22Z</time>
      </trkpt>
      <trkpt lat="38.7225280" lon="-0.6235410">
        <ele>797.4</ele>
        <time>2019-05-12T11:47:23Z</time>
      </trkpt>
      <trkpt lat="38.7225720" lon="-0.6235680">
        <ele>797.2</ele>
        <time>2019-05-12T11:47:24Z</time>
      </trkpt>
      <trkpt lat="38.7226700" lon="-0.6235860">
        <ele>796.2</ele>
        <time>2019-05-12T11:47:26Z</time>
      </trkpt>
      <trkpt lat="38.7227170" lon="-0.6235880">
        <ele>795.8</ele>
        <time>2019-05-12T11:47:27Z</time>
      </trkpt>
      <trkpt lat="38.7228320" lon="-0.6236500">
        <ele>795.4</ele>
        <time>2019-05-12T11:47:30Z</time>
      </trkpt>
      <trkpt lat="38.7229270" lon="-0.6236800">
        <ele>795.8</ele>
        <time>2019-05-12T11:47:32Z</time>
      </trkpt>
      <trkpt lat="38.7231350" lon="-0.6237320">
        <ele>795.8</ele>
        <time>2019-05-12T11:47:36Z</time>
      </trkpt>
      <trkpt lat="38.7231960" lon="-0.6237740">
        <ele>795.8</ele>
        <time>2019-05-12T11:47:38Z</time>
      </trkpt>
      <trkpt lat="38.7231730" lon="-0.6238220">
        <ele>795.8</ele>
        <time>2019-05-12T11:47:39Z</time>
      </trkpt>
      <trkpt lat="38.7230620" lon="-0.6238910">
        <ele>796.0</ele>
        <time>2019-05-12T11:47:42Z</time>
      </trkpt>
      <trkpt lat="38.7229920" lon="-0.6239430">
        <ele>795.6</ele>
        <time>2019-05-12T11:47:44Z</time>
      </trkpt>
      <trkpt lat="38.7228700" lon="-0.6240200">
        <ele>795.0</ele>
        <time>2019-05-12T11:47:47Z</time>
      </trkpt>
      <trkpt lat="38.7228330" lon="-0.6240450">
        <ele>795.2</ele>
        <time>2019-05-12T11:47:50Z</time>
      </trkpt>
      <trkpt lat="38.7228350" lon="-0.6239700">
        <ele>795.6</ele>
        <time>2019-05-12T11:47:54Z</time>
      </trkpt>
      <trkpt lat="38.7228550" lon="-0.6240300">
        <ele>795.6</ele>
        <time>2019-05-12T11:47:57Z</time>
      </trkpt>
      <trkpt lat="38.7228330" lon="-0.6241770">
        <ele>793.0</ele>
        <time>2019-05-12T11:48:17Z</time>
      </trkpt>
      <trkpt lat="38.7228210" lon="-0.6241820">
        <ele>791.8</ele>
        <time>2019-05-12T11:48:18Z</time>
      </trkpt>
      <trkpt lat="38.7228290" lon="-0.6241730">
        <ele>791.6</ele>
        <time>2019-05-12T11:48:19Z</time>
      </trkpt>
      <trkpt lat="38.7228110" lon="-0.6242190">
        <ele>791.0</ele>
        <time>2019-05-12T11:48:22Z</time>
      </trkpt>
      <trkpt lat="38.7227950" lon="-0.6242320">
        <ele>790.8</ele>
        <time>2019-05-12T11:48:23Z</time>
      </trkpt>
      <trkpt lat="38.7227860" lon="-0.6242420">
        <ele>790.4</ele>
        <time>2019-05-12T11:48:24Z</time>
      </trkpt>
      <trkpt lat="38.7227630" lon="-0.6242670">
        <ele>789.6</ele>
        <time>2019-05-12T11:48:27Z</time>
      </trkpt>
      <trkpt lat="38.7227500" lon="-0.6242620">
        <ele>789.0</ele>
        <time>2019-05-12T11:48:28Z</time>
      </trkpt>
      <trkpt lat="38.7227430" lon="-0.6242720">
        <ele>788.6</ele>
        <time>2019-05-12T11:48:29Z</time>
      </trkpt>
      <trkpt lat="38.7226940" lon="-0.6242970">
        <ele>787.8</ele>
        <time>2019-05-12T11:48:37Z</time>
      </trkpt>
      <trkpt lat="38.7227060" lon="-0.6242900">
        <ele>788.0</ele>
        <time>2019-05-12T11:48:38Z</time>
      </trkpt>
      <trkpt lat="38.7226510" lon="-0.6243670">
        <ele>789.0</ele>
        <time>2019-05-12T11:48:47Z</time>
      </trkpt>
      <trkpt lat="38.7226470" lon="-0.6243770">
        <ele>789.4</ele>
        <time>2019-05-12T11:48:48Z</time>
      </trkpt>
      <trkpt lat="38.7226280" lon="-0.6243790">
        <ele>789.6</ele>
        <time>2019-05-12T11:48:49Z</time>
      </trkpt>
      <trkpt lat="38.7226010" lon="-0.6243900">
        <ele>789.6</ele>
        <time>2019-05-12T11:48:50Z</time>
      </trkpt>
      <trkpt lat="38.7224730" lon="-0.6244390">
        <ele>789.0</ele>
        <time>2019-05-12T11:48:53Z</time>
      </trkpt>
      <trkpt lat="38.7224170" lon="-0.6244410">
        <ele>788.4</ele>
        <time>2019-05-12T11:48:54Z</time>
      </trkpt>
      <trkpt lat="38.7222390" lon="-0.6244920">
        <ele>788.0</ele>
        <time>2019-05-12T11:48:57Z</time>
      </trkpt>
      <trkpt lat="38.7221160" lon="-0.6245040">
        <ele>787.6</ele>
        <time>2019-05-12T11:48:59Z</time>
      </trkpt>
      <trkpt lat="38.7219370" lon="-0.6245670">
        <ele>787.4</ele>
        <time>2019-05-12T11:49:02Z</time>
      </trkpt>
      <trkpt lat="38.7218860" lon="-0.6246030">
        <ele>787.2</ele>
        <time>2019-05-12T11:49:03Z</time>
      </trkpt>
      <trkpt lat="38.7216880" lon="-0.6247370">
        <ele>787.2</ele>
        <time>2019-05-12T11:49:07Z</time>
      </trkpt>
      <trkpt lat="38.7216570" lon="-0.6247790">
        <ele>787.0</ele>
        <time>2019-05-12T11:49:08Z</time>
      </trkpt>
      <trkpt lat="38.7216070" lon="-0.6249190">
        <ele>788.8</ele>
        <time>2019-05-12T11:49:11Z</time>
      </trkpt>
      <trkpt lat="38.7215880" lon="-0.6249610">
        <ele>789.4</ele>
        <time>2019-05-12T11:49:12Z</time>
      </trkpt>
      <trkpt lat="38.7215710" lon="-0.6249990">
        <ele>790.0</ele>
        <time>2019-05-12T11:49:13Z</time>
      </trkpt>
      <trkpt lat="38.7215360" lon="-0.6251430">
        <ele>791.2</ele>
        <time>2019-05-12T11:49:17Z</time>
      </trkpt>
      <trkpt lat="38.7215380" lon="-0.6251850">
        <ele>791.4</ele>
        <time>2019-05-12T11:49:18Z</time>
      </trkpt>
      <trkpt lat="38.7215290" lon="-0.6254360">
        <ele>791.6</ele>
        <time>2019-05-12T11:49:24Z</time>
      </trkpt>
      <trkpt lat="38.7215290" lon="-0.6255930">
        <ele>792.2</ele>
        <time>2019-05-12T11:49:29Z</time>
      </trkpt>
      <trkpt lat="38.7215270" lon="-0.6256070">
        <ele>792.2</ele>
        <time>2019-05-12T11:49:30Z</time>
      </trkpt>
      <trkpt lat="38.7215220" lon="-0.6256210">
        <ele>792.4</ele>
        <time>2019-05-12T11:49:31Z</time>
      </trkpt>
      <trkpt lat="38.7215250" lon="-0.6256700">
        <ele>792.8</ele>
        <time>2019-05-12T11:49:33Z</time>
      </trkpt>
      <trkpt lat="38.7215310" lon="-0.6256920">
        <ele>793.0</ele>
        <time>2019-05-12T11:49:34Z</time>
      </trkpt>
      <trkpt lat="38.7215270" lon="-0.6257300">
        <ele>793.4</ele>
        <time>2019-05-12T11:49:38Z</time>
      </trkpt>
      <trkpt lat="38.7215240" lon="-0.6256740">
        <ele>793.8</ele>
        <time>2019-05-12T11:49:48Z</time>
      </trkpt>
      <trkpt lat="38.7215230" lon="-0.6256030">
        <ele>793.4</ele>
        <time>2019-05-12T11:49:51Z</time>
      </trkpt>
      <trkpt lat="38.7215250" lon="-0.6256860">
        <ele>792.8</ele>
        <time>2019-05-12T11:50:08Z</time>
      </trkpt>
      <trkpt lat="38.7215110" lon="-0.6258080">
        <ele>793.0</ele>
        <time>2019-05-12T11:50:13Z</time>
      </trkpt>
      <trkpt lat="38.7215090" lon="-0.6259820">
        <ele>793.0</ele>
        <time>2019-05-12T11:50:18Z</time>
      </trkpt>
      <trkpt lat="38.7214930" lon="-0.6262540">
        <ele>793.4</ele>
        <time>2019-05-12T11:50:24Z</time>
      </trkpt>
      <trkpt lat="38.7214510" lon="-0.6264300">
        <ele>794.8</ele>
        <time>2019-05-12T11:50:28Z</time>
      </trkpt>
      <trkpt lat="38.7214430" lon="-0.6264710">
        <ele>795.0</ele>
        <time>2019-05-12T11:50:29Z</time>
      </trkpt>
      <trkpt lat="38.7214330" lon="-0.6265860">
        <ele>795.8</ele>
        <time>2019-05-12T11:50:32Z</time>
      </trkpt>
      <trkpt lat="38.7214170" lon="-0.6266960">
        <ele>796.4</ele>
        <time>2019-05-12T11:50:35Z</time>
      </trkpt>
      <trkpt lat="38.7213930" lon="-0.6268690">
        <ele>796.4</ele>
        <time>2019-05-12T11:50:39Z</time>
      </trkpt>
      <trkpt lat="38.7213740" lon="-0.6269590">
        <ele>796.4</ele>
        <time>2019-05-12T11:50:41Z</time>
      </trkpt>
      <trkpt lat="38.7213530" lon="-0.6270420">
        <ele>797.0</ele>
        <time>2019-05-12T11:50:43Z</time>
      </trkpt>
      <trkpt lat="38.7213070" lon="-0.6271880">
        <ele>798.4</ele>
        <time>2019-05-12T11:50:47Z</time>
      </trkpt>
      <trkpt lat="38.7212960" lon="-0.6272210">
        <ele>798.6</ele>
        <time>2019-05-12T11:50:48Z</time>
      </trkpt>
      <trkpt lat="38.7212190" lon="-0.6275380">
        <ele>798.4</ele>
        <time>2019-05-12T11:50:56Z</time>
      </trkpt>
      <trkpt lat="38.7212250" lon="-0.6275990">
        <ele>798.2</ele>
        <time>2019-05-12T11:50:57Z</time>
      </trkpt>
      <trkpt lat="38.7212200" lon="-0.6278460">
        <ele>797.6</ele>
        <time>2019-05-12T11:51:01Z</time>
      </trkpt>
      <trkpt lat="38.7211650" lon="-0.6280300">
        <ele>798.6</ele>
        <time>2019-05-12T11:51:05Z</time>
      </trkpt>
      <trkpt lat="38.7211500" lon="-0.6280710">
        <ele>798.6</ele>
        <time>2019-05-12T11:51:06Z</time>
      </trkpt>
      <trkpt lat="38.7210730" lon="-0.6282190">
        <ele>799.4</ele>
        <time>2019-05-12T11:51:10Z</time>
      </trkpt>
      <trkpt lat="38.7210350" lon="-0.6282780">
        <ele>800.0</ele>
        <time>2019-05-12T11:51:12Z</time>
      </trkpt>
      <trkpt lat="38.7210170" lon="-0.6283020">
        <ele>800.4</ele>
        <time>2019-05-12T11:51:13Z</time>
      </trkpt>
      <trkpt lat="38.7209500" lon="-0.6283980">
        <ele>801.6</ele>
        <time>2019-05-12T11:51:17Z</time>
      </trkpt>
      <trkpt lat="38.7209180" lon="-0.6284490">
        <ele>802.2</ele>
        <time>2019-05-12T11:51:19Z</time>
      </trkpt>
      <trkpt lat="38.7208610" lon="-0.6285320">
        <ele>803.0</ele>
        <time>2019-05-12T11:51:22Z</time>
      </trkpt>
      <trkpt lat="38.7208040" lon="-0.6286090">
        <ele>803.2</ele>
        <time>2019-05-12T11:51:25Z</time>
      </trkpt>
      <trkpt lat="38.7207680" lon="-0.6286480">
        <ele>804.0</ele>
        <time>2019-05-12T11:51:27Z</time>
      </trkpt>
      <trkpt lat="38.7207180" lon="-0.6287480">
        <ele>805.0</ele>
        <time>2019-05-12T11:51:31Z</time>
      </trkpt>
      <trkpt lat="38.7207030" lon="-0.6287730">
        <ele>805.2</ele>
        <time>2019-05-12T11:51:32Z</time>
      </trkpt>
      <trkpt lat="38.7206430" lon="-0.6289020">
        <ele>806.2</ele>
        <time>2019-05-12T11:51:37Z</time>
      </trkpt>
      <trkpt lat="38.7206300" lon="-0.6289230">
        <ele>806.2</ele>
        <time>2019-05-12T11:51:38Z</time>
      </trkpt>
      <trkpt lat="38.7205630" lon="-0.6290130">
        <ele>807.6</ele>
        <time>2019-05-12T11:51:42Z</time>
      </trkpt>
      <trkpt lat="38.7205550" lon="-0.6290450">
        <ele>808.2</ele>
        <time>2019-05-12T11:51:43Z</time>
      </trkpt>
      <trkpt lat="38.7205210" lon="-0.6291090">
        <ele>808.8</ele>
        <time>2019-05-12T11:51:46Z</time>
      </trkpt>
      <trkpt lat="38.7204950" lon="-0.6291540">
        <ele>809.0</ele>
        <time>2019-05-12T11:51:48Z</time>
      </trkpt>
      <trkpt lat="38.7204710" lon="-0.6292360">
        <ele>810.0</ele>
        <time>2019-05-12T11:51:51Z</time>
      </trkpt>
      <trkpt lat="38.7204670" lon="-0.6293000">
        <ele>810.8</ele>
        <time>2019-05-12T11:51:54Z</time>
      </trkpt>
      <trkpt lat="38.7204580" lon="-0.6293190">
        <ele>810.8</ele>
        <time>2019-05-12T11:51:55Z</time>
      </trkpt>
      <trkpt lat="38.7204350" lon="-0.6294040">
        <ele>811.4</ele>
        <time>2019-05-12T11:51:59Z</time>
      </trkpt>
      <trkpt lat="38.7204290" lon="-0.6294290">
        <ele>811.6</ele>
        <time>2019-05-12T11:52:00Z</time>
      </trkpt>
      <trkpt lat="38.7204400" lon="-0.6294810">
        <ele>811.8</ele>
        <time>2019-05-12T11:52:02Z</time>
      </trkpt>
      <trkpt lat="38.7204520" lon="-0.6295270">
        <ele>812.2</ele>
        <time>2019-05-12T11:52:04Z</time>
      </trkpt>
      <trkpt lat="38.7204510" lon="-0.6295510">
        <ele>812.6</ele>
        <time>2019-05-12T11:52:05Z</time>
      </trkpt>
      <trkpt lat="38.7204330" lon="-0.6296460">
        <ele>813.0</ele>
        <time>2019-05-12T11:52:10Z</time>
      </trkpt>
      <trkpt lat="38.7203750" lon="-0.6297250">
        <ele>813.4</ele>
        <time>2019-05-12T11:52:14Z</time>
      </trkpt>
      <trkpt lat="38.7203620" lon="-0.6297450">
        <ele>813.4</ele>
        <time>2019-05-12T11:52:15Z</time>
      </trkpt>
      <trkpt lat="38.7203490" lon="-0.6297730">
        <ele>813.6</ele>
        <time>2019-05-12T11:52:16Z</time>
      </trkpt>
      <trkpt lat="38.7203000" lon="-0.6298220">
        <ele>814.0</ele>
        <time>2019-05-12T11:52:18Z</time>
      </trkpt>
      <trkpt lat="38.7202570" lon="-0.6298720">
        <ele>814.0</ele>
        <time>2019-05-12T11:52:20Z</time>
      </trkpt>
      <trkpt lat="38.7201060" lon="-0.6300120">
        <ele>814.2</ele>
        <time>2019-05-12T11:52:26Z</time>
      </trkpt>
      <trkpt lat="38.7200660" lon="-0.6300930">
        <ele>815.2</ele>
        <time>2019-05-12T11:52:29Z</time>
      </trkpt>
      <trkpt lat="38.7200400" lon="-0.6301120">
        <ele>815.6</ele>
        <time>2019-05-12T11:52:30Z</time>
      </trkpt>
      <trkpt lat="38.7200090" lon="-0.6301260">
        <ele>816.4</ele>
        <time>2019-05-12T11:52:31Z</time>
      </trkpt>
      <trkpt lat="38.7199820" lon="-0.6301390">
        <ele>816.6</ele>
        <time>2019-05-12T11:52:32Z</time>
      </trkpt>
      <trkpt lat="38.7199160" lon="-0.6302040">
        <ele>817.0</ele>
        <time>2019-05-12T11:52:35Z</time>
      </trkpt>
      <trkpt lat="38.7198760" lon="-0.6302470">
        <ele>817.4</ele>
        <time>2019-05-12T11:52:38Z</time>
      </trkpt>
      <trkpt lat="38.7198510" lon="-0.6302710">
        <ele>818.0</ele>
        <time>2019-05-12T11:52:40Z</time>
      </trkpt>
      <trkpt lat="38.7198250" lon="-0.6303010">
        <ele>818.6</ele>
        <time>2019-05-12T11:52:42Z</time>
      </trkpt>
      <trkpt lat="38.7197940" lon="-0.6303450">
        <ele>819.6</ele>
        <time>2019-05-12T11:52:45Z</time>
      </trkpt>
      <trkpt lat="38.7197850" lon="-0.6303580">
        <ele>820.0</ele>
        <time>2019-05-12T11:52:46Z</time>
      </trkpt>
      <trkpt lat="38.7197680" lon="-0.6303660">
        <ele>820.2</ele>
        <time>2019-05-12T11:52:47Z</time>
      </trkpt>
      <trkpt lat="38.7197400" lon="-0.6303760">
        <ele>820.8</ele>
        <time>2019-05-12T11:52:49Z</time>
      </trkpt>
      <trkpt lat="38.7197100" lon="-0.6304170">
        <ele>821.2</ele>
        <time>2019-05-12T11:52:51Z</time>
      </trkpt>
      <trkpt lat="38.7197010" lon="-0.6304430">
        <ele>821.6</ele>
        <time>2019-05-12T11:52:52Z</time>
      </trkpt>
      <trkpt lat="38.7196900" lon="-0.6304950">
        <ele>822.4</ele>
        <time>2019-05-12T11:52:54Z</time>
      </trkpt>
      <trkpt lat="38.7196770" lon="-0.6305330">
        <ele>822.4</ele>
        <time>2019-05-12T11:52:56Z</time>
      </trkpt>
      <trkpt lat="38.7196610" lon="-0.6306040">
        <ele>822.8</ele>
        <time>2019-05-12T11:52:59Z</time>
      </trkpt>
      <trkpt lat="38.7196280" lon="-0.6306230">
        <ele>823.4</ele>
        <time>2019-05-12T11:53:02Z</time>
      </trkpt>
      <trkpt lat="38.7196180" lon="-0.6306220">
        <ele>823.6</ele>
        <time>2019-05-12T11:53:03Z</time>
      </trkpt>
      <trkpt lat="38.7195460" lon="-0.6306200">
        <ele>823.8</ele>
        <time>2019-05-12T11:53:08Z</time>
      </trkpt>
      <trkpt lat="38.7195300" lon="-0.6306330">
        <ele>823.8</ele>
        <time>2019-05-12T11:53:09Z</time>
      </trkpt>
      <trkpt lat="38.7194260" lon="-0.6307060">
        <ele>823.2</ele>
        <time>2019-05-12T11:53:12Z</time>
      </trkpt>
      <trkpt lat="38.7193800" lon="-0.6307250">
        <ele>822.2</ele>
        <time>2019-05-12T11:53:13Z</time>
      </trkpt>
      <trkpt lat="38.7193280" lon="-0.6307340">
        <ele>821.2</ele>
        <time>2019-05-12T11:53:14Z</time>
      </trkpt>
      <trkpt lat="38.7192700" lon="-0.6307370">
        <ele>821.0</ele>
        <time>2019-05-12T11:53:15Z</time>
      </trkpt>
      <trkpt lat="38.7191650" lon="-0.6307620">
        <ele>820.6</ele>
        <time>2019-05-12T11:53:17Z</time>
      </trkpt>
      <trkpt lat="38.7190460" lon="-0.6308060">
        <ele>819.8</ele>
        <time>2019-05-12T11:53:19Z</time>
      </trkpt>
      <trkpt lat="38.7189860" lon="-0.6308120">
        <ele>819.2</ele>
        <time>2019-05-12T11:53:20Z</time>
      </trkpt>
      <trkpt lat="38.7189330" lon="-0.6308210">
        <ele>818.6</ele>
        <time>2019-05-12T11:53:21Z</time>
      </trkpt>
      <trkpt lat="38.7188210" lon="-0.6308360">
        <ele>817.4</ele>
        <time>2019-05-12T11:53:23Z</time>
      </trkpt>
      <trkpt lat="38.7187530" lon="-0.6308690">
        <ele>818.0</ele>
        <time>2019-05-12T11:53:25Z</time>
      </trkpt>
      <trkpt lat="38.7187190" lon="-0.6309010">
        <ele>818.0</ele>
        <time>2019-05-12T11:53:26Z</time>
      </trkpt>
      <trkpt lat="38.7186830" lon="-0.6309160">
        <ele>817.4</ele>
        <time>2019-05-12T11:53:27Z</time>
      </trkpt>
      <trkpt lat="38.7186050" lon="-0.6309360">
        <ele>816.2</ele>
        <time>2019-05-12T11:53:29Z</time>
      </trkpt>
      <trkpt lat="38.7185670" lon="-0.6309380">
        <ele>815.8</ele>
        <time>2019-05-12T11:53:30Z</time>
      </trkpt>
      <trkpt lat="38.7185210" lon="-0.6309360">
        <ele>815.4</ele>
        <time>2019-05-12T11:53:31Z</time>
      </trkpt>
      <trkpt lat="38.7184730" lon="-0.6309170">
        <ele>814.8</ele>
        <time>2019-05-12T11:53:32Z</time>
      </trkpt>
      <trkpt lat="38.7184270" lon="-0.6308890">
        <ele>814.4</ele>
        <time>2019-05-12T11:53:33Z</time>
      </trkpt>
      <trkpt lat="38.7183110" lon="-0.6308190">
        <ele>813.4</ele>
        <time>2019-05-12T11:53:35Z</time>
      </trkpt>
      <trkpt lat="38.7182550" lon="-0.6307740">
        <ele>812.8</ele>
        <time>2019-05-12T11:53:36Z</time>
      </trkpt>
      <trkpt lat="38.7181620" lon="-0.6306980">
        <ele>812.6</ele>
        <time>2019-05-12T11:53:38Z</time>
      </trkpt>
      <trkpt lat="38.7180720" lon="-0.6306190">
        <ele>812.2</ele>
        <time>2019-05-12T11:53:40Z</time>
      </trkpt>
      <trkpt lat="38.7180130" lon="-0.6305950">
        <ele>811.8</ele>
        <time>2019-05-12T11:53:41Z</time>
      </trkpt>
      <trkpt lat="38.7179010" lon="-0.6305840">
        <ele>810.8</ele>
        <time>2019-05-12T11:53:43Z</time>
      </trkpt>
      <trkpt lat="38.7177270" lon="-0.6305360">
        <ele>809.2</ele>
        <time>2019-05-12T11:53:46Z</time>
      </trkpt>
      <trkpt lat="38.7176760" lon="-0.6304970">
        <ele>808.8</ele>
        <time>2019-05-12T11:53:47Z</time>
      </trkpt>
      <trkpt lat="38.7176270" lon="-0.6304540">
        <ele>808.4</ele>
        <time>2019-05-12T11:53:48Z</time>
      </trkpt>
      <trkpt lat="38.7175780" lon="-0.6304130">
        <ele>808.0</ele>
        <time>2019-05-12T11:53:49Z</time>
      </trkpt>
      <trkpt lat="38.7174730" lon="-0.6303300">
        <ele>807.0</ele>
        <time>2019-05-12T11:53:51Z</time>
      </trkpt>
      <trkpt lat="38.7174270" lon="-0.6302920">
        <ele>806.8</ele>
        <time>2019-05-12T11:53:52Z</time>
      </trkpt>
      <trkpt lat="38.7173900" lon="-0.6302560">
        <ele>806.4</ele>
        <time>2019-05-12T11:53:53Z</time>
      </trkpt>
      <trkpt lat="38.7173240" lon="-0.6301740">
        <ele>805.8</ele>
        <time>2019-05-12T11:53:55Z</time>
      </trkpt>
      <trkpt lat="38.7172270" lon="-0.6300500">
        <ele>805.2</ele>
        <time>2019-05-12T11:53:58Z</time>
      </trkpt>
      <trkpt lat="38.7171130" lon="-0.6299270">
        <ele>805.0</ele>
        <time>2019-05-12T11:54:02Z</time>
      </trkpt>
      <trkpt lat="38.7170490" lon="-0.6298770">
        <ele>804.6</ele>
        <time>2019-05-12T11:54:04Z</time>
      </trkpt>
      <trkpt lat="38.7169750" lon="-0.6298000">
        <ele>803.6</ele>
        <time>2019-05-12T11:54:07Z</time>
      </trkpt>
      <trkpt lat="38.7169480" lon="-0.6297680">
        <ele>803.4</ele>
        <time>2019-05-12T11:54:08Z</time>
      </trkpt>
      <trkpt lat="38.7168600" lon="-0.6296240">
        <ele>802.6</ele>
        <time>2019-05-12T11:54:12Z</time>
      </trkpt>
      <trkpt lat="38.7167330" lon="-0.6293440">
        <ele>802.4</ele>
        <time>2019-05-12T11:54:18Z</time>
      </trkpt>
      <trkpt lat="38.7167070" lon="-0.6292930">
        <ele>802.2</ele>
        <time>2019-05-12T11:54:19Z</time>
      </trkpt>
      <trkpt lat="38.7166720" lon="-0.6292490">
        <ele>801.8</ele>
        <time>2019-05-12T11:54:20Z</time>
      </trkpt>
      <trkpt lat="38.7166190" lon="-0.6291710">
        <ele>801.0</ele>
        <time>2019-05-12T11:54:22Z</time>
      </trkpt>
      <trkpt lat="38.7165220" lon="-0.6289600">
        <ele>801.4</ele>
        <time>2019-05-12T11:54:27Z</time>
      </trkpt>
      <trkpt lat="38.7165020" lon="-0.6289080">
        <ele>801.2</ele>
        <time>2019-05-12T11:54:28Z</time>
      </trkpt>
      <trkpt lat="38.7164040" lon="-0.6286930">
        <ele>799.8</ele>
        <time>2019-05-12T11:54:32Z</time>
      </trkpt>
      <trkpt lat="38.7163770" lon="-0.6286400">
        <ele>799.0</ele>
        <time>2019-05-12T11:54:33Z</time>
      </trkpt>
      <trkpt lat="38.7163500" lon="-0.6285900">
        <ele>797.6</ele>
        <time>2019-05-12T11:54:34Z</time>
      </trkpt>
      <trkpt lat="38.7163160" lon="-0.6285410">
        <ele>797.0</ele>
        <time>2019-05-12T11:54:35Z</time>
      </trkpt>
      <trkpt lat="38.7162730" lon="-0.6285090">
        <ele>796.6</ele>
        <time>2019-05-12T11:54:36Z</time>
      </trkpt>
      <trkpt lat="38.7162260" lon="-0.6285000">
        <ele>796.0</ele>
        <time>2019-05-12T11:54:37Z</time>
      </trkpt>
      <trkpt lat="38.7161710" lon="-0.6285100">
        <ele>795.4</ele>
        <time>2019-05-12T11:54:38Z</time>
      </trkpt>
      <trkpt lat="38.7161160" lon="-0.6285270">
        <ele>794.8</ele>
        <time>2019-05-12T11:54:39Z</time>
      </trkpt>
      <trkpt lat="38.7160640" lon="-0.6285460">
        <ele>794.0</ele>
        <time>2019-05-12T11:54:40Z</time>
      </trkpt>
      <trkpt lat="38.7160240" lon="-0.6285690">
        <ele>793.6</ele>
        <time>2019-05-12T11:54:41Z</time>
      </trkpt>
      <trkpt lat="38.7159560" lon="-0.6286350">
        <ele>793.2</ele>
        <time>2019-05-12T11:54:44Z</time>
      </trkpt>
      <trkpt lat="38.7159350" lon="-0.6286610">
        <ele>792.8</ele>
        <time>2019-05-12T11:54:45Z</time>
      </trkpt>
      <trkpt lat="38.7158880" lon="-0.6287680">
        <ele>791.6</ele>
        <time>2019-05-12T11:54:48Z</time>
      </trkpt>
      <trkpt lat="38.7157960" lon="-0.6288340">
        <ele>790.4</ele>
        <time>2019-05-12T11:54:51Z</time>
      </trkpt>
      <trkpt lat="38.7157250" lon="-0.6289390">
        <ele>789.0</ele>
        <time>2019-05-12T11:54:53Z</time>
      </trkpt>
      <trkpt lat="38.7156470" lon="-0.6290660">
        <ele>787.8</ele>
        <time>2019-05-12T11:54:55Z</time>
      </trkpt>
      <trkpt lat="38.7156080" lon="-0.6291360">
        <ele>787.0</ele>
        <time>2019-05-12T11:54:56Z</time>
      </trkpt>
      <trkpt lat="38.7155700" lon="-0.6292080">
        <ele>786.4</ele>
        <time>2019-05-12T11:54:57Z</time>
      </trkpt>
      <trkpt lat="38.7155230" lon="-0.6292780">
        <ele>785.6</ele>
        <time>2019-05-12T11:54:58Z</time>
      </trkpt>
      <trkpt lat="38.7154680" lon="-0.6293460">
        <ele>784.2</ele>
        <time>2019-05-12T11:54:59Z</time>
      </trkpt>
      <trkpt lat="38.7154250" lon="-0.6294110">
        <ele>783.8</ele>
        <time>2019-05-12T11:55:00Z</time>
      </trkpt>
      <trkpt lat="38.7153720" lon="-0.6295650">
        <ele>783.0</ele>
        <time>2019-05-12T11:55:02Z</time>
      </trkpt>
      <trkpt lat="38.7153230" lon="-0.6297260">
        <ele>783.0</ele>
        <time>2019-05-12T11:55:04Z</time>
      </trkpt>
      <trkpt lat="38.7152400" lon="-0.6299700">
        <ele>782.4</ele>
        <time>2019-05-12T11:55:07Z</time>
      </trkpt>
      <trkpt lat="38.7151530" lon="-0.6302650">
        <ele>782.6</ele>
        <time>2019-05-12T11:55:11Z</time>
      </trkpt>
      <trkpt lat="38.7150910" lon="-0.6303890">
        <ele>781.6</ele>
        <time>2019-05-12T11:55:13Z</time>
      </trkpt>
      <trkpt lat="38.7150010" lon="-0.6306040">
        <ele>780.8</ele>
        <time>2019-05-12T11:55:16Z</time>
      </trkpt>
      <trkpt lat="38.7149010" lon="-0.6308880">
        <ele>780.6</ele>
        <time>2019-05-12T11:55:20Z</time>
      </trkpt>
      <trkpt lat="38.7148500" lon="-0.6310170">
        <ele>780.6</ele>
        <time>2019-05-12T11:55:22Z</time>
      </trkpt>
      <trkpt lat="38.7146780" lon="-0.6314320">
        <ele>780.0</ele>
        <time>2019-05-12T11:55:29Z</time>
      </trkpt>
      <trkpt lat="38.7145280" lon="-0.6317830">
        <ele>780.6</ele>
        <time>2019-05-12T11:55:35Z</time>
      </trkpt>
      <trkpt lat="38.7143960" lon="-0.6321280">
        <ele>780.8</ele>
        <time>2019-05-12T11:55:41Z</time>
      </trkpt>
      <trkpt lat="38.7142350" lon="-0.6325460">
        <ele>780.8</ele>
        <time>2019-05-12T11:55:48Z</time>
      </trkpt>
      <trkpt lat="38.7142050" lon="-0.6326080">
        <ele>780.4</ele>
        <time>2019-05-12T11:55:49Z</time>
      </trkpt>
      <trkpt lat="38.7141410" lon="-0.6327110">
        <ele>779.8</ele>
        <time>2019-05-12T11:55:51Z</time>
      </trkpt>
      <trkpt lat="38.7140710" lon="-0.6328100">
        <ele>779.6</ele>
        <time>2019-05-12T11:55:53Z</time>
      </trkpt>
      <trkpt lat="38.7140380" lon="-0.6328660">
        <ele>779.0</ele>
        <time>2019-05-12T11:55:54Z</time>
      </trkpt>
      <trkpt lat="38.7139500" lon="-0.6330260">
        <ele>780.0</ele>
        <time>2019-05-12T11:55:57Z</time>
      </trkpt>
      <trkpt lat="38.7138860" lon="-0.6331330">
        <ele>780.6</ele>
        <time>2019-05-12T11:55:59Z</time>
      </trkpt>
      <trkpt lat="38.7137410" lon="-0.6334110">
        <ele>780.8</ele>
        <time>2019-05-12T11:56:04Z</time>
      </trkpt>
      <trkpt lat="38.7136700" lon="-0.6335820">
        <ele>780.4</ele>
        <time>2019-05-12T11:56:07Z</time>
      </trkpt>
      <trkpt lat="38.7136570" lon="-0.6336430">
        <ele>780.6</ele>
        <time>2019-05-12T11:56:08Z</time>
      </trkpt>
      <trkpt lat="38.7136440" lon="-0.6337630">
        <ele>781.2</ele>
        <time>2019-05-12T11:56:10Z</time>
      </trkpt>
      <trkpt lat="38.7135960" lon="-0.6339360">
        <ele>781.6</ele>
        <time>2019-05-12T11:56:13Z</time>
      </trkpt>
      <trkpt lat="38.7135260" lon="-0.6341580">
        <ele>781.2</ele>
        <time>2019-05-12T11:56:17Z</time>
      </trkpt>
      <trkpt lat="38.7135060" lon="-0.6342850">
        <ele>780.8</ele>
        <time>2019-05-12T11:56:19Z</time>
      </trkpt>
      <trkpt lat="38.7134660" lon="-0.6346010">
        <ele>780.6</ele>
        <time>2019-05-12T11:56:24Z</time>
      </trkpt>
      <trkpt lat="38.7134720" lon="-0.6347250">
        <ele>781.2</ele>
        <time>2019-05-12T11:56:26Z</time>
      </trkpt>
      <trkpt lat="38.7134930" lon="-0.6348500">
        <ele>781.2</ele>
        <time>2019-05-12T11:56:28Z</time>
      </trkpt>
      <trkpt lat="38.7135280" lon="-0.6350300">
        <ele>781.2</ele>
        <time>2019-05-12T11:56:31Z</time>
      </trkpt>
      <trkpt lat="38.7135480" lon="-0.6350880">
        <ele>781.2</ele>
        <time>2019-05-12T11:56:32Z</time>
      </trkpt>
      <trkpt lat="38.7135880" lon="-0.6351870">
        <ele>781.0</ele>
        <time>2019-05-12T11:56:34Z</time>
      </trkpt>
      <trkpt lat="38.7136570" lon="-0.6352980">
        <ele>781.8</ele>
        <time>2019-05-12T11:56:37Z</time>
      </trkpt>
      <trkpt lat="38.7136990" lon="-0.6353590">
        <ele>782.6</ele>
        <time>2019-05-12T11:56:39Z</time>
      </trkpt>
      <trkpt lat="38.7137670" lon="-0.6354880">
        <ele>783.6</ele>
        <time>2019-05-12T11:56:43Z</time>
      </trkpt>
      <trkpt lat="38.7138830" lon="-0.6355910">
        <ele>784.8</ele>
        <time>2019-05-12T11:56:48Z</time>
      </trkpt>
      <trkpt lat="38.7139560" lon="-0.6356250">
        <ele>786.0</ele>
        <time>2019-05-12T11:56:51Z</time>
      </trkpt>
      <trkpt lat="38.7140300" lon="-0.6356600">
        <ele>786.8</ele>
        <time>2019-05-12T11:56:54Z</time>
      </trkpt>
      <trkpt lat="38.7140790" lon="-0.6356860">
        <ele>787.0</ele>
        <time>2019-05-12T11:56:56Z</time>
      </trkpt>
      <trkpt lat="38.7141940" lon="-0.6357710">
        <ele>788.0</ele>
        <time>2019-05-12T11:57:01Z</time>
      </trkpt>
      <trkpt lat="38.7142160" lon="-0.6357890">
        <ele>788.2</ele>
        <time>2019-05-12T11:57:02Z</time>
      </trkpt>
      <trkpt lat="38.7143470" lon="-0.6358990">
        <ele>789.4</ele>
        <time>2019-05-12T11:57:08Z</time>
      </trkpt>
      <trkpt lat="38.7143670" lon="-0.6359180">
        <ele>789.8</ele>
        <time>2019-05-12T11:57:09Z</time>
      </trkpt>
      <trkpt lat="38.7144070" lon="-0.6359540">
        <ele>790.6</ele>
        <time>2019-05-12T11:57:11Z</time>
      </trkpt>
      <trkpt lat="38.7144870" lon="-0.6360350">
        <ele>791.8</ele>
        <time>2019-05-12T11:57:15Z</time>
      </trkpt>
      <trkpt lat="38.7145080" lon="-0.6360520">
        <ele>792.0</ele>
        <time>2019-05-12T11:57:16Z</time>
      </trkpt>
      <trkpt lat="38.7146080" lon="-0.6361420">
        <ele>793.2</ele>
        <time>2019-05-12T11:57:21Z</time>
      </trkpt>
      <trkpt lat="38.7146260" lon="-0.6361610">
        <ele>793.6</ele>
        <time>2019-05-12T11:57:22Z</time>
      </trkpt>
      <trkpt lat="38.7146890" lon="-0.6362560">
        <ele>794.4</ele>
        <time>2019-05-12T11:57:26Z</time>
      </trkpt>
      <trkpt lat="38.7147440" lon="-0.6363540">
        <ele>795.6</ele>
        <time>2019-05-12T11:57:30Z</time>
      </trkpt>
      <trkpt lat="38.7147900" lon="-0.6364290">
        <ele>797.0</ele>
        <time>2019-05-12T11:57:33Z</time>
      </trkpt>
      <trkpt lat="38.7148460" lon="-0.6365030">
        <ele>797.2</ele>
        <time>2019-05-12T11:57:36Z</time>
      </trkpt>
      <trkpt lat="38.7149740" lon="-0.6366900">
        <ele>797.8</ele>
        <time>2019-05-12T11:57:43Z</time>
      </trkpt>
      <trkpt lat="38.7149910" lon="-0.6367190">
        <ele>798.0</ele>
        <time>2019-05-12T11:57:44Z</time>
      </trkpt>
      <trkpt lat="38.7150370" lon="-0.6368920">
        <ele>798.6</ele>
        <time>2019-05-12T11:57:49Z</time>
      </trkpt>
      <trkpt lat="38.7150500" lon="-0.6369620">
        <ele>799.2</ele>
        <time>2019-05-12T11:57:51Z</time>
      </trkpt>
      <trkpt lat="38.7150880" lon="-0.6371530">
        <ele>799.8</ele>
        <time>2019-05-12T11:57:56Z</time>
      </trkpt>
      <trkpt lat="38.7151350" lon="-0.6372960">
        <ele>800.2</ele>
        <time>2019-05-12T11:58:00Z</time>
      </trkpt>
      <trkpt lat="38.7151610" lon="-0.6373630">
        <ele>800.4</ele>
        <time>2019-05-12T11:58:02Z</time>
      </trkpt>
      <trkpt lat="38.7152140" lon="-0.6374850">
        <ele>801.4</ele>
        <time>2019-05-12T11:58:06Z</time>
      </trkpt>
      <trkpt lat="38.7152340" lon="-0.6375470">
        <ele>801.8</ele>
        <time>2019-05-12T11:58:08Z</time>
      </trkpt>
      <trkpt lat="38.7152760" lon="-0.6376760">
        <ele>802.6</ele>
        <time>2019-05-12T11:58:12Z</time>
      </trkpt>
      <trkpt lat="38.7153540" lon="-0.6378580">
        <ele>803.8</ele>
        <time>2019-05-12T11:58:18Z</time>
      </trkpt>
      <trkpt lat="38.7153970" lon="-0.6379370">
        <ele>805.0</ele>
        <time>2019-05-12T11:58:21Z</time>
      </trkpt>
      <trkpt lat="38.7154350" lon="-0.6380100">
        <ele>805.8</ele>
        <time>2019-05-12T11:58:24Z</time>
      </trkpt>
      <trkpt lat="38.7154440" lon="-0.6380310">
        <ele>806.2</ele>
        <time>2019-05-12T11:58:25Z</time>
      </trkpt>
      <trkpt lat="38.7155010" lon="-0.6381460">
        <ele>807.4</ele>
        <time>2019-05-12T11:58:30Z</time>
      </trkpt>
      <trkpt lat="38.7155130" lon="-0.6381700">
        <ele>807.6</ele>
        <time>2019-05-12T11:58:31Z</time>
      </trkpt>
      <trkpt lat="38.7155580" lon="-0.6382680">
        <ele>808.6</ele>
        <time>2019-05-12T11:58:35Z</time>
      </trkpt>
      <trkpt lat="38.7155960" lon="-0.6383640">
        <ele>809.6</ele>
        <time>2019-05-12T11:58:39Z</time>
      </trkpt>
      <trkpt lat="38.7156220" lon="-0.6384910">
        <ele>810.6</ele>
        <time>2019-05-12T11:58:44Z</time>
      </trkpt>
      <trkpt lat="38.7156320" lon="-0.6385650">
        <ele>811.8</ele>
        <time>2019-05-12T11:58:47Z</time>
      </trkpt>
      <trkpt lat="38.7156330" lon="-0.6386120">
        <ele>812.2</ele>
        <time>2019-05-12T11:58:49Z</time>
      </trkpt>
      <trkpt lat="38.7156320" lon="-0.6386360">
        <ele>812.8</ele>
        <time>2019-05-12T11:58:50Z</time>
      </trkpt>
      <trkpt lat="38.7156340" lon="-0.6386610">
        <ele>813.2</ele>
        <time>2019-05-12T11:58:51Z</time>
      </trkpt>
      <trkpt lat="38.7156490" lon="-0.6387330">
        <ele>813.6</ele>
        <time>2019-05-12T11:58:54Z</time>
      </trkpt>
      <trkpt lat="38.7156530" lon="-0.6387800">
        <ele>814.4</ele>
        <time>2019-05-12T11:58:56Z</time>
      </trkpt>
      <trkpt lat="38.7156580" lon="-0.6388420">
        <ele>815.6</ele>
        <time>2019-05-12T11:58:59Z</time>
      </trkpt>
      <trkpt lat="38.7156670" lon="-0.6389060">
        <ele>816.0</ele>
        <time>2019-05-12T11:59:02Z</time>
      </trkpt>
      <trkpt lat="38.7156730" lon="-0.6389620">
        <ele>816.8</ele>
        <time>2019-05-12T11:59:04Z</time>
      </trkpt>
      <trkpt lat="38.7156870" lon="-0.6390410">
        <ele>817.6</ele>
        <time>2019-05-12T11:59:07Z</time>
      </trkpt>
      <trkpt lat="38.7157090" lon="-0.6391400">
        <ele>818.0</ele>
        <time>2019-05-12T11:59:11Z</time>
      </trkpt>
      <trkpt lat="38.7157290" lon="-0.6391890">
        <ele>818.4</ele>
        <time>2019-05-12T11:59:13Z</time>
      </trkpt>
      <trkpt lat="38.7157670" lon="-0.6392620">
        <ele>819.4</ele>
        <time>2019-05-12T11:59:16Z</time>
      </trkpt>
      <trkpt lat="38.7158040" lon="-0.6393270">
        <ele>820.0</ele>
        <time>2019-05-12T11:59:19Z</time>
      </trkpt>
      <trkpt lat="38.7158220" lon="-0.6393650">
        <ele>820.6</ele>
        <time>2019-05-12T11:59:21Z</time>
      </trkpt>
      <trkpt lat="38.7158610" lon="-0.6394500">
        <ele>821.8</ele>
        <time>2019-05-12T11:59:25Z</time>
      </trkpt>
      <trkpt lat="38.7158890" lon="-0.6395130">
        <ele>823.0</ele>
        <time>2019-05-12T11:59:28Z</time>
      </trkpt>
      <trkpt lat="38.7159230" lon="-0.6396030">
        <ele>824.0</ele>
        <time>2019-05-12T11:59:32Z</time>
      </trkpt>
      <trkpt lat="38.7159280" lon="-0.6396260">
        <ele>824.2</ele>
        <time>2019-05-12T11:59:33Z</time>
      </trkpt>
      <trkpt lat="38.7159450" lon="-0.6396670">
        <ele>825.2</ele>
        <time>2019-05-12T11:59:35Z</time>
      </trkpt>
      <trkpt lat="38.7159730" lon="-0.6397380">
        <ele>826.4</ele>
        <time>2019-05-12T11:59:39Z</time>
      </trkpt>
      <trkpt lat="38.7159870" lon="-0.6397760">
        <ele>827.0</ele>
        <time>2019-05-12T11:59:41Z</time>
      </trkpt>
      <trkpt lat="38.7159970" lon="-0.6398210">
        <ele>827.4</ele>
        <time>2019-05-12T11:59:43Z</time>
      </trkpt>
      <trkpt lat="38.7160070" lon="-0.6398650">
        <ele>828.2</ele>
        <time>2019-05-12T11:59:45Z</time>
      </trkpt>
      <trkpt lat="38.7160270" lon="-0.6399020">
        <ele>828.6</ele>
        <time>2019-05-12T11:59:47Z</time>
      </trkpt>
      <trkpt lat="38.7160430" lon="-0.6399800">
        <ele>829.4</ele>
        <time>2019-05-12T11:59:51Z</time>
      </trkpt>
      <trkpt lat="38.7160470" lon="-0.6399990">
        <ele>829.8</ele>
        <time>2019-05-12T11:59:52Z</time>
      </trkpt>
      <trkpt lat="38.7160640" lon="-0.6400530">
        <ele>831.0</ele>
        <time>2019-05-12T11:59:55Z</time>
      </trkpt>
      <trkpt lat="38.7160950" lon="-0.6401280">
        <ele>831.8</ele>
        <time>2019-05-12T11:59:59Z</time>
      </trkpt>
      <trkpt lat="38.7161050" lon="-0.6401480">
        <ele>832.0</ele>
        <time>2019-05-12T12:00:00Z</time>
      </trkpt>
      <trkpt lat="38.7161580" lon="-0.6402820">
        <ele>833.4</ele>
        <time>2019-05-12T12:00:06Z</time>
      </trkpt>
      <trkpt lat="38.7161920" lon="-0.6404180">
        <ele>834.4</ele>
        <time>2019-05-12T12:00:12Z</time>
      </trkpt>
      <trkpt lat="38.7161990" lon="-0.6404410">
        <ele>834.6</ele>
        <time>2019-05-12T12:00:13Z</time>
      </trkpt>
      <trkpt lat="38.7162100" lon="-0.6404840">
        <ele>835.0</ele>
        <time>2019-05-12T12:00:15Z</time>
      </trkpt>
      <trkpt lat="38.7162160" lon="-0.6405280">
        <ele>835.6</ele>
        <time>2019-05-12T12:00:17Z</time>
      </trkpt>
      <trkpt lat="38.7162220" lon="-0.6405730">
        <ele>836.0</ele>
        <time>2019-05-12T12:00:19Z</time>
      </trkpt>
      <trkpt lat="38.7162370" lon="-0.6406410">
        <ele>836.2</ele>
        <time>2019-05-12T12:00:22Z</time>
      </trkpt>
      <trkpt lat="38.7162470" lon="-0.6406890">
        <ele>837.0</ele>
        <time>2019-05-12T12:00:24Z</time>
      </trkpt>
      <trkpt lat="38.7162570" lon="-0.6407330">
        <ele>837.0</ele>
        <time>2019-05-12T12:00:26Z</time>
      </trkpt>
      <trkpt lat="38.7162890" lon="-0.6408840">
        <ele>838.0</ele>
        <time>2019-05-12T12:00:33Z</time>
      </trkpt>
      <trkpt lat="38.7163170" lon="-0.6409890">
        <ele>839.0</ele>
        <time>2019-05-12T12:00:38Z</time>
      </trkpt>
      <trkpt lat="38.7163190" lon="-0.6410370">
        <ele>839.8</ele>
        <time>2019-05-12T12:00:40Z</time>
      </trkpt>
      <trkpt lat="38.7163200" lon="-0.6410590">
        <ele>840.0</ele>
        <time>2019-05-12T12:00:41Z</time>
      </trkpt>
      <trkpt lat="38.7163090" lon="-0.6411450">
        <ele>841.0</ele>
        <time>2019-05-12T12:00:45Z</time>
      </trkpt>
      <trkpt lat="38.7163050" lon="-0.6411670">
        <ele>841.6</ele>
        <time>2019-05-12T12:00:46Z</time>
      </trkpt>
      <trkpt lat="38.7163010" lon="-0.6412080">
        <ele>842.2</ele>
        <time>2019-05-12T12:00:48Z</time>
      </trkpt>
      <trkpt lat="38.7162880" lon="-0.6412870">
        <ele>842.8</ele>
        <time>2019-05-12T12:00:52Z</time>
      </trkpt>
      <trkpt lat="38.7162560" lon="-0.6413950">
        <ele>843.4</ele>
        <time>2019-05-12T12:00:57Z</time>
      </trkpt>
      <trkpt lat="38.7162280" lon="-0.6414720">
        <ele>844.4</ele>
        <time>2019-05-12T12:01:01Z</time>
      </trkpt>
      <trkpt lat="38.7162150" lon="-0.6415170">
        <ele>844.4</ele>
        <time>2019-05-12T12:01:03Z</time>
      </trkpt>
      <trkpt lat="38.7161980" lon="-0.6416620">
        <ele>845.2</ele>
        <time>2019-05-12T12:01:08Z</time>
      </trkpt>
      <trkpt lat="38.7161970" lon="-0.6417160">
        <ele>845.8</ele>
        <time>2019-05-12T12:01:10Z</time>
      </trkpt>
      <trkpt lat="38.7162120" lon="-0.6418230">
        <ele>846.8</ele>
        <time>2019-05-12T12:01:14Z</time>
      </trkpt>
      <trkpt lat="38.7162520" lon="-0.6419510">
        <ele>847.8</ele>
        <time>2019-05-12T12:01:19Z</time>
      </trkpt>
      <trkpt lat="38.7162670" lon="-0.6419970">
        <ele>848.0</ele>
        <time>2019-05-12T12:01:21Z</time>
      </trkpt>
      <trkpt lat="38.7162980" lon="-0.6420970">
        <ele>849.0</ele>
        <time>2019-05-12T12:01:25Z</time>
      </trkpt>
      <trkpt lat="38.7163250" lon="-0.6421770">
        <ele>849.6</ele>
        <time>2019-05-12T12:01:28Z</time>
      </trkpt>
      <trkpt lat="38.7163280" lon="-0.6423390">
        <ele>849.8</ele>
        <time>2019-05-12T12:01:33Z</time>
      </trkpt>
      <trkpt lat="38.7163190" lon="-0.6424040">
        <ele>850.2</ele>
        <time>2019-05-12T12:01:35Z</time>
      </trkpt>
      <trkpt lat="38.7162830" lon="-0.6425230">
        <ele>851.2</ele>
        <time>2019-05-12T12:01:39Z</time>
      </trkpt>
      <trkpt lat="38.7162620" lon="-0.6425810">
        <ele>851.8</ele>
        <time>2019-05-12T12:01:41Z</time>
      </trkpt>
      <trkpt lat="38.7162440" lon="-0.6426410">
        <ele>852.4</ele>
        <time>2019-05-12T12:01:43Z</time>
      </trkpt>
      <trkpt lat="38.7161910" lon="-0.6427850">
        <ele>853.6</ele>
        <time>2019-05-12T12:01:48Z</time>
      </trkpt>
      <trkpt lat="38.7161500" lon="-0.6428690">
        <ele>854.0</ele>
        <time>2019-05-12T12:01:51Z</time>
      </trkpt>
      <trkpt lat="38.7161190" lon="-0.6430550">
        <ele>853.8</ele>
        <time>2019-05-12T12:01:57Z</time>
      </trkpt>
      <trkpt lat="38.7161260" lon="-0.6431590">
        <ele>854.8</ele>
        <time>2019-05-12T12:02:00Z</time>
      </trkpt>
      <trkpt lat="38.7161320" lon="-0.6433170">
        <ele>855.4</ele>
        <time>2019-05-12T12:02:05Z</time>
      </trkpt>
      <trkpt lat="38.7161220" lon="-0.6435950">
        <ele>855.8</ele>
        <time>2019-05-12T12:02:12Z</time>
      </trkpt>
      <trkpt lat="38.7161110" lon="-0.6438550">
        <ele>856.2</ele>
        <time>2019-05-12T12:02:18Z</time>
      </trkpt>
      <trkpt lat="38.7161020" lon="-0.6441210">
        <ele>856.2</ele>
        <time>2019-05-12T12:02:24Z</time>
      </trkpt>
      <trkpt lat="38.7160980" lon="-0.6444020">
        <ele>857.0</ele>
        <time>2019-05-12T12:02:30Z</time>
      </trkpt>
      <trkpt lat="38.7160960" lon="-0.6444500">
        <ele>856.8</ele>
        <time>2019-05-12T12:02:31Z</time>
      </trkpt>
      <trkpt lat="38.7160860" lon="-0.6448020">
        <ele>857.4</ele>
        <time>2019-05-12T12:02:38Z</time>
      </trkpt>
      <trkpt lat="38.7160740" lon="-0.6450920">
        <ele>857.4</ele>
        <time>2019-05-12T12:02:44Z</time>
      </trkpt>
      <trkpt lat="38.7160690" lon="-0.6453830">
        <ele>858.0</ele>
        <time>2019-05-12T12:02:50Z</time>
      </trkpt>
      <trkpt lat="38.7160720" lon="-0.6457340">
        <ele>857.8</ele>
        <time>2019-05-12T12:02:57Z</time>
      </trkpt>
      <trkpt lat="38.7160510" lon="-0.6459710">
        <ele>857.8</ele>
        <time>2019-05-12T12:03:02Z</time>
      </trkpt>
      <trkpt lat="38.7160450" lon="-0.6462550">
        <ele>858.0</ele>
        <time>2019-05-12T12:03:07Z</time>
      </trkpt>
      <trkpt lat="38.7160420" lon="-0.6463100">
        <ele>857.6</ele>
        <time>2019-05-12T12:03:08Z</time>
      </trkpt>
      <trkpt lat="38.7159920" lon="-0.6466830">
        <ele>857.4</ele>
        <time>2019-05-12T12:03:15Z</time>
      </trkpt>
      <trkpt lat="38.7159530" lon="-0.6470590">
        <ele>859.2</ele>
        <time>2019-05-12T12:03:23Z</time>
      </trkpt>
      <trkpt lat="38.7159350" lon="-0.6471760">
        <ele>860.2</ele>
        <time>2019-05-12T12:03:28Z</time>
      </trkpt>
      <trkpt lat="38.7159230" lon="-0.6471840">
        <ele>860.4</ele>
        <time>2019-05-12T12:03:29Z</time>
      </trkpt>
      <trkpt lat="38.7158920" lon="-0.6471590">
        <ele>860.6</ele>
        <time>2019-05-12T12:03:31Z</time>
      </trkpt>
      <trkpt lat="38.7158540" lon="-0.6471150">
        <ele>860.8</ele>
        <time>2019-05-12T12:03:35Z</time>
      </trkpt>
      <trkpt lat="38.7158090" lon="-0.6471350">
        <ele>861.2</ele>
        <time>2019-05-12T12:03:39Z</time>
      </trkpt>
      <trkpt lat="38.7157980" lon="-0.6471360">
        <ele>861.2</ele>
        <time>2019-05-12T12:03:40Z</time>
      </trkpt>
      <trkpt lat="38.7157920" lon="-0.6471310">
        <ele>861.2</ele>
        <time>2019-05-12T12:03:41Z</time>
      </trkpt>
      <trkpt lat="38.7157930" lon="-0.6471350">
        <ele>865.6</ele>
        <time>2019-05-12T12:53:04Z</time>
      </trkpt>
      <trkpt lat="38.7158340" lon="-0.6471170">
        <ele>865.4</ele>
        <time>2019-05-12T12:53:08Z</time>
      </trkpt>
      <trkpt lat="38.7158430" lon="-0.6471160">
        <ele>865.2</ele>
        <time>2019-05-12T12:53:09Z</time>
      </trkpt>
      <trkpt lat="38.7158760" lon="-0.6471320">
        <ele>865.0</ele>
        <time>2019-05-12T12:53:12Z</time>
      </trkpt>
      <trkpt lat="38.7158820" lon="-0.6471490">
        <ele>865.0</ele>
        <time>2019-05-12T12:53:13Z</time>
      </trkpt>
      <trkpt lat="38.7159160" lon="-0.6472440">
        <ele>864.8</ele>
        <time>2019-05-12T12:53:18Z</time>
      </trkpt>
      <trkpt lat="38.7159090" lon="-0.6472600">
        <ele>864.4</ele>
        <time>2019-05-12T12:53:19Z</time>
      </trkpt>
      <trkpt lat="38.7159110" lon="-0.6473130">
        <ele>863.8</ele>
        <time>2019-05-12T12:53:22Z</time>
      </trkpt>
      <trkpt lat="38.7159140" lon="-0.6473340">
        <ele>863.8</ele>
        <time>2019-05-12T12:53:23Z</time>
      </trkpt>
      <trkpt lat="38.7159060" lon="-0.6473950">
        <ele>864.8</ele>
        <time>2019-05-12T12:53:26Z</time>
      </trkpt>
      <trkpt lat="38.7159050" lon="-0.6474360">
        <ele>864.8</ele>
        <time>2019-05-12T12:53:28Z</time>
      </trkpt>
      <trkpt lat="38.7158850" lon="-0.6476370">
        <ele>863.6</ele>
        <time>2019-05-12T12:53:34Z</time>
      </trkpt>
      <trkpt lat="38.7153030" lon="-0.6478070">
        <ele>862.8</ele>
        <time>2019-05-12T12:54:15Z</time>
      </trkpt>
      <trkpt lat="38.7152820" lon="-0.6477960">
        <ele>864.2</ele>
        <time>2019-05-12T12:54:16Z</time>
      </trkpt>
      <trkpt lat="38.7152610" lon="-0.6477870">
        <ele>866.2</ele>
        <time>2019-05-12T12:54:17Z</time>
      </trkpt>
      <trkpt lat="38.7152100" lon="-0.6477670">
        <ele>864.6</ele>
        <time>2019-05-12T12:54:19Z</time>
      </trkpt>
      <trkpt lat="38.7151450" lon="-0.6477310">
        <ele>863.8</ele>
        <time>2019-05-12T12:54:21Z</time>
      </trkpt>
      <trkpt lat="38.7150680" lon="-0.6476940">
        <ele>863.8</ele>
        <time>2019-05-12T12:54:23Z</time>
      </trkpt>
      <trkpt lat="38.7149800" lon="-0.6477010">
        <ele>863.6</ele>
        <time>2019-05-12T12:54:25Z</time>
      </trkpt>
      <trkpt lat="38.7148050" lon="-0.6477760">
        <ele>864.0</ele>
        <time>2019-05-12T12:54:30Z</time>
      </trkpt>
      <trkpt lat="38.7146810" lon="-0.6478750">
        <ele>864.0</ele>
        <time>2019-05-12T12:54:35Z</time>
      </trkpt>
      <trkpt lat="38.7145630" lon="-0.6479480">
        <ele>863.6</ele>
        <time>2019-05-12T12:54:40Z</time>
      </trkpt>
      <trkpt lat="38.7144630" lon="-0.6480280">
        <ele>864.0</ele>
        <time>2019-05-12T12:54:46Z</time>
      </trkpt>
      <trkpt lat="38.7143160" lon="-0.6481500">
        <ele>864.2</ele>
        <time>2019-05-12T12:54:53Z</time>
      </trkpt>
      <trkpt lat="38.7141620" lon="-0.6482730">
        <ele>864.4</ele>
        <time>2019-05-12T12:54:59Z</time>
      </trkpt>
      <trkpt lat="38.7141360" lon="-0.6482920">
        <ele>864.6</ele>
        <time>2019-05-12T12:55:00Z</time>
      </trkpt>
      <trkpt lat="38.7139950" lon="-0.6483860">
        <ele>864.6</ele>
        <time>2019-05-12T12:55:05Z</time>
      </trkpt>
      <trkpt lat="38.7139110" lon="-0.6484460">
        <ele>864.8</ele>
        <time>2019-05-12T12:55:08Z</time>
      </trkpt>
      <trkpt lat="38.7136970" lon="-0.6485880">
        <ele>864.6</ele>
        <time>2019-05-12T12:55:15Z</time>
      </trkpt>
      <trkpt lat="38.7134730" lon="-0.6487490">
        <ele>864.0</ele>
        <time>2019-05-12T12:55:22Z</time>
      </trkpt>
      <trkpt lat="38.7132450" lon="-0.6489260">
        <ele>864.0</ele>
        <time>2019-05-12T12:55:29Z</time>
      </trkpt>
      <trkpt lat="38.7130190" lon="-0.6490830">
        <ele>863.6</ele>
        <time>2019-05-12T12:55:36Z</time>
      </trkpt>
      <trkpt lat="38.7129890" lon="-0.6491130">
        <ele>863.6</ele>
        <time>2019-05-12T12:55:37Z</time>
      </trkpt>
      <trkpt lat="38.7127980" lon="-0.6492660">
        <ele>863.6</ele>
        <time>2019-05-12T12:55:43Z</time>
      </trkpt>
      <trkpt lat="38.7125880" lon="-0.6494480">
        <ele>863.6</ele>
        <time>2019-05-12T12:55:50Z</time>
      </trkpt>
      <trkpt lat="38.7124090" lon="-0.6496090">
        <ele>863.8</ele>
        <time>2019-05-12T12:55:56Z</time>
      </trkpt>
      <trkpt lat="38.7122820" lon="-0.6497380">
        <ele>864.0</ele>
        <time>2019-05-12T12:56:01Z</time>
      </trkpt>
      <trkpt lat="38.7121520" lon="-0.6498840">
        <ele>864.0</ele>
        <time>2019-05-12T12:56:06Z</time>
      </trkpt>
      <trkpt lat="38.7119790" lon="-0.6500910">
        <ele>864.2</ele>
        <time>2019-05-12T12:56:13Z</time>
      </trkpt>
      <trkpt lat="38.7117760" lon="-0.6503190">
        <ele>864.8</ele>
        <time>2019-05-12T12:56:21Z</time>
      </trkpt>
      <trkpt lat="38.7114980" lon="-0.6506260">
        <ele>865.0</ele>
        <time>2019-05-12T12:56:31Z</time>
      </trkpt>
      <trkpt lat="38.7113940" lon="-0.6507450">
        <ele>865.8</ele>
        <time>2019-05-12T12:56:35Z</time>
      </trkpt>
      <trkpt lat="38.7113430" lon="-0.6507980">
        <ele>866.2</ele>
        <time>2019-05-12T12:56:37Z</time>
      </trkpt>
      <trkpt lat="38.7111790" lon="-0.6509900">
        <ele>865.4</ele>
        <time>2019-05-12T12:56:43Z</time>
      </trkpt>
      <trkpt lat="38.7109490" lon="-0.6512330">
        <ele>865.2</ele>
        <time>2019-05-12T12:56:51Z</time>
      </trkpt>
      <trkpt lat="38.7108280" lon="-0.6513770">
        <ele>864.8</ele>
        <time>2019-05-12T12:56:55Z</time>
      </trkpt>
      <trkpt lat="38.7107590" lon="-0.6514610">
        <ele>863.8</ele>
        <time>2019-05-12T12:56:57Z</time>
      </trkpt>
      <trkpt lat="38.7107270" lon="-0.6515090">
        <ele>863.4</ele>
        <time>2019-05-12T12:56:58Z</time>
      </trkpt>
      <trkpt lat="38.7106800" lon="-0.6516170">
        <ele>862.2</ele>
        <time>2019-05-12T12:57:00Z</time>
      </trkpt>
      <trkpt lat="38.7106570" lon="-0.6516970">
        <ele>861.2</ele>
        <time>2019-05-12T12:57:01Z</time>
      </trkpt>
      <trkpt lat="38.7106440" lon="-0.6517480">
        <ele>860.4</ele>
        <time>2019-05-12T12:57:02Z</time>
      </trkpt>
      <trkpt lat="38.7106230" lon="-0.6518130">
        <ele>860.0</ele>
        <time>2019-05-12T12:57:03Z</time>
      </trkpt>
      <trkpt lat="38.7105630" lon="-0.6520170">
        <ele>859.2</ele>
        <time>2019-05-12T12:57:06Z</time>
      </trkpt>
      <trkpt lat="38.7105390" lon="-0.6520840">
        <ele>858.8</ele>
        <time>2019-05-12T12:57:07Z</time>
      </trkpt>
      <trkpt lat="38.7104960" lon="-0.6522270">
        <ele>857.2</ele>
        <time>2019-05-12T12:57:09Z</time>
      </trkpt>
      <trkpt lat="38.7104740" lon="-0.6523060">
        <ele>856.0</ele>
        <time>2019-05-12T12:57:10Z</time>
      </trkpt>
      <trkpt lat="38.7104290" lon="-0.6524750">
        <ele>853.8</ele>
        <time>2019-05-12T12:57:12Z</time>
      </trkpt>
      <trkpt lat="38.7103920" lon="-0.6526370">
        <ele>851.8</ele>
        <time>2019-05-12T12:57:14Z</time>
      </trkpt>
      <trkpt lat="38.7103830" lon="-0.6528200">
        <ele>850.6</ele>
        <time>2019-05-12T12:57:16Z</time>
      </trkpt>
      <trkpt lat="38.7104450" lon="-0.6530140">
        <ele>849.2</ele>
        <time>2019-05-12T12:57:18Z</time>
      </trkpt>
      <trkpt lat="38.7104980" lon="-0.6531040">
        <ele>848.4</ele>
        <time>2019-05-12T12:57:19Z</time>
      </trkpt>
      <trkpt lat="38.7105500" lon="-0.6531870">
        <ele>847.8</ele>
        <time>2019-05-12T12:57:20Z</time>
      </trkpt>
      <trkpt lat="38.7106310" lon="-0.6533350">
        <ele>847.2</ele>
        <time>2019-05-12T12:57:22Z</time>
      </trkpt>
      <trkpt lat="38.7106470" lon="-0.6534080">
        <ele>847.2</ele>
        <time>2019-05-12T12:57:23Z</time>
      </trkpt>
      <trkpt lat="38.7105830" lon="-0.6536550">
        <ele>847.0</ele>
        <time>2019-05-12T12:57:26Z</time>
      </trkpt>
      <trkpt lat="38.7105340" lon="-0.6537390">
        <ele>845.0</ele>
        <time>2019-05-12T12:57:27Z</time>
      </trkpt>
      <trkpt lat="38.7104720" lon="-0.6538270">
        <ele>843.6</ele>
        <time>2019-05-12T12:57:28Z</time>
      </trkpt>
      <trkpt lat="38.7104090" lon="-0.6539180">
        <ele>842.0</ele>
        <time>2019-05-12T12:57:29Z</time>
      </trkpt>
      <trkpt lat="38.7103520" lon="-0.6540040">
        <ele>840.2</ele>
        <time>2019-05-12T12:57:30Z</time>
      </trkpt>
      <trkpt lat="38.7102930" lon="-0.6540870">
        <ele>838.6</ele>
        <time>2019-05-12T12:57:31Z</time>
      </trkpt>
      <trkpt lat="38.7102310" lon="-0.6541740">
        <ele>837.2</ele>
        <time>2019-05-12T12:57:32Z</time>
      </trkpt>
      <trkpt lat="38.7101710" lon="-0.6542640">
        <ele>835.8</ele>
        <time>2019-05-12T12:57:33Z</time>
      </trkpt>
      <trkpt lat="38.7101090" lon="-0.6543600">
        <ele>834.4</ele>
        <time>2019-05-12T12:57:34Z</time>
      </trkpt>
      <trkpt lat="38.7100450" lon="-0.6544580">
        <ele>833.0</ele>
        <time>2019-05-12T12:57:35Z</time>
      </trkpt>
      <trkpt lat="38.7099810" lon="-0.6545490">
        <ele>831.6</ele>
        <time>2019-05-12T12:57:36Z</time>
      </trkpt>
      <trkpt lat="38.7099230" lon="-0.6546310">
        <ele>830.2</ele>
        <time>2019-05-12T12:57:37Z</time>
      </trkpt>
      <trkpt lat="38.7098690" lon="-0.6547090">
        <ele>829.0</ele>
        <time>2019-05-12T12:57:38Z</time>
      </trkpt>
      <trkpt lat="38.7097680" lon="-0.6548420">
        <ele>827.6</ele>
        <time>2019-05-12T12:57:40Z</time>
      </trkpt>
      <trkpt lat="38.7097010" lon="-0.6548790">
        <ele>827.0</ele>
        <time>2019-05-12T12:57:41Z</time>
      </trkpt>
      <trkpt lat="38.7096270" lon="-0.6548830">
        <ele>826.2</ele>
        <time>2019-05-12T12:57:42Z</time>
      </trkpt>
      <trkpt lat="38.7095520" lon="-0.6548630">
        <ele>825.4</ele>
        <time>2019-05-12T12:57:43Z</time>
      </trkpt>
      <trkpt lat="38.7094780" lon="-0.6548510">
        <ele>824.4</ele>
        <time>2019-05-12T12:57:44Z</time>
      </trkpt>
      <trkpt lat="38.7094060" lon="-0.6548680">
        <ele>823.2</ele>
        <time>2019-05-12T12:57:45Z</time>
      </trkpt>
      <trkpt lat="38.7093420" lon="-0.6549230">
        <ele>822.2</ele>
        <time>2019-05-12T12:57:46Z</time>
      </trkpt>
      <trkpt lat="38.7092920" lon="-0.6550130">
        <ele>820.8</ele>
        <time>2019-05-12T12:57:47Z</time>
      </trkpt>
      <trkpt lat="38.7092470" lon="-0.6551230">
        <ele>819.4</ele>
        <time>2019-05-12T12:57:48Z</time>
      </trkpt>
      <trkpt lat="38.7091990" lon="-0.6552380">
        <ele>817.8</ele>
        <time>2019-05-12T12:57:49Z</time>
      </trkpt>
      <trkpt lat="38.7091490" lon="-0.6553530">
        <ele>815.6</ele>
        <time>2019-05-12T12:57:50Z</time>
      </trkpt>
      <trkpt lat="38.7090950" lon="-0.6554650">
        <ele>811.8</ele>
        <time>2019-05-12T12:57:51Z</time>
      </trkpt>
      <trkpt lat="38.7090420" lon="-0.6555770">
        <ele>810.4</ele>
        <time>2019-05-12T12:57:52Z</time>
      </trkpt>
      <trkpt lat="38.7089900" lon="-0.6556890">
        <ele>809.2</ele>
        <time>2019-05-12T12:57:53Z</time>
      </trkpt>
      <trkpt lat="38.7089410" lon="-0.6557930">
        <ele>808.0</ele>
        <time>2019-05-12T12:57:54Z</time>
      </trkpt>
      <trkpt lat="38.7089010" lon="-0.6558950">
        <ele>806.8</ele>
        <time>2019-05-12T12:57:55Z</time>
      </trkpt>
      <trkpt lat="38.7088790" lon="-0.6559980">
        <ele>805.4</ele>
        <time>2019-05-12T12:57:56Z</time>
      </trkpt>
      <trkpt lat="38.7088720" lon="-0.6561080">
        <ele>804.2</ele>
        <time>2019-05-12T12:57:57Z</time>
      </trkpt>
      <trkpt lat="38.7088850" lon="-0.6562310">
        <ele>803.0</ele>
        <time>2019-05-12T12:57:58Z</time>
      </trkpt>
      <trkpt lat="38.7089240" lon="-0.6563670">
        <ele>801.2</ele>
        <time>2019-05-12T12:57:59Z</time>
      </trkpt>
      <trkpt lat="38.7089850" lon="-0.6565050">
        <ele>799.0</ele>
        <time>2019-05-12T12:58:00Z</time>
      </trkpt>
      <trkpt lat="38.7090580" lon="-0.6566350">
        <ele>796.2</ele>
        <time>2019-05-12T12:58:01Z</time>
      </trkpt>
      <trkpt lat="38.7091510" lon="-0.6567790">
        <ele>793.8</ele>
        <time>2019-05-12T12:58:02Z</time>
      </trkpt>
      <trkpt lat="38.7092060" lon="-0.6568590">
        <ele>792.0</ele>
        <time>2019-05-12T12:58:03Z</time>
      </trkpt>
      <trkpt lat="38.7092730" lon="-0.6569550">
        <ele>790.6</ele>
        <time>2019-05-12T12:58:04Z</time>
      </trkpt>
      <trkpt lat="38.7093340" lon="-0.6570400">
        <ele>789.2</ele>
        <time>2019-05-12T12:58:05Z</time>
      </trkpt>
      <trkpt lat="38.7093960" lon="-0.6571240">
        <ele>787.8</ele>
        <time>2019-05-12T12:58:06Z</time>
      </trkpt>
      <trkpt lat="38.7094540" lon="-0.6572000">
        <ele>786.6</ele>
        <time>2019-05-12T12:58:07Z</time>
      </trkpt>
      <trkpt lat="38.7095030" lon="-0.6572620">
        <ele>785.2</ele>
        <time>2019-05-12T12:58:08Z</time>
      </trkpt>
      <trkpt lat="38.7095500" lon="-0.6573110">
        <ele>784.0</ele>
        <time>2019-05-12T12:58:09Z</time>
      </trkpt>
      <trkpt lat="38.7095840" lon="-0.6573540">
        <ele>782.8</ele>
        <time>2019-05-12T12:58:10Z</time>
      </trkpt>
      <trkpt lat="38.7096240" lon="-0.6574350">
        <ele>781.8</ele>
        <time>2019-05-12T12:58:12Z</time>
      </trkpt>
      <trkpt lat="38.7095770" lon="-0.6575350">
        <ele>782.2</ele>
        <time>2019-05-12T12:58:15Z</time>
      </trkpt>
      <trkpt lat="38.7094910" lon="-0.6575410">
        <ele>782.2</ele>
        <time>2019-05-12T12:58:17Z</time>
      </trkpt>
      <trkpt lat="38.7093950" lon="-0.6575430">
        <ele>781.6</ele>
        <time>2019-05-12T12:58:19Z</time>
      </trkpt>
      <trkpt lat="38.7091850" lon="-0.6575480">
        <ele>780.6</ele>
        <time>2019-05-12T12:58:23Z</time>
      </trkpt>
      <trkpt lat="38.7090200" lon="-0.6575530">
        <ele>780.0</ele>
        <time>2019-05-12T12:58:26Z</time>
      </trkpt>
      <trkpt lat="38.7088560" lon="-0.6575610">
        <ele>779.8</ele>
        <time>2019-05-12T12:58:29Z</time>
      </trkpt>
      <trkpt lat="38.7088020" lon="-0.6575560">
        <ele>779.6</ele>
        <time>2019-05-12T12:58:30Z</time>
      </trkpt>
      <trkpt lat="38.7087480" lon="-0.6575560">
        <ele>779.2</ele>
        <time>2019-05-12T12:58:31Z</time>
      </trkpt>
      <trkpt lat="38.7085890" lon="-0.6575450">
        <ele>779.4</ele>
        <time>2019-05-12T12:58:34Z</time>
      </trkpt>
      <trkpt lat="38.7084940" lon="-0.6575060">
        <ele>779.4</ele>
        <time>2019-05-12T12:58:36Z</time>
      </trkpt>
      <trkpt lat="38.7083580" lon="-0.6574220">
        <ele>779.2</ele>
        <time>2019-05-12T12:58:39Z</time>
      </trkpt>
      <trkpt lat="38.7082710" lon="-0.6573310">
        <ele>779.0</ele>
        <time>2019-05-12T12:58:41Z</time>
      </trkpt>
      <trkpt lat="38.7081910" lon="-0.6572090">
        <ele>778.2</ele>
        <time>2019-05-12T12:58:43Z</time>
      </trkpt>
      <trkpt lat="38.7081430" lon="-0.6570850">
        <ele>777.4</ele>
        <time>2019-05-12T12:58:45Z</time>
      </trkpt>
      <trkpt lat="38.7081380" lon="-0.6570230">
        <ele>777.0</ele>
        <time>2019-05-12T12:58:46Z</time>
      </trkpt>
      <trkpt lat="38.7081560" lon="-0.6569080">
        <ele>776.6</ele>
        <time>2019-05-12T12:58:48Z</time>
      </trkpt>
      <trkpt lat="38.7081580" lon="-0.6568540">
        <ele>776.4</ele>
        <time>2019-05-12T12:58:49Z</time>
      </trkpt>
      <trkpt lat="38.7081470" lon="-0.6567410">
        <ele>775.8</ele>
        <time>2019-05-12T12:58:51Z</time>
      </trkpt>
      <trkpt lat="38.7081490" lon="-0.6565320">
        <ele>775.2</ele>
        <time>2019-05-12T12:58:56Z</time>
      </trkpt>
      <trkpt lat="38.7081090" lon="-0.6564330">
        <ele>774.0</ele>
        <time>2019-05-12T13:00:54Z</time>
      </trkpt>
      <trkpt lat="38.7080960" lon="-0.6565240">
        <ele>773.6</ele>
        <time>2019-05-12T13:00:57Z</time>
      </trkpt>
      <trkpt lat="38.7081260" lon="-0.6567170">
        <ele>774.2</ele>
        <time>2019-05-12T13:01:02Z</time>
      </trkpt>
      <trkpt lat="38.7081300" lon="-0.6567530">
        <ele>774.4</ele>
        <time>2019-05-12T13:01:03Z</time>
      </trkpt>
      <trkpt lat="38.7081470" lon="-0.6569040">
        <ele>775.2</ele>
        <time>2019-05-12T13:01:07Z</time>
      </trkpt>
      <trkpt lat="38.7081530" lon="-0.6569820">
        <ele>775.8</ele>
        <time>2019-05-12T13:01:09Z</time>
      </trkpt>
      <trkpt lat="38.7081830" lon="-0.6570860">
        <ele>776.6</ele>
        <time>2019-05-12T13:01:12Z</time>
      </trkpt>
      <trkpt lat="38.7081940" lon="-0.6571120">
        <ele>776.8</ele>
        <time>2019-05-12T13:01:13Z</time>
      </trkpt>
      <trkpt lat="38.7082820" lon="-0.6572790">
        <ele>777.6</ele>
        <time>2019-05-12T13:01:18Z</time>
      </trkpt>
      <trkpt lat="38.7083830" lon="-0.6573870">
        <ele>778.8</ele>
        <time>2019-05-12T13:01:23Z</time>
      </trkpt>
      <trkpt lat="38.7084830" lon="-0.6574630">
        <ele>779.2</ele>
        <time>2019-05-12T13:01:27Z</time>
      </trkpt>
      <trkpt lat="38.7085380" lon="-0.6574820">
        <ele>779.6</ele>
        <time>2019-05-12T13:01:29Z</time>
      </trkpt>
      <trkpt lat="38.7087050" lon="-0.6575960">
        <ele>779.8</ele>
        <time>2019-05-12T13:01:35Z</time>
      </trkpt>
      <trkpt lat="38.7087160" lon="-0.6576320">
        <ele>780.0</ele>
        <time>2019-05-12T13:01:36Z</time>
      </trkpt>
      <trkpt lat="38.7087140" lon="-0.6577300">
        <ele>779.8</ele>
        <time>2019-05-12T13:01:38Z</time>
      </trkpt>
      <trkpt lat="38.7086940" lon="-0.6579150">
        <ele>778.8</ele>
        <time>2019-05-12T13:01:41Z</time>
      </trkpt>
      <trkpt lat="38.7086880" lon="-0.6579930">
        <ele>778.0</ele>
        <time>2019-05-12T13:01:42Z</time>
      </trkpt>
      <trkpt lat="38.7086790" lon="-0.6580810">
        <ele>777.0</ele>
        <time>2019-05-12T13:01:43Z</time>
      </trkpt>
      <trkpt lat="38.7086710" lon="-0.6581710">
        <ele>776.0</ele>
        <time>2019-05-12T13:01:44Z</time>
      </trkpt>
      <trkpt lat="38.7086750" lon="-0.6583280">
        <ele>774.6</ele>
        <time>2019-05-12T13:01:46Z</time>
      </trkpt>
      <trkpt lat="38.7087770" lon="-0.6584990">
        <ele>774.0</ele>
        <time>2019-05-12T13:01:49Z</time>
      </trkpt>
      <trkpt lat="38.7088170" lon="-0.6585400">
        <ele>773.6</ele>
        <time>2019-05-12T13:01:50Z</time>
      </trkpt>
      <trkpt lat="38.7089440" lon="-0.6586740">
        <ele>773.0</ele>
        <time>2019-05-12T13:01:53Z</time>
      </trkpt>
      <trkpt lat="38.7089860" lon="-0.6587140">
        <ele>772.6</ele>
        <time>2019-05-12T13:01:54Z</time>
      </trkpt>
      <trkpt lat="38.7090180" lon="-0.6587620">
        <ele>771.8</ele>
        <time>2019-05-12T13:01:55Z</time>
      </trkpt>
      <trkpt lat="38.7090440" lon="-0.6588230">
        <ele>771.0</ele>
        <time>2019-05-12T13:01:56Z</time>
      </trkpt>
      <trkpt lat="38.7090610" lon="-0.6589020">
        <ele>770.2</ele>
        <time>2019-05-12T13:01:57Z</time>
      </trkpt>
      <trkpt lat="38.7090630" lon="-0.6589960">
        <ele>768.8</ele>
        <time>2019-05-12T13:01:58Z</time>
      </trkpt>
      <trkpt lat="38.7090650" lon="-0.6590860">
        <ele>767.4</ele>
        <time>2019-05-12T13:01:59Z</time>
      </trkpt>
      <trkpt lat="38.7090690" lon="-0.6591710">
        <ele>765.8</ele>
        <time>2019-05-12T13:02:00Z</time>
      </trkpt>
      <trkpt lat="38.7090780" lon="-0.6592500">
        <ele>763.6</ele>
        <time>2019-05-12T13:02:01Z</time>
      </trkpt>
      <trkpt lat="38.7090900" lon="-0.6593290">
        <ele>762.6</ele>
        <time>2019-05-12T13:02:02Z</time>
      </trkpt>
      <trkpt lat="38.7091020" lon="-0.6594110">
        <ele>761.6</ele>
        <time>2019-05-12T13:02:03Z</time>
      </trkpt>
      <trkpt lat="38.7091010" lon="-0.6595030">
        <ele>760.4</ele>
        <time>2019-05-12T13:02:04Z</time>
      </trkpt>
      <trkpt lat="38.7090880" lon="-0.6596030">
        <ele>759.2</ele>
        <time>2019-05-12T13:02:05Z</time>
      </trkpt>
      <trkpt lat="38.7090710" lon="-0.6597070">
        <ele>757.8</ele>
        <time>2019-05-12T13:02:06Z</time>
      </trkpt>
      <trkpt lat="38.7090530" lon="-0.6598160">
        <ele>756.8</ele>
        <time>2019-05-12T13:02:07Z</time>
      </trkpt>
      <trkpt lat="38.7090310" lon="-0.6599340">
        <ele>755.4</ele>
        <time>2019-05-12T13:02:08Z</time>
      </trkpt>
      <trkpt lat="38.7090090" lon="-0.6600440">
        <ele>754.0</ele>
        <time>2019-05-12T13:02:09Z</time>
      </trkpt>
      <trkpt lat="38.7089820" lon="-0.6601530">
        <ele>752.4</ele>
        <time>2019-05-12T13:02:10Z</time>
      </trkpt>
      <trkpt lat="38.7089320" lon="-0.6603450">
        <ele>751.0</ele>
        <time>2019-05-12T13:02:12Z</time>
      </trkpt>
      <trkpt lat="38.7088990" lon="-0.6604940">
        <ele>750.0</ele>
        <time>2019-05-12T13:02:14Z</time>
      </trkpt>
      <trkpt lat="38.7088910" lon="-0.6605460">
        <ele>749.8</ele>
        <time>2019-05-12T13:02:15Z</time>
      </trkpt>
      <trkpt lat="38.7088620" lon="-0.6606170">
        <ele>749.0</ele>
        <time>2019-05-12T13:02:17Z</time>
      </trkpt>
      <trkpt lat="38.7088320" lon="-0.6606290">
        <ele>748.6</ele>
        <time>2019-05-12T13:02:18Z</time>
      </trkpt>
      <trkpt lat="38.7087020" lon="-0.6605890">
        <ele>747.8</ele>
        <time>2019-05-12T13:02:21Z</time>
      </trkpt>
      <trkpt lat="38.7086570" lon="-0.6605670">
        <ele>747.4</ele>
        <time>2019-05-12T13:02:22Z</time>
      </trkpt>
      <trkpt lat="38.7086120" lon="-0.6605400">
        <ele>747.2</ele>
        <time>2019-05-12T13:02:23Z</time>
      </trkpt>
      <trkpt lat="38.7085260" lon="-0.6604810">
        <ele>747.4</ele>
        <time>2019-05-12T13:02:25Z</time>
      </trkpt>
      <trkpt lat="38.7084570" lon="-0.6604140">
        <ele>746.4</ele>
        <time>2019-05-12T13:02:27Z</time>
      </trkpt>
      <trkpt lat="38.7084280" lon="-0.6603750">
        <ele>746.4</ele>
        <time>2019-05-12T13:02:28Z</time>
      </trkpt>
      <trkpt lat="38.7084030" lon="-0.6603300">
        <ele>746.4</ele>
        <time>2019-05-12T13:02:29Z</time>
      </trkpt>
      <trkpt lat="38.7083460" lon="-0.6602370">
        <ele>747.0</ele>
        <time>2019-05-12T13:02:31Z</time>
      </trkpt>
      <trkpt lat="38.7083130" lon="-0.6601970">
        <ele>747.0</ele>
        <time>2019-05-12T13:02:32Z</time>
      </trkpt>
      <trkpt lat="38.7081270" lon="-0.6600430">
        <ele>747.2</ele>
        <time>2019-05-12T13:02:37Z</time>
      </trkpt>
      <trkpt lat="38.7080950" lon="-0.6600200">
        <ele>747.4</ele>
        <time>2019-05-12T13:02:38Z</time>
      </trkpt>
      <trkpt lat="38.7079870" lon="-0.6599360">
        <ele>746.8</ele>
        <time>2019-05-12T13:02:42Z</time>
      </trkpt>
      <trkpt lat="38.7078810" lon="-0.6598330">
        <ele>747.0</ele>
        <time>2019-05-12T13:02:47Z</time>
      </trkpt>
      <trkpt lat="38.7077610" lon="-0.6597260">
        <ele>745.8</ele>
        <time>2019-05-12T13:02:52Z</time>
      </trkpt>
      <trkpt lat="38.7077130" lon="-0.6596470">
        <ele>744.4</ele>
        <time>2019-05-12T13:02:54Z</time>
      </trkpt>
      <trkpt lat="38.7076840" lon="-0.6595940">
        <ele>743.4</ele>
        <time>2019-05-12T13:02:55Z</time>
      </trkpt>
      <trkpt lat="38.7076550" lon="-0.6595330">
        <ele>742.6</ele>
        <time>2019-05-12T13:02:56Z</time>
      </trkpt>
      <trkpt lat="38.7076230" lon="-0.6594690">
        <ele>742.0</ele>
        <time>2019-05-12T13:02:57Z</time>
      </trkpt>
      <trkpt lat="38.7075050" lon="-0.6592640">
        <ele>740.8</ele>
        <time>2019-05-12T13:03:00Z</time>
      </trkpt>
      <trkpt lat="38.7074550" lon="-0.6591730">
        <ele>740.0</ele>
        <time>2019-05-12T13:03:01Z</time>
      </trkpt>
      <trkpt lat="38.7074090" lon="-0.6590740">
        <ele>738.6</ele>
        <time>2019-05-12T13:03:02Z</time>
      </trkpt>
      <trkpt lat="38.7073640" lon="-0.6589840">
        <ele>737.2</ele>
        <time>2019-05-12T13:03:03Z</time>
      </trkpt>
      <trkpt lat="38.7073210" lon="-0.6589070">
        <ele>736.2</ele>
        <time>2019-05-12T13:03:04Z</time>
      </trkpt>
      <trkpt lat="38.7072430" lon="-0.6587410">
        <ele>735.4</ele>
        <time>2019-05-12T13:03:06Z</time>
      </trkpt>
      <trkpt lat="38.7071970" lon="-0.6585490">
        <ele>734.6</ele>
        <time>2019-05-12T13:03:08Z</time>
      </trkpt>
      <trkpt lat="38.7071810" lon="-0.6584470">
        <ele>734.4</ele>
        <time>2019-05-12T13:03:09Z</time>
      </trkpt>
      <trkpt lat="38.7071410" lon="-0.6582600">
        <ele>733.2</ele>
        <time>2019-05-12T13:03:11Z</time>
      </trkpt>
      <trkpt lat="38.7071150" lon="-0.6581890">
        <ele>732.6</ele>
        <time>2019-05-12T13:03:12Z</time>
      </trkpt>
      <trkpt lat="38.7070850" lon="-0.6581210">
        <ele>732.8</ele>
        <time>2019-05-12T13:03:13Z</time>
      </trkpt>
      <trkpt lat="38.7070630" lon="-0.6580520">
        <ele>732.8</ele>
        <time>2019-05-12T13:03:14Z</time>
      </trkpt>
      <trkpt lat="38.7069950" lon="-0.6578180">
        <ele>731.8</ele>
        <time>2019-05-12T13:03:17Z</time>
      </trkpt>
      <trkpt lat="38.7069790" lon="-0.6577420">
        <ele>731.8</ele>
        <time>2019-05-12T13:03:18Z</time>
      </trkpt>
      <trkpt lat="38.7069530" lon="-0.6576220">
        <ele>731.6</ele>
        <time>2019-05-12T13:03:20Z</time>
      </trkpt>
      <trkpt lat="38.7068860" lon="-0.6572680">
        <ele>731.4</ele>
        <time>2019-05-12T13:03:25Z</time>
      </trkpt>
      <trkpt lat="38.7068840" lon="-0.6571160">
        <ele>730.6</ele>
        <time>2019-05-12T13:03:27Z</time>
      </trkpt>
      <trkpt lat="38.7068740" lon="-0.6569840">
        <ele>731.0</ele>
        <time>2019-05-12T13:03:29Z</time>
      </trkpt>
      <trkpt lat="38.7068590" lon="-0.6569100">
        <ele>730.6</ele>
        <time>2019-05-12T13:03:30Z</time>
      </trkpt>
      <trkpt lat="38.7068530" lon="-0.6567470">
        <ele>728.2</ele>
        <time>2019-05-12T13:03:32Z</time>
      </trkpt>
      <trkpt lat="38.7068780" lon="-0.6566790">
        <ele>727.2</ele>
        <time>2019-05-12T13:03:33Z</time>
      </trkpt>
      <trkpt lat="38.7068950" lon="-0.6566350">
        <ele>726.4</ele>
        <time>2019-05-12T13:03:34Z</time>
      </trkpt>
      <trkpt lat="38.7069060" lon="-0.6566070">
        <ele>725.8</ele>
        <time>2019-05-12T13:03:35Z</time>
      </trkpt>
      <trkpt lat="38.7069230" lon="-0.6565390">
        <ele>725.8</ele>
        <time>2019-05-12T13:03:38Z</time>
      </trkpt>
      <trkpt lat="38.7069010" lon="-0.6565020">
        <ele>725.8</ele>
        <time>2019-05-12T13:03:41Z</time>
      </trkpt>
      <trkpt lat="38.7068810" lon="-0.6564940">
        <ele>725.0</ele>
        <time>2019-05-12T13:03:45Z</time>
      </trkpt>
      <trkpt lat="38.7068730" lon="-0.6564870">
        <ele>724.8</ele>
        <time>2019-05-12T13:03:46Z</time>
      </trkpt>
      <trkpt lat="38.7068690" lon="-0.6564830">
        <ele>724.6</ele>
        <time>2019-05-12T13:03:47Z</time>
      </trkpt>
      <trkpt lat="38.7068350" lon="-0.6564590">
        <ele>724.8</ele>
        <time>2019-05-12T13:03:53Z</time>
      </trkpt>
      <trkpt lat="38.7068190" lon="-0.6564470">
        <ele>725.0</ele>
        <time>2019-05-12T13:03:54Z</time>
      </trkpt>
      <trkpt lat="38.7067450" lon="-0.6564220">
        <ele>726.0</ele>
        <time>2019-05-12T13:03:58Z</time>
      </trkpt>
      <trkpt lat="38.7067290" lon="-0.6564170">
        <ele>726.4</ele>
        <time>2019-05-12T13:03:59Z</time>
      </trkpt>
      <trkpt lat="38.7066960" lon="-0.6564000">
        <ele>727.0</ele>
        <time>2019-05-12T13:04:01Z</time>
      </trkpt>
      <trkpt lat="38.7066500" lon="-0.6563570">
        <ele>728.0</ele>
        <time>2019-05-12T13:04:05Z</time>
      </trkpt>
      <trkpt lat="38.7066030" lon="-0.6563150">
        <ele>729.2</ele>
        <time>2019-05-12T13:04:09Z</time>
      </trkpt>
      <trkpt lat="38.7065740" lon="-0.6562970">
        <ele>730.0</ele>
        <time>2019-05-12T13:04:12Z</time>
      </trkpt>
      <trkpt lat="38.7065600" lon="-0.6562920">
        <ele>730.2</ele>
        <time>2019-05-12T13:04:13Z</time>
      </trkpt>
      <trkpt lat="38.7065000" lon="-0.6562550">
        <ele>731.4</ele>
        <time>2019-05-12T13:04:18Z</time>
      </trkpt>
      <trkpt lat="38.7064880" lon="-0.6562500">
        <ele>731.8</ele>
        <time>2019-05-12T13:04:19Z</time>
      </trkpt>
      <trkpt lat="38.7064680" lon="-0.6562410">
        <ele>732.8</ele>
        <time>2019-05-12T13:04:21Z</time>
      </trkpt>
      <trkpt lat="38.7064360" lon="-0.6562170">
        <ele>733.8</ele>
        <time>2019-05-12T13:04:24Z</time>
      </trkpt>
      <trkpt lat="38.7064210" lon="-0.6562070">
        <ele>734.4</ele>
        <time>2019-05-12T13:04:25Z</time>
      </trkpt>
      <trkpt lat="38.7063920" lon="-0.6561900">
        <ele>735.0</ele>
        <time>2019-05-12T13:04:27Z</time>
      </trkpt>
      <trkpt lat="38.7063650" lon="-0.6561770">
        <ele>736.2</ele>
        <time>2019-05-12T13:04:29Z</time>
      </trkpt>
      <trkpt lat="38.7063160" lon="-0.6561870">
        <ele>737.4</ele>
        <time>2019-05-12T13:04:32Z</time>
      </trkpt>
      <trkpt lat="38.7063010" lon="-0.6561870">
        <ele>737.8</ele>
        <time>2019-05-12T13:04:33Z</time>
      </trkpt>
      <trkpt lat="38.7062510" lon="-0.6562140">
        <ele>739.2</ele>
        <time>2019-05-12T13:04:41Z</time>
      </trkpt>
      <trkpt lat="38.7062410" lon="-0.6562150">
        <ele>740.0</ele>
        <time>2019-05-12T13:04:44Z</time>
      </trkpt>
      <trkpt lat="38.7061830" lon="-0.6562160">
        <ele>741.2</ele>
        <time>2019-05-12T13:05:00Z</time>
      </trkpt>
      <trkpt lat="38.7061800" lon="-0.6562140">
        <ele>741.6</ele>
        <time>2019-05-12T13:05:02Z</time>
      </trkpt>
      <trkpt lat="38.7059010" lon="-0.6563350">
        <ele>748.6</ele>
        <time>2019-05-12T13:06:18Z</time>
      </trkpt>
      <trkpt lat="38.7058860" lon="-0.6563270">
        <ele>748.8</ele>
        <time>2019-05-12T13:06:19Z</time>
      </trkpt>
      <trkpt lat="38.7058350" lon="-0.6563070">
        <ele>749.2</ele>
        <time>2019-05-12T13:06:22Z</time>
      </trkpt>
      <trkpt lat="38.7058070" lon="-0.6562980">
        <ele>750.0</ele>
        <time>2019-05-12T13:06:24Z</time>
      </trkpt>
      <trkpt lat="38.7057830" lon="-0.6562960">
        <ele>750.4</ele>
        <time>2019-05-12T13:06:26Z</time>
      </trkpt>
      <trkpt lat="38.7057420" lon="-0.6562800">
        <ele>751.0</ele>
        <time>2019-05-12T13:06:29Z</time>
      </trkpt>
      <trkpt lat="38.7057190" lon="-0.6562700">
        <ele>751.8</ele>
        <time>2019-05-12T13:06:33Z</time>
      </trkpt>
      <trkpt lat="38.7057140" lon="-0.6562660">
        <ele>752.0</ele>
        <time>2019-05-12T13:06:34Z</time>
      </trkpt>
      <trkpt lat="38.7056640" lon="-0.6562480">
        <ele>752.4</ele>
        <time>2019-05-12T13:06:38Z</time>
      </trkpt>
      <trkpt lat="38.7056410" lon="-0.6562490">
        <ele>753.2</ele>
        <time>2019-05-12T13:06:40Z</time>
      </trkpt>
      <trkpt lat="38.7055860" lon="-0.6562730">
        <ele>754.4</ele>
        <time>2019-05-12T13:06:45Z</time>
      </trkpt>
      <trkpt lat="38.7055330" lon="-0.6562930">
        <ele>755.4</ele>
        <time>2019-05-12T13:06:50Z</time>
      </trkpt>
      <trkpt lat="38.7055250" lon="-0.6562970">
        <ele>756.0</ele>
        <time>2019-05-12T13:06:51Z</time>
      </trkpt>
      <trkpt lat="38.7054970" lon="-0.6563130">
        <ele>756.8</ele>
        <time>2019-05-12T13:06:54Z</time>
      </trkpt>
      <trkpt lat="38.7054760" lon="-0.6563280">
        <ele>757.2</ele>
        <time>2019-05-12T13:06:56Z</time>
      </trkpt>
      <trkpt lat="38.7054480" lon="-0.6563540">
        <ele>758.0</ele>
        <time>2019-05-12T13:06:59Z</time>
      </trkpt>
      <trkpt lat="38.7053830" lon="-0.6564470">
        <ele>759.4</ele>
        <time>2019-05-12T13:07:12Z</time>
      </trkpt>
      <trkpt lat="38.7053430" lon="-0.6564920">
        <ele>760.0</ele>
        <time>2019-05-12T13:07:15Z</time>
      </trkpt>
      <trkpt lat="38.7053040" lon="-0.6565340">
        <ele>760.4</ele>
        <time>2019-05-12T13:07:18Z</time>
      </trkpt>
      <trkpt lat="38.7052650" lon="-0.6566090">
        <ele>761.6</ele>
        <time>2019-05-12T13:07:22Z</time>
      </trkpt>
      <trkpt lat="38.7052570" lon="-0.6566340">
        <ele>761.8</ele>
        <time>2019-05-12T13:07:23Z</time>
      </trkpt>
      <trkpt lat="38.7051940" lon="-0.6567260">
        <ele>762.8</ele>
        <time>2019-05-12T13:07:28Z</time>
      </trkpt>
      <trkpt lat="38.7051830" lon="-0.6567440">
        <ele>762.8</ele>
        <time>2019-05-12T13:07:29Z</time>
      </trkpt>
      <trkpt lat="38.7051310" lon="-0.6568110">
        <ele>763.6</ele>
        <time>2019-05-12T13:07:33Z</time>
      </trkpt>
      <trkpt lat="38.7051240" lon="-0.6568350">
        <ele>763.4</ele>
        <time>2019-05-12T13:07:34Z</time>
      </trkpt>
      <trkpt lat="38.7051150" lon="-0.6568830">
        <ele>764.2</ele>
        <time>2019-05-12T13:07:36Z</time>
      </trkpt>
      <trkpt lat="38.7050860" lon="-0.6569370">
        <ele>764.6</ele>
        <time>2019-05-12T13:07:39Z</time>
      </trkpt>
      <trkpt lat="38.7050430" lon="-0.6569810">
        <ele>765.2</ele>
        <time>2019-05-12T13:07:42Z</time>
      </trkpt>
      <trkpt lat="38.7049960" lon="-0.6570140">
        <ele>766.0</ele>
        <time>2019-05-12T13:07:45Z</time>
      </trkpt>
      <trkpt lat="38.7049140" lon="-0.6570120">
        <ele>766.4</ele>
        <time>2019-05-12T13:07:49Z</time>
      </trkpt>
      <trkpt lat="38.7048920" lon="-0.6570050">
        <ele>766.8</ele>
        <time>2019-05-12T13:07:50Z</time>
      </trkpt>
      <trkpt lat="38.7048300" lon="-0.6569740">
        <ele>767.4</ele>
        <time>2019-05-12T13:07:53Z</time>
      </trkpt>
      <trkpt lat="38.7047950" lon="-0.6569510">
        <ele>768.6</ele>
        <time>2019-05-12T13:07:55Z</time>
      </trkpt>
      <trkpt lat="38.7047760" lon="-0.6569390">
        <ele>769.0</ele>
        <time>2019-05-12T13:07:56Z</time>
      </trkpt>
      <trkpt lat="38.7046620" lon="-0.6568830">
        <ele>769.6</ele>
        <time>2019-05-12T13:08:02Z</time>
      </trkpt>
      <trkpt lat="38.7046310" lon="-0.6568690">
        <ele>770.4</ele>
        <time>2019-05-12T13:08:04Z</time>
      </trkpt>
      <trkpt lat="38.7045460" lon="-0.6568540">
        <ele>771.0</ele>
        <time>2019-05-12T13:08:08Z</time>
      </trkpt>
      <trkpt lat="38.7045280" lon="-0.6568550">
        <ele>771.4</ele>
        <time>2019-05-12T13:08:09Z</time>
      </trkpt>
      <trkpt lat="38.7044570" lon="-0.6568570">
        <ele>772.2</ele>
        <time>2019-05-12T13:08:13Z</time>
      </trkpt>
      <trkpt lat="38.7044240" lon="-0.6568510">
        <ele>772.8</ele>
        <time>2019-05-12T13:08:15Z</time>
      </trkpt>
      <trkpt lat="38.7043880" lon="-0.6568540">
        <ele>773.4</ele>
        <time>2019-05-12T13:08:17Z</time>
      </trkpt>
      <trkpt lat="38.7043380" lon="-0.6568640">
        <ele>774.6</ele>
        <time>2019-05-12T13:08:20Z</time>
      </trkpt>
      <trkpt lat="38.7042950" lon="-0.6568880">
        <ele>775.4</ele>
        <time>2019-05-12T13:08:23Z</time>
      </trkpt>
      <trkpt lat="38.7042650" lon="-0.6569120">
        <ele>775.8</ele>
        <time>2019-05-12T13:08:25Z</time>
      </trkpt>
      <trkpt lat="38.7042300" lon="-0.6569170">
        <ele>776.6</ele>
        <time>2019-05-12T13:08:29Z</time>
      </trkpt>
      <trkpt lat="38.7040520" lon="-0.6569310">
        <ele>779.4</ele>
        <time>2019-05-12T13:08:49Z</time>
      </trkpt>
      <trkpt lat="38.7040240" lon="-0.6569250">
        <ele>779.8</ele>
        <time>2019-05-12T13:08:51Z</time>
      </trkpt>
      <trkpt lat="38.7039700" lon="-0.6569530">
        <ele>780.6</ele>
        <time>2019-05-12T13:08:55Z</time>
      </trkpt>
      <trkpt lat="38.7039550" lon="-0.6569570">
        <ele>780.8</ele>
        <time>2019-05-12T13:08:56Z</time>
      </trkpt>
      <trkpt lat="38.7038960" lon="-0.6569890">
        <ele>781.8</ele>
        <time>2019-05-12T13:09:00Z</time>
      </trkpt>
      <trkpt lat="38.7038800" lon="-0.6569980">
        <ele>782.0</ele>
        <time>2019-05-12T13:09:01Z</time>
      </trkpt>
      <trkpt lat="38.7038700" lon="-0.6570040">
        <ele>782.2</ele>
        <time>2019-05-12T13:09:02Z</time>
      </trkpt>
      <trkpt lat="38.7038230" lon="-0.6570420">
        <ele>782.8</ele>
        <time>2019-05-12T13:09:05Z</time>
      </trkpt>
      <trkpt lat="38.7037970" lon="-0.6570600">
        <ele>783.6</ele>
        <time>2019-05-12T13:09:07Z</time>
      </trkpt>
      <trkpt lat="38.7037810" lon="-0.6570680">
        <ele>783.8</ele>
        <time>2019-05-12T13:09:08Z</time>
      </trkpt>
      <trkpt lat="38.7036660" lon="-0.6571060">
        <ele>785.0</ele>
        <time>2019-05-12T13:09:14Z</time>
      </trkpt>
      <trkpt lat="38.7035240" lon="-0.6570960">
        <ele>785.6</ele>
        <time>2019-05-12T13:09:20Z</time>
      </trkpt>
      <trkpt lat="38.7035050" lon="-0.6571000">
        <ele>786.2</ele>
        <time>2019-05-12T13:09:21Z</time>
      </trkpt>
      <trkpt lat="38.7034020" lon="-0.6571220">
        <ele>787.2</ele>
        <time>2019-05-12T13:09:25Z</time>
      </trkpt>
      <trkpt lat="38.7032220" lon="-0.6571180">
        <ele>787.8</ele>
        <time>2019-05-12T13:09:32Z</time>
      </trkpt>
      <trkpt lat="38.7031360" lon="-0.6570580">
        <ele>788.4</ele>
        <time>2019-05-12T13:09:36Z</time>
      </trkpt>
      <trkpt lat="38.7030990" lon="-0.6570270">
        <ele>788.6</ele>
        <time>2019-05-12T13:09:38Z</time>
      </trkpt>
      <trkpt lat="38.7030470" lon="-0.6570090">
        <ele>789.0</ele>
        <time>2019-05-12T13:09:42Z</time>
      </trkpt>
      <trkpt lat="38.7030410" lon="-0.6570230">
        <ele>789.6</ele>
        <time>2019-05-12T13:09:43Z</time>
      </trkpt>
      <trkpt lat="38.7030650" lon="-0.6570780">
        <ele>790.6</ele>
        <time>2019-05-12T13:09:46Z</time>
      </trkpt>
      <trkpt lat="38.7030770" lon="-0.6571020">
        <ele>790.6</ele>
        <time>2019-05-12T13:09:47Z</time>
      </trkpt>
      <trkpt lat="38.7031370" lon="-0.6572000">
        <ele>791.8</ele>
        <time>2019-05-12T13:09:52Z</time>
      </trkpt>
      <trkpt lat="38.7031580" lon="-0.6572340">
        <ele>792.6</ele>
        <time>2019-05-12T13:09:54Z</time>
      </trkpt>
      <trkpt lat="38.7031700" lon="-0.6572540">
        <ele>792.8</ele>
        <time>2019-05-12T13:09:55Z</time>
      </trkpt>
      <trkpt lat="38.7032340" lon="-0.6573130">
        <ele>794.2</ele>
        <time>2019-05-12T13:09:59Z</time>
      </trkpt>
      <trkpt lat="38.7032480" lon="-0.6573320">
        <ele>794.2</ele>
        <time>2019-05-12T13:10:00Z</time>
      </trkpt>
      <trkpt lat="38.7032900" lon="-0.6573800">
        <ele>795.2</ele>
        <time>2019-05-12T13:10:03Z</time>
      </trkpt>
      <trkpt lat="38.7033460" lon="-0.6574170">
        <ele>796.2</ele>
        <time>2019-05-12T13:10:06Z</time>
      </trkpt>
      <trkpt lat="38.7033640" lon="-0.6574280">
        <ele>796.4</ele>
        <time>2019-05-12T13:10:07Z</time>
      </trkpt>
      <trkpt lat="38.7034580" lon="-0.6574610">
        <ele>797.6</ele>
        <time>2019-05-12T13:10:12Z</time>
      </trkpt>
      <trkpt lat="38.7034910" lon="-0.6574700">
        <ele>798.0</ele>
        <time>2019-05-12T13:10:14Z</time>
      </trkpt>
      <trkpt lat="38.7035470" lon="-0.6574750">
        <ele>798.6</ele>
        <time>2019-05-12T13:10:17Z</time>
      </trkpt>
      <trkpt lat="38.7036380" lon="-0.6574880">
        <ele>799.0</ele>
        <time>2019-05-12T13:10:21Z</time>
      </trkpt>
      <trkpt lat="38.7037950" lon="-0.6575130">
        <ele>799.0</ele>
        <time>2019-05-12T13:10:27Z</time>
      </trkpt>
      <trkpt lat="38.7039200" lon="-0.6575590">
        <ele>799.8</ele>
        <time>2019-05-12T13:10:32Z</time>
      </trkpt>
      <trkpt lat="38.7039840" lon="-0.6576010">
        <ele>800.4</ele>
        <time>2019-05-12T13:10:35Z</time>
      </trkpt>
      <trkpt lat="38.7040230" lon="-0.6576410">
        <ele>800.8</ele>
        <time>2019-05-12T13:10:37Z</time>
      </trkpt>
      <trkpt lat="38.7040820" lon="-0.6577040">
        <ele>801.4</ele>
        <time>2019-05-12T13:10:40Z</time>
      </trkpt>
      <trkpt lat="38.7041760" lon="-0.6578330">
        <ele>801.4</ele>
        <time>2019-05-12T13:10:45Z</time>
      </trkpt>
      <trkpt lat="38.7042960" lon="-0.6580710">
        <ele>800.8</ele>
        <time>2019-05-12T13:10:52Z</time>
      </trkpt>
      <trkpt lat="38.7044120" lon="-0.6582750">
        <ele>800.6</ele>
        <time>2019-05-12T13:10:56Z</time>
      </trkpt>
      <trkpt lat="38.7044640" lon="-0.6583860">
        <ele>799.6</ele>
        <time>2019-05-12T13:10:58Z</time>
      </trkpt>
      <trkpt lat="38.7044990" lon="-0.6584900">
        <ele>799.4</ele>
        <time>2019-05-12T13:11:00Z</time>
      </trkpt>
      <trkpt lat="38.7044820" lon="-0.6586910">
        <ele>798.8</ele>
        <time>2019-05-12T13:11:04Z</time>
      </trkpt>
      <trkpt lat="38.7044040" lon="-0.6588490">
        <ele>800.8</ele>
        <time>2019-05-12T13:11:09Z</time>
      </trkpt>
      <trkpt lat="38.7043660" lon="-0.6589240">
        <ele>801.8</ele>
        <time>2019-05-12T13:11:12Z</time>
      </trkpt>
      <trkpt lat="38.7043460" lon="-0.6589570">
        <ele>802.8</ele>
        <time>2019-05-12T13:11:14Z</time>
      </trkpt>
      <trkpt lat="38.7043410" lon="-0.6589730">
        <ele>803.0</ele>
        <time>2019-05-12T13:11:15Z</time>
      </trkpt>
      <trkpt lat="38.7043040" lon="-0.6590450">
        <ele>804.2</ele>
        <time>2019-05-12T13:11:18Z</time>
      </trkpt>
      <trkpt lat="38.7042930" lon="-0.6590680">
        <ele>804.4</ele>
        <time>2019-05-12T13:11:19Z</time>
      </trkpt>
      <trkpt lat="38.7042890" lon="-0.6590870">
        <ele>804.6</ele>
        <time>2019-05-12T13:11:20Z</time>
      </trkpt>
      <trkpt lat="38.7042740" lon="-0.6591270">
        <ele>805.2</ele>
        <time>2019-05-12T13:11:22Z</time>
      </trkpt>
      <trkpt lat="38.7042630" lon="-0.6591500">
        <ele>805.6</ele>
        <time>2019-05-12T13:11:23Z</time>
      </trkpt>
      <trkpt lat="38.7042430" lon="-0.6591860">
        <ele>806.4</ele>
        <time>2019-05-12T13:11:25Z</time>
      </trkpt>
      <trkpt lat="38.7042120" lon="-0.6592340">
        <ele>807.2</ele>
        <time>2019-05-12T13:11:28Z</time>
      </trkpt>
      <trkpt lat="38.7042000" lon="-0.6592570">
        <ele>807.4</ele>
        <time>2019-05-12T13:11:29Z</time>
      </trkpt>
      <trkpt lat="38.7041680" lon="-0.6593230">
        <ele>808.6</ele>
        <time>2019-05-12T13:11:33Z</time>
      </trkpt>
      <trkpt lat="38.7040960" lon="-0.6594600">
        <ele>809.8</ele>
        <time>2019-05-12T13:11:39Z</time>
      </trkpt>
      <trkpt lat="38.7040680" lon="-0.6595080">
        <ele>811.0</ele>
        <time>2019-05-12T13:11:41Z</time>
      </trkpt>
      <trkpt lat="38.7040110" lon="-0.6596260">
        <ele>812.0</ele>
        <time>2019-05-12T13:11:46Z</time>
      </trkpt>
      <trkpt lat="38.7039530" lon="-0.6597570">
        <ele>812.0</ele>
        <time>2019-05-12T13:11:51Z</time>
      </trkpt>
      <trkpt lat="38.7039100" lon="-0.6598500">
        <ele>812.2</ele>
        <time>2019-05-12T13:11:54Z</time>
      </trkpt>
      <trkpt lat="38.7038180" lon="-0.6600180">
        <ele>811.2</ele>
        <time>2019-05-12T13:11:58Z</time>
      </trkpt>
      <trkpt lat="38.7037970" lon="-0.6600940">
        <ele>810.6</ele>
        <time>2019-05-12T13:11:59Z</time>
      </trkpt>
      <trkpt lat="38.7038200" lon="-0.6602330">
        <ele>809.8</ele>
        <time>2019-05-12T13:12:01Z</time>
      </trkpt>
      <trkpt lat="38.7038370" lon="-0.6602790">
        <ele>809.6</ele>
        <time>2019-05-12T13:12:02Z</time>
      </trkpt>
      <trkpt lat="38.7038480" lon="-0.6603210">
        <ele>809.6</ele>
        <time>2019-05-12T13:12:03Z</time>
      </trkpt>
      <trkpt lat="38.7038550" lon="-0.6603550">
        <ele>810.2</ele>
        <time>2019-05-12T13:12:04Z</time>
      </trkpt>
      <trkpt lat="38.7038620" lon="-0.6603920">
        <ele>811.6</ele>
        <time>2019-05-12T13:12:05Z</time>
      </trkpt>
      <trkpt lat="38.7038930" lon="-0.6605110">
        <ele>812.6</ele>
        <time>2019-05-12T13:12:08Z</time>
      </trkpt>
      <trkpt lat="38.7039200" lon="-0.6606270">
        <ele>813.0</ele>
        <time>2019-05-12T13:12:11Z</time>
      </trkpt>
      <trkpt lat="38.7039650" lon="-0.6608070">
        <ele>813.8</ele>
        <time>2019-05-12T13:12:16Z</time>
      </trkpt>
      <trkpt lat="38.7039900" lon="-0.6610140">
        <ele>813.8</ele>
        <time>2019-05-12T13:12:21Z</time>
      </trkpt>
      <trkpt lat="38.7039860" lon="-0.6612190">
        <ele>814.8</ele>
        <time>2019-05-12T13:12:27Z</time>
      </trkpt>
      <trkpt lat="38.7039810" lon="-0.6613470">
        <ele>816.0</ele>
        <time>2019-05-12T13:12:31Z</time>
      </trkpt>
      <trkpt lat="38.7039810" lon="-0.6614640">
        <ele>817.0</ele>
        <time>2019-05-12T13:12:35Z</time>
      </trkpt>
      <trkpt lat="38.7039760" lon="-0.6614940">
        <ele>817.2</ele>
        <time>2019-05-12T13:12:36Z</time>
      </trkpt>
      <trkpt lat="38.7039460" lon="-0.6616070">
        <ele>818.2</ele>
        <time>2019-05-12T13:12:40Z</time>
      </trkpt>
      <trkpt lat="38.7039090" lon="-0.6616760">
        <ele>819.4</ele>
        <time>2019-05-12T13:12:43Z</time>
      </trkpt>
      <trkpt lat="38.7038970" lon="-0.6616990">
        <ele>819.6</ele>
        <time>2019-05-12T13:12:44Z</time>
      </trkpt>
      <trkpt lat="38.7038570" lon="-0.6617680">
        <ele>820.4</ele>
        <time>2019-05-12T13:12:47Z</time>
      </trkpt>
      <trkpt lat="38.7038210" lon="-0.6618300">
        <ele>821.4</ele>
        <time>2019-05-12T13:12:50Z</time>
      </trkpt>
      <trkpt lat="38.7038070" lon="-0.6618490">
        <ele>821.6</ele>
        <time>2019-05-12T13:12:51Z</time>
      </trkpt>
      <trkpt lat="38.7037650" lon="-0.6619260">
        <ele>823.0</ele>
        <time>2019-05-12T13:12:55Z</time>
      </trkpt>
      <trkpt lat="38.7037430" lon="-0.6619540">
        <ele>823.4</ele>
        <time>2019-05-12T13:12:57Z</time>
      </trkpt>
      <trkpt lat="38.7036960" lon="-0.6620120">
        <ele>824.2</ele>
        <time>2019-05-12T13:13:01Z</time>
      </trkpt>
      <trkpt lat="38.7036500" lon="-0.6620550">
        <ele>824.6</ele>
        <time>2019-05-12T13:13:04Z</time>
      </trkpt>
      <trkpt lat="38.7035930" lon="-0.6621000">
        <ele>825.6</ele>
        <time>2019-05-12T13:13:08Z</time>
      </trkpt>
      <trkpt lat="38.7035450" lon="-0.6621170">
        <ele>826.4</ele>
        <time>2019-05-12T13:13:11Z</time>
      </trkpt>
      <trkpt lat="38.7035150" lon="-0.6621200">
        <ele>826.8</ele>
        <time>2019-05-12T13:13:13Z</time>
      </trkpt>
      <trkpt lat="38.7034670" lon="-0.6621170">
        <ele>827.8</ele>
        <time>2019-05-12T13:13:16Z</time>
      </trkpt>
      <trkpt lat="38.7034350" lon="-0.6621180">
        <ele>828.0</ele>
        <time>2019-05-12T13:13:18Z</time>
      </trkpt>
      <trkpt lat="38.7033740" lon="-0.6621200">
        <ele>829.2</ele>
        <time>2019-05-12T13:13:22Z</time>
      </trkpt>
      <trkpt lat="38.7033450" lon="-0.6621190">
        <ele>830.2</ele>
        <time>2019-05-12T13:13:24Z</time>
      </trkpt>
      <trkpt lat="38.7032870" lon="-0.6621120">
        <ele>831.6</ele>
        <time>2019-05-12T13:13:28Z</time>
      </trkpt>
      <trkpt lat="38.7032240" lon="-0.6621030">
        <ele>832.6</ele>
        <time>2019-05-12T13:13:32Z</time>
      </trkpt>
      <trkpt lat="38.7031730" lon="-0.6621010">
        <ele>833.6</ele>
        <time>2019-05-12T13:13:35Z</time>
      </trkpt>
      <trkpt lat="38.7031090" lon="-0.6620980">
        <ele>834.2</ele>
        <time>2019-05-12T13:13:39Z</time>
      </trkpt>
      <trkpt lat="38.7030820" lon="-0.6620930">
        <ele>835.0</ele>
        <time>2019-05-12T13:13:41Z</time>
      </trkpt>
      <trkpt lat="38.7030100" lon="-0.6620910">
        <ele>836.0</ele>
        <time>2019-05-12T13:13:46Z</time>
      </trkpt>
      <trkpt lat="38.7029960" lon="-0.6620920">
        <ele>836.2</ele>
        <time>2019-05-12T13:13:47Z</time>
      </trkpt>
      <trkpt lat="38.7029370" lon="-0.6620870">
        <ele>837.4</ele>
        <time>2019-05-12T13:13:51Z</time>
      </trkpt>
      <trkpt lat="38.7028930" lon="-0.6620790">
        <ele>837.8</ele>
        <time>2019-05-12T13:13:54Z</time>
      </trkpt>
      <trkpt lat="38.7028480" lon="-0.6620740">
        <ele>838.6</ele>
        <time>2019-05-12T13:13:57Z</time>
      </trkpt>
      <trkpt lat="38.7027820" lon="-0.6620620">
        <ele>839.4</ele>
        <time>2019-05-12T13:14:02Z</time>
      </trkpt>
      <trkpt lat="38.7027680" lon="-0.6620540">
        <ele>839.8</ele>
        <time>2019-05-12T13:14:03Z</time>
      </trkpt>
      <trkpt lat="38.7027360" lon="-0.6620350">
        <ele>840.8</ele>
        <time>2019-05-12T13:14:06Z</time>
      </trkpt>
      <trkpt lat="38.7026980" lon="-0.6620100">
        <ele>841.6</ele>
        <time>2019-05-12T13:14:09Z</time>
      </trkpt>
      <trkpt lat="38.7026880" lon="-0.6619990">
        <ele>842.0</ele>
        <time>2019-05-12T13:14:10Z</time>
      </trkpt>
      <trkpt lat="38.7026770" lon="-0.6619710">
        <ele>843.0</ele>
        <time>2019-05-12T13:14:12Z</time>
      </trkpt>
      <trkpt lat="38.7026720" lon="-0.6619240">
        <ele>844.4</ele>
        <time>2019-05-12T13:14:15Z</time>
      </trkpt>
      <trkpt lat="38.7026750" lon="-0.6619100">
        <ele>844.8</ele>
        <time>2019-05-12T13:14:16Z</time>
      </trkpt>
      <trkpt lat="38.7027000" lon="-0.6618620">
        <ele>845.4</ele>
        <time>2019-05-12T13:14:19Z</time>
      </trkpt>
      <trkpt lat="38.7027250" lon="-0.6618150">
        <ele>846.0</ele>
        <time>2019-05-12T13:14:22Z</time>
      </trkpt>
      <trkpt lat="38.7027500" lon="-0.6617270">
        <ele>846.6</ele>
        <time>2019-05-12T13:14:27Z</time>
      </trkpt>
      <trkpt lat="38.7027510" lon="-0.6617090">
        <ele>846.6</ele>
        <time>2019-05-12T13:14:28Z</time>
      </trkpt>
      <trkpt lat="38.7027690" lon="-0.6616540">
        <ele>847.4</ele>
        <time>2019-05-12T13:14:32Z</time>
      </trkpt>
      <trkpt lat="38.7027730" lon="-0.6616380">
        <ele>847.6</ele>
        <time>2019-05-12T13:14:33Z</time>
      </trkpt>
      <trkpt lat="38.7027730" lon="-0.6616210">
        <ele>847.8</ele>
        <time>2019-05-12T13:14:34Z</time>
      </trkpt>
      <trkpt lat="38.7027820" lon="-0.6615890">
        <ele>848.2</ele>
        <time>2019-05-12T13:14:36Z</time>
      </trkpt>
      <trkpt lat="38.7028040" lon="-0.6615170">
        <ele>848.8</ele>
        <time>2019-05-12T13:14:40Z</time>
      </trkpt>
      <trkpt lat="38.7028060" lon="-0.6614960">
        <ele>848.8</ele>
        <time>2019-05-12T13:14:41Z</time>
      </trkpt>
      <trkpt lat="38.7028150" lon="-0.6614090">
        <ele>849.8</ele>
        <time>2019-05-12T13:14:45Z</time>
      </trkpt>
      <trkpt lat="38.7028070" lon="-0.6613650">
        <ele>849.8</ele>
        <time>2019-05-12T13:14:47Z</time>
      </trkpt>
      <trkpt lat="38.7027780" lon="-0.6612980">
        <ele>850.4</ele>
        <time>2019-05-12T13:14:51Z</time>
      </trkpt>
      <trkpt lat="38.7027590" lon="-0.6612720">
        <ele>851.0</ele>
        <time>2019-05-12T13:14:53Z</time>
      </trkpt>
      <trkpt lat="38.7026940" lon="-0.6612110">
        <ele>852.2</ele>
        <time>2019-05-12T13:14:58Z</time>
      </trkpt>
      <trkpt lat="38.7026810" lon="-0.6612050">
        <ele>852.2</ele>
        <time>2019-05-12T13:14:59Z</time>
      </trkpt>
      <trkpt lat="38.7025760" lon="-0.6611860">
        <ele>853.2</ele>
        <time>2019-05-12T13:15:05Z</time>
      </trkpt>
      <trkpt lat="38.7024650" lon="-0.6611940">
        <ele>853.8</ele>
        <time>2019-05-12T13:15:11Z</time>
      </trkpt>
      <trkpt lat="38.7023930" lon="-0.6611970">
        <ele>854.2</ele>
        <time>2019-05-12T13:15:15Z</time>
      </trkpt>
      <trkpt lat="38.7023550" lon="-0.6611990">
        <ele>854.4</ele>
        <time>2019-05-12T13:15:17Z</time>
      </trkpt>
      <trkpt lat="38.7022690" lon="-0.6612090">
        <ele>855.6</ele>
        <time>2019-05-12T13:15:22Z</time>
      </trkpt>
      <trkpt lat="38.7022320" lon="-0.6612110">
        <ele>856.2</ele>
        <time>2019-05-12T13:15:24Z</time>
      </trkpt>
      <trkpt lat="38.7021990" lon="-0.6612230">
        <ele>856.6</ele>
        <time>2019-05-12T13:15:26Z</time>
      </trkpt>
      <trkpt lat="38.7021450" lon="-0.6612190">
        <ele>857.4</ele>
        <time>2019-05-12T13:15:29Z</time>
      </trkpt>
      <trkpt lat="38.7021080" lon="-0.6612250">
        <ele>857.8</ele>
        <time>2019-05-12T13:15:31Z</time>
      </trkpt>
      <trkpt lat="38.7020160" lon="-0.6612270">
        <ele>858.8</ele>
        <time>2019-05-12T13:15:36Z</time>
      </trkpt>
      <trkpt lat="38.7019980" lon="-0.6612290">
        <ele>859.0</ele>
        <time>2019-05-12T13:15:37Z</time>
      </trkpt>
      <trkpt lat="38.7018820" lon="-0.6612280">
        <ele>860.0</ele>
        <time>2019-05-12T13:15:44Z</time>
      </trkpt>
      <trkpt lat="38.7018640" lon="-0.6612280">
        <ele>860.2</ele>
        <time>2019-05-12T13:15:45Z</time>
      </trkpt>
      <trkpt lat="38.7017470" lon="-0.6612220">
        <ele>861.4</ele>
        <time>2019-05-12T13:15:51Z</time>
      </trkpt>
      <trkpt lat="38.7017260" lon="-0.6612220">
        <ele>861.6</ele>
        <time>2019-05-12T13:15:52Z</time>
      </trkpt>
      <trkpt lat="38.7015800" lon="-0.6612140">
        <ele>861.8</ele>
        <time>2019-05-12T13:15:59Z</time>
      </trkpt>
      <trkpt lat="38.7014650" lon="-0.6612130">
        <ele>862.6</ele>
        <time>2019-05-12T13:16:05Z</time>
      </trkpt>
      <trkpt lat="38.7014240" lon="-0.6612150">
        <ele>862.6</ele>
        <time>2019-05-12T13:16:07Z</time>
      </trkpt>
      <trkpt lat="38.7013320" lon="-0.6612150">
        <ele>863.8</ele>
        <time>2019-05-12T13:16:12Z</time>
      </trkpt>
      <trkpt lat="38.7012910" lon="-0.6612140">
        <ele>864.0</ele>
        <time>2019-05-12T13:16:14Z</time>
      </trkpt>
      <trkpt lat="38.7011860" lon="-0.6612210">
        <ele>864.8</ele>
        <time>2019-05-12T13:16:19Z</time>
      </trkpt>
      <trkpt lat="38.7011620" lon="-0.6612220">
        <ele>865.0</ele>
        <time>2019-05-12T13:16:20Z</time>
      </trkpt>
      <trkpt lat="38.7010560" lon="-0.6612880">
        <ele>865.8</ele>
        <time>2019-05-12T13:16:26Z</time>
      </trkpt>
      <trkpt lat="38.7010430" lon="-0.6613070">
        <ele>866.0</ele>
        <time>2019-05-12T13:16:27Z</time>
      </trkpt>
      <trkpt lat="38.7010210" lon="-0.6613440">
        <ele>867.2</ele>
        <time>2019-05-12T13:16:29Z</time>
      </trkpt>
      <trkpt lat="38.7009910" lon="-0.6614070">
        <ele>867.6</ele>
        <time>2019-05-12T13:16:32Z</time>
      </trkpt>
      <trkpt lat="38.7009430" lon="-0.6614940">
        <ele>868.2</ele>
        <time>2019-05-12T13:16:36Z</time>
      </trkpt>
      <trkpt lat="38.7008940" lon="-0.6615420">
        <ele>868.6</ele>
        <time>2019-05-12T13:16:39Z</time>
      </trkpt>
      <trkpt lat="38.7008460" lon="-0.6615810">
        <ele>869.2</ele>
        <time>2019-05-12T13:16:42Z</time>
      </trkpt>
      <trkpt lat="38.7007740" lon="-0.6616280">
        <ele>870.4</ele>
        <time>2019-05-12T13:16:46Z</time>
      </trkpt>
      <trkpt lat="38.7006450" lon="-0.6617180">
        <ele>871.2</ele>
        <time>2019-05-12T13:16:53Z</time>
      </trkpt>
      <trkpt lat="38.7006140" lon="-0.6617540">
        <ele>871.4</ele>
        <time>2019-05-12T13:16:55Z</time>
      </trkpt>
      <trkpt lat="38.7005450" lon="-0.6618400">
        <ele>871.8</ele>
        <time>2019-05-12T13:16:59Z</time>
      </trkpt>
      <trkpt lat="38.7004490" lon="-0.6619740">
        <ele>872.4</ele>
        <time>2019-05-12T13:17:05Z</time>
      </trkpt>
      <trkpt lat="38.7004330" lon="-0.6619960">
        <ele>872.6</ele>
        <time>2019-05-12T13:17:06Z</time>
      </trkpt>
      <trkpt lat="38.7003320" lon="-0.6621320">
        <ele>873.0</ele>
        <time>2019-05-12T13:17:12Z</time>
      </trkpt>
      <trkpt lat="38.7002660" lon="-0.6621730">
        <ele>873.6</ele>
        <time>2019-05-12T13:17:15Z</time>
      </trkpt>
      <trkpt lat="38.7001690" lon="-0.6622030">
        <ele>873.8</ele>
        <time>2019-05-12T13:17:19Z</time>
      </trkpt>
      <trkpt lat="38.7000130" lon="-0.6623170">
        <ele>874.4</ele>
        <time>2019-05-12T13:17:26Z</time>
      </trkpt>
      <trkpt lat="38.6999920" lon="-0.6623360">
        <ele>874.6</ele>
        <time>2019-05-12T13:17:27Z</time>
      </trkpt>
      <trkpt lat="38.6998980" lon="-0.6624410">
        <ele>876.0</ele>
        <time>2019-05-12T13:17:32Z</time>
      </trkpt>
      <trkpt lat="38.6998850" lon="-0.6624700">
        <ele>876.2</ele>
        <time>2019-05-12T13:17:33Z</time>
      </trkpt>
      <trkpt lat="38.6998140" lon="-0.6626120">
        <ele>877.0</ele>
        <time>2019-05-12T13:17:38Z</time>
      </trkpt>
      <trkpt lat="38.6997970" lon="-0.6626740">
        <ele>877.6</ele>
        <time>2019-05-12T13:17:40Z</time>
      </trkpt>
      <trkpt lat="38.6997740" lon="-0.6628040">
        <ele>878.0</ele>
        <time>2019-05-12T13:17:44Z</time>
      </trkpt>
      <trkpt lat="38.6997530" lon="-0.6628880">
        <ele>878.4</ele>
        <time>2019-05-12T13:17:47Z</time>
      </trkpt>
      <trkpt lat="38.6997180" lon="-0.6629640">
        <ele>879.2</ele>
        <time>2019-05-12T13:17:50Z</time>
      </trkpt>
      <trkpt lat="38.6996590" lon="-0.6630220">
        <ele>879.4</ele>
        <time>2019-05-12T13:17:53Z</time>
      </trkpt>
      <trkpt lat="38.6995890" lon="-0.6631150">
        <ele>880.4</ele>
        <time>2019-05-12T13:17:57Z</time>
      </trkpt>
      <trkpt lat="38.6995570" lon="-0.6631690">
        <ele>880.4</ele>
        <time>2019-05-12T13:17:59Z</time>
      </trkpt>
      <trkpt lat="38.6994370" lon="-0.6633190">
        <ele>880.8</ele>
        <time>2019-05-12T13:18:05Z</time>
      </trkpt>
      <trkpt lat="38.6992570" lon="-0.6634990">
        <ele>880.8</ele>
        <time>2019-05-12T13:18:12Z</time>
      </trkpt>
      <trkpt lat="38.6991630" lon="-0.6636120">
        <ele>881.6</ele>
        <time>2019-05-12T13:18:16Z</time>
      </trkpt>
      <trkpt lat="38.6991120" lon="-0.6636660">
        <ele>881.6</ele>
        <time>2019-05-12T13:18:18Z</time>
      </trkpt>
      <trkpt lat="38.6989520" lon="-0.6638700">
        <ele>882.2</ele>
        <time>2019-05-12T13:18:25Z</time>
      </trkpt>
      <trkpt lat="38.6989140" lon="-0.6639270">
        <ele>882.8</ele>
        <time>2019-05-12T13:18:27Z</time>
      </trkpt>
      <trkpt lat="38.6988140" lon="-0.6640820">
        <ele>883.6</ele>
        <time>2019-05-12T13:18:32Z</time>
      </trkpt>
      <trkpt lat="38.6987560" lon="-0.6641690">
        <ele>883.8</ele>
        <time>2019-05-12T13:18:35Z</time>
      </trkpt>
      <trkpt lat="38.6986420" lon="-0.6643330">
        <ele>885.0</ele>
        <time>2019-05-12T13:18:41Z</time>
      </trkpt>
      <trkpt lat="38.6984980" lon="-0.6645770">
        <ele>885.8</ele>
        <time>2019-05-12T13:18:49Z</time>
      </trkpt>
      <trkpt lat="38.6984850" lon="-0.6646140">
        <ele>886.0</ele>
        <time>2019-05-12T13:18:50Z</time>
      </trkpt>
      <trkpt lat="38.6983950" lon="-0.6648260">
        <ele>886.0</ele>
        <time>2019-05-12T13:18:56Z</time>
      </trkpt>
      <trkpt lat="38.6982830" lon="-0.6650720">
        <ele>886.8</ele>
        <time>2019-05-12T13:19:03Z</time>
      </trkpt>
      <trkpt lat="38.6981570" lon="-0.6653900">
        <ele>887.0</ele>
        <time>2019-05-12T13:19:11Z</time>
      </trkpt>
      <trkpt lat="38.6980270" lon="-0.6656370">
        <ele>886.8</ele>
        <time>2019-05-12T13:19:18Z</time>
      </trkpt>
      <trkpt lat="38.6978250" lon="-0.6658150">
        <ele>887.2</ele>
        <time>2019-05-12T13:19:24Z</time>
      </trkpt>
      <trkpt lat="38.6976930" lon="-0.6660020">
        <ele>888.0</ele>
        <time>2019-05-12T13:19:29Z</time>
      </trkpt>
      <trkpt lat="38.6976500" lon="-0.6660820">
        <ele>888.2</ele>
        <time>2019-05-12T13:19:31Z</time>
      </trkpt>
      <trkpt lat="38.6975650" lon="-0.6662910">
        <ele>888.4</ele>
        <time>2019-05-12T13:19:36Z</time>
      </trkpt>
      <trkpt lat="38.6975390" lon="-0.6664200">
        <ele>889.2</ele>
        <time>2019-05-12T13:19:39Z</time>
      </trkpt>
      <trkpt lat="38.6974920" lon="-0.6665620">
        <ele>890.4</ele>
        <time>2019-05-12T13:19:43Z</time>
      </trkpt>
      <trkpt lat="38.6973680" lon="-0.6667370">
        <ele>890.6</ele>
        <time>2019-05-12T13:19:49Z</time>
      </trkpt>
      <trkpt lat="38.6972860" lon="-0.6668220">
        <ele>892.0</ele>
        <time>2019-05-12T13:19:52Z</time>
      </trkpt>
      <trkpt lat="38.6972220" lon="-0.6668870">
        <ele>893.0</ele>
        <time>2019-05-12T13:19:56Z</time>
      </trkpt>
      <trkpt lat="38.6972050" lon="-0.6669120">
        <ele>893.2</ele>
        <time>2019-05-12T13:19:57Z</time>
      </trkpt>
      <trkpt lat="38.6971410" lon="-0.6669860">
        <ele>894.4</ele>
        <time>2019-05-12T13:20:00Z</time>
      </trkpt>
      <trkpt lat="38.6970780" lon="-0.6670730">
        <ele>894.4</ele>
        <time>2019-05-12T13:20:03Z</time>
      </trkpt>
      <trkpt lat="38.6969620" lon="-0.6672490">
        <ele>895.6</ele>
        <time>2019-05-12T13:20:09Z</time>
      </trkpt>
      <trkpt lat="38.6969350" lon="-0.6673160">
        <ele>896.6</ele>
        <time>2019-05-12T13:20:11Z</time>
      </trkpt>
      <trkpt lat="38.6969250" lon="-0.6673530">
        <ele>896.8</ele>
        <time>2019-05-12T13:20:12Z</time>
      </trkpt>
      <trkpt lat="38.6968980" lon="-0.6675540">
        <ele>897.8</ele>
        <time>2019-05-12T13:20:18Z</time>
      </trkpt>
      <trkpt lat="38.6969020" lon="-0.6675870">
        <ele>898.2</ele>
        <time>2019-05-12T13:20:19Z</time>
      </trkpt>
      <trkpt lat="38.6969380" lon="-0.6677620">
        <ele>899.2</ele>
        <time>2019-05-12T13:20:24Z</time>
      </trkpt>
      <trkpt lat="38.6969490" lon="-0.6677960">
        <ele>899.4</ele>
        <time>2019-05-12T13:20:25Z</time>
      </trkpt>
      <trkpt lat="38.6969890" lon="-0.6678900">
        <ele>900.2</ele>
        <time>2019-05-12T13:20:28Z</time>
      </trkpt>
      <trkpt lat="38.6970500" lon="-0.6679880">
        <ele>901.0</ele>
        <time>2019-05-12T13:20:32Z</time>
      </trkpt>
      <trkpt lat="38.6970630" lon="-0.6680140">
        <ele>901.4</ele>
        <time>2019-05-12T13:20:33Z</time>
      </trkpt>
      <trkpt lat="38.6971680" lon="-0.6681230">
        <ele>902.6</ele>
        <time>2019-05-12T13:20:39Z</time>
      </trkpt>
      <trkpt lat="38.6972690" lon="-0.6681780">
        <ele>903.8</ele>
        <time>2019-05-12T13:20:44Z</time>
      </trkpt>
      <trkpt lat="38.6973010" lon="-0.6682150">
        <ele>903.8</ele>
        <time>2019-05-12T13:20:46Z</time>
      </trkpt>
      <trkpt lat="38.6973470" lon="-0.6682990">
        <ele>904.8</ele>
        <time>2019-05-12T13:20:50Z</time>
      </trkpt>
      <trkpt lat="38.6973960" lon="-0.6683910">
        <ele>906.0</ele>
        <time>2019-05-12T13:20:54Z</time>
      </trkpt>
      <trkpt lat="38.6975190" lon="-0.6684800">
        <ele>907.0</ele>
        <time>2019-05-12T13:21:00Z</time>
      </trkpt>
      <trkpt lat="38.6976170" lon="-0.6686150">
        <ele>908.2</ele>
        <time>2019-05-12T13:21:06Z</time>
      </trkpt>
      <trkpt lat="38.6976910" lon="-0.6687660">
        <ele>909.2</ele>
        <time>2019-05-12T13:21:12Z</time>
      </trkpt>
      <trkpt lat="38.6977140" lon="-0.6688130">
        <ele>910.0</ele>
        <time>2019-05-12T13:21:14Z</time>
      </trkpt>
      <trkpt lat="38.6977500" lon="-0.6688830">
        <ele>910.6</ele>
        <time>2019-05-12T13:21:17Z</time>
      </trkpt>
      <trkpt lat="38.6977800" lon="-0.6689880">
        <ele>911.4</ele>
        <time>2019-05-12T13:21:21Z</time>
      </trkpt>
      <trkpt lat="38.6977870" lon="-0.6690110">
        <ele>911.6</ele>
        <time>2019-05-12T13:21:22Z</time>
      </trkpt>
      <trkpt lat="38.6978050" lon="-0.6691150">
        <ele>912.8</ele>
        <time>2019-05-12T13:21:26Z</time>
      </trkpt>
      <trkpt lat="38.6978250" lon="-0.6691840">
        <ele>913.6</ele>
        <time>2019-05-12T13:21:29Z</time>
      </trkpt>
      <trkpt lat="38.6978500" lon="-0.6692240">
        <ele>913.8</ele>
        <time>2019-05-12T13:21:31Z</time>
      </trkpt>
      <trkpt lat="38.6978840" lon="-0.6693110">
        <ele>915.0</ele>
        <time>2019-05-12T13:21:35Z</time>
      </trkpt>
      <trkpt lat="38.6978930" lon="-0.6693350">
        <ele>915.2</ele>
        <time>2019-05-12T13:21:36Z</time>
      </trkpt>
      <trkpt lat="38.6978990" lon="-0.6693780">
        <ele>916.4</ele>
        <time>2019-05-12T13:21:38Z</time>
      </trkpt>
      <trkpt lat="38.6979320" lon="-0.6694500">
        <ele>916.8</ele>
        <time>2019-05-12T13:21:41Z</time>
      </trkpt>
      <trkpt lat="38.6979640" lon="-0.6694810">
        <ele>917.6</ele>
        <time>2019-05-12T13:21:43Z</time>
      </trkpt>
      <trkpt lat="38.6980210" lon="-0.6694970">
        <ele>918.2</ele>
        <time>2019-05-12T13:21:46Z</time>
      </trkpt>
      <trkpt lat="38.6981050" lon="-0.6695330">
        <ele>918.8</ele>
        <time>2019-05-12T13:21:50Z</time>
      </trkpt>
      <trkpt lat="38.6981820" lon="-0.6695960">
        <ele>919.2</ele>
        <time>2019-05-12T13:21:54Z</time>
      </trkpt>
      <trkpt lat="38.6982340" lon="-0.6696510">
        <ele>919.8</ele>
        <time>2019-05-12T13:21:58Z</time>
      </trkpt>
      <trkpt lat="38.6982480" lon="-0.6696910">
        <ele>920.0</ele>
        <time>2019-05-12T13:22:00Z</time>
      </trkpt>
      <trkpt lat="38.6982550" lon="-0.6697110">
        <ele>920.0</ele>
        <time>2019-05-12T13:22:01Z</time>
      </trkpt>
      <trkpt lat="38.6982710" lon="-0.6697430">
        <ele>921.0</ele>
        <time>2019-05-12T13:22:03Z</time>
      </trkpt>
      <trkpt lat="38.6982980" lon="-0.6698190">
        <ele>921.0</ele>
        <time>2019-05-12T13:22:07Z</time>
      </trkpt>
      <trkpt lat="38.6983030" lon="-0.6698740">
        <ele>920.8</ele>
        <time>2019-05-12T13:22:09Z</time>
      </trkpt>
      <trkpt lat="38.6982980" lon="-0.6699260">
        <ele>921.6</ele>
        <time>2019-05-12T13:22:12Z</time>
      </trkpt>
      <trkpt lat="38.6982900" lon="-0.6699410">
        <ele>921.6</ele>
        <time>2019-05-12T13:22:13Z</time>
      </trkpt>
      <trkpt lat="38.6982760" lon="-0.6699720">
        <ele>922.0</ele>
        <time>2019-05-12T13:22:15Z</time>
      </trkpt>
      <trkpt lat="38.6982340" lon="-0.6700180">
        <ele>922.4</ele>
        <time>2019-05-12T13:22:18Z</time>
      </trkpt>
      <trkpt lat="38.6981620" lon="-0.6700790">
        <ele>923.0</ele>
        <time>2019-05-12T13:22:22Z</time>
      </trkpt>
      <trkpt lat="38.6981250" lon="-0.6701240">
        <ele>923.8</ele>
        <time>2019-05-12T13:22:24Z</time>
      </trkpt>
      <trkpt lat="38.6980750" lon="-0.6702240">
        <ele>925.0</ele>
        <time>2019-05-12T13:22:28Z</time>
      </trkpt>
      <trkpt lat="38.6980580" lon="-0.6702670">
        <ele>925.4</ele>
        <time>2019-05-12T13:22:30Z</time>
      </trkpt>
      <trkpt lat="38.6980140" lon="-0.6703750">
        <ele>926.0</ele>
        <time>2019-05-12T13:22:35Z</time>
      </trkpt>
      <trkpt lat="38.6980000" lon="-0.6704330">
        <ele>926.4</ele>
        <time>2019-05-12T13:22:37Z</time>
      </trkpt>
      <trkpt lat="38.6979680" lon="-0.6705180">
        <ele>927.0</ele>
        <time>2019-05-12T13:22:40Z</time>
      </trkpt>
      <trkpt lat="38.6979110" lon="-0.6705980">
        <ele>927.6</ele>
        <time>2019-05-12T13:22:44Z</time>
      </trkpt>
      <trkpt lat="38.6978810" lon="-0.6706360">
        <ele>927.6</ele>
        <time>2019-05-12T13:22:46Z</time>
      </trkpt>
      <trkpt lat="38.6978470" lon="-0.6706850">
        <ele>927.8</ele>
        <time>2019-05-12T13:22:48Z</time>
      </trkpt>
      <trkpt lat="38.6978280" lon="-0.6707110">
        <ele>928.0</ele>
        <time>2019-05-12T13:22:49Z</time>
      </trkpt>
      <trkpt lat="38.6977200" lon="-0.6708860">
        <ele>927.4</ele>
        <time>2019-05-12T13:22:55Z</time>
      </trkpt>
      <trkpt lat="38.6976000" lon="-0.6711650">
        <ele>927.4</ele>
        <time>2019-05-12T13:23:03Z</time>
      </trkpt>
      <trkpt lat="38.6974980" lon="-0.6713700">
        <ele>927.0</ele>
        <time>2019-05-12T13:23:09Z</time>
      </trkpt>
      <trkpt lat="38.6974590" lon="-0.6714310">
        <ele>927.2</ele>
        <time>2019-05-12T13:23:11Z</time>
      </trkpt>
      <trkpt lat="38.6974410" lon="-0.6714620">
        <ele>927.2</ele>
        <time>2019-05-12T13:23:12Z</time>
      </trkpt>
      <trkpt lat="38.6973420" lon="-0.6716840">
        <ele>927.0</ele>
        <time>2019-05-12T13:23:18Z</time>
      </trkpt>
      <trkpt lat="38.6972240" lon="-0.6719820">
        <ele>926.0</ele>
        <time>2019-05-12T13:23:24Z</time>
      </trkpt>
      <trkpt lat="38.6972160" lon="-0.6720360">
        <ele>925.8</ele>
        <time>2019-05-12T13:23:25Z</time>
      </trkpt>
      <trkpt lat="38.6971780" lon="-0.6721890">
        <ele>926.2</ele>
        <time>2019-05-12T13:23:28Z</time>
      </trkpt>
      <trkpt lat="38.6971580" lon="-0.6723030">
        <ele>926.6</ele>
        <time>2019-05-12T13:23:30Z</time>
      </trkpt>
      <trkpt lat="38.6971520" lon="-0.6723640">
        <ele>926.4</ele>
        <time>2019-05-12T13:23:31Z</time>
      </trkpt>
      <trkpt lat="38.6971090" lon="-0.6725910">
        <ele>926.0</ele>
        <time>2019-05-12T13:23:35Z</time>
      </trkpt>
      <trkpt lat="38.6970830" lon="-0.6727000">
        <ele>926.2</ele>
        <time>2019-05-12T13:23:37Z</time>
      </trkpt>
      <trkpt lat="38.6970760" lon="-0.6727530">
        <ele>926.2</ele>
        <time>2019-05-12T13:23:38Z</time>
      </trkpt>
      <trkpt lat="38.6970900" lon="-0.6728570">
        <ele>926.2</ele>
        <time>2019-05-12T13:23:40Z</time>
      </trkpt>
      <trkpt lat="38.6971370" lon="-0.6729940">
        <ele>926.6</ele>
        <time>2019-05-12T13:23:43Z</time>
      </trkpt>
      <trkpt lat="38.6971620" lon="-0.6730710">
        <ele>927.0</ele>
        <time>2019-05-12T13:23:45Z</time>
      </trkpt>
      <trkpt lat="38.6971740" lon="-0.6731160">
        <ele>927.2</ele>
        <time>2019-05-12T13:23:46Z</time>
      </trkpt>
      <trkpt lat="38.6971960" lon="-0.6732590">
        <ele>926.8</ele>
        <time>2019-05-12T13:23:49Z</time>
      </trkpt>
      <trkpt lat="38.6971890" lon="-0.6733750">
        <ele>926.8</ele>
        <time>2019-05-12T13:23:51Z</time>
      </trkpt>
      <trkpt lat="38.6971480" lon="-0.6735490">
        <ele>926.2</ele>
        <time>2019-05-12T13:23:54Z</time>
      </trkpt>
      <trkpt lat="38.6971140" lon="-0.6736950">
        <ele>926.4</ele>
        <time>2019-05-12T13:23:56Z</time>
      </trkpt>
      <trkpt lat="38.6970800" lon="-0.6738160">
        <ele>926.6</ele>
        <time>2019-05-12T13:23:59Z</time>
      </trkpt>
      <trkpt lat="38.6969980" lon="-0.6740110">
        <ele>926.6</ele>
        <time>2019-05-12T13:24:03Z</time>
      </trkpt>
      <trkpt lat="38.6969070" lon="-0.6742200">
        <ele>925.8</ele>
        <time>2019-05-12T13:24:07Z</time>
      </trkpt>
      <trkpt lat="38.6968580" lon="-0.6743170">
        <ele>925.4</ele>
        <time>2019-05-12T13:24:09Z</time>
      </trkpt>
      <trkpt lat="38.6968280" lon="-0.6743640">
        <ele>925.4</ele>
        <time>2019-05-12T13:24:10Z</time>
      </trkpt>
      <trkpt lat="38.6966920" lon="-0.6745230">
        <ele>927.0</ele>
        <time>2019-05-12T13:24:15Z</time>
      </trkpt>
      <trkpt lat="38.6966090" lon="-0.6745790">
        <ele>928.2</ele>
        <time>2019-05-12T13:24:18Z</time>
      </trkpt>
      <trkpt lat="38.6965610" lon="-0.6746070">
        <ele>929.0</ele>
        <time>2019-05-12T13:24:20Z</time>
      </trkpt>
      <trkpt lat="38.6965360" lon="-0.6746280">
        <ele>929.4</ele>
        <time>2019-05-12T13:24:21Z</time>
      </trkpt>
      <trkpt lat="38.6964260" lon="-0.6747390">
        <ele>930.4</ele>
        <time>2019-05-12T13:24:26Z</time>
      </trkpt>
      <trkpt lat="38.6963370" lon="-0.6748460">
        <ele>931.6</ele>
        <time>2019-05-12T13:24:31Z</time>
      </trkpt>
      <trkpt lat="38.6963140" lon="-0.6748610">
        <ele>931.6</ele>
        <time>2019-05-12T13:24:32Z</time>
      </trkpt>
      <trkpt lat="38.6962950" lon="-0.6748660">
        <ele>932.8</ele>
        <time>2019-05-12T13:24:33Z</time>
      </trkpt>
      <trkpt lat="38.6962360" lon="-0.6748950">
        <ele>933.8</ele>
        <time>2019-05-12T13:24:36Z</time>
      </trkpt>
      <trkpt lat="38.6961720" lon="-0.6749270">
        <ele>934.4</ele>
        <time>2019-05-12T13:24:39Z</time>
      </trkpt>
      <trkpt lat="38.6961320" lon="-0.6749580">
        <ele>934.4</ele>
        <time>2019-05-12T13:24:41Z</time>
      </trkpt>
      <trkpt lat="38.6960880" lon="-0.6749750">
        <ele>934.8</ele>
        <time>2019-05-12T13:24:43Z</time>
      </trkpt>
      <trkpt lat="38.6960140" lon="-0.6749750">
        <ele>935.6</ele>
        <time>2019-05-12T13:24:46Z</time>
      </trkpt>
      <trkpt lat="38.6959890" lon="-0.6749840">
        <ele>936.0</ele>
        <time>2019-05-12T13:24:47Z</time>
      </trkpt>
      <trkpt lat="38.6958490" lon="-0.6750230">
        <ele>936.2</ele>
        <time>2019-05-12T13:24:52Z</time>
      </trkpt>
      <trkpt lat="38.6957000" lon="-0.6750730">
        <ele>937.4</ele>
        <time>2019-05-12T13:24:58Z</time>
      </trkpt>
      <trkpt lat="38.6956280" lon="-0.6751630">
        <ele>938.4</ele>
        <time>2019-05-12T13:25:02Z</time>
      </trkpt>
      <trkpt lat="38.6956100" lon="-0.6751840">
        <ele>938.8</ele>
        <time>2019-05-12T13:25:03Z</time>
      </trkpt>
      <trkpt lat="38.6955260" lon="-0.6752630">
        <ele>939.6</ele>
        <time>2019-05-12T13:25:07Z</time>
      </trkpt>
      <trkpt lat="38.6954870" lon="-0.6752990">
        <ele>940.2</ele>
        <time>2019-05-12T13:25:09Z</time>
      </trkpt>
      <trkpt lat="38.6954390" lon="-0.6753100">
        <ele>940.6</ele>
        <time>2019-05-12T13:25:11Z</time>
      </trkpt>
      <trkpt lat="38.6953330" lon="-0.6753180">
        <ele>941.2</ele>
        <time>2019-05-12T13:25:15Z</time>
      </trkpt>
      <trkpt lat="38.6952190" lon="-0.6753110">
        <ele>941.8</ele>
        <time>2019-05-12T13:25:19Z</time>
      </trkpt>
      <trkpt lat="38.6950490" lon="-0.6752270">
        <ele>941.4</ele>
        <time>2019-05-12T13:25:25Z</time>
      </trkpt>
      <trkpt lat="38.6948760" lon="-0.6750600">
        <ele>941.4</ele>
        <time>2019-05-12T13:25:31Z</time>
      </trkpt>
      <trkpt lat="38.6947120" lon="-0.6749410">
        <ele>941.4</ele>
        <time>2019-05-12T13:25:36Z</time>
      </trkpt>
      <trkpt lat="38.6945580" lon="-0.6748030">
        <ele>941.4</ele>
        <time>2019-05-12T13:25:41Z</time>
      </trkpt>
      <trkpt lat="38.6945340" lon="-0.6747710">
        <ele>941.2</ele>
        <time>2019-05-12T13:25:42Z</time>
      </trkpt>
      <trkpt lat="38.6944050" lon="-0.6746740">
        <ele>941.2</ele>
        <time>2019-05-12T13:25:46Z</time>
      </trkpt>
      <trkpt lat="38.6943630" lon="-0.6746750">
        <ele>940.8</ele>
        <time>2019-05-12T13:25:47Z</time>
      </trkpt>
      <trkpt lat="38.6943210" lon="-0.6746880">
        <ele>940.2</ele>
        <time>2019-05-12T13:25:48Z</time>
      </trkpt>
      <trkpt lat="38.6942550" lon="-0.6747560">
        <ele>940.6</ele>
        <time>2019-05-12T13:25:50Z</time>
      </trkpt>
      <trkpt lat="38.6941620" lon="-0.6748430">
        <ele>941.2</ele>
        <time>2019-05-12T13:25:53Z</time>
      </trkpt>
      <trkpt lat="38.6941290" lon="-0.6748630">
        <ele>941.4</ele>
        <time>2019-05-12T13:25:54Z</time>
      </trkpt>
      <trkpt lat="38.6940360" lon="-0.6749130">
        <ele>942.4</ele>
        <time>2019-05-12T13:25:57Z</time>
      </trkpt>
      <trkpt lat="38.6939350" lon="-0.6749510">
        <ele>942.8</ele>
        <time>2019-05-12T13:26:00Z</time>
      </trkpt>
      <trkpt lat="38.6937330" lon="-0.6750550">
        <ele>943.0</ele>
        <time>2019-05-12T13:26:06Z</time>
      </trkpt>
      <trkpt lat="38.6936160" lon="-0.6751990">
        <ele>943.0</ele>
        <time>2019-05-12T13:26:10Z</time>
      </trkpt>
      <trkpt lat="38.6935930" lon="-0.6752430">
        <ele>942.8</ele>
        <time>2019-05-12T13:26:11Z</time>
      </trkpt>
      <trkpt lat="38.6935430" lon="-0.6753300">
        <ele>943.0</ele>
        <time>2019-05-12T13:26:13Z</time>
      </trkpt>
      <trkpt lat="38.6934050" lon="-0.6754580">
        <ele>943.6</ele>
        <time>2019-05-12T13:26:17Z</time>
      </trkpt>
      <trkpt lat="38.6932090" lon="-0.6756180">
        <ele>943.8</ele>
        <time>2019-05-12T13:26:23Z</time>
      </trkpt>
      <trkpt lat="38.6930690" lon="-0.6757630">
        <ele>944.6</ele>
        <time>2019-05-12T13:26:28Z</time>
      </trkpt>
      <trkpt lat="38.6930560" lon="-0.6758020">
        <ele>945.0</ele>
        <time>2019-05-12T13:26:29Z</time>
      </trkpt>
      <trkpt lat="38.6930350" lon="-0.6758810">
        <ele>945.6</ele>
        <time>2019-05-12T13:26:31Z</time>
      </trkpt>
      <trkpt lat="38.6929740" lon="-0.6759570">
        <ele>946.2</ele>
        <time>2019-05-12T13:26:34Z</time>
      </trkpt>
      <trkpt lat="38.6929370" lon="-0.6760000">
        <ele>946.8</ele>
        <time>2019-05-12T13:26:36Z</time>
      </trkpt>
      <trkpt lat="38.6928750" lon="-0.6760690">
        <ele>947.8</ele>
        <time>2019-05-12T13:26:39Z</time>
      </trkpt>
      <trkpt lat="38.6928510" lon="-0.6762420">
        <ele>948.6</ele>
        <time>2019-05-12T13:26:44Z</time>
      </trkpt>
      <trkpt lat="38.6928550" lon="-0.6763070">
        <ele>948.8</ele>
        <time>2019-05-12T13:26:46Z</time>
      </trkpt>
      <trkpt lat="38.6928530" lon="-0.6764380">
        <ele>949.4</ele>
        <time>2019-05-12T13:26:50Z</time>
      </trkpt>
      <trkpt lat="38.6928250" lon="-0.6765350">
        <ele>949.8</ele>
        <time>2019-05-12T13:26:53Z</time>
      </trkpt>
      <trkpt lat="38.6927960" lon="-0.6766330">
        <ele>950.6</ele>
        <time>2019-05-12T13:26:56Z</time>
      </trkpt>
      <trkpt lat="38.6927310" lon="-0.6767350">
        <ele>951.0</ele>
        <time>2019-05-12T13:27:00Z</time>
      </trkpt>
      <trkpt lat="38.6927120" lon="-0.6767560">
        <ele>951.4</ele>
        <time>2019-05-12T13:27:01Z</time>
      </trkpt>
      <trkpt lat="38.6926580" lon="-0.6768250">
        <ele>952.2</ele>
        <time>2019-05-12T13:27:04Z</time>
      </trkpt>
      <trkpt lat="38.6926060" lon="-0.6769250">
        <ele>953.2</ele>
        <time>2019-05-12T13:27:08Z</time>
      </trkpt>
      <trkpt lat="38.6925110" lon="-0.6770740">
        <ele>954.4</ele>
        <time>2019-05-12T13:27:14Z</time>
      </trkpt>
      <trkpt lat="38.6923950" lon="-0.6771770">
        <ele>955.6</ele>
        <time>2019-05-12T13:27:20Z</time>
      </trkpt>
      <trkpt lat="38.6923750" lon="-0.6771930">
        <ele>955.8</ele>
        <time>2019-05-12T13:27:21Z</time>
      </trkpt>
      <trkpt lat="38.6923240" lon="-0.6772570">
        <ele>956.6</ele>
        <time>2019-05-12T13:27:24Z</time>
      </trkpt>
      <trkpt lat="38.6922520" lon="-0.6773440">
        <ele>958.0</ele>
        <time>2019-05-12T13:27:28Z</time>
      </trkpt>
      <trkpt lat="38.6922140" lon="-0.6774070">
        <ele>959.0</ele>
        <time>2019-05-12T13:27:31Z</time>
      </trkpt>
      <trkpt lat="38.6921470" lon="-0.6774790">
        <ele>960.0</ele>
        <time>2019-05-12T13:27:35Z</time>
      </trkpt>
      <trkpt lat="38.6921240" lon="-0.6774830">
        <ele>959.8</ele>
        <time>2019-05-12T13:27:36Z</time>
      </trkpt>
      <trkpt lat="38.6921080" lon="-0.6774940">
        <ele>960.2</ele>
        <time>2019-05-12T13:27:37Z</time>
      </trkpt>
      <trkpt lat="38.6920710" lon="-0.6775280">
        <ele>960.4</ele>
        <time>2019-05-12T13:27:39Z</time>
      </trkpt>
      <trkpt lat="38.6920150" lon="-0.6775600">
        <ele>960.4</ele>
        <time>2019-05-12T13:27:42Z</time>
      </trkpt>
      <trkpt lat="38.6920010" lon="-0.6776070">
        <ele>960.2</ele>
        <time>2019-05-12T13:27:44Z</time>
      </trkpt>
      <trkpt lat="38.6920500" lon="-0.6776920">
        <ele>960.8</ele>
        <time>2019-05-12T13:27:48Z</time>
      </trkpt>
      <trkpt lat="38.6920700" lon="-0.6777070">
        <ele>960.8</ele>
        <time>2019-05-12T13:27:49Z</time>
      </trkpt>
      <trkpt lat="38.6920860" lon="-0.6777180">
        <ele>961.2</ele>
        <time>2019-05-12T13:27:50Z</time>
      </trkpt>
      <trkpt lat="38.6921650" lon="-0.6777760">
        <ele>961.4</ele>
        <time>2019-05-12T13:27:54Z</time>
      </trkpt>
      <trkpt lat="38.6922020" lon="-0.6778670">
        <ele>962.0</ele>
        <time>2019-05-12T13:27:58Z</time>
      </trkpt>
      <trkpt lat="38.6922040" lon="-0.6778910">
        <ele>962.2</ele>
        <time>2019-05-12T13:27:59Z</time>
      </trkpt>
      <trkpt lat="38.6921940" lon="-0.6779580">
        <ele>962.6</ele>
        <time>2019-05-12T13:28:02Z</time>
      </trkpt>
      <trkpt lat="38.6921770" lon="-0.6779950">
        <ele>962.6</ele>
        <time>2019-05-12T13:28:04Z</time>
      </trkpt>
      <trkpt lat="38.6920730" lon="-0.6781070">
        <ele>962.0</ele>
        <time>2019-05-12T13:28:09Z</time>
      </trkpt>
      <trkpt lat="38.6920460" lon="-0.6781400">
        <ele>961.6</ele>
        <time>2019-05-12T13:28:10Z</time>
      </trkpt>
      <trkpt lat="38.6919840" lon="-0.6782140">
        <ele>961.0</ele>
        <time>2019-05-12T13:28:12Z</time>
      </trkpt>
      <trkpt lat="38.6919320" lon="-0.6782990">
        <ele>960.8</ele>
        <time>2019-05-12T13:28:14Z</time>
      </trkpt>
      <trkpt lat="38.6918170" lon="-0.6784770">
        <ele>960.0</ele>
        <time>2019-05-12T13:28:19Z</time>
      </trkpt>
      <trkpt lat="38.6917250" lon="-0.6785920">
        <ele>959.0</ele>
        <time>2019-05-12T13:28:22Z</time>
      </trkpt>
      <trkpt lat="38.6916960" lon="-0.6786510">
        <ele>958.6</ele>
        <time>2019-05-12T13:28:23Z</time>
      </trkpt>
      <trkpt lat="38.6915190" lon="-0.6790250">
        <ele>958.8</ele>
        <time>2019-05-12T13:28:30Z</time>
      </trkpt>
      <trkpt lat="38.6914660" lon="-0.6791100">
        <ele>959.0</ele>
        <time>2019-05-12T13:28:32Z</time>
      </trkpt>
      <trkpt lat="38.6913750" lon="-0.6792110">
        <ele>959.6</ele>
        <time>2019-05-12T13:28:35Z</time>
      </trkpt>
      <trkpt lat="38.6913360" lon="-0.6792400">
        <ele>959.8</ele>
        <time>2019-05-12T13:28:36Z</time>
      </trkpt>
      <trkpt lat="38.6911650" lon="-0.6793610">
        <ele>959.6</ele>
        <time>2019-05-12T13:28:40Z</time>
      </trkpt>
      <trkpt lat="38.6910340" lon="-0.6794640">
        <ele>960.8</ele>
        <time>2019-05-12T13:28:44Z</time>
      </trkpt>
      <trkpt lat="38.6910070" lon="-0.6794900">
        <ele>961.2</ele>
        <time>2019-05-12T13:28:45Z</time>
      </trkpt>
      <trkpt lat="38.6908550" lon="-0.6795150">
        <ele>961.4</ele>
        <time>2019-05-12T13:28:49Z</time>
      </trkpt>
      <trkpt lat="38.6907070" lon="-0.6795550">
        <ele>961.8</ele>
        <time>2019-05-12T13:28:53Z</time>
      </trkpt>
      <trkpt lat="38.6906630" lon="-0.6795740">
        <ele>961.4</ele>
        <time>2019-05-12T13:28:54Z</time>
      </trkpt>
      <trkpt lat="38.6905200" lon="-0.6795920">
        <ele>961.4</ele>
        <time>2019-05-12T13:28:57Z</time>
      </trkpt>
      <trkpt lat="38.6902930" lon="-0.6796100">
        <ele>960.0</ele>
        <time>2019-05-12T13:29:01Z</time>
      </trkpt>
      <trkpt lat="38.6902380" lon="-0.6796370">
        <ele>959.4</ele>
        <time>2019-05-12T13:29:02Z</time>
      </trkpt>
      <trkpt lat="38.6901080" lon="-0.6797450">
        <ele>959.4</ele>
        <time>2019-05-12T13:29:05Z</time>
      </trkpt>
      <trkpt lat="38.6900720" lon="-0.6797750">
        <ele>959.6</ele>
        <time>2019-05-12T13:29:06Z</time>
      </trkpt>
      <trkpt lat="38.6900350" lon="-0.6798420">
        <ele>960.4</ele>
        <time>2019-05-12T13:29:08Z</time>
      </trkpt>
      <trkpt lat="38.6900200" lon="-0.6798520">
        <ele>961.0</ele>
        <time>2019-05-12T13:29:09Z</time>
      </trkpt>
      <trkpt lat="38.6899970" lon="-0.6798750">
        <ele>961.0</ele>
        <time>2019-05-12T13:29:10Z</time>
      </trkpt>
      <trkpt lat="38.6899190" lon="-0.6799450">
        <ele>960.6</ele>
        <time>2019-05-12T13:29:12Z</time>
      </trkpt>
      <trkpt lat="38.6898760" lon="-0.6799780">
        <ele>960.6</ele>
        <time>2019-05-12T13:29:13Z</time>
      </trkpt>
      <trkpt lat="38.6896350" lon="-0.6801360">
        <ele>961.6</ele>
        <time>2019-05-12T13:29:19Z</time>
      </trkpt>
      <trkpt lat="38.6894850" lon="-0.6802620">
        <ele>962.2</ele>
        <time>2019-05-12T13:29:24Z</time>
      </trkpt>
      <trkpt lat="38.6893720" lon="-0.6804260">
        <ele>963.0</ele>
        <time>2019-05-12T13:29:29Z</time>
      </trkpt>
      <trkpt lat="38.6893120" lon="-0.6805350">
        <ele>964.0</ele>
        <time>2019-05-12T13:29:32Z</time>
      </trkpt>
      <trkpt lat="38.6892620" lon="-0.6805850">
        <ele>965.0</ele>
        <time>2019-05-12T13:29:34Z</time>
      </trkpt>
      <trkpt lat="38.6892360" lon="-0.6805960">
        <ele>965.2</ele>
        <time>2019-05-12T13:29:35Z</time>
      </trkpt>
      <trkpt lat="38.6892060" lon="-0.6806020">
        <ele>965.4</ele>
        <time>2019-05-12T13:29:36Z</time>
      </trkpt>
      <trkpt lat="38.6891460" lon="-0.6806080">
        <ele>965.6</ele>
        <time>2019-05-12T13:29:38Z</time>
      </trkpt>
      <trkpt lat="38.6889830" lon="-0.6806010">
        <ele>964.6</ele>
        <time>2019-05-12T13:29:42Z</time>
      </trkpt>
      <trkpt lat="38.6889360" lon="-0.6806050">
        <ele>964.2</ele>
        <time>2019-05-12T13:29:43Z</time>
      </trkpt>
      <trkpt lat="38.6888350" lon="-0.6806110">
        <ele>963.4</ele>
        <time>2019-05-12T13:29:45Z</time>
      </trkpt>
      <trkpt lat="38.6887810" lon="-0.6806020">
        <ele>963.0</ele>
        <time>2019-05-12T13:29:46Z</time>
      </trkpt>
      <trkpt lat="38.6887280" lon="-0.6805980">
        <ele>963.2</ele>
        <time>2019-05-12T13:29:47Z</time>
      </trkpt>
      <trkpt lat="38.6885460" lon="-0.6805800">
        <ele>964.2</ele>
        <time>2019-05-12T13:29:51Z</time>
      </trkpt>
      <trkpt lat="38.6885010" lon="-0.6805810">
        <ele>964.4</ele>
        <time>2019-05-12T13:29:52Z</time>
      </trkpt>
      <trkpt lat="38.6883100" lon="-0.6805830">
        <ele>964.6</ele>
        <time>2019-05-12T13:29:56Z</time>
      </trkpt>
      <trkpt lat="38.6882230" lon="-0.6805840">
        <ele>964.6</ele>
        <time>2019-05-12T13:29:58Z</time>
      </trkpt>
      <trkpt lat="38.6881290" lon="-0.6805940">
        <ele>965.2</ele>
        <time>2019-05-12T13:30:00Z</time>
      </trkpt>
      <trkpt lat="38.6879690" lon="-0.6806180">
        <ele>964.6</ele>
        <time>2019-05-12T13:30:04Z</time>
      </trkpt>
      <trkpt lat="38.6877760" lon="-0.6806130">
        <ele>965.2</ele>
        <time>2019-05-12T13:30:10Z</time>
      </trkpt>
      <trkpt lat="38.6876650" lon="-0.6805510">
        <ele>964.8</ele>
        <time>2019-05-12T13:30:15Z</time>
      </trkpt>
      <trkpt lat="38.6876090" lon="-0.6805490">
        <ele>964.2</ele>
        <time>2019-05-12T13:30:17Z</time>
      </trkpt>
      <trkpt lat="38.6875520" lon="-0.6805440">
        <ele>964.2</ele>
        <time>2019-05-12T13:30:19Z</time>
      </trkpt>
      <trkpt lat="38.6874820" lon="-0.6805680">
        <ele>963.8</ele>
        <time>2019-05-12T13:30:21Z</time>
      </trkpt>
      <trkpt lat="38.6874690" lon="-0.6806090">
        <ele>963.4</ele>
        <time>2019-05-12T13:30:22Z</time>
      </trkpt>
      <trkpt lat="38.6873800" lon="-0.6806960">
        <ele>963.4</ele>
        <time>2019-05-12T13:30:25Z</time>
      </trkpt>
      <trkpt lat="38.6873320" lon="-0.6807690">
        <ele>963.6</ele>
        <time>2019-05-12T13:30:27Z</time>
      </trkpt>
      <trkpt lat="38.6872680" lon="-0.6808140">
        <ele>963.4</ele>
        <time>2019-05-12T13:30:29Z</time>
      </trkpt>
      <trkpt lat="38.6871960" lon="-0.6808730">
        <ele>963.2</ele>
        <time>2019-05-12T13:30:31Z</time>
      </trkpt>
      <trkpt lat="38.6871690" lon="-0.6809060">
        <ele>963.0</ele>
        <time>2019-05-12T13:30:32Z</time>
      </trkpt>
      <trkpt lat="38.6870840" lon="-0.6810050">
        <ele>962.6</ele>
        <time>2019-05-12T13:30:35Z</time>
      </trkpt>
      <trkpt lat="38.6869860" lon="-0.6811640">
        <ele>962.4</ele>
        <time>2019-05-12T13:30:39Z</time>
      </trkpt>
      <trkpt lat="38.6869580" lon="-0.6811890">
        <ele>962.4</ele>
        <time>2019-05-12T13:30:40Z</time>
      </trkpt>
      <trkpt lat="38.6869210" lon="-0.6811940">
        <ele>962.0</ele>
        <time>2019-05-12T13:30:41Z</time>
      </trkpt>
      <trkpt lat="38.6868350" lon="-0.6812620">
        <ele>961.2</ele>
        <time>2019-05-12T13:30:43Z</time>
      </trkpt>
      <trkpt lat="38.6868090" lon="-0.6813290">
        <ele>960.6</ele>
        <time>2019-05-12T13:30:44Z</time>
      </trkpt>
      <trkpt lat="38.6867910" lon="-0.6814490">
        <ele>959.6</ele>
        <time>2019-05-12T13:30:46Z</time>
      </trkpt>
      <trkpt lat="38.6868280" lon="-0.6815550">
        <ele>959.8</ele>
        <time>2019-05-12T13:30:49Z</time>
      </trkpt>
      <trkpt lat="38.6868430" lon="-0.6816130">
        <ele>960.0</ele>
        <time>2019-05-12T13:30:51Z</time>
      </trkpt>
      <trkpt lat="38.6868120" lon="-0.6816770">
        <ele>959.8</ele>
        <time>2019-05-12T13:30:53Z</time>
      </trkpt>
      <trkpt lat="38.6868140" lon="-0.6818190">
        <ele>959.8</ele>
        <time>2019-05-12T13:30:56Z</time>
      </trkpt>
      <trkpt lat="38.6867970" lon="-0.6819190">
        <ele>960.6</ele>
        <time>2019-05-12T13:30:58Z</time>
      </trkpt>
      <trkpt lat="38.6867550" lon="-0.6820080">
        <ele>960.6</ele>
        <time>2019-05-12T13:31:00Z</time>
      </trkpt>
      <trkpt lat="38.6867170" lon="-0.6821280">
        <ele>959.6</ele>
        <time>2019-05-12T13:31:03Z</time>
      </trkpt>
      <trkpt lat="38.6867210" lon="-0.6821730">
        <ele>959.2</ele>
        <time>2019-05-12T13:31:04Z</time>
      </trkpt>
      <trkpt lat="38.6866740" lon="-0.6823040">
        <ele>959.6</ele>
        <time>2019-05-12T13:31:08Z</time>
      </trkpt>
      <trkpt lat="38.6866120" lon="-0.6824550">
        <ele>958.6</ele>
        <time>2019-05-12T13:31:12Z</time>
      </trkpt>
      <trkpt lat="38.6865990" lon="-0.6825020">
        <ele>960.0</ele>
        <time>2019-05-12T13:31:16Z</time>
      </trkpt>
      <trkpt lat="38.6865730" lon="-0.6825460">
        <ele>960.0</ele>
        <time>2019-05-12T13:31:19Z</time>
      </trkpt>
      <trkpt lat="38.6865630" lon="-0.6825790">
        <ele>959.6</ele>
        <time>2019-05-12T13:31:21Z</time>
      </trkpt>
      <trkpt lat="38.6865240" lon="-0.6826930">
        <ele>960.6</ele>
        <time>2019-05-12T13:31:26Z</time>
      </trkpt>
      <trkpt lat="38.6865140" lon="-0.6827610">
        <ele>961.8</ele>
        <time>2019-05-12T13:31:29Z</time>
      </trkpt>
      <trkpt lat="38.6864890" lon="-0.6828210">
        <ele>963.0</ele>
        <time>2019-05-12T13:31:32Z</time>
      </trkpt>
      <trkpt lat="38.6864330" lon="-0.6829050">
        <ele>964.0</ele>
        <time>2019-05-12T13:31:37Z</time>
      </trkpt>
      <trkpt lat="38.6864220" lon="-0.6829300">
        <ele>964.4</ele>
        <time>2019-05-12T13:31:38Z</time>
      </trkpt>
      <trkpt lat="38.6863890" lon="-0.6829850">
        <ele>964.6</ele>
        <time>2019-05-12T13:31:41Z</time>
      </trkpt>
      <trkpt lat="38.6863790" lon="-0.6830090">
        <ele>964.6</ele>
        <time>2019-05-12T13:31:42Z</time>
      </trkpt>
      <trkpt lat="38.6863280" lon="-0.6830390">
        <ele>964.4</ele>
        <time>2019-05-12T13:31:45Z</time>
      </trkpt>
      <trkpt lat="38.6863030" lon="-0.6830640">
        <ele>964.4</ele>
        <time>2019-05-12T13:31:46Z</time>
      </trkpt>
      <trkpt lat="38.6862340" lon="-0.6831360">
        <ele>964.2</ele>
        <time>2019-05-12T13:31:49Z</time>
      </trkpt>
      <trkpt lat="38.6861560" lon="-0.6832270">
        <ele>963.4</ele>
        <time>2019-05-12T13:31:52Z</time>
      </trkpt>
      <trkpt lat="38.6860410" lon="-0.6833860">
        <ele>963.8</ele>
        <time>2019-05-12T13:31:57Z</time>
      </trkpt>
      <trkpt lat="38.6859540" lon="-0.6835210">
        <ele>965.6</ele>
        <time>2019-05-12T13:32:02Z</time>
      </trkpt>
      <trkpt lat="38.6859360" lon="-0.6835280">
        <ele>965.8</ele>
        <time>2019-05-12T13:32:03Z</time>
      </trkpt>
      <trkpt lat="38.6858970" lon="-0.6835760">
        <ele>965.8</ele>
        <time>2019-05-12T13:32:05Z</time>
      </trkpt>
      <trkpt lat="38.6858750" lon="-0.6836820">
        <ele>966.8</ele>
        <time>2019-05-12T13:32:09Z</time>
      </trkpt>
      <trkpt lat="38.6858620" lon="-0.6837050">
        <ele>967.2</ele>
        <time>2019-05-12T13:32:10Z</time>
      </trkpt>
      <trkpt lat="38.6858360" lon="-0.6837910">
        <ele>968.0</ele>
        <time>2019-05-12T13:32:13Z</time>
      </trkpt>
      <trkpt lat="38.6858130" lon="-0.6838420">
        <ele>968.6</ele>
        <time>2019-05-12T13:32:15Z</time>
      </trkpt>
      <trkpt lat="38.6857830" lon="-0.6839140">
        <ele>969.2</ele>
        <time>2019-05-12T13:32:18Z</time>
      </trkpt>
      <trkpt lat="38.6857520" lon="-0.6839640">
        <ele>969.6</ele>
        <time>2019-05-12T13:32:20Z</time>
      </trkpt>
      <trkpt lat="38.6857280" lon="-0.6840380">
        <ele>970.2</ele>
        <time>2019-05-12T13:32:23Z</time>
      </trkpt>
      <trkpt lat="38.6856830" lon="-0.6841400">
        <ele>971.2</ele>
        <time>2019-05-12T13:32:27Z</time>
      </trkpt>
      <trkpt lat="38.6856840" lon="-0.6841680">
        <ele>971.2</ele>
        <time>2019-05-12T13:32:28Z</time>
      </trkpt>
      <trkpt lat="38.6856390" lon="-0.6842290">
        <ele>971.6</ele>
        <time>2019-05-12T13:32:31Z</time>
      </trkpt>
      <trkpt lat="38.6856190" lon="-0.6842890">
        <ele>971.6</ele>
        <time>2019-05-12T13:32:33Z</time>
      </trkpt>
      <trkpt lat="38.6855860" lon="-0.6843130">
        <ele>971.6</ele>
        <time>2019-05-12T13:32:35Z</time>
      </trkpt>
      <trkpt lat="38.6855260" lon="-0.6844470">
        <ele>971.2</ele>
        <time>2019-05-12T13:32:39Z</time>
      </trkpt>
      <trkpt lat="38.6854310" lon="-0.6846290">
        <ele>972.4</ele>
        <time>2019-05-12T13:32:45Z</time>
      </trkpt>
      <trkpt lat="38.6853370" lon="-0.6847600">
        <ele>972.2</ele>
        <time>2019-05-12T13:32:50Z</time>
      </trkpt>
      <trkpt lat="38.6852360" lon="-0.6849120">
        <ele>972.4</ele>
        <time>2019-05-12T13:32:55Z</time>
      </trkpt>
      <trkpt lat="38.6851650" lon="-0.6849450">
        <ele>972.2</ele>
        <time>2019-05-12T13:32:57Z</time>
      </trkpt>
      <trkpt lat="38.6850940" lon="-0.6849690">
        <ele>971.8</ele>
        <time>2019-05-12T13:32:59Z</time>
      </trkpt>
      <trkpt lat="38.6850700" lon="-0.6850110">
        <ele>971.2</ele>
        <time>2019-05-12T13:33:00Z</time>
      </trkpt>
      <trkpt lat="38.6849960" lon="-0.6850600">
        <ele>970.2</ele>
        <time>2019-05-12T13:33:02Z</time>
      </trkpt>
      <trkpt lat="38.6848560" lon="-0.6851760">
        <ele>970.6</ele>
        <time>2019-05-12T13:33:07Z</time>
      </trkpt>
      <trkpt lat="38.6847130" lon="-0.6852150">
        <ele>971.4</ele>
        <time>2019-05-12T13:33:11Z</time>
      </trkpt>
      <trkpt lat="38.6845110" lon="-0.6851890">
        <ele>970.8</ele>
        <time>2019-05-12T13:33:15Z</time>
      </trkpt>
      <trkpt lat="38.6844000" lon="-0.6852660">
        <ele>970.4</ele>
        <time>2019-05-12T13:33:18Z</time>
      </trkpt>
      <trkpt lat="38.6843240" lon="-0.6853070">
        <ele>971.0</ele>
        <time>2019-05-12T13:33:21Z</time>
      </trkpt>
      <trkpt lat="38.6842460" lon="-0.6853460">
        <ele>970.8</ele>
        <time>2019-05-12T13:33:23Z</time>
      </trkpt>
      <trkpt lat="38.6842110" lon="-0.6853810">
        <ele>971.0</ele>
        <time>2019-05-12T13:33:24Z</time>
      </trkpt>
      <trkpt lat="38.6841730" lon="-0.6854050">
        <ele>971.2</ele>
        <time>2019-05-12T13:33:25Z</time>
      </trkpt>
      <trkpt lat="38.6839690" lon="-0.6855940">
        <ele>971.0</ele>
        <time>2019-05-12T13:33:31Z</time>
      </trkpt>
      <trkpt lat="38.6838430" lon="-0.6856780">
        <ele>970.0</ele>
        <time>2019-05-12T13:33:34Z</time>
      </trkpt>
      <trkpt lat="38.6838110" lon="-0.6856860">
        <ele>969.6</ele>
        <time>2019-05-12T13:33:35Z</time>
      </trkpt>
      <trkpt lat="38.6836950" lon="-0.6856300">
        <ele>969.2</ele>
        <time>2019-05-12T13:33:38Z</time>
      </trkpt>
      <trkpt lat="38.6836460" lon="-0.6856450">
        <ele>968.4</ele>
        <time>2019-05-12T13:33:39Z</time>
      </trkpt>
      <trkpt lat="38.6835510" lon="-0.6857130">
        <ele>967.2</ele>
        <time>2019-05-12T13:33:41Z</time>
      </trkpt>
      <trkpt lat="38.6835040" lon="-0.6857590">
        <ele>965.4</ele>
        <time>2019-05-12T13:33:42Z</time>
      </trkpt>
      <trkpt lat="38.6833830" lon="-0.6858330">
        <ele>964.6</ele>
        <time>2019-05-12T13:33:44Z</time>
      </trkpt>
      <trkpt lat="38.6833290" lon="-0.6858910">
        <ele>964.2</ele>
        <time>2019-05-12T13:33:45Z</time>
      </trkpt>
      <trkpt lat="38.6831840" lon="-0.6861430">
        <ele>963.4</ele>
        <time>2019-05-12T13:33:49Z</time>
      </trkpt>
      <trkpt lat="38.6830810" lon="-0.6863000">
        <ele>963.6</ele>
        <time>2019-05-12T13:33:52Z</time>
      </trkpt>
      <trkpt lat="38.6830190" lon="-0.6864160">
        <ele>963.8</ele>
        <time>2019-05-12T13:33:54Z</time>
      </trkpt>
      <trkpt lat="38.6829480" lon="-0.6865480">
        <ele>964.0</ele>
        <time>2019-05-12T13:33:56Z</time>
      </trkpt>
      <trkpt lat="38.6828660" lon="-0.6867480">
        <ele>964.2</ele>
        <time>2019-05-12T13:33:59Z</time>
      </trkpt>
      <trkpt lat="38.6828550" lon="-0.6868930">
        <ele>964.6</ele>
        <time>2019-05-12T13:34:01Z</time>
      </trkpt>
      <trkpt lat="38.6828560" lon="-0.6870160">
        <ele>965.4</ele>
        <time>2019-05-12T13:34:03Z</time>
      </trkpt>
      <trkpt lat="38.6828380" lon="-0.6872030">
        <ele>965.8</ele>
        <time>2019-05-12T13:34:06Z</time>
      </trkpt>
      <trkpt lat="38.6828250" lon="-0.6872580">
        <ele>966.6</ele>
        <time>2019-05-12T13:34:07Z</time>
      </trkpt>
      <trkpt lat="38.6827800" lon="-0.6874280">
        <ele>967.2</ele>
        <time>2019-05-12T13:34:10Z</time>
      </trkpt>
      <trkpt lat="38.6827650" lon="-0.6874850">
        <ele>967.2</ele>
        <time>2019-05-12T13:34:11Z</time>
      </trkpt>
      <trkpt lat="38.6827420" lon="-0.6875400">
        <ele>967.4</ele>
        <time>2019-05-12T13:34:12Z</time>
      </trkpt>
      <trkpt lat="38.6826760" lon="-0.6875630">
        <ele>967.4</ele>
        <time>2019-05-12T13:34:14Z</time>
      </trkpt>
      <trkpt lat="38.6825440" lon="-0.6875040">
        <ele>966.2</ele>
        <time>2019-05-12T13:34:17Z</time>
      </trkpt>
      <trkpt lat="38.6824900" lon="-0.6874700">
        <ele>965.6</ele>
        <time>2019-05-12T13:34:18Z</time>
      </trkpt>
      <trkpt lat="38.6823690" lon="-0.6874070">
        <ele>964.2</ele>
        <time>2019-05-12T13:34:20Z</time>
      </trkpt>
      <trkpt lat="38.6823030" lon="-0.6874130">
        <ele>963.2</ele>
        <time>2019-05-12T13:34:21Z</time>
      </trkpt>
      <trkpt lat="38.6822370" lon="-0.6874350">
        <ele>962.6</ele>
        <time>2019-05-12T13:34:22Z</time>
      </trkpt>
      <trkpt lat="38.6821740" lon="-0.6874830">
        <ele>961.6</ele>
        <time>2019-05-12T13:34:23Z</time>
      </trkpt>
      <trkpt lat="38.6821120" lon="-0.6875310">
        <ele>961.0</ele>
        <time>2019-05-12T13:34:24Z</time>
      </trkpt>
      <trkpt lat="38.6820550" lon="-0.6875930">
        <ele>960.2</ele>
        <time>2019-05-12T13:34:25Z</time>
      </trkpt>
      <trkpt lat="38.6820010" lon="-0.6876500">
        <ele>959.8</ele>
        <time>2019-05-12T13:34:26Z</time>
      </trkpt>
      <trkpt lat="38.6819590" lon="-0.6877210">
        <ele>959.6</ele>
        <time>2019-05-12T13:34:27Z</time>
      </trkpt>
      <trkpt lat="38.6819280" lon="-0.6878000">
        <ele>959.4</ele>
        <time>2019-05-12T13:34:28Z</time>
      </trkpt>
      <trkpt lat="38.6818920" lon="-0.6880170">
        <ele>959.8</ele>
        <time>2019-05-12T13:34:31Z</time>
      </trkpt>
      <trkpt lat="38.6818870" lon="-0.6880800">
        <ele>960.2</ele>
        <time>2019-05-12T13:34:32Z</time>
      </trkpt>
      <trkpt lat="38.6818650" lon="-0.6882070">
        <ele>960.8</ele>
        <time>2019-05-12T13:34:34Z</time>
      </trkpt>
      <trkpt lat="38.6818470" lon="-0.6882550">
        <ele>961.6</ele>
        <time>2019-05-12T13:34:35Z</time>
      </trkpt>
      <trkpt lat="38.6818270" lon="-0.6882950">
        <ele>962.2</ele>
        <time>2019-05-12T13:34:36Z</time>
      </trkpt>
      <trkpt lat="38.6817910" lon="-0.6883240">
        <ele>962.6</ele>
        <time>2019-05-12T13:34:37Z</time>
      </trkpt>
      <trkpt lat="38.6817140" lon="-0.6883730">
        <ele>962.8</ele>
        <time>2019-05-12T13:34:39Z</time>
      </trkpt>
      <trkpt lat="38.6816740" lon="-0.6884060">
        <ele>962.8</ele>
        <time>2019-05-12T13:34:40Z</time>
      </trkpt>
      <trkpt lat="38.6815410" lon="-0.6884970">
        <ele>962.8</ele>
        <time>2019-05-12T13:34:43Z</time>
      </trkpt>
      <trkpt lat="38.6814910" lon="-0.6885170">
        <ele>962.8</ele>
        <time>2019-05-12T13:34:44Z</time>
      </trkpt>
      <trkpt lat="38.6814370" lon="-0.6885200">
        <ele>962.6</ele>
        <time>2019-05-12T13:34:45Z</time>
      </trkpt>
      <trkpt lat="38.6812690" lon="-0.6885570">
        <ele>962.4</ele>
        <time>2019-05-12T13:34:48Z</time>
      </trkpt>
      <trkpt lat="38.6811630" lon="-0.6886170">
        <ele>962.2</ele>
        <time>2019-05-12T13:34:50Z</time>
      </trkpt>
      <trkpt lat="38.6811100" lon="-0.6886360">
        <ele>962.4</ele>
        <time>2019-05-12T13:34:51Z</time>
      </trkpt>
      <trkpt lat="38.6808920" lon="-0.6887280">
        <ele>962.4</ele>
        <time>2019-05-12T13:34:55Z</time>
      </trkpt>
      <trkpt lat="38.6807730" lon="-0.6887780">
        <ele>961.2</ele>
        <time>2019-05-12T13:34:57Z</time>
      </trkpt>
      <trkpt lat="38.6805910" lon="-0.6888240">
        <ele>960.4</ele>
        <time>2019-05-12T13:35:00Z</time>
      </trkpt>
      <trkpt lat="38.6805360" lon="-0.6888300">
        <ele>960.4</ele>
        <time>2019-05-12T13:35:01Z</time>
      </trkpt>
      <trkpt lat="38.6804830" lon="-0.6888220">
        <ele>960.4</ele>
        <time>2019-05-12T13:35:02Z</time>
      </trkpt>
      <trkpt lat="38.6802720" lon="-0.6888420">
        <ele>960.6</ele>
        <time>2019-05-12T13:35:06Z</time>
      </trkpt>
      <trkpt lat="38.6800910" lon="-0.6889890">
        <ele>960.4</ele>
        <time>2019-05-12T13:35:10Z</time>
      </trkpt>
      <trkpt lat="38.6800460" lon="-0.6890220">
        <ele>960.6</ele>
        <time>2019-05-12T13:35:11Z</time>
      </trkpt>
      <trkpt lat="38.6799720" lon="-0.6891070">
        <ele>961.4</ele>
        <time>2019-05-12T13:35:13Z</time>
      </trkpt>
      <trkpt lat="38.6799550" lon="-0.6891640">
        <ele>961.6</ele>
        <time>2019-05-12T13:35:14Z</time>
      </trkpt>
      <trkpt lat="38.6799000" lon="-0.6893270">
        <ele>962.4</ele>
        <time>2019-05-12T13:35:18Z</time>
      </trkpt>
      <trkpt lat="38.6798300" lon="-0.6893350">
        <ele>962.6</ele>
        <time>2019-05-12T13:35:20Z</time>
      </trkpt>
      <trkpt lat="38.6797950" lon="-0.6893080">
        <ele>962.8</ele>
        <time>2019-05-12T13:35:21Z</time>
      </trkpt>
      <trkpt lat="38.6797060" lon="-0.6892120">
        <ele>961.8</ele>
        <time>2019-05-12T13:35:24Z</time>
      </trkpt>
      <trkpt lat="38.6796600" lon="-0.6891860">
        <ele>961.8</ele>
        <time>2019-05-12T13:35:25Z</time>
      </trkpt>
      <trkpt lat="38.6795640" lon="-0.6891560">
        <ele>961.4</ele>
        <time>2019-05-12T13:35:27Z</time>
      </trkpt>
      <trkpt lat="38.6795200" lon="-0.6891240">
        <ele>961.0</ele>
        <time>2019-05-12T13:35:28Z</time>
      </trkpt>
      <trkpt lat="38.6794730" lon="-0.6890920">
        <ele>960.8</ele>
        <time>2019-05-12T13:35:29Z</time>
      </trkpt>
      <trkpt lat="38.6793480" lon="-0.6890240">
        <ele>960.2</ele>
        <time>2019-05-12T13:35:32Z</time>
      </trkpt>
      <trkpt lat="38.6793130" lon="-0.6889920">
        <ele>960.2</ele>
        <time>2019-05-12T13:35:33Z</time>
      </trkpt>
      <trkpt lat="38.6792820" lon="-0.6889650">
        <ele>960.0</ele>
        <time>2019-05-12T13:35:34Z</time>
      </trkpt>
      <trkpt lat="38.6792510" lon="-0.6889300">
        <ele>959.8</ele>
        <time>2019-05-12T13:35:35Z</time>
      </trkpt>
      <trkpt lat="38.6791190" lon="-0.6889590">
        <ele>959.2</ele>
        <time>2019-05-12T13:35:38Z</time>
      </trkpt>
      <trkpt lat="38.6790340" lon="-0.6891080">
        <ele>959.2</ele>
        <time>2019-05-12T13:35:41Z</time>
      </trkpt>
      <trkpt lat="38.6789900" lon="-0.6892200">
        <ele>958.6</ele>
        <time>2019-05-12T13:35:43Z</time>
      </trkpt>
      <trkpt lat="38.6789570" lon="-0.6892600">
        <ele>958.4</ele>
        <time>2019-05-12T13:35:44Z</time>
      </trkpt>
      <trkpt lat="38.6788950" lon="-0.6893460">
        <ele>958.2</ele>
        <time>2019-05-12T13:35:46Z</time>
      </trkpt>
      <trkpt lat="38.6788140" lon="-0.6894440">
        <ele>959.8</ele>
        <time>2019-05-12T13:35:49Z</time>
      </trkpt>
      <trkpt lat="38.6787610" lon="-0.6895170">
        <ele>959.8</ele>
        <time>2019-05-12T13:35:51Z</time>
      </trkpt>
      <trkpt lat="38.6787060" lon="-0.6895960">
        <ele>959.8</ele>
        <time>2019-05-12T13:35:53Z</time>
      </trkpt>
      <trkpt lat="38.6786240" lon="-0.6897230">
        <ele>960.2</ele>
        <time>2019-05-12T13:35:56Z</time>
      </trkpt>
      <trkpt lat="38.6785680" lon="-0.6897980">
        <ele>960.6</ele>
        <time>2019-05-12T13:35:58Z</time>
      </trkpt>
      <trkpt lat="38.6784380" lon="-0.6899430">
        <ele>961.2</ele>
        <time>2019-05-12T13:36:03Z</time>
      </trkpt>
      <trkpt lat="38.6783810" lon="-0.6899970">
        <ele>961.8</ele>
        <time>2019-05-12T13:36:05Z</time>
      </trkpt>
      <trkpt lat="38.6782000" lon="-0.6901670">
        <ele>961.8</ele>
        <time>2019-05-12T13:36:11Z</time>
      </trkpt>
      <trkpt lat="38.6780840" lon="-0.6902860">
        <ele>961.8</ele>
        <time>2019-05-12T13:36:15Z</time>
      </trkpt>
      <trkpt lat="38.6780440" lon="-0.6903100">
        <ele>961.2</ele>
        <time>2019-05-12T13:36:16Z</time>
      </trkpt>
      <trkpt lat="38.6778730" lon="-0.6904270">
        <ele>961.8</ele>
        <time>2019-05-12T13:36:21Z</time>
      </trkpt>
      <trkpt lat="38.6778180" lon="-0.6905040">
        <ele>961.4</ele>
        <time>2019-05-12T13:36:23Z</time>
      </trkpt>
      <trkpt lat="38.6777680" lon="-0.6905920">
        <ele>962.0</ele>
        <time>2019-05-12T13:36:25Z</time>
      </trkpt>
      <trkpt lat="38.6777090" lon="-0.6906650">
        <ele>962.0</ele>
        <time>2019-05-12T13:36:27Z</time>
      </trkpt>
      <trkpt lat="38.6776000" lon="-0.6907850">
        <ele>962.2</ele>
        <time>2019-05-12T13:36:30Z</time>
      </trkpt>
      <trkpt lat="38.6775180" lon="-0.6908300">
        <ele>961.8</ele>
        <time>2019-05-12T13:36:32Z</time>
      </trkpt>
      <trkpt lat="38.6774570" lon="-0.6909010">
        <ele>961.8</ele>
        <time>2019-05-12T13:36:34Z</time>
      </trkpt>
      <trkpt lat="38.6774280" lon="-0.6909460">
        <ele>961.8</ele>
        <time>2019-05-12T13:36:35Z</time>
      </trkpt>
      <trkpt lat="38.6773020" lon="-0.6910960">
        <ele>962.2</ele>
        <time>2019-05-12T13:36:39Z</time>
      </trkpt>
      <trkpt lat="38.6772310" lon="-0.6911610">
        <ele>962.2</ele>
        <time>2019-05-12T13:36:41Z</time>
      </trkpt>
      <trkpt lat="38.6771110" lon="-0.6912480">
        <ele>962.2</ele>
        <time>2019-05-12T13:36:44Z</time>
      </trkpt>
      <trkpt lat="38.6770680" lon="-0.6912770">
        <ele>962.2</ele>
        <time>2019-05-12T13:36:45Z</time>
      </trkpt>
      <trkpt lat="38.6768180" lon="-0.6914560">
        <ele>962.0</ele>
        <time>2019-05-12T13:36:51Z</time>
      </trkpt>
      <trkpt lat="38.6765260" lon="-0.6916320">
        <ele>961.8</ele>
        <time>2019-05-12T13:36:58Z</time>
      </trkpt>
      <trkpt lat="38.6763320" lon="-0.6918180">
        <ele>961.2</ele>
        <time>2019-05-12T13:37:03Z</time>
      </trkpt>
      <trkpt lat="38.6762940" lon="-0.6918470">
        <ele>961.0</ele>
        <time>2019-05-12T13:37:04Z</time>
      </trkpt>
      <trkpt lat="38.6762460" lon="-0.6918660">
        <ele>961.0</ele>
        <time>2019-05-12T13:37:05Z</time>
      </trkpt>
      <trkpt lat="38.6761180" lon="-0.6919740">
        <ele>960.6</ele>
        <time>2019-05-12T13:37:08Z</time>
      </trkpt>
      <trkpt lat="38.6760880" lon="-0.6920200">
        <ele>960.2</ele>
        <time>2019-05-12T13:37:09Z</time>
      </trkpt>
      <trkpt lat="38.6759990" lon="-0.6920970">
        <ele>960.0</ele>
        <time>2019-05-12T13:37:11Z</time>
      </trkpt>
      <trkpt lat="38.6759520" lon="-0.6921350">
        <ele>959.8</ele>
        <time>2019-05-12T13:37:12Z</time>
      </trkpt>
      <trkpt lat="38.6759030" lon="-0.6921560">
        <ele>959.8</ele>
        <time>2019-05-12T13:37:13Z</time>
      </trkpt>
      <trkpt lat="38.6757140" lon="-0.6922770">
        <ele>959.2</ele>
        <time>2019-05-12T13:37:17Z</time>
      </trkpt>
      <trkpt lat="38.6754190" lon="-0.6925350">
        <ele>958.2</ele>
        <time>2019-05-12T13:37:24Z</time>
      </trkpt>
      <trkpt lat="38.6753770" lon="-0.6925590">
        <ele>958.2</ele>
        <time>2019-05-12T13:37:25Z</time>
      </trkpt>
      <trkpt lat="38.6753320" lon="-0.6925880">
        <ele>957.8</ele>
        <time>2019-05-12T13:37:26Z</time>
      </trkpt>
      <trkpt lat="38.6752530" lon="-0.6926650">
        <ele>957.0</ele>
        <time>2019-05-12T13:37:28Z</time>
      </trkpt>
      <trkpt lat="38.6750710" lon="-0.6928340">
        <ele>957.4</ele>
        <time>2019-05-12T13:37:32Z</time>
      </trkpt>
      <trkpt lat="38.6750180" lon="-0.6928600">
        <ele>957.2</ele>
        <time>2019-05-12T13:37:33Z</time>
      </trkpt>
      <trkpt lat="38.6749310" lon="-0.6929060">
        <ele>957.6</ele>
        <time>2019-05-12T13:37:35Z</time>
      </trkpt>
      <trkpt lat="38.6748720" lon="-0.6929460">
        <ele>958.4</ele>
        <time>2019-05-12T13:37:37Z</time>
      </trkpt>
      <trkpt lat="38.6747950" lon="-0.6929980">
        <ele>959.0</ele>
        <time>2019-05-12T13:37:39Z</time>
      </trkpt>
      <trkpt lat="38.6746800" lon="-0.6930970">
        <ele>958.8</ele>
        <time>2019-05-12T13:37:42Z</time>
      </trkpt>
      <trkpt lat="38.6745020" lon="-0.6931640">
        <ele>959.6</ele>
        <time>2019-05-12T13:37:47Z</time>
      </trkpt>
      <trkpt lat="38.6743030" lon="-0.6931030">
        <ele>959.4</ele>
        <time>2019-05-12T13:37:52Z</time>
      </trkpt>
      <trkpt lat="38.6742610" lon="-0.6931070">
        <ele>959.4</ele>
        <time>2019-05-12T13:37:53Z</time>
      </trkpt>
      <trkpt lat="38.6741340" lon="-0.6931270">
        <ele>959.2</ele>
        <time>2019-05-12T13:37:56Z</time>
      </trkpt>
      <trkpt lat="38.6740870" lon="-0.6931380">
        <ele>959.2</ele>
        <time>2019-05-12T13:37:57Z</time>
      </trkpt>
      <trkpt lat="38.6739880" lon="-0.6931460">
        <ele>958.4</ele>
        <time>2019-05-12T13:37:59Z</time>
      </trkpt>
      <trkpt lat="38.6738840" lon="-0.6930970">
        <ele>958.2</ele>
        <time>2019-05-12T13:38:01Z</time>
      </trkpt>
      <trkpt lat="38.6738290" lon="-0.6930820">
        <ele>957.8</ele>
        <time>2019-05-12T13:38:02Z</time>
      </trkpt>
      <trkpt lat="38.6736640" lon="-0.6931230">
        <ele>957.4</ele>
        <time>2019-05-12T13:38:05Z</time>
      </trkpt>
      <trkpt lat="38.6735110" lon="-0.6931540">
        <ele>957.2</ele>
        <time>2019-05-12T13:38:08Z</time>
      </trkpt>
      <trkpt lat="38.6734610" lon="-0.6931650">
        <ele>956.8</ele>
        <time>2019-05-12T13:38:09Z</time>
      </trkpt>
      <trkpt lat="38.6734160" lon="-0.6931770">
        <ele>957.0</ele>
        <time>2019-05-12T13:38:10Z</time>
      </trkpt>
      <trkpt lat="38.6733720" lon="-0.6932070">
        <ele>957.0</ele>
        <time>2019-05-12T13:38:11Z</time>
      </trkpt>
      <trkpt lat="38.6732290" lon="-0.6932810">
        <ele>957.6</ele>
        <time>2019-05-12T13:38:14Z</time>
      </trkpt>
      <trkpt lat="38.6731330" lon="-0.6933280">
        <ele>958.0</ele>
        <time>2019-05-12T13:38:16Z</time>
      </trkpt>
      <trkpt lat="38.6729530" lon="-0.6933910">
        <ele>958.6</ele>
        <time>2019-05-12T13:38:20Z</time>
      </trkpt>
      <trkpt lat="38.6729150" lon="-0.6934130">
        <ele>958.8</ele>
        <time>2019-05-12T13:38:21Z</time>
      </trkpt>
      <trkpt lat="38.6727340" lon="-0.6934350">
        <ele>958.8</ele>
        <time>2019-05-12T13:38:25Z</time>
      </trkpt>
      <trkpt lat="38.6725100" lon="-0.6934490">
        <ele>958.8</ele>
        <time>2019-05-12T13:38:30Z</time>
      </trkpt>
      <trkpt lat="38.6724280" lon="-0.6934510">
        <ele>959.0</ele>
        <time>2019-05-12T13:38:32Z</time>
      </trkpt>
      <trkpt lat="38.6723870" lon="-0.6934500">
        <ele>959.4</ele>
        <time>2019-05-12T13:38:33Z</time>
      </trkpt>
      <trkpt lat="38.6722090" lon="-0.6934020">
        <ele>960.0</ele>
        <time>2019-05-12T13:38:38Z</time>
      </trkpt>
      <trkpt lat="38.6721440" lon="-0.6933570">
        <ele>960.4</ele>
        <time>2019-05-12T13:38:40Z</time>
      </trkpt>
      <trkpt lat="38.6720610" lon="-0.6932660">
        <ele>960.6</ele>
        <time>2019-05-12T13:38:43Z</time>
      </trkpt>
      <trkpt lat="38.6719320" lon="-0.6932140">
        <ele>960.4</ele>
        <time>2019-05-12T13:38:46Z</time>
      </trkpt>
      <trkpt lat="38.6718780" lon="-0.6931970">
        <ele>959.8</ele>
        <time>2019-05-12T13:38:47Z</time>
      </trkpt>
      <trkpt lat="38.6718240" lon="-0.6931640">
        <ele>959.0</ele>
        <time>2019-05-12T13:38:48Z</time>
      </trkpt>
      <trkpt lat="38.6717140" lon="-0.6930760">
        <ele>958.0</ele>
        <time>2019-05-12T13:38:50Z</time>
      </trkpt>
      <trkpt lat="38.6716560" lon="-0.6930280">
        <ele>957.6</ele>
        <time>2019-05-12T13:38:51Z</time>
      </trkpt>
      <trkpt lat="38.6715870" lon="-0.6930250">
        <ele>956.8</ele>
        <time>2019-05-12T13:38:52Z</time>
      </trkpt>
      <trkpt lat="38.6714260" lon="-0.6930280">
        <ele>955.6</ele>
        <time>2019-05-12T13:38:54Z</time>
      </trkpt>
      <trkpt lat="38.6712460" lon="-0.6929990">
        <ele>954.0</ele>
        <time>2019-05-12T13:38:56Z</time>
      </trkpt>
      <trkpt lat="38.6711660" lon="-0.6929560">
        <ele>953.2</ele>
        <time>2019-05-12T13:38:57Z</time>
      </trkpt>
      <trkpt lat="38.6710810" lon="-0.6929300">
        <ele>952.8</ele>
        <time>2019-05-12T13:38:58Z</time>
      </trkpt>
      <trkpt lat="38.6708590" lon="-0.6928740">
        <ele>951.6</ele>
        <time>2019-05-12T13:39:01Z</time>
      </trkpt>
      <trkpt lat="38.6706390" lon="-0.6928190">
        <ele>950.8</ele>
        <time>2019-05-12T13:39:04Z</time>
      </trkpt>
      <trkpt lat="38.6706000" lon="-0.6927720">
        <ele>950.8</ele>
        <time>2019-05-12T13:39:05Z</time>
      </trkpt>
      <trkpt lat="38.6705690" lon="-0.6926000">
        <ele>951.6</ele>
        <time>2019-05-12T13:39:08Z</time>
      </trkpt>
      <trkpt lat="38.6704930" lon="-0.6923530">
        <ele>950.4</ele>
        <time>2019-05-12T13:39:12Z</time>
      </trkpt>
      <trkpt lat="38.6703790" lon="-0.6922930">
        <ele>949.0</ele>
        <time>2019-05-12T13:39:14Z</time>
      </trkpt>
      <trkpt lat="38.6703050" lon="-0.6922920">
        <ele>948.4</ele>
        <time>2019-05-12T13:39:15Z</time>
      </trkpt>
      <trkpt lat="38.6702260" lon="-0.6922920">
        <ele>947.6</ele>
        <time>2019-05-12T13:39:16Z</time>
      </trkpt>
      <trkpt lat="38.6701590" lon="-0.6922780">
        <ele>946.4</ele>
        <time>2019-05-12T13:39:17Z</time>
      </trkpt>
      <trkpt lat="38.6700370" lon="-0.6922220">
        <ele>944.8</ele>
        <time>2019-05-12T13:39:19Z</time>
      </trkpt>
      <trkpt lat="38.6699820" lon="-0.6922060">
        <ele>944.0</ele>
        <time>2019-05-12T13:39:20Z</time>
      </trkpt>
      <trkpt lat="38.6699210" lon="-0.6922110">
        <ele>943.4</ele>
        <time>2019-05-12T13:39:21Z</time>
      </trkpt>
      <trkpt lat="38.6697930" lon="-0.6922950">
        <ele>942.0</ele>
        <time>2019-05-12T13:39:23Z</time>
      </trkpt>
      <trkpt lat="38.6696790" lon="-0.6924220">
        <ele>940.4</ele>
        <time>2019-05-12T13:39:25Z</time>
      </trkpt>
      <trkpt lat="38.6696030" lon="-0.6925390">
        <ele>939.4</ele>
        <time>2019-05-12T13:39:27Z</time>
      </trkpt>
      <trkpt lat="38.6694840" lon="-0.6926530">
        <ele>939.4</ele>
        <time>2019-05-12T13:39:30Z</time>
      </trkpt>
      <trkpt lat="38.6694380" lon="-0.6926940">
        <ele>939.4</ele>
        <time>2019-05-12T13:39:31Z</time>
      </trkpt>
      <trkpt lat="38.6692100" lon="-0.6929390">
        <ele>938.4</ele>
        <time>2019-05-12T13:39:36Z</time>
      </trkpt>
      <trkpt lat="38.6691690" lon="-0.6929810">
        <ele>938.2</ele>
        <time>2019-05-12T13:39:37Z</time>
      </trkpt>
      <trkpt lat="38.6688740" lon="-0.6932660">
        <ele>937.2</ele>
        <time>2019-05-12T13:39:43Z</time>
      </trkpt>
      <trkpt lat="38.6687630" lon="-0.6934970">
        <ele>936.0</ele>
        <time>2019-05-12T13:39:46Z</time>
      </trkpt>
      <trkpt lat="38.6687300" lon="-0.6935700">
        <ele>935.6</ele>
        <time>2019-05-12T13:39:47Z</time>
      </trkpt>
      <trkpt lat="38.6685790" lon="-0.6938550">
        <ele>934.6</ele>
        <time>2019-05-12T13:39:51Z</time>
      </trkpt>
      <trkpt lat="38.6684500" lon="-0.6940470">
        <ele>933.6</ele>
        <time>2019-05-12T13:39:54Z</time>
      </trkpt>
      <trkpt lat="38.6683150" lon="-0.6943100">
        <ele>932.2</ele>
        <time>2019-05-12T13:39:58Z</time>
      </trkpt>
      <trkpt lat="38.6682690" lon="-0.6944560">
        <ele>932.2</ele>
        <time>2019-05-12T13:40:00Z</time>
      </trkpt>
      <trkpt lat="38.6681960" lon="-0.6949140">
        <ele>931.8</ele>
        <time>2019-05-12T13:40:06Z</time>
      </trkpt>
      <trkpt lat="38.6681900" lon="-0.6950760">
        <ele>931.0</ele>
        <time>2019-05-12T13:40:08Z</time>
      </trkpt>
      <trkpt lat="38.6681840" lon="-0.6952910">
        <ele>930.4</ele>
        <time>2019-05-12T13:40:11Z</time>
      </trkpt>
      <trkpt lat="38.6680730" lon="-0.6955650">
        <ele>930.4</ele>
        <time>2019-05-12T13:40:15Z</time>
      </trkpt>
      <trkpt lat="38.6679480" lon="-0.6958270">
        <ele>930.8</ele>
        <time>2019-05-12T13:40:19Z</time>
      </trkpt>
      <trkpt lat="38.6678730" lon="-0.6959270">
        <ele>930.4</ele>
        <time>2019-05-12T13:40:21Z</time>
      </trkpt>
      <trkpt lat="38.6677850" lon="-0.6960120">
        <ele>930.4</ele>
        <time>2019-05-12T13:40:23Z</time>
      </trkpt>
      <trkpt lat="38.6675910" lon="-0.6961640">
        <ele>929.4</ele>
        <time>2019-05-12T13:40:27Z</time>
      </trkpt>
      <trkpt lat="38.6672390" lon="-0.6963620">
        <ele>929.0</ele>
        <time>2019-05-12T13:40:34Z</time>
      </trkpt>
      <trkpt lat="38.6670970" lon="-0.6965020">
        <ele>928.2</ele>
        <time>2019-05-12T13:40:37Z</time>
      </trkpt>
      <trkpt lat="38.6670510" lon="-0.6965560">
        <ele>928.0</ele>
        <time>2019-05-12T13:40:38Z</time>
      </trkpt>
      <trkpt lat="38.6670090" lon="-0.6966190">
        <ele>928.0</ele>
        <time>2019-05-12T13:40:39Z</time>
      </trkpt>
      <trkpt lat="38.6669220" lon="-0.6967510">
        <ele>927.2</ele>
        <time>2019-05-12T13:40:41Z</time>
      </trkpt>
      <trkpt lat="38.6668290" lon="-0.6968640">
        <ele>926.2</ele>
        <time>2019-05-12T13:40:43Z</time>
      </trkpt>
      <trkpt lat="38.6667720" lon="-0.6969180">
        <ele>926.0</ele>
        <time>2019-05-12T13:40:44Z</time>
      </trkpt>
      <trkpt lat="38.6666710" lon="-0.6970220">
        <ele>924.8</ele>
        <time>2019-05-12T13:40:46Z</time>
      </trkpt>
      <trkpt lat="38.6664760" lon="-0.6972430">
        <ele>923.6</ele>
        <time>2019-05-12T13:40:50Z</time>
      </trkpt>
      <trkpt lat="38.6664310" lon="-0.6973030">
        <ele>923.4</ele>
        <time>2019-05-12T13:40:51Z</time>
      </trkpt>
      <trkpt lat="38.6662930" lon="-0.6975140">
        <ele>922.4</ele>
        <time>2019-05-12T13:40:54Z</time>
      </trkpt>
      <trkpt lat="38.6661100" lon="-0.6977930">
        <ele>921.6</ele>
        <time>2019-05-12T13:40:58Z</time>
      </trkpt>
      <trkpt lat="38.6660130" lon="-0.6979430">
        <ele>921.4</ele>
        <time>2019-05-12T13:41:00Z</time>
      </trkpt>
      <trkpt lat="38.6657580" lon="-0.6983480">
        <ele>921.8</ele>
        <time>2019-05-12T13:41:06Z</time>
      </trkpt>
      <trkpt lat="38.6655790" lon="-0.6986510">
        <ele>921.6</ele>
        <time>2019-05-12T13:41:11Z</time>
      </trkpt>
      <trkpt lat="38.6655040" lon="-0.6987960">
        <ele>920.8</ele>
        <time>2019-05-12T13:41:13Z</time>
      </trkpt>
      <trkpt lat="38.6653420" lon="-0.6990850">
        <ele>920.2</ele>
        <time>2019-05-12T13:41:17Z</time>
      </trkpt>
      <trkpt lat="38.6653030" lon="-0.6991510">
        <ele>920.2</ele>
        <time>2019-05-12T13:41:18Z</time>
      </trkpt>
      <trkpt lat="38.6650890" lon="-0.6995710">
        <ele>919.6</ele>
        <time>2019-05-12T13:41:24Z</time>
      </trkpt>
      <trkpt lat="38.6650590" lon="-0.6996380">
        <ele>919.4</ele>
        <time>2019-05-12T13:41:25Z</time>
      </trkpt>
      <trkpt lat="38.6649890" lon="-0.6997840">
        <ele>919.2</ele>
        <time>2019-05-12T13:41:27Z</time>
      </trkpt>
      <trkpt lat="38.6648340" lon="-0.7001120">
        <ele>918.0</ele>
        <time>2019-05-12T13:41:31Z</time>
      </trkpt>
      <trkpt lat="38.6647390" lon="-0.7002660">
        <ele>916.4</ele>
        <time>2019-05-12T13:41:33Z</time>
      </trkpt>
      <trkpt lat="38.6646750" lon="-0.7003310">
        <ele>916.0</ele>
        <time>2019-05-12T13:41:34Z</time>
      </trkpt>
      <trkpt lat="38.6646060" lon="-0.7003880">
        <ele>915.2</ele>
        <time>2019-05-12T13:41:35Z</time>
      </trkpt>
      <trkpt lat="38.6643860" lon="-0.7005410">
        <ele>913.4</ele>
        <time>2019-05-12T13:41:38Z</time>
      </trkpt>
      <trkpt lat="38.6642460" lon="-0.7006470">
        <ele>912.4</ele>
        <time>2019-05-12T13:41:40Z</time>
      </trkpt>
      <trkpt lat="38.6640940" lon="-0.7007570">
        <ele>912.2</ele>
        <time>2019-05-12T13:41:42Z</time>
      </trkpt>
      <trkpt lat="38.6638990" lon="-0.7008920">
        <ele>912.8</ele>
        <time>2019-05-12T13:41:45Z</time>
      </trkpt>
      <trkpt lat="38.6637750" lon="-0.7009740">
        <ele>912.6</ele>
        <time>2019-05-12T13:41:47Z</time>
      </trkpt>
      <trkpt lat="38.6637190" lon="-0.7010180">
        <ele>912.6</ele>
        <time>2019-05-12T13:41:48Z</time>
      </trkpt>
      <trkpt lat="38.6632840" lon="-0.7013370">
        <ele>912.8</ele>
        <time>2019-05-12T13:41:55Z</time>
      </trkpt>
      <trkpt lat="38.6628480" lon="-0.7016930">
        <ele>912.2</ele>
        <time>2019-05-12T13:42:02Z</time>
      </trkpt>
      <trkpt lat="38.6626920" lon="-0.7018030">
        <ele>911.2</ele>
        <time>2019-05-12T13:42:04Z</time>
      </trkpt>
      <trkpt lat="38.6626130" lon="-0.7018560">
        <ele>910.6</ele>
        <time>2019-05-12T13:42:05Z</time>
      </trkpt>
      <trkpt lat="38.6625300" lon="-0.7019110">
        <ele>909.8</ele>
        <time>2019-05-12T13:42:06Z</time>
      </trkpt>
      <trkpt lat="38.6623690" lon="-0.7020000">
        <ele>908.8</ele>
        <time>2019-05-12T13:42:08Z</time>
      </trkpt>
      <trkpt lat="38.6622930" lon="-0.7020340">
        <ele>908.6</ele>
        <time>2019-05-12T13:42:09Z</time>
      </trkpt>
      <trkpt lat="38.6622110" lon="-0.7020430">
        <ele>908.2</ele>
        <time>2019-05-12T13:42:10Z</time>
      </trkpt>
      <trkpt lat="38.6621370" lon="-0.7020570">
        <ele>907.6</ele>
        <time>2019-05-12T13:42:11Z</time>
      </trkpt>
      <trkpt lat="38.6620630" lon="-0.7020670">
        <ele>907.2</ele>
        <time>2019-05-12T13:42:12Z</time>
      </trkpt>
      <trkpt lat="38.6618590" lon="-0.7021110">
        <ele>906.2</ele>
        <time>2019-05-12T13:42:15Z</time>
      </trkpt>
      <trkpt lat="38.6617260" lon="-0.7021640">
        <ele>906.2</ele>
        <time>2019-05-12T13:42:18Z</time>
      </trkpt>
      <trkpt lat="38.6616850" lon="-0.7021450">
        <ele>907.0</ele>
        <time>2019-05-12T13:42:20Z</time>
      </trkpt>
      <trkpt lat="38.6616640" lon="-0.7021200">
        <ele>907.4</ele>
        <time>2019-05-12T13:42:21Z</time>
      </trkpt>
      <trkpt lat="38.6616430" lon="-0.7020960">
        <ele>907.6</ele>
        <time>2019-05-12T13:42:22Z</time>
      </trkpt>
      <trkpt lat="38.6615180" lon="-0.7019860">
        <ele>908.6</ele>
        <time>2019-05-12T13:42:28Z</time>
      </trkpt>
      <trkpt lat="38.6614030" lon="-0.7020070">
        <ele>909.0</ele>
        <time>2019-05-12T13:42:32Z</time>
      </trkpt>
      <trkpt lat="38.6612110" lon="-0.7020630">
        <ele>908.6</ele>
        <time>2019-05-12T13:42:38Z</time>
      </trkpt>
      <trkpt lat="38.6610850" lon="-0.7020280">
        <ele>909.6</ele>
        <time>2019-05-12T13:42:43Z</time>
      </trkpt>
      <trkpt lat="38.6609630" lon="-0.7020100">
        <ele>910.6</ele>
        <time>2019-05-12T13:42:48Z</time>
      </trkpt>
      <trkpt lat="38.6609080" lon="-0.7020060">
        <ele>911.2</ele>
        <time>2019-05-12T13:42:50Z</time>
      </trkpt>
      <trkpt lat="38.6607710" lon="-0.7019400">
        <ele>911.0</ele>
        <time>2019-05-12T13:42:55Z</time>
      </trkpt>
      <trkpt lat="38.6606650" lon="-0.7018350">
        <ele>911.6</ele>
        <time>2019-05-12T13:43:00Z</time>
      </trkpt>
      <trkpt lat="38.6606530" lon="-0.7018100">
        <ele>911.8</ele>
        <time>2019-05-12T13:43:01Z</time>
      </trkpt>
      <trkpt lat="38.6606320" lon="-0.7016820">
        <ele>912.6</ele>
        <time>2019-05-12T13:43:05Z</time>
      </trkpt>
      <trkpt lat="38.6606010" lon="-0.7015580">
        <ele>912.8</ele>
        <time>2019-05-12T13:43:09Z</time>
      </trkpt>
      <trkpt lat="38.6605930" lon="-0.7015300">
        <ele>913.0</ele>
        <time>2019-05-12T13:43:10Z</time>
      </trkpt>
      <trkpt lat="38.6605690" lon="-0.7014340">
        <ele>914.0</ele>
        <time>2019-05-12T13:43:13Z</time>
      </trkpt>
      <trkpt lat="38.6605420" lon="-0.7013440">
        <ele>914.8</ele>
        <time>2019-05-12T13:43:16Z</time>
      </trkpt>
      <trkpt lat="38.6604880" lon="-0.7012350">
        <ele>915.0</ele>
        <time>2019-05-12T13:43:20Z</time>
      </trkpt>
      <trkpt lat="38.6604540" lon="-0.7011790">
        <ele>915.4</ele>
        <time>2019-05-12T13:43:22Z</time>
      </trkpt>
      <trkpt lat="38.6604060" lon="-0.7011110">
        <ele>916.0</ele>
        <time>2019-05-12T13:43:25Z</time>
      </trkpt>
      <trkpt lat="38.6603630" lon="-0.7010430">
        <ele>916.8</ele>
        <time>2019-05-12T13:43:28Z</time>
      </trkpt>
      <trkpt lat="38.6603530" lon="-0.7010220">
        <ele>917.2</ele>
        <time>2019-05-12T13:43:29Z</time>
      </trkpt>
      <trkpt lat="38.6602920" lon="-0.7008500">
        <ele>918.0</ele>
        <time>2019-05-12T13:43:35Z</time>
      </trkpt>
      <trkpt lat="38.6602760" lon="-0.7007920">
        <ele>918.4</ele>
        <time>2019-05-12T13:43:37Z</time>
      </trkpt>
      <trkpt lat="38.6602450" lon="-0.7006650">
        <ele>919.2</ele>
        <time>2019-05-12T13:43:41Z</time>
      </trkpt>
      <trkpt lat="38.6602370" lon="-0.7006340">
        <ele>919.6</ele>
        <time>2019-05-12T13:43:42Z</time>
      </trkpt>
      <trkpt lat="38.6602100" lon="-0.7005000">
        <ele>920.0</ele>
        <time>2019-05-12T13:43:47Z</time>
      </trkpt>
      <trkpt lat="38.6602060" lon="-0.7004770">
        <ele>920.6</ele>
        <time>2019-05-12T13:43:48Z</time>
      </trkpt>
      <trkpt lat="38.6601800" lon="-0.7003960">
        <ele>921.6</ele>
        <time>2019-05-12T13:43:52Z</time>
      </trkpt>
      <trkpt lat="38.6601410" lon="-0.7002560">
        <ele>922.8</ele>
        <time>2019-05-12T13:43:58Z</time>
      </trkpt>
      <trkpt lat="38.6601210" lon="-0.7001400">
        <ele>924.0</ele>
        <time>2019-05-12T13:44:03Z</time>
      </trkpt>
      <trkpt lat="38.6601230" lon="-0.7001170">
        <ele>924.4</ele>
        <time>2019-05-12T13:44:04Z</time>
      </trkpt>
      <trkpt lat="38.6601330" lon="-0.7000300">
        <ele>925.2</ele>
        <time>2019-05-12T13:44:08Z</time>
      </trkpt>
      <trkpt lat="38.6601570" lon="-0.6999440">
        <ele>926.4</ele>
        <time>2019-05-12T13:44:12Z</time>
      </trkpt>
      <trkpt lat="38.6601650" lon="-0.6998730">
        <ele>927.0</ele>
        <time>2019-05-12T13:44:15Z</time>
      </trkpt>
      <trkpt lat="38.6601530" lon="-0.6998300">
        <ele>927.4</ele>
        <time>2019-05-12T13:44:17Z</time>
      </trkpt>
      <trkpt lat="38.6601450" lon="-0.6998090">
        <ele>927.4</ele>
        <time>2019-05-12T13:44:18Z</time>
      </trkpt>
      <trkpt lat="38.6600540" lon="-0.6997160">
        <ele>928.0</ele>
        <time>2019-05-12T13:44:23Z</time>
      </trkpt>
      <trkpt lat="38.6599270" lon="-0.6996130">
        <ele>928.0</ele>
        <time>2019-05-12T13:44:29Z</time>
      </trkpt>
      <trkpt lat="38.6598870" lon="-0.6996000">
        <ele>929.4</ele>
        <time>2019-05-12T13:44:31Z</time>
      </trkpt>
      <trkpt lat="38.6598040" lon="-0.6995990">
        <ele>930.4</ele>
        <time>2019-05-12T13:44:35Z</time>
      </trkpt>
      <trkpt lat="38.6597810" lon="-0.6995990">
        <ele>930.8</ele>
        <time>2019-05-12T13:44:36Z</time>
      </trkpt>
      <trkpt lat="38.6596700" lon="-0.6996160">
        <ele>930.6</ele>
        <time>2019-05-12T13:44:40Z</time>
      </trkpt>
      <trkpt lat="38.6594730" lon="-0.6996360">
        <ele>930.4</ele>
        <time>2019-05-12T13:44:46Z</time>
      </trkpt>
      <trkpt lat="38.6593280" lon="-0.6996510">
        <ele>931.0</ele>
        <time>2019-05-12T13:44:52Z</time>
      </trkpt>
      <trkpt lat="38.6591320" lon="-0.6996540">
        <ele>931.4</ele>
        <time>2019-05-12T13:44:58Z</time>
      </trkpt>
      <trkpt lat="38.6590590" lon="-0.6996400">
        <ele>931.8</ele>
        <time>2019-05-12T13:45:01Z</time>
      </trkpt>
      <trkpt lat="38.6589920" lon="-0.6995950">
        <ele>932.4</ele>
        <time>2019-05-12T13:45:04Z</time>
      </trkpt>
      <trkpt lat="38.6589240" lon="-0.6995540">
        <ele>933.0</ele>
        <time>2019-05-12T13:45:07Z</time>
      </trkpt>
      <trkpt lat="38.6588700" lon="-0.6995600">
        <ele>933.2</ele>
        <time>2019-05-12T13:45:09Z</time>
      </trkpt>
      <trkpt lat="38.6588040" lon="-0.6996690">
        <ele>934.0</ele>
        <time>2019-05-12T13:45:14Z</time>
      </trkpt>
      <trkpt lat="38.6587650" lon="-0.6997580">
        <ele>935.2</ele>
        <time>2019-05-12T13:45:18Z</time>
      </trkpt>
      <trkpt lat="38.6587480" lon="-0.6997980">
        <ele>936.0</ele>
        <time>2019-05-12T13:45:20Z</time>
      </trkpt>
      <trkpt lat="38.6587400" lon="-0.6998190">
        <ele>936.4</ele>
        <time>2019-05-12T13:45:21Z</time>
      </trkpt>
      <trkpt lat="38.6587350" lon="-0.6999430">
        <ele>937.2</ele>
        <time>2019-05-12T13:45:26Z</time>
      </trkpt>
      <trkpt lat="38.6587480" lon="-0.6999740">
        <ele>937.0</ele>
        <time>2019-05-12T13:45:27Z</time>
      </trkpt>
      <trkpt lat="38.6587950" lon="-0.7000470">
        <ele>936.8</ele>
        <time>2019-05-12T13:45:29Z</time>
      </trkpt>
      <trkpt lat="38.6588920" lon="-0.7002100">
        <ele>935.6</ele>
        <time>2019-05-12T13:45:32Z</time>
      </trkpt>
      <trkpt lat="38.6589240" lon="-0.7002770">
        <ele>935.0</ele>
        <time>2019-05-12T13:45:33Z</time>
      </trkpt>
      <trkpt lat="38.6589520" lon="-0.7003440">
        <ele>934.4</ele>
        <time>2019-05-12T13:45:34Z</time>
      </trkpt>
      <trkpt lat="38.6589720" lon="-0.7004080">
        <ele>933.8</ele>
        <time>2019-05-12T13:45:35Z</time>
      </trkpt>
      <trkpt lat="38.6589980" lon="-0.7005280">
        <ele>933.0</ele>
        <time>2019-05-12T13:45:37Z</time>
      </trkpt>
      <trkpt lat="38.6589930" lon="-0.7006540">
        <ele>932.2</ele>
        <time>2019-05-12T13:45:39Z</time>
      </trkpt>
      <trkpt lat="38.6589810" lon="-0.7007290">
        <ele>931.4</ele>
        <time>2019-05-12T13:45:40Z</time>
      </trkpt>
      <trkpt lat="38.6589600" lon="-0.7008090">
        <ele>930.6</ele>
        <time>2019-05-12T13:45:41Z</time>
      </trkpt>
      <trkpt lat="38.6589330" lon="-0.7009740">
        <ele>928.6</ele>
        <time>2019-05-12T13:45:43Z</time>
      </trkpt>
      <trkpt lat="38.6589160" lon="-0.7010620">
        <ele>927.4</ele>
        <time>2019-05-12T13:45:44Z</time>
      </trkpt>
      <trkpt lat="38.6588930" lon="-0.7011450">
        <ele>926.2</ele>
        <time>2019-05-12T13:45:45Z</time>
      </trkpt>
      <trkpt lat="38.6588700" lon="-0.7012250">
        <ele>925.0</ele>
        <time>2019-05-12T13:45:46Z</time>
      </trkpt>
      <trkpt lat="38.6588610" lon="-0.7013110">
        <ele>922.8</ele>
        <time>2019-05-12T13:45:47Z</time>
      </trkpt>
      <trkpt lat="38.6588770" lon="-0.7014850">
        <ele>921.2</ele>
        <time>2019-05-12T13:45:49Z</time>
      </trkpt>
      <trkpt lat="38.6588880" lon="-0.7015550">
        <ele>920.8</ele>
        <time>2019-05-12T13:45:50Z</time>
      </trkpt>
      <trkpt lat="38.6589030" lon="-0.7017040">
        <ele>920.4</ele>
        <time>2019-05-12T13:45:53Z</time>
      </trkpt>
      <trkpt lat="38.6589090" lon="-0.7017580">
        <ele>920.2</ele>
        <time>2019-05-12T13:45:54Z</time>
      </trkpt>
      <trkpt lat="38.6589290" lon="-0.7019240">
        <ele>919.0</ele>
        <time>2019-05-12T13:45:57Z</time>
      </trkpt>
      <trkpt lat="38.6589380" lon="-0.7019810">
        <ele>918.4</ele>
        <time>2019-05-12T13:45:58Z</time>
      </trkpt>
      <trkpt lat="38.6589480" lon="-0.7020440">
        <ele>917.6</ele>
        <time>2019-05-12T13:45:59Z</time>
      </trkpt>
      <trkpt lat="38.6589880" lon="-0.7021890">
        <ele>916.6</ele>
        <time>2019-05-12T13:46:01Z</time>
      </trkpt>
      <trkpt lat="38.6590220" lon="-0.7022740">
        <ele>915.8</ele>
        <time>2019-05-12T13:46:02Z</time>
      </trkpt>
      <trkpt lat="38.6590630" lon="-0.7023610">
        <ele>914.4</ele>
        <time>2019-05-12T13:46:03Z</time>
      </trkpt>
      <trkpt lat="38.6591030" lon="-0.7024390">
        <ele>913.4</ele>
        <time>2019-05-12T13:46:04Z</time>
      </trkpt>
      <trkpt lat="38.6591630" lon="-0.7025930">
        <ele>912.2</ele>
        <time>2019-05-12T13:46:06Z</time>
      </trkpt>
      <trkpt lat="38.6591480" lon="-0.7028280">
        <ele>913.0</ele>
        <time>2019-05-12T13:46:09Z</time>
      </trkpt>
      <trkpt lat="38.6590790" lon="-0.7032780">
        <ele>911.0</ele>
        <time>2019-05-12T13:46:14Z</time>
      </trkpt>
      <trkpt lat="38.6590350" lon="-0.7035550">
        <ele>910.0</ele>
        <time>2019-05-12T13:46:17Z</time>
      </trkpt>
      <trkpt lat="38.6590000" lon="-0.7037430">
        <ele>908.8</ele>
        <time>2019-05-12T13:46:19Z</time>
      </trkpt>
      <trkpt lat="38.6589830" lon="-0.7038330">
        <ele>908.4</ele>
        <time>2019-05-12T13:46:20Z</time>
      </trkpt>
      <trkpt lat="38.6589580" lon="-0.7039190">
        <ele>908.0</ele>
        <time>2019-05-12T13:46:21Z</time>
      </trkpt>
      <trkpt lat="38.6589270" lon="-0.7039970">
        <ele>907.6</ele>
        <time>2019-05-12T13:46:22Z</time>
      </trkpt>
      <trkpt lat="38.6588640" lon="-0.7041220">
        <ele>907.8</ele>
        <time>2019-05-12T13:46:24Z</time>
      </trkpt>
      <trkpt lat="38.6588000" lon="-0.7042100">
        <ele>909.0</ele>
        <time>2019-05-12T13:46:27Z</time>
      </trkpt>
      <trkpt lat="38.6587780" lon="-0.7042130">
        <ele>909.2</ele>
        <time>2019-05-12T13:46:28Z</time>
      </trkpt>
      <trkpt lat="38.6586920" lon="-0.7041940">
        <ele>910.0</ele>
        <time>2019-05-12T13:46:31Z</time>
      </trkpt>
      <trkpt lat="38.6586360" lon="-0.7041950">
        <ele>910.4</ele>
        <time>2019-05-12T13:46:33Z</time>
      </trkpt>
      <trkpt lat="38.6585620" lon="-0.7042150">
        <ele>911.2</ele>
        <time>2019-05-12T13:46:36Z</time>
      </trkpt>
      <trkpt lat="38.6584880" lon="-0.7042240">
        <ele>912.0</ele>
        <time>2019-05-12T13:46:39Z</time>
      </trkpt>
      <trkpt lat="38.6584650" lon="-0.7042340">
        <ele>912.4</ele>
        <time>2019-05-12T13:46:40Z</time>
      </trkpt>
      <trkpt lat="38.6584080" lon="-0.7042660">
        <ele>913.4</ele>
        <time>2019-05-12T13:46:43Z</time>
      </trkpt>
      <trkpt lat="38.6583630" lon="-0.7042720">
        <ele>913.6</ele>
        <time>2019-05-12T13:46:45Z</time>
      </trkpt>
      <trkpt lat="38.6582580" lon="-0.7042820">
        <ele>914.8</ele>
        <time>2019-05-12T13:46:50Z</time>
      </trkpt>
      <trkpt lat="38.6581930" lon="-0.7042820">
        <ele>915.6</ele>
        <time>2019-05-12T13:46:53Z</time>
      </trkpt>
      <trkpt lat="38.6581730" lon="-0.7042850">
        <ele>916.0</ele>
        <time>2019-05-12T13:46:54Z</time>
      </trkpt>
      <trkpt lat="38.6580470" lon="-0.7042910">
        <ele>917.0</ele>
        <time>2019-05-12T13:47:00Z</time>
      </trkpt>
      <trkpt lat="38.6579300" lon="-0.7043070">
        <ele>918.2</ele>
        <time>2019-05-12T13:47:05Z</time>
      </trkpt>
      <trkpt lat="38.6578860" lon="-0.7043230">
        <ele>918.4</ele>
        <time>2019-05-12T13:47:07Z</time>
      </trkpt>
      <trkpt lat="38.6577870" lon="-0.7043370">
        <ele>919.2</ele>
        <time>2019-05-12T13:47:12Z</time>
      </trkpt>
      <trkpt lat="38.6577510" lon="-0.7043410">
        <ele>920.0</ele>
        <time>2019-05-12T13:47:14Z</time>
      </trkpt>
      <trkpt lat="38.6577330" lon="-0.7043350">
        <ele>920.4</ele>
        <time>2019-05-12T13:47:15Z</time>
      </trkpt>
      <trkpt lat="38.6576740" lon="-0.7043250">
        <ele>920.8</ele>
        <time>2019-05-12T13:47:18Z</time>
      </trkpt>
      <trkpt lat="38.6575940" lon="-0.7043100">
        <ele>921.4</ele>
        <time>2019-05-12T13:47:22Z</time>
      </trkpt>
      <trkpt lat="38.6575750" lon="-0.7043120">
        <ele>921.6</ele>
        <time>2019-05-12T13:47:23Z</time>
      </trkpt>
      <trkpt lat="38.6574450" lon="-0.7042840">
        <ele>922.2</ele>
        <time>2019-05-12T13:47:29Z</time>
      </trkpt>
      <trkpt lat="38.6574270" lon="-0.7042660">
        <ele>922.6</ele>
        <time>2019-05-12T13:47:30Z</time>
      </trkpt>
      <trkpt lat="38.6573710" lon="-0.7042210">
        <ele>923.0</ele>
        <time>2019-05-12T13:47:33Z</time>
      </trkpt>
      <trkpt lat="38.6573270" lon="-0.7041740">
        <ele>923.4</ele>
        <time>2019-05-12T13:47:36Z</time>
      </trkpt>
      <trkpt lat="38.6572760" lon="-0.7041120">
        <ele>923.8</ele>
        <time>2019-05-12T13:47:39Z</time>
      </trkpt>
      <trkpt lat="38.6572050" lon="-0.7040470">
        <ele>924.6</ele>
        <time>2019-05-12T13:47:43Z</time>
      </trkpt>
      <trkpt lat="38.6571640" lon="-0.7039980">
        <ele>924.8</ele>
        <time>2019-05-12T13:47:46Z</time>
      </trkpt>
      <trkpt lat="38.6570770" lon="-0.7039120">
        <ele>926.4</ele>
        <time>2019-05-12T13:47:52Z</time>
      </trkpt>
      <trkpt lat="38.6569970" lon="-0.7038170">
        <ele>927.4</ele>
        <time>2019-05-12T13:47:59Z</time>
      </trkpt>
      <trkpt lat="38.6569840" lon="-0.7038010">
        <ele>927.4</ele>
        <time>2019-05-12T13:48:00Z</time>
      </trkpt>
      <trkpt lat="38.6569420" lon="-0.7037300">
        <ele>928.8</ele>
        <time>2019-05-12T13:48:04Z</time>
      </trkpt>
      <trkpt lat="38.6569280" lon="-0.7037030">
        <ele>928.8</ele>
        <time>2019-05-12T13:48:05Z</time>
      </trkpt>
      <trkpt lat="38.6568670" lon="-0.7036540">
        <ele>929.6</ele>
        <time>2019-05-12T13:48:09Z</time>
      </trkpt>
      <trkpt lat="38.6568470" lon="-0.7036580">
        <ele>929.8</ele>
        <time>2019-05-12T13:48:10Z</time>
      </trkpt>
      <trkpt lat="38.6567960" lon="-0.7036730">
        <ele>930.6</ele>
        <time>2019-05-12T13:48:13Z</time>
      </trkpt>
      <trkpt lat="38.6567840" lon="-0.7036710">
        <ele>930.8</ele>
        <time>2019-05-12T13:48:14Z</time>
      </trkpt>
      <trkpt lat="38.6567690" lon="-0.7036730">
        <ele>930.8</ele>
        <time>2019-05-12T13:48:15Z</time>
      </trkpt>
      <trkpt lat="38.6567100" lon="-0.7036600">
        <ele>932.0</ele>
        <time>2019-05-12T13:48:19Z</time>
      </trkpt>
      <trkpt lat="38.6566710" lon="-0.7036540">
        <ele>932.8</ele>
        <time>2019-05-12T13:48:22Z</time>
      </trkpt>
      <trkpt lat="38.6566570" lon="-0.7036540">
        <ele>933.0</ele>
        <time>2019-05-12T13:48:23Z</time>
      </trkpt>
      <trkpt lat="38.6565840" lon="-0.7036660">
        <ele>934.2</ele>
        <time>2019-05-12T13:48:28Z</time>
      </trkpt>
      <trkpt lat="38.6565600" lon="-0.7036780">
        <ele>935.0</ele>
        <time>2019-05-12T13:48:30Z</time>
      </trkpt>
      <trkpt lat="38.6565470" lon="-0.7036840">
        <ele>935.4</ele>
        <time>2019-05-12T13:48:31Z</time>
      </trkpt>
      <trkpt lat="38.6564870" lon="-0.7037080">
        <ele>936.4</ele>
        <time>2019-05-12T13:48:35Z</time>
      </trkpt>
      <trkpt lat="38.6564740" lon="-0.7037120">
        <ele>936.8</ele>
        <time>2019-05-12T13:48:36Z</time>
      </trkpt>
      <trkpt lat="38.6564210" lon="-0.7037240">
        <ele>937.6</ele>
        <time>2019-05-12T13:48:40Z</time>
      </trkpt>
      <trkpt lat="38.6563760" lon="-0.7037230">
        <ele>939.0</ele>
        <time>2019-05-12T13:48:43Z</time>
      </trkpt>
      <trkpt lat="38.6563470" lon="-0.7037090">
        <ele>939.4</ele>
        <time>2019-05-12T13:48:45Z</time>
      </trkpt>
      <trkpt lat="38.6563200" lon="-0.7037100">
        <ele>940.2</ele>
        <time>2019-05-12T13:48:47Z</time>
      </trkpt>
      <trkpt lat="38.6562910" lon="-0.7037240">
        <ele>940.4</ele>
        <time>2019-05-12T13:48:49Z</time>
      </trkpt>
      <trkpt lat="38.6562740" lon="-0.7037270">
        <ele>940.6</ele>
        <time>2019-05-12T13:48:50Z</time>
      </trkpt>
      <trkpt lat="38.6562480" lon="-0.7037440">
        <ele>941.2</ele>
        <time>2019-05-12T13:48:52Z</time>
      </trkpt>
      <trkpt lat="38.6562200" lon="-0.7037590">
        <ele>942.0</ele>
        <time>2019-05-12T13:48:54Z</time>
      </trkpt>
      <trkpt lat="38.6561950" lon="-0.7037820">
        <ele>942.2</ele>
        <time>2019-05-12T13:48:56Z</time>
      </trkpt>
      <trkpt lat="38.6561580" lon="-0.7038160">
        <ele>943.8</ele>
        <time>2019-05-12T13:48:59Z</time>
      </trkpt>
      <trkpt lat="38.6561430" lon="-0.7038380">
        <ele>944.0</ele>
        <time>2019-05-12T13:49:01Z</time>
      </trkpt>
      <trkpt lat="38.6560950" lon="-0.7039310">
        <ele>945.2</ele>
        <time>2019-05-12T13:49:07Z</time>
      </trkpt>
      <trkpt lat="38.6560900" lon="-0.7039450">
        <ele>945.6</ele>
        <time>2019-05-12T13:49:08Z</time>
      </trkpt>
      <trkpt lat="38.6560830" lon="-0.7039600">
        <ele>946.0</ele>
        <time>2019-05-12T13:49:09Z</time>
      </trkpt>
      <trkpt lat="38.6560770" lon="-0.7039750">
        <ele>946.4</ele>
        <time>2019-05-12T13:49:10Z</time>
      </trkpt>
      <trkpt lat="38.6560590" lon="-0.7040160">
        <ele>946.8</ele>
        <time>2019-05-12T13:49:13Z</time>
      </trkpt>
      <trkpt lat="38.6560500" lon="-0.7040300">
        <ele>947.0</ele>
        <time>2019-05-12T13:49:14Z</time>
      </trkpt>
      <trkpt lat="38.6560380" lon="-0.7040550">
        <ele>947.4</ele>
        <time>2019-05-12T13:49:16Z</time>
      </trkpt>
      <trkpt lat="38.6560180" lon="-0.7040940">
        <ele>948.4</ele>
        <time>2019-05-12T13:49:19Z</time>
      </trkpt>
      <trkpt lat="38.6559930" lon="-0.7041510">
        <ele>949.6</ele>
        <time>2019-05-12T13:49:23Z</time>
      </trkpt>
      <trkpt lat="38.6559860" lon="-0.7041640">
        <ele>949.8</ele>
        <time>2019-05-12T13:49:24Z</time>
      </trkpt>
      <trkpt lat="38.6559800" lon="-0.7041770">
        <ele>950.0</ele>
        <time>2019-05-12T13:49:25Z</time>
      </trkpt>
      <trkpt lat="38.6559670" lon="-0.7042120">
        <ele>950.6</ele>
        <time>2019-05-12T13:49:27Z</time>
      </trkpt>
      <trkpt lat="38.6559450" lon="-0.7042530">
        <ele>951.6</ele>
        <time>2019-05-12T13:49:30Z</time>
      </trkpt>
      <trkpt lat="38.6559360" lon="-0.7042640">
        <ele>951.8</ele>
        <time>2019-05-12T13:49:31Z</time>
      </trkpt>
      <trkpt lat="38.6559250" lon="-0.7042740">
        <ele>952.2</ele>
        <time>2019-05-12T13:49:32Z</time>
      </trkpt>
      <trkpt lat="38.6558950" lon="-0.7042950">
        <ele>953.0</ele>
        <time>2019-05-12T13:49:35Z</time>
      </trkpt>
      <trkpt lat="38.6558460" lon="-0.7043070">
        <ele>954.2</ele>
        <time>2019-05-12T13:49:39Z</time>
      </trkpt>
      <trkpt lat="38.6558340" lon="-0.7043130">
        <ele>954.2</ele>
        <time>2019-05-12T13:49:40Z</time>
      </trkpt>
      <trkpt lat="38.6557720" lon="-0.7043790">
        <ele>955.2</ele>
        <time>2019-05-12T13:49:44Z</time>
      </trkpt>
      <trkpt lat="38.6557380" lon="-0.7044220">
        <ele>956.6</ele>
        <time>2019-05-12T13:49:47Z</time>
      </trkpt>
      <trkpt lat="38.6556930" lon="-0.7044890">
        <ele>957.8</ele>
        <time>2019-05-12T13:49:51Z</time>
      </trkpt>
      <trkpt lat="38.6556500" lon="-0.7045360">
        <ele>959.0</ele>
        <time>2019-05-12T13:49:54Z</time>
      </trkpt>
      <trkpt lat="38.6556240" lon="-0.7045580">
        <ele>959.2</ele>
        <time>2019-05-12T13:49:56Z</time>
      </trkpt>
      <trkpt lat="38.6555870" lon="-0.7045840">
        <ele>960.2</ele>
        <time>2019-05-12T13:49:59Z</time>
      </trkpt>
      <trkpt lat="38.6555620" lon="-0.7045870">
        <ele>960.4</ele>
        <time>2019-05-12T13:50:01Z</time>
      </trkpt>
      <trkpt lat="38.6555410" lon="-0.7045620">
        <ele>960.6</ele>
        <time>2019-05-12T13:50:03Z</time>
      </trkpt>
      <trkpt lat="38.6555140" lon="-0.7045010">
        <ele>961.2</ele>
        <time>2019-05-12T13:50:06Z</time>
      </trkpt>
      <trkpt lat="38.6554790" lon="-0.7044750">
        <ele>961.4</ele>
        <time>2019-05-12T13:50:08Z</time>
      </trkpt>
      <trkpt lat="38.6554130" lon="-0.7044170">
        <ele>961.6</ele>
        <time>2019-05-12T13:50:12Z</time>
      </trkpt>
      <trkpt lat="38.6553650" lon="-0.7043930">
        <ele>961.8</ele>
        <time>2019-05-12T13:50:15Z</time>
      </trkpt>
      <trkpt lat="38.6553510" lon="-0.7043820">
        <ele>962.2</ele>
        <time>2019-05-12T13:50:16Z</time>
      </trkpt>
      <trkpt lat="38.6552670" lon="-0.7043150">
        <ele>963.6</ele>
        <time>2019-05-12T13:50:22Z</time>
      </trkpt>
      <trkpt lat="38.6552540" lon="-0.7043080">
        <ele>964.2</ele>
        <time>2019-05-12T13:50:23Z</time>
      </trkpt>
      <trkpt lat="38.6551710" lon="-0.7042600">
        <ele>964.8</ele>
        <time>2019-05-12T13:50:28Z</time>
      </trkpt>
      <trkpt lat="38.6550340" lon="-0.7041630">
        <ele>965.4</ele>
        <time>2019-05-12T13:50:36Z</time>
      </trkpt>
      <trkpt lat="38.6549990" lon="-0.7041390">
        <ele>966.0</ele>
        <time>2019-05-12T13:50:38Z</time>
      </trkpt>
      <trkpt lat="38.6549030" lon="-0.7040800">
        <ele>966.2</ele>
        <time>2019-05-12T13:50:43Z</time>
      </trkpt>
      <trkpt lat="38.6548040" lon="-0.7039940">
        <ele>967.0</ele>
        <time>2019-05-12T13:50:49Z</time>
      </trkpt>
      <trkpt lat="38.6546860" lon="-0.7038810">
        <ele>967.8</ele>
        <time>2019-05-12T13:50:56Z</time>
      </trkpt>
      <trkpt lat="38.6546570" lon="-0.7038530">
        <ele>968.2</ele>
        <time>2019-05-12T13:50:58Z</time>
      </trkpt>
      <trkpt lat="38.6545730" lon="-0.7037940">
        <ele>969.2</ele>
        <time>2019-05-12T13:51:04Z</time>
      </trkpt>
      <trkpt lat="38.6544700" lon="-0.7037430">
        <ele>970.4</ele>
        <time>2019-05-12T13:51:10Z</time>
      </trkpt>
      <trkpt lat="38.6544550" lon="-0.7037370">
        <ele>970.8</ele>
        <time>2019-05-12T13:51:11Z</time>
      </trkpt>
      <trkpt lat="38.6544130" lon="-0.7037150">
        <ele>971.4</ele>
        <time>2019-05-12T13:51:14Z</time>
      </trkpt>
      <trkpt lat="38.6543620" lon="-0.7036840">
        <ele>972.4</ele>
        <time>2019-05-12T13:51:18Z</time>
      </trkpt>
      <trkpt lat="38.6543500" lon="-0.7036690">
        <ele>972.8</ele>
        <time>2019-05-12T13:51:19Z</time>
      </trkpt>
      <trkpt lat="38.6542950" lon="-0.7036060">
        <ele>973.8</ele>
        <time>2019-05-12T13:51:24Z</time>
      </trkpt>
      <trkpt lat="38.6542830" lon="-0.7035930">
        <ele>974.0</ele>
        <time>2019-05-12T13:51:25Z</time>
      </trkpt>
      <trkpt lat="38.6542310" lon="-0.7035320">
        <ele>974.8</ele>
        <time>2019-05-12T13:51:30Z</time>
      </trkpt>
      <trkpt lat="38.6542190" lon="-0.7035240">
        <ele>975.0</ele>
        <time>2019-05-12T13:51:31Z</time>
      </trkpt>
      <trkpt lat="38.6541850" lon="-0.7034930">
        <ele>976.0</ele>
        <time>2019-05-12T13:51:34Z</time>
      </trkpt>
      <trkpt lat="38.6541390" lon="-0.7034500">
        <ele>977.0</ele>
        <time>2019-05-12T13:51:38Z</time>
      </trkpt>
      <trkpt lat="38.6541260" lon="-0.7034400">
        <ele>977.2</ele>
        <time>2019-05-12T13:51:39Z</time>
      </trkpt>
      <trkpt lat="38.6540780" lon="-0.7034070">
        <ele>978.2</ele>
        <time>2019-05-12T13:51:43Z</time>
      </trkpt>
      <trkpt lat="38.6540540" lon="-0.7033910">
        <ele>979.2</ele>
        <time>2019-05-12T13:51:45Z</time>
      </trkpt>
      <trkpt lat="38.6540420" lon="-0.7033810">
        <ele>979.6</ele>
        <time>2019-05-12T13:51:46Z</time>
      </trkpt>
      <trkpt lat="38.6539940" lon="-0.7033400">
        <ele>980.6</ele>
        <time>2019-05-12T13:51:50Z</time>
      </trkpt>
      <trkpt lat="38.6539700" lon="-0.7033250">
        <ele>981.4</ele>
        <time>2019-05-12T13:51:52Z</time>
      </trkpt>
      <trkpt lat="38.6539570" lon="-0.7033190">
        <ele>981.8</ele>
        <time>2019-05-12T13:51:53Z</time>
      </trkpt>
      <trkpt lat="38.6539470" lon="-0.7033120">
        <ele>982.0</ele>
        <time>2019-05-12T13:51:54Z</time>
      </trkpt>
      <trkpt lat="38.6539160" lon="-0.7032970">
        <ele>982.8</ele>
        <time>2019-05-12T13:51:57Z</time>
      </trkpt>
      <trkpt lat="38.6539040" lon="-0.7032890">
        <ele>983.2</ele>
        <time>2019-05-12T13:51:58Z</time>
      </trkpt>
      <trkpt lat="38.6538680" lon="-0.7032570">
        <ele>984.0</ele>
        <time>2019-05-12T13:52:01Z</time>
      </trkpt>
      <trkpt lat="38.6538420" lon="-0.7032200">
        <ele>985.2</ele>
        <time>2019-05-12T13:52:04Z</time>
      </trkpt>
      <trkpt lat="38.6538330" lon="-0.7032070">
        <ele>985.2</ele>
        <time>2019-05-12T13:52:05Z</time>
      </trkpt>
      <trkpt lat="38.6537870" lon="-0.7031550">
        <ele>986.4</ele>
        <time>2019-05-12T13:52:10Z</time>
      </trkpt>
      <trkpt lat="38.6537660" lon="-0.7031340">
        <ele>986.8</ele>
        <time>2019-05-12T13:52:12Z</time>
      </trkpt>
      <trkpt lat="38.6537480" lon="-0.7031210">
        <ele>987.6</ele>
        <time>2019-05-12T13:52:14Z</time>
      </trkpt>
      <trkpt lat="38.6537330" lon="-0.7031120">
        <ele>988.6</ele>
        <time>2019-05-12T13:52:17Z</time>
      </trkpt>
      <trkpt lat="38.6529660" lon="-0.7030710">
        <ele>1008.6</ele>
        <time>2019-05-12T13:54:23Z</time>
      </trkpt>
      <trkpt lat="38.6529380" lon="-0.7030660">
        <ele>1009.0</ele>
        <time>2019-05-12T13:54:26Z</time>
      </trkpt>
      <trkpt lat="38.6529120" lon="-0.7030520">
        <ele>1009.8</ele>
        <time>2019-05-12T13:54:30Z</time>
      </trkpt>
      <trkpt lat="38.6528870" lon="-0.7030390">
        <ele>1010.6</ele>
        <time>2019-05-12T13:54:34Z</time>
      </trkpt>
      <trkpt lat="38.6528670" lon="-0.7030320">
        <ele>1011.0</ele>
        <time>2019-05-12T13:54:37Z</time>
      </trkpt>
      <trkpt lat="38.6528410" lon="-0.7030420">
        <ele>1012.0</ele>
        <time>2019-05-12T13:54:41Z</time>
      </trkpt>
      <trkpt lat="38.6528060" lon="-0.7030560">
        <ele>1013.4</ele>
        <time>2019-05-12T13:54:46Z</time>
      </trkpt>
      <trkpt lat="38.6528000" lon="-0.7030550">
        <ele>1013.6</ele>
        <time>2019-05-12T13:54:47Z</time>
      </trkpt>
      <trkpt lat="38.6527510" lon="-0.7030460">
        <ele>1014.2</ele>
        <time>2019-05-12T13:54:53Z</time>
      </trkpt>
      <trkpt lat="38.6527430" lon="-0.7030460">
        <ele>1014.6</ele>
        <time>2019-05-12T13:54:54Z</time>
      </trkpt>
      <trkpt lat="38.6522950" lon="-0.7030970">
        <ele>1023.0</ele>
        <time>2019-05-12T13:56:39Z</time>
      </trkpt>
      <trkpt lat="38.6522660" lon="-0.7030950">
        <ele>1023.2</ele>
        <time>2019-05-12T13:56:41Z</time>
      </trkpt>
      <trkpt lat="38.6521930" lon="-0.7030910">
        <ele>1023.2</ele>
        <time>2019-05-12T13:56:46Z</time>
      </trkpt>
      <trkpt lat="38.6521810" lon="-0.7030930">
        <ele>1023.4</ele>
        <time>2019-05-12T13:56:47Z</time>
      </trkpt>
      <trkpt lat="38.6521340" lon="-0.7030830">
        <ele>1023.8</ele>
        <time>2019-05-12T13:56:50Z</time>
      </trkpt>
      <trkpt lat="38.6521100" lon="-0.7030790">
        <ele>1024.0</ele>
        <time>2019-05-12T13:56:51Z</time>
      </trkpt>
      <trkpt lat="38.6520500" lon="-0.7030810">
        <ele>1025.2</ele>
        <time>2019-05-12T13:56:54Z</time>
      </trkpt>
      <trkpt lat="38.6519930" lon="-0.7030910">
        <ele>1026.4</ele>
        <time>2019-05-12T13:56:57Z</time>
      </trkpt>
      <trkpt lat="38.6519390" lon="-0.7030800">
        <ele>1027.6</ele>
        <time>2019-05-12T13:57:04Z</time>
      </trkpt>
      <trkpt lat="38.6518970" lon="-0.7030790">
        <ele>1028.2</ele>
        <time>2019-05-12T13:57:07Z</time>
      </trkpt>
      <trkpt lat="38.6518440" lon="-0.7030430">
        <ele>1028.6</ele>
        <time>2019-05-12T13:57:10Z</time>
      </trkpt>
      <trkpt lat="38.6518140" lon="-0.7030180">
        <ele>1029.4</ele>
        <time>2019-05-12T13:57:12Z</time>
      </trkpt>
      <trkpt lat="38.6517830" lon="-0.7030020">
        <ele>1029.8</ele>
        <time>2019-05-12T13:57:14Z</time>
      </trkpt>
      <trkpt lat="38.6517670" lon="-0.7030010">
        <ele>1030.0</ele>
        <time>2019-05-12T13:57:15Z</time>
      </trkpt>
      <trkpt lat="38.6517350" lon="-0.7029980">
        <ele>1030.6</ele>
        <time>2019-05-12T13:57:17Z</time>
      </trkpt>
      <trkpt lat="38.6516990" lon="-0.7029730">
        <ele>1030.8</ele>
        <time>2019-05-12T13:57:19Z</time>
      </trkpt>
      <trkpt lat="38.6516430" lon="-0.7029270">
        <ele>1031.2</ele>
        <time>2019-05-12T13:57:22Z</time>
      </trkpt>
      <trkpt lat="38.6515490" lon="-0.7028590">
        <ele>1032.0</ele>
        <time>2019-05-12T13:57:26Z</time>
      </trkpt>
      <trkpt lat="38.6514900" lon="-0.7028420">
        <ele>1032.2</ele>
        <time>2019-05-12T13:57:28Z</time>
      </trkpt>
      <trkpt lat="38.6513300" lon="-0.7028390">
        <ele>1032.6</ele>
        <time>2019-05-12T13:57:33Z</time>
      </trkpt>
      <trkpt lat="38.6512780" lon="-0.7028350">
        <ele>1033.2</ele>
        <time>2019-05-12T13:57:35Z</time>
      </trkpt>
      <trkpt lat="38.6512060" lon="-0.7028570">
        <ele>1034.0</ele>
        <time>2019-05-12T13:57:38Z</time>
      </trkpt>
      <trkpt lat="38.6511860" lon="-0.7028640">
        <ele>1034.4</ele>
        <time>2019-05-12T13:57:39Z</time>
      </trkpt>
      <trkpt lat="38.6511350" lon="-0.7028820">
        <ele>1035.6</ele>
        <time>2019-05-12T13:57:42Z</time>
      </trkpt>
      <trkpt lat="38.6511170" lon="-0.7028910">
        <ele>1035.8</ele>
        <time>2019-05-12T13:57:43Z</time>
      </trkpt>
      <trkpt lat="38.6510840" lon="-0.7029070">
        <ele>1036.6</ele>
        <time>2019-05-12T13:57:45Z</time>
      </trkpt>
      <trkpt lat="38.6510300" lon="-0.7029430">
        <ele>1038.0</ele>
        <time>2019-05-12T13:57:48Z</time>
      </trkpt>
      <trkpt lat="38.6509970" lon="-0.7029660">
        <ele>1038.6</ele>
        <time>2019-05-12T13:57:50Z</time>
      </trkpt>
      <trkpt lat="38.6509670" lon="-0.7029980">
        <ele>1039.4</ele>
        <time>2019-05-12T13:57:52Z</time>
      </trkpt>
      <trkpt lat="38.6508820" lon="-0.7030600">
        <ele>1040.0</ele>
        <time>2019-05-12T13:57:56Z</time>
      </trkpt>
      <trkpt lat="38.6507990" lon="-0.7030840">
        <ele>1040.4</ele>
        <time>2019-05-12T13:57:59Z</time>
      </trkpt>
      <trkpt lat="38.6507290" lon="-0.7030860">
        <ele>1040.2</ele>
        <time>2019-05-12T13:58:01Z</time>
      </trkpt>
      <trkpt lat="38.6505310" lon="-0.7030660">
        <ele>1040.8</ele>
        <time>2019-05-12T13:58:07Z</time>
      </trkpt>
      <trkpt lat="38.6504090" lon="-0.7031230">
        <ele>1040.8</ele>
        <time>2019-05-12T13:58:11Z</time>
      </trkpt>
      <trkpt lat="38.6503880" lon="-0.7031550">
        <ele>1041.2</ele>
        <time>2019-05-12T13:58:12Z</time>
      </trkpt>
      <trkpt lat="38.6503690" lon="-0.7031940">
        <ele>1041.4</ele>
        <time>2019-05-12T13:58:13Z</time>
      </trkpt>
      <trkpt lat="38.6503120" lon="-0.7033010">
        <ele>1041.6</ele>
        <time>2019-05-12T13:58:16Z</time>
      </trkpt>
      <trkpt lat="38.6502900" lon="-0.7033350">
        <ele>1041.4</ele>
        <time>2019-05-12T13:58:17Z</time>
      </trkpt>
      <trkpt lat="38.6501630" lon="-0.7035200">
        <ele>1042.4</ele>
        <time>2019-05-12T13:58:23Z</time>
      </trkpt>
      <trkpt lat="38.6501110" lon="-0.7037010">
        <ele>1042.8</ele>
        <time>2019-05-12T13:58:28Z</time>
      </trkpt>
      <trkpt lat="38.6500900" lon="-0.7037900">
        <ele>1043.6</ele>
        <time>2019-05-12T13:58:31Z</time>
      </trkpt>
      <trkpt lat="38.6500860" lon="-0.7038750">
        <ele>1044.2</ele>
        <time>2019-05-12T13:58:34Z</time>
      </trkpt>
      <trkpt lat="38.6500430" lon="-0.7040410">
        <ele>1044.6</ele>
        <time>2019-05-12T13:58:40Z</time>
      </trkpt>
      <trkpt lat="38.6500320" lon="-0.7040640">
        <ele>1044.6</ele>
        <time>2019-05-12T13:58:41Z</time>
      </trkpt>
      <trkpt lat="38.6499810" lon="-0.7041480">
        <ele>1045.8</ele>
        <time>2019-05-12T13:58:45Z</time>
      </trkpt>
      <trkpt lat="38.6499480" lon="-0.7041990">
        <ele>1046.4</ele>
        <time>2019-05-12T13:58:48Z</time>
      </trkpt>
      <trkpt lat="38.6499020" lon="-0.7042870">
        <ele>1046.8</ele>
        <time>2019-05-12T13:58:52Z</time>
      </trkpt>
      <trkpt lat="38.6498800" lon="-0.7043240">
        <ele>1047.0</ele>
        <time>2019-05-12T13:58:54Z</time>
      </trkpt>
      <trkpt lat="38.6498170" lon="-0.7044490">
        <ele>1047.6</ele>
        <time>2019-05-12T13:59:00Z</time>
      </trkpt>
      <trkpt lat="38.6497780" lon="-0.7045040">
        <ele>1047.4</ele>
        <time>2019-05-12T13:59:03Z</time>
      </trkpt>
      <trkpt lat="38.6497530" lon="-0.7045290">
        <ele>1047.6</ele>
        <time>2019-05-12T13:59:05Z</time>
      </trkpt>
      <trkpt lat="38.6497240" lon="-0.7045560">
        <ele>1048.0</ele>
        <time>2019-05-12T13:59:07Z</time>
      </trkpt>
      <trkpt lat="38.6496530" lon="-0.7046330">
        <ele>1048.2</ele>
        <time>2019-05-12T13:59:12Z</time>
      </trkpt>
      <trkpt lat="38.6495530" lon="-0.7047060">
        <ele>1048.4</ele>
        <time>2019-05-12T13:59:17Z</time>
      </trkpt>
      <trkpt lat="38.6494310" lon="-0.7048300">
        <ele>1046.8</ele>
        <time>2019-05-12T13:59:22Z</time>
      </trkpt>
      <trkpt lat="38.6493730" lon="-0.7050340">
        <ele>1046.0</ele>
        <time>2019-05-12T13:59:27Z</time>
      </trkpt>
      <trkpt lat="38.6493410" lon="-0.7051240">
        <ele>1045.8</ele>
        <time>2019-05-12T13:59:30Z</time>
      </trkpt>
      <trkpt lat="38.6493360" lon="-0.7051860">
        <ele>1045.8</ele>
        <time>2019-05-12T13:59:32Z</time>
      </trkpt>
      <trkpt lat="38.6493030" lon="-0.7053480">
        <ele>1046.4</ele>
        <time>2019-05-12T13:59:37Z</time>
      </trkpt>
      <trkpt lat="38.6492770" lon="-0.7054480">
        <ele>1046.8</ele>
        <time>2019-05-12T13:59:40Z</time>
      </trkpt>
      <trkpt lat="38.6492580" lon="-0.7055470">
        <ele>1047.4</ele>
        <time>2019-05-12T13:59:43Z</time>
      </trkpt>
      <trkpt lat="38.6492430" lon="-0.7056640">
        <ele>1048.0</ele>
        <time>2019-05-12T13:59:47Z</time>
      </trkpt>
      <trkpt lat="38.6492330" lon="-0.7056950">
        <ele>1048.0</ele>
        <time>2019-05-12T13:59:48Z</time>
      </trkpt>
      <trkpt lat="38.6492260" lon="-0.7057230">
        <ele>1048.2</ele>
        <time>2019-05-12T13:59:49Z</time>
      </trkpt>
      <trkpt lat="38.6492110" lon="-0.7058970">
        <ele>1049.2</ele>
        <time>2019-05-12T13:59:54Z</time>
      </trkpt>
      <trkpt lat="38.6492100" lon="-0.7059310">
        <ele>1049.4</ele>
        <time>2019-05-12T13:59:55Z</time>
      </trkpt>
      <trkpt lat="38.6492080" lon="-0.7060950">
        <ele>1049.8</ele>
        <time>2019-05-12T14:00:00Z</time>
      </trkpt>
      <trkpt lat="38.6492100" lon="-0.7063460">
        <ele>1049.2</ele>
        <time>2019-05-12T14:00:06Z</time>
      </trkpt>
      <trkpt lat="38.6491460" lon="-0.7065230">
        <ele>1049.6</ele>
        <time>2019-05-12T14:00:11Z</time>
      </trkpt>
      <trkpt lat="38.6490590" lon="-0.7067030">
        <ele>1049.6</ele>
        <time>2019-05-12T14:00:16Z</time>
      </trkpt>
      <trkpt lat="38.6489580" lon="-0.7068540">
        <ele>1050.0</ele>
        <time>2019-05-12T14:00:21Z</time>
      </trkpt>
      <trkpt lat="38.6488110" lon="-0.7070530">
        <ele>1049.6</ele>
        <time>2019-05-12T14:00:27Z</time>
      </trkpt>
      <trkpt lat="38.6487110" lon="-0.7071870">
        <ele>1049.8</ele>
        <time>2019-05-12T14:00:32Z</time>
      </trkpt>
      <trkpt lat="38.6486130" lon="-0.7072910">
        <ele>1050.2</ele>
        <time>2019-05-12T14:00:36Z</time>
      </trkpt>
      <trkpt lat="38.6485900" lon="-0.7073040">
        <ele>1050.2</ele>
        <time>2019-05-12T14:00:37Z</time>
      </trkpt>
      <trkpt lat="38.6484480" lon="-0.7073440">
        <ele>1051.4</ele>
        <time>2019-05-12T14:00:43Z</time>
      </trkpt>
      <trkpt lat="38.6483400" lon="-0.7072760">
        <ele>1051.4</ele>
        <time>2019-05-12T14:00:47Z</time>
      </trkpt>
      <trkpt lat="38.6481930" lon="-0.7071670">
        <ele>1051.4</ele>
        <time>2019-05-12T14:00:52Z</time>
      </trkpt>
      <trkpt lat="38.6480390" lon="-0.7070150">
        <ele>1051.0</ele>
        <time>2019-05-12T14:00:58Z</time>
      </trkpt>
      <trkpt lat="38.6478630" lon="-0.7068560">
        <ele>1051.0</ele>
        <time>2019-05-12T14:01:04Z</time>
      </trkpt>
      <trkpt lat="38.6477720" lon="-0.7068140">
        <ele>1050.2</ele>
        <time>2019-05-12T14:01:07Z</time>
      </trkpt>
      <trkpt lat="38.6477040" lon="-0.7067890">
        <ele>1050.2</ele>
        <time>2019-05-12T14:01:09Z</time>
      </trkpt>
      <trkpt lat="38.6476370" lon="-0.7067840">
        <ele>1049.8</ele>
        <time>2019-05-12T14:01:11Z</time>
      </trkpt>
      <trkpt lat="38.6476070" lon="-0.7067980">
        <ele>1049.0</ele>
        <time>2019-05-12T14:01:12Z</time>
      </trkpt>
      <trkpt lat="38.6475800" lon="-0.7068190">
        <ele>1048.6</ele>
        <time>2019-05-12T14:01:13Z</time>
      </trkpt>
      <trkpt lat="38.6475410" lon="-0.7068820">
        <ele>1047.8</ele>
        <time>2019-05-12T14:01:15Z</time>
      </trkpt>
      <trkpt lat="38.6475200" lon="-0.7069610">
        <ele>1046.4</ele>
        <time>2019-05-12T14:01:17Z</time>
      </trkpt>
      <trkpt lat="38.6475030" lon="-0.7070030">
        <ele>1045.4</ele>
        <time>2019-05-12T14:01:18Z</time>
      </trkpt>
      <trkpt lat="38.6474590" lon="-0.7070680">
        <ele>1044.0</ele>
        <time>2019-05-12T14:01:20Z</time>
      </trkpt>
      <trkpt lat="38.6474300" lon="-0.7071020">
        <ele>1043.2</ele>
        <time>2019-05-12T14:01:21Z</time>
      </trkpt>
      <trkpt lat="38.6473990" lon="-0.7071400">
        <ele>1042.6</ele>
        <time>2019-05-12T14:01:22Z</time>
      </trkpt>
      <trkpt lat="38.6473520" lon="-0.7072140">
        <ele>1041.4</ele>
        <time>2019-05-12T14:01:24Z</time>
      </trkpt>
      <trkpt lat="38.6473040" lon="-0.7073090">
        <ele>1040.4</ele>
        <time>2019-05-12T14:01:26Z</time>
      </trkpt>
      <trkpt lat="38.6472890" lon="-0.7073410">
        <ele>1040.2</ele>
        <time>2019-05-12T14:01:27Z</time>
      </trkpt>
      <trkpt lat="38.6472840" lon="-0.7073550">
        <ele>1039.8</ele>
        <time>2019-05-12T14:01:29Z</time>
      </trkpt>
      <trkpt lat="38.6473430" lon="-0.7072950">
        <ele>1040.0</ele>
        <time>2019-05-12T14:02:31Z</time>
      </trkpt>
      <trkpt lat="38.6473970" lon="-0.7073310">
        <ele>1039.2</ele>
        <time>2019-05-12T14:02:33Z</time>
      </trkpt>
      <trkpt lat="38.6474340" lon="-0.7073560">
        <ele>1038.0</ele>
        <time>2019-05-12T14:02:34Z</time>
      </trkpt>
      <trkpt lat="38.6474730" lon="-0.7073900">
        <ele>1036.8</ele>
        <time>2019-05-12T14:02:35Z</time>
      </trkpt>
      <trkpt lat="38.6475050" lon="-0.7074280">
        <ele>1035.8</ele>
        <time>2019-05-12T14:02:36Z</time>
      </trkpt>
      <trkpt lat="38.6475400" lon="-0.7074870">
        <ele>1035.0</ele>
        <time>2019-05-12T14:02:37Z</time>
      </trkpt>
      <trkpt lat="38.6475730" lon="-0.7075340">
        <ele>1034.2</ele>
        <time>2019-05-12T14:02:38Z</time>
      </trkpt>
      <trkpt lat="38.6476290" lon="-0.7076180">
        <ele>1033.4</ele>
        <time>2019-05-12T14:02:40Z</time>
      </trkpt>
      <trkpt lat="38.6476450" lon="-0.7076690">
        <ele>1033.4</ele>
        <time>2019-05-12T14:02:41Z</time>
      </trkpt>
      <trkpt lat="38.6476670" lon="-0.7077290">
        <ele>1033.0</ele>
        <time>2019-05-12T14:02:42Z</time>
      </trkpt>
      <trkpt lat="38.6477170" lon="-0.7078060">
        <ele>1032.6</ele>
        <time>2019-05-12T14:02:44Z</time>
      </trkpt>
      <trkpt lat="38.6478090" lon="-0.7080050">
        <ele>1032.4</ele>
        <time>2019-05-12T14:02:48Z</time>
      </trkpt>
      <trkpt lat="38.6478390" lon="-0.7080430">
        <ele>1032.2</ele>
        <time>2019-05-12T14:02:49Z</time>
      </trkpt>
      <trkpt lat="38.6478620" lon="-0.7080800">
        <ele>1031.8</ele>
        <time>2019-05-12T14:02:50Z</time>
      </trkpt>
      <trkpt lat="38.6478860" lon="-0.7081210">
        <ele>1031.8</ele>
        <time>2019-05-12T14:02:51Z</time>
      </trkpt>
      <trkpt lat="38.6479040" lon="-0.7081730">
        <ele>1031.8</ele>
        <time>2019-05-12T14:02:52Z</time>
      </trkpt>
      <trkpt lat="38.6479580" lon="-0.7082650">
        <ele>1031.6</ele>
        <time>2019-05-12T14:02:55Z</time>
      </trkpt>
      <trkpt lat="38.6480620" lon="-0.7083920">
        <ele>1030.8</ele>
        <time>2019-05-12T14:02:59Z</time>
      </trkpt>
      <trkpt lat="38.6480950" lon="-0.7084300">
        <ele>1030.4</ele>
        <time>2019-05-12T14:03:00Z</time>
      </trkpt>
      <trkpt lat="38.6481780" lon="-0.7084910">
        <ele>1029.8</ele>
        <time>2019-05-12T14:03:03Z</time>
      </trkpt>
      <trkpt lat="38.6482520" lon="-0.7085290">
        <ele>1029.6</ele>
        <time>2019-05-12T14:03:05Z</time>
      </trkpt>
      <trkpt lat="38.6483180" lon="-0.7085860">
        <ele>1029.2</ele>
        <time>2019-05-12T14:03:07Z</time>
      </trkpt>
      <trkpt lat="38.6483540" lon="-0.7085990">
        <ele>1029.0</ele>
        <time>2019-05-12T14:03:08Z</time>
      </trkpt>
      <trkpt lat="38.6484750" lon="-0.7086430">
        <ele>1028.0</ele>
        <time>2019-05-12T14:03:12Z</time>
      </trkpt>
      <trkpt lat="38.6485070" lon="-0.7087060">
        <ele>1027.8</ele>
        <time>2019-05-12T14:03:15Z</time>
      </trkpt>
      <trkpt lat="38.6485220" lon="-0.7087930">
        <ele>1025.6</ele>
        <time>2019-05-12T14:03:23Z</time>
      </trkpt>
      <trkpt lat="38.6485390" lon="-0.7088280">
        <ele>1024.2</ele>
        <time>2019-05-12T14:03:25Z</time>
      </trkpt>
      <trkpt lat="38.6485710" lon="-0.7088660">
        <ele>1023.0</ele>
        <time>2019-05-12T14:03:27Z</time>
      </trkpt>
      <trkpt lat="38.6486270" lon="-0.7088730">
        <ele>1022.2</ele>
        <time>2019-05-12T14:03:33Z</time>
      </trkpt>
      <trkpt lat="38.6486650" lon="-0.7088850">
        <ele>1022.2</ele>
        <time>2019-05-12T14:03:35Z</time>
      </trkpt>
      <trkpt lat="38.6487210" lon="-0.7089260">
        <ele>1021.6</ele>
        <time>2019-05-12T14:03:38Z</time>
      </trkpt>
      <trkpt lat="38.6487390" lon="-0.7089460">
        <ele>1021.0</ele>
        <time>2019-05-12T14:03:39Z</time>
      </trkpt>
      <trkpt lat="38.6487680" lon="-0.7089670">
        <ele>1020.4</ele>
        <time>2019-05-12T14:03:40Z</time>
      </trkpt>
      <trkpt lat="38.6488190" lon="-0.7089860">
        <ele>1019.2</ele>
        <time>2019-05-12T14:03:42Z</time>
      </trkpt>
      <trkpt lat="38.6488870" lon="-0.7090300">
        <ele>1018.2</ele>
        <time>2019-05-12T14:03:44Z</time>
      </trkpt>
      <trkpt lat="38.6489250" lon="-0.7090350">
        <ele>1017.6</ele>
        <time>2019-05-12T14:03:45Z</time>
      </trkpt>
      <trkpt lat="38.6489710" lon="-0.7090830">
        <ele>1016.8</ele>
        <time>2019-05-12T14:03:48Z</time>
      </trkpt>
      <trkpt lat="38.6489880" lon="-0.7090980">
        <ele>1016.4</ele>
        <time>2019-05-12T14:03:49Z</time>
      </trkpt>
      <trkpt lat="38.6490200" lon="-0.7091270">
        <ele>1014.8</ele>
        <time>2019-05-12T14:03:51Z</time>
      </trkpt>
      <trkpt lat="38.6490340" lon="-0.7091520">
        <ele>1014.2</ele>
        <time>2019-05-12T14:03:52Z</time>
      </trkpt>
      <trkpt lat="38.6490450" lon="-0.7091730">
        <ele>1013.8</ele>
        <time>2019-05-12T14:03:53Z</time>
      </trkpt>
      <trkpt lat="38.6490860" lon="-0.7092390">
        <ele>1012.4</ele>
        <time>2019-05-12T14:03:56Z</time>
      </trkpt>
      <trkpt lat="38.6491190" lon="-0.7092450">
        <ele>1012.0</ele>
        <time>2019-05-12T14:03:57Z</time>
      </trkpt>
      <trkpt lat="38.6491460" lon="-0.7092500">
        <ele>1011.2</ele>
        <time>2019-05-12T14:03:58Z</time>
      </trkpt>
      <trkpt lat="38.6491950" lon="-0.7093030">
        <ele>1010.2</ele>
        <time>2019-05-12T14:04:01Z</time>
      </trkpt>
      <trkpt lat="38.6492100" lon="-0.7093220">
        <ele>1009.6</ele>
        <time>2019-05-12T14:04:02Z</time>
      </trkpt>
      <trkpt lat="38.6492540" lon="-0.7093520">
        <ele>1008.4</ele>
        <time>2019-05-12T14:04:04Z</time>
      </trkpt>
      <trkpt lat="38.6493090" lon="-0.7093620">
        <ele>1007.0</ele>
        <time>2019-05-12T14:04:06Z</time>
      </trkpt>
      <trkpt lat="38.6494240" lon="-0.7093260">
        <ele>1006.2</ele>
        <time>2019-05-12T14:04:10Z</time>
      </trkpt>
      <trkpt lat="38.6494490" lon="-0.7093260">
        <ele>1005.8</ele>
        <time>2019-05-12T14:04:11Z</time>
      </trkpt>
      <trkpt lat="38.6495160" lon="-0.7093110">
        <ele>1003.8</ele>
        <time>2019-05-12T14:04:14Z</time>
      </trkpt>
      <trkpt lat="38.6495380" lon="-0.7093060">
        <ele>1003.2</ele>
        <time>2019-05-12T14:04:15Z</time>
      </trkpt>
      <trkpt lat="38.6495620" lon="-0.7092990">
        <ele>1002.4</ele>
        <time>2019-05-12T14:04:16Z</time>
      </trkpt>
      <trkpt lat="38.6495820" lon="-0.7093100">
        <ele>1001.8</ele>
        <time>2019-05-12T14:04:17Z</time>
      </trkpt>
      <trkpt lat="38.6495990" lon="-0.7093330">
        <ele>1001.0</ele>
        <time>2019-05-12T14:04:18Z</time>
      </trkpt>
      <trkpt lat="38.6496120" lon="-0.7093580">
        <ele>1000.6</ele>
        <time>2019-05-12T14:04:19Z</time>
      </trkpt>
      <trkpt lat="38.6496270" lon="-0.7093810">
        <ele>1000.0</ele>
        <time>2019-05-12T14:04:20Z</time>
      </trkpt>
      <trkpt lat="38.6496530" lon="-0.7094320">
        <ele>998.8</ele>
        <time>2019-05-12T14:04:22Z</time>
      </trkpt>
      <trkpt lat="38.6496620" lon="-0.7094990">
        <ele>997.8</ele>
        <time>2019-05-12T14:04:24Z</time>
      </trkpt>
      <trkpt lat="38.6496500" lon="-0.7095910">
        <ele>996.6</ele>
        <time>2019-05-12T14:04:26Z</time>
      </trkpt>
      <trkpt lat="38.6496550" lon="-0.7096250">
        <ele>996.4</ele>
        <time>2019-05-12T14:04:27Z</time>
      </trkpt>
      <trkpt lat="38.6496650" lon="-0.7096550">
        <ele>995.6</ele>
        <time>2019-05-12T14:04:28Z</time>
      </trkpt>
      <trkpt lat="38.6496750" lon="-0.7096800">
        <ele>995.2</ele>
        <time>2019-05-12T14:04:29Z</time>
      </trkpt>
      <trkpt lat="38.6497210" lon="-0.7097830">
        <ele>993.6</ele>
        <time>2019-05-12T14:04:33Z</time>
      </trkpt>
      <trkpt lat="38.6497430" lon="-0.7098110">
        <ele>992.8</ele>
        <time>2019-05-12T14:04:34Z</time>
      </trkpt>
      <trkpt lat="38.6497630" lon="-0.7098420">
        <ele>992.0</ele>
        <time>2019-05-12T14:04:35Z</time>
      </trkpt>
      <trkpt lat="38.6497850" lon="-0.7098720">
        <ele>991.0</ele>
        <time>2019-05-12T14:04:36Z</time>
      </trkpt>
      <trkpt lat="38.6498410" lon="-0.7099540">
        <ele>988.6</ele>
        <time>2019-05-12T14:04:39Z</time>
      </trkpt>
      <trkpt lat="38.6499200" lon="-0.7100490">
        <ele>986.8</ele>
        <time>2019-05-12T14:04:42Z</time>
      </trkpt>
      <trkpt lat="38.6499540" lon="-0.7100890">
        <ele>986.0</ele>
        <time>2019-05-12T14:04:43Z</time>
      </trkpt>
      <trkpt lat="38.6499840" lon="-0.7101260">
        <ele>984.8</ele>
        <time>2019-05-12T14:04:44Z</time>
      </trkpt>
      <trkpt lat="38.6500400" lon="-0.7101930">
        <ele>983.6</ele>
        <time>2019-05-12T14:04:46Z</time>
      </trkpt>
      <trkpt lat="38.6501190" lon="-0.7102770">
        <ele>982.2</ele>
        <time>2019-05-12T14:04:48Z</time>
      </trkpt>
      <trkpt lat="38.6501590" lon="-0.7103290">
        <ele>980.8</ele>
        <time>2019-05-12T14:04:49Z</time>
      </trkpt>
      <trkpt lat="38.6501940" lon="-0.7103780">
        <ele>979.4</ele>
        <time>2019-05-12T14:04:50Z</time>
      </trkpt>
      <trkpt lat="38.6502550" lon="-0.7104450">
        <ele>979.0</ele>
        <time>2019-05-12T14:04:52Z</time>
      </trkpt>
      <trkpt lat="38.6502380" lon="-0.7105140">
        <ele>978.4</ele>
        <time>2019-05-12T14:04:54Z</time>
      </trkpt>
      <trkpt lat="38.6501810" lon="-0.7105790">
        <ele>978.0</ele>
        <time>2019-05-12T14:04:56Z</time>
      </trkpt>
      <trkpt lat="38.6501450" lon="-0.7106060">
        <ele>977.6</ele>
        <time>2019-05-12T14:04:57Z</time>
      </trkpt>
      <trkpt lat="38.6500970" lon="-0.7106190">
        <ele>977.0</ele>
        <time>2019-05-12T14:04:58Z</time>
      </trkpt>
      <trkpt lat="38.6500020" lon="-0.7106270">
        <ele>975.8</ele>
        <time>2019-05-12T14:05:00Z</time>
      </trkpt>
      <trkpt lat="38.6499490" lon="-0.7106190">
        <ele>975.6</ele>
        <time>2019-05-12T14:05:01Z</time>
      </trkpt>
      <trkpt lat="38.6498880" lon="-0.7106040">
        <ele>975.6</ele>
        <time>2019-05-12T14:05:02Z</time>
      </trkpt>
      <trkpt lat="38.6497940" lon="-0.7105710">
        <ele>974.2</ele>
        <time>2019-05-12T14:05:04Z</time>
      </trkpt>
      <trkpt lat="38.6497520" lon="-0.7105350">
        <ele>973.8</ele>
        <time>2019-05-12T14:05:05Z</time>
      </trkpt>
      <trkpt lat="38.6496100" lon="-0.7104340">
        <ele>973.2</ele>
        <time>2019-05-12T14:05:08Z</time>
      </trkpt>
      <trkpt lat="38.6495210" lon="-0.7103650">
        <ele>973.0</ele>
        <time>2019-05-12T14:05:10Z</time>
      </trkpt>
      <trkpt lat="38.6494130" lon="-0.7103180">
        <ele>971.8</ele>
        <time>2019-05-12T14:05:12Z</time>
      </trkpt>
      <trkpt lat="38.6493350" lon="-0.7103110">
        <ele>970.6</ele>
        <time>2019-05-12T14:05:14Z</time>
      </trkpt>
      <trkpt lat="38.6493000" lon="-0.7103160">
        <ele>970.4</ele>
        <time>2019-05-12T14:05:15Z</time>
      </trkpt>
      <trkpt lat="38.6492300" lon="-0.7103210">
        <ele>969.4</ele>
        <time>2019-05-12T14:05:17Z</time>
      </trkpt>
      <trkpt lat="38.6491320" lon="-0.7103370">
        <ele>967.6</ele>
        <time>2019-05-12T14:05:20Z</time>
      </trkpt>
      <trkpt lat="38.6490750" lon="-0.7103540">
        <ele>966.0</ele>
        <time>2019-05-12T14:05:22Z</time>
      </trkpt>
      <trkpt lat="38.6490060" lon="-0.7103730">
        <ele>964.8</ele>
        <time>2019-05-12T14:05:24Z</time>
      </trkpt>
      <trkpt lat="38.6489370" lon="-0.7103950">
        <ele>963.0</ele>
        <time>2019-05-12T14:05:26Z</time>
      </trkpt>
      <trkpt lat="38.6489000" lon="-0.7104040">
        <ele>962.2</ele>
        <time>2019-05-12T14:05:27Z</time>
      </trkpt>
      <trkpt lat="38.6488580" lon="-0.7104070">
        <ele>961.4</ele>
        <time>2019-05-12T14:05:28Z</time>
      </trkpt>
      <trkpt lat="38.6487970" lon="-0.7104450">
        <ele>959.0</ele>
        <time>2019-05-12T14:05:30Z</time>
      </trkpt>
      <trkpt lat="38.6487820" lon="-0.7104780">
        <ele>958.2</ele>
        <time>2019-05-12T14:05:31Z</time>
      </trkpt>
      <trkpt lat="38.6487790" lon="-0.7104990">
        <ele>909.6</ele>
        <time>2019-05-12T14:05:32Z</time>
      </trkpt>
      <trkpt lat="38.6487700" lon="-0.7105440">
        <ele>910.0</ele>
        <time>2019-05-12T14:05:34Z</time>
      </trkpt>
      <trkpt lat="38.6487520" lon="-0.7105740">
        <ele>957.4</ele>
        <time>2019-05-12T14:05:35Z</time>
      </trkpt>
      <trkpt lat="38.6487230" lon="-0.7106000">
        <ele>955.8</ele>
        <time>2019-05-12T14:05:36Z</time>
      </trkpt>
      <trkpt lat="38.6486790" lon="-0.7106430">
        <ele>955.0</ele>
        <time>2019-05-12T14:05:37Z</time>
      </trkpt>
      <trkpt lat="38.6486080" lon="-0.7106990">
        <ele>954.6</ele>
        <time>2019-05-12T14:05:38Z</time>
      </trkpt>
      <trkpt lat="38.6484840" lon="-0.7107280">
        <ele>954.6</ele>
        <time>2019-05-12T14:05:40Z</time>
      </trkpt>
      <trkpt lat="38.6482910" lon="-0.7106510">
        <ele>954.4</ele>
        <time>2019-05-12T14:05:45Z</time>
      </trkpt>
      <trkpt lat="38.6485520" lon="-0.7105720">
        <ele>956.6</ele>
        <time>2019-05-12T14:08:36Z</time>
      </trkpt>
      <trkpt lat="38.6485450" lon="-0.7105630">
        <ele>955.0</ele>
        <time>2019-05-12T14:08:39Z</time>
      </trkpt>
      <trkpt lat="38.6485060" lon="-0.7105770">
        <ele>954.2</ele>
        <time>2019-05-12T14:08:41Z</time>
      </trkpt>
      <trkpt lat="38.6484860" lon="-0.7105780">
        <ele>953.8</ele>
        <time>2019-05-12T14:08:42Z</time>
      </trkpt>
      <trkpt lat="38.6484500" lon="-0.7105760">
        <ele>952.4</ele>
        <time>2019-05-12T14:08:45Z</time>
      </trkpt>
      <trkpt lat="38.6484300" lon="-0.7105800">
        <ele>952.2</ele>
        <time>2019-05-12T14:08:46Z</time>
      </trkpt>
      <trkpt lat="38.6483450" lon="-0.7106080">
        <ele>951.0</ele>
        <time>2019-05-12T14:08:49Z</time>
      </trkpt>
      <trkpt lat="38.6482880" lon="-0.7106200">
        <ele>949.6</ele>
        <time>2019-05-12T14:08:51Z</time>
      </trkpt>
      <trkpt lat="38.6481900" lon="-0.7106470">
        <ele>948.4</ele>
        <time>2019-05-12T14:08:54Z</time>
      </trkpt>
      <trkpt lat="38.6481340" lon="-0.7106730">
        <ele>947.4</ele>
        <time>2019-05-12T14:08:56Z</time>
      </trkpt>
      <trkpt lat="38.6481140" lon="-0.7106960">
        <ele>947.0</ele>
        <time>2019-05-12T14:08:57Z</time>
      </trkpt>
      <trkpt lat="38.6481070" lon="-0.7107300">
        <ele>946.4</ele>
        <time>2019-05-12T14:08:58Z</time>
      </trkpt>
      <trkpt lat="38.6481110" lon="-0.7107830">
        <ele>945.8</ele>
        <time>2019-05-12T14:08:59Z</time>
      </trkpt>
      <trkpt lat="38.6481360" lon="-0.7109050">
        <ele>944.2</ele>
        <time>2019-05-12T14:09:01Z</time>
      </trkpt>
      <trkpt lat="38.6481510" lon="-0.7109620">
        <ele>943.8</ele>
        <time>2019-05-12T14:09:02Z</time>
      </trkpt>
      <trkpt lat="38.6481700" lon="-0.7110730">
        <ele>944.4</ele>
        <time>2019-05-12T14:09:36Z</time>
      </trkpt>
      <trkpt lat="38.6481870" lon="-0.7111580">
        <ele>944.0</ele>
        <time>2019-05-12T14:09:38Z</time>
      </trkpt>
      <trkpt lat="38.6482070" lon="-0.7112510">
        <ele>943.2</ele>
        <time>2019-05-12T14:09:40Z</time>
      </trkpt>
      <trkpt lat="38.6482200" lon="-0.7113260">
        <ele>942.2</ele>
        <time>2019-05-12T14:09:42Z</time>
      </trkpt>
      <trkpt lat="38.6482190" lon="-0.7114490">
        <ele>940.8</ele>
        <time>2019-05-12T14:09:45Z</time>
      </trkpt>
      <trkpt lat="38.6482180" lon="-0.7114960">
        <ele>940.6</ele>
        <time>2019-05-12T14:09:46Z</time>
      </trkpt>
      <trkpt lat="38.6482240" lon="-0.7116430">
        <ele>939.6</ele>
        <time>2019-05-12T14:09:49Z</time>
      </trkpt>
      <trkpt lat="38.6482230" lon="-0.7117330">
        <ele>938.6</ele>
        <time>2019-05-12T14:09:51Z</time>
      </trkpt>
      <trkpt lat="38.6482150" lon="-0.7117820">
        <ele>938.0</ele>
        <time>2019-05-12T14:09:52Z</time>
      </trkpt>
      <trkpt lat="38.6482060" lon="-0.7118360">
        <ele>937.6</ele>
        <time>2019-05-12T14:09:53Z</time>
      </trkpt>
      <trkpt lat="38.6481800" lon="-0.7120370">
        <ele>936.2</ele>
        <time>2019-05-12T14:09:56Z</time>
      </trkpt>
      <trkpt lat="38.6481680" lon="-0.7121060">
        <ele>935.6</ele>
        <time>2019-05-12T14:09:57Z</time>
      </trkpt>
      <trkpt lat="38.6481610" lon="-0.7121640">
        <ele>935.0</ele>
        <time>2019-05-12T14:09:58Z</time>
      </trkpt>
      <trkpt lat="38.6481430" lon="-0.7122190">
        <ele>934.6</ele>
        <time>2019-05-12T14:09:59Z</time>
      </trkpt>
      <trkpt lat="38.6480970" lon="-0.7123340">
        <ele>934.0</ele>
        <time>2019-05-12T14:10:01Z</time>
      </trkpt>
      <trkpt lat="38.6480730" lon="-0.7123830">
        <ele>933.6</ele>
        <time>2019-05-12T14:10:02Z</time>
      </trkpt>
      <trkpt lat="38.6480450" lon="-0.7124210">
        <ele>933.2</ele>
        <time>2019-05-12T14:10:03Z</time>
      </trkpt>
      <trkpt lat="38.6479850" lon="-0.7124690">
        <ele>932.8</ele>
        <time>2019-05-12T14:10:05Z</time>
      </trkpt>
      <trkpt lat="38.6478950" lon="-0.7124860">
        <ele>932.6</ele>
        <time>2019-05-12T14:10:08Z</time>
      </trkpt>
      <trkpt lat="38.6478620" lon="-0.7124730">
        <ele>932.4</ele>
        <time>2019-05-12T14:10:09Z</time>
      </trkpt>
      <trkpt lat="38.6476790" lon="-0.7124210">
        <ele>931.6</ele>
        <time>2019-05-12T14:10:13Z</time>
      </trkpt>
      <trkpt lat="38.6476480" lon="-0.7124050">
        <ele>931.2</ele>
        <time>2019-05-12T14:10:14Z</time>
      </trkpt>
      <trkpt lat="38.6475400" lon="-0.7124010">
        <ele>930.0</ele>
        <time>2019-05-12T14:10:17Z</time>
      </trkpt>
      <trkpt lat="38.6473080" lon="-0.7123900">
        <ele>929.2</ele>
        <time>2019-05-12T14:10:23Z</time>
      </trkpt>
      <trkpt lat="38.6472670" lon="-0.7123970">
        <ele>929.0</ele>
        <time>2019-05-12T14:10:24Z</time>
      </trkpt>
      <trkpt lat="38.6471590" lon="-0.7123870">
        <ele>928.8</ele>
        <time>2019-05-12T14:10:27Z</time>
      </trkpt>
      <trkpt lat="38.6470770" lon="-0.7123850">
        <ele>928.6</ele>
        <time>2019-05-12T14:10:29Z</time>
      </trkpt>
      <trkpt lat="38.6469570" lon="-0.7124050">
        <ele>929.2</ele>
        <time>2019-05-12T14:10:32Z</time>
      </trkpt>
      <trkpt lat="38.6467360" lon="-0.7125100">
        <ele>930.2</ele>
        <time>2019-05-12T14:10:38Z</time>
      </trkpt>
      <trkpt lat="38.6466960" lon="-0.7126550">
        <ele>929.6</ele>
        <time>2019-05-12T14:10:41Z</time>
      </trkpt>
      <trkpt lat="38.6466780" lon="-0.7127100">
        <ele>929.0</ele>
        <time>2019-05-12T14:10:42Z</time>
      </trkpt>
      <trkpt lat="38.6466520" lon="-0.7128230">
        <ele>928.8</ele>
        <time>2019-05-12T14:10:44Z</time>
      </trkpt>
      <trkpt lat="38.6466120" lon="-0.7129020">
        <ele>929.2</ele>
        <time>2019-05-12T14:10:46Z</time>
      </trkpt>
      <trkpt lat="38.6465040" lon="-0.7130800">
        <ele>929.6</ele>
        <time>2019-05-12T14:10:50Z</time>
      </trkpt>
      <trkpt lat="38.6463820" lon="-0.7131440">
        <ele>929.8</ele>
        <time>2019-05-12T14:10:54Z</time>
      </trkpt>
      <trkpt lat="38.6462350" lon="-0.7131240">
        <ele>928.8</ele>
        <time>2019-05-12T14:10:58Z</time>
      </trkpt>
      <trkpt lat="38.6461960" lon="-0.7131080">
        <ele>928.8</ele>
        <time>2019-05-12T14:10:59Z</time>
      </trkpt>
      <trkpt lat="38.6460310" lon="-0.7130310">
        <ele>928.2</ele>
        <time>2019-05-12T14:11:03Z</time>
      </trkpt>
      <trkpt lat="38.6459610" lon="-0.7129810">
        <ele>929.0</ele>
        <time>2019-05-12T14:11:05Z</time>
      </trkpt>
      <trkpt lat="38.6457790" lon="-0.7128690">
        <ele>927.8</ele>
        <time>2019-05-12T14:11:09Z</time>
      </trkpt>
      <trkpt lat="38.6457320" lon="-0.7128410">
        <ele>927.6</ele>
        <time>2019-05-12T14:11:10Z</time>
      </trkpt>
      <trkpt lat="38.6456080" lon="-0.7127960">
        <ele>927.2</ele>
        <time>2019-05-12T14:11:14Z</time>
      </trkpt>
      <trkpt lat="38.6455300" lon="-0.7127400">
        <ele>926.8</ele>
        <time>2019-05-12T14:11:18Z</time>
      </trkpt>
      <trkpt lat="38.6455150" lon="-0.7127130">
        <ele>926.4</ele>
        <time>2019-05-12T14:11:19Z</time>
      </trkpt>
      <trkpt lat="38.6454720" lon="-0.7126300">
        <ele>926.4</ele>
        <time>2019-05-12T14:11:23Z</time>
      </trkpt>
      <trkpt lat="38.6454600" lon="-0.7126190">
        <ele>926.8</ele>
        <time>2019-05-12T14:11:24Z</time>
      </trkpt>
      <trkpt lat="38.6454140" lon="-0.7126460">
        <ele>927.6</ele>
        <time>2019-05-12T14:11:27Z</time>
      </trkpt>
      <trkpt lat="38.6453880" lon="-0.7128030">
        <ele>927.8</ele>
        <time>2019-05-12T14:11:32Z</time>
      </trkpt>
      <trkpt lat="38.6453920" lon="-0.7129580">
        <ele>927.6</ele>
        <time>2019-05-12T14:11:35Z</time>
      </trkpt>
      <trkpt lat="38.6453920" lon="-0.7130750">
        <ele>927.2</ele>
        <time>2019-05-12T14:11:37Z</time>
      </trkpt>
      <trkpt lat="38.6453660" lon="-0.7132480">
        <ele>927.0</ele>
        <time>2019-05-12T14:11:40Z</time>
      </trkpt>
      <trkpt lat="38.6453410" lon="-0.7132950">
        <ele>926.6</ele>
        <time>2019-05-12T14:11:41Z</time>
      </trkpt>
      <trkpt lat="38.6453170" lon="-0.7133340">
        <ele>926.4</ele>
        <time>2019-05-12T14:11:42Z</time>
      </trkpt>
      <trkpt lat="38.6452420" lon="-0.7134010">
        <ele>926.2</ele>
        <time>2019-05-12T14:11:44Z</time>
      </trkpt>
      <trkpt lat="38.6452030" lon="-0.7134310">
        <ele>926.2</ele>
        <time>2019-05-12T14:11:45Z</time>
      </trkpt>
      <trkpt lat="38.6449270" lon="-0.7136310">
        <ele>925.4</ele>
        <time>2019-05-12T14:11:51Z</time>
      </trkpt>
      <trkpt lat="38.6448360" lon="-0.7136970">
        <ele>925.4</ele>
        <time>2019-05-12T14:11:53Z</time>
      </trkpt>
      <trkpt lat="38.6448090" lon="-0.7137540">
        <ele>925.2</ele>
        <time>2019-05-12T14:11:54Z</time>
      </trkpt>
      <trkpt lat="38.6448100" lon="-0.7138170">
        <ele>924.6</ele>
        <time>2019-05-12T14:11:55Z</time>
      </trkpt>
      <trkpt lat="38.6448210" lon="-0.7138670">
        <ele>924.0</ele>
        <time>2019-05-12T14:11:56Z</time>
      </trkpt>
      <trkpt lat="38.6448520" lon="-0.7139790">
        <ele>923.8</ele>
        <time>2019-05-12T14:11:58Z</time>
      </trkpt>
      <trkpt lat="38.6448590" lon="-0.7140310">
        <ele>924.4</ele>
        <time>2019-05-12T14:11:59Z</time>
      </trkpt>
      <trkpt lat="38.6448610" lon="-0.7141310">
        <ele>925.4</ele>
        <time>2019-05-12T14:12:01Z</time>
      </trkpt>
      <trkpt lat="38.6448630" lon="-0.7141690">
        <ele>925.8</ele>
        <time>2019-05-12T14:12:02Z</time>
      </trkpt>
      <trkpt lat="38.6448710" lon="-0.7142870">
        <ele>926.6</ele>
        <time>2019-05-12T14:12:05Z</time>
      </trkpt>
      <trkpt lat="38.6448720" lon="-0.7144190">
        <ele>926.6</ele>
        <time>2019-05-12T14:12:08Z</time>
      </trkpt>
      <trkpt lat="38.6448450" lon="-0.7145720">
        <ele>925.6</ele>
        <time>2019-05-12T14:12:11Z</time>
      </trkpt>
      <trkpt lat="38.6447910" lon="-0.7146760">
        <ele>924.8</ele>
        <time>2019-05-12T14:12:13Z</time>
      </trkpt>
      <trkpt lat="38.6447550" lon="-0.7147250">
        <ele>924.4</ele>
        <time>2019-05-12T14:12:14Z</time>
      </trkpt>
      <trkpt lat="38.6446320" lon="-0.7148480">
        <ele>923.4</ele>
        <time>2019-05-12T14:12:17Z</time>
      </trkpt>
      <trkpt lat="38.6445880" lon="-0.7148880">
        <ele>922.8</ele>
        <time>2019-05-12T14:12:18Z</time>
      </trkpt>
      <trkpt lat="38.6444380" lon="-0.7150150">
        <ele>921.4</ele>
        <time>2019-05-12T14:12:21Z</time>
      </trkpt>
      <trkpt lat="38.6443960" lon="-0.7150490">
        <ele>921.2</ele>
        <time>2019-05-12T14:12:22Z</time>
      </trkpt>
      <trkpt lat="38.6443120" lon="-0.7151160">
        <ele>920.8</ele>
        <time>2019-05-12T14:12:24Z</time>
      </trkpt>
      <trkpt lat="38.6442670" lon="-0.7151520">
        <ele>920.2</ele>
        <time>2019-05-12T14:12:25Z</time>
      </trkpt>
      <trkpt lat="38.6441620" lon="-0.7152460">
        <ele>919.4</ele>
        <time>2019-05-12T14:12:28Z</time>
      </trkpt>
      <trkpt lat="38.6441290" lon="-0.7152730">
        <ele>919.0</ele>
        <time>2019-05-12T14:12:29Z</time>
      </trkpt>
      <trkpt lat="38.6439930" lon="-0.7153800">
        <ele>917.4</ele>
        <time>2019-05-12T14:12:32Z</time>
      </trkpt>
      <trkpt lat="38.6439480" lon="-0.7154190">
        <ele>916.4</ele>
        <time>2019-05-12T14:12:33Z</time>
      </trkpt>
      <trkpt lat="38.6439010" lon="-0.7154680">
        <ele>915.4</ele>
        <time>2019-05-12T14:12:34Z</time>
      </trkpt>
      <trkpt lat="38.6438620" lon="-0.7155220">
        <ele>914.2</ele>
        <time>2019-05-12T14:12:35Z</time>
      </trkpt>
      <trkpt lat="38.6437890" lon="-0.7156190">
        <ele>913.0</ele>
        <time>2019-05-12T14:12:37Z</time>
      </trkpt>
      <trkpt lat="38.6437200" lon="-0.7157210">
        <ele>910.0</ele>
        <time>2019-05-12T14:12:39Z</time>
      </trkpt>
      <trkpt lat="38.6436890" lon="-0.7157680">
        <ele>908.8</ele>
        <time>2019-05-12T14:12:40Z</time>
      </trkpt>
      <trkpt lat="38.6436240" lon="-0.7158320">
        <ele>907.6</ele>
        <time>2019-05-12T14:12:42Z</time>
      </trkpt>
      <trkpt lat="38.6435760" lon="-0.7158600">
        <ele>906.8</ele>
        <time>2019-05-12T14:12:43Z</time>
      </trkpt>
      <trkpt lat="38.6435210" lon="-0.7158650">
        <ele>906.2</ele>
        <time>2019-05-12T14:12:44Z</time>
      </trkpt>
      <trkpt lat="38.6434130" lon="-0.7158470">
        <ele>905.8</ele>
        <time>2019-05-12T14:12:46Z</time>
      </trkpt>
      <trkpt lat="38.6432580" lon="-0.7158300">
        <ele>906.2</ele>
        <time>2019-05-12T14:12:49Z</time>
      </trkpt>
      <trkpt lat="38.6431710" lon="-0.7158180">
        <ele>906.4</ele>
        <time>2019-05-12T14:12:51Z</time>
      </trkpt>
      <trkpt lat="38.6430340" lon="-0.7158130">
        <ele>907.4</ele>
        <time>2019-05-12T14:12:55Z</time>
      </trkpt>
      <trkpt lat="38.6430070" lon="-0.7158030">
        <ele>907.6</ele>
        <time>2019-05-12T14:12:56Z</time>
      </trkpt>
      <trkpt lat="38.6428710" lon="-0.7157920">
        <ele>908.4</ele>
        <time>2019-05-12T14:13:01Z</time>
      </trkpt>
      <trkpt lat="38.6427900" lon="-0.7157870">
        <ele>910.0</ele>
        <time>2019-05-12T14:13:04Z</time>
      </trkpt>
      <trkpt lat="38.6426850" lon="-0.7157990">
        <ele>910.2</ele>
        <time>2019-05-12T14:13:08Z</time>
      </trkpt>
      <trkpt lat="38.6426270" lon="-0.7157970">
        <ele>911.0</ele>
        <time>2019-05-12T14:13:10Z</time>
      </trkpt>
      <trkpt lat="38.6425350" lon="-0.7157780">
        <ele>911.2</ele>
        <time>2019-05-12T14:13:14Z</time>
      </trkpt>
      <trkpt lat="38.6424730" lon="-0.7157590">
        <ele>912.0</ele>
        <time>2019-05-12T14:13:17Z</time>
      </trkpt>
      <trkpt lat="38.6424180" lon="-0.7157180">
        <ele>912.4</ele>
        <time>2019-05-12T14:13:20Z</time>
      </trkpt>
      <trkpt lat="38.6423850" lon="-0.7156970">
        <ele>913.2</ele>
        <time>2019-05-12T14:13:22Z</time>
      </trkpt>
      <trkpt lat="38.6422830" lon="-0.7156640">
        <ele>914.2</ele>
        <time>2019-05-12T14:13:27Z</time>
      </trkpt>
      <trkpt lat="38.6422580" lon="-0.7156630">
        <ele>914.6</ele>
        <time>2019-05-12T14:13:28Z</time>
      </trkpt>
      <trkpt lat="38.6422120" lon="-0.7156530">
        <ele>915.6</ele>
        <time>2019-05-12T14:13:30Z</time>
      </trkpt>
      <trkpt lat="38.6421080" lon="-0.7156300">
        <ele>916.2</ele>
        <time>2019-05-12T14:13:34Z</time>
      </trkpt>
      <trkpt lat="38.6420330" lon="-0.7156070">
        <ele>916.6</ele>
        <time>2019-05-12T14:13:37Z</time>
      </trkpt>
      <trkpt lat="38.6419450" lon="-0.7155600">
        <ele>917.4</ele>
        <time>2019-05-12T14:13:41Z</time>
      </trkpt>
      <trkpt lat="38.6418770" lon="-0.7155260">
        <ele>917.8</ele>
        <time>2019-05-12T14:13:44Z</time>
      </trkpt>
      <trkpt lat="38.6417910" lon="-0.7154680">
        <ele>918.8</ele>
        <time>2019-05-12T14:13:48Z</time>
      </trkpt>
      <trkpt lat="38.6416950" lon="-0.7153870">
        <ele>919.8</ele>
        <time>2019-05-12T14:13:53Z</time>
      </trkpt>
      <trkpt lat="38.6416710" lon="-0.7153730">
        <ele>920.2</ele>
        <time>2019-05-12T14:13:54Z</time>
      </trkpt>
      <trkpt lat="38.6415570" lon="-0.7152530">
        <ele>920.8</ele>
        <time>2019-05-12T14:13:59Z</time>
      </trkpt>
      <trkpt lat="38.6414020" lon="-0.7150210">
        <ele>920.4</ele>
        <time>2019-05-12T14:14:06Z</time>
      </trkpt>
      <trkpt lat="38.6412870" lon="-0.7147830">
        <ele>920.6</ele>
        <time>2019-05-12T14:14:12Z</time>
      </trkpt>
      <trkpt lat="38.6412500" lon="-0.7146710">
        <ele>921.0</ele>
        <time>2019-05-12T14:14:15Z</time>
      </trkpt>
      <trkpt lat="38.6412350" lon="-0.7145480">
        <ele>921.6</ele>
        <time>2019-05-12T14:14:18Z</time>
      </trkpt>
      <trkpt lat="38.6412160" lon="-0.7144320">
        <ele>922.2</ele>
        <time>2019-05-12T14:14:21Z</time>
      </trkpt>
      <trkpt lat="38.6411860" lon="-0.7143240">
        <ele>923.0</ele>
        <time>2019-05-12T14:14:24Z</time>
      </trkpt>
      <trkpt lat="38.6411680" lon="-0.7142460">
        <ele>923.4</ele>
        <time>2019-05-12T14:14:26Z</time>
      </trkpt>
      <trkpt lat="38.6411280" lon="-0.7141090">
        <ele>924.2</ele>
        <time>2019-05-12T14:14:30Z</time>
      </trkpt>
      <trkpt lat="38.6411200" lon="-0.7140740">
        <ele>924.4</ele>
        <time>2019-05-12T14:14:31Z</time>
      </trkpt>
      <trkpt lat="38.6410550" lon="-0.7137990">
        <ele>925.0</ele>
        <time>2019-05-12T14:14:38Z</time>
      </trkpt>
      <trkpt lat="38.6409620" lon="-0.7137190">
        <ele>924.6</ele>
        <time>2019-05-12T14:14:41Z</time>
      </trkpt>
      <trkpt lat="38.6409240" lon="-0.7137110">
        <ele>924.6</ele>
        <time>2019-05-12T14:14:42Z</time>
      </trkpt>
      <trkpt lat="38.6408090" lon="-0.7137230">
        <ele>924.2</ele>
        <time>2019-05-12T14:14:45Z</time>
      </trkpt>
      <trkpt lat="38.6407420" lon="-0.7137400">
        <ele>924.4</ele>
        <time>2019-05-12T14:14:47Z</time>
      </trkpt>
      <trkpt lat="38.6406300" lon="-0.7137860">
        <ele>925.4</ele>
        <time>2019-05-12T14:14:51Z</time>
      </trkpt>
      <trkpt lat="38.6405730" lon="-0.7137970">
        <ele>926.2</ele>
        <time>2019-05-12T14:14:53Z</time>
      </trkpt>
      <trkpt lat="38.6405480" lon="-0.7138030">
        <ele>926.6</ele>
        <time>2019-05-12T14:14:54Z</time>
      </trkpt>
      <trkpt lat="38.6405220" lon="-0.7138040">
        <ele>927.0</ele>
        <time>2019-05-12T14:14:55Z</time>
      </trkpt>
      <trkpt lat="38.6404170" lon="-0.7138080">
        <ele>927.6</ele>
        <time>2019-05-12T14:14:59Z</time>
      </trkpt>
      <trkpt lat="38.6403920" lon="-0.7138110">
        <ele>927.8</ele>
        <time>2019-05-12T14:15:00Z</time>
      </trkpt>
      <trkpt lat="38.6403180" lon="-0.7138120">
        <ele>929.0</ele>
        <time>2019-05-12T14:15:03Z</time>
      </trkpt>
      <trkpt lat="38.6402630" lon="-0.7138200">
        <ele>928.8</ele>
        <time>2019-05-12T14:15:05Z</time>
      </trkpt>
      <trkpt lat="38.6400690" lon="-0.7138600">
        <ele>928.2</ele>
        <time>2019-05-12T14:15:11Z</time>
      </trkpt>
      <trkpt lat="38.6398700" lon="-0.7138600">
        <ele>929.0</ele>
        <time>2019-05-12T14:15:17Z</time>
      </trkpt>
      <trkpt lat="38.6396910" lon="-0.7138170">
        <ele>930.2</ele>
        <time>2019-05-12T14:15:23Z</time>
      </trkpt>
      <trkpt lat="38.6395210" lon="-0.7138100">
        <ele>931.2</ele>
        <time>2019-05-12T14:15:29Z</time>
      </trkpt>
      <trkpt lat="38.6394320" lon="-0.7137910">
        <ele>932.4</ele>
        <time>2019-05-12T14:15:33Z</time>
      </trkpt>
      <trkpt lat="38.6393950" lon="-0.7137630">
        <ele>933.6</ele>
        <time>2019-05-12T14:15:35Z</time>
      </trkpt>
      <trkpt lat="38.6392440" lon="-0.7135910">
        <ele>934.4</ele>
        <time>2019-05-12T14:15:43Z</time>
      </trkpt>
      <trkpt lat="38.6391330" lon="-0.7134220">
        <ele>933.8</ele>
        <time>2019-05-12T14:15:48Z</time>
      </trkpt>
      <trkpt lat="38.6390820" lon="-0.7133090">
        <ele>934.6</ele>
        <time>2019-05-12T14:15:51Z</time>
      </trkpt>
      <trkpt lat="38.6390290" lon="-0.7131580">
        <ele>934.8</ele>
        <time>2019-05-12T14:15:55Z</time>
      </trkpt>
      <trkpt lat="38.6389900" lon="-0.7130200">
        <ele>935.6</ele>
        <time>2019-05-12T14:15:59Z</time>
      </trkpt>
      <trkpt lat="38.6389790" lon="-0.7129080">
        <ele>936.6</ele>
        <time>2019-05-12T14:16:02Z</time>
      </trkpt>
      <trkpt lat="38.6389780" lon="-0.7128710">
        <ele>936.8</ele>
        <time>2019-05-12T14:16:03Z</time>
      </trkpt>
      <trkpt lat="38.6390030" lon="-0.7127070">
        <ele>937.8</ele>
        <time>2019-05-12T14:16:08Z</time>
      </trkpt>
      <trkpt lat="38.6390110" lon="-0.7126780">
        <ele>938.2</ele>
        <time>2019-05-12T14:16:09Z</time>
      </trkpt>
      <trkpt lat="38.6390140" lon="-0.7125420">
        <ele>938.8</ele>
        <time>2019-05-12T14:16:14Z</time>
      </trkpt>
      <trkpt lat="38.6390090" lon="-0.7124890">
        <ele>938.8</ele>
        <time>2019-05-12T14:16:16Z</time>
      </trkpt>
      <trkpt lat="38.6389970" lon="-0.7123660">
        <ele>938.6</ele>
        <time>2019-05-12T14:16:19Z</time>
      </trkpt>
      <trkpt lat="38.6390140" lon="-0.7123100">
        <ele>938.6</ele>
        <time>2019-05-12T14:16:20Z</time>
      </trkpt>
      <trkpt lat="38.6390360" lon="-0.7121360">
        <ele>937.6</ele>
        <time>2019-05-12T14:16:23Z</time>
      </trkpt>
      <trkpt lat="38.6390490" lon="-0.7120660">
        <ele>937.8</ele>
        <time>2019-05-12T14:16:25Z</time>
      </trkpt>
      <trkpt lat="38.6390570" lon="-0.7120420">
        <ele>938.2</ele>
        <time>2019-05-12T14:16:26Z</time>
      </trkpt>
      <trkpt lat="38.6390990" lon="-0.7119270">
        <ele>938.8</ele>
        <time>2019-05-12T14:16:30Z</time>
      </trkpt>
      <trkpt lat="38.6391080" lon="-0.7119020">
        <ele>939.0</ele>
        <time>2019-05-12T14:16:31Z</time>
      </trkpt>
      <trkpt lat="38.6391730" lon="-0.7117600">
        <ele>939.2</ele>
        <time>2019-05-12T14:16:36Z</time>
      </trkpt>
      <trkpt lat="38.6392810" lon="-0.7116560">
        <ele>939.4</ele>
        <time>2019-05-12T14:16:41Z</time>
      </trkpt>
      <trkpt lat="38.6393260" lon="-0.7115550">
        <ele>940.0</ele>
        <time>2019-05-12T14:16:45Z</time>
      </trkpt>
      <trkpt lat="38.6393410" lon="-0.7115270">
        <ele>940.2</ele>
        <time>2019-05-12T14:16:46Z</time>
      </trkpt>
      <trkpt lat="38.6393510" lon="-0.7114460">
        <ele>940.6</ele>
        <time>2019-05-12T14:16:49Z</time>
      </trkpt>
      <trkpt lat="38.6393640" lon="-0.7113860">
        <ele>940.8</ele>
        <time>2019-05-12T14:16:51Z</time>
      </trkpt>
      <trkpt lat="38.6393700" lon="-0.7113530">
        <ele>941.2</ele>
        <time>2019-05-12T14:16:52Z</time>
      </trkpt>
      <trkpt lat="38.6393690" lon="-0.7112140">
        <ele>941.8</ele>
        <time>2019-05-12T14:16:56Z</time>
      </trkpt>
      <trkpt lat="38.6393730" lon="-0.7111780">
        <ele>942.2</ele>
        <time>2019-05-12T14:16:57Z</time>
      </trkpt>
      <trkpt lat="38.6393800" lon="-0.7111430">
        <ele>942.4</ele>
        <time>2019-05-12T14:16:58Z</time>
      </trkpt>
      <trkpt lat="38.6393810" lon="-0.7109730">
        <ele>942.6</ele>
        <time>2019-05-12T14:17:03Z</time>
      </trkpt>
      <trkpt lat="38.6393850" lon="-0.7108300">
        <ele>942.8</ele>
        <time>2019-05-12T14:17:08Z</time>
      </trkpt>
      <trkpt lat="38.6393970" lon="-0.7107890">
        <ele>942.8</ele>
        <time>2019-05-12T14:17:10Z</time>
      </trkpt>
      <trkpt lat="38.6394350" lon="-0.7106660">
        <ele>944.2</ele>
        <time>2019-05-12T14:17:30Z</time>
      </trkpt>
      <trkpt lat="38.6394500" lon="-0.7106060">
        <ele>943.8</ele>
        <time>2019-05-12T14:17:32Z</time>
      </trkpt>
      <trkpt lat="38.6395580" lon="-0.7104230">
        <ele>944.4</ele>
        <time>2019-05-12T14:17:38Z</time>
      </trkpt>
      <trkpt lat="38.6396470" lon="-0.7102690">
        <ele>944.8</ele>
        <time>2019-05-12T14:17:44Z</time>
      </trkpt>
      <trkpt lat="38.6397350" lon="-0.7101650">
        <ele>945.2</ele>
        <time>2019-05-12T14:17:51Z</time>
      </trkpt>
      <trkpt lat="38.6398120" lon="-0.7100830">
        <ele>945.4</ele>
        <time>2019-05-12T14:17:56Z</time>
      </trkpt>
      <trkpt lat="38.6398220" lon="-0.7100650">
        <ele>945.6</ele>
        <time>2019-05-12T14:17:57Z</time>
      </trkpt>
      <trkpt lat="38.6398330" lon="-0.7100270">
        <ele>946.2</ele>
        <time>2019-05-12T14:17:59Z</time>
      </trkpt>
      <trkpt lat="38.6398670" lon="-0.7099600">
        <ele>947.0</ele>
        <time>2019-05-12T14:18:03Z</time>
      </trkpt>
      <trkpt lat="38.6398750" lon="-0.7099450">
        <ele>947.6</ele>
        <time>2019-05-12T14:18:04Z</time>
      </trkpt>
      <trkpt lat="38.6399020" lon="-0.7098880">
        <ele>949.2</ele>
        <time>2019-05-12T14:18:09Z</time>
      </trkpt>
      <trkpt lat="38.6399130" lon="-0.7098820">
        <ele>949.2</ele>
        <time>2019-05-12T14:18:10Z</time>
      </trkpt>
      <trkpt lat="38.6399180" lon="-0.7098360">
        <ele>949.8</ele>
        <time>2019-05-12T14:18:15Z</time>
      </trkpt>
      <trkpt lat="38.6399120" lon="-0.7098180">
        <ele>949.8</ele>
        <time>2019-05-12T14:18:16Z</time>
      </trkpt>
      <trkpt lat="38.6399100" lon="-0.7098090">
        <ele>950.2</ele>
        <time>2019-05-12T14:18:17Z</time>
      </trkpt>
      <trkpt lat="38.6398970" lon="-0.7097550">
        <ele>951.2</ele>
        <time>2019-05-12T14:18:21Z</time>
      </trkpt>
      <trkpt lat="38.6399040" lon="-0.7096730">
        <ele>952.6</ele>
        <time>2019-05-12T14:18:26Z</time>
      </trkpt>
      <trkpt lat="38.6399060" lon="-0.7096520">
        <ele>952.8</ele>
        <time>2019-05-12T14:18:27Z</time>
      </trkpt>
      <trkpt lat="38.6399000" lon="-0.7095860">
        <ele>953.8</ele>
        <time>2019-05-12T14:18:31Z</time>
      </trkpt>
      <trkpt lat="38.6399000" lon="-0.7095500">
        <ele>954.4</ele>
        <time>2019-05-12T14:18:33Z</time>
      </trkpt>
      <trkpt lat="38.6399050" lon="-0.7095300">
        <ele>955.0</ele>
        <time>2019-05-12T14:18:35Z</time>
      </trkpt>
      <trkpt lat="38.6399200" lon="-0.7094570">
        <ele>954.8</ele>
        <time>2019-05-12T14:18:41Z</time>
      </trkpt>
      <trkpt lat="38.6399230" lon="-0.7094280">
        <ele>955.0</ele>
        <time>2019-05-12T14:18:42Z</time>
      </trkpt>
      <trkpt lat="38.6399300" lon="-0.7093050">
        <ele>956.2</ele>
        <time>2019-05-12T14:18:46Z</time>
      </trkpt>
      <trkpt lat="38.6399310" lon="-0.7092390">
        <ele>956.4</ele>
        <time>2019-05-12T14:18:48Z</time>
      </trkpt>
      <trkpt lat="38.6399390" lon="-0.7091550">
        <ele>957.2</ele>
        <time>2019-05-12T14:18:51Z</time>
      </trkpt>
      <trkpt lat="38.6399550" lon="-0.7090730">
        <ele>957.8</ele>
        <time>2019-05-12T14:18:53Z</time>
      </trkpt>
      <trkpt lat="38.6400010" lon="-0.7088210">
        <ele>957.6</ele>
        <time>2019-05-12T14:18:58Z</time>
      </trkpt>
      <trkpt lat="38.6400170" lon="-0.7087260">
        <ele>957.8</ele>
        <time>2019-05-12T14:19:01Z</time>
      </trkpt>
      <trkpt lat="38.6400390" lon="-0.7087000">
        <ele>957.6</ele>
        <time>2019-05-12T14:19:02Z</time>
      </trkpt>
      <trkpt lat="38.6401220" lon="-0.7086690">
        <ele>957.8</ele>
        <time>2019-05-12T14:19:06Z</time>
      </trkpt>
      <trkpt lat="38.6401470" lon="-0.7086440">
        <ele>958.2</ele>
        <time>2019-05-12T14:19:08Z</time>
      </trkpt>
      <trkpt lat="38.6401610" lon="-0.7086260">
        <ele>958.2</ele>
        <time>2019-05-12T14:19:09Z</time>
      </trkpt>
      <trkpt lat="38.6401870" lon="-0.7086000">
        <ele>958.8</ele>
        <time>2019-05-12T14:19:11Z</time>
      </trkpt>
      <trkpt lat="38.6402020" lon="-0.7085840">
        <ele>959.2</ele>
        <time>2019-05-12T14:19:12Z</time>
      </trkpt>
      <trkpt lat="38.6402390" lon="-0.7085480">
        <ele>960.6</ele>
        <time>2019-05-12T14:19:15Z</time>
      </trkpt>
      <trkpt lat="38.6402520" lon="-0.7085350">
        <ele>961.0</ele>
        <time>2019-05-12T14:19:16Z</time>
      </trkpt>
      <trkpt lat="38.6402860" lon="-0.7085040">
        <ele>961.6</ele>
        <time>2019-05-12T14:19:19Z</time>
      </trkpt>
      <trkpt lat="38.6402910" lon="-0.7084690">
        <ele>962.2</ele>
        <time>2019-05-12T14:19:21Z</time>
      </trkpt>
      <trkpt lat="38.6402940" lon="-0.7084570">
        <ele>962.4</ele>
        <time>2019-05-12T14:19:22Z</time>
      </trkpt>
      <trkpt lat="38.6402930" lon="-0.7084660">
        <ele>962.8</ele>
        <time>2019-05-12T14:19:23Z</time>
      </trkpt>
      <trkpt lat="38.6402650" lon="-0.7080520">
        <ele>969.2</ele>
        <time>2019-05-12T14:20:00Z</time>
      </trkpt>
      <trkpt lat="38.6402650" lon="-0.7080330">
        <ele>969.4</ele>
        <time>2019-05-12T14:20:01Z</time>
      </trkpt>
      <trkpt lat="38.6402440" lon="-0.7079680">
        <ele>970.2</ele>
        <time>2019-05-12T14:20:05Z</time>
      </trkpt>
      <trkpt lat="38.6402370" lon="-0.7079110">
        <ele>971.0</ele>
        <time>2019-05-12T14:20:07Z</time>
      </trkpt>
      <trkpt lat="38.6402390" lon="-0.7078610">
        <ele>971.6</ele>
        <time>2019-05-12T14:20:09Z</time>
      </trkpt>
      <trkpt lat="38.6402300" lon="-0.7077530">
        <ele>972.4</ele>
        <time>2019-05-12T14:20:13Z</time>
      </trkpt>
      <trkpt lat="38.6402260" lon="-0.7077260">
        <ele>972.6</ele>
        <time>2019-05-12T14:20:14Z</time>
      </trkpt>
      <trkpt lat="38.6402000" lon="-0.7075950">
        <ele>973.4</ele>
        <time>2019-05-12T14:20:19Z</time>
      </trkpt>
      <trkpt lat="38.6401920" lon="-0.7075460">
        <ele>973.8</ele>
        <time>2019-05-12T14:20:21Z</time>
      </trkpt>
      <trkpt lat="38.6401620" lon="-0.7074960">
        <ele>974.8</ele>
        <time>2019-05-12T14:20:24Z</time>
      </trkpt>
      <trkpt lat="38.6401480" lon="-0.7074850">
        <ele>975.0</ele>
        <time>2019-05-12T14:20:25Z</time>
      </trkpt>
      <trkpt lat="38.6401080" lon="-0.7074330">
        <ele>976.0</ele>
        <time>2019-05-12T14:20:29Z</time>
      </trkpt>
      <trkpt lat="38.6400980" lon="-0.7073780">
        <ele>977.0</ele>
        <time>2019-05-12T14:20:32Z</time>
      </trkpt>
      <trkpt lat="38.6401240" lon="-0.7072360">
        <ele>977.0</ele>
        <time>2019-05-12T14:20:38Z</time>
      </trkpt>
      <trkpt lat="38.6401320" lon="-0.7071990">
        <ele>977.0</ele>
        <time>2019-05-12T14:20:39Z</time>
      </trkpt>
      <trkpt lat="38.6401590" lon="-0.7070310">
        <ele>976.2</ele>
        <time>2019-05-12T14:20:44Z</time>
      </trkpt>
      <trkpt lat="38.6401610" lon="-0.7069760">
        <ele>976.0</ele>
        <time>2019-05-12T14:20:46Z</time>
      </trkpt>
      <trkpt lat="38.6401560" lon="-0.7068990">
        <ele>976.4</ele>
        <time>2019-05-12T14:20:49Z</time>
      </trkpt>
      <trkpt lat="38.6401450" lon="-0.7068540">
        <ele>977.0</ele>
        <time>2019-05-12T14:20:51Z</time>
      </trkpt>
      <trkpt lat="38.6401380" lon="-0.7067570">
        <ele>977.2</ele>
        <time>2019-05-12T14:20:55Z</time>
      </trkpt>
      <trkpt lat="38.6401390" lon="-0.7067100">
        <ele>977.8</ele>
        <time>2019-05-12T14:20:57Z</time>
      </trkpt>
      <trkpt lat="38.6401420" lon="-0.7066860">
        <ele>978.2</ele>
        <time>2019-05-12T14:20:58Z</time>
      </trkpt>
      <trkpt lat="38.6401340" lon="-0.7066050">
        <ele>979.2</ele>
        <time>2019-05-12T14:21:02Z</time>
      </trkpt>
      <trkpt lat="38.6401320" lon="-0.7065850">
        <ele>979.4</ele>
        <time>2019-05-12T14:21:03Z</time>
      </trkpt>
      <trkpt lat="38.6401280" lon="-0.7064620">
        <ele>980.4</ele>
        <time>2019-05-12T14:21:09Z</time>
      </trkpt>
      <trkpt lat="38.6401140" lon="-0.7063820">
        <ele>981.4</ele>
        <time>2019-05-12T14:21:13Z</time>
      </trkpt>
      <trkpt lat="38.6401070" lon="-0.7063310">
        <ele>982.0</ele>
        <time>2019-05-12T14:21:16Z</time>
      </trkpt>
      <trkpt lat="38.6401000" lon="-0.7063000">
        <ele>982.4</ele>
        <time>2019-05-12T14:21:18Z</time>
      </trkpt>
      <trkpt lat="38.6400950" lon="-0.7062680">
        <ele>982.6</ele>
        <time>2019-05-12T14:21:20Z</time>
      </trkpt>
      <trkpt lat="38.6400900" lon="-0.7062240">
        <ele>982.8</ele>
        <time>2019-05-12T14:21:22Z</time>
      </trkpt>
      <trkpt lat="38.6400830" lon="-0.7061800">
        <ele>983.6</ele>
        <time>2019-05-12T14:21:24Z</time>
      </trkpt>
      <trkpt lat="38.6400690" lon="-0.7061410">
        <ele>984.8</ele>
        <time>2019-05-12T14:21:26Z</time>
      </trkpt>
      <trkpt lat="38.6400530" lon="-0.7060880">
        <ele>985.2</ele>
        <time>2019-05-12T14:21:29Z</time>
      </trkpt>
      <trkpt lat="38.6400350" lon="-0.7060370">
        <ele>985.8</ele>
        <time>2019-05-12T14:21:32Z</time>
      </trkpt>
      <trkpt lat="38.6400100" lon="-0.7059830">
        <ele>986.8</ele>
        <time>2019-05-12T14:21:35Z</time>
      </trkpt>
      <trkpt lat="38.6400040" lon="-0.7059630">
        <ele>987.2</ele>
        <time>2019-05-12T14:21:36Z</time>
      </trkpt>
      <trkpt lat="38.6399900" lon="-0.7058670">
        <ele>988.0</ele>
        <time>2019-05-12T14:21:41Z</time>
      </trkpt>
      <trkpt lat="38.6399850" lon="-0.7058460">
        <ele>988.4</ele>
        <time>2019-05-12T14:21:42Z</time>
      </trkpt>
      <trkpt lat="38.6399680" lon="-0.7057950">
        <ele>989.0</ele>
        <time>2019-05-12T14:21:45Z</time>
      </trkpt>
      <trkpt lat="38.6399490" lon="-0.7057500">
        <ele>989.6</ele>
        <time>2019-05-12T14:21:48Z</time>
      </trkpt>
      <trkpt lat="38.6399450" lon="-0.7057330">
        <ele>989.8</ele>
        <time>2019-05-12T14:21:49Z</time>
      </trkpt>
      <trkpt lat="38.6399420" lon="-0.7057190">
        <ele>990.2</ele>
        <time>2019-05-12T14:21:50Z</time>
      </trkpt>
      <trkpt lat="38.6399250" lon="-0.7056560">
        <ele>991.4</ele>
        <time>2019-05-12T14:21:54Z</time>
      </trkpt>
      <trkpt lat="38.6399120" lon="-0.7056250">
        <ele>991.8</ele>
        <time>2019-05-12T14:21:56Z</time>
      </trkpt>
      <trkpt lat="38.6398980" lon="-0.7055730">
        <ele>992.4</ele>
        <time>2019-05-12T14:21:59Z</time>
      </trkpt>
      <trkpt lat="38.6398680" lon="-0.7054870">
        <ele>992.8</ele>
        <time>2019-05-12T14:22:04Z</time>
      </trkpt>
      <trkpt lat="38.6398510" lon="-0.7054380">
        <ele>993.4</ele>
        <time>2019-05-12T14:22:07Z</time>
      </trkpt>
      <trkpt lat="38.6398180" lon="-0.7053760">
        <ele>994.4</ele>
        <time>2019-05-12T14:22:11Z</time>
      </trkpt>
      <trkpt lat="38.6398150" lon="-0.7053550">
        <ele>994.6</ele>
        <time>2019-05-12T14:22:12Z</time>
      </trkpt>
      <trkpt lat="38.6397830" lon="-0.7052290">
        <ele>995.4</ele>
        <time>2019-05-12T14:22:18Z</time>
      </trkpt>
      <trkpt lat="38.6397670" lon="-0.7051920">
        <ele>995.6</ele>
        <time>2019-05-12T14:22:20Z</time>
      </trkpt>
      <trkpt lat="38.6397350" lon="-0.7051120">
        <ele>996.2</ele>
        <time>2019-05-12T14:22:24Z</time>
      </trkpt>
      <trkpt lat="38.6396840" lon="-0.7050280">
        <ele>996.8</ele>
        <time>2019-05-12T14:22:29Z</time>
      </trkpt>
      <trkpt lat="38.6396440" lon="-0.7049670">
        <ele>997.8</ele>
        <time>2019-05-12T14:22:33Z</time>
      </trkpt>
      <trkpt lat="38.6396270" lon="-0.7049340">
        <ele>998.0</ele>
        <time>2019-05-12T14:22:35Z</time>
      </trkpt>
      <trkpt lat="38.6395580" lon="-0.7048750">
        <ele>999.2</ele>
        <time>2019-05-12T14:22:40Z</time>
      </trkpt>
      <trkpt lat="38.6395490" lon="-0.7048640">
        <ele>999.2</ele>
        <time>2019-05-12T14:22:41Z</time>
      </trkpt>
      <trkpt lat="38.6394980" lon="-0.7047470">
        <ele>1000.0</ele>
        <time>2019-05-12T14:22:47Z</time>
      </trkpt>
      <trkpt lat="38.6394910" lon="-0.7047210">
        <ele>1000.2</ele>
        <time>2019-05-12T14:22:48Z</time>
      </trkpt>
      <trkpt lat="38.6394580" lon="-0.7045620">
        <ele>1001.0</ele>
        <time>2019-05-12T14:22:54Z</time>
      </trkpt>
      <trkpt lat="38.6394430" lon="-0.7045040">
        <ele>1001.2</ele>
        <time>2019-05-12T14:22:57Z</time>
      </trkpt>
      <trkpt lat="38.6394240" lon="-0.7044530">
        <ele>1002.0</ele>
        <time>2019-05-12T14:23:00Z</time>
      </trkpt>
      <trkpt lat="38.6393980" lon="-0.7044330">
        <ele>1002.2</ele>
        <time>2019-05-12T14:23:02Z</time>
      </trkpt>
      <trkpt lat="38.6393580" lon="-0.7043860">
        <ele>1001.6</ele>
        <time>2019-05-12T14:23:05Z</time>
      </trkpt>
      <trkpt lat="38.6393190" lon="-0.7043540">
        <ele>1001.6</ele>
        <time>2019-05-12T14:23:08Z</time>
      </trkpt>
      <trkpt lat="38.6392860" lon="-0.7043130">
        <ele>1002.0</ele>
        <time>2019-05-12T14:23:23Z</time>
      </trkpt>
      <trkpt lat="38.6392700" lon="-0.7042650">
        <ele>1001.8</ele>
        <time>2019-05-12T14:23:25Z</time>
      </trkpt>
      <trkpt lat="38.6392520" lon="-0.7041840">
        <ele>1002.2</ele>
        <time>2019-05-12T14:23:28Z</time>
      </trkpt>
      <trkpt lat="38.6392360" lon="-0.7040810">
        <ele>1003.4</ele>
        <time>2019-05-12T14:23:32Z</time>
      </trkpt>
      <trkpt lat="38.6392350" lon="-0.7040070">
        <ele>1004.0</ele>
        <time>2019-05-12T14:23:35Z</time>
      </trkpt>
      <trkpt lat="38.6392380" lon="-0.7039610">
        <ele>1004.4</ele>
        <time>2019-05-12T14:23:37Z</time>
      </trkpt>
      <trkpt lat="38.6392360" lon="-0.7039360">
        <ele>1004.6</ele>
        <time>2019-05-12T14:23:38Z</time>
      </trkpt>
      <trkpt lat="38.6392640" lon="-0.7038130">
        <ele>1005.6</ele>
        <time>2019-05-12T14:23:44Z</time>
      </trkpt>
      <trkpt lat="38.6392760" lon="-0.7037160">
        <ele>1006.6</ele>
        <time>2019-05-12T14:23:49Z</time>
      </trkpt>
      <trkpt lat="38.6392870" lon="-0.7036550">
        <ele>1007.2</ele>
        <time>2019-05-12T14:23:52Z</time>
      </trkpt>
      <trkpt lat="38.6393050" lon="-0.7036140">
        <ele>1007.8</ele>
        <time>2019-05-12T14:23:54Z</time>
      </trkpt>
      <trkpt lat="38.6393180" lon="-0.7035290">
        <ele>1009.0</ele>
        <time>2019-05-12T14:23:58Z</time>
      </trkpt>
      <trkpt lat="38.6393420" lon="-0.7033750">
        <ele>1010.0</ele>
        <time>2019-05-12T14:24:06Z</time>
      </trkpt>
      <trkpt lat="38.6393720" lon="-0.7032590">
        <ele>1011.0</ele>
        <time>2019-05-12T14:24:12Z</time>
      </trkpt>
      <trkpt lat="38.6393830" lon="-0.7032420">
        <ele>1011.2</ele>
        <time>2019-05-12T14:24:13Z</time>
      </trkpt>
      <trkpt lat="38.6394030" lon="-0.7031560">
        <ele>1011.6</ele>
        <time>2019-05-12T14:24:17Z</time>
      </trkpt>
      <trkpt lat="38.6394080" lon="-0.7031190">
        <ele>1012.4</ele>
        <time>2019-05-12T14:24:19Z</time>
      </trkpt>
      <trkpt lat="38.6394190" lon="-0.7030360">
        <ele>1013.0</ele>
        <time>2019-05-12T14:24:23Z</time>
      </trkpt>
      <trkpt lat="38.6394400" lon="-0.7029820">
        <ele>1013.4</ele>
        <time>2019-05-12T14:24:26Z</time>
      </trkpt>
      <trkpt lat="38.6394660" lon="-0.7029110">
        <ele>1014.4</ele>
        <time>2019-05-12T14:24:30Z</time>
      </trkpt>
      <trkpt lat="38.6395150" lon="-0.7027380">
        <ele>1015.6</ele>
        <time>2019-05-12T14:24:38Z</time>
      </trkpt>
      <trkpt lat="38.6395340" lon="-0.7026060">
        <ele>1015.8</ele>
        <time>2019-05-12T14:24:43Z</time>
      </trkpt>
      <trkpt lat="38.6395700" lon="-0.7024410">
        <ele>1016.6</ele>
        <time>2019-05-12T14:24:49Z</time>
      </trkpt>
      <trkpt lat="38.6395790" lon="-0.7024140">
        <ele>1016.4</ele>
        <time>2019-05-12T14:24:50Z</time>
      </trkpt>
      <trkpt lat="38.6396590" lon="-0.7022800">
        <ele>1017.0</ele>
        <time>2019-05-12T14:24:56Z</time>
      </trkpt>
      <trkpt lat="38.6396970" lon="-0.7022280">
        <ele>1017.6</ele>
        <time>2019-05-12T14:24:59Z</time>
      </trkpt>
      <trkpt lat="38.6397530" lon="-0.7021770">
        <ele>1018.4</ele>
        <time>2019-05-12T14:25:03Z</time>
      </trkpt>
      <trkpt lat="38.6397940" lon="-0.7021240">
        <ele>1018.6</ele>
        <time>2019-05-12T14:25:06Z</time>
      </trkpt>
      <trkpt lat="38.6398240" lon="-0.7020830">
        <ele>1019.0</ele>
        <time>2019-05-12T14:25:08Z</time>
      </trkpt>
      <trkpt lat="38.6399450" lon="-0.7019800">
        <ele>1019.2</ele>
        <time>2019-05-12T14:25:14Z</time>
      </trkpt>
      <trkpt lat="38.6400340" lon="-0.7018800">
        <ele>1018.8</ele>
        <time>2019-05-12T14:25:18Z</time>
      </trkpt>
      <trkpt lat="38.6400850" lon="-0.7017940">
        <ele>1018.2</ele>
        <time>2019-05-12T14:25:20Z</time>
      </trkpt>
      <trkpt lat="38.6401210" lon="-0.7016930">
        <ele>1018.2</ele>
        <time>2019-05-12T14:25:23Z</time>
      </trkpt>
      <trkpt lat="38.6401270" lon="-0.7016670">
        <ele>1018.2</ele>
        <time>2019-05-12T14:25:24Z</time>
      </trkpt>
      <trkpt lat="38.6401720" lon="-0.7015780">
        <ele>1019.2</ele>
        <time>2019-05-12T14:25:28Z</time>
      </trkpt>
      <trkpt lat="38.6401870" lon="-0.7015240">
        <ele>1019.6</ele>
        <time>2019-05-12T14:25:30Z</time>
      </trkpt>
      <trkpt lat="38.6402240" lon="-0.7014220">
        <ele>1020.6</ele>
        <time>2019-05-12T14:25:34Z</time>
      </trkpt>
      <trkpt lat="38.6402650" lon="-0.7013210">
        <ele>1022.0</ele>
        <time>2019-05-12T14:25:38Z</time>
      </trkpt>
      <trkpt lat="38.6403140" lon="-0.7012450">
        <ele>1022.8</ele>
        <time>2019-05-12T14:25:42Z</time>
      </trkpt>
      <trkpt lat="38.6403420" lon="-0.7012140">
        <ele>1023.2</ele>
        <time>2019-05-12T14:25:44Z</time>
      </trkpt>
      <trkpt lat="38.6404200" lon="-0.7011500">
        <ele>1024.4</ele>
        <time>2019-05-12T14:25:49Z</time>
      </trkpt>
      <trkpt lat="38.6404840" lon="-0.7010490">
        <ele>1025.4</ele>
        <time>2019-05-12T14:25:54Z</time>
      </trkpt>
      <trkpt lat="38.6405130" lon="-0.7010060">
        <ele>1026.0</ele>
        <time>2019-05-12T14:25:56Z</time>
      </trkpt>
      <trkpt lat="38.6405440" lon="-0.7009400">
        <ele>1027.2</ele>
        <time>2019-05-12T14:25:59Z</time>
      </trkpt>
      <trkpt lat="38.6405670" lon="-0.7008380">
        <ele>1028.0</ele>
        <time>2019-05-12T14:26:03Z</time>
      </trkpt>
      <trkpt lat="38.6405770" lon="-0.7008140">
        <ele>1028.4</ele>
        <time>2019-05-12T14:26:04Z</time>
      </trkpt>
      <trkpt lat="38.6406220" lon="-0.7007110">
        <ele>1029.4</ele>
        <time>2019-05-12T14:26:08Z</time>
      </trkpt>
      <trkpt lat="38.6406540" lon="-0.7006780">
        <ele>1030.2</ele>
        <time>2019-05-12T14:26:10Z</time>
      </trkpt>
      <trkpt lat="38.6407110" lon="-0.7006420">
        <ele>1030.6</ele>
        <time>2019-05-12T14:26:13Z</time>
      </trkpt>
      <trkpt lat="38.6407650" lon="-0.7006340">
        <ele>1031.2</ele>
        <time>2019-05-12T14:26:16Z</time>
      </trkpt>
      <trkpt lat="38.6408300" lon="-0.7006410">
        <ele>1031.6</ele>
        <time>2019-05-12T14:26:19Z</time>
      </trkpt>
      <trkpt lat="38.6408910" lon="-0.7006180">
        <ele>1032.2</ele>
        <time>2019-05-12T14:26:22Z</time>
      </trkpt>
      <trkpt lat="38.6409360" lon="-0.7005990">
        <ele>1033.0</ele>
        <time>2019-05-12T14:26:24Z</time>
      </trkpt>
      <trkpt lat="38.6410290" lon="-0.7005030">
        <ele>1033.8</ele>
        <time>2019-05-12T14:26:29Z</time>
      </trkpt>
      <trkpt lat="38.6410800" lon="-0.7004490">
        <ele>1034.4</ele>
        <time>2019-05-12T14:26:32Z</time>
      </trkpt>
      <trkpt lat="38.6411200" lon="-0.7003870">
        <ele>1034.8</ele>
        <time>2019-05-12T14:26:35Z</time>
      </trkpt>
      <trkpt lat="38.6411610" lon="-0.7003220">
        <ele>1035.4</ele>
        <time>2019-05-12T14:26:38Z</time>
      </trkpt>
      <trkpt lat="38.6412310" lon="-0.7002020">
        <ele>1036.0</ele>
        <time>2019-05-12T14:26:44Z</time>
      </trkpt>
      <trkpt lat="38.6412930" lon="-0.7001020">
        <ele>1036.8</ele>
        <time>2019-05-12T14:26:49Z</time>
      </trkpt>
      <trkpt lat="38.6413060" lon="-0.7000800">
        <ele>1037.0</ele>
        <time>2019-05-12T14:26:50Z</time>
      </trkpt>
      <trkpt lat="38.6413930" lon="-0.6999510">
        <ele>1037.8</ele>
        <time>2019-05-12T14:26:56Z</time>
      </trkpt>
      <trkpt lat="38.6414060" lon="-0.6999290">
        <ele>1038.0</ele>
        <time>2019-05-12T14:26:57Z</time>
      </trkpt>
      <trkpt lat="38.6415090" lon="-0.6997880">
        <ele>1038.2</ele>
        <time>2019-05-12T14:27:03Z</time>
      </trkpt>
      <trkpt lat="38.6416320" lon="-0.6995720">
        <ele>1038.2</ele>
        <time>2019-05-12T14:27:10Z</time>
      </trkpt>
      <trkpt lat="38.6417220" lon="-0.6993790">
        <ele>1038.4</ele>
        <time>2019-05-12T14:27:16Z</time>
      </trkpt>
      <trkpt lat="38.6418130" lon="-0.6991890">
        <ele>1039.2</ele>
        <time>2019-05-12T14:27:22Z</time>
      </trkpt>
      <trkpt lat="38.6418470" lon="-0.6991320">
        <ele>1039.2</ele>
        <time>2019-05-12T14:27:24Z</time>
      </trkpt>
      <trkpt lat="38.6419930" lon="-0.6988910">
        <ele>1039.8</ele>
        <time>2019-05-12T14:27:32Z</time>
      </trkpt>
      <trkpt lat="38.6420630" lon="-0.6987490">
        <ele>1040.4</ele>
        <time>2019-05-12T14:27:37Z</time>
      </trkpt>
      <trkpt lat="38.6420900" lon="-0.6986990">
        <ele>1041.0</ele>
        <time>2019-05-12T14:27:39Z</time>
      </trkpt>
      <trkpt lat="38.6421250" lon="-0.6986320">
        <ele>1041.4</ele>
        <time>2019-05-12T14:27:42Z</time>
      </trkpt>
      <trkpt lat="38.6421560" lon="-0.6985500">
        <ele>1041.8</ele>
        <time>2019-05-12T14:27:45Z</time>
      </trkpt>
      <trkpt lat="38.6421680" lon="-0.6984660">
        <ele>1042.6</ele>
        <time>2019-05-12T14:27:48Z</time>
      </trkpt>
      <trkpt lat="38.6421890" lon="-0.6983480">
        <ele>1043.0</ele>
        <time>2019-05-12T14:27:52Z</time>
      </trkpt>
      <trkpt lat="38.6421960" lon="-0.6982590">
        <ele>1043.8</ele>
        <time>2019-05-12T14:27:55Z</time>
      </trkpt>
      <trkpt lat="38.6421970" lon="-0.6981470">
        <ele>1045.0</ele>
        <time>2019-05-12T14:27:59Z</time>
      </trkpt>
      <trkpt lat="38.6421940" lon="-0.6981230">
        <ele>1044.8</ele>
        <time>2019-05-12T14:28:00Z</time>
      </trkpt>
      <trkpt lat="38.6422000" lon="-0.6980240">
        <ele>1046.0</ele>
        <time>2019-05-12T14:28:04Z</time>
      </trkpt>
      <trkpt lat="38.6422390" lon="-0.6979480">
        <ele>1046.4</ele>
        <time>2019-05-12T14:28:07Z</time>
      </trkpt>
      <trkpt lat="38.6422690" lon="-0.6978770">
        <ele>1047.0</ele>
        <time>2019-05-12T14:28:10Z</time>
      </trkpt>
      <trkpt lat="38.6422860" lon="-0.6978230">
        <ele>1047.6</ele>
        <time>2019-05-12T14:28:12Z</time>
      </trkpt>
      <trkpt lat="38.6422980" lon="-0.6977700">
        <ele>1048.0</ele>
        <time>2019-05-12T14:28:14Z</time>
      </trkpt>
      <trkpt lat="38.6422840" lon="-0.6976340">
        <ele>1049.0</ele>
        <time>2019-05-12T14:28:19Z</time>
      </trkpt>
      <trkpt lat="38.6422860" lon="-0.6976070">
        <ele>1049.2</ele>
        <time>2019-05-12T14:28:20Z</time>
      </trkpt>
      <trkpt lat="38.6423150" lon="-0.6974750">
        <ele>1050.2</ele>
        <time>2019-05-12T14:28:25Z</time>
      </trkpt>
      <trkpt lat="38.6423200" lon="-0.6974480">
        <ele>1050.4</ele>
        <time>2019-05-12T14:28:26Z</time>
      </trkpt>
      <trkpt lat="38.6423510" lon="-0.6972960">
        <ele>1051.6</ele>
        <time>2019-05-12T14:28:32Z</time>
      </trkpt>
      <trkpt lat="38.6423600" lon="-0.6972420">
        <ele>1052.0</ele>
        <time>2019-05-12T14:28:34Z</time>
      </trkpt>
      <trkpt lat="38.6423830" lon="-0.6971370">
        <ele>1052.8</ele>
        <time>2019-05-12T14:28:38Z</time>
      </trkpt>
      <trkpt lat="38.6424120" lon="-0.6970090">
        <ele>1053.8</ele>
        <time>2019-05-12T14:28:43Z</time>
      </trkpt>
      <trkpt lat="38.6424220" lon="-0.6969840">
        <ele>1054.0</ele>
        <time>2019-05-12T14:28:44Z</time>
      </trkpt>
      <trkpt lat="38.6424510" lon="-0.6968700">
        <ele>1055.0</ele>
        <time>2019-05-12T14:28:49Z</time>
      </trkpt>
      <trkpt lat="38.6424560" lon="-0.6968440">
        <ele>1055.0</ele>
        <time>2019-05-12T14:28:50Z</time>
      </trkpt>
      <trkpt lat="38.6425070" lon="-0.6967560">
        <ele>1056.2</ele>
        <time>2019-05-12T14:28:55Z</time>
      </trkpt>
      <trkpt lat="38.6425130" lon="-0.6967340">
        <ele>1056.2</ele>
        <time>2019-05-12T14:28:56Z</time>
      </trkpt>
      <trkpt lat="38.6425390" lon="-0.6966140">
        <ele>1057.2</ele>
        <time>2019-05-12T14:29:01Z</time>
      </trkpt>
      <trkpt lat="38.6425610" lon="-0.6965460">
        <ele>1058.2</ele>
        <time>2019-05-12T14:29:04Z</time>
      </trkpt>
      <trkpt lat="38.6425650" lon="-0.6965220">
        <ele>1058.2</ele>
        <time>2019-05-12T14:29:05Z</time>
      </trkpt>
      <trkpt lat="38.6426030" lon="-0.6963800">
        <ele>1059.0</ele>
        <time>2019-05-12T14:29:11Z</time>
      </trkpt>
      <trkpt lat="38.6426120" lon="-0.6963320">
        <ele>1059.4</ele>
        <time>2019-05-12T14:29:13Z</time>
      </trkpt>
      <trkpt lat="38.6426270" lon="-0.6962390">
        <ele>1060.4</ele>
        <time>2019-05-12T14:29:17Z</time>
      </trkpt>
      <trkpt lat="38.6426280" lon="-0.6962120">
        <ele>1060.4</ele>
        <time>2019-05-12T14:29:18Z</time>
      </trkpt>
      <trkpt lat="38.6426310" lon="-0.6961590">
        <ele>1061.0</ele>
        <time>2019-05-12T14:29:20Z</time>
      </trkpt>
      <trkpt lat="38.6426330" lon="-0.6961080">
        <ele>1061.6</ele>
        <time>2019-05-12T14:29:22Z</time>
      </trkpt>
      <trkpt lat="38.6426030" lon="-0.6960180">
        <ele>1062.2</ele>
        <time>2019-05-12T14:29:26Z</time>
      </trkpt>
      <trkpt lat="38.6425890" lon="-0.6959740">
        <ele>1062.6</ele>
        <time>2019-05-12T14:29:28Z</time>
      </trkpt>
      <trkpt lat="38.6425550" lon="-0.6958640">
        <ele>1063.8</ele>
        <time>2019-05-12T14:29:33Z</time>
      </trkpt>
      <trkpt lat="38.6425420" lon="-0.6957430">
        <ele>1064.8</ele>
        <time>2019-05-12T14:29:38Z</time>
      </trkpt>
      <trkpt lat="38.6425510" lon="-0.6957240">
        <ele>1065.0</ele>
        <time>2019-05-12T14:29:39Z</time>
      </trkpt>
      <trkpt lat="38.6425500" lon="-0.6956990">
        <ele>1065.2</ele>
        <time>2019-05-12T14:29:40Z</time>
      </trkpt>
      <trkpt lat="38.6425690" lon="-0.6956030">
        <ele>1066.0</ele>
        <time>2019-05-12T14:29:44Z</time>
      </trkpt>
      <trkpt lat="38.6425880" lon="-0.6954720">
        <ele>1067.2</ele>
        <time>2019-05-12T14:29:49Z</time>
      </trkpt>
      <trkpt lat="38.6426020" lon="-0.6953860">
        <ele>1068.6</ele>
        <time>2019-05-12T14:29:53Z</time>
      </trkpt>
      <trkpt lat="38.6426200" lon="-0.6953010">
        <ele>1069.6</ele>
        <time>2019-05-12T14:29:57Z</time>
      </trkpt>
      <trkpt lat="38.6426480" lon="-0.6951670">
        <ele>1070.8</ele>
        <time>2019-05-12T14:30:03Z</time>
      </trkpt>
      <trkpt lat="38.6426710" lon="-0.6950530">
        <ele>1072.0</ele>
        <time>2019-05-12T14:30:08Z</time>
      </trkpt>
      <trkpt lat="38.6426800" lon="-0.6950100">
        <ele>1072.4</ele>
        <time>2019-05-12T14:30:10Z</time>
      </trkpt>
      <trkpt lat="38.6426830" lon="-0.6949670">
        <ele>1073.4</ele>
        <time>2019-05-12T14:30:12Z</time>
      </trkpt>
      <trkpt lat="38.6427020" lon="-0.6948430">
        <ele>1074.4</ele>
        <time>2019-05-12T14:30:18Z</time>
      </trkpt>
      <trkpt lat="38.6427060" lon="-0.6948220">
        <ele>1074.6</ele>
        <time>2019-05-12T14:30:19Z</time>
      </trkpt>
      <trkpt lat="38.6427280" lon="-0.6947600">
        <ele>1075.4</ele>
        <time>2019-05-12T14:30:22Z</time>
      </trkpt>
      <trkpt lat="38.6427600" lon="-0.6946710">
        <ele>1076.2</ele>
        <time>2019-05-12T14:30:26Z</time>
      </trkpt>
      <trkpt lat="38.6427760" lon="-0.6946290">
        <ele>1076.4</ele>
        <time>2019-05-12T14:30:28Z</time>
      </trkpt>
      <trkpt lat="38.6428230" lon="-0.6945430">
        <ele>1077.6</ele>
        <time>2019-05-12T14:30:33Z</time>
      </trkpt>
      <trkpt lat="38.6428590" lon="-0.6944680">
        <ele>1078.6</ele>
        <time>2019-05-12T14:30:37Z</time>
      </trkpt>
      <trkpt lat="38.6428930" lon="-0.6943970">
        <ele>1078.8</ele>
        <time>2019-05-12T14:30:40Z</time>
      </trkpt>
      <trkpt lat="38.6429320" lon="-0.6943330">
        <ele>1079.8</ele>
        <time>2019-05-12T14:30:43Z</time>
      </trkpt>
      <trkpt lat="38.6430140" lon="-0.6942600">
        <ele>1080.0</ele>
        <time>2019-05-12T14:30:47Z</time>
      </trkpt>
      <trkpt lat="38.6431750" lon="-0.6941170">
        <ele>1079.4</ele>
        <time>2019-05-12T14:30:53Z</time>
      </trkpt>
      <trkpt lat="38.6432950" lon="-0.6939550">
        <ele>1080.4</ele>
        <time>2019-05-12T14:30:59Z</time>
      </trkpt>
      <trkpt lat="38.6433190" lon="-0.6938880">
        <ele>1081.0</ele>
        <time>2019-05-12T14:31:01Z</time>
      </trkpt>
      <trkpt lat="38.6433610" lon="-0.6937220">
        <ele>1081.8</ele>
        <time>2019-05-12T14:31:06Z</time>
      </trkpt>
      <trkpt lat="38.6433640" lon="-0.6936850">
        <ele>1082.2</ele>
        <time>2019-05-12T14:31:07Z</time>
      </trkpt>
      <trkpt lat="38.6434000" lon="-0.6935500">
        <ele>1083.2</ele>
        <time>2019-05-12T14:31:12Z</time>
      </trkpt>
      <trkpt lat="38.6434520" lon="-0.6933970">
        <ele>1084.4</ele>
        <time>2019-05-12T14:31:19Z</time>
      </trkpt>
      <trkpt lat="38.6434610" lon="-0.6933710">
        <ele>1084.6</ele>
        <time>2019-05-12T14:31:20Z</time>
      </trkpt>
      <trkpt lat="38.6435170" lon="-0.6932310">
        <ele>1085.4</ele>
        <time>2019-05-12T14:31:26Z</time>
      </trkpt>
      <trkpt lat="38.6435470" lon="-0.6931590">
        <ele>1085.8</ele>
        <time>2019-05-12T14:31:29Z</time>
      </trkpt>
      <trkpt lat="38.6435980" lon="-0.6930290">
        <ele>1086.4</ele>
        <time>2019-05-12T14:31:34Z</time>
      </trkpt>
      <trkpt lat="38.6436240" lon="-0.6929210">
        <ele>1086.8</ele>
        <time>2019-05-12T14:31:38Z</time>
      </trkpt>
      <trkpt lat="38.6436430" lon="-0.6928400">
        <ele>1087.6</ele>
        <time>2019-05-12T14:31:41Z</time>
      </trkpt>
      <trkpt lat="38.6436610" lon="-0.6927500">
        <ele>1088.4</ele>
        <time>2019-05-12T14:31:45Z</time>
      </trkpt>
      <trkpt lat="38.6436690" lon="-0.6927020">
        <ele>1088.6</ele>
        <time>2019-05-12T14:31:47Z</time>
      </trkpt>
      <trkpt lat="38.6436900" lon="-0.6926080">
        <ele>1089.6</ele>
        <time>2019-05-12T14:31:51Z</time>
      </trkpt>
      <trkpt lat="38.6437100" lon="-0.6925400">
        <ele>1090.2</ele>
        <time>2019-05-12T14:31:54Z</time>
      </trkpt>
      <trkpt lat="38.6437250" lon="-0.6924730">
        <ele>1090.6</ele>
        <time>2019-05-12T14:31:57Z</time>
      </trkpt>
      <trkpt lat="38.6437610" lon="-0.6923660">
        <ele>1091.8</ele>
        <time>2019-05-12T14:32:02Z</time>
      </trkpt>
      <trkpt lat="38.6437910" lon="-0.6922740">
        <ele>1092.8</ele>
        <time>2019-05-12T14:32:06Z</time>
      </trkpt>
      <trkpt lat="38.6438220" lon="-0.6922090">
        <ele>1093.6</ele>
        <time>2019-05-12T14:32:09Z</time>
      </trkpt>
      <trkpt lat="38.6438520" lon="-0.6921670">
        <ele>1094.0</ele>
        <time>2019-05-12T14:32:11Z</time>
      </trkpt>
      <trkpt lat="38.6439220" lon="-0.6920240">
        <ele>1094.2</ele>
        <time>2019-05-12T14:32:17Z</time>
      </trkpt>
      <trkpt lat="38.6439420" lon="-0.6919430">
        <ele>1094.6</ele>
        <time>2019-05-12T14:32:20Z</time>
      </trkpt>
      <trkpt lat="38.6439860" lon="-0.6918430">
        <ele>1095.2</ele>
        <time>2019-05-12T14:32:24Z</time>
      </trkpt>
      <trkpt lat="38.6440590" lon="-0.6917380">
        <ele>1096.2</ele>
        <time>2019-05-12T14:32:29Z</time>
      </trkpt>
      <trkpt lat="38.6440870" lon="-0.6917230">
        <ele>1096.4</ele>
        <time>2019-05-12T14:32:30Z</time>
      </trkpt>
      <trkpt lat="38.6441350" lon="-0.6916560">
        <ele>1096.8</ele>
        <time>2019-05-12T14:32:33Z</time>
      </trkpt>
      <trkpt lat="38.6441660" lon="-0.6915790">
        <ele>1097.4</ele>
        <time>2019-05-12T14:32:36Z</time>
      </trkpt>
      <trkpt lat="38.6441980" lon="-0.6914950">
        <ele>1098.0</ele>
        <time>2019-05-12T14:32:39Z</time>
      </trkpt>
      <trkpt lat="38.6442110" lon="-0.6914390">
        <ele>1098.6</ele>
        <time>2019-05-12T14:32:41Z</time>
      </trkpt>
      <trkpt lat="38.6442550" lon="-0.6913460">
        <ele>1099.2</ele>
        <time>2019-05-12T14:32:45Z</time>
      </trkpt>
      <trkpt lat="38.6442770" lon="-0.6913020">
        <ele>1099.8</ele>
        <time>2019-05-12T14:32:47Z</time>
      </trkpt>
      <trkpt lat="38.6443490" lon="-0.6911700">
        <ele>1100.8</ele>
        <time>2019-05-12T14:32:53Z</time>
      </trkpt>
      <trkpt lat="38.6443640" lon="-0.6911480">
        <ele>1101.2</ele>
        <time>2019-05-12T14:32:54Z</time>
      </trkpt>
      <trkpt lat="38.6444260" lon="-0.6910750">
        <ele>1102.0</ele>
        <time>2019-05-12T14:32:58Z</time>
      </trkpt>
      <trkpt lat="38.6444480" lon="-0.6910190">
        <ele>1102.4</ele>
        <time>2019-05-12T14:33:00Z</time>
      </trkpt>
      <trkpt lat="38.6444720" lon="-0.6909730">
        <ele>1103.0</ele>
        <time>2019-05-12T14:33:02Z</time>
      </trkpt>
      <trkpt lat="38.6445260" lon="-0.6908160">
        <ele>1104.0</ele>
        <time>2019-05-12T14:33:08Z</time>
      </trkpt>
      <trkpt lat="38.6445600" lon="-0.6906410">
        <ele>1105.2</ele>
        <time>2019-05-12T14:33:14Z</time>
      </trkpt>
      <trkpt lat="38.6445780" lon="-0.6905870">
        <ele>1105.6</ele>
        <time>2019-05-12T14:33:16Z</time>
      </trkpt>
      <trkpt lat="38.6446460" lon="-0.6904260">
        <ele>1106.0</ele>
        <time>2019-05-12T14:33:23Z</time>
      </trkpt>
      <trkpt lat="38.6447630" lon="-0.6903410">
        <ele>1106.0</ele>
        <time>2019-05-12T14:33:30Z</time>
      </trkpt>
      <trkpt lat="38.6448680" lon="-0.6902240">
        <ele>1105.2</ele>
        <time>2019-05-12T14:33:35Z</time>
      </trkpt>
      <trkpt lat="38.6450010" lon="-0.6900590">
        <ele>1104.6</ele>
        <time>2019-05-12T14:33:40Z</time>
      </trkpt>
      <trkpt lat="38.6450290" lon="-0.6900140">
        <ele>1104.4</ele>
        <time>2019-05-12T14:33:41Z</time>
      </trkpt>
      <trkpt lat="38.6450680" lon="-0.6899010">
        <ele>1104.0</ele>
        <time>2019-05-12T14:33:43Z</time>
      </trkpt>
      <trkpt lat="38.6450690" lon="-0.6898300">
        <ele>1104.0</ele>
        <time>2019-05-12T14:33:44Z</time>
      </trkpt>
      <trkpt lat="38.6450790" lon="-0.6897620">
        <ele>1103.8</ele>
        <time>2019-05-12T14:33:45Z</time>
      </trkpt>
      <trkpt lat="38.6450960" lon="-0.6896020">
        <ele>1103.0</ele>
        <time>2019-05-12T14:33:47Z</time>
      </trkpt>
      <trkpt lat="38.6451210" lon="-0.6894210">
        <ele>1102.4</ele>
        <time>2019-05-12T14:33:49Z</time>
      </trkpt>
      <trkpt lat="38.6451510" lon="-0.6893290">
        <ele>1101.8</ele>
        <time>2019-05-12T14:33:50Z</time>
      </trkpt>
      <trkpt lat="38.6451840" lon="-0.6891270">
        <ele>1100.2</ele>
        <time>2019-05-12T14:33:52Z</time>
      </trkpt>
      <trkpt lat="38.6452170" lon="-0.6889060">
        <ele>1099.2</ele>
        <time>2019-05-12T14:33:54Z</time>
      </trkpt>
      <trkpt lat="38.6452330" lon="-0.6887910">
        <ele>1098.0</ele>
        <time>2019-05-12T14:33:55Z</time>
      </trkpt>
      <trkpt lat="38.6452520" lon="-0.6886750">
        <ele>1097.0</ele>
        <time>2019-05-12T14:33:56Z</time>
      </trkpt>
      <trkpt lat="38.6452710" lon="-0.6885480">
        <ele>1095.8</ele>
        <time>2019-05-12T14:33:57Z</time>
      </trkpt>
      <trkpt lat="38.6452800" lon="-0.6884190">
        <ele>1094.4</ele>
        <time>2019-05-12T14:33:58Z</time>
      </trkpt>
      <trkpt lat="38.6452970" lon="-0.6882890">
        <ele>1093.2</ele>
        <time>2019-05-12T14:33:59Z</time>
      </trkpt>
      <trkpt lat="38.6453180" lon="-0.6881610">
        <ele>1092.0</ele>
        <time>2019-05-12T14:34:00Z</time>
      </trkpt>
      <trkpt lat="38.6453360" lon="-0.6880310">
        <ele>1091.0</ele>
        <time>2019-05-12T14:34:01Z</time>
      </trkpt>
      <trkpt lat="38.6453500" lon="-0.6878970">
        <ele>1089.6</ele>
        <time>2019-05-12T14:34:02Z</time>
      </trkpt>
      <trkpt lat="38.6453550" lon="-0.6877690">
        <ele>1088.2</ele>
        <time>2019-05-12T14:34:03Z</time>
      </trkpt>
      <trkpt lat="38.6453550" lon="-0.6876580">
        <ele>1087.2</ele>
        <time>2019-05-12T14:34:04Z</time>
      </trkpt>
      <trkpt lat="38.6453400" lon="-0.6875500">
        <ele>1087.0</ele>
        <time>2019-05-12T14:34:05Z</time>
      </trkpt>
      <trkpt lat="38.6452540" lon="-0.6873630">
        <ele>1087.2</ele>
        <time>2019-05-12T14:34:07Z</time>
      </trkpt>
      <trkpt lat="38.6451510" lon="-0.6872270">
        <ele>1087.2</ele>
        <time>2019-05-12T14:34:09Z</time>
      </trkpt>
      <trkpt lat="38.6451150" lon="-0.6871600">
        <ele>1088.2</ele>
        <time>2019-05-12T14:34:10Z</time>
      </trkpt>
      <trkpt lat="38.6450910" lon="-0.6870900">
        <ele>1088.8</ele>
        <time>2019-05-12T14:34:11Z</time>
      </trkpt>
      <trkpt lat="38.6450800" lon="-0.6870200">
        <ele>1089.4</ele>
        <time>2019-05-12T14:34:12Z</time>
      </trkpt>
      <trkpt lat="38.6450740" lon="-0.6869430">
        <ele>1089.8</ele>
        <time>2019-05-12T14:34:13Z</time>
      </trkpt>
      <trkpt lat="38.6450460" lon="-0.6866970">
        <ele>1088.2</ele>
        <time>2019-05-12T14:34:16Z</time>
      </trkpt>
      <trkpt lat="38.6450310" lon="-0.6865680">
        <ele>1086.8</ele>
        <time>2019-05-12T14:34:18Z</time>
      </trkpt>
      <trkpt lat="38.6450250" lon="-0.6864340">
        <ele>1084.8</ele>
        <time>2019-05-12T14:34:20Z</time>
      </trkpt>
      <trkpt lat="38.6450230" lon="-0.6863040">
        <ele>1083.8</ele>
        <time>2019-05-12T14:34:22Z</time>
      </trkpt>
      <trkpt lat="38.6450290" lon="-0.6861390">
        <ele>1082.0</ele>
        <time>2019-05-12T14:34:24Z</time>
      </trkpt>
      <trkpt lat="38.6450430" lon="-0.6859530">
        <ele>1080.4</ele>
        <time>2019-05-12T14:34:26Z</time>
      </trkpt>
      <trkpt lat="38.6450570" lon="-0.6857160">
        <ele>1078.0</ele>
        <time>2019-05-12T14:34:28Z</time>
      </trkpt>
      <trkpt lat="38.6450530" lon="-0.6855860">
        <ele>1076.4</ele>
        <time>2019-05-12T14:34:29Z</time>
      </trkpt>
      <trkpt lat="38.6450460" lon="-0.6854570">
        <ele>1074.8</ele>
        <time>2019-05-12T14:34:30Z</time>
      </trkpt>
      <trkpt lat="38.6450330" lon="-0.6853260">
        <ele>1073.6</ele>
        <time>2019-05-12T14:34:31Z</time>
      </trkpt>
      <trkpt lat="38.6450120" lon="-0.6851970">
        <ele>1072.6</ele>
        <time>2019-05-12T14:34:32Z</time>
      </trkpt>
      <trkpt lat="38.6450020" lon="-0.6850830">
        <ele>1071.2</ele>
        <time>2019-05-12T14:34:33Z</time>
      </trkpt>
      <trkpt lat="38.6450000" lon="-0.6849720">
        <ele>1070.2</ele>
        <time>2019-05-12T14:34:34Z</time>
      </trkpt>
      <trkpt lat="38.6449890" lon="-0.6847660">
        <ele>1068.8</ele>
        <time>2019-05-12T14:34:36Z</time>
      </trkpt>
      <trkpt lat="38.6449520" lon="-0.6846560">
        <ele>1068.2</ele>
        <time>2019-05-12T14:34:37Z</time>
      </trkpt>
      <trkpt lat="38.6448970" lon="-0.6845500">
        <ele>1067.2</ele>
        <time>2019-05-12T14:34:38Z</time>
      </trkpt>
      <trkpt lat="38.6448340" lon="-0.6844450">
        <ele>1066.2</ele>
        <time>2019-05-12T14:34:39Z</time>
      </trkpt>
      <trkpt lat="38.6447670" lon="-0.6843330">
        <ele>1064.8</ele>
        <time>2019-05-12T14:34:40Z</time>
      </trkpt>
      <trkpt lat="38.6447120" lon="-0.6842300">
        <ele>1063.4</ele>
        <time>2019-05-12T14:34:41Z</time>
      </trkpt>
      <trkpt lat="38.6446610" lon="-0.6841020">
        <ele>1062.4</ele>
        <time>2019-05-12T14:34:42Z</time>
      </trkpt>
      <trkpt lat="38.6446140" lon="-0.6839900">
        <ele>1061.2</ele>
        <time>2019-05-12T14:34:43Z</time>
      </trkpt>
      <trkpt lat="38.6445200" lon="-0.6837490">
        <ele>1058.8</ele>
        <time>2019-05-12T14:34:45Z</time>
      </trkpt>
      <trkpt lat="38.6444600" lon="-0.6835030">
        <ele>1057.4</ele>
        <time>2019-05-12T14:34:47Z</time>
      </trkpt>
      <trkpt lat="38.6444450" lon="-0.6832360">
        <ele>1056.4</ele>
        <time>2019-05-12T14:34:49Z</time>
      </trkpt>
      <trkpt lat="38.6444440" lon="-0.6829570">
        <ele>1054.8</ele>
        <time>2019-05-12T14:34:51Z</time>
      </trkpt>
      <trkpt lat="38.6444270" lon="-0.6827260">
        <ele>1054.0</ele>
        <time>2019-05-12T14:34:53Z</time>
      </trkpt>
      <trkpt lat="38.6444360" lon="-0.6824960">
        <ele>1054.4</ele>
        <time>2019-05-12T14:34:56Z</time>
      </trkpt>
      <trkpt lat="38.6445210" lon="-0.6824070">
        <ele>1053.2</ele>
        <time>2019-05-12T14:34:58Z</time>
      </trkpt>
      <trkpt lat="38.6445980" lon="-0.6823780">
        <ele>1051.8</ele>
        <time>2019-05-12T14:34:59Z</time>
      </trkpt>
      <trkpt lat="38.6446800" lon="-0.6823680">
        <ele>1050.6</ele>
        <time>2019-05-12T14:35:00Z</time>
      </trkpt>
      <trkpt lat="38.6447670" lon="-0.6823540">
        <ele>1049.2</ele>
        <time>2019-05-12T14:35:01Z</time>
      </trkpt>
      <trkpt lat="38.6448180" lon="-0.6823370">
        <ele>1048.4</ele>
        <time>2019-05-12T14:35:02Z</time>
      </trkpt>
      <trkpt lat="38.6448630" lon="-0.6823150">
        <ele>1048.0</ele>
        <time>2019-05-12T14:35:03Z</time>
      </trkpt>
      <trkpt lat="38.6448860" lon="-0.6822530">
        <ele>1048.0</ele>
        <time>2019-05-12T14:35:04Z</time>
      </trkpt>
      <trkpt lat="38.6449080" lon="-0.6822030">
        <ele>1048.2</ele>
        <time>2019-05-12T14:35:05Z</time>
      </trkpt>
      <trkpt lat="38.6449380" lon="-0.6821480">
        <ele>1048.2</ele>
        <time>2019-05-12T14:35:06Z</time>
      </trkpt>
      <trkpt lat="38.6450080" lon="-0.6820510">
        <ele>1047.4</ele>
        <time>2019-05-12T14:35:08Z</time>
      </trkpt>
      <trkpt lat="38.6450800" lon="-0.6819710">
        <ele>1047.4</ele>
        <time>2019-05-12T14:35:10Z</time>
      </trkpt>
      <trkpt lat="38.6452120" lon="-0.6818930">
        <ele>1048.2</ele>
        <time>2019-05-12T14:35:14Z</time>
      </trkpt>
      <trkpt lat="38.6452410" lon="-0.6818890">
        <ele>1048.2</ele>
        <time>2019-05-12T14:35:15Z</time>
      </trkpt>
      <trkpt lat="38.6452700" lon="-0.6819360">
        <ele>1047.8</ele>
        <time>2019-05-12T14:35:16Z</time>
      </trkpt>
      <trkpt lat="38.6452930" lon="-0.6819830">
        <ele>1047.2</ele>
        <time>2019-05-12T14:35:17Z</time>
      </trkpt>
      <trkpt lat="38.6452980" lon="-0.6820910">
        <ele>1046.4</ele>
        <time>2019-05-12T14:35:18Z</time>
      </trkpt>
      <trkpt lat="38.6453080" lon="-0.6821740">
        <ele>1045.4</ele>
        <time>2019-05-12T14:35:19Z</time>
      </trkpt>
      <trkpt lat="38.6453150" lon="-0.6822860">
        <ele>1044.4</ele>
        <time>2019-05-12T14:35:20Z</time>
      </trkpt>
      <trkpt lat="38.6453260" lon="-0.6823870">
        <ele>1043.0</ele>
        <time>2019-05-12T14:35:21Z</time>
      </trkpt>
      <trkpt lat="38.6453370" lon="-0.6825110">
        <ele>1041.8</ele>
        <time>2019-05-12T14:35:22Z</time>
      </trkpt>
      <trkpt lat="38.6453480" lon="-0.6826250">
        <ele>1040.4</ele>
        <time>2019-05-12T14:35:23Z</time>
      </trkpt>
      <trkpt lat="38.6453540" lon="-0.6827550">
        <ele>1039.0</ele>
        <time>2019-05-12T14:35:24Z</time>
      </trkpt>
      <trkpt lat="38.6453620" lon="-0.6828690">
        <ele>1037.6</ele>
        <time>2019-05-12T14:35:25Z</time>
      </trkpt>
      <trkpt lat="38.6453580" lon="-0.6829990">
        <ele>1036.4</ele>
        <time>2019-05-12T14:35:26Z</time>
      </trkpt>
      <trkpt lat="38.6453610" lon="-0.6832370">
        <ele>1035.4</ele>
        <time>2019-05-12T14:35:28Z</time>
      </trkpt>
      <trkpt lat="38.6453910" lon="-0.6834650">
        <ele>1035.0</ele>
        <time>2019-05-12T14:35:30Z</time>
      </trkpt>
      <trkpt lat="38.6454490" lon="-0.6836800">
        <ele>1034.0</ele>
        <time>2019-05-12T14:35:32Z</time>
      </trkpt>
      <trkpt lat="38.6454920" lon="-0.6837860">
        <ele>1033.2</ele>
        <time>2019-05-12T14:35:33Z</time>
      </trkpt>
      <trkpt lat="38.6455300" lon="-0.6838840">
        <ele>1032.6</ele>
        <time>2019-05-12T14:35:34Z</time>
      </trkpt>
      <trkpt lat="38.6455970" lon="-0.6840670">
        <ele>1032.4</ele>
        <time>2019-05-12T14:35:36Z</time>
      </trkpt>
      <trkpt lat="38.6456430" lon="-0.6841920">
        <ele>1032.4</ele>
        <time>2019-05-12T14:35:38Z</time>
      </trkpt>
      <trkpt lat="38.6457180" lon="-0.6842860">
        <ele>1031.6</ele>
        <time>2019-05-12T14:35:40Z</time>
      </trkpt>
      <trkpt lat="38.6457690" lon="-0.6843260">
        <ele>1030.4</ele>
        <time>2019-05-12T14:35:41Z</time>
      </trkpt>
      <trkpt lat="38.6458280" lon="-0.6843820">
        <ele>1029.0</ele>
        <time>2019-05-12T14:35:42Z</time>
      </trkpt>
      <trkpt lat="38.6458810" lon="-0.6844380">
        <ele>1027.6</ele>
        <time>2019-05-12T14:35:43Z</time>
      </trkpt>
      <trkpt lat="38.6459670" lon="-0.6844770">
        <ele>1026.4</ele>
        <time>2019-05-12T14:35:44Z</time>
      </trkpt>
      <trkpt lat="38.6460430" lon="-0.6845010">
        <ele>1024.4</ele>
        <time>2019-05-12T14:35:45Z</time>
      </trkpt>
      <trkpt lat="38.6461260" lon="-0.6844910">
        <ele>1022.6</ele>
        <time>2019-05-12T14:35:46Z</time>
      </trkpt>
      <trkpt lat="38.6461990" lon="-0.6844920">
        <ele>1021.6</ele>
        <time>2019-05-12T14:35:47Z</time>
      </trkpt>
      <trkpt lat="38.6462740" lon="-0.6844730">
        <ele>1021.4</ele>
        <time>2019-05-12T14:35:48Z</time>
      </trkpt>
      <trkpt lat="38.6464090" lon="-0.6844240">
        <ele>1021.6</ele>
        <time>2019-05-12T14:35:50Z</time>
      </trkpt>
      <trkpt lat="38.6465220" lon="-0.6843180">
        <ele>1021.6</ele>
        <time>2019-05-12T14:35:52Z</time>
      </trkpt>
      <trkpt lat="38.6466290" lon="-0.6842230">
        <ele>1021.8</ele>
        <time>2019-05-12T14:35:54Z</time>
      </trkpt>
      <trkpt lat="38.6467410" lon="-0.6842050">
        <ele>1021.4</ele>
        <time>2019-05-12T14:35:56Z</time>
      </trkpt>
      <trkpt lat="38.6470340" lon="-0.6842900">
        <ele>1021.2</ele>
        <time>2019-05-12T14:36:01Z</time>
      </trkpt>
      <trkpt lat="38.6471420" lon="-0.6843200">
        <ele>1021.4</ele>
        <time>2019-05-12T14:36:03Z</time>
      </trkpt>
      <trkpt lat="38.6472420" lon="-0.6843640">
        <ele>1021.4</ele>
        <time>2019-05-12T14:36:05Z</time>
      </trkpt>
      <trkpt lat="38.6472860" lon="-0.6843900">
        <ele>1021.4</ele>
        <time>2019-05-12T14:36:06Z</time>
      </trkpt>
      <trkpt lat="38.6475140" lon="-0.6845230">
        <ele>1022.4</ele>
        <time>2019-05-12T14:36:11Z</time>
      </trkpt>
      <trkpt lat="38.6475980" lon="-0.6845560">
        <ele>1022.4</ele>
        <time>2019-05-12T14:36:13Z</time>
      </trkpt>
      <trkpt lat="38.6477610" lon="-0.6846140">
        <ele>1022.6</ele>
        <time>2019-05-12T14:36:17Z</time>
      </trkpt>
      <trkpt lat="38.6478860" lon="-0.6846560">
        <ele>1022.4</ele>
        <time>2019-05-12T14:36:20Z</time>
      </trkpt>
      <trkpt lat="38.6479960" lon="-0.6847040">
        <ele>1022.4</ele>
        <time>2019-05-12T14:36:23Z</time>
      </trkpt>
      <trkpt lat="38.6481120" lon="-0.6847940">
        <ele>1021.6</ele>
        <time>2019-05-12T14:36:26Z</time>
      </trkpt>
      <trkpt lat="38.6482250" lon="-0.6848690">
        <ele>1021.0</ele>
        <time>2019-05-12T14:36:29Z</time>
      </trkpt>
      <trkpt lat="38.6482630" lon="-0.6848690">
        <ele>1020.8</ele>
        <time>2019-05-12T14:36:30Z</time>
      </trkpt>
      <trkpt lat="38.6482950" lon="-0.6848510">
        <ele>1020.4</ele>
        <time>2019-05-12T14:36:31Z</time>
      </trkpt>
      <trkpt lat="38.6483420" lon="-0.6847840">
        <ele>1020.6</ele>
        <time>2019-05-12T14:36:33Z</time>
      </trkpt>
      <trkpt lat="38.6483770" lon="-0.6846640">
        <ele>1021.0</ele>
        <time>2019-05-12T14:36:36Z</time>
      </trkpt>
      <trkpt lat="38.6484000" lon="-0.6845850">
        <ele>1021.6</ele>
        <time>2019-05-12T14:36:38Z</time>
      </trkpt>
      <trkpt lat="38.6484010" lon="-0.6844870">
        <ele>1021.6</ele>
        <time>2019-05-12T14:36:40Z</time>
      </trkpt>
      <trkpt lat="38.6483560" lon="-0.6843580">
        <ele>1020.8</ele>
        <time>2019-05-12T14:36:42Z</time>
      </trkpt>
      <trkpt lat="38.6483170" lon="-0.6842910">
        <ele>1019.8</ele>
        <time>2019-05-12T14:36:43Z</time>
      </trkpt>
      <trkpt lat="38.6482710" lon="-0.6842140">
        <ele>1019.0</ele>
        <time>2019-05-12T14:36:44Z</time>
      </trkpt>
      <trkpt lat="38.6482220" lon="-0.6841400">
        <ele>1017.8</ele>
        <time>2019-05-12T14:36:45Z</time>
      </trkpt>
      <trkpt lat="38.6481790" lon="-0.6840670">
        <ele>1016.8</ele>
        <time>2019-05-12T14:36:46Z</time>
      </trkpt>
      <trkpt lat="38.6481400" lon="-0.6839980">
        <ele>1015.8</ele>
        <time>2019-05-12T14:36:47Z</time>
      </trkpt>
      <trkpt lat="38.6481100" lon="-0.6839350">
        <ele>1014.2</ele>
        <time>2019-05-12T14:36:48Z</time>
      </trkpt>
      <trkpt lat="38.6480940" lon="-0.6838090">
        <ele>1013.6</ele>
        <time>2019-05-12T14:36:50Z</time>
      </trkpt>
      <trkpt lat="38.6481470" lon="-0.6836880">
        <ele>1012.6</ele>
        <time>2019-05-12T14:36:52Z</time>
      </trkpt>
      <trkpt lat="38.6481880" lon="-0.6836330">
        <ele>1012.0</ele>
        <time>2019-05-12T14:36:53Z</time>
      </trkpt>
      <trkpt lat="38.6482320" lon="-0.6835710">
        <ele>1011.6</ele>
        <time>2019-05-12T14:36:54Z</time>
      </trkpt>
      <trkpt lat="38.6484140" lon="-0.6832840">
        <ele>1010.4</ele>
        <time>2019-05-12T14:36:58Z</time>
      </trkpt>
      <trkpt lat="38.6485340" lon="-0.6831510">
        <ele>1009.2</ele>
        <time>2019-05-12T14:37:00Z</time>
      </trkpt>
      <trkpt lat="38.6486480" lon="-0.6830440">
        <ele>1008.0</ele>
        <time>2019-05-12T14:37:02Z</time>
      </trkpt>
      <trkpt lat="38.6488330" lon="-0.6830020">
        <ele>1007.4</ele>
        <time>2019-05-12T14:37:05Z</time>
      </trkpt>
      <trkpt lat="38.6489370" lon="-0.6829330">
        <ele>1007.0</ele>
        <time>2019-05-12T14:37:07Z</time>
      </trkpt>
      <trkpt lat="38.6489580" lon="-0.6828730">
        <ele>1006.6</ele>
        <time>2019-05-12T14:37:08Z</time>
      </trkpt>
      <trkpt lat="38.6489590" lon="-0.6827430">
        <ele>1006.0</ele>
        <time>2019-05-12T14:37:10Z</time>
      </trkpt>
      <trkpt lat="38.6489510" lon="-0.6826710">
        <ele>1005.6</ele>
        <time>2019-05-12T14:37:11Z</time>
      </trkpt>
      <trkpt lat="38.6489550" lon="-0.6825920">
        <ele>1005.6</ele>
        <time>2019-05-12T14:37:12Z</time>
      </trkpt>
      <trkpt lat="38.6490040" lon="-0.6824050">
        <ele>1004.4</ele>
        <time>2019-05-12T14:37:14Z</time>
      </trkpt>
      <trkpt lat="38.6490100" lon="-0.6821930">
        <ele>1002.8</ele>
        <time>2019-05-12T14:37:16Z</time>
      </trkpt>
      <trkpt lat="38.6490090" lon="-0.6820960">
        <ele>1002.6</ele>
        <time>2019-05-12T14:37:17Z</time>
      </trkpt>
      <trkpt lat="38.6490110" lon="-0.6819000">
        <ele>1002.4</ele>
        <time>2019-05-12T14:37:19Z</time>
      </trkpt>
      <trkpt lat="38.6489940" lon="-0.6818050">
        <ele>1002.2</ele>
        <time>2019-05-12T14:37:20Z</time>
      </trkpt>
      <trkpt lat="38.6489660" lon="-0.6817190">
        <ele>1001.8</ele>
        <time>2019-05-12T14:37:21Z</time>
      </trkpt>
      <trkpt lat="38.6489350" lon="-0.6816400">
        <ele>1001.6</ele>
        <time>2019-05-12T14:37:22Z</time>
      </trkpt>
      <trkpt lat="38.6489070" lon="-0.6815520">
        <ele>1001.4</ele>
        <time>2019-05-12T14:37:23Z</time>
      </trkpt>
      <trkpt lat="38.6488830" lon="-0.6813690">
        <ele>1000.8</ele>
        <time>2019-05-12T14:37:25Z</time>
      </trkpt>
      <trkpt lat="38.6488840" lon="-0.6812960">
        <ele>1000.2</ele>
        <time>2019-05-12T14:37:26Z</time>
      </trkpt>
      <trkpt lat="38.6488890" lon="-0.6812390">
        <ele>1000.0</ele>
        <time>2019-05-12T14:37:27Z</time>
      </trkpt>
      <trkpt lat="38.6489260" lon="-0.6810950">
        <ele>1000.8</ele>
        <time>2019-05-12T14:37:31Z</time>
      </trkpt>
      <trkpt lat="38.6490050" lon="-0.6808920">
        <ele>1000.2</ele>
        <time>2019-05-12T14:37:36Z</time>
      </trkpt>
      <trkpt lat="38.6490560" lon="-0.6807780">
        <ele>999.6</ele>
        <time>2019-05-12T14:37:38Z</time>
      </trkpt>
      <trkpt lat="38.6491270" lon="-0.6805870">
        <ele>999.6</ele>
        <time>2019-05-12T14:37:41Z</time>
      </trkpt>
      <trkpt lat="38.6491980" lon="-0.6803980">
        <ele>998.8</ele>
        <time>2019-05-12T14:37:44Z</time>
      </trkpt>
      <trkpt lat="38.6492920" lon="-0.6801710">
        <ele>998.4</ele>
        <time>2019-05-12T14:37:48Z</time>
      </trkpt>
      <trkpt lat="38.6493250" lon="-0.6800470">
        <ele>997.6</ele>
        <time>2019-05-12T14:37:50Z</time>
      </trkpt>
      <trkpt lat="38.6493430" lon="-0.6798590">
        <ele>997.6</ele>
        <time>2019-05-12T14:37:53Z</time>
      </trkpt>
      <trkpt lat="38.6494340" lon="-0.6796030">
        <ele>997.2</ele>
        <time>2019-05-12T14:37:57Z</time>
      </trkpt>
      <trkpt lat="38.6494770" lon="-0.6795440">
        <ele>996.4</ele>
        <time>2019-05-12T14:37:58Z</time>
      </trkpt>
      <trkpt lat="38.6495670" lon="-0.6794280">
        <ele>995.4</ele>
        <time>2019-05-12T14:38:00Z</time>
      </trkpt>
      <trkpt lat="38.6496850" lon="-0.6792500">
        <ele>995.4</ele>
        <time>2019-05-12T14:38:03Z</time>
      </trkpt>
      <trkpt lat="38.6497690" lon="-0.6791260">
        <ele>994.8</ele>
        <time>2019-05-12T14:38:05Z</time>
      </trkpt>
      <trkpt lat="38.6498710" lon="-0.6790260">
        <ele>994.2</ele>
        <time>2019-05-12T14:38:07Z</time>
      </trkpt>
      <trkpt lat="38.6499310" lon="-0.6789780">
        <ele>993.4</ele>
        <time>2019-05-12T14:38:08Z</time>
      </trkpt>
      <trkpt lat="38.6499890" lon="-0.6789270">
        <ele>993.0</ele>
        <time>2019-05-12T14:38:09Z</time>
      </trkpt>
      <trkpt lat="38.6500880" lon="-0.6787810">
        <ele>991.6</ele>
        <time>2019-05-12T14:38:11Z</time>
      </trkpt>
      <trkpt lat="38.6501510" lon="-0.6785900">
        <ele>990.8</ele>
        <time>2019-05-12T14:38:13Z</time>
      </trkpt>
      <trkpt lat="38.6501820" lon="-0.6784870">
        <ele>990.4</ele>
        <time>2019-05-12T14:38:14Z</time>
      </trkpt>
      <trkpt lat="38.6502150" lon="-0.6783760">
        <ele>989.8</ele>
        <time>2019-05-12T14:38:15Z</time>
      </trkpt>
      <trkpt lat="38.6502470" lon="-0.6782670">
        <ele>989.2</ele>
        <time>2019-05-12T14:38:16Z</time>
      </trkpt>
      <trkpt lat="38.6503210" lon="-0.6780430">
        <ele>987.8</ele>
        <time>2019-05-12T14:38:18Z</time>
      </trkpt>
      <trkpt lat="38.6503980" lon="-0.6778170">
        <ele>987.2</ele>
        <time>2019-05-12T14:38:20Z</time>
      </trkpt>
      <trkpt lat="38.6504440" lon="-0.6777120">
        <ele>987.0</ele>
        <time>2019-05-12T14:38:21Z</time>
      </trkpt>
      <trkpt lat="38.6504970" lon="-0.6776020">
        <ele>986.6</ele>
        <time>2019-05-12T14:38:22Z</time>
      </trkpt>
      <trkpt lat="38.6505800" lon="-0.6773820">
        <ele>985.0</ele>
        <time>2019-05-12T14:38:24Z</time>
      </trkpt>
      <trkpt lat="38.6506290" lon="-0.6771810">
        <ele>984.4</ele>
        <time>2019-05-12T14:38:26Z</time>
      </trkpt>
      <trkpt lat="38.6506330" lon="-0.6769810">
        <ele>984.0</ele>
        <time>2019-05-12T14:38:28Z</time>
      </trkpt>
      <trkpt lat="38.6506330" lon="-0.6768680">
        <ele>983.4</ele>
        <time>2019-05-12T14:38:29Z</time>
      </trkpt>
      <trkpt lat="38.6506390" lon="-0.6766390">
        <ele>981.2</ele>
        <time>2019-05-12T14:38:31Z</time>
      </trkpt>
      <trkpt lat="38.6506290" lon="-0.6765300">
        <ele>980.2</ele>
        <time>2019-05-12T14:38:32Z</time>
      </trkpt>
      <trkpt lat="38.6506060" lon="-0.6764290">
        <ele>979.0</ele>
        <time>2019-05-12T14:38:33Z</time>
      </trkpt>
      <trkpt lat="38.6505710" lon="-0.6763360">
        <ele>977.8</ele>
        <time>2019-05-12T14:38:34Z</time>
      </trkpt>
      <trkpt lat="38.6505310" lon="-0.6762600">
        <ele>976.8</ele>
        <time>2019-05-12T14:38:35Z</time>
      </trkpt>
      <trkpt lat="38.6504760" lon="-0.6761890">
        <ele>976.4</ele>
        <time>2019-05-12T14:38:36Z</time>
      </trkpt>
      <trkpt lat="38.6503400" lon="-0.6760860">
        <ele>975.2</ele>
        <time>2019-05-12T14:38:38Z</time>
      </trkpt>
      <trkpt lat="38.6502700" lon="-0.6760360">
        <ele>974.4</ele>
        <time>2019-05-12T14:38:39Z</time>
      </trkpt>
      <trkpt lat="38.6502100" lon="-0.6759880">
        <ele>973.6</ele>
        <time>2019-05-12T14:38:40Z</time>
      </trkpt>
      <trkpt lat="38.6501100" lon="-0.6758770">
        <ele>972.4</ele>
        <time>2019-05-12T14:38:42Z</time>
      </trkpt>
      <trkpt lat="38.6500440" lon="-0.6757380">
        <ele>971.2</ele>
        <time>2019-05-12T14:38:44Z</time>
      </trkpt>
      <trkpt lat="38.6500250" lon="-0.6756560">
        <ele>970.2</ele>
        <time>2019-05-12T14:38:45Z</time>
      </trkpt>
      <trkpt lat="38.6500120" lon="-0.6755580">
        <ele>969.4</ele>
        <time>2019-05-12T14:38:46Z</time>
      </trkpt>
      <trkpt lat="38.6500050" lon="-0.6753370">
        <ele>967.0</ele>
        <time>2019-05-12T14:38:48Z</time>
      </trkpt>
      <trkpt lat="38.6500050" lon="-0.6752180">
        <ele>965.4</ele>
        <time>2019-05-12T14:38:49Z</time>
      </trkpt>
      <trkpt lat="38.6500040" lon="-0.6750880">
        <ele>964.2</ele>
        <time>2019-05-12T14:38:50Z</time>
      </trkpt>
      <trkpt lat="38.6499970" lon="-0.6748200">
        <ele>962.6</ele>
        <time>2019-05-12T14:38:52Z</time>
      </trkpt>
      <trkpt lat="38.6499880" lon="-0.6746810">
        <ele>961.4</ele>
        <time>2019-05-12T14:38:53Z</time>
      </trkpt>
      <trkpt lat="38.6499800" lon="-0.6745300">
        <ele>958.4</ele>
        <time>2019-05-12T14:38:54Z</time>
      </trkpt>
      <trkpt lat="38.6499720" lon="-0.6743840">
        <ele>956.8</ele>
        <time>2019-05-12T14:38:55Z</time>
      </trkpt>
      <trkpt lat="38.6499630" lon="-0.6742330">
        <ele>954.8</ele>
        <time>2019-05-12T14:38:56Z</time>
      </trkpt>
      <trkpt lat="38.6499600" lon="-0.6740970">
        <ele>952.8</ele>
        <time>2019-05-12T14:38:57Z</time>
      </trkpt>
      <trkpt lat="38.6499610" lon="-0.6739640">
        <ele>951.6</ele>
        <time>2019-05-12T14:38:58Z</time>
      </trkpt>
      <trkpt lat="38.6499650" lon="-0.6738450">
        <ele>950.8</ele>
        <time>2019-05-12T14:38:59Z</time>
      </trkpt>
      <trkpt lat="38.6499730" lon="-0.6737320">
        <ele>950.0</ele>
        <time>2019-05-12T14:39:00Z</time>
      </trkpt>
      <trkpt lat="38.6499940" lon="-0.6736330">
        <ele>949.8</ele>
        <time>2019-05-12T14:39:01Z</time>
      </trkpt>
      <trkpt lat="38.6500330" lon="-0.6735340">
        <ele>949.6</ele>
        <time>2019-05-12T14:39:02Z</time>
      </trkpt>
      <trkpt lat="38.6500540" lon="-0.6732470">
        <ele>949.6</ele>
        <time>2019-05-12T14:39:05Z</time>
      </trkpt>
      <trkpt lat="38.6499790" lon="-0.6730840">
        <ele>949.8</ele>
        <time>2019-05-12T14:39:07Z</time>
      </trkpt>
      <trkpt lat="38.6498960" lon="-0.6729290">
        <ele>949.6</ele>
        <time>2019-05-12T14:39:09Z</time>
      </trkpt>
      <trkpt lat="38.6498290" lon="-0.6726530">
        <ele>949.2</ele>
        <time>2019-05-12T14:39:12Z</time>
      </trkpt>
      <trkpt lat="38.6498230" lon="-0.6725460">
        <ele>948.8</ele>
        <time>2019-05-12T14:39:13Z</time>
      </trkpt>
      <trkpt lat="38.6498410" lon="-0.6723430">
        <ele>947.0</ele>
        <time>2019-05-12T14:39:15Z</time>
      </trkpt>
      <trkpt lat="38.6498670" lon="-0.6722420">
        <ele>946.2</ele>
        <time>2019-05-12T14:39:16Z</time>
      </trkpt>
      <trkpt lat="38.6499000" lon="-0.6721390">
        <ele>945.8</ele>
        <time>2019-05-12T14:39:17Z</time>
      </trkpt>
      <trkpt lat="38.6499520" lon="-0.6719250">
        <ele>943.4</ele>
        <time>2019-05-12T14:39:19Z</time>
      </trkpt>
      <trkpt lat="38.6499710" lon="-0.6718340">
        <ele>942.8</ele>
        <time>2019-05-12T14:39:20Z</time>
      </trkpt>
      <trkpt lat="38.6499950" lon="-0.6717530">
        <ele>943.0</ele>
        <time>2019-05-12T14:39:21Z</time>
      </trkpt>
      <trkpt lat="38.6500880" lon="-0.6716030">
        <ele>941.8</ele>
        <time>2019-05-12T14:39:23Z</time>
      </trkpt>
      <trkpt lat="38.6502080" lon="-0.6714570">
        <ele>940.6</ele>
        <time>2019-05-12T14:39:25Z</time>
      </trkpt>
      <trkpt lat="38.6502850" lon="-0.6712690">
        <ele>939.4</ele>
        <time>2019-05-12T14:39:27Z</time>
      </trkpt>
      <trkpt lat="38.6504280" lon="-0.6706950">
        <ele>938.8</ele>
        <time>2019-05-12T14:39:33Z</time>
      </trkpt>
      <trkpt lat="38.6505400" lon="-0.6702660">
        <ele>938.4</ele>
        <time>2019-05-12T14:39:38Z</time>
      </trkpt>
      <trkpt lat="38.6506000" lon="-0.6701110">
        <ele>938.2</ele>
        <time>2019-05-12T14:39:40Z</time>
      </trkpt>
      <trkpt lat="38.6506270" lon="-0.6700330">
        <ele>938.4</ele>
        <time>2019-05-12T14:39:41Z</time>
      </trkpt>
      <trkpt lat="38.6506750" lon="-0.6698030">
        <ele>939.0</ele>
        <time>2019-05-12T14:39:44Z</time>
      </trkpt>
      <trkpt lat="38.6507220" lon="-0.6695090">
        <ele>939.4</ele>
        <time>2019-05-12T14:39:48Z</time>
      </trkpt>
      <trkpt lat="38.6507490" lon="-0.6693760">
        <ele>940.2</ele>
        <time>2019-05-12T14:39:50Z</time>
      </trkpt>
      <trkpt lat="38.6507630" lon="-0.6693120">
        <ele>940.2</ele>
        <time>2019-05-12T14:39:51Z</time>
      </trkpt>
      <trkpt lat="38.6508320" lon="-0.6688920">
        <ele>940.2</ele>
        <time>2019-05-12T14:39:58Z</time>
      </trkpt>
      <trkpt lat="38.6508850" lon="-0.6685680">
        <ele>940.6</ele>
        <time>2019-05-12T14:40:04Z</time>
      </trkpt>
      <trkpt lat="38.6509410" lon="-0.6684080">
        <ele>940.8</ele>
        <time>2019-05-12T14:40:07Z</time>
      </trkpt>
      <trkpt lat="38.6510190" lon="-0.6682490">
        <ele>941.0</ele>
        <time>2019-05-12T14:40:10Z</time>
      </trkpt>
      <trkpt lat="38.6512280" lon="-0.6678740">
        <ele>941.2</ele>
        <time>2019-05-12T14:40:18Z</time>
      </trkpt>
      <trkpt lat="38.6512650" lon="-0.6677780">
        <ele>941.4</ele>
        <time>2019-05-12T14:40:20Z</time>
      </trkpt>
      <trkpt lat="38.6512960" lon="-0.6676760">
        <ele>941.8</ele>
        <time>2019-05-12T14:40:22Z</time>
      </trkpt>
      <trkpt lat="38.6513520" lon="-0.6675370">
        <ele>942.2</ele>
        <time>2019-05-12T14:40:25Z</time>
      </trkpt>
      <trkpt lat="38.6514220" lon="-0.6674260">
        <ele>942.8</ele>
        <time>2019-05-12T14:40:28Z</time>
      </trkpt>
      <trkpt lat="38.6515180" lon="-0.6673770">
        <ele>943.4</ele>
        <time>2019-05-12T14:40:31Z</time>
      </trkpt>
      <trkpt lat="38.6516250" lon="-0.6673250">
        <ele>943.2</ele>
        <time>2019-05-12T14:40:34Z</time>
      </trkpt>
      <trkpt lat="38.6516520" lon="-0.6672790">
        <ele>943.0</ele>
        <time>2019-05-12T14:40:35Z</time>
      </trkpt>
      <trkpt lat="38.6516470" lon="-0.6671090">
        <ele>942.8</ele>
        <time>2019-05-12T14:40:38Z</time>
      </trkpt>
      <trkpt lat="38.6516490" lon="-0.6669200">
        <ele>943.6</ele>
        <time>2019-05-12T14:40:42Z</time>
      </trkpt>
      <trkpt lat="38.6516710" lon="-0.6668880">
        <ele>943.8</ele>
        <time>2019-05-12T14:40:43Z</time>
      </trkpt>
      <trkpt lat="38.6517610" lon="-0.6668250">
        <ele>945.0</ele>
        <time>2019-05-12T14:40:46Z</time>
      </trkpt>
      <trkpt lat="38.6518740" lon="-0.6667550">
        <ele>946.0</ele>
        <time>2019-05-12T14:40:50Z</time>
      </trkpt>
      <trkpt lat="38.6519000" lon="-0.6667390">
        <ele>946.2</ele>
        <time>2019-05-12T14:40:51Z</time>
      </trkpt>
      <trkpt lat="38.6519240" lon="-0.6667220">
        <ele>946.0</ele>
        <time>2019-05-12T14:40:52Z</time>
      </trkpt>
      <trkpt lat="38.6520880" lon="-0.6666020">
        <ele>947.4</ele>
        <time>2019-05-12T14:40:58Z</time>
      </trkpt>
      <trkpt lat="38.6523110" lon="-0.6664120">
        <ele>947.6</ele>
        <time>2019-05-12T14:41:05Z</time>
      </trkpt>
      <trkpt lat="38.6524810" lon="-0.6662660">
        <ele>948.0</ele>
        <time>2019-05-12T14:41:10Z</time>
      </trkpt>
      <trkpt lat="38.6525540" lon="-0.6662110">
        <ele>948.0</ele>
        <time>2019-05-12T14:41:12Z</time>
      </trkpt>
      <trkpt lat="38.6527310" lon="-0.6660230">
        <ele>948.0</ele>
        <time>2019-05-12T14:41:17Z</time>
      </trkpt>
      <trkpt lat="38.6527950" lon="-0.6659300">
        <ele>947.8</ele>
        <time>2019-05-12T14:41:19Z</time>
      </trkpt>
      <trkpt lat="38.6528980" lon="-0.6657960">
        <ele>948.4</ele>
        <time>2019-05-12T14:41:22Z</time>
      </trkpt>
      <trkpt lat="38.6530430" lon="-0.6656400">
        <ele>949.2</ele>
        <time>2019-05-12T14:41:26Z</time>
      </trkpt>
      <trkpt lat="38.6531460" lon="-0.6655340">
        <ele>949.4</ele>
        <time>2019-05-12T14:41:29Z</time>
      </trkpt>
      <trkpt lat="38.6532470" lon="-0.6654290">
        <ele>949.6</ele>
        <time>2019-05-12T14:41:32Z</time>
      </trkpt>
      <trkpt lat="38.6533090" lon="-0.6653520">
        <ele>949.8</ele>
        <time>2019-05-12T14:41:34Z</time>
      </trkpt>
      <trkpt lat="38.6534230" lon="-0.6651910">
        <ele>950.4</ele>
        <time>2019-05-12T14:41:38Z</time>
      </trkpt>
      <trkpt lat="38.6534450" lon="-0.6651460">
        <ele>950.6</ele>
        <time>2019-05-12T14:41:39Z</time>
      </trkpt>
      <trkpt lat="38.6534670" lon="-0.6651020">
        <ele>950.8</ele>
        <time>2019-05-12T14:41:40Z</time>
      </trkpt>
      <trkpt lat="38.6534960" lon="-0.6649590">
        <ele>951.6</ele>
        <time>2019-05-12T14:41:43Z</time>
      </trkpt>
      <trkpt lat="38.6535030" lon="-0.6649120">
        <ele>951.8</ele>
        <time>2019-05-12T14:41:44Z</time>
      </trkpt>
      <trkpt lat="38.6535620" lon="-0.6647500">
        <ele>953.0</ele>
        <time>2019-05-12T14:41:48Z</time>
      </trkpt>
      <trkpt lat="38.6536090" lon="-0.6646890">
        <ele>953.0</ele>
        <time>2019-05-12T14:41:50Z</time>
      </trkpt>
      <trkpt lat="38.6537130" lon="-0.6646140">
        <ele>952.8</ele>
        <time>2019-05-12T14:41:55Z</time>
      </trkpt>
      <trkpt lat="38.6537490" lon="-0.6646040">
        <ele>952.4</ele>
        <time>2019-05-12T14:41:57Z</time>
      </trkpt>
      <trkpt lat="38.6537850" lon="-0.6645940">
        <ele>952.4</ele>
        <time>2019-05-12T14:41:59Z</time>
      </trkpt>
      <trkpt lat="38.6538260" lon="-0.6645700">
        <ele>952.0</ele>
        <time>2019-05-12T14:42:01Z</time>
      </trkpt>
      <trkpt lat="38.6538930" lon="-0.6645320">
        <ele>951.8</ele>
        <time>2019-05-12T14:42:04Z</time>
      </trkpt>
      <trkpt lat="38.6540330" lon="-0.6644330">
        <ele>951.8</ele>
        <time>2019-05-12T14:42:09Z</time>
      </trkpt>
      <trkpt lat="38.6540790" lon="-0.6643490">
        <ele>952.0</ele>
        <time>2019-05-12T14:42:11Z</time>
      </trkpt>
      <trkpt lat="38.6541650" lon="-0.6640990">
        <ele>952.6</ele>
        <time>2019-05-12T14:42:16Z</time>
      </trkpt>
      <trkpt lat="38.6542360" lon="-0.6638500">
        <ele>953.0</ele>
        <time>2019-05-12T14:42:21Z</time>
      </trkpt>
      <trkpt lat="38.6542830" lon="-0.6637060">
        <ele>953.4</ele>
        <time>2019-05-12T14:42:24Z</time>
      </trkpt>
      <trkpt lat="38.6544430" lon="-0.6632920">
        <ele>953.8</ele>
        <time>2019-05-12T14:42:33Z</time>
      </trkpt>
      <trkpt lat="38.6544620" lon="-0.6632440">
        <ele>953.8</ele>
        <time>2019-05-12T14:42:34Z</time>
      </trkpt>
      <trkpt lat="38.6545680" lon="-0.6630050">
        <ele>954.0</ele>
        <time>2019-05-12T14:42:39Z</time>
      </trkpt>
      <trkpt lat="38.6545910" lon="-0.6629570">
        <ele>954.0</ele>
        <time>2019-05-12T14:42:40Z</time>
      </trkpt>
      <trkpt lat="38.6547010" lon="-0.6627400">
        <ele>954.2</ele>
        <time>2019-05-12T14:42:45Z</time>
      </trkpt>
      <trkpt lat="38.6549050" lon="-0.6623500">
        <ele>954.6</ele>
        <time>2019-05-12T14:42:54Z</time>
      </trkpt>
      <trkpt lat="38.6550890" lon="-0.6620550">
        <ele>955.0</ele>
        <time>2019-05-12T14:43:01Z</time>
      </trkpt>
      <trkpt lat="38.6551170" lon="-0.6620160">
        <ele>955.0</ele>
        <time>2019-05-12T14:43:02Z</time>
      </trkpt>
      <trkpt lat="38.6551740" lon="-0.6619390">
        <ele>955.2</ele>
        <time>2019-05-12T14:43:04Z</time>
      </trkpt>
      <trkpt lat="38.6553870" lon="-0.6616590">
        <ele>955.8</ele>
        <time>2019-05-12T14:43:11Z</time>
      </trkpt>
      <trkpt lat="38.6555780" lon="-0.6614160">
        <ele>955.8</ele>
        <time>2019-05-12T14:43:17Z</time>
      </trkpt>
      <trkpt lat="38.6556040" lon="-0.6613700">
        <ele>956.0</ele>
        <time>2019-05-12T14:43:18Z</time>
      </trkpt>
      <trkpt lat="38.6556490" lon="-0.6612740">
        <ele>956.4</ele>
        <time>2019-05-12T14:43:20Z</time>
      </trkpt>
      <trkpt lat="38.6557150" lon="-0.6611360">
        <ele>956.4</ele>
        <time>2019-05-12T14:43:23Z</time>
      </trkpt>
      <trkpt lat="38.6559290" lon="-0.6606860">
        <ele>956.6</ele>
        <time>2019-05-12T14:43:32Z</time>
      </trkpt>
      <trkpt lat="38.6560610" lon="-0.6603610">
        <ele>956.2</ele>
        <time>2019-05-12T14:43:38Z</time>
      </trkpt>
      <trkpt lat="38.6561430" lon="-0.6601470">
        <ele>956.4</ele>
        <time>2019-05-12T14:43:42Z</time>
      </trkpt>
      <trkpt lat="38.6561560" lon="-0.6600280">
        <ele>956.4</ele>
        <time>2019-05-12T14:43:44Z</time>
      </trkpt>
      <trkpt lat="38.6561900" lon="-0.6596440">
        <ele>957.2</ele>
        <time>2019-05-12T14:43:51Z</time>
      </trkpt>
      <trkpt lat="38.6562090" lon="-0.6595460">
        <ele>957.8</ele>
        <time>2019-05-12T14:43:53Z</time>
      </trkpt>
      <trkpt lat="38.6562330" lon="-0.6594520">
        <ele>958.4</ele>
        <time>2019-05-12T14:43:55Z</time>
      </trkpt>
      <trkpt lat="38.6562670" lon="-0.6593720">
        <ele>958.8</ele>
        <time>2019-05-12T14:43:57Z</time>
      </trkpt>
      <trkpt lat="38.6563310" lon="-0.6592680">
        <ele>959.4</ele>
        <time>2019-05-12T14:44:00Z</time>
      </trkpt>
      <trkpt lat="38.6563710" lon="-0.6591950">
        <ele>960.0</ele>
        <time>2019-05-12T14:44:02Z</time>
      </trkpt>
      <trkpt lat="38.6564560" lon="-0.6590470">
        <ele>960.6</ele>
        <time>2019-05-12T14:44:06Z</time>
      </trkpt>
      <trkpt lat="38.6564960" lon="-0.6589740">
        <ele>961.0</ele>
        <time>2019-05-12T14:44:08Z</time>
      </trkpt>
      <trkpt lat="38.6565990" lon="-0.6587940">
        <ele>962.2</ele>
        <time>2019-05-12T14:44:13Z</time>
      </trkpt>
      <trkpt lat="38.6567080" lon="-0.6586240">
        <ele>963.2</ele>
        <time>2019-05-12T14:44:18Z</time>
      </trkpt>
      <trkpt lat="38.6567970" lon="-0.6584950">
        <ele>964.2</ele>
        <time>2019-05-12T14:44:22Z</time>
      </trkpt>
      <trkpt lat="38.6569440" lon="-0.6583070">
        <ele>965.0</ele>
        <time>2019-05-12T14:44:28Z</time>
      </trkpt>
      <trkpt lat="38.6569960" lon="-0.6582410">
        <ele>965.4</ele>
        <time>2019-05-12T14:44:30Z</time>
      </trkpt>
      <trkpt lat="38.6571490" lon="-0.6580470">
        <ele>966.4</ele>
        <time>2019-05-12T14:44:36Z</time>
      </trkpt>
      <trkpt lat="38.6573310" lon="-0.6578250">
        <ele>967.4</ele>
        <time>2019-05-12T14:44:43Z</time>
      </trkpt>
      <trkpt lat="38.6573560" lon="-0.6577880">
        <ele>967.6</ele>
        <time>2019-05-12T14:44:44Z</time>
      </trkpt>
      <trkpt lat="38.6574750" lon="-0.6576280">
        <ele>968.6</ele>
        <time>2019-05-12T14:44:49Z</time>
      </trkpt>
      <trkpt lat="38.6575990" lon="-0.6574830">
        <ele>969.6</ele>
        <time>2019-05-12T14:44:54Z</time>
      </trkpt>
      <trkpt lat="38.6576960" lon="-0.6573630">
        <ele>970.8</ele>
        <time>2019-05-12T14:44:58Z</time>
      </trkpt>
      <trkpt lat="38.6577760" lon="-0.6572760">
        <ele>970.8</ele>
        <time>2019-05-12T14:45:01Z</time>
      </trkpt>
      <trkpt lat="38.6579420" lon="-0.6571020">
        <ele>972.0</ele>
        <time>2019-05-12T14:45:07Z</time>
      </trkpt>
      <trkpt lat="38.6580020" lon="-0.6570450">
        <ele>972.0</ele>
        <time>2019-05-12T14:45:09Z</time>
      </trkpt>
      <trkpt lat="38.6581220" lon="-0.6569170">
        <ele>972.2</ele>
        <time>2019-05-12T14:45:13Z</time>
      </trkpt>
      <trkpt lat="38.6582480" lon="-0.6567670">
        <ele>971.8</ele>
        <time>2019-05-12T14:45:17Z</time>
      </trkpt>
      <trkpt lat="38.6583700" lon="-0.6566090">
        <ele>972.2</ele>
        <time>2019-05-12T14:45:21Z</time>
      </trkpt>
      <trkpt lat="38.6584130" lon="-0.6565270">
        <ele>972.4</ele>
        <time>2019-05-12T14:45:23Z</time>
      </trkpt>
      <trkpt lat="38.6584730" lon="-0.6564030">
        <ele>973.2</ele>
        <time>2019-05-12T14:45:26Z</time>
      </trkpt>
      <trkpt lat="38.6585260" lon="-0.6562850">
        <ele>973.6</ele>
        <time>2019-05-12T14:45:29Z</time>
      </trkpt>
      <trkpt lat="38.6585570" lon="-0.6561960">
        <ele>974.2</ele>
        <time>2019-05-12T14:45:31Z</time>
      </trkpt>
      <trkpt lat="38.6586460" lon="-0.6559730">
        <ele>975.2</ele>
        <time>2019-05-12T14:45:36Z</time>
      </trkpt>
      <trkpt lat="38.6586640" lon="-0.6559320">
        <ele>975.2</ele>
        <time>2019-05-12T14:45:37Z</time>
      </trkpt>
      <trkpt lat="38.6588150" lon="-0.6556010">
        <ele>976.0</ele>
        <time>2019-05-12T14:45:45Z</time>
      </trkpt>
      <trkpt lat="38.6588590" lon="-0.6555230">
        <ele>976.2</ele>
        <time>2019-05-12T14:45:47Z</time>
      </trkpt>
      <trkpt lat="38.6589490" lon="-0.6553720">
        <ele>976.8</ele>
        <time>2019-05-12T14:45:51Z</time>
      </trkpt>
      <trkpt lat="38.6589720" lon="-0.6553300">
        <ele>976.6</ele>
        <time>2019-05-12T14:45:52Z</time>
      </trkpt>
      <trkpt lat="38.6590770" lon="-0.6551160">
        <ele>976.8</ele>
        <time>2019-05-12T14:45:57Z</time>
      </trkpt>
      <trkpt lat="38.6591690" lon="-0.6549560">
        <ele>977.4</ele>
        <time>2019-05-12T14:46:01Z</time>
      </trkpt>
      <trkpt lat="38.6592200" lon="-0.6548750">
        <ele>977.8</ele>
        <time>2019-05-12T14:46:03Z</time>
      </trkpt>
      <trkpt lat="38.6592710" lon="-0.6547960">
        <ele>977.8</ele>
        <time>2019-05-12T14:46:05Z</time>
      </trkpt>
      <trkpt lat="38.6593550" lon="-0.6546820">
        <ele>978.6</ele>
        <time>2019-05-12T14:46:08Z</time>
      </trkpt>
      <trkpt lat="38.6593880" lon="-0.6546500">
        <ele>978.8</ele>
        <time>2019-05-12T14:46:09Z</time>
      </trkpt>
      <trkpt lat="38.6594180" lon="-0.6546140">
        <ele>978.6</ele>
        <time>2019-05-12T14:46:10Z</time>
      </trkpt>
      <trkpt lat="38.6595670" lon="-0.6544480">
        <ele>979.2</ele>
        <time>2019-05-12T14:46:15Z</time>
      </trkpt>
      <trkpt lat="38.6596250" lon="-0.6543860">
        <ele>979.6</ele>
        <time>2019-05-12T14:46:17Z</time>
      </trkpt>
      <trkpt lat="38.6598380" lon="-0.6541810">
        <ele>980.6</ele>
        <time>2019-05-12T14:46:24Z</time>
      </trkpt>
      <trkpt lat="38.6599990" lon="-0.6540270">
        <ele>981.8</ele>
        <time>2019-05-12T14:46:30Z</time>
      </trkpt>
      <trkpt lat="38.6600260" lon="-0.6540030">
        <ele>982.0</ele>
        <time>2019-05-12T14:46:31Z</time>
      </trkpt>
      <trkpt lat="38.6601610" lon="-0.6538740">
        <ele>982.8</ele>
        <time>2019-05-12T14:46:36Z</time>
      </trkpt>
      <trkpt lat="38.6602160" lon="-0.6538200">
        <ele>983.2</ele>
        <time>2019-05-12T14:46:38Z</time>
      </trkpt>
      <trkpt lat="38.6603590" lon="-0.6536880">
        <ele>984.0</ele>
        <time>2019-05-12T14:46:43Z</time>
      </trkpt>
      <trkpt lat="38.6604700" lon="-0.6535850">
        <ele>984.4</ele>
        <time>2019-05-12T14:46:47Z</time>
      </trkpt>
      <trkpt lat="38.6605320" lon="-0.6535400">
        <ele>985.4</ele>
        <time>2019-05-12T14:46:49Z</time>
      </trkpt>
      <trkpt lat="38.6606470" lon="-0.6534450">
        <ele>986.0</ele>
        <time>2019-05-12T14:46:53Z</time>
      </trkpt>
      <trkpt lat="38.6607280" lon="-0.6533680">
        <ele>986.4</ele>
        <time>2019-05-12T14:46:56Z</time>
      </trkpt>
      <trkpt lat="38.6608080" lon="-0.6532870">
        <ele>986.8</ele>
        <time>2019-05-12T14:46:59Z</time>
      </trkpt>
      <trkpt lat="38.6609790" lon="-0.6531330">
        <ele>987.6</ele>
        <time>2019-05-12T14:47:05Z</time>
      </trkpt>
      <trkpt lat="38.6610620" lon="-0.6530580">
        <ele>988.2</ele>
        <time>2019-05-12T14:47:08Z</time>
      </trkpt>
      <trkpt lat="38.6611150" lon="-0.6530070">
        <ele>988.6</ele>
        <time>2019-05-12T14:47:10Z</time>
      </trkpt>
      <trkpt lat="38.6612460" lon="-0.6528830">
        <ele>989.4</ele>
        <time>2019-05-12T14:47:15Z</time>
      </trkpt>
      <trkpt lat="38.6612750" lon="-0.6528610">
        <ele>989.6</ele>
        <time>2019-05-12T14:47:16Z</time>
      </trkpt>
      <trkpt lat="38.6614050" lon="-0.6527410">
        <ele>990.6</ele>
        <time>2019-05-12T14:47:21Z</time>
      </trkpt>
      <trkpt lat="38.6615700" lon="-0.6525800">
        <ele>991.8</ele>
        <time>2019-05-12T14:47:27Z</time>
      </trkpt>
      <trkpt lat="38.6617070" lon="-0.6524560">
        <ele>993.2</ele>
        <time>2019-05-12T14:47:32Z</time>
      </trkpt>
      <trkpt lat="38.6617840" lon="-0.6523820">
        <ele>993.8</ele>
        <time>2019-05-12T14:47:35Z</time>
      </trkpt>
      <trkpt lat="38.6618330" lon="-0.6523360">
        <ele>994.2</ele>
        <time>2019-05-12T14:47:37Z</time>
      </trkpt>
      <trkpt lat="38.6619340" lon="-0.6522470">
        <ele>995.4</ele>
        <time>2019-05-12T14:47:41Z</time>
      </trkpt>
      <trkpt lat="38.6619850" lon="-0.6522040">
        <ele>995.8</ele>
        <time>2019-05-12T14:47:43Z</time>
      </trkpt>
      <trkpt lat="38.6620870" lon="-0.6521120">
        <ele>996.6</ele>
        <time>2019-05-12T14:47:47Z</time>
      </trkpt>
      <trkpt lat="38.6621870" lon="-0.6520240">
        <ele>997.2</ele>
        <time>2019-05-12T14:47:51Z</time>
      </trkpt>
      <trkpt lat="38.6622610" lon="-0.6519580">
        <ele>997.6</ele>
        <time>2019-05-12T14:47:54Z</time>
      </trkpt>
      <trkpt lat="38.6623410" lon="-0.6518960">
        <ele>998.2</ele>
        <time>2019-05-12T14:47:57Z</time>
      </trkpt>
      <trkpt lat="38.6623970" lon="-0.6518570">
        <ele>998.8</ele>
        <time>2019-05-12T14:47:59Z</time>
      </trkpt>
      <trkpt lat="38.6625290" lon="-0.6517350">
        <ele>999.2</ele>
        <time>2019-05-12T14:48:04Z</time>
      </trkpt>
      <trkpt lat="38.6626010" lon="-0.6516570">
        <ele>999.8</ele>
        <time>2019-05-12T14:48:07Z</time>
      </trkpt>
      <trkpt lat="38.6626990" lon="-0.6515340">
        <ele>1000.2</ele>
        <time>2019-05-12T14:48:11Z</time>
      </trkpt>
      <trkpt lat="38.6628100" lon="-0.6513710">
        <ele>1001.0</ele>
        <time>2019-05-12T14:48:16Z</time>
      </trkpt>
      <trkpt lat="38.6628790" lon="-0.6512750">
        <ele>1001.2</ele>
        <time>2019-05-12T14:48:19Z</time>
      </trkpt>
      <trkpt lat="38.6630070" lon="-0.6511440">
        <ele>1002.2</ele>
        <time>2019-05-12T14:48:24Z</time>
      </trkpt>
      <trkpt lat="38.6632450" lon="-0.6510450">
        <ele>1003.0</ele>
        <time>2019-05-12T14:48:31Z</time>
      </trkpt>
      <trkpt lat="38.6633660" lon="-0.6509810">
        <ele>1003.2</ele>
        <time>2019-05-12T14:48:35Z</time>
      </trkpt>
      <trkpt lat="38.6634780" lon="-0.6508920">
        <ele>1003.6</ele>
        <time>2019-05-12T14:48:39Z</time>
      </trkpt>
      <trkpt lat="38.6636210" lon="-0.6507090">
        <ele>1004.2</ele>
        <time>2019-05-12T14:48:45Z</time>
      </trkpt>
      <trkpt lat="38.6636420" lon="-0.6506740">
        <ele>1004.4</ele>
        <time>2019-05-12T14:48:46Z</time>
      </trkpt>
      <trkpt lat="38.6637750" lon="-0.6504520">
        <ele>1005.0</ele>
        <time>2019-05-12T14:48:52Z</time>
      </trkpt>
      <trkpt lat="38.6638590" lon="-0.6502860">
        <ele>1005.4</ele>
        <time>2019-05-12T14:48:56Z</time>
      </trkpt>
      <trkpt lat="38.6639240" lon="-0.6501550">
        <ele>1005.6</ele>
        <time>2019-05-12T14:48:59Z</time>
      </trkpt>
      <trkpt lat="38.6640940" lon="-0.6498490">
        <ele>1006.4</ele>
        <time>2019-05-12T14:49:06Z</time>
      </trkpt>
      <trkpt lat="38.6641400" lon="-0.6497590">
        <ele>1006.6</ele>
        <time>2019-05-12T14:49:08Z</time>
      </trkpt>
      <trkpt lat="38.6642280" lon="-0.6495770">
        <ele>1006.6</ele>
        <time>2019-05-12T14:49:12Z</time>
      </trkpt>
      <trkpt lat="38.6643990" lon="-0.6492270">
        <ele>1007.0</ele>
        <time>2019-05-12T14:49:19Z</time>
      </trkpt>
      <trkpt lat="38.6644870" lon="-0.6491030">
        <ele>1007.4</ele>
        <time>2019-05-12T14:49:22Z</time>
      </trkpt>
      <trkpt lat="38.6645210" lon="-0.6490660">
        <ele>1007.8</ele>
        <time>2019-05-12T14:49:23Z</time>
      </trkpt>
      <trkpt lat="38.6645880" lon="-0.6489970">
        <ele>1008.0</ele>
        <time>2019-05-12T14:49:25Z</time>
      </trkpt>
      <trkpt lat="38.6647460" lon="-0.6488410">
        <ele>1008.8</ele>
        <time>2019-05-12T14:49:30Z</time>
      </trkpt>
      <trkpt lat="38.6647730" lon="-0.6488120">
        <ele>1009.0</ele>
        <time>2019-05-12T14:49:31Z</time>
      </trkpt>
      <trkpt lat="38.6648220" lon="-0.6487540">
        <ele>1009.8</ele>
        <time>2019-05-12T14:49:33Z</time>
      </trkpt>
      <trkpt lat="38.6649330" lon="-0.6486070">
        <ele>1010.6</ele>
        <time>2019-05-12T14:49:38Z</time>
      </trkpt>
      <trkpt lat="38.6649530" lon="-0.6485760">
        <ele>1010.8</ele>
        <time>2019-05-12T14:49:39Z</time>
      </trkpt>
      <trkpt lat="38.6650210" lon="-0.6484750">
        <ele>1012.0</ele>
        <time>2019-05-12T14:49:43Z</time>
      </trkpt>
      <trkpt lat="38.6650510" lon="-0.6484250">
        <ele>1012.6</ele>
        <time>2019-05-12T14:49:45Z</time>
      </trkpt>
      <trkpt lat="38.6651000" lon="-0.6483530">
        <ele>1013.2</ele>
        <time>2019-05-12T14:49:48Z</time>
      </trkpt>
      <trkpt lat="38.6651540" lon="-0.6482860">
        <ele>1014.0</ele>
        <time>2019-05-12T14:49:51Z</time>
      </trkpt>
      <trkpt lat="38.6651660" lon="-0.6482630">
        <ele>1014.2</ele>
        <time>2019-05-12T14:49:52Z</time>
      </trkpt>
      <trkpt lat="38.6652310" lon="-0.6481880">
        <ele>1015.2</ele>
        <time>2019-05-12T14:49:56Z</time>
      </trkpt>
      <trkpt lat="38.6652490" lon="-0.6481670">
        <ele>1015.4</ele>
        <time>2019-05-12T14:49:57Z</time>
      </trkpt>
      <trkpt lat="38.6652870" lon="-0.6481290">
        <ele>1016.0</ele>
        <time>2019-05-12T14:49:59Z</time>
      </trkpt>
      <trkpt lat="38.6653060" lon="-0.6481140">
        <ele>1016.4</ele>
        <time>2019-05-12T14:50:00Z</time>
      </trkpt>
      <trkpt lat="38.6653630" lon="-0.6480610">
        <ele>1017.4</ele>
        <time>2019-05-12T14:50:03Z</time>
      </trkpt>
      <trkpt lat="38.6653820" lon="-0.6480440">
        <ele>1017.8</ele>
        <time>2019-05-12T14:50:04Z</time>
      </trkpt>
      <trkpt lat="38.6654420" lon="-0.6479960">
        <ele>1018.6</ele>
        <time>2019-05-12T14:50:07Z</time>
      </trkpt>
      <trkpt lat="38.6655200" lon="-0.6479360">
        <ele>1020.0</ele>
        <time>2019-05-12T14:50:11Z</time>
      </trkpt>
      <trkpt lat="38.6656090" lon="-0.6478640">
        <ele>1021.2</ele>
        <time>2019-05-12T14:50:16Z</time>
      </trkpt>
      <trkpt lat="38.6656640" lon="-0.6478280">
        <ele>1022.0</ele>
        <time>2019-05-12T14:50:19Z</time>
      </trkpt>
      <trkpt lat="38.6656830" lon="-0.6478160">
        <ele>1022.2</ele>
        <time>2019-05-12T14:50:20Z</time>
      </trkpt>
      <trkpt lat="38.6657740" lon="-0.6477540">
        <ele>1023.4</ele>
        <time>2019-05-12T14:50:25Z</time>
      </trkpt>
      <trkpt lat="38.6657930" lon="-0.6477410">
        <ele>1023.6</ele>
        <time>2019-05-12T14:50:26Z</time>
      </trkpt>
      <trkpt lat="38.6658410" lon="-0.6477000">
        <ele>1024.4</ele>
        <time>2019-05-12T14:50:29Z</time>
      </trkpt>
      <trkpt lat="38.6658980" lon="-0.6476600">
        <ele>1024.8</ele>
        <time>2019-05-12T14:50:32Z</time>
      </trkpt>
      <trkpt lat="38.6659400" lon="-0.6476320">
        <ele>1025.6</ele>
        <time>2019-05-12T14:50:34Z</time>
      </trkpt>
      <trkpt lat="38.6659980" lon="-0.6475990">
        <ele>1026.2</ele>
        <time>2019-05-12T14:50:37Z</time>
      </trkpt>
      <trkpt lat="38.6660460" lon="-0.6475940">
        <ele>1026.4</ele>
        <time>2019-05-12T14:50:39Z</time>
      </trkpt>
      <trkpt lat="38.6660740" lon="-0.6475950">
        <ele>1026.6</ele>
        <time>2019-05-12T14:50:40Z</time>
      </trkpt>
      <trkpt lat="38.6662410" lon="-0.6476370">
        <ele>1027.0</ele>
        <time>2019-05-12T14:50:46Z</time>
      </trkpt>
      <trkpt lat="38.6664900" lon="-0.6477650">
        <ele>1027.6</ele>
        <time>2019-05-12T14:50:55Z</time>
      </trkpt>
      <trkpt lat="38.6666600" lon="-0.6478460">
        <ele>1027.6</ele>
        <time>2019-05-12T14:51:01Z</time>
      </trkpt>
      <trkpt lat="38.6666880" lon="-0.6478610">
        <ele>1028.0</ele>
        <time>2019-05-12T14:51:02Z</time>
      </trkpt>
      <trkpt lat="38.6668210" lon="-0.6479440">
        <ele>1028.4</ele>
        <time>2019-05-12T14:51:07Z</time>
      </trkpt>
      <trkpt lat="38.6668980" lon="-0.6479930">
        <ele>1029.0</ele>
        <time>2019-05-12T14:51:10Z</time>
      </trkpt>
      <trkpt lat="38.6669850" lon="-0.6480400">
        <ele>1029.0</ele>
        <time>2019-05-12T14:51:13Z</time>
      </trkpt>
      <trkpt lat="38.6671160" lon="-0.6481170">
        <ele>1030.0</ele>
        <time>2019-05-12T14:51:18Z</time>
      </trkpt>
      <trkpt lat="38.6671690" lon="-0.6481420">
        <ele>1030.2</ele>
        <time>2019-05-12T14:51:20Z</time>
      </trkpt>
      <trkpt lat="38.6673320" lon="-0.6482120">
        <ele>1031.2</ele>
        <time>2019-05-12T14:51:26Z</time>
      </trkpt>
      <trkpt lat="38.6675580" lon="-0.6482340">
        <ele>1031.6</ele>
        <time>2019-05-12T14:51:32Z</time>
      </trkpt>
      <trkpt lat="38.6676770" lon="-0.6482450">
        <ele>1032.4</ele>
        <time>2019-05-12T14:51:35Z</time>
      </trkpt>
      <trkpt lat="38.6678830" lon="-0.6482460">
        <ele>1033.0</ele>
        <time>2019-05-12T14:51:40Z</time>
      </trkpt>
      <trkpt lat="38.6679800" lon="-0.6482350">
        <ele>1033.0</ele>
        <time>2019-05-12T14:51:42Z</time>
      </trkpt>
      <trkpt lat="38.6681970" lon="-0.6482040">
        <ele>1032.2</ele>
        <time>2019-05-12T14:51:46Z</time>
      </trkpt>
      <trkpt lat="38.6683870" lon="-0.6481560">
        <ele>1033.0</ele>
        <time>2019-05-12T14:51:50Z</time>
      </trkpt>
      <trkpt lat="38.6684240" lon="-0.6481420">
        <ele>1033.4</ele>
        <time>2019-05-12T14:51:51Z</time>
      </trkpt>
      <trkpt lat="38.6684600" lon="-0.6481260">
        <ele>1033.8</ele>
        <time>2019-05-12T14:51:52Z</time>
      </trkpt>
      <trkpt lat="38.6685260" lon="-0.6480960">
        <ele>1034.6</ele>
        <time>2019-05-12T14:51:54Z</time>
      </trkpt>
      <trkpt lat="38.6686320" lon="-0.6480000">
        <ele>1035.6</ele>
        <time>2019-05-12T14:51:58Z</time>
      </trkpt>
      <trkpt lat="38.6686560" lon="-0.6479740">
        <ele>1036.0</ele>
        <time>2019-05-12T14:51:59Z</time>
      </trkpt>
      <trkpt lat="38.6687530" lon="-0.6478790">
        <ele>1037.0</ele>
        <time>2019-05-12T14:52:03Z</time>
      </trkpt>
      <trkpt lat="38.6688450" lon="-0.6477800">
        <ele>1038.2</ele>
        <time>2019-05-12T14:52:07Z</time>
      </trkpt>
      <trkpt lat="38.6688910" lon="-0.6477290">
        <ele>1038.6</ele>
        <time>2019-05-12T14:52:09Z</time>
      </trkpt>
      <trkpt lat="38.6689430" lon="-0.6476900">
        <ele>1039.4</ele>
        <time>2019-05-12T14:52:11Z</time>
      </trkpt>
      <trkpt lat="38.6690410" lon="-0.6476200">
        <ele>1041.0</ele>
        <time>2019-05-12T14:52:15Z</time>
      </trkpt>
      <trkpt lat="38.6692050" lon="-0.6475210">
        <ele>1042.2</ele>
        <time>2019-05-12T14:52:22Z</time>
      </trkpt>
      <trkpt lat="38.6692290" lon="-0.6475110">
        <ele>1042.6</ele>
        <time>2019-05-12T14:52:23Z</time>
      </trkpt>
      <trkpt lat="38.6693040" lon="-0.6474720">
        <ele>1043.4</ele>
        <time>2019-05-12T14:52:26Z</time>
      </trkpt>
      <trkpt lat="38.6693820" lon="-0.6474490">
        <ele>1044.0</ele>
        <time>2019-05-12T14:52:29Z</time>
      </trkpt>
      <trkpt lat="38.6694340" lon="-0.6474320">
        <ele>1044.4</ele>
        <time>2019-05-12T14:52:31Z</time>
      </trkpt>
      <trkpt lat="38.6695650" lon="-0.6473980">
        <ele>1045.6</ele>
        <time>2019-05-12T14:52:36Z</time>
      </trkpt>
      <trkpt lat="38.6695930" lon="-0.6473950">
        <ele>1045.6</ele>
        <time>2019-05-12T14:52:37Z</time>
      </trkpt>
      <trkpt lat="38.6696780" lon="-0.6473810">
        <ele>1046.6</ele>
        <time>2019-05-12T14:52:40Z</time>
      </trkpt>
      <trkpt lat="38.6697920" lon="-0.6473650">
        <ele>1047.4</ele>
        <time>2019-05-12T14:52:44Z</time>
      </trkpt>
      <trkpt lat="38.6698460" lon="-0.6473550">
        <ele>1047.8</ele>
        <time>2019-05-12T14:52:46Z</time>
      </trkpt>
      <trkpt lat="38.6699750" lon="-0.6473280">
        <ele>1048.8</ele>
        <time>2019-05-12T14:52:51Z</time>
      </trkpt>
      <trkpt lat="38.6700060" lon="-0.6473260">
        <ele>1048.8</ele>
        <time>2019-05-12T14:52:52Z</time>
      </trkpt>
      <trkpt lat="38.6701490" lon="-0.6472910">
        <ele>1050.2</ele>
        <time>2019-05-12T14:52:57Z</time>
      </trkpt>
      <trkpt lat="38.6702110" lon="-0.6472780">
        <ele>1050.4</ele>
        <time>2019-05-12T14:52:59Z</time>
      </trkpt>
      <trkpt lat="38.6703310" lon="-0.6472360">
        <ele>1051.0</ele>
        <time>2019-05-12T14:53:03Z</time>
      </trkpt>
      <trkpt lat="38.6703600" lon="-0.6472260">
        <ele>1051.2</ele>
        <time>2019-05-12T14:53:04Z</time>
      </trkpt>
      <trkpt lat="38.6704150" lon="-0.6472090">
        <ele>1051.6</ele>
        <time>2019-05-12T14:53:06Z</time>
      </trkpt>
      <trkpt lat="38.6704910" lon="-0.6471870">
        <ele>1052.4</ele>
        <time>2019-05-12T14:53:09Z</time>
      </trkpt>
      <trkpt lat="38.6705360" lon="-0.6471660">
        <ele>1052.4</ele>
        <time>2019-05-12T14:53:11Z</time>
      </trkpt>
      <trkpt lat="38.6705700" lon="-0.6471170">
        <ele>1052.6</ele>
        <time>2019-05-12T14:53:13Z</time>
      </trkpt>
      <trkpt lat="38.6705700" lon="-0.6470470">
        <ele>1052.6</ele>
        <time>2019-05-12T14:53:15Z</time>
      </trkpt>
      <trkpt lat="38.6705550" lon="-0.6469980">
        <ele>1052.8</ele>
        <time>2019-05-12T14:53:17Z</time>
      </trkpt>
      <trkpt lat="38.6705390" lon="-0.6469320">
        <ele>1053.0</ele>
        <time>2019-05-12T14:53:20Z</time>
      </trkpt>
      <trkpt lat="38.6705610" lon="-0.6467610">
        <ele>1053.0</ele>
        <time>2019-05-12T14:53:26Z</time>
      </trkpt>
      <trkpt lat="38.6706040" lon="-0.6466690">
        <ele>1053.4</ele>
        <time>2019-05-12T14:53:29Z</time>
      </trkpt>
      <trkpt lat="38.6706480" lon="-0.6466200">
        <ele>1053.6</ele>
        <time>2019-05-12T14:53:31Z</time>
      </trkpt>
      <trkpt lat="38.6707870" lon="-0.6463880">
        <ele>1053.8</ele>
        <time>2019-05-12T14:53:38Z</time>
      </trkpt>
      <trkpt lat="38.6708430" lon="-0.6461720">
        <ele>1053.4</ele>
        <time>2019-05-12T14:53:43Z</time>
      </trkpt>
      <trkpt lat="38.6709140" lon="-0.6459000">
        <ele>1053.8</ele>
        <time>2019-05-12T14:53:49Z</time>
      </trkpt>
      <trkpt lat="38.6709250" lon="-0.6458430">
        <ele>1053.6</ele>
        <time>2019-05-12T14:53:50Z</time>
      </trkpt>
      <trkpt lat="38.6709050" lon="-0.6456670">
        <ele>1053.6</ele>
        <time>2019-05-12T14:53:53Z</time>
      </trkpt>
      <trkpt lat="38.6708920" lon="-0.6454270">
        <ele>1052.8</ele>
        <time>2019-05-12T14:53:57Z</time>
      </trkpt>
      <trkpt lat="38.6708840" lon="-0.6453680">
        <ele>1052.6</ele>
        <time>2019-05-12T14:53:58Z</time>
      </trkpt>
      <trkpt lat="38.6708890" lon="-0.6451930">
        <ele>1052.6</ele>
        <time>2019-05-12T14:54:01Z</time>
      </trkpt>
      <trkpt lat="38.6708930" lon="-0.6451380">
        <ele>1052.4</ele>
        <time>2019-05-12T14:54:02Z</time>
      </trkpt>
      <trkpt lat="38.6709000" lon="-0.6450870">
        <ele>1052.6</ele>
        <time>2019-05-12T14:54:03Z</time>
      </trkpt>
      <trkpt lat="38.6709480" lon="-0.6449760">
        <ele>1053.0</ele>
        <time>2019-05-12T14:54:06Z</time>
      </trkpt>
      <trkpt lat="38.6709620" lon="-0.6449450">
        <ele>1053.6</ele>
        <time>2019-05-12T14:54:07Z</time>
      </trkpt>
      <trkpt lat="38.6710360" lon="-0.6448050">
        <ele>1054.6</ele>
        <time>2019-05-12T14:54:12Z</time>
      </trkpt>
      <trkpt lat="38.6710950" lon="-0.6446960">
        <ele>1055.8</ele>
        <time>2019-05-12T14:54:16Z</time>
      </trkpt>
      <trkpt lat="38.6711160" lon="-0.6446760">
        <ele>1055.8</ele>
        <time>2019-05-12T14:54:17Z</time>
      </trkpt>
      <trkpt lat="38.6711960" lon="-0.6445140">
        <ele>1055.6</ele>
        <time>2019-05-12T14:54:22Z</time>
      </trkpt>
      <trkpt lat="38.6712490" lon="-0.6442910">
        <ele>1056.0</ele>
        <time>2019-05-12T14:54:28Z</time>
      </trkpt>
      <trkpt lat="38.6713250" lon="-0.6440960">
        <ele>1055.4</ele>
        <time>2019-05-12T14:54:32Z</time>
      </trkpt>
      <trkpt lat="38.6713630" lon="-0.6439900">
        <ele>1055.0</ele>
        <time>2019-05-12T14:54:34Z</time>
      </trkpt>
      <trkpt lat="38.6714390" lon="-0.6437540">
        <ele>1054.6</ele>
        <time>2019-05-12T14:54:38Z</time>
      </trkpt>
      <trkpt lat="38.6714600" lon="-0.6436880">
        <ele>1054.4</ele>
        <time>2019-05-12T14:54:39Z</time>
      </trkpt>
      <trkpt lat="38.6714920" lon="-0.6435520">
        <ele>1053.4</ele>
        <time>2019-05-12T14:54:41Z</time>
      </trkpt>
      <trkpt lat="38.6714990" lon="-0.6434830">
        <ele>1053.2</ele>
        <time>2019-05-12T14:54:42Z</time>
      </trkpt>
      <trkpt lat="38.6715150" lon="-0.6433390">
        <ele>1053.0</ele>
        <time>2019-05-12T14:54:44Z</time>
      </trkpt>
      <trkpt lat="38.6715630" lon="-0.6432060">
        <ele>1052.6</ele>
        <time>2019-05-12T14:54:46Z</time>
      </trkpt>
      <trkpt lat="38.6715910" lon="-0.6431390">
        <ele>1052.2</ele>
        <time>2019-05-12T14:54:47Z</time>
      </trkpt>
      <trkpt lat="38.6716160" lon="-0.6430630">
        <ele>1051.8</ele>
        <time>2019-05-12T14:54:48Z</time>
      </trkpt>
      <trkpt lat="38.6717420" lon="-0.6427900">
        <ele>1051.2</ele>
        <time>2019-05-12T14:54:52Z</time>
      </trkpt>
      <trkpt lat="38.6717670" lon="-0.6427210">
        <ele>1051.2</ele>
        <time>2019-05-12T14:54:53Z</time>
      </trkpt>
      <trkpt lat="38.6718490" lon="-0.6425470">
        <ele>1050.2</ele>
        <time>2019-05-12T14:54:56Z</time>
      </trkpt>
      <trkpt lat="38.6718870" lon="-0.6424940">
        <ele>1050.0</ele>
        <time>2019-05-12T14:54:57Z</time>
      </trkpt>
      <trkpt lat="38.6719650" lon="-0.6423970">
        <ele>1049.6</ele>
        <time>2019-05-12T14:54:59Z</time>
      </trkpt>
      <trkpt lat="38.6719920" lon="-0.6423540">
        <ele>1049.2</ele>
        <time>2019-05-12T14:55:00Z</time>
      </trkpt>
      <trkpt lat="38.6720180" lon="-0.6423080">
        <ele>1049.0</ele>
        <time>2019-05-12T14:55:01Z</time>
      </trkpt>
      <trkpt lat="38.6720630" lon="-0.6422160">
        <ele>1049.0</ele>
        <time>2019-05-12T14:55:03Z</time>
      </trkpt>
      <trkpt lat="38.6721230" lon="-0.6420780">
        <ele>1047.8</ele>
        <time>2019-05-12T14:55:06Z</time>
      </trkpt>
      <trkpt lat="38.6721400" lon="-0.6420400">
        <ele>1047.4</ele>
        <time>2019-05-12T14:55:07Z</time>
      </trkpt>
      <trkpt lat="38.6721750" lon="-0.6419720">
        <ele>1046.6</ele>
        <time>2019-05-12T14:55:09Z</time>
      </trkpt>
      <trkpt lat="38.6722250" lon="-0.6418880">
        <ele>1045.4</ele>
        <time>2019-05-12T14:55:12Z</time>
      </trkpt>
      <trkpt lat="38.6722400" lon="-0.6418630">
        <ele>1045.0</ele>
        <time>2019-05-12T14:55:13Z</time>
      </trkpt>
      <trkpt lat="38.6722700" lon="-0.6418170">
        <ele>1044.4</ele>
        <time>2019-05-12T14:55:15Z</time>
      </trkpt>
      <trkpt lat="38.6723440" lon="-0.6417420">
        <ele>1043.2</ele>
        <time>2019-05-12T14:55:18Z</time>
      </trkpt>
      <trkpt lat="38.6723720" lon="-0.6417200">
        <ele>1042.2</ele>
        <time>2019-05-12T14:55:19Z</time>
      </trkpt>
      <trkpt lat="38.6724210" lon="-0.6416550">
        <ele>1040.8</ele>
        <time>2019-05-12T14:55:21Z</time>
      </trkpt>
      <trkpt lat="38.6724500" lon="-0.6416260">
        <ele>1040.6</ele>
        <time>2019-05-12T14:55:22Z</time>
      </trkpt>
      <trkpt lat="38.6724810" lon="-0.6416040">
        <ele>1039.8</ele>
        <time>2019-05-12T14:55:23Z</time>
      </trkpt>
      <trkpt lat="38.6725340" lon="-0.6415560">
        <ele>1038.4</ele>
        <time>2019-05-12T14:55:25Z</time>
      </trkpt>
      <trkpt lat="38.6726000" lon="-0.6414830">
        <ele>1037.2</ele>
        <time>2019-05-12T14:55:27Z</time>
      </trkpt>
      <trkpt lat="38.6726770" lon="-0.6413980">
        <ele>1036.0</ele>
        <time>2019-05-12T14:55:29Z</time>
      </trkpt>
      <trkpt lat="38.6727780" lon="-0.6412940">
        <ele>1035.4</ele>
        <time>2019-05-12T14:55:32Z</time>
      </trkpt>
      <trkpt lat="38.6728680" lon="-0.6412090">
        <ele>1035.0</ele>
        <time>2019-05-12T14:55:36Z</time>
      </trkpt>
      <trkpt lat="38.6729010" lon="-0.6412060">
        <ele>1034.4</ele>
        <time>2019-05-12T14:55:37Z</time>
      </trkpt>
      <trkpt lat="38.6730270" lon="-0.6411850">
        <ele>1033.6</ele>
        <time>2019-05-12T14:55:40Z</time>
      </trkpt>
      <trkpt lat="38.6731140" lon="-0.6411390">
        <ele>1032.6</ele>
        <time>2019-05-12T14:55:42Z</time>
      </trkpt>
      <trkpt lat="38.6731550" lon="-0.6411130">
        <ele>1032.0</ele>
        <time>2019-05-12T14:55:43Z</time>
      </trkpt>
      <trkpt lat="38.6731940" lon="-0.6410810">
        <ele>1031.8</ele>
        <time>2019-05-12T14:55:44Z</time>
      </trkpt>
      <trkpt lat="38.6732310" lon="-0.6410380">
        <ele>1031.0</ele>
        <time>2019-05-12T14:55:45Z</time>
      </trkpt>
      <trkpt lat="38.6733140" lon="-0.6409480">
        <ele>1029.8</ele>
        <time>2019-05-12T14:55:47Z</time>
      </trkpt>
      <trkpt lat="38.6734540" lon="-0.6408400">
        <ele>1028.8</ele>
        <time>2019-05-12T14:55:50Z</time>
      </trkpt>
      <trkpt lat="38.6735400" lon="-0.6407590">
        <ele>1028.4</ele>
        <time>2019-05-12T14:55:52Z</time>
      </trkpt>
      <trkpt lat="38.6735860" lon="-0.6407230">
        <ele>1028.4</ele>
        <time>2019-05-12T14:55:53Z</time>
      </trkpt>
      <trkpt lat="38.6736790" lon="-0.6406520">
        <ele>1027.4</ele>
        <time>2019-05-12T14:55:55Z</time>
      </trkpt>
      <trkpt lat="38.6737460" lon="-0.6405500">
        <ele>1027.0</ele>
        <time>2019-05-12T14:55:57Z</time>
      </trkpt>
      <trkpt lat="38.6737750" lon="-0.6404990">
        <ele>1027.0</ele>
        <time>2019-05-12T14:55:58Z</time>
      </trkpt>
      <trkpt lat="38.6738090" lon="-0.6404610">
        <ele>1027.2</ele>
        <time>2019-05-12T14:55:59Z</time>
      </trkpt>
      <trkpt lat="38.6738910" lon="-0.6403790">
        <ele>1026.6</ele>
        <time>2019-05-12T14:56:01Z</time>
      </trkpt>
      <trkpt lat="38.6739340" lon="-0.6403350">
        <ele>1025.8</ele>
        <time>2019-05-12T14:56:02Z</time>
      </trkpt>
      <trkpt lat="38.6740620" lon="-0.6402010">
        <ele>1024.6</ele>
        <time>2019-05-12T14:56:05Z</time>
      </trkpt>
      <trkpt lat="38.6741920" lon="-0.6400890">
        <ele>1024.2</ele>
        <time>2019-05-12T14:56:08Z</time>
      </trkpt>
      <trkpt lat="38.6743270" lon="-0.6399910">
        <ele>1023.8</ele>
        <time>2019-05-12T14:56:11Z</time>
      </trkpt>
      <trkpt lat="38.6743700" lon="-0.6399610">
        <ele>1023.4</ele>
        <time>2019-05-12T14:56:12Z</time>
      </trkpt>
      <trkpt lat="38.6744350" lon="-0.6398720">
        <ele>1022.8</ele>
        <time>2019-05-12T14:56:14Z</time>
      </trkpt>
      <trkpt lat="38.6744670" lon="-0.6397570">
        <ele>1022.2</ele>
        <time>2019-05-12T14:56:16Z</time>
      </trkpt>
      <trkpt lat="38.6744910" lon="-0.6396410">
        <ele>1021.4</ele>
        <time>2019-05-12T14:56:18Z</time>
      </trkpt>
      <trkpt lat="38.6744920" lon="-0.6395910">
        <ele>1021.2</ele>
        <time>2019-05-12T14:56:19Z</time>
      </trkpt>
      <trkpt lat="38.6744640" lon="-0.6394850">
        <ele>1020.4</ele>
        <time>2019-05-12T14:56:21Z</time>
      </trkpt>
      <trkpt lat="38.6744440" lon="-0.6394280">
        <ele>1020.0</ele>
        <time>2019-05-12T14:56:22Z</time>
      </trkpt>
      <trkpt lat="38.6744280" lon="-0.6393240">
        <ele>1018.4</ele>
        <time>2019-05-12T14:56:24Z</time>
      </trkpt>
      <trkpt lat="38.6744230" lon="-0.6392650">
        <ele>1017.6</ele>
        <time>2019-05-12T14:56:25Z</time>
      </trkpt>
      <trkpt lat="38.6744180" lon="-0.6392130">
        <ele>1017.0</ele>
        <time>2019-05-12T14:56:26Z</time>
      </trkpt>
      <trkpt lat="38.6744190" lon="-0.6391510">
        <ele>1015.8</ele>
        <time>2019-05-12T14:56:27Z</time>
      </trkpt>
      <trkpt lat="38.6744260" lon="-0.6390870">
        <ele>1014.6</ele>
        <time>2019-05-12T14:56:28Z</time>
      </trkpt>
      <trkpt lat="38.6744390" lon="-0.6390210">
        <ele>1013.8</ele>
        <time>2019-05-12T14:56:29Z</time>
      </trkpt>
      <trkpt lat="38.6744480" lon="-0.6389500">
        <ele>1012.8</ele>
        <time>2019-05-12T14:56:30Z</time>
      </trkpt>
      <trkpt lat="38.6744580" lon="-0.6388750">
        <ele>1012.0</ele>
        <time>2019-05-12T14:56:31Z</time>
      </trkpt>
      <trkpt lat="38.6744580" lon="-0.6388060">
        <ele>1011.2</ele>
        <time>2019-05-12T14:56:32Z</time>
      </trkpt>
      <trkpt lat="38.6744550" lon="-0.6387480">
        <ele>1010.6</ele>
        <time>2019-05-12T14:56:33Z</time>
      </trkpt>
      <trkpt lat="38.6744370" lon="-0.6386390">
        <ele>1009.6</ele>
        <time>2019-05-12T14:56:35Z</time>
      </trkpt>
      <trkpt lat="38.6744270" lon="-0.6385290">
        <ele>1008.8</ele>
        <time>2019-05-12T14:56:37Z</time>
      </trkpt>
      <trkpt lat="38.6744280" lon="-0.6384750">
        <ele>1008.6</ele>
        <time>2019-05-12T14:56:38Z</time>
      </trkpt>
      <trkpt lat="38.6744370" lon="-0.6383730">
        <ele>1007.2</ele>
        <time>2019-05-12T14:56:40Z</time>
      </trkpt>
      <trkpt lat="38.6744300" lon="-0.6382850">
        <ele>1006.8</ele>
        <time>2019-05-12T14:56:42Z</time>
      </trkpt>
      <trkpt lat="38.6744300" lon="-0.6380850">
        <ele>1006.4</ele>
        <time>2019-05-12T14:56:47Z</time>
      </trkpt>
      <trkpt lat="38.6744000" lon="-0.6378550">
        <ele>1006.2</ele>
        <time>2019-05-12T14:56:53Z</time>
      </trkpt>
      <trkpt lat="38.6743820" lon="-0.6376450">
        <ele>1006.4</ele>
        <time>2019-05-12T14:56:59Z</time>
      </trkpt>
      <trkpt lat="38.6743650" lon="-0.6374330">
        <ele>1006.0</ele>
        <time>2019-05-12T14:57:05Z</time>
      </trkpt>
      <trkpt lat="38.6743640" lon="-0.6373070">
        <ele>1004.8</ele>
        <time>2019-05-12T14:57:08Z</time>
      </trkpt>
      <trkpt lat="38.6743800" lon="-0.6372180">
        <ele>1004.4</ele>
        <time>2019-05-12T14:57:10Z</time>
      </trkpt>
      <trkpt lat="38.6744120" lon="-0.6370380">
        <ele>1003.8</ele>
        <time>2019-05-12T14:57:15Z</time>
      </trkpt>
      <trkpt lat="38.6744100" lon="-0.6369900">
        <ele>1003.0</ele>
        <time>2019-05-12T14:57:16Z</time>
      </trkpt>
      <trkpt lat="38.6744070" lon="-0.6369420">
        <ele>1002.6</ele>
        <time>2019-05-12T14:57:17Z</time>
      </trkpt>
      <trkpt lat="38.6744130" lon="-0.6367610">
        <ele>1001.2</ele>
        <time>2019-05-12T14:57:21Z</time>
      </trkpt>
      <trkpt lat="38.6744260" lon="-0.6366610">
        <ele>1000.2</ele>
        <time>2019-05-12T14:57:23Z</time>
      </trkpt>
      <trkpt lat="38.6744280" lon="-0.6366000">
        <ele>999.8</ele>
        <time>2019-05-12T14:57:24Z</time>
      </trkpt>
      <trkpt lat="38.6744220" lon="-0.6365360">
        <ele>999.6</ele>
        <time>2019-05-12T14:57:25Z</time>
      </trkpt>
      <trkpt lat="38.6744030" lon="-0.6363870">
        <ele>998.6</ele>
        <time>2019-05-12T14:57:27Z</time>
      </trkpt>
      <trkpt lat="38.6743990" lon="-0.6362630">
        <ele>997.2</ele>
        <time>2019-05-12T14:57:29Z</time>
      </trkpt>
      <trkpt lat="38.6744050" lon="-0.6362060">
        <ele>997.0</ele>
        <time>2019-05-12T14:57:30Z</time>
      </trkpt>
      <trkpt lat="38.6744110" lon="-0.6359650">
        <ele>996.4</ele>
        <time>2019-05-12T14:57:34Z</time>
      </trkpt>
      <trkpt lat="38.6744210" lon="-0.6359130">
        <ele>996.4</ele>
        <time>2019-05-12T14:57:35Z</time>
      </trkpt>
      <trkpt lat="38.6744770" lon="-0.6357730">
        <ele>996.4</ele>
        <time>2019-05-12T14:57:38Z</time>
      </trkpt>
      <trkpt lat="38.6745100" lon="-0.6356870">
        <ele>996.2</ele>
        <time>2019-05-12T14:57:40Z</time>
      </trkpt>
      <trkpt lat="38.6745270" lon="-0.6356460">
        <ele>996.4</ele>
        <time>2019-05-12T14:57:41Z</time>
      </trkpt>
      <trkpt lat="38.6745680" lon="-0.6355410">
        <ele>996.2</ele>
        <time>2019-05-12T14:57:44Z</time>
      </trkpt>
      <trkpt lat="38.6745600" lon="-0.6354820">
        <ele>995.6</ele>
        <time>2019-05-12T14:57:46Z</time>
      </trkpt>
      <trkpt lat="38.6745330" lon="-0.6354530">
        <ele>995.4</ele>
        <time>2019-05-12T14:57:48Z</time>
      </trkpt>
      <trkpt lat="38.6744660" lon="-0.6354410">
        <ele>995.0</ele>
        <time>2019-05-12T14:58:58Z</time>
      </trkpt>
      <trkpt lat="38.6743140" lon="-0.6354410">
        <ele>994.6</ele>
        <time>2019-05-12T14:59:03Z</time>
      </trkpt>
      <trkpt lat="38.6741710" lon="-0.6354720">
        <ele>994.0</ele>
        <time>2019-05-12T14:59:07Z</time>
      </trkpt>
      <trkpt lat="38.6740880" lon="-0.6355050">
        <ele>993.4</ele>
        <time>2019-05-12T14:59:10Z</time>
      </trkpt>
      <trkpt lat="38.6740450" lon="-0.6354860">
        <ele>993.4</ele>
        <time>2019-05-12T14:59:12Z</time>
      </trkpt>
      <trkpt lat="38.6740010" lon="-0.6354820">
        <ele>992.8</ele>
        <time>2019-05-12T14:59:14Z</time>
      </trkpt>
      <trkpt lat="38.6739330" lon="-0.6355160">
        <ele>992.0</ele>
        <time>2019-05-12T14:59:16Z</time>
      </trkpt>
      <trkpt lat="38.6738920" lon="-0.6355280">
        <ele>991.6</ele>
        <time>2019-05-12T14:59:17Z</time>
      </trkpt>
      <trkpt lat="38.6738070" lon="-0.6355290">
        <ele>991.2</ele>
        <time>2019-05-12T14:59:19Z</time>
      </trkpt>
      <trkpt lat="38.6737140" lon="-0.6355030">
        <ele>990.6</ele>
        <time>2019-05-12T14:59:21Z</time>
      </trkpt>
      <trkpt lat="38.6736170" lon="-0.6354320">
        <ele>989.2</ele>
        <time>2019-05-12T14:59:23Z</time>
      </trkpt>
      <trkpt lat="38.6735200" lon="-0.6353410">
        <ele>987.6</ele>
        <time>2019-05-12T14:59:25Z</time>
      </trkpt>
      <trkpt lat="38.6734000" lon="-0.6352360">
        <ele>986.0</ele>
        <time>2019-05-12T14:59:27Z</time>
      </trkpt>
      <trkpt lat="38.6733340" lon="-0.6351800">
        <ele>984.8</ele>
        <time>2019-05-12T14:59:28Z</time>
      </trkpt>
      <trkpt lat="38.6731960" lon="-0.6350620">
        <ele>983.4</ele>
        <time>2019-05-12T14:59:30Z</time>
      </trkpt>
      <trkpt lat="38.6729810" lon="-0.6348960">
        <ele>982.4</ele>
        <time>2019-05-12T14:59:33Z</time>
      </trkpt>
      <trkpt lat="38.6728390" lon="-0.6348010">
        <ele>981.2</ele>
        <time>2019-05-12T14:59:35Z</time>
      </trkpt>
      <trkpt lat="38.6727700" lon="-0.6347630">
        <ele>980.8</ele>
        <time>2019-05-12T14:59:36Z</time>
      </trkpt>
      <trkpt lat="38.6726330" lon="-0.6346710">
        <ele>980.0</ele>
        <time>2019-05-12T14:59:38Z</time>
      </trkpt>
      <trkpt lat="38.6725260" lon="-0.6345800">
        <ele>980.0</ele>
        <time>2019-05-12T14:59:40Z</time>
      </trkpt>
      <trkpt lat="38.6723240" lon="-0.6344480">
        <ele>979.4</ele>
        <time>2019-05-12T14:59:44Z</time>
      </trkpt>
      <trkpt lat="38.6722730" lon="-0.6344310">
        <ele>979.2</ele>
        <time>2019-05-12T14:59:45Z</time>
      </trkpt>
      <trkpt lat="38.6722200" lon="-0.6344090">
        <ele>978.6</ele>
        <time>2019-05-12T14:59:46Z</time>
      </trkpt>
      <trkpt lat="38.6721590" lon="-0.6343870">
        <ele>977.6</ele>
        <time>2019-05-12T14:59:47Z</time>
      </trkpt>
      <trkpt lat="38.6721010" lon="-0.6343670">
        <ele>977.2</ele>
        <time>2019-05-12T14:59:48Z</time>
      </trkpt>
      <trkpt lat="38.6719870" lon="-0.6343330">
        <ele>977.2</ele>
        <time>2019-05-12T14:59:50Z</time>
      </trkpt>
      <trkpt lat="38.6716350" lon="-0.6342170">
        <ele>976.0</ele>
        <time>2019-05-12T14:59:56Z</time>
      </trkpt>
      <trkpt lat="38.6715700" lon="-0.6342020">
        <ele>976.0</ele>
        <time>2019-05-12T14:59:57Z</time>
      </trkpt>
      <trkpt lat="38.6713640" lon="-0.6341600">
        <ele>974.8</ele>
        <time>2019-05-12T15:00:00Z</time>
      </trkpt>
      <trkpt lat="38.6710830" lon="-0.6340890">
        <ele>974.0</ele>
        <time>2019-05-12T15:00:04Z</time>
      </trkpt>
      <trkpt lat="38.6710130" lon="-0.6340710">
        <ele>973.4</ele>
        <time>2019-05-12T15:00:05Z</time>
      </trkpt>
      <trkpt lat="38.6705650" lon="-0.6339630">
        <ele>973.2</ele>
        <time>2019-05-12T15:00:12Z</time>
      </trkpt>
      <trkpt lat="38.6702220" lon="-0.6339180">
        <ele>972.4</ele>
        <time>2019-05-12T15:00:18Z</time>
      </trkpt>
      <trkpt lat="38.6701700" lon="-0.6339090">
        <ele>972.4</ele>
        <time>2019-05-12T15:00:19Z</time>
      </trkpt>
      <trkpt lat="38.6698030" lon="-0.6338500">
        <ele>973.0</ele>
        <time>2019-05-12T15:00:26Z</time>
      </trkpt>
      <trkpt lat="38.6696900" lon="-0.6339420">
        <ele>972.4</ele>
        <time>2019-05-12T15:00:29Z</time>
      </trkpt>
      <trkpt lat="38.6695120" lon="-0.6340120">
        <ele>971.6</ele>
        <time>2019-05-12T15:00:33Z</time>
      </trkpt>
      <trkpt lat="38.6694590" lon="-0.6340130">
        <ele>971.0</ele>
        <time>2019-05-12T15:00:34Z</time>
      </trkpt>
      <trkpt lat="38.6693440" lon="-0.6339860">
        <ele>970.2</ele>
        <time>2019-05-12T15:00:36Z</time>
      </trkpt>
      <trkpt lat="38.6692850" lon="-0.6339650">
        <ele>970.2</ele>
        <time>2019-05-12T15:00:37Z</time>
      </trkpt>
      <trkpt lat="38.6691640" lon="-0.6339300">
        <ele>970.0</ele>
        <time>2019-05-12T15:00:39Z</time>
      </trkpt>
      <trkpt lat="38.6689940" lon="-0.6338740">
        <ele>968.8</ele>
        <time>2019-05-12T15:00:42Z</time>
      </trkpt>
      <trkpt lat="38.6688350" lon="-0.6338170">
        <ele>968.8</ele>
        <time>2019-05-12T15:00:45Z</time>
      </trkpt>
      <trkpt lat="38.6685640" lon="-0.6337350">
        <ele>970.0</ele>
        <time>2019-05-12T15:00:52Z</time>
      </trkpt>
      <trkpt lat="38.6685240" lon="-0.6337190">
        <ele>970.2</ele>
        <time>2019-05-12T15:00:53Z</time>
      </trkpt>
      <trkpt lat="38.6683470" lon="-0.6336690">
        <ele>968.8</ele>
        <time>2019-05-12T15:00:57Z</time>
      </trkpt>
      <trkpt lat="38.6682990" lon="-0.6336570">
        <ele>968.8</ele>
        <time>2019-05-12T15:00:58Z</time>
      </trkpt>
      <trkpt lat="38.6679030" lon="-0.6335480">
        <ele>969.2</ele>
        <time>2019-05-12T15:01:07Z</time>
      </trkpt>
      <trkpt lat="38.6678260" lon="-0.6335250">
        <ele>969.8</ele>
        <time>2019-05-12T15:01:09Z</time>
      </trkpt>
      <trkpt lat="38.6677070" lon="-0.6334150">
        <ele>970.8</ele>
        <time>2019-05-12T15:01:13Z</time>
      </trkpt>
      <trkpt lat="38.6676930" lon="-0.6333670">
        <ele>971.2</ele>
        <time>2019-05-12T15:01:14Z</time>
      </trkpt>
      <trkpt lat="38.6676960" lon="-0.6333110">
        <ele>971.4</ele>
        <time>2019-05-12T15:01:15Z</time>
      </trkpt>
      <trkpt lat="38.6677140" lon="-0.6332590">
        <ele>971.2</ele>
        <time>2019-05-12T15:01:16Z</time>
      </trkpt>
      <trkpt lat="38.6678290" lon="-0.6331540">
        <ele>971.2</ele>
        <time>2019-05-12T15:01:19Z</time>
      </trkpt>
      <trkpt lat="38.6679020" lon="-0.6330890">
        <ele>971.0</ele>
        <time>2019-05-12T15:01:21Z</time>
      </trkpt>
      <trkpt lat="38.6679310" lon="-0.6330470">
        <ele>971.0</ele>
        <time>2019-05-12T15:01:22Z</time>
      </trkpt>
      <trkpt lat="38.6679610" lon="-0.6329280">
        <ele>971.0</ele>
        <time>2019-05-12T15:01:24Z</time>
      </trkpt>
      <trkpt lat="38.6679870" lon="-0.6326920">
        <ele>970.2</ele>
        <time>2019-05-12T15:01:28Z</time>
      </trkpt>
      <trkpt lat="38.6680020" lon="-0.6325690">
        <ele>970.2</ele>
        <time>2019-05-12T15:01:30Z</time>
      </trkpt>
      <trkpt lat="38.6679960" lon="-0.6325060">
        <ele>970.0</ele>
        <time>2019-05-12T15:01:31Z</time>
      </trkpt>
      <trkpt lat="38.6679770" lon="-0.6323890">
        <ele>969.8</ele>
        <time>2019-05-12T15:01:33Z</time>
      </trkpt>
      <trkpt lat="38.6679650" lon="-0.6322740">
        <ele>969.4</ele>
        <time>2019-05-12T15:01:35Z</time>
      </trkpt>
      <trkpt lat="38.6679540" lon="-0.6322150">
        <ele>968.6</ele>
        <time>2019-05-12T15:01:36Z</time>
      </trkpt>
      <trkpt lat="38.6679460" lon="-0.6321510">
        <ele>968.2</ele>
        <time>2019-05-12T15:01:37Z</time>
      </trkpt>
      <trkpt lat="38.6679270" lon="-0.6319710">
        <ele>968.2</ele>
        <time>2019-05-12T15:01:40Z</time>
      </trkpt>
      <trkpt lat="38.6679400" lon="-0.6318660">
        <ele>968.0</ele>
        <time>2019-05-12T15:01:42Z</time>
      </trkpt>
      <trkpt lat="38.6680340" lon="-0.6317140">
        <ele>968.2</ele>
        <time>2019-05-12T15:01:45Z</time>
      </trkpt>
      <trkpt lat="38.6680550" lon="-0.6316600">
        <ele>967.8</ele>
        <time>2019-05-12T15:01:46Z</time>
      </trkpt>
      <trkpt lat="38.6680500" lon="-0.6316140">
        <ele>967.4</ele>
        <time>2019-05-12T15:01:47Z</time>
      </trkpt>
      <trkpt lat="38.6680280" lon="-0.6315700">
        <ele>967.4</ele>
        <time>2019-05-12T15:01:48Z</time>
      </trkpt>
      <trkpt lat="38.6679210" lon="-0.6314370">
        <ele>966.2</ele>
        <time>2019-05-12T15:01:51Z</time>
      </trkpt>
      <trkpt lat="38.6678790" lon="-0.6313920">
        <ele>966.0</ele>
        <time>2019-05-12T15:01:52Z</time>
      </trkpt>
      <trkpt lat="38.6678350" lon="-0.6313510">
        <ele>965.8</ele>
        <time>2019-05-12T15:01:53Z</time>
      </trkpt>
      <trkpt lat="38.6676800" lon="-0.6312320">
        <ele>965.2</ele>
        <time>2019-05-12T15:01:56Z</time>
      </trkpt>
      <trkpt lat="38.6676250" lon="-0.6311990">
        <ele>965.2</ele>
        <time>2019-05-12T15:01:57Z</time>
      </trkpt>
      <trkpt lat="38.6673430" lon="-0.6310100">
        <ele>965.0</ele>
        <time>2019-05-12T15:02:03Z</time>
      </trkpt>
      <trkpt lat="38.6670450" lon="-0.6307990">
        <ele>965.4</ele>
        <time>2019-05-12T15:02:10Z</time>
      </trkpt>
      <trkpt lat="38.6670010" lon="-0.6307740">
        <ele>965.2</ele>
        <time>2019-05-12T15:02:11Z</time>
      </trkpt>
      <trkpt lat="38.6667290" lon="-0.6306330">
        <ele>965.0</ele>
        <time>2019-05-12T15:02:17Z</time>
      </trkpt>
      <trkpt lat="38.6666890" lon="-0.6306030">
        <ele>965.6</ele>
        <time>2019-05-12T15:02:18Z</time>
      </trkpt>
      <trkpt lat="38.6666430" lon="-0.6305790">
        <ele>965.4</ele>
        <time>2019-05-12T15:02:19Z</time>
      </trkpt>
      <trkpt lat="38.6664750" lon="-0.6304670">
        <ele>965.4</ele>
        <time>2019-05-12T15:02:23Z</time>
      </trkpt>
      <trkpt lat="38.6664050" lon="-0.6303940">
        <ele>965.2</ele>
        <time>2019-05-12T15:02:25Z</time>
      </trkpt>
      <trkpt lat="38.6663170" lon="-0.6302860">
        <ele>965.4</ele>
        <time>2019-05-12T15:02:28Z</time>
      </trkpt>
      <trkpt lat="38.6661980" lon="-0.6301920">
        <ele>964.8</ele>
        <time>2019-05-12T15:02:31Z</time>
      </trkpt>
      <trkpt lat="38.6661520" lon="-0.6301570">
        <ele>964.8</ele>
        <time>2019-05-12T15:02:32Z</time>
      </trkpt>
      <trkpt lat="38.6660600" lon="-0.6300860">
        <ele>964.0</ele>
        <time>2019-05-12T15:02:34Z</time>
      </trkpt>
      <trkpt lat="38.6659050" lon="-0.6299750">
        <ele>963.6</ele>
        <time>2019-05-12T15:02:37Z</time>
      </trkpt>
      <trkpt lat="38.6658610" lon="-0.6299210">
        <ele>963.2</ele>
        <time>2019-05-12T15:02:38Z</time>
      </trkpt>
      <trkpt lat="38.6658290" lon="-0.6298540">
        <ele>963.0</ele>
        <time>2019-05-12T15:02:39Z</time>
      </trkpt>
      <trkpt lat="38.6657880" lon="-0.6297080">
        <ele>962.4</ele>
        <time>2019-05-12T15:02:41Z</time>
      </trkpt>
      <trkpt lat="38.6657600" lon="-0.6296380">
        <ele>962.4</ele>
        <time>2019-05-12T15:02:42Z</time>
      </trkpt>
      <trkpt lat="38.6656860" lon="-0.6295060">
        <ele>961.8</ele>
        <time>2019-05-12T15:02:44Z</time>
      </trkpt>
      <trkpt lat="38.6656550" lon="-0.6294340">
        <ele>961.4</ele>
        <time>2019-05-12T15:02:45Z</time>
      </trkpt>
      <trkpt lat="38.6656020" lon="-0.6291800">
        <ele>960.6</ele>
        <time>2019-05-12T15:02:48Z</time>
      </trkpt>
      <trkpt lat="38.6655880" lon="-0.6290930">
        <ele>960.0</ele>
        <time>2019-05-12T15:02:49Z</time>
      </trkpt>
      <trkpt lat="38.6655830" lon="-0.6290080">
        <ele>959.4</ele>
        <time>2019-05-12T15:02:50Z</time>
      </trkpt>
      <trkpt lat="38.6655720" lon="-0.6286710">
        <ele>959.0</ele>
        <time>2019-05-12T15:02:54Z</time>
      </trkpt>
      <trkpt lat="38.6655630" lon="-0.6285970">
        <ele>958.8</ele>
        <time>2019-05-12T15:02:55Z</time>
      </trkpt>
      <trkpt lat="38.6655480" lon="-0.6284700">
        <ele>959.4</ele>
        <time>2019-05-12T15:02:57Z</time>
      </trkpt>
      <trkpt lat="38.6655390" lon="-0.6284190">
        <ele>960.2</ele>
        <time>2019-05-12T15:02:58Z</time>
      </trkpt>
      <trkpt lat="38.6655210" lon="-0.6282540">
        <ele>960.4</ele>
        <time>2019-05-12T15:03:01Z</time>
      </trkpt>
      <trkpt lat="38.6655170" lon="-0.6281990">
        <ele>960.8</ele>
        <time>2019-05-12T15:03:02Z</time>
      </trkpt>
      <trkpt lat="38.6655090" lon="-0.6280900">
        <ele>960.8</ele>
        <time>2019-05-12T15:03:04Z</time>
      </trkpt>
      <trkpt lat="38.6654810" lon="-0.6278510">
        <ele>961.0</ele>
        <time>2019-05-12T15:03:08Z</time>
      </trkpt>
      <trkpt lat="38.6654510" lon="-0.6277490">
        <ele>960.8</ele>
        <time>2019-05-12T15:03:10Z</time>
      </trkpt>
      <trkpt lat="38.6653850" lon="-0.6275670">
        <ele>962.0</ele>
        <time>2019-05-12T15:03:14Z</time>
      </trkpt>
      <trkpt lat="38.6653530" lon="-0.6274730">
        <ele>962.2</ele>
        <time>2019-05-12T15:03:16Z</time>
      </trkpt>
      <trkpt lat="38.6653110" lon="-0.6272310">
        <ele>961.8</ele>
        <time>2019-05-12T15:03:20Z</time>
      </trkpt>
      <trkpt lat="38.6653180" lon="-0.6271520">
        <ele>961.4</ele>
        <time>2019-05-12T15:03:21Z</time>
      </trkpt>
      <trkpt lat="38.6653410" lon="-0.6269870">
        <ele>960.4</ele>
        <time>2019-05-12T15:03:23Z</time>
      </trkpt>
      <trkpt lat="38.6653470" lon="-0.6268270">
        <ele>959.2</ele>
        <time>2019-05-12T15:03:25Z</time>
      </trkpt>
      <trkpt lat="38.6653340" lon="-0.6267490">
        <ele>959.2</ele>
        <time>2019-05-12T15:03:26Z</time>
      </trkpt>
      <trkpt lat="38.6652940" lon="-0.6265200">
        <ele>959.2</ele>
        <time>2019-05-12T15:03:29Z</time>
      </trkpt>
      <trkpt lat="38.6652350" lon="-0.6262910">
        <ele>958.0</ele>
        <time>2019-05-12T15:03:32Z</time>
      </trkpt>
      <trkpt lat="38.6652260" lon="-0.6262110">
        <ele>958.2</ele>
        <time>2019-05-12T15:03:33Z</time>
      </trkpt>
      <trkpt lat="38.6652220" lon="-0.6260030">
        <ele>958.4</ele>
        <time>2019-05-12T15:03:36Z</time>
      </trkpt>
      <trkpt lat="38.6652270" lon="-0.6258940">
        <ele>959.0</ele>
        <time>2019-05-12T15:03:38Z</time>
      </trkpt>
      <trkpt lat="38.6652320" lon="-0.6258540">
        <ele>959.4</ele>
        <time>2019-05-12T15:03:39Z</time>
      </trkpt>
      <trkpt lat="38.6652370" lon="-0.6258190">
        <ele>959.6</ele>
        <time>2019-05-12T15:03:40Z</time>
      </trkpt>
      <trkpt lat="38.6652530" lon="-0.6256380">
        <ele>960.4</ele>
        <time>2019-05-12T15:03:44Z</time>
      </trkpt>
      <trkpt lat="38.6652660" lon="-0.6255280">
        <ele>960.2</ele>
        <time>2019-05-12T15:03:46Z</time>
      </trkpt>
      <trkpt lat="38.6652750" lon="-0.6253990">
        <ele>960.4</ele>
        <time>2019-05-12T15:03:48Z</time>
      </trkpt>
      <trkpt lat="38.6652840" lon="-0.6253280">
        <ele>960.2</ele>
        <time>2019-05-12T15:03:49Z</time>
      </trkpt>
      <trkpt lat="38.6653000" lon="-0.6251650">
        <ele>959.2</ele>
        <time>2019-05-12T15:03:51Z</time>
      </trkpt>
      <trkpt lat="38.6653230" lon="-0.6249120">
        <ele>958.0</ele>
        <time>2019-05-12T15:03:54Z</time>
      </trkpt>
      <trkpt lat="38.6653400" lon="-0.6248380">
        <ele>957.6</ele>
        <time>2019-05-12T15:03:55Z</time>
      </trkpt>
      <trkpt lat="38.6653960" lon="-0.6246260">
        <ele>956.4</ele>
        <time>2019-05-12T15:03:58Z</time>
      </trkpt>
      <trkpt lat="38.6654370" lon="-0.6244690">
        <ele>955.0</ele>
        <time>2019-05-12T15:04:00Z</time>
      </trkpt>
      <trkpt lat="38.6654750" lon="-0.6243060">
        <ele>953.8</ele>
        <time>2019-05-12T15:04:02Z</time>
      </trkpt>
      <trkpt lat="38.6655040" lon="-0.6241580">
        <ele>953.8</ele>
        <time>2019-05-12T15:04:04Z</time>
      </trkpt>
      <trkpt lat="38.6655060" lon="-0.6240930">
        <ele>953.8</ele>
        <time>2019-05-12T15:04:05Z</time>
      </trkpt>
      <trkpt lat="38.6654930" lon="-0.6239340">
        <ele>952.8</ele>
        <time>2019-05-12T15:04:08Z</time>
      </trkpt>
      <trkpt lat="38.6654370" lon="-0.6238010">
        <ele>952.4</ele>
        <time>2019-05-12T15:04:12Z</time>
      </trkpt>
      <trkpt lat="38.6654150" lon="-0.6237470">
        <ele>951.8</ele>
        <time>2019-05-12T15:04:13Z</time>
      </trkpt>
      <trkpt lat="38.6653660" lon="-0.6236230">
        <ele>950.4</ele>
        <time>2019-05-12T15:04:15Z</time>
      </trkpt>
      <trkpt lat="38.6653300" lon="-0.6235610">
        <ele>950.0</ele>
        <time>2019-05-12T15:04:16Z</time>
      </trkpt>
      <trkpt lat="38.6652390" lon="-0.6234600">
        <ele>949.4</ele>
        <time>2019-05-12T15:04:18Z</time>
      </trkpt>
      <trkpt lat="38.6651330" lon="-0.6234140">
        <ele>948.8</ele>
        <time>2019-05-12T15:04:20Z</time>
      </trkpt>
      <trkpt lat="38.6649650" lon="-0.6233050">
        <ele>947.8</ele>
        <time>2019-05-12T15:04:23Z</time>
      </trkpt>
      <trkpt lat="38.6648520" lon="-0.6232310">
        <ele>946.8</ele>
        <time>2019-05-12T15:04:25Z</time>
      </trkpt>
      <trkpt lat="38.6646700" lon="-0.6231140">
        <ele>946.6</ele>
        <time>2019-05-12T15:04:29Z</time>
      </trkpt>
      <trkpt lat="38.6645940" lon="-0.6230640">
        <ele>945.4</ele>
        <time>2019-05-12T15:04:31Z</time>
      </trkpt>
      <trkpt lat="38.6644950" lon="-0.6229920">
        <ele>944.2</ele>
        <time>2019-05-12T15:04:33Z</time>
      </trkpt>
      <trkpt lat="38.6643750" lon="-0.6229060">
        <ele>942.4</ele>
        <time>2019-05-12T15:04:35Z</time>
      </trkpt>
      <trkpt lat="38.6643070" lon="-0.6228740">
        <ele>941.8</ele>
        <time>2019-05-12T15:04:36Z</time>
      </trkpt>
      <trkpt lat="38.6642420" lon="-0.6228390">
        <ele>941.2</ele>
        <time>2019-05-12T15:04:37Z</time>
      </trkpt>
      <trkpt lat="38.6640340" lon="-0.6227720">
        <ele>940.0</ele>
        <time>2019-05-12T15:04:40Z</time>
      </trkpt>
      <trkpt lat="38.6639150" lon="-0.6227310">
        <ele>939.4</ele>
        <time>2019-05-12T15:04:42Z</time>
      </trkpt>
      <trkpt lat="38.6637370" lon="-0.6226700">
        <ele>939.0</ele>
        <time>2019-05-12T15:04:45Z</time>
      </trkpt>
      <trkpt lat="38.6636050" lon="-0.6226320">
        <ele>937.4</ele>
        <time>2019-05-12T15:04:47Z</time>
      </trkpt>
      <trkpt lat="38.6635310" lon="-0.6226230">
        <ele>935.2</ele>
        <time>2019-05-12T15:04:48Z</time>
      </trkpt>
      <trkpt lat="38.6634540" lon="-0.6226340">
        <ele>934.6</ele>
        <time>2019-05-12T15:04:49Z</time>
      </trkpt>
      <trkpt lat="38.6632990" lon="-0.6226370">
        <ele>934.0</ele>
        <time>2019-05-12T15:04:51Z</time>
      </trkpt>
      <trkpt lat="38.6632170" lon="-0.6226510">
        <ele>933.6</ele>
        <time>2019-05-12T15:04:52Z</time>
      </trkpt>
      <trkpt lat="38.6630540" lon="-0.6226830">
        <ele>932.8</ele>
        <time>2019-05-12T15:04:54Z</time>
      </trkpt>
      <trkpt lat="38.6629060" lon="-0.6227460">
        <ele>932.0</ele>
        <time>2019-05-12T15:04:56Z</time>
      </trkpt>
      <trkpt lat="38.6628470" lon="-0.6227740">
        <ele>931.6</ele>
        <time>2019-05-12T15:04:57Z</time>
      </trkpt>
      <trkpt lat="38.6627430" lon="-0.6228090">
        <ele>932.2</ele>
        <time>2019-05-12T15:04:59Z</time>
      </trkpt>
      <trkpt lat="38.6626920" lon="-0.6228260">
        <ele>933.0</ele>
        <time>2019-05-12T15:05:00Z</time>
      </trkpt>
      <trkpt lat="38.6623780" lon="-0.6229040">
        <ele>933.4</ele>
        <time>2019-05-12T15:05:06Z</time>
      </trkpt>
      <trkpt lat="38.6623270" lon="-0.6229050">
        <ele>933.0</ele>
        <time>2019-05-12T15:05:07Z</time>
      </trkpt>
      <trkpt lat="38.6622300" lon="-0.6229020">
        <ele>932.8</ele>
        <time>2019-05-12T15:05:09Z</time>
      </trkpt>
      <trkpt lat="38.6620920" lon="-0.6228850">
        <ele>933.2</ele>
        <time>2019-05-12T15:05:12Z</time>
      </trkpt>
      <trkpt lat="38.6620470" lon="-0.6228690">
        <ele>933.6</ele>
        <time>2019-05-12T15:05:13Z</time>
      </trkpt>
      <trkpt lat="38.6618280" lon="-0.6228030">
        <ele>934.0</ele>
        <time>2019-05-12T15:05:18Z</time>
      </trkpt>
      <trkpt lat="38.6617830" lon="-0.6228000">
        <ele>934.2</ele>
        <time>2019-05-12T15:05:19Z</time>
      </trkpt>
      <trkpt lat="38.6617420" lon="-0.6227940">
        <ele>934.2</ele>
        <time>2019-05-12T15:05:20Z</time>
      </trkpt>
      <trkpt lat="38.6616360" lon="-0.6227950">
        <ele>935.4</ele>
        <time>2019-05-12T15:05:23Z</time>
      </trkpt>
      <trkpt lat="38.6615760" lon="-0.6228060">
        <ele>935.8</ele>
        <time>2019-05-12T15:05:25Z</time>
      </trkpt>
      <trkpt lat="38.6615500" lon="-0.6227910">
        <ele>936.0</ele>
        <time>2019-05-12T15:05:26Z</time>
      </trkpt>
      <trkpt lat="38.6614840" lon="-0.6227180">
        <ele>936.0</ele>
        <time>2019-05-12T15:05:29Z</time>
      </trkpt>
      <trkpt lat="38.6613930" lon="-0.6226040">
        <ele>936.6</ele>
        <time>2019-05-12T15:05:34Z</time>
      </trkpt>
      <trkpt lat="38.6613760" lon="-0.6225810">
        <ele>936.8</ele>
        <time>2019-05-12T15:05:35Z</time>
      </trkpt>
      <trkpt lat="38.6613350" lon="-0.6225070">
        <ele>937.8</ele>
        <time>2019-05-12T15:05:38Z</time>
      </trkpt>
      <trkpt lat="38.6612770" lon="-0.6224160">
        <ele>938.0</ele>
        <time>2019-05-12T15:05:41Z</time>
      </trkpt>
      <trkpt lat="38.6612080" lon="-0.6223690">
        <ele>938.8</ele>
        <time>2019-05-12T15:05:44Z</time>
      </trkpt>
      <trkpt lat="38.6611580" lon="-0.6223540">
        <ele>939.2</ele>
        <time>2019-05-12T15:05:46Z</time>
      </trkpt>
      <trkpt lat="38.6611080" lon="-0.6223460">
        <ele>940.0</ele>
        <time>2019-05-12T15:05:48Z</time>
      </trkpt>
      <trkpt lat="38.6609930" lon="-0.6223400">
        <ele>940.6</ele>
        <time>2019-05-12T15:05:52Z</time>
      </trkpt>
      <trkpt lat="38.6607310" lon="-0.6222640">
        <ele>940.4</ele>
        <time>2019-05-12T15:05:59Z</time>
      </trkpt>
      <trkpt lat="38.6606130" lon="-0.6222510">
        <ele>940.2</ele>
        <time>2019-05-12T15:06:02Z</time>
      </trkpt>
      <trkpt lat="38.6605210" lon="-0.6222610">
        <ele>940.2</ele>
        <time>2019-05-12T15:06:04Z</time>
      </trkpt>
      <trkpt lat="38.6602930" lon="-0.6222820">
        <ele>941.2</ele>
        <time>2019-05-12T15:06:10Z</time>
      </trkpt>
      <trkpt lat="38.6601590" lon="-0.6222960">
        <ele>942.2</ele>
        <time>2019-05-12T15:06:15Z</time>
      </trkpt>
      <trkpt lat="38.6600820" lon="-0.6223050">
        <ele>943.0</ele>
        <time>2019-05-12T15:06:18Z</time>
      </trkpt>
      <trkpt lat="38.6600290" lon="-0.6223100">
        <ele>943.4</ele>
        <time>2019-05-12T15:06:20Z</time>
      </trkpt>
      <trkpt lat="38.6598880" lon="-0.6223020">
        <ele>944.2</ele>
        <time>2019-05-12T15:06:25Z</time>
      </trkpt>
      <trkpt lat="38.6598660" lon="-0.6222960">
        <ele>944.6</ele>
        <time>2019-05-12T15:06:26Z</time>
      </trkpt>
      <trkpt lat="38.6597970" lon="-0.6222150">
        <ele>945.6</ele>
        <time>2019-05-12T15:06:30Z</time>
      </trkpt>
      <trkpt lat="38.6597940" lon="-0.6221890">
        <ele>946.0</ele>
        <time>2019-05-12T15:06:31Z</time>
      </trkpt>
      <trkpt lat="38.6597930" lon="-0.6221340">
        <ele>946.6</ele>
        <time>2019-05-12T15:06:33Z</time>
      </trkpt>
      <trkpt lat="38.6597930" lon="-0.6220830">
        <ele>947.6</ele>
        <time>2019-05-12T15:06:35Z</time>
      </trkpt>
      <trkpt lat="38.6597970" lon="-0.6220600">
        <ele>947.8</ele>
        <time>2019-05-12T15:06:36Z</time>
      </trkpt>
      <trkpt lat="38.6598060" lon="-0.6219580">
        <ele>948.4</ele>
        <time>2019-05-12T15:06:41Z</time>
      </trkpt>
      <trkpt lat="38.6598050" lon="-0.6219140">
        <ele>949.0</ele>
        <time>2019-05-12T15:06:43Z</time>
      </trkpt>
      <trkpt lat="38.6597940" lon="-0.6217530">
        <ele>950.0</ele>
        <time>2019-05-12T15:06:48Z</time>
      </trkpt>
      <trkpt lat="38.6597960" lon="-0.6217210">
        <ele>950.0</ele>
        <time>2019-05-12T15:06:49Z</time>
      </trkpt>
      <trkpt lat="38.6597850" lon="-0.6216930">
        <ele>950.0</ele>
        <time>2019-05-12T15:06:50Z</time>
      </trkpt>
      <trkpt lat="38.6597760" lon="-0.6216200">
        <ele>949.8</ele>
        <time>2019-05-12T15:06:52Z</time>
      </trkpt>
      <trkpt lat="38.6597280" lon="-0.6214000">
        <ele>949.4</ele>
        <time>2019-05-12T15:06:57Z</time>
      </trkpt>
      <trkpt lat="38.6597450" lon="-0.6212990">
        <ele>949.0</ele>
        <time>2019-05-12T15:06:59Z</time>
      </trkpt>
      <trkpt lat="38.6597420" lon="-0.6212540">
        <ele>948.8</ele>
        <time>2019-05-12T15:07:00Z</time>
      </trkpt>
      <trkpt lat="38.6597020" lon="-0.6210960">
        <ele>949.0</ele>
        <time>2019-05-12T15:07:04Z</time>
      </trkpt>
      <trkpt lat="38.6595810" lon="-0.6210580">
        <ele>949.4</ele>
        <time>2019-05-12T15:07:07Z</time>
      </trkpt>
      <trkpt lat="38.6594600" lon="-0.6210570">
        <ele>949.0</ele>
        <time>2019-05-12T15:07:10Z</time>
      </trkpt>
      <trkpt lat="38.6593800" lon="-0.6210700">
        <ele>949.2</ele>
        <time>2019-05-12T15:07:12Z</time>
      </trkpt>
      <trkpt lat="38.6591660" lon="-0.6210820">
        <ele>949.2</ele>
        <time>2019-05-12T15:07:17Z</time>
      </trkpt>
      <trkpt lat="38.6591220" lon="-0.6210800">
        <ele>949.0</ele>
        <time>2019-05-12T15:07:18Z</time>
      </trkpt>
      <trkpt lat="38.6590400" lon="-0.6210670">
        <ele>949.4</ele>
        <time>2019-05-12T15:07:20Z</time>
      </trkpt>
      <trkpt lat="38.6589150" lon="-0.6210510">
        <ele>949.8</ele>
        <time>2019-05-12T15:07:23Z</time>
      </trkpt>
      <trkpt lat="38.6588340" lon="-0.6210400">
        <ele>950.0</ele>
        <time>2019-05-12T15:07:25Z</time>
      </trkpt>
      <trkpt lat="38.6587080" lon="-0.6209660">
        <ele>950.6</ele>
        <time>2019-05-12T15:07:29Z</time>
      </trkpt>
      <trkpt lat="38.6586800" lon="-0.6209420">
        <ele>951.2</ele>
        <time>2019-05-12T15:07:30Z</time>
      </trkpt>
      <trkpt lat="38.6585880" lon="-0.6208580">
        <ele>952.2</ele>
        <time>2019-05-12T15:07:34Z</time>
      </trkpt>
      <trkpt lat="38.6585610" lon="-0.6208360">
        <ele>952.6</ele>
        <time>2019-05-12T15:07:35Z</time>
      </trkpt>
      <trkpt lat="38.6583470" lon="-0.6206510">
        <ele>953.0</ele>
        <time>2019-05-12T15:07:42Z</time>
      </trkpt>
      <trkpt lat="38.6581850" lon="-0.6204380">
        <ele>952.6</ele>
        <time>2019-05-12T15:07:48Z</time>
      </trkpt>
      <trkpt lat="38.6580400" lon="-0.6203250">
        <ele>953.2</ele>
        <time>2019-05-12T15:07:53Z</time>
      </trkpt>
      <trkpt lat="38.6578900" lon="-0.6202740">
        <ele>952.4</ele>
        <time>2019-05-12T15:07:57Z</time>
      </trkpt>
      <trkpt lat="38.6578500" lon="-0.6202880">
        <ele>952.2</ele>
        <time>2019-05-12T15:07:58Z</time>
      </trkpt>
      <trkpt lat="38.6577460" lon="-0.6202450">
        <ele>952.0</ele>
        <time>2019-05-12T15:08:01Z</time>
      </trkpt>
      <trkpt lat="38.6576400" lon="-0.6202230">
        <ele>952.8</ele>
        <time>2019-05-12T15:08:04Z</time>
      </trkpt>
      <trkpt lat="38.6575300" lon="-0.6202080">
        <ele>952.8</ele>
        <time>2019-05-12T15:08:07Z</time>
      </trkpt>
      <trkpt lat="38.6574190" lon="-0.6201400">
        <ele>952.6</ele>
        <time>2019-05-12T15:08:10Z</time>
      </trkpt>
      <trkpt lat="38.6573900" lon="-0.6201080">
        <ele>952.6</ele>
        <time>2019-05-12T15:08:11Z</time>
      </trkpt>
      <trkpt lat="38.6573350" lon="-0.6200300">
        <ele>953.2</ele>
        <time>2019-05-12T15:08:14Z</time>
      </trkpt>
      <trkpt lat="38.6573330" lon="-0.6200050">
        <ele>953.6</ele>
        <time>2019-05-12T15:08:15Z</time>
      </trkpt>
      <trkpt lat="38.6573340" lon="-0.6199620">
        <ele>954.4</ele>
        <time>2019-05-12T15:08:17Z</time>
      </trkpt>
      <trkpt lat="38.6573440" lon="-0.6199300">
        <ele>955.4</ele>
        <time>2019-05-12T15:08:19Z</time>
      </trkpt>
      <trkpt lat="38.6573360" lon="-0.6199020">
        <ele>956.2</ele>
        <time>2019-05-12T15:08:21Z</time>
      </trkpt>
      <trkpt lat="38.6573410" lon="-0.6198850">
        <ele>956.8</ele>
        <time>2019-05-12T15:08:22Z</time>
      </trkpt>
      <trkpt lat="38.6573270" lon="-0.6198550">
        <ele>957.4</ele>
        <time>2019-05-12T15:08:24Z</time>
      </trkpt>
      <trkpt lat="38.6573150" lon="-0.6198400">
        <ele>957.8</ele>
        <time>2019-05-12T15:08:25Z</time>
      </trkpt>
      <trkpt lat="38.6572470" lon="-0.6197930">
        <ele>958.8</ele>
        <time>2019-05-12T15:08:30Z</time>
      </trkpt>
      <trkpt lat="38.6571730" lon="-0.6197100">
        <ele>959.2</ele>
        <time>2019-05-12T15:08:36Z</time>
      </trkpt>
      <trkpt lat="38.6571100" lon="-0.6196360">
        <ele>959.8</ele>
        <time>2019-05-12T15:08:41Z</time>
      </trkpt>
      <trkpt lat="38.6570090" lon="-0.6195070">
        <ele>960.4</ele>
        <time>2019-05-12T15:08:47Z</time>
      </trkpt>
      <trkpt lat="38.6569120" lon="-0.6193820">
        <ele>960.0</ele>
        <time>2019-05-12T15:08:52Z</time>
      </trkpt>
      <trkpt lat="38.6568330" lon="-0.6191590">
        <ele>959.6</ele>
        <time>2019-05-12T15:08:58Z</time>
      </trkpt>
      <trkpt lat="38.6568290" lon="-0.6189800">
        <ele>961.0</ele>
        <time>2019-05-12T15:09:03Z</time>
      </trkpt>
      <trkpt lat="38.6567550" lon="-0.6188410">
        <ele>960.4</ele>
        <time>2019-05-12T15:09:07Z</time>
      </trkpt>
      <trkpt lat="38.6566860" lon="-0.6188130">
        <ele>961.8</ele>
        <time>2019-05-12T15:09:11Z</time>
      </trkpt>
      <trkpt lat="38.6566670" lon="-0.6188120">
        <ele>962.2</ele>
        <time>2019-05-12T15:09:12Z</time>
      </trkpt>
      <trkpt lat="38.6566020" lon="-0.6188250">
        <ele>962.4</ele>
        <time>2019-05-12T15:09:14Z</time>
      </trkpt>
      <trkpt lat="38.6565600" lon="-0.6188300">
        <ele>962.0</ele>
        <time>2019-05-12T15:09:15Z</time>
      </trkpt>
      <trkpt lat="38.6564650" lon="-0.6188550">
        <ele>961.6</ele>
        <time>2019-05-12T15:09:17Z</time>
      </trkpt>
      <trkpt lat="38.6563760" lon="-0.6188630">
        <ele>961.4</ele>
        <time>2019-05-12T15:09:19Z</time>
      </trkpt>
      <trkpt lat="38.6563460" lon="-0.6188410">
        <ele>961.6</ele>
        <time>2019-05-12T15:09:20Z</time>
      </trkpt>
      <trkpt lat="38.6562840" lon="-0.6187860">
        <ele>961.4</ele>
        <time>2019-05-12T15:09:22Z</time>
      </trkpt>
      <trkpt lat="38.6562540" lon="-0.6187420">
        <ele>961.2</ele>
        <time>2019-05-12T15:09:23Z</time>
      </trkpt>
      <trkpt lat="38.6562260" lon="-0.6187090">
        <ele>961.0</ele>
        <time>2019-05-12T15:09:24Z</time>
      </trkpt>
      <trkpt lat="38.6561830" lon="-0.6186630">
        <ele>960.6</ele>
        <time>2019-05-12T15:09:26Z</time>
      </trkpt>
      <trkpt lat="38.6561360" lon="-0.6186590">
        <ele>960.6</ele>
        <time>2019-05-12T15:09:28Z</time>
      </trkpt>
      <trkpt lat="38.6561040" lon="-0.6186720">
        <ele>960.2</ele>
        <time>2019-05-12T15:09:29Z</time>
      </trkpt>
      <trkpt lat="38.6560740" lon="-0.6187050">
        <ele>959.6</ele>
        <time>2019-05-12T15:09:30Z</time>
      </trkpt>
      <trkpt lat="38.6560590" lon="-0.6187510">
        <ele>959.0</ele>
        <time>2019-05-12T15:09:31Z</time>
      </trkpt>
      <trkpt lat="38.6560110" lon="-0.6188730">
        <ele>957.4</ele>
        <time>2019-05-12T15:09:33Z</time>
      </trkpt>
      <trkpt lat="38.6559630" lon="-0.6189340">
        <ele>956.2</ele>
        <time>2019-05-12T15:09:34Z</time>
      </trkpt>
      <trkpt lat="38.6558380" lon="-0.6189980">
        <ele>954.4</ele>
        <time>2019-05-12T15:09:36Z</time>
      </trkpt>
      <trkpt lat="38.6557840" lon="-0.6190240">
        <ele>953.6</ele>
        <time>2019-05-12T15:09:37Z</time>
      </trkpt>
      <trkpt lat="38.6557230" lon="-0.6190360">
        <ele>952.6</ele>
        <time>2019-05-12T15:09:38Z</time>
      </trkpt>
      <trkpt lat="38.6556260" lon="-0.6190710">
        <ele>951.2</ele>
        <time>2019-05-12T15:09:40Z</time>
      </trkpt>
      <trkpt lat="38.6555370" lon="-0.6191180">
        <ele>949.6</ele>
        <time>2019-05-12T15:09:42Z</time>
      </trkpt>
      <trkpt lat="38.6554580" lon="-0.6191820">
        <ele>948.4</ele>
        <time>2019-05-12T15:09:44Z</time>
      </trkpt>
      <trkpt lat="38.6553770" lon="-0.6192390">
        <ele>946.8</ele>
        <time>2019-05-12T15:09:46Z</time>
      </trkpt>
      <trkpt lat="38.6553400" lon="-0.6192720">
        <ele>944.4</ele>
        <time>2019-05-12T15:09:47Z</time>
      </trkpt>
      <trkpt lat="38.6553020" lon="-0.6192920">
        <ele>943.6</ele>
        <time>2019-05-12T15:09:48Z</time>
      </trkpt>
      <trkpt lat="38.6552650" lon="-0.6193140">
        <ele>942.8</ele>
        <time>2019-05-12T15:09:49Z</time>
      </trkpt>
      <trkpt lat="38.6551760" lon="-0.6193490">
        <ele>941.2</ele>
        <time>2019-05-12T15:09:51Z</time>
      </trkpt>
      <trkpt lat="38.6550640" lon="-0.6193250">
        <ele>939.6</ele>
        <time>2019-05-12T15:09:53Z</time>
      </trkpt>
      <trkpt lat="38.6549600" lon="-0.6193130">
        <ele>938.0</ele>
        <time>2019-05-12T15:09:55Z</time>
      </trkpt>
      <trkpt lat="38.6548680" lon="-0.6193030">
        <ele>936.8</ele>
        <time>2019-05-12T15:09:57Z</time>
      </trkpt>
      <trkpt lat="38.6548260" lon="-0.6192980">
        <ele>936.0</ele>
        <time>2019-05-12T15:09:58Z</time>
      </trkpt>
      <trkpt lat="38.6547800" lon="-0.6193170">
        <ele>935.4</ele>
        <time>2019-05-12T15:09:59Z</time>
      </trkpt>
      <trkpt lat="38.6546840" lon="-0.6193770">
        <ele>933.8</ele>
        <time>2019-05-12T15:10:01Z</time>
      </trkpt>
      <trkpt lat="38.6546460" lon="-0.6195170">
        <ele>932.4</ele>
        <time>2019-05-12T15:10:03Z</time>
      </trkpt>
      <trkpt lat="38.6546430" lon="-0.6195970">
        <ele>931.8</ele>
        <time>2019-05-12T15:10:04Z</time>
      </trkpt>
      <trkpt lat="38.6546420" lon="-0.6196790">
        <ele>931.4</ele>
        <time>2019-05-12T15:10:05Z</time>
      </trkpt>
      <trkpt lat="38.6546310" lon="-0.6197600">
        <ele>931.2</ele>
        <time>2019-05-12T15:10:06Z</time>
      </trkpt>
      <trkpt lat="38.6546200" lon="-0.6199390">
        <ele>931.0</ele>
        <time>2019-05-12T15:10:08Z</time>
      </trkpt>
      <trkpt lat="38.6546390" lon="-0.6200170">
        <ele>931.0</ele>
        <time>2019-05-12T15:10:09Z</time>
      </trkpt>
      <trkpt lat="38.6547420" lon="-0.6202310">
        <ele>933.4</ele>
        <time>2019-05-12T15:10:13Z</time>
      </trkpt>
      <trkpt lat="38.6547770" lon="-0.6202760">
        <ele>933.4</ele>
        <time>2019-05-12T15:10:14Z</time>
      </trkpt>
      <trkpt lat="38.6548050" lon="-0.6203310">
        <ele>933.6</ele>
        <time>2019-05-12T15:10:15Z</time>
      </trkpt>
      <trkpt lat="38.6548200" lon="-0.6204470">
        <ele>934.2</ele>
        <time>2019-05-12T15:10:17Z</time>
      </trkpt>
      <trkpt lat="38.6548170" lon="-0.6204960">
        <ele>934.4</ele>
        <time>2019-05-12T15:10:18Z</time>
      </trkpt>
      <trkpt lat="38.6548480" lon="-0.6207000">
        <ele>934.0</ele>
        <time>2019-05-12T15:10:21Z</time>
      </trkpt>
      <trkpt lat="38.6548580" lon="-0.6207710">
        <ele>933.4</ele>
        <time>2019-05-12T15:10:22Z</time>
      </trkpt>
      <trkpt lat="38.6548630" lon="-0.6209180">
        <ele>932.0</ele>
        <time>2019-05-12T15:10:24Z</time>
      </trkpt>
      <trkpt lat="38.6548210" lon="-0.6210490">
        <ele>931.0</ele>
        <time>2019-05-12T15:10:26Z</time>
      </trkpt>
      <trkpt lat="38.6547420" lon="-0.6212160">
        <ele>930.6</ele>
        <time>2019-05-12T15:10:29Z</time>
      </trkpt>
      <trkpt lat="38.6546570" lon="-0.6213710">
        <ele>930.4</ele>
        <time>2019-05-12T15:10:32Z</time>
      </trkpt>
      <trkpt lat="38.6546290" lon="-0.6214350">
        <ele>930.2</ele>
        <time>2019-05-12T15:10:33Z</time>
      </trkpt>
      <trkpt lat="38.6546080" lon="-0.6215800">
        <ele>930.0</ele>
        <time>2019-05-12T15:10:35Z</time>
      </trkpt>
      <trkpt lat="38.6545930" lon="-0.6216450">
        <ele>930.2</ele>
        <time>2019-05-12T15:10:36Z</time>
      </trkpt>
      <trkpt lat="38.6545230" lon="-0.6218830">
        <ele>930.0</ele>
        <time>2019-05-12T15:10:40Z</time>
      </trkpt>
      <trkpt lat="38.6544870" lon="-0.6219660">
        <ele>930.8</ele>
        <time>2019-05-12T15:10:42Z</time>
      </trkpt>
      <trkpt lat="38.6544690" lon="-0.6220140">
        <ele>931.0</ele>
        <time>2019-05-12T15:10:43Z</time>
      </trkpt>
      <trkpt lat="38.6544290" lon="-0.6221250">
        <ele>930.4</ele>
        <time>2019-05-12T15:10:45Z</time>
      </trkpt>
      <trkpt lat="38.6544160" lon="-0.6221620">
        <ele>929.8</ele>
        <time>2019-05-12T15:10:46Z</time>
      </trkpt>
      <trkpt lat="38.6543810" lon="-0.6222640">
        <ele>928.6</ele>
        <time>2019-05-12T15:10:49Z</time>
      </trkpt>
      <trkpt lat="38.6543550" lon="-0.6223720">
        <ele>927.2</ele>
        <time>2019-05-12T15:10:51Z</time>
      </trkpt>
      <trkpt lat="38.6543540" lon="-0.6224240">
        <ele>926.2</ele>
        <time>2019-05-12T15:10:52Z</time>
      </trkpt>
      <trkpt lat="38.6543580" lon="-0.6224690">
        <ele>925.4</ele>
        <time>2019-05-12T15:10:53Z</time>
      </trkpt>
      <trkpt lat="38.6543360" lon="-0.6225620">
        <ele>923.8</ele>
        <time>2019-05-12T15:10:55Z</time>
      </trkpt>
      <trkpt lat="38.6543060" lon="-0.6225830">
        <ele>922.8</ele>
        <time>2019-05-12T15:10:56Z</time>
      </trkpt>
      <trkpt lat="38.6542730" lon="-0.6226000">
        <ele>922.2</ele>
        <time>2019-05-12T15:10:57Z</time>
      </trkpt>
      <trkpt lat="38.6542330" lon="-0.6227020">
        <ele>921.2</ele>
        <time>2019-05-12T15:10:59Z</time>
      </trkpt>
      <trkpt lat="38.6542240" lon="-0.6227880">
        <ele>920.6</ele>
        <time>2019-05-12T15:11:00Z</time>
      </trkpt>
      <trkpt lat="38.6542560" lon="-0.6229720">
        <ele>918.8</ele>
        <time>2019-05-12T15:11:02Z</time>
      </trkpt>
      <trkpt lat="38.6542890" lon="-0.6230530">
        <ele>917.6</ele>
        <time>2019-05-12T15:11:03Z</time>
      </trkpt>
      <trkpt lat="38.6543340" lon="-0.6232190">
        <ele>916.8</ele>
        <time>2019-05-12T15:11:05Z</time>
      </trkpt>
      <trkpt lat="38.6543600" lon="-0.6233000">
        <ele>916.6</ele>
        <time>2019-05-12T15:11:06Z</time>
      </trkpt>
      <trkpt lat="38.6543960" lon="-0.6234630">
        <ele>916.8</ele>
        <time>2019-05-12T15:11:08Z</time>
      </trkpt>
      <trkpt lat="38.6544120" lon="-0.6236160">
        <ele>917.0</ele>
        <time>2019-05-12T15:11:10Z</time>
      </trkpt>
      <trkpt lat="38.6544030" lon="-0.6237610">
        <ele>916.6</ele>
        <time>2019-05-12T15:11:12Z</time>
      </trkpt>
      <trkpt lat="38.6543530" lon="-0.6239740">
        <ele>916.6</ele>
        <time>2019-05-12T15:11:15Z</time>
      </trkpt>
      <trkpt lat="38.6543140" lon="-0.6241120">
        <ele>916.4</ele>
        <time>2019-05-12T15:11:17Z</time>
      </trkpt>
      <trkpt lat="38.6542910" lon="-0.6243320">
        <ele>916.2</ele>
        <time>2019-05-12T15:11:20Z</time>
      </trkpt>
      <trkpt lat="38.6542760" lon="-0.6244020">
        <ele>916.0</ele>
        <time>2019-05-12T15:11:21Z</time>
      </trkpt>
      <trkpt lat="38.6542340" lon="-0.6245350">
        <ele>915.2</ele>
        <time>2019-05-12T15:11:23Z</time>
      </trkpt>
      <trkpt lat="38.6542280" lon="-0.6245980">
        <ele>915.0</ele>
        <time>2019-05-12T15:11:24Z</time>
      </trkpt>
      <trkpt lat="38.6541450" lon="-0.6247810">
        <ele>914.0</ele>
        <time>2019-05-12T15:11:27Z</time>
      </trkpt>
      <trkpt lat="38.6541040" lon="-0.6248260">
        <ele>913.0</ele>
        <time>2019-05-12T15:11:28Z</time>
      </trkpt>
      <trkpt lat="38.6539860" lon="-0.6249890">
        <ele>913.4</ele>
        <time>2019-05-12T15:11:31Z</time>
      </trkpt>
      <trkpt lat="38.6539260" lon="-0.6251160">
        <ele>913.2</ele>
        <time>2019-05-12T15:11:33Z</time>
      </trkpt>
      <trkpt lat="38.6538500" lon="-0.6252290">
        <ele>912.2</ele>
        <time>2019-05-12T15:11:35Z</time>
      </trkpt>
      <trkpt lat="38.6538000" lon="-0.6252830">
        <ele>911.4</ele>
        <time>2019-05-12T15:11:36Z</time>
      </trkpt>
      <trkpt lat="38.6537710" lon="-0.6253310">
        <ele>911.0</ele>
        <time>2019-05-12T15:11:37Z</time>
      </trkpt>
      <trkpt lat="38.6537140" lon="-0.6254350">
        <ele>910.2</ele>
        <time>2019-05-12T15:11:39Z</time>
      </trkpt>
      <trkpt lat="38.6536470" lon="-0.6255250">
        <ele>909.2</ele>
        <time>2019-05-12T15:11:41Z</time>
      </trkpt>
      <trkpt lat="38.6535800" lon="-0.6256380">
        <ele>908.0</ele>
        <time>2019-05-12T15:11:43Z</time>
      </trkpt>
      <trkpt lat="38.6535010" lon="-0.6257590">
        <ele>907.8</ele>
        <time>2019-05-12T15:11:45Z</time>
      </trkpt>
      <trkpt lat="38.6534680" lon="-0.6258110">
        <ele>907.6</ele>
        <time>2019-05-12T15:11:46Z</time>
      </trkpt>
      <trkpt lat="38.6533960" lon="-0.6259020">
        <ele>907.2</ele>
        <time>2019-05-12T15:11:48Z</time>
      </trkpt>
      <trkpt lat="38.6533650" lon="-0.6259340">
        <ele>906.8</ele>
        <time>2019-05-12T15:11:49Z</time>
      </trkpt>
      <trkpt lat="38.6533350" lon="-0.6259840">
        <ele>906.0</ele>
        <time>2019-05-12T15:11:50Z</time>
      </trkpt>
      <trkpt lat="38.6533150" lon="-0.6260520">
        <ele>905.2</ele>
        <time>2019-05-12T15:11:51Z</time>
      </trkpt>
      <trkpt lat="38.6532780" lon="-0.6261100">
        <ele>904.6</ele>
        <time>2019-05-12T15:11:52Z</time>
      </trkpt>
      <trkpt lat="38.6532290" lon="-0.6261610">
        <ele>902.4</ele>
        <time>2019-05-12T15:11:53Z</time>
      </trkpt>
      <trkpt lat="38.6531160" lon="-0.6262390">
        <ele>901.8</ele>
        <time>2019-05-12T15:11:55Z</time>
      </trkpt>
      <trkpt lat="38.6530080" lon="-0.6263260">
        <ele>901.4</ele>
        <time>2019-05-12T15:11:57Z</time>
      </trkpt>
      <trkpt lat="38.6529470" lon="-0.6263540">
        <ele>901.2</ele>
        <time>2019-05-12T15:11:58Z</time>
      </trkpt>
      <trkpt lat="38.6528270" lon="-0.6264150">
        <ele>901.2</ele>
        <time>2019-05-12T15:12:00Z</time>
      </trkpt>
      <trkpt lat="38.6524870" lon="-0.6264960">
        <ele>901.8</ele>
        <time>2019-05-12T15:12:06Z</time>
      </trkpt>
      <trkpt lat="38.6523800" lon="-0.6264890">
        <ele>902.4</ele>
        <time>2019-05-12T15:12:08Z</time>
      </trkpt>
      <trkpt lat="38.6523270" lon="-0.6264760">
        <ele>902.8</ele>
        <time>2019-05-12T15:12:09Z</time>
      </trkpt>
      <trkpt lat="38.6521640" lon="-0.6264310">
        <ele>902.4</ele>
        <time>2019-05-12T15:12:12Z</time>
      </trkpt>
      <trkpt lat="38.6519990" lon="-0.6265150">
        <ele>902.0</ele>
        <time>2019-05-12T15:12:15Z</time>
      </trkpt>
      <trkpt lat="38.6518730" lon="-0.6267240">
        <ele>902.4</ele>
        <time>2019-05-12T15:12:19Z</time>
      </trkpt>
      <trkpt lat="38.6518550" lon="-0.6267830">
        <ele>902.8</ele>
        <time>2019-05-12T15:12:20Z</time>
      </trkpt>
      <trkpt lat="38.6518180" lon="-0.6268830">
        <ele>903.2</ele>
        <time>2019-05-12T15:12:22Z</time>
      </trkpt>
      <trkpt lat="38.6517730" lon="-0.6269860">
        <ele>903.4</ele>
        <time>2019-05-12T15:12:24Z</time>
      </trkpt>
      <trkpt lat="38.6517100" lon="-0.6271190">
        <ele>902.8</ele>
        <time>2019-05-12T15:12:26Z</time>
      </trkpt>
      <trkpt lat="38.6516570" lon="-0.6272450">
        <ele>901.8</ele>
        <time>2019-05-12T15:12:28Z</time>
      </trkpt>
      <trkpt lat="38.6515390" lon="-0.6273670">
        <ele>901.8</ele>
        <time>2019-05-12T15:12:31Z</time>
      </trkpt>
      <trkpt lat="38.6514070" lon="-0.6273690">
        <ele>902.2</ele>
        <time>2019-05-12T15:12:34Z</time>
      </trkpt>
      <trkpt lat="38.6513660" lon="-0.6273830">
        <ele>902.6</ele>
        <time>2019-05-12T15:12:35Z</time>
      </trkpt>
      <trkpt lat="38.6512710" lon="-0.6274600">
        <ele>902.2</ele>
        <time>2019-05-12T15:12:37Z</time>
      </trkpt>
      <trkpt lat="38.6512210" lon="-0.6275020">
        <ele>901.8</ele>
        <time>2019-05-12T15:12:38Z</time>
      </trkpt>
      <trkpt lat="38.6510300" lon="-0.6276690">
        <ele>900.6</ele>
        <time>2019-05-12T15:12:42Z</time>
      </trkpt>
      <trkpt lat="38.6509770" lon="-0.6277060">
        <ele>900.4</ele>
        <time>2019-05-12T15:12:43Z</time>
      </trkpt>
      <trkpt lat="38.6508770" lon="-0.6277700">
        <ele>900.0</ele>
        <time>2019-05-12T15:12:45Z</time>
      </trkpt>
      <trkpt lat="38.6507620" lon="-0.6277980">
        <ele>899.8</ele>
        <time>2019-05-12T15:12:47Z</time>
      </trkpt>
      <trkpt lat="38.6506590" lon="-0.6278380">
        <ele>899.6</ele>
        <time>2019-05-12T15:12:49Z</time>
      </trkpt>
      <trkpt lat="38.6504460" lon="-0.6278980">
        <ele>899.8</ele>
        <time>2019-05-12T15:12:53Z</time>
      </trkpt>
      <trkpt lat="38.6502330" lon="-0.6278780">
        <ele>900.2</ele>
        <time>2019-05-12T15:12:57Z</time>
      </trkpt>
      <trkpt lat="38.6502020" lon="-0.6279070">
        <ele>900.8</ele>
        <time>2019-05-12T15:12:58Z</time>
      </trkpt>
      <trkpt lat="38.6501460" lon="-0.6280060">
        <ele>901.6</ele>
        <time>2019-05-12T15:13:00Z</time>
      </trkpt>
      <trkpt lat="38.6500960" lon="-0.6281360">
        <ele>901.0</ele>
        <time>2019-05-12T15:13:02Z</time>
      </trkpt>
      <trkpt lat="38.6500190" lon="-0.6283260">
        <ele>900.6</ele>
        <time>2019-05-12T15:13:05Z</time>
      </trkpt>
      <trkpt lat="38.6500030" lon="-0.6284180">
        <ele>900.6</ele>
        <time>2019-05-12T15:13:06Z</time>
      </trkpt>
      <trkpt lat="38.6499140" lon="-0.6285350">
        <ele>899.6</ele>
        <time>2019-05-12T15:13:08Z</time>
      </trkpt>
      <trkpt lat="38.6498180" lon="-0.6286390">
        <ele>899.0</ele>
        <time>2019-05-12T15:13:10Z</time>
      </trkpt>
      <trkpt lat="38.6497680" lon="-0.6286870">
        <ele>898.6</ele>
        <time>2019-05-12T15:13:11Z</time>
      </trkpt>
      <trkpt lat="38.6496760" lon="-0.6287800">
        <ele>898.2</ele>
        <time>2019-05-12T15:13:13Z</time>
      </trkpt>
      <trkpt lat="38.6495850" lon="-0.6288790">
        <ele>898.0</ele>
        <time>2019-05-12T15:13:15Z</time>
      </trkpt>
      <trkpt lat="38.6494870" lon="-0.6289830">
        <ele>897.4</ele>
        <time>2019-05-12T15:13:17Z</time>
      </trkpt>
      <trkpt lat="38.6494350" lon="-0.6290220">
        <ele>897.0</ele>
        <time>2019-05-12T15:13:18Z</time>
      </trkpt>
      <trkpt lat="38.6492650" lon="-0.6291230">
        <ele>896.2</ele>
        <time>2019-05-12T15:13:21Z</time>
      </trkpt>
      <trkpt lat="38.6492220" lon="-0.6291310">
        <ele>895.8</ele>
        <time>2019-05-12T15:13:22Z</time>
      </trkpt>
      <trkpt lat="38.6491510" lon="-0.6290820">
        <ele>896.4</ele>
        <time>2019-05-12T15:13:25Z</time>
      </trkpt>
      <trkpt lat="38.6491080" lon="-0.6290720">
        <ele>897.4</ele>
        <time>2019-05-12T15:13:27Z</time>
      </trkpt>
      <trkpt lat="38.6490390" lon="-0.6290380">
        <ele>898.8</ele>
        <time>2019-05-12T15:13:30Z</time>
      </trkpt>
      <trkpt lat="38.6489620" lon="-0.6290130">
        <ele>900.0</ele>
        <time>2019-05-12T15:13:33Z</time>
      </trkpt>
      <trkpt lat="38.6489080" lon="-0.6289970">
        <ele>900.4</ele>
        <time>2019-05-12T15:13:35Z</time>
      </trkpt>
      <trkpt lat="38.6488600" lon="-0.6289670">
        <ele>901.0</ele>
        <time>2019-05-12T15:13:37Z</time>
      </trkpt>
      <trkpt lat="38.6488400" lon="-0.6289500">
        <ele>901.2</ele>
        <time>2019-05-12T15:13:38Z</time>
      </trkpt>
      <trkpt lat="38.6487600" lon="-0.6289060">
        <ele>902.2</ele>
        <time>2019-05-12T15:13:42Z</time>
      </trkpt>
      <trkpt lat="38.6487390" lon="-0.6289050">
        <ele>902.4</ele>
        <time>2019-05-12T15:13:43Z</time>
      </trkpt>
      <trkpt lat="38.6486330" lon="-0.6289000">
        <ele>902.6</ele>
        <time>2019-05-12T15:13:47Z</time>
      </trkpt>
      <trkpt lat="38.6485450" lon="-0.6288910">
        <ele>902.0</ele>
        <time>2019-05-12T15:13:49Z</time>
      </trkpt>
      <trkpt lat="38.6484650" lon="-0.6288370">
        <ele>901.2</ele>
        <time>2019-05-12T15:13:51Z</time>
      </trkpt>
      <trkpt lat="38.6483380" lon="-0.6287910">
        <ele>899.8</ele>
        <time>2019-05-12T15:13:54Z</time>
      </trkpt>
      <trkpt lat="38.6482910" lon="-0.6287540">
        <ele>899.0</ele>
        <time>2019-05-12T15:13:55Z</time>
      </trkpt>
      <trkpt lat="38.6482450" lon="-0.6287060">
        <ele>898.2</ele>
        <time>2019-05-12T15:13:56Z</time>
      </trkpt>
      <trkpt lat="38.6481990" lon="-0.6286580">
        <ele>897.6</ele>
        <time>2019-05-12T15:13:57Z</time>
      </trkpt>
      <trkpt lat="38.6481560" lon="-0.6286250">
        <ele>897.2</ele>
        <time>2019-05-12T15:13:58Z</time>
      </trkpt>
      <trkpt lat="38.6481190" lon="-0.6286010">
        <ele>896.6</ele>
        <time>2019-05-12T15:13:59Z</time>
      </trkpt>
      <trkpt lat="38.6480660" lon="-0.6285770">
        <ele>895.6</ele>
        <time>2019-05-12T15:14:00Z</time>
      </trkpt>
      <trkpt lat="38.6479470" lon="-0.6285090">
        <ele>893.8</ele>
        <time>2019-05-12T15:14:02Z</time>
      </trkpt>
      <trkpt lat="38.6478930" lon="-0.6284660">
        <ele>893.0</ele>
        <time>2019-05-12T15:14:03Z</time>
      </trkpt>
      <trkpt lat="38.6478390" lon="-0.6284440">
        <ele>892.6</ele>
        <time>2019-05-12T15:14:04Z</time>
      </trkpt>
      <trkpt lat="38.6477470" lon="-0.6284520">
        <ele>892.6</ele>
        <time>2019-05-12T15:14:06Z</time>
      </trkpt>
      <trkpt lat="38.6475940" lon="-0.6285790">
        <ele>891.8</ele>
        <time>2019-05-12T15:14:10Z</time>
      </trkpt>
      <trkpt lat="38.6475560" lon="-0.6286380">
        <ele>890.6</ele>
        <time>2019-05-12T15:14:11Z</time>
      </trkpt>
      <trkpt lat="38.6475300" lon="-0.6287130">
        <ele>889.4</ele>
        <time>2019-05-12T15:14:12Z</time>
      </trkpt>
      <trkpt lat="38.6474900" lon="-0.6287760">
        <ele>888.2</ele>
        <time>2019-05-12T15:14:13Z</time>
      </trkpt>
      <trkpt lat="38.6474380" lon="-0.6288450">
        <ele>887.0</ele>
        <time>2019-05-12T15:14:14Z</time>
      </trkpt>
      <trkpt lat="38.6473290" lon="-0.6289870">
        <ele>884.8</ele>
        <time>2019-05-12T15:14:16Z</time>
      </trkpt>
      <trkpt lat="38.6472800" lon="-0.6290660">
        <ele>883.6</ele>
        <time>2019-05-12T15:14:17Z</time>
      </trkpt>
      <trkpt lat="38.6472320" lon="-0.6291320">
        <ele>882.8</ele>
        <time>2019-05-12T15:14:18Z</time>
      </trkpt>
      <trkpt lat="38.6471800" lon="-0.6291890">
        <ele>882.2</ele>
        <time>2019-05-12T15:14:19Z</time>
      </trkpt>
      <trkpt lat="38.6470950" lon="-0.6293290">
        <ele>881.4</ele>
        <time>2019-05-12T15:14:21Z</time>
      </trkpt>
      <trkpt lat="38.6470670" lon="-0.6293880">
        <ele>880.8</ele>
        <time>2019-05-12T15:14:22Z</time>
      </trkpt>
      <trkpt lat="38.6470530" lon="-0.6294500">
        <ele>879.2</ele>
        <time>2019-05-12T15:14:23Z</time>
      </trkpt>
      <trkpt lat="38.6470570" lon="-0.6295070">
        <ele>878.4</ele>
        <time>2019-05-12T15:14:24Z</time>
      </trkpt>
      <trkpt lat="38.6470700" lon="-0.6295630">
        <ele>877.8</ele>
        <time>2019-05-12T15:14:25Z</time>
      </trkpt>
      <trkpt lat="38.6470660" lon="-0.6296430">
        <ele>877.0</ele>
        <time>2019-05-12T15:14:27Z</time>
      </trkpt>
      <trkpt lat="38.6470630" lon="-0.6296710">
        <ele>876.2</ele>
        <time>2019-05-12T15:14:28Z</time>
      </trkpt>
      <trkpt lat="38.6470440" lon="-0.6297430">
        <ele>874.8</ele>
        <time>2019-05-12T15:14:30Z</time>
      </trkpt>
      <trkpt lat="38.6470190" lon="-0.6298130">
        <ele>873.8</ele>
        <time>2019-05-12T15:14:32Z</time>
      </trkpt>
      <trkpt lat="38.6470040" lon="-0.6298670">
        <ele>872.6</ele>
        <time>2019-05-12T15:14:34Z</time>
      </trkpt>
      <trkpt lat="38.6469850" lon="-0.6299080">
        <ele>871.6</ele>
        <time>2019-05-12T15:14:37Z</time>
      </trkpt>
      <trkpt lat="38.6469440" lon="-0.6299500">
        <ele>870.0</ele>
        <time>2019-05-12T15:14:46Z</time>
      </trkpt>
      <trkpt lat="38.6469150" lon="-0.6299720">
        <ele>868.6</ele>
        <time>2019-05-12T15:14:49Z</time>
      </trkpt>
      <trkpt lat="38.6469010" lon="-0.6299840">
        <ele>867.6</ele>
        <time>2019-05-12T15:14:51Z</time>
      </trkpt>
      <trkpt lat="38.6468910" lon="-0.6299850">
        <ele>867.4</ele>
        <time>2019-05-12T15:14:52Z</time>
      </trkpt>
      <trkpt lat="38.6468580" lon="-0.6299980">
        <ele>866.6</ele>
        <time>2019-05-12T15:14:54Z</time>
      </trkpt>
      <trkpt lat="38.6468220" lon="-0.6300160">
        <ele>865.2</ele>
        <time>2019-05-12T15:14:56Z</time>
      </trkpt>
      <trkpt lat="38.6467820" lon="-0.6300330">
        <ele>864.4</ele>
        <time>2019-05-12T15:15:00Z</time>
      </trkpt>
      <trkpt lat="38.6466710" lon="-0.6300920">
        <ele>863.8</ele>
        <time>2019-05-12T15:15:03Z</time>
      </trkpt>
      <trkpt lat="38.6465480" lon="-0.6302770">
        <ele>863.0</ele>
        <time>2019-05-12T15:15:07Z</time>
      </trkpt>
      <trkpt lat="38.6465120" lon="-0.6303340">
        <ele>862.8</ele>
        <time>2019-05-12T15:15:08Z</time>
      </trkpt>
      <trkpt lat="38.6463950" lon="-0.6305310">
        <ele>860.8</ele>
        <time>2019-05-12T15:15:11Z</time>
      </trkpt>
      <trkpt lat="38.6463530" lon="-0.6305990">
        <ele>860.4</ele>
        <time>2019-05-12T15:15:12Z</time>
      </trkpt>
      <trkpt lat="38.6463020" lon="-0.6306660">
        <ele>859.6</ele>
        <time>2019-05-12T15:15:13Z</time>
      </trkpt>
      <trkpt lat="38.6462450" lon="-0.6307230">
        <ele>858.8</ele>
        <time>2019-05-12T15:15:14Z</time>
      </trkpt>
      <trkpt lat="38.6461800" lon="-0.6307710">
        <ele>858.6</ele>
        <time>2019-05-12T15:15:15Z</time>
      </trkpt>
      <trkpt lat="38.6461180" lon="-0.6308160">
        <ele>858.4</ele>
        <time>2019-05-12T15:15:16Z</time>
      </trkpt>
      <trkpt lat="38.6459970" lon="-0.6308950">
        <ele>857.8</ele>
        <time>2019-05-12T15:15:18Z</time>
      </trkpt>
      <trkpt lat="38.6458610" lon="-0.6308880">
        <ele>857.2</ele>
        <time>2019-05-12T15:15:20Z</time>
      </trkpt>
      <trkpt lat="38.6457360" lon="-0.6307840">
        <ele>856.0</ele>
        <time>2019-05-12T15:15:22Z</time>
      </trkpt>
      <trkpt lat="38.6456890" lon="-0.6307110">
        <ele>855.4</ele>
        <time>2019-05-12T15:15:23Z</time>
      </trkpt>
      <trkpt lat="38.6456470" lon="-0.6306340">
        <ele>854.4</ele>
        <time>2019-05-12T15:15:24Z</time>
      </trkpt>
      <trkpt lat="38.6454890" lon="-0.6305250">
        <ele>853.6</ele>
        <time>2019-05-12T15:15:27Z</time>
      </trkpt>
      <trkpt lat="38.6454010" lon="-0.6305140">
        <ele>854.4</ele>
        <time>2019-05-12T15:15:30Z</time>
      </trkpt>
      <trkpt lat="38.6453580" lon="-0.6305110">
        <ele>854.6</ele>
        <time>2019-05-12T15:16:32Z</time>
      </trkpt>
      <trkpt lat="38.6452640" lon="-0.6304240">
        <ele>854.2</ele>
        <time>2019-05-12T15:16:36Z</time>
      </trkpt>
      <trkpt lat="38.6451200" lon="-0.6302740">
        <ele>853.8</ele>
        <time>2019-05-12T15:16:41Z</time>
      </trkpt>
      <trkpt lat="38.6450460" lon="-0.6301930">
        <ele>853.4</ele>
        <time>2019-05-12T15:16:43Z</time>
      </trkpt>
      <trkpt lat="38.6449860" lon="-0.6300750">
        <ele>852.6</ele>
        <time>2019-05-12T15:16:45Z</time>
      </trkpt>
      <trkpt lat="38.6449570" lon="-0.6300110">
        <ele>852.2</ele>
        <time>2019-05-12T15:16:46Z</time>
      </trkpt>
      <trkpt lat="38.6448680" lon="-0.6298140">
        <ele>851.0</ele>
        <time>2019-05-12T15:16:49Z</time>
      </trkpt>
      <trkpt lat="38.6447990" lon="-0.6297010">
        <ele>850.8</ele>
        <time>2019-05-12T15:16:51Z</time>
      </trkpt>
      <trkpt lat="38.6447570" lon="-0.6296550">
        <ele>850.8</ele>
        <time>2019-05-12T15:16:52Z</time>
      </trkpt>
      <trkpt lat="38.6446490" lon="-0.6296250">
        <ele>850.8</ele>
        <time>2019-05-12T15:16:54Z</time>
      </trkpt>
      <trkpt lat="38.6445190" lon="-0.6296350">
        <ele>850.6</ele>
        <time>2019-05-12T15:16:56Z</time>
      </trkpt>
      <trkpt lat="38.6444460" lon="-0.6296350">
        <ele>850.0</ele>
        <time>2019-05-12T15:16:57Z</time>
      </trkpt>
      <trkpt lat="38.6443680" lon="-0.6296430">
        <ele>849.0</ele>
        <time>2019-05-12T15:16:58Z</time>
      </trkpt>
      <trkpt lat="38.6442910" lon="-0.6296650">
        <ele>848.2</ele>
        <time>2019-05-12T15:16:59Z</time>
      </trkpt>
      <trkpt lat="38.6441410" lon="-0.6297410">
        <ele>846.6</ele>
        <time>2019-05-12T15:17:01Z</time>
      </trkpt>
      <trkpt lat="38.6440680" lon="-0.6297820">
        <ele>846.2</ele>
        <time>2019-05-12T15:17:02Z</time>
      </trkpt>
      <trkpt lat="38.6439910" lon="-0.6298070">
        <ele>846.0</ele>
        <time>2019-05-12T15:17:03Z</time>
      </trkpt>
      <trkpt lat="38.6437780" lon="-0.6298470">
        <ele>845.6</ele>
        <time>2019-05-12T15:17:06Z</time>
      </trkpt>
      <trkpt lat="38.6436450" lon="-0.6298090">
        <ele>845.0</ele>
        <time>2019-05-12T15:17:08Z</time>
      </trkpt>
      <trkpt lat="38.6435850" lon="-0.6297690">
        <ele>845.0</ele>
        <time>2019-05-12T15:17:09Z</time>
      </trkpt>
      <trkpt lat="38.6434360" lon="-0.6295700">
        <ele>843.8</ele>
        <time>2019-05-12T15:17:12Z</time>
      </trkpt>
      <trkpt lat="38.6432260" lon="-0.6292980">
        <ele>843.4</ele>
        <time>2019-05-12T15:17:17Z</time>
      </trkpt>
      <trkpt lat="38.6430370" lon="-0.6289940">
        <ele>845.0</ele>
        <time>2019-05-12T15:17:23Z</time>
      </trkpt>
      <trkpt lat="38.6429950" lon="-0.6289690">
        <ele>845.6</ele>
        <time>2019-05-12T15:17:24Z</time>
      </trkpt>
      <trkpt lat="38.6429180" lon="-0.6289440">
        <ele>846.4</ele>
        <time>2019-05-12T15:17:26Z</time>
      </trkpt>
      <trkpt lat="38.6428450" lon="-0.6289450">
        <ele>846.8</ele>
        <time>2019-05-12T15:17:28Z</time>
      </trkpt>
      <trkpt lat="38.6427510" lon="-0.6289410">
        <ele>847.4</ele>
        <time>2019-05-12T15:17:31Z</time>
      </trkpt>
      <trkpt lat="38.6426660" lon="-0.6289390">
        <ele>848.6</ele>
        <time>2019-05-12T15:17:34Z</time>
      </trkpt>
      <trkpt lat="38.6425260" lon="-0.6289100">
        <ele>849.2</ele>
        <time>2019-05-12T15:17:38Z</time>
      </trkpt>
      <trkpt lat="38.6423290" lon="-0.6288540">
        <ele>847.2</ele>
        <time>2019-05-12T15:17:42Z</time>
      </trkpt>
      <trkpt lat="38.6422740" lon="-0.6288390">
        <ele>846.6</ele>
        <time>2019-05-12T15:17:43Z</time>
      </trkpt>
      <trkpt lat="38.6422180" lon="-0.6288110">
        <ele>844.6</ele>
        <time>2019-05-12T15:17:44Z</time>
      </trkpt>
      <trkpt lat="38.6420980" lon="-0.6287200">
        <ele>843.4</ele>
        <time>2019-05-12T15:17:46Z</time>
      </trkpt>
      <trkpt lat="38.6420210" lon="-0.6286880">
        <ele>842.6</ele>
        <time>2019-05-12T15:17:47Z</time>
      </trkpt>
      <trkpt lat="38.6419440" lon="-0.6286670">
        <ele>841.4</ele>
        <time>2019-05-12T15:17:48Z</time>
      </trkpt>
      <trkpt lat="38.6418730" lon="-0.6286520">
        <ele>839.8</ele>
        <time>2019-05-12T15:17:49Z</time>
      </trkpt>
      <trkpt lat="38.6418030" lon="-0.6286470">
        <ele>838.6</ele>
        <time>2019-05-12T15:17:50Z</time>
      </trkpt>
      <trkpt lat="38.6417260" lon="-0.6286680">
        <ele>837.0</ele>
        <time>2019-05-12T15:17:51Z</time>
      </trkpt>
      <trkpt lat="38.6416540" lon="-0.6287110">
        <ele>836.0</ele>
        <time>2019-05-12T15:17:52Z</time>
      </trkpt>
      <trkpt lat="38.6415260" lon="-0.6288100">
        <ele>834.6</ele>
        <time>2019-05-12T15:17:54Z</time>
      </trkpt>
      <trkpt lat="38.6414120" lon="-0.6289270">
        <ele>834.2</ele>
        <time>2019-05-12T15:17:56Z</time>
      </trkpt>
      <trkpt lat="38.6412280" lon="-0.6290500">
        <ele>834.2</ele>
        <time>2019-05-12T15:17:59Z</time>
      </trkpt>
      <trkpt lat="38.6410930" lon="-0.6290930">
        <ele>834.6</ele>
        <time>2019-05-12T15:18:01Z</time>
      </trkpt>
      <trkpt lat="38.6409630" lon="-0.6290850">
        <ele>835.0</ele>
        <time>2019-05-12T15:18:03Z</time>
      </trkpt>
      <trkpt lat="38.6407480" lon="-0.6289480">
        <ele>835.4</ele>
        <time>2019-05-12T15:18:07Z</time>
      </trkpt>
      <trkpt lat="38.6407060" lon="-0.6289050">
        <ele>835.4</ele>
        <time>2019-05-12T15:18:08Z</time>
      </trkpt>
      <trkpt lat="38.6406730" lon="-0.6288430">
        <ele>835.6</ele>
        <time>2019-05-12T15:18:09Z</time>
      </trkpt>
      <trkpt lat="38.6406320" lon="-0.6287300">
        <ele>835.2</ele>
        <time>2019-05-12T15:18:11Z</time>
      </trkpt>
      <trkpt lat="38.6405040" lon="-0.6285390">
        <ele>834.6</ele>
        <time>2019-05-12T15:18:16Z</time>
      </trkpt>
      <trkpt lat="38.6403290" lon="-0.6284850">
        <ele>834.0</ele>
        <time>2019-05-12T15:18:20Z</time>
      </trkpt>
      <trkpt lat="38.6401250" lon="-0.6285520">
        <ele>834.4</ele>
        <time>2019-05-12T15:18:24Z</time>
      </trkpt>
      <trkpt lat="38.6398300" lon="-0.6286420">
        <ele>833.8</ele>
        <time>2019-05-12T15:18:29Z</time>
      </trkpt>
      <trkpt lat="38.6397700" lon="-0.6286230">
        <ele>833.6</ele>
        <time>2019-05-12T15:18:30Z</time>
      </trkpt>
      <trkpt lat="38.6396440" lon="-0.6285500">
        <ele>833.6</ele>
        <time>2019-05-12T15:18:33Z</time>
      </trkpt>
      <trkpt lat="38.6396020" lon="-0.6285200">
        <ele>834.8</ele>
        <time>2019-05-12T15:18:34Z</time>
      </trkpt>
      <trkpt lat="38.6395640" lon="-0.6285010">
        <ele>835.0</ele>
        <time>2019-05-12T15:18:35Z</time>
      </trkpt>
      <trkpt lat="38.6394310" lon="-0.6284640">
        <ele>835.6</ele>
        <time>2019-05-12T15:18:38Z</time>
      </trkpt>
      <trkpt lat="38.6393830" lon="-0.6284410">
        <ele>835.2</ele>
        <time>2019-05-12T15:18:39Z</time>
      </trkpt>
      <trkpt lat="38.6391670" lon="-0.6283310">
        <ele>834.6</ele>
        <time>2019-05-12T15:18:43Z</time>
      </trkpt>
      <trkpt lat="38.6390620" lon="-0.6282560">
        <ele>834.2</ele>
        <time>2019-05-12T15:18:45Z</time>
      </trkpt>
      <trkpt lat="38.6389860" lon="-0.6281390">
        <ele>834.2</ele>
        <time>2019-05-12T15:18:47Z</time>
      </trkpt>
      <trkpt lat="38.6388610" lon="-0.6279480">
        <ele>834.6</ele>
        <time>2019-05-12T15:18:51Z</time>
      </trkpt>
      <trkpt lat="38.6387470" lon="-0.6278690">
        <ele>835.0</ele>
        <time>2019-05-12T15:18:54Z</time>
      </trkpt>
      <trkpt lat="38.6386870" lon="-0.6278520">
        <ele>834.8</ele>
        <time>2019-05-12T15:18:56Z</time>
      </trkpt>
      <trkpt lat="38.6385740" lon="-0.6279020">
        <ele>835.2</ele>
        <time>2019-05-12T15:19:01Z</time>
      </trkpt>
      <trkpt lat="38.6385050" lon="-0.6279600">
        <ele>835.6</ele>
        <time>2019-05-12T15:19:05Z</time>
      </trkpt>
      <trkpt lat="38.6384760" lon="-0.6279750">
        <ele>835.8</ele>
        <time>2019-05-12T15:19:07Z</time>
      </trkpt>
      <trkpt lat="38.6384060" lon="-0.6280700">
        <ele>835.2</ele>
        <time>2019-05-12T15:19:13Z</time>
      </trkpt>
      <trkpt lat="38.6384240" lon="-0.6281420">
        <ele>835.6</ele>
        <time>2019-05-12T15:19:17Z</time>
      </trkpt>
      <trkpt lat="38.6383850" lon="-0.6282030">
        <ele>836.0</ele>
        <time>2019-05-12T15:19:28Z</time>
      </trkpt>
      <trkpt lat="38.6383680" lon="-0.6282330">
        <ele>835.4</ele>
        <time>2019-05-12T15:19:30Z</time>
      </trkpt>
      <trkpt lat="38.6383400" lon="-0.6283100">
        <ele>835.2</ele>
        <time>2019-05-12T15:19:34Z</time>
      </trkpt>
      <trkpt lat="38.6383170" lon="-0.6283500">
        <ele>835.4</ele>
        <time>2019-05-12T15:19:36Z</time>
      </trkpt>
      <trkpt lat="38.6382840" lon="-0.6284380">
        <ele>835.2</ele>
        <time>2019-05-12T15:19:41Z</time>
      </trkpt>
      <trkpt lat="38.6382750" lon="-0.6284690">
        <ele>835.4</ele>
        <time>2019-05-12T15:19:43Z</time>
      </trkpt>
      <trkpt lat="38.6382650" lon="-0.6285060">
        <ele>835.4</ele>
        <time>2019-05-12T15:19:45Z</time>
      </trkpt>
      <trkpt lat="38.6382410" lon="-0.6285750">
        <ele>835.4</ele>
        <time>2019-05-12T15:20:27Z</time>
      </trkpt>
      <trkpt lat="38.6382200" lon="-0.6286390">
        <ele>835.2</ele>
        <time>2019-05-12T15:20:29Z</time>
      </trkpt>
      <trkpt lat="38.6381480" lon="-0.6288740">
        <ele>835.2</ele>
        <time>2019-05-12T15:20:35Z</time>
      </trkpt>
      <trkpt lat="38.6380800" lon="-0.6291540">
        <ele>835.0</ele>
        <time>2019-05-12T15:20:41Z</time>
      </trkpt>
      <trkpt lat="38.6380060" lon="-0.6294300">
        <ele>835.2</ele>
        <time>2019-05-12T15:20:47Z</time>
      </trkpt>
      <trkpt lat="38.6379690" lon="-0.6295940">
        <ele>834.8</ele>
        <time>2019-05-12T15:20:50Z</time>
      </trkpt>
      <trkpt lat="38.6379170" lon="-0.6297390">
        <ele>835.6</ele>
        <time>2019-05-12T15:20:53Z</time>
      </trkpt>
      <trkpt lat="38.6378990" lon="-0.6297930">
        <ele>835.6</ele>
        <time>2019-05-12T15:20:54Z</time>
      </trkpt>
      <trkpt lat="38.6377970" lon="-0.6300810">
        <ele>835.4</ele>
        <time>2019-05-12T15:20:59Z</time>
      </trkpt>
      <trkpt lat="38.6377750" lon="-0.6301480">
        <ele>835.2</ele>
        <time>2019-05-12T15:21:00Z</time>
      </trkpt>
      <trkpt lat="38.6376840" lon="-0.6304650">
        <ele>835.6</ele>
        <time>2019-05-12T15:21:05Z</time>
      </trkpt>
      <trkpt lat="38.6376500" lon="-0.6305890">
        <ele>835.6</ele>
        <time>2019-05-12T15:21:07Z</time>
      </trkpt>
      <trkpt lat="38.6376050" lon="-0.6307770">
        <ele>835.4</ele>
        <time>2019-05-12T15:21:10Z</time>
      </trkpt>
      <trkpt lat="38.6375400" lon="-0.6309840">
        <ele>834.8</ele>
        <time>2019-05-12T15:21:13Z</time>
      </trkpt>
      <trkpt lat="38.6374570" lon="-0.6312030">
        <ele>833.8</ele>
        <time>2019-05-12T15:21:16Z</time>
      </trkpt>
      <trkpt lat="38.6374330" lon="-0.6312810">
        <ele>833.6</ele>
        <time>2019-05-12T15:21:17Z</time>
      </trkpt>
      <trkpt lat="38.6373720" lon="-0.6314360">
        <ele>833.2</ele>
        <time>2019-05-12T15:21:19Z</time>
      </trkpt>
      <trkpt lat="38.6373080" lon="-0.6315950">
        <ele>832.4</ele>
        <time>2019-05-12T15:21:21Z</time>
      </trkpt>
      <trkpt lat="38.6372100" lon="-0.6318260">
        <ele>831.0</ele>
        <time>2019-05-12T15:21:24Z</time>
      </trkpt>
      <trkpt lat="38.6371680" lon="-0.6318900">
        <ele>830.8</ele>
        <time>2019-05-12T15:21:25Z</time>
      </trkpt>
      <trkpt lat="38.6371220" lon="-0.6319340">
        <ele>830.4</ele>
        <time>2019-05-12T15:21:26Z</time>
      </trkpt>
      <trkpt lat="38.6370240" lon="-0.6321230">
        <ele>830.0</ele>
        <time>2019-05-12T15:21:29Z</time>
      </trkpt>
      <trkpt lat="38.6370020" lon="-0.6322050">
        <ele>829.6</ele>
        <time>2019-05-12T15:21:30Z</time>
      </trkpt>
      <trkpt lat="38.6369060" lon="-0.6323380">
        <ele>828.0</ele>
        <time>2019-05-12T15:21:32Z</time>
      </trkpt>
      <trkpt lat="38.6368650" lon="-0.6324160">
        <ele>827.2</ele>
        <time>2019-05-12T15:21:33Z</time>
      </trkpt>
      <trkpt lat="38.6368350" lon="-0.6324950">
        <ele>826.8</ele>
        <time>2019-05-12T15:21:34Z</time>
      </trkpt>
      <trkpt lat="38.6368130" lon="-0.6326650">
        <ele>826.2</ele>
        <time>2019-05-12T15:21:36Z</time>
      </trkpt>
      <trkpt lat="38.6367330" lon="-0.6327650">
        <ele>826.4</ele>
        <time>2019-05-12T15:21:39Z</time>
      </trkpt>
      <trkpt lat="38.6367150" lon="-0.6328170">
        <ele>825.6</ele>
        <time>2019-05-12T15:21:40Z</time>
      </trkpt>
      <trkpt lat="38.6366850" lon="-0.6328700">
        <ele>825.2</ele>
        <time>2019-05-12T15:21:41Z</time>
      </trkpt>
      <trkpt lat="38.6366710" lon="-0.6329330">
        <ele>824.4</ele>
        <time>2019-05-12T15:21:42Z</time>
      </trkpt>
      <trkpt lat="38.6366120" lon="-0.6331060">
        <ele>823.2</ele>
        <time>2019-05-12T15:21:45Z</time>
      </trkpt>
      <trkpt lat="38.6365900" lon="-0.6331670">
        <ele>823.4</ele>
        <time>2019-05-12T15:21:46Z</time>
      </trkpt>
      <trkpt lat="38.6364800" lon="-0.6334190">
        <ele>822.8</ele>
        <time>2019-05-12T15:21:50Z</time>
      </trkpt>
      <trkpt lat="38.6364530" lon="-0.6334830">
        <ele>822.4</ele>
        <time>2019-05-12T15:21:51Z</time>
      </trkpt>
      <trkpt lat="38.6364160" lon="-0.6335340">
        <ele>822.2</ele>
        <time>2019-05-12T15:21:52Z</time>
      </trkpt>
      <trkpt lat="38.6363590" lon="-0.6336420">
        <ele>822.0</ele>
        <time>2019-05-12T15:21:54Z</time>
      </trkpt>
      <trkpt lat="38.6362550" lon="-0.6338410">
        <ele>821.6</ele>
        <time>2019-05-12T15:21:58Z</time>
      </trkpt>
      <trkpt lat="38.6360680" lon="-0.6341020">
        <ele>821.0</ele>
        <time>2019-05-12T15:22:03Z</time>
      </trkpt>
      <trkpt lat="38.6360470" lon="-0.6341660">
        <ele>821.0</ele>
        <time>2019-05-12T15:22:04Z</time>
      </trkpt>
      <trkpt lat="38.6359860" lon="-0.6342000">
        <ele>820.8</ele>
        <time>2019-05-12T15:22:06Z</time>
      </trkpt>
      <trkpt lat="38.6359240" lon="-0.6343630">
        <ele>820.2</ele>
        <time>2019-05-12T15:22:09Z</time>
      </trkpt>
      <trkpt lat="38.6358780" lon="-0.6345190">
        <ele>819.2</ele>
        <time>2019-05-12T15:22:11Z</time>
      </trkpt>
      <trkpt lat="38.6358380" lon="-0.6346950">
        <ele>817.8</ele>
        <time>2019-05-12T15:22:13Z</time>
      </trkpt>
      <trkpt lat="38.6358060" lon="-0.6347750">
        <ele>817.6</ele>
        <time>2019-05-12T15:22:14Z</time>
      </trkpt>
      <trkpt lat="38.6357370" lon="-0.6349310">
        <ele>816.8</ele>
        <time>2019-05-12T15:22:16Z</time>
      </trkpt>
      <trkpt lat="38.6357150" lon="-0.6350210">
        <ele>816.6</ele>
        <time>2019-05-12T15:22:17Z</time>
      </trkpt>
      <trkpt lat="38.6356340" lon="-0.6352900">
        <ele>816.0</ele>
        <time>2019-05-12T15:22:20Z</time>
      </trkpt>
      <trkpt lat="38.6355910" lon="-0.6354700">
        <ele>815.8</ele>
        <time>2019-05-12T15:22:22Z</time>
      </trkpt>
      <trkpt lat="38.6355740" lon="-0.6355540">
        <ele>815.4</ele>
        <time>2019-05-12T15:22:23Z</time>
      </trkpt>
      <trkpt lat="38.6355160" lon="-0.6358120">
        <ele>815.6</ele>
        <time>2019-05-12T15:22:27Z</time>
      </trkpt>
      <trkpt lat="38.6355010" lon="-0.6359070">
        <ele>815.2</ele>
        <time>2019-05-12T15:22:29Z</time>
      </trkpt>
      <trkpt lat="38.6354630" lon="-0.6360300">
        <ele>814.8</ele>
        <time>2019-05-12T15:22:31Z</time>
      </trkpt>
      <trkpt lat="38.6354670" lon="-0.6360990">
        <ele>814.6</ele>
        <time>2019-05-12T15:22:32Z</time>
      </trkpt>
      <trkpt lat="38.6354670" lon="-0.6361630">
        <ele>814.6</ele>
        <time>2019-05-12T15:22:33Z</time>
      </trkpt>
      <trkpt lat="38.6354720" lon="-0.6362980">
        <ele>814.6</ele>
        <time>2019-05-12T15:22:35Z</time>
      </trkpt>
      <trkpt lat="38.6354670" lon="-0.6363630">
        <ele>814.6</ele>
        <time>2019-05-12T15:22:36Z</time>
      </trkpt>
      <trkpt lat="38.6354690" lon="-0.6364900">
        <ele>814.8</ele>
        <time>2019-05-12T15:22:38Z</time>
      </trkpt>
      <trkpt lat="38.6354820" lon="-0.6366120">
        <ele>815.0</ele>
        <time>2019-05-12T15:22:40Z</time>
      </trkpt>
      <trkpt lat="38.6354700" lon="-0.6368540">
        <ele>814.6</ele>
        <time>2019-05-12T15:22:44Z</time>
      </trkpt>
      <trkpt lat="38.6354510" lon="-0.6369920">
        <ele>814.2</ele>
        <time>2019-05-12T15:22:46Z</time>
      </trkpt>
      <trkpt lat="38.6354220" lon="-0.6371420">
        <ele>813.2</ele>
        <time>2019-05-12T15:22:48Z</time>
      </trkpt>
      <trkpt lat="38.6353990" lon="-0.6373950">
        <ele>812.2</ele>
        <time>2019-05-12T15:22:51Z</time>
      </trkpt>
      <trkpt lat="38.6353960" lon="-0.6374910">
        <ele>812.0</ele>
        <time>2019-05-12T15:22:52Z</time>
      </trkpt>
      <trkpt lat="38.6353910" lon="-0.6376890">
        <ele>810.8</ele>
        <time>2019-05-12T15:22:54Z</time>
      </trkpt>
      <trkpt lat="38.6353880" lon="-0.6378960">
        <ele>809.0</ele>
        <time>2019-05-12T15:22:56Z</time>
      </trkpt>
      <trkpt lat="38.6353860" lon="-0.6379990">
        <ele>808.6</ele>
        <time>2019-05-12T15:22:57Z</time>
      </trkpt>
      <trkpt lat="38.6353700" lon="-0.6382040">
        <ele>808.0</ele>
        <time>2019-05-12T15:22:59Z</time>
      </trkpt>
      <trkpt lat="38.6353250" lon="-0.6386160">
        <ele>807.0</ele>
        <time>2019-05-12T15:23:03Z</time>
      </trkpt>
      <trkpt lat="38.6352720" lon="-0.6389230">
        <ele>805.6</ele>
        <time>2019-05-12T15:23:06Z</time>
      </trkpt>
      <trkpt lat="38.6352390" lon="-0.6392460">
        <ele>804.4</ele>
        <time>2019-05-12T15:23:09Z</time>
      </trkpt>
      <trkpt lat="38.6352350" lon="-0.6394890">
        <ele>802.8</ele>
        <time>2019-05-12T15:23:11Z</time>
      </trkpt>
      <trkpt lat="38.6352310" lon="-0.6396190">
        <ele>801.8</ele>
        <time>2019-05-12T15:23:12Z</time>
      </trkpt>
      <trkpt lat="38.6352300" lon="-0.6397480">
        <ele>800.6</ele>
        <time>2019-05-12T15:23:13Z</time>
      </trkpt>
      <trkpt lat="38.6352280" lon="-0.6398740">
        <ele>799.6</ele>
        <time>2019-05-12T15:23:14Z</time>
      </trkpt>
      <trkpt lat="38.6352180" lon="-0.6400020">
        <ele>799.0</ele>
        <time>2019-05-12T15:23:15Z</time>
      </trkpt>
      <trkpt lat="38.6352070" lon="-0.6402360">
        <ele>797.6</ele>
        <time>2019-05-12T15:23:17Z</time>
      </trkpt>
      <trkpt lat="38.6352080" lon="-0.6403470">
        <ele>797.2</ele>
        <time>2019-05-12T15:23:18Z</time>
      </trkpt>
      <trkpt lat="38.6352080" lon="-0.6405700">
        <ele>796.6</ele>
        <time>2019-05-12T15:23:20Z</time>
      </trkpt>
      <trkpt lat="38.6351910" lon="-0.6406860">
        <ele>796.2</ele>
        <time>2019-05-12T15:23:21Z</time>
      </trkpt>
      <trkpt lat="38.6351560" lon="-0.6407960">
        <ele>795.6</ele>
        <time>2019-05-12T15:23:22Z</time>
      </trkpt>
      <trkpt lat="38.6351110" lon="-0.6409030">
        <ele>795.2</ele>
        <time>2019-05-12T15:23:23Z</time>
      </trkpt>
      <trkpt lat="38.6350260" lon="-0.6411260">
        <ele>794.0</ele>
        <time>2019-05-12T15:23:25Z</time>
      </trkpt>
      <trkpt lat="38.6349940" lon="-0.6412490">
        <ele>793.2</ele>
        <time>2019-05-12T15:23:26Z</time>
      </trkpt>
      <trkpt lat="38.6349700" lon="-0.6413730">
        <ele>792.6</ele>
        <time>2019-05-12T15:23:27Z</time>
      </trkpt>
      <trkpt lat="38.6349280" lon="-0.6417450">
        <ele>791.6</ele>
        <time>2019-05-12T15:23:30Z</time>
      </trkpt>
      <trkpt lat="38.6349230" lon="-0.6418650">
        <ele>791.6</ele>
        <time>2019-05-12T15:23:31Z</time>
      </trkpt>
      <trkpt lat="38.6348970" lon="-0.6424250">
        <ele>791.0</ele>
        <time>2019-05-12T15:23:36Z</time>
      </trkpt>
      <trkpt lat="38.6348800" lon="-0.6426110">
        <ele>791.2</ele>
        <time>2019-05-12T15:23:38Z</time>
      </trkpt>
      <trkpt lat="38.6348190" lon="-0.6427820">
        <ele>791.6</ele>
        <time>2019-05-12T15:23:40Z</time>
      </trkpt>
      <trkpt lat="38.6347190" lon="-0.6430550">
        <ele>790.2</ele>
        <time>2019-05-12T15:23:43Z</time>
      </trkpt>
      <trkpt lat="38.6346630" lon="-0.6432740">
        <ele>789.0</ele>
        <time>2019-05-12T15:23:45Z</time>
      </trkpt>
      <trkpt lat="38.6346200" lon="-0.6435080">
        <ele>787.4</ele>
        <time>2019-05-12T15:23:47Z</time>
      </trkpt>
      <trkpt lat="38.6345750" lon="-0.6437540">
        <ele>785.6</ele>
        <time>2019-05-12T15:23:49Z</time>
      </trkpt>
      <trkpt lat="38.6345470" lon="-0.6438770">
        <ele>785.0</ele>
        <time>2019-05-12T15:23:50Z</time>
      </trkpt>
      <trkpt lat="38.6345240" lon="-0.6439910">
        <ele>784.2</ele>
        <time>2019-05-12T15:23:51Z</time>
      </trkpt>
      <trkpt lat="38.6344780" lon="-0.6442210">
        <ele>783.2</ele>
        <time>2019-05-12T15:23:53Z</time>
      </trkpt>
      <trkpt lat="38.6344370" lon="-0.6444330">
        <ele>782.8</ele>
        <time>2019-05-12T15:23:55Z</time>
      </trkpt>
      <trkpt lat="38.6343290" lon="-0.6449650">
        <ele>783.0</ele>
        <time>2019-05-12T15:24:00Z</time>
      </trkpt>
      <trkpt lat="38.6342930" lon="-0.6450650">
        <ele>782.6</ele>
        <time>2019-05-12T15:24:01Z</time>
      </trkpt>
      <trkpt lat="38.6342530" lon="-0.6451570">
        <ele>782.0</ele>
        <time>2019-05-12T15:24:02Z</time>
      </trkpt>
      <trkpt lat="38.6341860" lon="-0.6453490">
        <ele>781.0</ele>
        <time>2019-05-12T15:24:04Z</time>
      </trkpt>
      <trkpt lat="38.6341340" lon="-0.6455330">
        <ele>780.4</ele>
        <time>2019-05-12T15:24:06Z</time>
      </trkpt>
      <trkpt lat="38.6340430" lon="-0.6459560">
        <ele>781.0</ele>
        <time>2019-05-12T15:24:11Z</time>
      </trkpt>
      <trkpt lat="38.6338820" lon="-0.6465220">
        <ele>780.4</ele>
        <time>2019-05-12T15:24:18Z</time>
      </trkpt>
      <trkpt lat="38.6338180" lon="-0.6466760">
        <ele>779.8</ele>
        <time>2019-05-12T15:24:20Z</time>
      </trkpt>
      <trkpt lat="38.6337530" lon="-0.6468360">
        <ele>778.6</ele>
        <time>2019-05-12T15:24:22Z</time>
      </trkpt>
      <trkpt lat="38.6336700" lon="-0.6470870">
        <ele>778.2</ele>
        <time>2019-05-12T15:24:25Z</time>
      </trkpt>
      <trkpt lat="38.6336020" lon="-0.6473470">
        <ele>777.4</ele>
        <time>2019-05-12T15:24:28Z</time>
      </trkpt>
      <trkpt lat="38.6335580" lon="-0.6476280">
        <ele>776.0</ele>
        <time>2019-05-12T15:24:31Z</time>
      </trkpt>
      <trkpt lat="38.6334910" lon="-0.6479130">
        <ele>774.6</ele>
        <time>2019-05-12T15:24:34Z</time>
      </trkpt>
      <trkpt lat="38.6334620" lon="-0.6481180">
        <ele>774.0</ele>
        <time>2019-05-12T15:24:36Z</time>
      </trkpt>
      <trkpt lat="38.6334280" lon="-0.6483240">
        <ele>773.6</ele>
        <time>2019-05-12T15:24:38Z</time>
      </trkpt>
      <trkpt lat="38.6333660" lon="-0.6487300">
        <ele>772.2</ele>
        <time>2019-05-12T15:24:42Z</time>
      </trkpt>
      <trkpt lat="38.6333320" lon="-0.6490220">
        <ele>772.2</ele>
        <time>2019-05-12T15:24:45Z</time>
      </trkpt>
      <trkpt lat="38.6332720" lon="-0.6495240">
        <ele>772.8</ele>
        <time>2019-05-12T15:24:51Z</time>
      </trkpt>
      <trkpt lat="38.6332620" lon="-0.6496740">
        <ele>773.6</ele>
        <time>2019-05-12T15:24:53Z</time>
      </trkpt>
      <trkpt lat="38.6332090" lon="-0.6499580">
        <ele>773.8</ele>
        <time>2019-05-12T15:24:57Z</time>
      </trkpt>
      <trkpt lat="38.6331660" lon="-0.6503930">
        <ele>772.8</ele>
        <time>2019-05-12T15:25:03Z</time>
      </trkpt>
      <trkpt lat="38.6331690" lon="-0.6504680">
        <ele>772.6</ele>
        <time>2019-05-12T15:25:04Z</time>
      </trkpt>
      <trkpt lat="38.6331280" lon="-0.6507030">
        <ele>771.6</ele>
        <time>2019-05-12T15:25:07Z</time>
      </trkpt>
      <trkpt lat="38.6330800" lon="-0.6507690">
        <ele>771.0</ele>
        <time>2019-05-12T15:25:08Z</time>
      </trkpt>
      <trkpt lat="38.6328790" lon="-0.6509260">
        <ele>769.4</ele>
        <time>2019-05-12T15:25:11Z</time>
      </trkpt>
      <trkpt lat="38.6327530" lon="-0.6510660">
        <ele>767.6</ele>
        <time>2019-05-12T15:25:13Z</time>
      </trkpt>
      <trkpt lat="38.6326960" lon="-0.6511360">
        <ele>765.8</ele>
        <time>2019-05-12T15:25:14Z</time>
      </trkpt>
      <trkpt lat="38.6325980" lon="-0.6512680">
        <ele>765.6</ele>
        <time>2019-05-12T15:25:16Z</time>
      </trkpt>
      <trkpt lat="38.6325250" lon="-0.6513630">
        <ele>767.0</ele>
        <time>2019-05-12T15:25:18Z</time>
      </trkpt>
      <trkpt lat="38.6324480" lon="-0.6514270">
        <ele>767.4</ele>
        <time>2019-05-12T15:25:20Z</time>
      </trkpt>
      <trkpt lat="38.6324020" lon="-0.6515370">
        <ele>767.8</ele>
        <time>2019-05-12T15:25:23Z</time>
      </trkpt>
      <trkpt lat="38.6323970" lon="-0.6515760">
        <ele>768.6</ele>
        <time>2019-05-12T15:25:24Z</time>
      </trkpt>
      <trkpt lat="38.6323860" lon="-0.6516790">
        <ele>769.0</ele>
        <time>2019-05-12T15:25:26Z</time>
      </trkpt>
      <trkpt lat="38.6323760" lon="-0.6517640">
        <ele>768.8</ele>
        <time>2019-05-12T15:25:28Z</time>
      </trkpt>
      <trkpt lat="38.6323540" lon="-0.6518250">
        <ele>769.0</ele>
        <time>2019-05-12T15:25:30Z</time>
      </trkpt>
      <trkpt lat="38.6323030" lon="-0.6518340">
        <ele>768.2</ele>
        <time>2019-05-12T15:25:32Z</time>
      </trkpt>
      <trkpt lat="38.6322740" lon="-0.6517880">
        <ele>768.4</ele>
        <time>2019-05-12T15:25:47Z</time>
      </trkpt>
      <trkpt lat="38.6322380" lon="-0.6517770">
        <ele>768.0</ele>
        <time>2019-05-12T15:25:49Z</time>
      </trkpt>
      <trkpt lat="38.6322060" lon="-0.6517720">
        <ele>768.0</ele>
        <time>2019-05-12T15:25:54Z</time>
      </trkpt>
      <trkpt lat="38.6322140" lon="-0.6517280">
        <ele>768.2</ele>
        <time>2019-05-12T15:30:47Z</time>
      </trkpt>
      <trkpt lat="38.6322270" lon="-0.6517060">
        <ele>768.0</ele>
        <time>2019-05-12T15:30:49Z</time>
      </trkpt>
      <trkpt lat="38.6322410" lon="-0.6517600">
        <ele>768.0</ele>
        <time>2019-05-12T15:30:57Z</time>
      </trkpt>
      <trkpt lat="38.6322520" lon="-0.6517850">
        <ele>767.8</ele>
        <time>2019-05-12T15:30:58Z</time>
      </trkpt>
      <trkpt lat="38.6322710" lon="-0.6518110">
        <ele>767.6</ele>
        <time>2019-05-12T15:30:59Z</time>
      </trkpt>
      <trkpt lat="38.6323390" lon="-0.6518860">
        <ele>767.4</ele>
        <time>2019-05-12T15:31:02Z</time>
      </trkpt>
      <trkpt lat="38.6323510" lon="-0.6520010">
        <ele>767.4</ele>
        <time>2019-05-12T15:31:05Z</time>
      </trkpt>
      <trkpt lat="38.6323490" lon="-0.6520440">
        <ele>767.0</ele>
        <time>2019-05-12T15:31:06Z</time>
      </trkpt>
      <trkpt lat="38.6323440" lon="-0.6520900">
        <ele>766.6</ele>
        <time>2019-05-12T15:31:07Z</time>
      </trkpt>
      <trkpt lat="38.6323470" lon="-0.6523030">
        <ele>767.6</ele>
        <time>2019-05-12T15:31:12Z</time>
      </trkpt>
      <trkpt lat="38.6323530" lon="-0.6525300">
        <ele>768.0</ele>
        <time>2019-05-12T15:31:18Z</time>
      </trkpt>
      <trkpt lat="38.6323530" lon="-0.6527580">
        <ele>767.6</ele>
        <time>2019-05-12T15:31:23Z</time>
      </trkpt>
      <trkpt lat="38.6323460" lon="-0.6530760">
        <ele>767.0</ele>
        <time>2019-05-12T15:31:29Z</time>
      </trkpt>
      <trkpt lat="38.6323390" lon="-0.6532040">
        <ele>766.6</ele>
        <time>2019-05-12T15:31:31Z</time>
      </trkpt>
      <trkpt lat="38.6323350" lon="-0.6532750">
        <ele>765.2</ele>
        <time>2019-05-12T15:31:32Z</time>
      </trkpt>
      <trkpt lat="38.6323220" lon="-0.6534860">
        <ele>764.6</ele>
        <time>2019-05-12T15:31:35Z</time>
      </trkpt>
      <trkpt lat="38.6323200" lon="-0.6535500">
        <ele>764.2</ele>
        <time>2019-05-12T15:31:36Z</time>
      </trkpt>
      <trkpt lat="38.6323150" lon="-0.6536140">
        <ele>763.8</ele>
        <time>2019-05-12T15:31:37Z</time>
      </trkpt>
      <trkpt lat="38.6322880" lon="-0.6538750">
        <ele>763.2</ele>
        <time>2019-05-12T15:31:41Z</time>
      </trkpt>
      <trkpt lat="38.6322810" lon="-0.6539370">
        <ele>763.0</ele>
        <time>2019-05-12T15:31:42Z</time>
      </trkpt>
      <trkpt lat="38.6322740" lon="-0.6539930">
        <ele>763.0</ele>
        <time>2019-05-12T15:31:43Z</time>
      </trkpt>
      <trkpt lat="38.6322200" lon="-0.6541640">
        <ele>762.8</ele>
        <time>2019-05-12T15:31:46Z</time>
      </trkpt>
      <trkpt lat="38.6321660" lon="-0.6543600">
        <ele>762.2</ele>
        <time>2019-05-12T15:31:50Z</time>
      </trkpt>
      <trkpt lat="38.6320740" lon="-0.6545970">
        <ele>762.2</ele>
        <time>2019-05-12T15:31:57Z</time>
      </trkpt>
      <trkpt lat="38.6320440" lon="-0.6546740">
        <ele>761.8</ele>
        <time>2019-05-12T15:31:59Z</time>
      </trkpt>
      <trkpt lat="38.6319970" lon="-0.6548230">
        <ele>761.4</ele>
        <time>2019-05-12T15:32:03Z</time>
      </trkpt>
      <trkpt lat="38.6319630" lon="-0.6550010">
        <ele>760.8</ele>
        <time>2019-05-12T15:32:07Z</time>
      </trkpt>
      <trkpt lat="38.6319530" lon="-0.6551070">
        <ele>760.2</ele>
        <time>2019-05-12T15:32:09Z</time>
      </trkpt>
      <trkpt lat="38.6319520" lon="-0.6553250">
        <ele>759.6</ele>
        <time>2019-05-12T15:32:13Z</time>
      </trkpt>
      <trkpt lat="38.6319380" lon="-0.6554500">
        <ele>759.6</ele>
        <time>2019-05-12T15:32:15Z</time>
      </trkpt>
      <trkpt lat="38.6319240" lon="-0.6555200">
        <ele>759.4</ele>
        <time>2019-05-12T15:32:16Z</time>
      </trkpt>
      <trkpt lat="38.6318550" lon="-0.6557270">
        <ele>758.4</ele>
        <time>2019-05-12T15:32:19Z</time>
      </trkpt>
      <trkpt lat="38.6318270" lon="-0.6557980">
        <ele>758.2</ele>
        <time>2019-05-12T15:32:20Z</time>
      </trkpt>
      <trkpt lat="38.6317280" lon="-0.6560240">
        <ele>756.8</ele>
        <time>2019-05-12T15:32:23Z</time>
      </trkpt>
      <trkpt lat="38.6316570" lon="-0.6561840">
        <ele>755.6</ele>
        <time>2019-05-12T15:32:25Z</time>
      </trkpt>
      <trkpt lat="38.6316240" lon="-0.6562670">
        <ele>754.8</ele>
        <time>2019-05-12T15:32:26Z</time>
      </trkpt>
      <trkpt lat="38.6315910" lon="-0.6563500">
        <ele>754.2</ele>
        <time>2019-05-12T15:32:27Z</time>
      </trkpt>
      <trkpt lat="38.6313120" lon="-0.6570290">
        <ele>753.4</ele>
        <time>2019-05-12T15:32:35Z</time>
      </trkpt>
      <trkpt lat="38.6312030" lon="-0.6572890">
        <ele>753.2</ele>
        <time>2019-05-12T15:32:38Z</time>
      </trkpt>
      <trkpt lat="38.6311350" lon="-0.6574600">
        <ele>752.0</ele>
        <time>2019-05-12T15:32:40Z</time>
      </trkpt>
      <trkpt lat="38.6310340" lon="-0.6577290">
        <ele>750.6</ele>
        <time>2019-05-12T15:32:43Z</time>
      </trkpt>
      <trkpt lat="38.6309690" lon="-0.6579160">
        <ele>749.8</ele>
        <time>2019-05-12T15:32:45Z</time>
      </trkpt>
      <trkpt lat="38.6308420" lon="-0.6583040">
        <ele>749.0</ele>
        <time>2019-05-12T15:32:49Z</time>
      </trkpt>
      <trkpt lat="38.6307830" lon="-0.6585040">
        <ele>747.8</ele>
        <time>2019-05-12T15:32:51Z</time>
      </trkpt>
      <trkpt lat="38.6307530" lon="-0.6586000">
        <ele>747.6</ele>
        <time>2019-05-12T15:32:52Z</time>
      </trkpt>
      <trkpt lat="38.6306980" lon="-0.6588010">
        <ele>746.8</ele>
        <time>2019-05-12T15:32:54Z</time>
      </trkpt>
      <trkpt lat="38.6306130" lon="-0.6591120">
        <ele>745.4</ele>
        <time>2019-05-12T15:32:57Z</time>
      </trkpt>
      <trkpt lat="38.6305300" lon="-0.6594270">
        <ele>744.4</ele>
        <time>2019-05-12T15:33:00Z</time>
      </trkpt>
      <trkpt lat="38.6304630" lon="-0.6597460">
        <ele>742.8</ele>
        <time>2019-05-12T15:33:03Z</time>
      </trkpt>
      <trkpt lat="38.6304240" lon="-0.6599570">
        <ele>741.6</ele>
        <time>2019-05-12T15:33:05Z</time>
      </trkpt>
      <trkpt lat="38.6303910" lon="-0.6601760">
        <ele>741.4</ele>
        <time>2019-05-12T15:33:07Z</time>
      </trkpt>
      <trkpt lat="38.6303220" lon="-0.6606280">
        <ele>740.6</ele>
        <time>2019-05-12T15:33:11Z</time>
      </trkpt>
      <trkpt lat="38.6302660" lon="-0.6609820">
        <ele>739.6</ele>
        <time>2019-05-12T15:33:14Z</time>
      </trkpt>
      <trkpt lat="38.6302270" lon="-0.6612170">
        <ele>738.0</ele>
        <time>2019-05-12T15:33:16Z</time>
      </trkpt>
      <trkpt lat="38.6301540" lon="-0.6616690">
        <ele>737.0</ele>
        <time>2019-05-12T15:33:20Z</time>
      </trkpt>
      <trkpt lat="38.6301150" lon="-0.6618920">
        <ele>736.8</ele>
        <time>2019-05-12T15:33:22Z</time>
      </trkpt>
      <trkpt lat="38.6299870" lon="-0.6626280">
        <ele>736.6</ele>
        <time>2019-05-12T15:33:29Z</time>
      </trkpt>
      <trkpt lat="38.6298230" lon="-0.6632980">
        <ele>736.2</ele>
        <time>2019-05-12T15:33:36Z</time>
      </trkpt>
      <trkpt lat="38.6297940" lon="-0.6633900">
        <ele>736.0</ele>
        <time>2019-05-12T15:33:37Z</time>
      </trkpt>
      <trkpt lat="38.6296770" lon="-0.6637380">
        <ele>737.2</ele>
        <time>2019-05-12T15:33:41Z</time>
      </trkpt>
      <trkpt lat="38.6295610" lon="-0.6640700">
        <ele>738.0</ele>
        <time>2019-05-12T15:33:45Z</time>
      </trkpt>
      <trkpt lat="38.6294370" lon="-0.6644350">
        <ele>738.2</ele>
        <time>2019-05-12T15:33:50Z</time>
      </trkpt>
      <trkpt lat="38.6293890" lon="-0.6645770">
        <ele>739.2</ele>
        <time>2019-05-12T15:33:52Z</time>
      </trkpt>
      <trkpt lat="38.6292580" lon="-0.6649580">
        <ele>740.2</ele>
        <time>2019-05-12T15:33:57Z</time>
      </trkpt>
      <trkpt lat="38.6292040" lon="-0.6651040">
        <ele>740.6</ele>
        <time>2019-05-12T15:33:59Z</time>
      </trkpt>
      <trkpt lat="38.6289940" lon="-0.6656000">
        <ele>739.2</ele>
        <time>2019-05-12T15:34:06Z</time>
      </trkpt>
      <trkpt lat="38.6287740" lon="-0.6660180">
        <ele>738.2</ele>
        <time>2019-05-12T15:34:12Z</time>
      </trkpt>
      <trkpt lat="38.6287000" lon="-0.6661610">
        <ele>737.6</ele>
        <time>2019-05-12T15:34:14Z</time>
      </trkpt>
      <trkpt lat="38.6286260" lon="-0.6663010">
        <ele>737.2</ele>
        <time>2019-05-12T15:34:16Z</time>
      </trkpt>
      <trkpt lat="38.6284280" lon="-0.6666880">
        <ele>736.6</ele>
        <time>2019-05-12T15:34:21Z</time>
      </trkpt>
      <trkpt lat="38.6283010" lon="-0.6669260">
        <ele>736.0</ele>
        <time>2019-05-12T15:34:24Z</time>
      </trkpt>
      <trkpt lat="38.6281290" lon="-0.6672450">
        <ele>735.4</ele>
        <time>2019-05-12T15:34:28Z</time>
      </trkpt>
      <trkpt lat="38.6280440" lon="-0.6674120">
        <ele>734.8</ele>
        <time>2019-05-12T15:34:30Z</time>
      </trkpt>
      <trkpt lat="38.6279160" lon="-0.6676530">
        <ele>733.8</ele>
        <time>2019-05-12T15:34:33Z</time>
      </trkpt>
      <trkpt lat="38.6277880" lon="-0.6678960">
        <ele>732.6</ele>
        <time>2019-05-12T15:34:36Z</time>
      </trkpt>
      <trkpt lat="38.6277080" lon="-0.6680560">
        <ele>731.2</ele>
        <time>2019-05-12T15:34:38Z</time>
      </trkpt>
      <trkpt lat="38.6275000" lon="-0.6684610">
        <ele>731.2</ele>
        <time>2019-05-12T15:34:43Z</time>
      </trkpt>
      <trkpt lat="38.6273700" lon="-0.6687010">
        <ele>729.8</ele>
        <time>2019-05-12T15:34:46Z</time>
      </trkpt>
      <trkpt lat="38.6271910" lon="-0.6690300">
        <ele>728.6</ele>
        <time>2019-05-12T15:34:50Z</time>
      </trkpt>
      <trkpt lat="38.6271030" lon="-0.6692040">
        <ele>727.0</ele>
        <time>2019-05-12T15:34:52Z</time>
      </trkpt>
      <trkpt lat="38.6270090" lon="-0.6693860">
        <ele>725.8</ele>
        <time>2019-05-12T15:34:54Z</time>
      </trkpt>
      <trkpt lat="38.6269110" lon="-0.6695740">
        <ele>724.8</ele>
        <time>2019-05-12T15:34:56Z</time>
      </trkpt>
      <trkpt lat="38.6268080" lon="-0.6697710">
        <ele>723.6</ele>
        <time>2019-05-12T15:34:58Z</time>
      </trkpt>
      <trkpt lat="38.6267020" lon="-0.6699740">
        <ele>722.2</ele>
        <time>2019-05-12T15:35:00Z</time>
      </trkpt>
      <trkpt lat="38.6265920" lon="-0.6701800">
        <ele>720.6</ele>
        <time>2019-05-12T15:35:02Z</time>
      </trkpt>
      <trkpt lat="38.6264800" lon="-0.6703890">
        <ele>719.4</ele>
        <time>2019-05-12T15:35:04Z</time>
      </trkpt>
      <trkpt lat="38.6263630" lon="-0.6706060">
        <ele>718.6</ele>
        <time>2019-05-12T15:35:06Z</time>
      </trkpt>
      <trkpt lat="38.6263040" lon="-0.6707170">
        <ele>717.8</ele>
        <time>2019-05-12T15:35:07Z</time>
      </trkpt>
      <trkpt lat="38.6262460" lon="-0.6708290">
        <ele>716.6</ele>
        <time>2019-05-12T15:35:08Z</time>
      </trkpt>
      <trkpt lat="38.6261300" lon="-0.6710470">
        <ele>715.0</ele>
        <time>2019-05-12T15:35:10Z</time>
      </trkpt>
      <trkpt lat="38.6260190" lon="-0.6712550">
        <ele>713.4</ele>
        <time>2019-05-12T15:35:12Z</time>
      </trkpt>
      <trkpt lat="38.6259650" lon="-0.6713600">
        <ele>712.8</ele>
        <time>2019-05-12T15:35:13Z</time>
      </trkpt>
      <trkpt lat="38.6258550" lon="-0.6715740">
        <ele>712.2</ele>
        <time>2019-05-12T15:35:15Z</time>
      </trkpt>
      <trkpt lat="38.6257450" lon="-0.6717870">
        <ele>711.0</ele>
        <time>2019-05-12T15:35:17Z</time>
      </trkpt>
      <trkpt lat="38.6256280" lon="-0.6719980">
        <ele>709.2</ele>
        <time>2019-05-12T15:35:19Z</time>
      </trkpt>
      <trkpt lat="38.6255680" lon="-0.6721050">
        <ele>708.4</ele>
        <time>2019-05-12T15:35:20Z</time>
      </trkpt>
      <trkpt lat="38.6254580" lon="-0.6723160">
        <ele>708.0</ele>
        <time>2019-05-12T15:35:22Z</time>
      </trkpt>
      <trkpt lat="38.6253200" lon="-0.6726060">
        <ele>707.8</ele>
        <time>2019-05-12T15:35:25Z</time>
      </trkpt>
      <trkpt lat="38.6252520" lon="-0.6729300">
        <ele>707.8</ele>
        <time>2019-05-12T15:35:28Z</time>
      </trkpt>
      <trkpt lat="38.6251040" lon="-0.6732150">
        <ele>707.4</ele>
        <time>2019-05-12T15:35:31Z</time>
      </trkpt>
      <trkpt lat="38.6250260" lon="-0.6735480">
        <ele>706.6</ele>
        <time>2019-05-12T15:35:34Z</time>
      </trkpt>
      <trkpt lat="38.6249070" lon="-0.6741260">
        <ele>705.4</ele>
        <time>2019-05-12T15:35:39Z</time>
      </trkpt>
      <trkpt lat="38.6248820" lon="-0.6742380">
        <ele>704.2</ele>
        <time>2019-05-12T15:35:40Z</time>
      </trkpt>
      <trkpt lat="38.6248580" lon="-0.6743460">
        <ele>703.4</ele>
        <time>2019-05-12T15:35:41Z</time>
      </trkpt>
      <trkpt lat="38.6246960" lon="-0.6750910">
        <ele>703.4</ele>
        <time>2019-05-12T15:35:48Z</time>
      </trkpt>
      <trkpt lat="38.6246730" lon="-0.6751980">
        <ele>703.0</ele>
        <time>2019-05-12T15:35:49Z</time>
      </trkpt>
      <trkpt lat="38.6246490" lon="-0.6753050">
        <ele>702.8</ele>
        <time>2019-05-12T15:35:50Z</time>
      </trkpt>
      <trkpt lat="38.6245530" lon="-0.6757990">
        <ele>702.4</ele>
        <time>2019-05-12T15:35:55Z</time>
      </trkpt>
      <trkpt lat="38.6244030" lon="-0.6765360">
        <ele>703.2</ele>
        <time>2019-05-12T15:36:03Z</time>
      </trkpt>
      <trkpt lat="38.6243630" lon="-0.6767170">
        <ele>704.0</ele>
        <time>2019-05-12T15:36:05Z</time>
      </trkpt>
      <trkpt lat="38.6242750" lon="-0.6771550">
        <ele>705.2</ele>
        <time>2019-05-12T15:36:10Z</time>
      </trkpt>
      <trkpt lat="38.6242580" lon="-0.6772390">
        <ele>705.4</ele>
        <time>2019-05-12T15:36:11Z</time>
      </trkpt>
      <trkpt lat="38.6241970" lon="-0.6775560">
        <ele>706.2</ele>
        <time>2019-05-12T15:36:15Z</time>
      </trkpt>
      <trkpt lat="38.6241340" lon="-0.6778530">
        <ele>707.0</ele>
        <time>2019-05-12T15:36:19Z</time>
      </trkpt>
      <trkpt lat="38.6241030" lon="-0.6780010">
        <ele>707.2</ele>
        <time>2019-05-12T15:36:21Z</time>
      </trkpt>
      <trkpt lat="38.6240310" lon="-0.6783650">
        <ele>707.2</ele>
        <time>2019-05-12T15:36:26Z</time>
      </trkpt>
      <trkpt lat="38.6239760" lon="-0.6786420">
        <ele>708.6</ele>
        <time>2019-05-12T15:36:30Z</time>
      </trkpt>
      <trkpt lat="38.6239130" lon="-0.6789300">
        <ele>709.0</ele>
        <time>2019-05-12T15:36:34Z</time>
      </trkpt>
      <trkpt lat="38.6238530" lon="-0.6792170">
        <ele>709.6</ele>
        <time>2019-05-12T15:36:38Z</time>
      </trkpt>
      <trkpt lat="38.6237620" lon="-0.6796480">
        <ele>710.0</ele>
        <time>2019-05-12T15:36:44Z</time>
      </trkpt>
      <trkpt lat="38.6237160" lon="-0.6798560">
        <ele>711.0</ele>
        <time>2019-05-12T15:36:47Z</time>
      </trkpt>
      <trkpt lat="38.6236620" lon="-0.6801320">
        <ele>712.0</ele>
        <time>2019-05-12T15:36:51Z</time>
      </trkpt>
      <trkpt lat="38.6236470" lon="-0.6802010">
        <ele>712.2</ele>
        <time>2019-05-12T15:36:52Z</time>
      </trkpt>
      <trkpt lat="38.6235310" lon="-0.6807620">
        <ele>712.6</ele>
        <time>2019-05-12T15:37:00Z</time>
      </trkpt>
      <trkpt lat="38.6235000" lon="-0.6809020">
        <ele>713.2</ele>
        <time>2019-05-12T15:37:02Z</time>
      </trkpt>
      <trkpt lat="38.6234170" lon="-0.6812730">
        <ele>713.4</ele>
        <time>2019-05-12T15:37:07Z</time>
      </trkpt>
      <trkpt lat="38.6232720" lon="-0.6819650">
        <ele>712.6</ele>
        <time>2019-05-12T15:37:16Z</time>
      </trkpt>
      <trkpt lat="38.6231550" lon="-0.6826020">
        <ele>712.8</ele>
        <time>2019-05-12T15:37:24Z</time>
      </trkpt>
      <trkpt lat="38.6231250" lon="-0.6832490">
        <ele>713.8</ele>
        <time>2019-05-12T15:37:32Z</time>
      </trkpt>
      <trkpt lat="38.6231730" lon="-0.6837150">
        <ele>714.4</ele>
        <time>2019-05-12T15:37:38Z</time>
      </trkpt>
      <trkpt lat="38.6232640" lon="-0.6843440">
        <ele>715.0</ele>
        <time>2019-05-12T15:37:46Z</time>
      </trkpt>
      <trkpt lat="38.6232350" lon="-0.6847560">
        <ele>714.8</ele>
        <time>2019-05-12T15:37:51Z</time>
      </trkpt>
      <trkpt lat="38.6231570" lon="-0.6850880">
        <ele>713.2</ele>
        <time>2019-05-12T15:37:55Z</time>
      </trkpt>
      <trkpt lat="38.6231020" lon="-0.6852530">
        <ele>713.2</ele>
        <time>2019-05-12T15:37:57Z</time>
      </trkpt>
      <trkpt lat="38.6228980" lon="-0.6858660">
        <ele>712.2</ele>
        <time>2019-05-12T15:38:04Z</time>
      </trkpt>
      <trkpt lat="38.6228660" lon="-0.6859560">
        <ele>711.8</ele>
        <time>2019-05-12T15:38:05Z</time>
      </trkpt>
      <trkpt lat="38.6226250" lon="-0.6866790">
        <ele>711.4</ele>
        <time>2019-05-12T15:38:13Z</time>
      </trkpt>
      <trkpt lat="38.6225970" lon="-0.6867720">
        <ele>711.4</ele>
        <time>2019-05-12T15:38:14Z</time>
      </trkpt>
      <trkpt lat="38.6225400" lon="-0.6869650">
        <ele>710.8</ele>
        <time>2019-05-12T15:38:16Z</time>
      </trkpt>
      <trkpt lat="38.6223710" lon="-0.6875720">
        <ele>710.0</ele>
        <time>2019-05-12T15:38:22Z</time>
      </trkpt>
      <trkpt lat="38.6223390" lon="-0.6876760">
        <ele>709.6</ele>
        <time>2019-05-12T15:38:23Z</time>
      </trkpt>
      <trkpt lat="38.6221560" lon="-0.6881730">
        <ele>708.4</ele>
        <time>2019-05-12T15:38:28Z</time>
      </trkpt>
      <trkpt lat="38.6221140" lon="-0.6882670">
        <ele>708.4</ele>
        <time>2019-05-12T15:38:29Z</time>
      </trkpt>
      <trkpt lat="38.6218770" lon="-0.6888370">
        <ele>708.0</ele>
        <time>2019-05-12T15:38:35Z</time>
      </trkpt>
      <trkpt lat="38.6216560" lon="-0.6894930">
        <ele>709.2</ele>
        <time>2019-05-12T15:38:42Z</time>
      </trkpt>
      <trkpt lat="38.6216260" lon="-0.6895820">
        <ele>709.6</ele>
        <time>2019-05-12T15:38:43Z</time>
      </trkpt>
      <trkpt lat="38.6214150" lon="-0.6902170">
        <ele>709.4</ele>
        <time>2019-05-12T15:38:50Z</time>
      </trkpt>
      <trkpt lat="38.6211670" lon="-0.6907310">
        <ele>709.4</ele>
        <time>2019-05-12T15:38:56Z</time>
      </trkpt>
      <trkpt lat="38.6208680" lon="-0.6913050">
        <ele>710.2</ele>
        <time>2019-05-12T15:39:03Z</time>
      </trkpt>
      <trkpt lat="38.6207810" lon="-0.6914690">
        <ele>709.8</ele>
        <time>2019-05-12T15:39:05Z</time>
      </trkpt>
      <trkpt lat="38.6205410" lon="-0.6919730">
        <ele>710.6</ele>
        <time>2019-05-12T15:39:11Z</time>
      </trkpt>
      <trkpt lat="38.6205060" lon="-0.6920520">
        <ele>711.0</ele>
        <time>2019-05-12T15:39:12Z</time>
      </trkpt>
      <trkpt lat="38.6203220" lon="-0.6925180">
        <ele>711.8</ele>
        <time>2019-05-12T15:39:18Z</time>
      </trkpt>
      <trkpt lat="38.6202960" lon="-0.6925950">
        <ele>712.0</ele>
        <time>2019-05-12T15:39:19Z</time>
      </trkpt>
      <trkpt lat="38.6202050" lon="-0.6929890">
        <ele>713.0</ele>
        <time>2019-05-12T15:39:24Z</time>
      </trkpt>
      <trkpt lat="38.6201930" lon="-0.6930660">
        <ele>713.2</ele>
        <time>2019-05-12T15:39:25Z</time>
      </trkpt>
      <trkpt lat="38.6201270" lon="-0.6935380">
        <ele>714.0</ele>
        <time>2019-05-12T15:39:31Z</time>
      </trkpt>
      <trkpt lat="38.6201060" lon="-0.6936940">
        <ele>714.2</ele>
        <time>2019-05-12T15:39:33Z</time>
      </trkpt>
      <trkpt lat="38.6200670" lon="-0.6939930">
        <ele>715.0</ele>
        <time>2019-05-12T15:39:37Z</time>
      </trkpt>
      <trkpt lat="38.6200380" lon="-0.6942050">
        <ele>715.4</ele>
        <time>2019-05-12T15:39:40Z</time>
      </trkpt>
      <trkpt lat="38.6200040" lon="-0.6944780">
        <ele>716.0</ele>
        <time>2019-05-12T15:39:44Z</time>
      </trkpt>
      <trkpt lat="38.6199840" lon="-0.6946790">
        <ele>716.6</ele>
        <time>2019-05-12T15:39:47Z</time>
      </trkpt>
      <trkpt lat="38.6199530" lon="-0.6949380">
        <ele>717.0</ele>
        <time>2019-05-12T15:39:51Z</time>
      </trkpt>
      <trkpt lat="38.6199390" lon="-0.6950680">
        <ele>717.6</ele>
        <time>2019-05-12T15:39:53Z</time>
      </trkpt>
      <trkpt lat="38.6199270" lon="-0.6951990">
        <ele>718.2</ele>
        <time>2019-05-12T15:39:55Z</time>
      </trkpt>
      <trkpt lat="38.6199020" lon="-0.6955790">
        <ele>718.8</ele>
        <time>2019-05-12T15:40:01Z</time>
      </trkpt>
      <trkpt lat="38.6199010" lon="-0.6957830">
        <ele>719.2</ele>
        <time>2019-05-12T15:40:04Z</time>
      </trkpt>
      <trkpt lat="38.6199050" lon="-0.6961480">
        <ele>719.4</ele>
        <time>2019-05-12T15:40:09Z</time>
      </trkpt>
      <trkpt lat="38.6198730" lon="-0.6966630">
        <ele>718.8</ele>
        <time>2019-05-12T15:40:16Z</time>
      </trkpt>
      <trkpt lat="38.6198170" lon="-0.6973350">
        <ele>719.4</ele>
        <time>2019-05-12T15:40:25Z</time>
      </trkpt>
      <trkpt lat="38.6197990" lon="-0.6974920">
        <ele>719.4</ele>
        <time>2019-05-12T15:40:27Z</time>
      </trkpt>
      <trkpt lat="38.6197460" lon="-0.6978160">
        <ele>719.0</ele>
        <time>2019-05-12T15:40:31Z</time>
      </trkpt>
      <trkpt lat="38.6195480" lon="-0.6985220">
        <ele>719.6</ele>
        <time>2019-05-12T15:40:40Z</time>
      </trkpt>
      <trkpt lat="38.6193590" lon="-0.6990550">
        <ele>719.6</ele>
        <time>2019-05-12T15:40:47Z</time>
      </trkpt>
      <trkpt lat="38.6191130" lon="-0.6994590">
        <ele>719.4</ele>
        <time>2019-05-12T15:40:53Z</time>
      </trkpt>
      <trkpt lat="38.6188670" lon="-0.6997980">
        <ele>720.4</ele>
        <time>2019-05-12T15:40:59Z</time>
      </trkpt>
      <trkpt lat="38.6188310" lon="-0.6998520">
        <ele>720.6</ele>
        <time>2019-05-12T15:41:00Z</time>
      </trkpt>
      <trkpt lat="38.6187170" lon="-0.7000150">
        <ele>721.6</ele>
        <time>2019-05-12T15:41:03Z</time>
      </trkpt>
      <trkpt lat="38.6185300" lon="-0.7002820">
        <ele>722.6</ele>
        <time>2019-05-12T15:41:08Z</time>
      </trkpt>
      <trkpt lat="38.6184270" lon="-0.7004370">
        <ele>723.8</ele>
        <time>2019-05-12T15:41:11Z</time>
      </trkpt>
      <trkpt lat="38.6183000" lon="-0.7006400">
        <ele>724.8</ele>
        <time>2019-05-12T15:41:15Z</time>
      </trkpt>
      <trkpt lat="38.6182690" lon="-0.7006900">
        <ele>724.8</ele>
        <time>2019-05-12T15:41:16Z</time>
      </trkpt>
      <trkpt lat="38.6180880" lon="-0.7010160">
        <ele>725.6</ele>
        <time>2019-05-12T15:41:22Z</time>
      </trkpt>
      <trkpt lat="38.6179970" lon="-0.7011820">
        <ele>726.0</ele>
        <time>2019-05-12T15:41:25Z</time>
      </trkpt>
      <trkpt lat="38.6178130" lon="-0.7015140">
        <ele>727.0</ele>
        <time>2019-05-12T15:41:31Z</time>
      </trkpt>
      <trkpt lat="38.6177830" lon="-0.7015690">
        <ele>727.0</ele>
        <time>2019-05-12T15:41:32Z</time>
      </trkpt>
      <trkpt lat="38.6175800" lon="-0.7019790">
        <ele>727.8</ele>
        <time>2019-05-12T15:41:39Z</time>
      </trkpt>
      <trkpt lat="38.6174970" lon="-0.7021650">
        <ele>728.0</ele>
        <time>2019-05-12T15:41:42Z</time>
      </trkpt>
      <trkpt lat="38.6173700" lon="-0.7025050">
        <ele>727.4</ele>
        <time>2019-05-12T15:41:47Z</time>
      </trkpt>
      <trkpt lat="38.6171900" lon="-0.7030790">
        <ele>727.8</ele>
        <time>2019-05-12T15:41:55Z</time>
      </trkpt>
      <trkpt lat="38.6170700" lon="-0.7036500">
        <ele>727.6</ele>
        <time>2019-05-12T15:42:02Z</time>
      </trkpt>
      <trkpt lat="38.6170290" lon="-0.7038310">
        <ele>726.8</ele>
        <time>2019-05-12T15:42:04Z</time>
      </trkpt>
      <trkpt lat="38.6169420" lon="-0.7041980">
        <ele>726.2</ele>
        <time>2019-05-12T15:42:08Z</time>
      </trkpt>
      <trkpt lat="38.6169110" lon="-0.7042860">
        <ele>725.8</ele>
        <time>2019-05-12T15:42:09Z</time>
      </trkpt>
      <trkpt lat="38.6168730" lon="-0.7043700">
        <ele>725.6</ele>
        <time>2019-05-12T15:42:10Z</time>
      </trkpt>
      <trkpt lat="38.6167830" lon="-0.7045280">
        <ele>725.4</ele>
        <time>2019-05-12T15:42:12Z</time>
      </trkpt>
      <trkpt lat="38.6165280" lon="-0.7048750">
        <ele>724.6</ele>
        <time>2019-05-12T15:42:17Z</time>
      </trkpt>
      <trkpt lat="38.6164760" lon="-0.7049400">
        <ele>724.6</ele>
        <time>2019-05-12T15:42:18Z</time>
      </trkpt>
      <trkpt lat="38.6161690" lon="-0.7053370">
        <ele>725.0</ele>
        <time>2019-05-12T15:42:24Z</time>
      </trkpt>
      <trkpt lat="38.6157800" lon="-0.7058510">
        <ele>725.6</ele>
        <time>2019-05-12T15:42:32Z</time>
      </trkpt>
      <trkpt lat="38.6155440" lon="-0.7061700">
        <ele>726.0</ele>
        <time>2019-05-12T15:42:37Z</time>
      </trkpt>
      <trkpt lat="38.6154100" lon="-0.7063620">
        <ele>726.6</ele>
        <time>2019-05-12T15:42:40Z</time>
      </trkpt>
      <trkpt lat="38.6152830" lon="-0.7065380">
        <ele>727.2</ele>
        <time>2019-05-12T15:42:43Z</time>
      </trkpt>
      <trkpt lat="38.6151170" lon="-0.7067520">
        <ele>728.2</ele>
        <time>2019-05-12T15:42:47Z</time>
      </trkpt>
      <trkpt lat="38.6150330" lon="-0.7068500">
        <ele>728.8</ele>
        <time>2019-05-12T15:42:49Z</time>
      </trkpt>
      <trkpt lat="38.6149900" lon="-0.7068950">
        <ele>729.0</ele>
        <time>2019-05-12T15:42:50Z</time>
      </trkpt>
      <trkpt lat="38.6149460" lon="-0.7069400">
        <ele>729.6</ele>
        <time>2019-05-12T15:42:51Z</time>
      </trkpt>
      <trkpt lat="38.6147660" lon="-0.7071390">
        <ele>729.8</ele>
        <time>2019-05-12T15:42:55Z</time>
      </trkpt>
      <trkpt lat="38.6143340" lon="-0.7076030">
        <ele>729.8</ele>
        <time>2019-05-12T15:43:04Z</time>
      </trkpt>
      <trkpt lat="38.6141450" lon="-0.7078060">
        <ele>730.6</ele>
        <time>2019-05-12T15:43:08Z</time>
      </trkpt>
      <trkpt lat="38.6138730" lon="-0.7081000">
        <ele>730.6</ele>
        <time>2019-05-12T15:43:14Z</time>
      </trkpt>
      <trkpt lat="38.6136590" lon="-0.7083250">
        <ele>731.8</ele>
        <time>2019-05-12T15:43:19Z</time>
      </trkpt>
      <trkpt lat="38.6136190" lon="-0.7083750">
        <ele>732.0</ele>
        <time>2019-05-12T15:43:20Z</time>
      </trkpt>
      <trkpt lat="38.6135390" lon="-0.7084800">
        <ele>732.0</ele>
        <time>2019-05-12T15:43:22Z</time>
      </trkpt>
      <trkpt lat="38.6134110" lon="-0.7087060">
        <ele>732.4</ele>
        <time>2019-05-12T15:43:26Z</time>
      </trkpt>
      <trkpt lat="38.6133240" lon="-0.7088800">
        <ele>733.0</ele>
        <time>2019-05-12T15:43:29Z</time>
      </trkpt>
      <trkpt lat="38.6132310" lon="-0.7091320">
        <ele>734.0</ele>
        <time>2019-05-12T15:43:33Z</time>
      </trkpt>
      <trkpt lat="38.6132070" lon="-0.7091980">
        <ele>734.2</ele>
        <time>2019-05-12T15:43:34Z</time>
      </trkpt>
      <trkpt lat="38.6130080" lon="-0.7096140">
        <ele>734.6</ele>
        <time>2019-05-12T15:43:41Z</time>
      </trkpt>
      <trkpt lat="38.6128360" lon="-0.7099000">
        <ele>735.4</ele>
        <time>2019-05-12T15:43:46Z</time>
      </trkpt>
      <trkpt lat="38.6127380" lon="-0.7100720">
        <ele>735.6</ele>
        <time>2019-05-12T15:43:49Z</time>
      </trkpt>
      <trkpt lat="38.6125530" lon="-0.7105180">
        <ele>736.4</ele>
        <time>2019-05-12T15:43:56Z</time>
      </trkpt>
      <trkpt lat="38.6125280" lon="-0.7105790">
        <ele>736.6</ele>
        <time>2019-05-12T15:43:57Z</time>
      </trkpt>
      <trkpt lat="38.6123190" lon="-0.7109150">
        <ele>736.8</ele>
        <time>2019-05-12T15:44:03Z</time>
      </trkpt>
      <trkpt lat="38.6122280" lon="-0.7110150">
        <ele>736.6</ele>
        <time>2019-05-12T15:44:05Z</time>
      </trkpt>
      <trkpt lat="38.6120350" lon="-0.7112100">
        <ele>736.8</ele>
        <time>2019-05-12T15:44:09Z</time>
      </trkpt>
      <trkpt lat="38.6116790" lon="-0.7115860">
        <ele>737.2</ele>
        <time>2019-05-12T15:44:16Z</time>
      </trkpt>
      <trkpt lat="38.6114840" lon="-0.7119430">
        <ele>737.2</ele>
        <time>2019-05-12T15:44:21Z</time>
      </trkpt>
      <trkpt lat="38.6113560" lon="-0.7122350">
        <ele>737.6</ele>
        <time>2019-05-12T15:44:25Z</time>
      </trkpt>
      <trkpt lat="38.6112370" lon="-0.7124260">
        <ele>737.6</ele>
        <time>2019-05-12T15:44:28Z</time>
      </trkpt>
      <trkpt lat="38.6110220" lon="-0.7126980">
        <ele>738.8</ele>
        <time>2019-05-12T15:44:33Z</time>
      </trkpt>
      <trkpt lat="38.6109780" lon="-0.7127470">
        <ele>739.0</ele>
        <time>2019-05-12T15:44:34Z</time>
      </trkpt>
      <trkpt lat="38.6107130" lon="-0.7130340">
        <ele>740.2</ele>
        <time>2019-05-12T15:44:40Z</time>
      </trkpt>
      <trkpt lat="38.6106740" lon="-0.7130820">
        <ele>740.6</ele>
        <time>2019-05-12T15:44:41Z</time>
      </trkpt>
      <trkpt lat="38.6105910" lon="-0.7131850">
        <ele>741.2</ele>
        <time>2019-05-12T15:44:43Z</time>
      </trkpt>
      <trkpt lat="38.6104710" lon="-0.7133430">
        <ele>742.2</ele>
        <time>2019-05-12T15:44:46Z</time>
      </trkpt>
      <trkpt lat="38.6104290" lon="-0.7133930">
        <ele>742.4</ele>
        <time>2019-05-12T15:44:47Z</time>
      </trkpt>
      <trkpt lat="38.6102000" lon="-0.7137590">
        <ele>742.8</ele>
        <time>2019-05-12T15:44:53Z</time>
      </trkpt>
      <trkpt lat="38.6099800" lon="-0.7141920">
        <ele>742.4</ele>
        <time>2019-05-12T15:44:59Z</time>
      </trkpt>
      <trkpt lat="38.6097610" lon="-0.7146500">
        <ele>742.2</ele>
        <time>2019-05-12T15:45:05Z</time>
      </trkpt>
      <trkpt lat="38.6096950" lon="-0.7148110">
        <ele>742.2</ele>
        <time>2019-05-12T15:45:07Z</time>
      </trkpt>
      <trkpt lat="38.6094780" lon="-0.7152430">
        <ele>740.8</ele>
        <time>2019-05-12T15:45:12Z</time>
      </trkpt>
      <trkpt lat="38.6094330" lon="-0.7153400">
        <ele>740.2</ele>
        <time>2019-05-12T15:45:13Z</time>
      </trkpt>
      <trkpt lat="38.6093880" lon="-0.7154410">
        <ele>739.4</ele>
        <time>2019-05-12T15:45:14Z</time>
      </trkpt>
      <trkpt lat="38.6093000" lon="-0.7156490">
        <ele>738.0</ele>
        <time>2019-05-12T15:45:16Z</time>
      </trkpt>
      <trkpt lat="38.6091880" lon="-0.7159700">
        <ele>737.2</ele>
        <time>2019-05-12T15:45:19Z</time>
      </trkpt>
      <trkpt lat="38.6089680" lon="-0.7167120">
        <ele>737.8</ele>
        <time>2019-05-12T15:45:26Z</time>
      </trkpt>
      <trkpt lat="38.6089160" lon="-0.7169140">
        <ele>738.2</ele>
        <time>2019-05-12T15:45:28Z</time>
      </trkpt>
      <trkpt lat="38.6088600" lon="-0.7171980">
        <ele>739.2</ele>
        <time>2019-05-12T15:45:31Z</time>
      </trkpt>
      <trkpt lat="38.6088360" lon="-0.7173690">
        <ele>740.2</ele>
        <time>2019-05-12T15:45:33Z</time>
      </trkpt>
      <trkpt lat="38.6088180" lon="-0.7175370">
        <ele>741.4</ele>
        <time>2019-05-12T15:45:35Z</time>
      </trkpt>
      <trkpt lat="38.6088160" lon="-0.7177020">
        <ele>742.4</ele>
        <time>2019-05-12T15:45:37Z</time>
      </trkpt>
      <trkpt lat="38.6088120" lon="-0.7178650">
        <ele>743.2</ele>
        <time>2019-05-12T15:45:39Z</time>
      </trkpt>
      <trkpt lat="38.6088090" lon="-0.7180310">
        <ele>743.4</ele>
        <time>2019-05-12T15:45:41Z</time>
      </trkpt>
      <trkpt lat="38.6087880" lon="-0.7182640">
        <ele>743.0</ele>
        <time>2019-05-12T15:45:44Z</time>
      </trkpt>
      <trkpt lat="38.6087690" lon="-0.7183370">
        <ele>742.8</ele>
        <time>2019-05-12T15:45:45Z</time>
      </trkpt>
      <trkpt lat="38.6086040" lon="-0.7187670">
        <ele>743.0</ele>
        <time>2019-05-12T15:45:51Z</time>
      </trkpt>
      <trkpt lat="38.6083270" lon="-0.7194010">
        <ele>743.2</ele>
        <time>2019-05-12T15:46:00Z</time>
      </trkpt>
      <trkpt lat="38.6082030" lon="-0.7197420">
        <ele>744.6</ele>
        <time>2019-05-12T15:46:05Z</time>
      </trkpt>
      <trkpt lat="38.6081760" lon="-0.7198750">
        <ele>745.2</ele>
        <time>2019-05-12T15:46:07Z</time>
      </trkpt>
      <trkpt lat="38.6081600" lon="-0.7200080">
        <ele>745.8</ele>
        <time>2019-05-12T15:46:09Z</time>
      </trkpt>
      <trkpt lat="38.6081420" lon="-0.7201340">
        <ele>746.8</ele>
        <time>2019-05-12T15:46:11Z</time>
      </trkpt>
      <trkpt lat="38.6081300" lon="-0.7202500">
        <ele>747.8</ele>
        <time>2019-05-12T15:46:13Z</time>
      </trkpt>
      <trkpt lat="38.6081250" lon="-0.7203070">
        <ele>748.0</ele>
        <time>2019-05-12T15:46:14Z</time>
      </trkpt>
      <trkpt lat="38.6081010" lon="-0.7205870">
        <ele>749.2</ele>
        <time>2019-05-12T15:46:19Z</time>
      </trkpt>
      <trkpt lat="38.6080920" lon="-0.7206410">
        <ele>749.4</ele>
        <time>2019-05-12T15:46:20Z</time>
      </trkpt>
      <trkpt lat="38.6080580" lon="-0.7208470">
        <ele>750.2</ele>
        <time>2019-05-12T15:46:24Z</time>
      </trkpt>
      <trkpt lat="38.6080130" lon="-0.7210540">
        <ele>751.2</ele>
        <time>2019-05-12T15:46:28Z</time>
      </trkpt>
      <trkpt lat="38.6079990" lon="-0.7211070">
        <ele>751.2</ele>
        <time>2019-05-12T15:46:29Z</time>
      </trkpt>
      <trkpt lat="38.6079320" lon="-0.7214470">
        <ele>751.8</ele>
        <time>2019-05-12T15:46:35Z</time>
      </trkpt>
      <trkpt lat="38.6079350" lon="-0.7215070">
        <ele>752.0</ele>
        <time>2019-05-12T15:46:36Z</time>
      </trkpt>
      <trkpt lat="38.6079660" lon="-0.7216870">
        <ele>752.0</ele>
        <time>2019-05-12T15:46:39Z</time>
      </trkpt>
      <trkpt lat="38.6079340" lon="-0.7219330">
        <ele>752.2</ele>
        <time>2019-05-12T15:46:43Z</time>
      </trkpt>
      <trkpt lat="38.6078260" lon="-0.7220630">
        <ele>752.4</ele>
        <time>2019-05-12T15:46:46Z</time>
      </trkpt>
      <trkpt lat="38.6077780" lon="-0.7220920">
        <ele>752.2</ele>
        <time>2019-05-12T15:46:47Z</time>
      </trkpt>
      <trkpt lat="38.6076730" lon="-0.7221210">
        <ele>752.0</ele>
        <time>2019-05-12T15:46:49Z</time>
      </trkpt>
      <trkpt lat="38.6075660" lon="-0.7221610">
        <ele>751.6</ele>
        <time>2019-05-12T15:46:51Z</time>
      </trkpt>
      <trkpt lat="38.6073930" lon="-0.7223560">
        <ele>751.2</ele>
        <time>2019-05-12T15:46:55Z</time>
      </trkpt>
      <trkpt lat="38.6073550" lon="-0.7224170">
        <ele>751.2</ele>
        <time>2019-05-12T15:46:56Z</time>
      </trkpt>
      <trkpt lat="38.6071740" lon="-0.7227480">
        <ele>750.4</ele>
        <time>2019-05-12T15:47:01Z</time>
      </trkpt>
      <trkpt lat="38.6070300" lon="-0.7230130">
        <ele>750.2</ele>
        <time>2019-05-12T15:47:05Z</time>
      </trkpt>
      <trkpt lat="38.6069670" lon="-0.7231400">
        <ele>750.0</ele>
        <time>2019-05-12T15:47:07Z</time>
      </trkpt>
      <trkpt lat="38.6069470" lon="-0.7232070">
        <ele>750.0</ele>
        <time>2019-05-12T15:47:08Z</time>
      </trkpt>
      <trkpt lat="38.6069400" lon="-0.7234790">
        <ele>751.0</ele>
        <time>2019-05-12T15:47:12Z</time>
      </trkpt>
      <trkpt lat="38.6069280" lon="-0.7236050">
        <ele>751.6</ele>
        <time>2019-05-12T15:47:14Z</time>
      </trkpt>
      <trkpt lat="38.6068760" lon="-0.7237110">
        <ele>751.8</ele>
        <time>2019-05-12T15:47:16Z</time>
      </trkpt>
      <trkpt lat="38.6066960" lon="-0.7238250">
        <ele>752.4</ele>
        <time>2019-05-12T15:47:20Z</time>
      </trkpt>
      <trkpt lat="38.6065920" lon="-0.7238200">
        <ele>752.4</ele>
        <time>2019-05-12T15:47:22Z</time>
      </trkpt>
      <trkpt lat="38.6064840" lon="-0.7238290">
        <ele>752.4</ele>
        <time>2019-05-12T15:47:24Z</time>
      </trkpt>
      <trkpt lat="38.6063290" lon="-0.7239300">
        <ele>751.6</ele>
        <time>2019-05-12T15:47:27Z</time>
      </trkpt>
      <trkpt lat="38.6062340" lon="-0.7240360">
        <ele>751.4</ele>
        <time>2019-05-12T15:47:29Z</time>
      </trkpt>
      <trkpt lat="38.6060460" lon="-0.7242550">
        <ele>752.0</ele>
        <time>2019-05-12T15:47:33Z</time>
      </trkpt>
      <trkpt lat="38.6056210" lon="-0.7247510">
        <ele>751.6</ele>
        <time>2019-05-12T15:47:42Z</time>
      </trkpt>
      <trkpt lat="38.6054590" lon="-0.7248820">
        <ele>752.2</ele>
        <time>2019-05-12T15:47:45Z</time>
      </trkpt>
      <trkpt lat="38.6053440" lon="-0.7249370">
        <ele>752.0</ele>
        <time>2019-05-12T15:47:47Z</time>
      </trkpt>
      <trkpt lat="38.6051600" lon="-0.7249720">
        <ele>751.6</ele>
        <time>2019-05-12T15:47:50Z</time>
      </trkpt>
      <trkpt lat="38.6050290" lon="-0.7249790">
        <ele>751.8</ele>
        <time>2019-05-12T15:47:52Z</time>
      </trkpt>
      <trkpt lat="38.6047520" lon="-0.7249910">
        <ele>750.4</ele>
        <time>2019-05-12T15:47:56Z</time>
      </trkpt>
      <trkpt lat="38.6045450" lon="-0.7250310">
        <ele>750.4</ele>
        <time>2019-05-12T15:47:59Z</time>
      </trkpt>
      <trkpt lat="38.6041370" lon="-0.7251600">
        <ele>750.0</ele>
        <time>2019-05-12T15:48:05Z</time>
      </trkpt>
      <trkpt lat="38.6037890" lon="-0.7252700">
        <ele>749.2</ele>
        <time>2019-05-12T15:48:10Z</time>
      </trkpt>
      <trkpt lat="38.6035560" lon="-0.7253210">
        <ele>748.4</ele>
        <time>2019-05-12T15:48:13Z</time>
      </trkpt>
      <trkpt lat="38.6033130" lon="-0.7253890">
        <ele>747.4</ele>
        <time>2019-05-12T15:48:16Z</time>
      </trkpt>
      <trkpt lat="38.6030720" lon="-0.7254780">
        <ele>746.4</ele>
        <time>2019-05-12T15:48:19Z</time>
      </trkpt>
      <trkpt lat="38.6027180" lon="-0.7257290">
        <ele>746.8</ele>
        <time>2019-05-12T15:48:24Z</time>
      </trkpt>
      <trkpt lat="38.6025330" lon="-0.7258690">
        <ele>747.4</ele>
        <time>2019-05-12T15:48:27Z</time>
      </trkpt>
      <trkpt lat="38.6023590" lon="-0.7259940">
        <ele>748.2</ele>
        <time>2019-05-12T15:48:30Z</time>
      </trkpt>
      <trkpt lat="38.6023030" lon="-0.7260330">
        <ele>748.6</ele>
        <time>2019-05-12T15:48:31Z</time>
      </trkpt>
      <trkpt lat="38.6019820" lon="-0.7262660">
        <ele>749.6</ele>
        <time>2019-05-12T15:48:37Z</time>
      </trkpt>
      <trkpt lat="38.6019300" lon="-0.7263020">
        <ele>749.8</ele>
        <time>2019-05-12T15:48:38Z</time>
      </trkpt>
      <trkpt lat="38.6017790" lon="-0.7264150">
        <ele>751.0</ele>
        <time>2019-05-12T15:48:41Z</time>
      </trkpt>
      <trkpt lat="38.6015330" lon="-0.7265910">
        <ele>751.8</ele>
        <time>2019-05-12T15:48:46Z</time>
      </trkpt>
      <trkpt lat="38.6014850" lon="-0.7266250">
        <ele>752.2</ele>
        <time>2019-05-12T15:48:47Z</time>
      </trkpt>
      <trkpt lat="38.6010540" lon="-0.7269320">
        <ele>753.2</ele>
        <time>2019-05-12T15:48:56Z</time>
      </trkpt>
      <trkpt lat="38.6008230" lon="-0.7271000">
        <ele>754.2</ele>
        <time>2019-05-12T15:49:01Z</time>
      </trkpt>
      <trkpt lat="38.6007760" lon="-0.7271340">
        <ele>754.2</ele>
        <time>2019-05-12T15:49:02Z</time>
      </trkpt>
      <trkpt lat="38.6004470" lon="-0.7273770">
        <ele>755.2</ele>
        <time>2019-05-12T15:49:09Z</time>
      </trkpt>
      <trkpt lat="38.6002860" lon="-0.7275550">
        <ele>755.8</ele>
        <time>2019-05-12T15:49:13Z</time>
      </trkpt>
      <trkpt lat="38.6002180" lon="-0.7276590">
        <ele>756.0</ele>
        <time>2019-05-12T15:49:15Z</time>
      </trkpt>
      <trkpt lat="38.6001540" lon="-0.7277620">
        <ele>756.4</ele>
        <time>2019-05-12T15:49:17Z</time>
      </trkpt>
      <trkpt lat="38.6000200" lon="-0.7280290">
        <ele>757.6</ele>
        <time>2019-05-12T15:49:22Z</time>
      </trkpt>
      <trkpt lat="38.5998640" lon="-0.7283270">
        <ele>758.8</ele>
        <time>2019-05-12T15:49:28Z</time>
      </trkpt>
      <trkpt lat="38.5998410" lon="-0.7283760">
        <ele>759.2</ele>
        <time>2019-05-12T15:49:29Z</time>
      </trkpt>
      <trkpt lat="38.5997960" lon="-0.7284690">
        <ele>760.0</ele>
        <time>2019-05-12T15:49:31Z</time>
      </trkpt>
      <trkpt lat="38.5997100" lon="-0.7286580">
        <ele>761.0</ele>
        <time>2019-05-12T15:49:35Z</time>
      </trkpt>
      <trkpt lat="38.5996890" lon="-0.7286990">
        <ele>761.0</ele>
        <time>2019-05-12T15:49:36Z</time>
      </trkpt>
      <trkpt lat="38.5995990" lon="-0.7288800">
        <ele>762.2</ele>
        <time>2019-05-12T15:49:40Z</time>
      </trkpt>
      <trkpt lat="38.5995550" lon="-0.7289700">
        <ele>762.6</ele>
        <time>2019-05-12T15:49:42Z</time>
      </trkpt>
      <trkpt lat="38.5994950" lon="-0.7291030">
        <ele>763.2</ele>
        <time>2019-05-12T15:49:45Z</time>
      </trkpt>
      <trkpt lat="38.5994090" lon="-0.7292930">
        <ele>763.8</ele>
        <time>2019-05-12T15:49:49Z</time>
      </trkpt>
      <trkpt lat="38.5993590" lon="-0.7293870">
        <ele>764.4</ele>
        <time>2019-05-12T15:49:51Z</time>
      </trkpt>
      <trkpt lat="38.5992410" lon="-0.7296170">
        <ele>765.2</ele>
        <time>2019-05-12T15:49:56Z</time>
      </trkpt>
      <trkpt lat="38.5992160" lon="-0.7296620">
        <ele>765.6</ele>
        <time>2019-05-12T15:49:57Z</time>
      </trkpt>
      <trkpt lat="38.5990880" lon="-0.7298950">
        <ele>766.6</ele>
        <time>2019-05-12T15:50:02Z</time>
      </trkpt>
      <trkpt lat="38.5990370" lon="-0.7299920">
        <ele>766.8</ele>
        <time>2019-05-12T15:50:04Z</time>
      </trkpt>
      <trkpt lat="38.5988010" lon="-0.7304390">
        <ele>767.2</ele>
        <time>2019-05-12T15:50:13Z</time>
      </trkpt>
      <trkpt lat="38.5987260" lon="-0.7305870">
        <ele>767.8</ele>
        <time>2019-05-12T15:50:16Z</time>
      </trkpt>
      <trkpt lat="38.5986220" lon="-0.7307900">
        <ele>768.0</ele>
        <time>2019-05-12T15:50:20Z</time>
      </trkpt>
      <trkpt lat="38.5984700" lon="-0.7310950">
        <ele>768.8</ele>
        <time>2019-05-12T15:50:26Z</time>
      </trkpt>
      <trkpt lat="38.5982930" lon="-0.7315380">
        <ele>769.2</ele>
        <time>2019-05-12T15:50:34Z</time>
      </trkpt>
      <trkpt lat="38.5982420" lon="-0.7317060">
        <ele>769.8</ele>
        <time>2019-05-12T15:50:37Z</time>
      </trkpt>
      <trkpt lat="38.5981780" lon="-0.7319350">
        <ele>770.4</ele>
        <time>2019-05-12T15:50:41Z</time>
      </trkpt>
      <trkpt lat="38.5981690" lon="-0.7319940">
        <ele>770.6</ele>
        <time>2019-05-12T15:50:42Z</time>
      </trkpt>
      <trkpt lat="38.5981600" lon="-0.7321160">
        <ele>771.0</ele>
        <time>2019-05-12T15:50:44Z</time>
      </trkpt>
      <trkpt lat="38.5981690" lon="-0.7322950">
        <ele>771.0</ele>
        <time>2019-05-12T15:50:47Z</time>
      </trkpt>
      <trkpt lat="38.5981700" lon="-0.7324180">
        <ele>771.4</ele>
        <time>2019-05-12T15:50:49Z</time>
      </trkpt>
      <trkpt lat="38.5981280" lon="-0.7325320">
        <ele>771.2</ele>
        <time>2019-05-12T15:50:51Z</time>
      </trkpt>
      <trkpt lat="38.5979910" lon="-0.7326120">
        <ele>771.6</ele>
        <time>2019-05-12T15:50:54Z</time>
      </trkpt>
      <trkpt lat="38.5978390" lon="-0.7325460">
        <ele>771.2</ele>
        <time>2019-05-12T15:50:57Z</time>
      </trkpt>
      <trkpt lat="38.5976310" lon="-0.7324240">
        <ele>770.8</ele>
        <time>2019-05-12T15:51:01Z</time>
      </trkpt>
      <trkpt lat="38.5975740" lon="-0.7324090">
        <ele>770.8</ele>
        <time>2019-05-12T15:51:02Z</time>
      </trkpt>
      <trkpt lat="38.5972960" lon="-0.7323730">
        <ele>771.4</ele>
        <time>2019-05-12T15:51:07Z</time>
      </trkpt>
      <trkpt lat="38.5971390" lon="-0.7323610">
        <ele>772.8</ele>
        <time>2019-05-12T15:51:10Z</time>
      </trkpt>
      <trkpt lat="38.5969410" lon="-0.7323450">
        <ele>773.2</ele>
        <time>2019-05-12T15:51:14Z</time>
      </trkpt>
      <trkpt lat="38.5967890" lon="-0.7323340">
        <ele>774.0</ele>
        <time>2019-05-12T15:51:17Z</time>
      </trkpt>
      <trkpt lat="38.5964820" lon="-0.7322920">
        <ele>775.2</ele>
        <time>2019-05-12T15:51:23Z</time>
      </trkpt>
      <trkpt lat="38.5961390" lon="-0.7321800">
        <ele>776.4</ele>
        <time>2019-05-12T15:51:30Z</time>
      </trkpt>
      <trkpt lat="38.5960910" lon="-0.7321640">
        <ele>776.6</ele>
        <time>2019-05-12T15:51:31Z</time>
      </trkpt>
      <trkpt lat="38.5958500" lon="-0.7320780">
        <ele>777.4</ele>
        <time>2019-05-12T15:51:36Z</time>
      </trkpt>
      <trkpt lat="38.5956640" lon="-0.7320010">
        <ele>778.6</ele>
        <time>2019-05-12T15:51:40Z</time>
      </trkpt>
      <trkpt lat="38.5955680" lon="-0.7319530">
        <ele>779.0</ele>
        <time>2019-05-12T15:51:42Z</time>
      </trkpt>
      <trkpt lat="38.5953380" lon="-0.7318290">
        <ele>779.2</ele>
        <time>2019-05-12T15:51:47Z</time>
      </trkpt>
      <trkpt lat="38.5952900" lon="-0.7318120">
        <ele>779.0</ele>
        <time>2019-05-12T15:51:48Z</time>
      </trkpt>
      <trkpt lat="38.5951010" lon="-0.7317930">
        <ele>779.8</ele>
        <time>2019-05-12T15:51:52Z</time>
      </trkpt>
      <trkpt lat="38.5950530" lon="-0.7317960">
        <ele>780.0</ele>
        <time>2019-05-12T15:51:53Z</time>
      </trkpt>
      <trkpt lat="38.5949590" lon="-0.7317950">
        <ele>780.4</ele>
        <time>2019-05-12T15:51:55Z</time>
      </trkpt>
      <trkpt lat="38.5948700" lon="-0.7317460">
        <ele>780.4</ele>
        <time>2019-05-12T15:51:57Z</time>
      </trkpt>
      <trkpt lat="38.5946810" lon="-0.7316980">
        <ele>779.6</ele>
        <time>2019-05-12T15:52:01Z</time>
      </trkpt>
      <trkpt lat="38.5945960" lon="-0.7318590">
        <ele>780.0</ele>
        <time>2019-05-12T15:52:04Z</time>
      </trkpt>
      <trkpt lat="38.5946510" lon="-0.7320460">
        <ele>780.6</ele>
        <time>2019-05-12T15:52:07Z</time>
      </trkpt>
      <trkpt lat="38.5947430" lon="-0.7322080">
        <ele>780.0</ele>
        <time>2019-05-12T15:52:10Z</time>
      </trkpt>
      <trkpt lat="38.5947870" lon="-0.7323220">
        <ele>780.2</ele>
        <time>2019-05-12T15:52:12Z</time>
      </trkpt>
      <trkpt lat="38.5948490" lon="-0.7327230">
        <ele>780.0</ele>
        <time>2019-05-12T15:52:18Z</time>
      </trkpt>
      <trkpt lat="38.5948370" lon="-0.7332150">
        <ele>778.6</ele>
        <time>2019-05-12T15:52:24Z</time>
      </trkpt>
      <trkpt lat="38.5948140" lon="-0.7333920">
        <ele>777.4</ele>
        <time>2019-05-12T15:52:26Z</time>
      </trkpt>
      <trkpt lat="38.5947370" lon="-0.7337300">
        <ele>776.6</ele>
        <time>2019-05-12T15:52:30Z</time>
      </trkpt>
      <trkpt lat="38.5945370" lon="-0.7342870">
        <ele>777.2</ele>
        <time>2019-05-12T15:52:37Z</time>
      </trkpt>
      <trkpt lat="38.5943060" lon="-0.7348400">
        <ele>776.4</ele>
        <time>2019-05-12T15:52:44Z</time>
      </trkpt>
      <trkpt lat="38.5942730" lon="-0.7349210">
        <ele>776.2</ele>
        <time>2019-05-12T15:52:45Z</time>
      </trkpt>
      <trkpt lat="38.5940620" lon="-0.7354120">
        <ele>775.2</ele>
        <time>2019-05-12T15:52:51Z</time>
      </trkpt>
      <trkpt lat="38.5940260" lon="-0.7354960">
        <ele>775.2</ele>
        <time>2019-05-12T15:52:52Z</time>
      </trkpt>
      <trkpt lat="38.5939200" lon="-0.7357510">
        <ele>774.2</ele>
        <time>2019-05-12T15:52:55Z</time>
      </trkpt>
      <trkpt lat="38.5938140" lon="-0.7360040">
        <ele>772.8</ele>
        <time>2019-05-12T15:52:58Z</time>
      </trkpt>
      <trkpt lat="38.5937120" lon="-0.7362630">
        <ele>772.0</ele>
        <time>2019-05-12T15:53:01Z</time>
      </trkpt>
      <trkpt lat="38.5936410" lon="-0.7364410">
        <ele>771.8</ele>
        <time>2019-05-12T15:53:03Z</time>
      </trkpt>
      <trkpt lat="38.5935030" lon="-0.7367890">
        <ele>770.6</ele>
        <time>2019-05-12T15:53:07Z</time>
      </trkpt>
      <trkpt lat="38.5934650" lon="-0.7368740">
        <ele>770.2</ele>
        <time>2019-05-12T15:53:08Z</time>
      </trkpt>
      <trkpt lat="38.5932920" lon="-0.7372820">
        <ele>769.2</ele>
        <time>2019-05-12T15:53:13Z</time>
      </trkpt>
      <trkpt lat="38.5932550" lon="-0.7373620">
        <ele>768.8</ele>
        <time>2019-05-12T15:53:14Z</time>
      </trkpt>
      <trkpt lat="38.5931800" lon="-0.7375220">
        <ele>768.2</ele>
        <time>2019-05-12T15:53:16Z</time>
      </trkpt>
      <trkpt lat="38.5931440" lon="-0.7376010">
        <ele>767.0</ele>
        <time>2019-05-12T15:53:17Z</time>
      </trkpt>
      <trkpt lat="38.5929210" lon="-0.7380820">
        <ele>766.4</ele>
        <time>2019-05-12T15:53:23Z</time>
      </trkpt>
      <trkpt lat="38.5927640" lon="-0.7385140">
        <ele>765.8</ele>
        <time>2019-05-12T15:53:28Z</time>
      </trkpt>
      <trkpt lat="38.5927130" lon="-0.7386910">
        <ele>765.2</ele>
        <time>2019-05-12T15:53:30Z</time>
      </trkpt>
      <trkpt lat="38.5926510" lon="-0.7388590">
        <ele>764.8</ele>
        <time>2019-05-12T15:53:32Z</time>
      </trkpt>
      <trkpt lat="38.5925500" lon="-0.7391090">
        <ele>763.8</ele>
        <time>2019-05-12T15:53:35Z</time>
      </trkpt>
      <trkpt lat="38.5922890" lon="-0.7397300">
        <ele>763.2</ele>
        <time>2019-05-12T15:53:43Z</time>
      </trkpt>
      <trkpt lat="38.5921810" lon="-0.7399710">
        <ele>762.4</ele>
        <time>2019-05-12T15:53:46Z</time>
      </trkpt>
      <trkpt lat="38.5920970" lon="-0.7402270">
        <ele>761.6</ele>
        <time>2019-05-12T15:53:49Z</time>
      </trkpt>
      <trkpt lat="38.5920760" lon="-0.7403170">
        <ele>761.2</ele>
        <time>2019-05-12T15:53:50Z</time>
      </trkpt>
      <trkpt lat="38.5919780" lon="-0.7407500">
        <ele>760.0</ele>
        <time>2019-05-12T15:53:55Z</time>
      </trkpt>
      <trkpt lat="38.5918070" lon="-0.7413340">
        <ele>759.2</ele>
        <time>2019-05-12T15:54:02Z</time>
      </trkpt>
      <trkpt lat="38.5917770" lon="-0.7414150">
        <ele>758.8</ele>
        <time>2019-05-12T15:54:03Z</time>
      </trkpt>
      <trkpt lat="38.5916550" lon="-0.7417350">
        <ele>757.8</ele>
        <time>2019-05-12T15:54:07Z</time>
      </trkpt>
      <trkpt lat="38.5915930" lon="-0.7418930">
        <ele>757.8</ele>
        <time>2019-05-12T15:54:09Z</time>
      </trkpt>
      <trkpt lat="38.5913600" lon="-0.7424560">
        <ele>756.4</ele>
        <time>2019-05-12T15:54:16Z</time>
      </trkpt>
      <trkpt lat="38.5913300" lon="-0.7425350">
        <ele>755.8</ele>
        <time>2019-05-12T15:54:17Z</time>
      </trkpt>
      <trkpt lat="38.5912950" lon="-0.7426120">
        <ele>755.2</ele>
        <time>2019-05-12T15:54:18Z</time>
      </trkpt>
      <trkpt lat="38.5911580" lon="-0.7429060">
        <ele>755.4</ele>
        <time>2019-05-12T15:54:22Z</time>
      </trkpt>
      <trkpt lat="38.5908940" lon="-0.7435260">
        <ele>754.8</ele>
        <time>2019-05-12T15:54:30Z</time>
      </trkpt>
      <trkpt lat="38.5907910" lon="-0.7437560">
        <ele>753.6</ele>
        <time>2019-05-12T15:54:33Z</time>
      </trkpt>
      <trkpt lat="38.5906510" lon="-0.7440610">
        <ele>753.6</ele>
        <time>2019-05-12T15:54:37Z</time>
      </trkpt>
      <trkpt lat="38.5903970" lon="-0.7446120">
        <ele>752.8</ele>
        <time>2019-05-12T15:54:44Z</time>
      </trkpt>
      <trkpt lat="38.5903150" lon="-0.7447700">
        <ele>752.4</ele>
        <time>2019-05-12T15:54:46Z</time>
      </trkpt>
      <trkpt lat="38.5901830" lon="-0.7449880">
        <ele>751.2</ele>
        <time>2019-05-12T15:54:49Z</time>
      </trkpt>
      <trkpt lat="38.5901340" lon="-0.7450550">
        <ele>751.0</ele>
        <time>2019-05-12T15:54:50Z</time>
      </trkpt>
      <trkpt lat="38.5898740" lon="-0.7453800">
        <ele>749.6</ele>
        <time>2019-05-12T15:54:55Z</time>
      </trkpt>
      <trkpt lat="38.5898200" lon="-0.7454510">
        <ele>749.4</ele>
        <time>2019-05-12T15:54:56Z</time>
      </trkpt>
      <trkpt lat="38.5897150" lon="-0.7455950">
        <ele>748.6</ele>
        <time>2019-05-12T15:54:58Z</time>
      </trkpt>
      <trkpt lat="38.5894100" lon="-0.7460400">
        <ele>747.0</ele>
        <time>2019-05-12T15:55:04Z</time>
      </trkpt>
      <trkpt lat="38.5891570" lon="-0.7464140">
        <ele>745.6</ele>
        <time>2019-05-12T15:55:09Z</time>
      </trkpt>
      <trkpt lat="38.5890600" lon="-0.7465620">
        <ele>745.0</ele>
        <time>2019-05-12T15:55:12Z</time>
      </trkpt>
      <trkpt lat="38.5887860" lon="-0.7470090">
        <ele>744.4</ele>
        <time>2019-05-12T15:55:18Z</time>
      </trkpt>
      <trkpt lat="38.5887060" lon="-0.7471730">
        <ele>744.2</ele>
        <time>2019-05-12T15:55:20Z</time>
      </trkpt>
      <trkpt lat="38.5886060" lon="-0.7474340">
        <ele>743.0</ele>
        <time>2019-05-12T15:55:23Z</time>
      </trkpt>
      <trkpt lat="38.5885420" lon="-0.7476050">
        <ele>741.8</ele>
        <time>2019-05-12T15:55:25Z</time>
      </trkpt>
      <trkpt lat="38.5884760" lon="-0.7477800">
        <ele>741.6</ele>
        <time>2019-05-12T15:55:27Z</time>
      </trkpt>
      <trkpt lat="38.5883750" lon="-0.7480400">
        <ele>740.8</ele>
        <time>2019-05-12T15:55:30Z</time>
      </trkpt>
      <trkpt lat="38.5882290" lon="-0.7483720">
        <ele>741.0</ele>
        <time>2019-05-12T15:55:34Z</time>
      </trkpt>
      <trkpt lat="38.5880280" lon="-0.7488750">
        <ele>740.6</ele>
        <time>2019-05-12T15:55:40Z</time>
      </trkpt>
      <trkpt lat="38.5878280" lon="-0.7493890">
        <ele>739.8</ele>
        <time>2019-05-12T15:55:46Z</time>
      </trkpt>
      <trkpt lat="38.5877930" lon="-0.7494730">
        <ele>739.6</ele>
        <time>2019-05-12T15:55:47Z</time>
      </trkpt>
      <trkpt lat="38.5876760" lon="-0.7497290">
        <ele>738.6</ele>
        <time>2019-05-12T15:55:50Z</time>
      </trkpt>
      <trkpt lat="38.5875060" lon="-0.7500690">
        <ele>737.6</ele>
        <time>2019-05-12T15:55:54Z</time>
      </trkpt>
      <trkpt lat="38.5874020" lon="-0.7503320">
        <ele>736.2</ele>
        <time>2019-05-12T15:55:57Z</time>
      </trkpt>
      <trkpt lat="38.5872860" lon="-0.7506910">
        <ele>735.6</ele>
        <time>2019-05-12T15:56:01Z</time>
      </trkpt>
      <trkpt lat="38.5872100" lon="-0.7509650">
        <ele>735.2</ele>
        <time>2019-05-12T15:56:04Z</time>
      </trkpt>
      <trkpt lat="38.5870780" lon="-0.7513240">
        <ele>734.4</ele>
        <time>2019-05-12T15:56:08Z</time>
      </trkpt>
      <trkpt lat="38.5868990" lon="-0.7516530">
        <ele>733.8</ele>
        <time>2019-05-12T15:56:12Z</time>
      </trkpt>
      <trkpt lat="38.5868450" lon="-0.7517260">
        <ele>733.6</ele>
        <time>2019-05-12T15:56:13Z</time>
      </trkpt>
      <trkpt lat="38.5865420" lon="-0.7520500">
        <ele>732.8</ele>
        <time>2019-05-12T15:56:18Z</time>
      </trkpt>
      <trkpt lat="38.5864820" lon="-0.7521140">
        <ele>732.4</ele>
        <time>2019-05-12T15:56:19Z</time>
      </trkpt>
      <trkpt lat="38.5861340" lon="-0.7524990">
        <ele>731.8</ele>
        <time>2019-05-12T15:56:25Z</time>
      </trkpt>
      <trkpt lat="38.5860790" lon="-0.7525660">
        <ele>731.2</ele>
        <time>2019-05-12T15:56:26Z</time>
      </trkpt>
      <trkpt lat="38.5859750" lon="-0.7527110">
        <ele>730.0</ele>
        <time>2019-05-12T15:56:28Z</time>
      </trkpt>
      <trkpt lat="38.5857630" lon="-0.7530050">
        <ele>730.2</ele>
        <time>2019-05-12T15:56:32Z</time>
      </trkpt>
      <trkpt lat="38.5856010" lon="-0.7532360">
        <ele>728.6</ele>
        <time>2019-05-12T15:56:35Z</time>
      </trkpt>
      <trkpt lat="38.5853980" lon="-0.7535600">
        <ele>728.0</ele>
        <time>2019-05-12T15:56:39Z</time>
      </trkpt>
      <trkpt lat="38.5853030" lon="-0.7537200">
        <ele>727.4</ele>
        <time>2019-05-12T15:56:41Z</time>
      </trkpt>
      <trkpt lat="38.5851650" lon="-0.7539730">
        <ele>726.2</ele>
        <time>2019-05-12T15:56:44Z</time>
      </trkpt>
      <trkpt lat="38.5851230" lon="-0.7540590">
        <ele>726.4</ele>
        <time>2019-05-12T15:56:45Z</time>
      </trkpt>
      <trkpt lat="38.5848390" lon="-0.7546510">
        <ele>726.2</ele>
        <time>2019-05-12T15:56:52Z</time>
      </trkpt>
      <trkpt lat="38.5848000" lon="-0.7547370">
        <ele>726.0</ele>
        <time>2019-05-12T15:56:53Z</time>
      </trkpt>
      <trkpt lat="38.5846970" lon="-0.7550130">
        <ele>725.0</ele>
        <time>2019-05-12T15:56:56Z</time>
      </trkpt>
      <trkpt lat="38.5845790" lon="-0.7552650">
        <ele>724.0</ele>
        <time>2019-05-12T15:56:59Z</time>
      </trkpt>
      <trkpt lat="38.5843230" lon="-0.7558030">
        <ele>725.4</ele>
        <time>2019-05-12T15:57:06Z</time>
      </trkpt>
      <trkpt lat="38.5842420" lon="-0.7560530">
        <ele>726.0</ele>
        <time>2019-05-12T15:57:09Z</time>
      </trkpt>
      <trkpt lat="38.5841630" lon="-0.7563030">
        <ele>725.6</ele>
        <time>2019-05-12T15:57:12Z</time>
      </trkpt>
      <trkpt lat="38.5840250" lon="-0.7568580">
        <ele>726.4</ele>
        <time>2019-05-12T15:57:19Z</time>
      </trkpt>
      <trkpt lat="38.5838970" lon="-0.7575120">
        <ele>726.8</ele>
        <time>2019-05-12T15:57:27Z</time>
      </trkpt>
      <trkpt lat="38.5838820" lon="-0.7575960">
        <ele>727.2</ele>
        <time>2019-05-12T15:57:28Z</time>
      </trkpt>
      <trkpt lat="38.5838140" lon="-0.7580220">
        <ele>726.8</ele>
        <time>2019-05-12T15:57:33Z</time>
      </trkpt>
      <trkpt lat="38.5837770" lon="-0.7582890">
        <ele>725.8</ele>
        <time>2019-05-12T15:57:36Z</time>
      </trkpt>
      <trkpt lat="38.5837150" lon="-0.7586520">
        <ele>724.8</ele>
        <time>2019-05-12T15:57:40Z</time>
      </trkpt>
      <trkpt lat="38.5836950" lon="-0.7587400">
        <ele>724.8</ele>
        <time>2019-05-12T15:57:41Z</time>
      </trkpt>
      <trkpt lat="38.5835870" lon="-0.7592710">
        <ele>724.0</ele>
        <time>2019-05-12T15:57:47Z</time>
      </trkpt>
      <trkpt lat="38.5835600" lon="-0.7593580">
        <ele>724.0</ele>
        <time>2019-05-12T15:57:48Z</time>
      </trkpt>
      <trkpt lat="38.5834870" lon="-0.7596170">
        <ele>723.2</ele>
        <time>2019-05-12T15:57:51Z</time>
      </trkpt>
      <trkpt lat="38.5833730" lon="-0.7600590">
        <ele>722.6</ele>
        <time>2019-05-12T15:57:56Z</time>
      </trkpt>
      <trkpt lat="38.5833260" lon="-0.7602410">
        <ele>722.0</ele>
        <time>2019-05-12T15:57:58Z</time>
      </trkpt>
      <trkpt lat="38.5832280" lon="-0.7605440">
        <ele>722.0</ele>
        <time>2019-05-12T15:58:02Z</time>
      </trkpt>
      <trkpt lat="38.5831780" lon="-0.7606270">
        <ele>722.4</ele>
        <time>2019-05-12T15:58:05Z</time>
      </trkpt>
      <trkpt lat="38.5830600" lon="-0.7608380">
        <ele>721.0</ele>
        <time>2019-05-12T15:58:10Z</time>
      </trkpt>
      <trkpt lat="38.5830310" lon="-0.7608830">
        <ele>720.6</ele>
        <time>2019-05-12T15:58:11Z</time>
      </trkpt>
      <trkpt lat="38.5829440" lon="-0.7610240">
        <ele>719.2</ele>
        <time>2019-05-12T15:58:14Z</time>
      </trkpt>
      <trkpt lat="38.5829040" lon="-0.7610700">
        <ele>718.8</ele>
        <time>2019-05-12T15:58:15Z</time>
      </trkpt>
      <trkpt lat="38.5827870" lon="-0.7612160">
        <ele>718.8</ele>
        <time>2019-05-12T15:58:18Z</time>
      </trkpt>
      <trkpt lat="38.5827670" lon="-0.7612650">
        <ele>719.0</ele>
        <time>2019-05-12T15:58:19Z</time>
      </trkpt>
      <trkpt lat="38.5827440" lon="-0.7614530">
        <ele>719.0</ele>
        <time>2019-05-12T15:58:22Z</time>
      </trkpt>
      <trkpt lat="38.5827110" lon="-0.7615830">
        <ele>719.0</ele>
        <time>2019-05-12T15:58:24Z</time>
      </trkpt>
      <trkpt lat="38.5826490" lon="-0.7617450">
        <ele>719.8</ele>
        <time>2019-05-12T15:58:27Z</time>
      </trkpt>
      <trkpt lat="38.5825950" lon="-0.7618530">
        <ele>720.4</ele>
        <time>2019-05-12T15:58:29Z</time>
      </trkpt>
      <trkpt lat="38.5825300" lon="-0.7619580">
        <ele>720.4</ele>
        <time>2019-05-12T15:58:31Z</time>
      </trkpt>
      <trkpt lat="38.5824920" lon="-0.7620030">
        <ele>720.2</ele>
        <time>2019-05-12T15:58:32Z</time>
      </trkpt>
      <trkpt lat="38.5821900" lon="-0.7623820">
        <ele>720.0</ele>
        <time>2019-05-12T15:58:40Z</time>
      </trkpt>
      <trkpt lat="38.5821100" lon="-0.7624820">
        <ele>719.2</ele>
        <time>2019-05-12T15:58:42Z</time>
      </trkpt>
      <trkpt lat="38.5819430" lon="-0.7627190">
        <ele>717.8</ele>
        <time>2019-05-12T15:58:46Z</time>
      </trkpt>
      <trkpt lat="38.5819020" lon="-0.7627790">
        <ele>717.2</ele>
        <time>2019-05-12T15:58:47Z</time>
      </trkpt>
      <trkpt lat="38.5817720" lon="-0.7629550">
        <ele>716.4</ele>
        <time>2019-05-12T15:58:50Z</time>
      </trkpt>
      <trkpt lat="38.5815500" lon="-0.7632580">
        <ele>716.6</ele>
        <time>2019-05-12T15:58:55Z</time>
      </trkpt>
      <trkpt lat="38.5814260" lon="-0.7634320">
        <ele>715.2</ele>
        <time>2019-05-12T15:58:58Z</time>
      </trkpt>
      <trkpt lat="38.5812550" lon="-0.7636560">
        <ele>715.8</ele>
        <time>2019-05-12T15:59:02Z</time>
      </trkpt>
      <trkpt lat="38.5810640" lon="-0.7639130">
        <ele>715.2</ele>
        <time>2019-05-12T15:59:07Z</time>
      </trkpt>
      <trkpt lat="38.5808880" lon="-0.7641110">
        <ele>715.6</ele>
        <time>2019-05-12T15:59:12Z</time>
      </trkpt>
      <trkpt lat="38.5806700" lon="-0.7644020">
        <ele>714.8</ele>
        <time>2019-05-12T15:59:17Z</time>
      </trkpt>
      <trkpt lat="38.5805780" lon="-0.7645310">
        <ele>713.6</ele>
        <time>2019-05-12T15:59:19Z</time>
      </trkpt>
      <trkpt lat="38.5803230" lon="-0.7648700">
        <ele>712.4</ele>
        <time>2019-05-12T15:59:24Z</time>
      </trkpt>
      <trkpt lat="38.5800610" lon="-0.7651900">
        <ele>712.0</ele>
        <time>2019-05-12T15:59:29Z</time>
      </trkpt>
      <trkpt lat="38.5800080" lon="-0.7652480">
        <ele>711.6</ele>
        <time>2019-05-12T15:59:30Z</time>
      </trkpt>
      <trkpt lat="38.5799590" lon="-0.7653070">
        <ele>711.0</ele>
        <time>2019-05-12T15:59:31Z</time>
      </trkpt>
      <trkpt lat="38.5797700" lon="-0.7655140">
        <ele>710.6</ele>
        <time>2019-05-12T15:59:35Z</time>
      </trkpt>
      <trkpt lat="38.5797190" lon="-0.7655650">
        <ele>710.4</ele>
        <time>2019-05-12T15:59:36Z</time>
      </trkpt>
      <trkpt lat="38.5793960" lon="-0.7659120">
        <ele>710.2</ele>
        <time>2019-05-12T15:59:43Z</time>
      </trkpt>
      <trkpt lat="38.5793510" lon="-0.7659630">
        <ele>709.8</ele>
        <time>2019-05-12T15:59:44Z</time>
      </trkpt>
      <trkpt lat="38.5792220" lon="-0.7661060">
        <ele>708.8</ele>
        <time>2019-05-12T15:59:47Z</time>
      </trkpt>
      <trkpt lat="38.5791780" lon="-0.7661550">
        <ele>708.6</ele>
        <time>2019-05-12T15:59:48Z</time>
      </trkpt>
      <trkpt lat="38.5789000" lon="-0.7663970">
        <ele>707.4</ele>
        <time>2019-05-12T15:59:53Z</time>
      </trkpt>
      <trkpt lat="38.5787830" lon="-0.7665010">
        <ele>706.4</ele>
        <time>2019-05-12T15:59:55Z</time>
      </trkpt>
      <trkpt lat="38.5785390" lon="-0.7667090">
        <ele>705.8</ele>
        <time>2019-05-12T15:59:59Z</time>
      </trkpt>
      <trkpt lat="38.5783670" lon="-0.7669140">
        <ele>704.6</ele>
        <time>2019-05-12T16:00:02Z</time>
      </trkpt>
      <trkpt lat="38.5782530" lon="-0.7670590">
        <ele>703.4</ele>
        <time>2019-05-12T16:00:04Z</time>
      </trkpt>
      <trkpt lat="38.5780320" lon="-0.7673670">
        <ele>702.2</ele>
        <time>2019-05-12T16:00:08Z</time>
      </trkpt>
      <trkpt lat="38.5778740" lon="-0.7675890">
        <ele>701.4</ele>
        <time>2019-05-12T16:00:11Z</time>
      </trkpt>
      <trkpt lat="38.5778190" lon="-0.7676580">
        <ele>701.2</ele>
        <time>2019-05-12T16:00:12Z</time>
      </trkpt>
      <trkpt lat="38.5775890" lon="-0.7679380">
        <ele>700.0</ele>
        <time>2019-05-12T16:00:16Z</time>
      </trkpt>
      <trkpt lat="38.5774670" lon="-0.7680780">
        <ele>699.0</ele>
        <time>2019-05-12T16:00:18Z</time>
      </trkpt>
      <trkpt lat="38.5772870" lon="-0.7682920">
        <ele>697.8</ele>
        <time>2019-05-12T16:00:21Z</time>
      </trkpt>
      <trkpt lat="38.5771600" lon="-0.7684220">
        <ele>696.6</ele>
        <time>2019-05-12T16:00:23Z</time>
      </trkpt>
      <trkpt lat="38.5770470" lon="-0.7685500">
        <ele>695.2</ele>
        <time>2019-05-12T16:00:25Z</time>
      </trkpt>
      <trkpt lat="38.5768680" lon="-0.7687290">
        <ele>694.2</ele>
        <time>2019-05-12T16:00:28Z</time>
      </trkpt>
      <trkpt lat="38.5768050" lon="-0.7687850">
        <ele>693.8</ele>
        <time>2019-05-12T16:00:29Z</time>
      </trkpt>
      <trkpt lat="38.5763990" lon="-0.7692450">
        <ele>693.8</ele>
        <time>2019-05-12T16:00:36Z</time>
      </trkpt>
      <trkpt lat="38.5761670" lon="-0.7695550">
        <ele>694.2</ele>
        <time>2019-05-12T16:00:41Z</time>
      </trkpt>
      <trkpt lat="38.5760580" lon="-0.7696730">
        <ele>693.6</ele>
        <time>2019-05-12T16:00:43Z</time>
      </trkpt>
      <trkpt lat="38.5759980" lon="-0.7697300">
        <ele>693.0</ele>
        <time>2019-05-12T16:00:44Z</time>
      </trkpt>
      <trkpt lat="38.5759410" lon="-0.7697900">
        <ele>692.4</ele>
        <time>2019-05-12T16:00:45Z</time>
      </trkpt>
      <trkpt lat="38.5756810" lon="-0.7700930">
        <ele>691.8</ele>
        <time>2019-05-12T16:00:50Z</time>
      </trkpt>
      <trkpt lat="38.5756260" lon="-0.7701450">
        <ele>691.0</ele>
        <time>2019-05-12T16:00:51Z</time>
      </trkpt>
      <trkpt lat="38.5755740" lon="-0.7701900">
        <ele>690.4</ele>
        <time>2019-05-12T16:00:52Z</time>
      </trkpt>
      <trkpt lat="38.5755310" lon="-0.7702420">
        <ele>690.6</ele>
        <time>2019-05-12T16:00:53Z</time>
      </trkpt>
      <trkpt lat="38.5754600" lon="-0.7703520">
        <ele>691.8</ele>
        <time>2019-05-12T16:00:55Z</time>
      </trkpt>
      <trkpt lat="38.5754240" lon="-0.7704080">
        <ele>692.2</ele>
        <time>2019-05-12T16:00:56Z</time>
      </trkpt>
      <trkpt lat="38.5753040" lon="-0.7705880">
        <ele>690.4</ele>
        <time>2019-05-12T16:00:59Z</time>
      </trkpt>
      <trkpt lat="38.5752170" lon="-0.7707320">
        <ele>689.0</ele>
        <time>2019-05-12T16:01:01Z</time>
      </trkpt>
      <trkpt lat="38.5751700" lon="-0.7708070">
        <ele>688.4</ele>
        <time>2019-05-12T16:01:02Z</time>
      </trkpt>
      <trkpt lat="38.5751220" lon="-0.7708850">
        <ele>687.6</ele>
        <time>2019-05-12T16:01:03Z</time>
      </trkpt>
      <trkpt lat="38.5748560" lon="-0.7712580">
        <ele>686.2</ele>
        <time>2019-05-12T16:01:08Z</time>
      </trkpt>
      <trkpt lat="38.5748020" lon="-0.7713330">
        <ele>686.0</ele>
        <time>2019-05-12T16:01:09Z</time>
      </trkpt>
      <trkpt lat="38.5746860" lon="-0.7714820">
        <ele>685.0</ele>
        <time>2019-05-12T16:01:11Z</time>
      </trkpt>
      <trkpt lat="38.5745740" lon="-0.7716300">
        <ele>683.4</ele>
        <time>2019-05-12T16:01:13Z</time>
      </trkpt>
      <trkpt lat="38.5745190" lon="-0.7717040">
        <ele>682.2</ele>
        <time>2019-05-12T16:01:14Z</time>
      </trkpt>
      <trkpt lat="38.5744630" lon="-0.7717790">
        <ele>681.2</ele>
        <time>2019-05-12T16:01:15Z</time>
      </trkpt>
      <trkpt lat="38.5744090" lon="-0.7718550">
        <ele>680.4</ele>
        <time>2019-05-12T16:01:16Z</time>
      </trkpt>
      <trkpt lat="38.5742630" lon="-0.7720930">
        <ele>679.6</ele>
        <time>2019-05-12T16:01:19Z</time>
      </trkpt>
      <trkpt lat="38.5742030" lon="-0.7721720">
        <ele>678.6</ele>
        <time>2019-05-12T16:01:20Z</time>
      </trkpt>
      <trkpt lat="38.5740690" lon="-0.7723220">
        <ele>677.0</ele>
        <time>2019-05-12T16:01:22Z</time>
      </trkpt>
      <trkpt lat="38.5739180" lon="-0.7724550">
        <ele>675.4</ele>
        <time>2019-05-12T16:01:24Z</time>
      </trkpt>
      <trkpt lat="38.5738370" lon="-0.7725030">
        <ele>675.2</ele>
        <time>2019-05-12T16:01:25Z</time>
      </trkpt>
      <trkpt lat="38.5736380" lon="-0.7725670">
        <ele>675.2</ele>
        <time>2019-05-12T16:01:28Z</time>
      </trkpt>
      <trkpt lat="38.5735370" lon="-0.7726110">
        <ele>675.4</ele>
        <time>2019-05-12T16:01:30Z</time>
      </trkpt>
      <trkpt lat="38.5734210" lon="-0.7726770">
        <ele>674.8</ele>
        <time>2019-05-12T16:01:32Z</time>
      </trkpt>
      <trkpt lat="38.5733500" lon="-0.7727190">
        <ele>674.0</ele>
        <time>2019-05-12T16:01:33Z</time>
      </trkpt>
      <trkpt lat="38.5732810" lon="-0.7727640">
        <ele>672.8</ele>
        <time>2019-05-12T16:01:34Z</time>
      </trkpt>
      <trkpt lat="38.5731380" lon="-0.7728540">
        <ele>671.6</ele>
        <time>2019-05-12T16:01:36Z</time>
      </trkpt>
      <trkpt lat="38.5730700" lon="-0.7729050">
        <ele>671.4</ele>
        <time>2019-05-12T16:01:37Z</time>
      </trkpt>
      <trkpt lat="38.5730030" lon="-0.7729570">
        <ele>670.6</ele>
        <time>2019-05-12T16:01:38Z</time>
      </trkpt>
      <trkpt lat="38.5728750" lon="-0.7730700">
        <ele>669.4</ele>
        <time>2019-05-12T16:01:40Z</time>
      </trkpt>
      <trkpt lat="38.5726960" lon="-0.7732540">
        <ele>668.6</ele>
        <time>2019-05-12T16:01:43Z</time>
      </trkpt>
      <trkpt lat="38.5725620" lon="-0.7734810">
        <ele>667.8</ele>
        <time>2019-05-12T16:01:46Z</time>
      </trkpt>
      <trkpt lat="38.5725160" lon="-0.7735510">
        <ele>667.4</ele>
        <time>2019-05-12T16:01:47Z</time>
      </trkpt>
      <trkpt lat="38.5724100" lon="-0.7736760">
        <ele>666.4</ele>
        <time>2019-05-12T16:01:49Z</time>
      </trkpt>
      <trkpt lat="38.5722430" lon="-0.7738370">
        <ele>666.4</ele>
        <time>2019-05-12T16:01:52Z</time>
      </trkpt>
      <trkpt lat="38.5719520" lon="-0.7741090">
        <ele>665.4</ele>
        <time>2019-05-12T16:01:57Z</time>
      </trkpt>
      <trkpt lat="38.5718880" lon="-0.7741510">
        <ele>665.2</ele>
        <time>2019-05-12T16:01:58Z</time>
      </trkpt>
      <trkpt lat="38.5718270" lon="-0.7741890">
        <ele>664.8</ele>
        <time>2019-05-12T16:01:59Z</time>
      </trkpt>
      <trkpt lat="38.5717650" lon="-0.7742270">
        <ele>664.4</ele>
        <time>2019-05-12T16:02:00Z</time>
      </trkpt>
      <trkpt lat="38.5714020" lon="-0.7744730">
        <ele>664.8</ele>
        <time>2019-05-12T16:02:06Z</time>
      </trkpt>
      <trkpt lat="38.5711190" lon="-0.7747150">
        <ele>664.6</ele>
        <time>2019-05-12T16:02:12Z</time>
      </trkpt>
      <trkpt lat="38.5708650" lon="-0.7749200">
        <ele>664.4</ele>
        <time>2019-05-12T16:02:17Z</time>
      </trkpt>
      <trkpt lat="38.5705710" lon="-0.7751580">
        <ele>664.4</ele>
        <time>2019-05-12T16:02:23Z</time>
      </trkpt>
      <trkpt lat="38.5702910" lon="-0.7753560">
        <ele>665.0</ele>
        <time>2019-05-12T16:02:29Z</time>
      </trkpt>
      <trkpt lat="38.5700530" lon="-0.7755140">
        <ele>664.8</ele>
        <time>2019-05-12T16:02:34Z</time>
      </trkpt>
      <trkpt lat="38.5700140" lon="-0.7755580">
        <ele>665.2</ele>
        <time>2019-05-12T16:02:35Z</time>
      </trkpt>
      <trkpt lat="38.5698600" lon="-0.7757350">
        <ele>665.2</ele>
        <time>2019-05-12T16:02:39Z</time>
      </trkpt>
      <trkpt lat="38.5695750" lon="-0.7761130">
        <ele>665.0</ele>
        <time>2019-05-12T16:02:47Z</time>
      </trkpt>
      <trkpt lat="38.5692800" lon="-0.7765260">
        <ele>663.6</ele>
        <time>2019-05-12T16:02:55Z</time>
      </trkpt>
      <trkpt lat="38.5692480" lon="-0.7765940">
        <ele>663.2</ele>
        <time>2019-05-12T16:02:56Z</time>
      </trkpt>
      <trkpt lat="38.5691200" lon="-0.7768640">
        <ele>662.4</ele>
        <time>2019-05-12T16:03:00Z</time>
      </trkpt>
      <trkpt lat="38.5690890" lon="-0.7769340">
        <ele>662.2</ele>
        <time>2019-05-12T16:03:01Z</time>
      </trkpt>
      <trkpt lat="38.5689480" lon="-0.7771830">
        <ele>661.2</ele>
        <time>2019-05-12T16:03:05Z</time>
      </trkpt>
      <trkpt lat="38.5689030" lon="-0.7772380">
        <ele>661.0</ele>
        <time>2019-05-12T16:03:06Z</time>
      </trkpt>
      <trkpt lat="38.5686140" lon="-0.7775120">
        <ele>661.2</ele>
        <time>2019-05-12T16:03:12Z</time>
      </trkpt>
      <trkpt lat="38.5682870" lon="-0.7778500">
        <ele>661.6</ele>
        <time>2019-05-12T16:03:19Z</time>
      </trkpt>
      <trkpt lat="38.5682530" lon="-0.7779260">
        <ele>660.8</ele>
        <time>2019-05-12T16:03:20Z</time>
      </trkpt>
      <trkpt lat="38.5682210" lon="-0.7780070">
        <ele>660.0</ele>
        <time>2019-05-12T16:03:21Z</time>
      </trkpt>
      <trkpt lat="38.5681560" lon="-0.7781730">
        <ele>658.6</ele>
        <time>2019-05-12T16:03:23Z</time>
      </trkpt>
      <trkpt lat="38.5681110" lon="-0.7782400">
        <ele>657.4</ele>
        <time>2019-05-12T16:03:24Z</time>
      </trkpt>
      <trkpt lat="38.5680560" lon="-0.7782990">
        <ele>656.2</ele>
        <time>2019-05-12T16:03:25Z</time>
      </trkpt>
      <trkpt lat="38.5679920" lon="-0.7783390">
        <ele>655.2</ele>
        <time>2019-05-12T16:03:26Z</time>
      </trkpt>
      <trkpt lat="38.5679310" lon="-0.7783760">
        <ele>654.6</ele>
        <time>2019-05-12T16:03:27Z</time>
      </trkpt>
      <trkpt lat="38.5676500" lon="-0.7785180">
        <ele>656.0</ele>
        <time>2019-05-12T16:03:32Z</time>
      </trkpt>
      <trkpt lat="38.5676000" lon="-0.7785350">
        <ele>656.0</ele>
        <time>2019-05-12T16:03:33Z</time>
      </trkpt>
      <trkpt lat="38.5675480" lon="-0.7785520">
        <ele>656.2</ele>
        <time>2019-05-12T16:03:34Z</time>
      </trkpt>
      <trkpt lat="38.5673380" lon="-0.7786270">
        <ele>656.6</ele>
        <time>2019-05-12T16:03:38Z</time>
      </trkpt>
      <trkpt lat="38.5672350" lon="-0.7786580">
        <ele>657.4</ele>
        <time>2019-05-12T16:03:40Z</time>
      </trkpt>
      <trkpt lat="38.5669580" lon="-0.7787390">
        <ele>656.4</ele>
        <time>2019-05-12T16:03:45Z</time>
      </trkpt>
      <trkpt lat="38.5667410" lon="-0.7788080">
        <ele>657.2</ele>
        <time>2019-05-12T16:03:49Z</time>
      </trkpt>
      <trkpt lat="38.5665760" lon="-0.7788640">
        <ele>657.6</ele>
        <time>2019-05-12T16:03:52Z</time>
      </trkpt>
      <trkpt lat="38.5662450" lon="-0.7789710">
        <ele>657.4</ele>
        <time>2019-05-12T16:03:58Z</time>
      </trkpt>
      <trkpt lat="38.5661390" lon="-0.7790050">
        <ele>657.8</ele>
        <time>2019-05-12T16:04:00Z</time>
      </trkpt>
      <trkpt lat="38.5659740" lon="-0.7790640">
        <ele>657.0</ele>
        <time>2019-05-12T16:04:03Z</time>
      </trkpt>
      <trkpt lat="38.5657560" lon="-0.7791370">
        <ele>657.4</ele>
        <time>2019-05-12T16:04:07Z</time>
      </trkpt>
      <trkpt lat="38.5656480" lon="-0.7791870">
        <ele>657.4</ele>
        <time>2019-05-12T16:04:09Z</time>
      </trkpt>
      <trkpt lat="38.5655980" lon="-0.7792210">
        <ele>657.4</ele>
        <time>2019-05-12T16:04:10Z</time>
      </trkpt>
      <trkpt lat="38.5654470" lon="-0.7794230">
        <ele>657.8</ele>
        <time>2019-05-12T16:04:14Z</time>
      </trkpt>
      <trkpt lat="38.5653730" lon="-0.7795890">
        <ele>658.0</ele>
        <time>2019-05-12T16:04:17Z</time>
      </trkpt>
      <trkpt lat="38.5652900" lon="-0.7797430">
        <ele>658.2</ele>
        <time>2019-05-12T16:04:20Z</time>
      </trkpt>
      <trkpt lat="38.5651170" lon="-0.7799170">
        <ele>657.6</ele>
        <time>2019-05-12T16:04:24Z</time>
      </trkpt>
      <trkpt lat="38.5650730" lon="-0.7799670">
        <ele>657.4</ele>
        <time>2019-05-12T16:04:25Z</time>
      </trkpt>
      <trkpt lat="38.5650360" lon="-0.7800240">
        <ele>657.2</ele>
        <time>2019-05-12T16:04:26Z</time>
      </trkpt>
      <trkpt lat="38.5649720" lon="-0.7801400">
        <ele>657.0</ele>
        <time>2019-05-12T16:04:28Z</time>
      </trkpt>
      <trkpt lat="38.5649110" lon="-0.7802500">
        <ele>657.0</ele>
        <time>2019-05-12T16:04:30Z</time>
      </trkpt>
      <trkpt lat="38.5648100" lon="-0.7804030">
        <ele>657.4</ele>
        <time>2019-05-12T16:04:33Z</time>
      </trkpt>
      <trkpt lat="38.5647270" lon="-0.7805070">
        <ele>657.0</ele>
        <time>2019-05-12T16:04:35Z</time>
      </trkpt>
      <trkpt lat="38.5646470" lon="-0.7806200">
        <ele>656.2</ele>
        <time>2019-05-12T16:04:37Z</time>
      </trkpt>
      <trkpt lat="38.5645750" lon="-0.7807550">
        <ele>655.2</ele>
        <time>2019-05-12T16:04:39Z</time>
      </trkpt>
      <trkpt lat="38.5645410" lon="-0.7808330">
        <ele>654.6</ele>
        <time>2019-05-12T16:04:40Z</time>
      </trkpt>
      <trkpt lat="38.5645180" lon="-0.7809240">
        <ele>654.6</ele>
        <time>2019-05-12T16:04:41Z</time>
      </trkpt>
      <trkpt lat="38.5644860" lon="-0.7811200">
        <ele>653.6</ele>
        <time>2019-05-12T16:04:43Z</time>
      </trkpt>
      <trkpt lat="38.5644610" lon="-0.7812120">
        <ele>652.2</ele>
        <time>2019-05-12T16:04:44Z</time>
      </trkpt>
      <trkpt lat="38.5644390" lon="-0.7813030">
        <ele>648.8</ele>
        <time>2019-05-12T16:04:45Z</time>
      </trkpt>
      <trkpt lat="38.5643630" lon="-0.7814680">
        <ele>647.8</ele>
        <time>2019-05-12T16:04:47Z</time>
      </trkpt>
      <trkpt lat="38.5642080" lon="-0.7816570">
        <ele>646.4</ele>
        <time>2019-05-12T16:04:50Z</time>
      </trkpt>
      <trkpt lat="38.5641590" lon="-0.7817170">
        <ele>646.2</ele>
        <time>2019-05-12T16:04:51Z</time>
      </trkpt>
      <trkpt lat="38.5637610" lon="-0.7821010">
        <ele>646.0</ele>
        <time>2019-05-12T16:04:58Z</time>
      </trkpt>
      <trkpt lat="38.5636250" lon="-0.7821930">
        <ele>645.0</ele>
        <time>2019-05-12T16:05:00Z</time>
      </trkpt>
      <trkpt lat="38.5634800" lon="-0.7822750">
        <ele>643.2</ele>
        <time>2019-05-12T16:05:02Z</time>
      </trkpt>
      <trkpt lat="38.5634060" lon="-0.7823230">
        <ele>642.8</ele>
        <time>2019-05-12T16:05:03Z</time>
      </trkpt>
      <trkpt lat="38.5632600" lon="-0.7824210">
        <ele>642.2</ele>
        <time>2019-05-12T16:05:05Z</time>
      </trkpt>
      <trkpt lat="38.5630550" lon="-0.7825880">
        <ele>641.0</ele>
        <time>2019-05-12T16:05:08Z</time>
      </trkpt>
      <trkpt lat="38.5629250" lon="-0.7827010">
        <ele>639.4</ele>
        <time>2019-05-12T16:05:10Z</time>
      </trkpt>
      <trkpt lat="38.5628050" lon="-0.7828160">
        <ele>638.4</ele>
        <time>2019-05-12T16:05:12Z</time>
      </trkpt>
      <trkpt lat="38.5626940" lon="-0.7829500">
        <ele>637.4</ele>
        <time>2019-05-12T16:05:14Z</time>
      </trkpt>
      <trkpt lat="38.5626450" lon="-0.7830310">
        <ele>637.4</ele>
        <time>2019-05-12T16:05:15Z</time>
      </trkpt>
      <trkpt lat="38.5625440" lon="-0.7833280">
        <ele>636.8</ele>
        <time>2019-05-12T16:05:18Z</time>
      </trkpt>
      <trkpt lat="38.5625290" lon="-0.7835430">
        <ele>635.8</ele>
        <time>2019-05-12T16:05:20Z</time>
      </trkpt>
      <trkpt lat="38.5625480" lon="-0.7836530">
        <ele>635.2</ele>
        <time>2019-05-12T16:05:21Z</time>
      </trkpt>
      <trkpt lat="38.5625860" lon="-0.7837580">
        <ele>634.6</ele>
        <time>2019-05-12T16:05:22Z</time>
      </trkpt>
      <trkpt lat="38.5626720" lon="-0.7839530">
        <ele>633.4</ele>
        <time>2019-05-12T16:05:24Z</time>
      </trkpt>
      <trkpt lat="38.5627010" lon="-0.7840470">
        <ele>632.8</ele>
        <time>2019-05-12T16:05:25Z</time>
      </trkpt>
      <trkpt lat="38.5627150" lon="-0.7841450">
        <ele>632.2</ele>
        <time>2019-05-12T16:05:26Z</time>
      </trkpt>
      <trkpt lat="38.5627120" lon="-0.7842430">
        <ele>631.8</ele>
        <time>2019-05-12T16:05:27Z</time>
      </trkpt>
      <trkpt lat="38.5626390" lon="-0.7844270">
        <ele>631.2</ele>
        <time>2019-05-12T16:05:29Z</time>
      </trkpt>
      <trkpt lat="38.5625860" lon="-0.7845120">
        <ele>630.8</ele>
        <time>2019-05-12T16:05:30Z</time>
      </trkpt>
      <trkpt lat="38.5625330" lon="-0.7845950">
        <ele>630.2</ele>
        <time>2019-05-12T16:05:31Z</time>
      </trkpt>
      <trkpt lat="38.5622760" lon="-0.7850020">
        <ele>629.2</ele>
        <time>2019-05-12T16:05:36Z</time>
      </trkpt>
      <trkpt lat="38.5622200" lon="-0.7850750">
        <ele>628.8</ele>
        <time>2019-05-12T16:05:37Z</time>
      </trkpt>
      <trkpt lat="38.5621180" lon="-0.7852330">
        <ele>627.6</ele>
        <time>2019-05-12T16:05:39Z</time>
      </trkpt>
      <trkpt lat="38.5620660" lon="-0.7853130">
        <ele>627.2</ele>
        <time>2019-05-12T16:05:40Z</time>
      </trkpt>
      <trkpt lat="38.5619160" lon="-0.7855570">
        <ele>626.2</ele>
        <time>2019-05-12T16:05:43Z</time>
      </trkpt>
      <trkpt lat="38.5618140" lon="-0.7857170">
        <ele>624.8</ele>
        <time>2019-05-12T16:05:45Z</time>
      </trkpt>
      <trkpt lat="38.5617110" lon="-0.7858760">
        <ele>623.4</ele>
        <time>2019-05-12T16:05:47Z</time>
      </trkpt>
      <trkpt lat="38.5616610" lon="-0.7859570">
        <ele>623.4</ele>
        <time>2019-05-12T16:05:48Z</time>
      </trkpt>
      <trkpt lat="38.5615160" lon="-0.7862120">
        <ele>622.2</ele>
        <time>2019-05-12T16:05:51Z</time>
      </trkpt>
      <trkpt lat="38.5613210" lon="-0.7865440">
        <ele>620.8</ele>
        <time>2019-05-12T16:05:55Z</time>
      </trkpt>
      <trkpt lat="38.5611490" lon="-0.7868610">
        <ele>619.8</ele>
        <time>2019-05-12T16:05:59Z</time>
      </trkpt>
      <trkpt lat="38.5610600" lon="-0.7870210">
        <ele>618.6</ele>
        <time>2019-05-12T16:06:01Z</time>
      </trkpt>
      <trkpt lat="38.5610070" lon="-0.7870960">
        <ele>618.4</ele>
        <time>2019-05-12T16:06:02Z</time>
      </trkpt>
      <trkpt lat="38.5608860" lon="-0.7872260">
        <ele>617.2</ele>
        <time>2019-05-12T16:06:04Z</time>
      </trkpt>
      <trkpt lat="38.5607470" lon="-0.7873360">
        <ele>616.0</ele>
        <time>2019-05-12T16:06:06Z</time>
      </trkpt>
      <trkpt lat="38.5603840" lon="-0.7875430">
        <ele>615.0</ele>
        <time>2019-05-12T16:06:11Z</time>
      </trkpt>
      <trkpt lat="38.5603150" lon="-0.7875840">
        <ele>614.6</ele>
        <time>2019-05-12T16:06:12Z</time>
      </trkpt>
      <trkpt lat="38.5599880" lon="-0.7877860">
        <ele>613.6</ele>
        <time>2019-05-12T16:06:17Z</time>
      </trkpt>
      <trkpt lat="38.5598530" lon="-0.7878650">
        <ele>612.8</ele>
        <time>2019-05-12T16:06:19Z</time>
      </trkpt>
      <trkpt lat="38.5597210" lon="-0.7879500">
        <ele>612.0</ele>
        <time>2019-05-12T16:06:21Z</time>
      </trkpt>
      <trkpt lat="38.5595870" lon="-0.7880250">
        <ele>610.8</ele>
        <time>2019-05-12T16:06:23Z</time>
      </trkpt>
      <trkpt lat="38.5593160" lon="-0.7881530">
        <ele>610.8</ele>
        <time>2019-05-12T16:06:27Z</time>
      </trkpt>
      <trkpt lat="38.5591760" lon="-0.7882170">
        <ele>609.6</ele>
        <time>2019-05-12T16:06:29Z</time>
      </trkpt>
      <trkpt lat="38.5591060" lon="-0.7882500">
        <ele>608.6</ele>
        <time>2019-05-12T16:06:30Z</time>
      </trkpt>
      <trkpt lat="38.5589700" lon="-0.7883180">
        <ele>607.4</ele>
        <time>2019-05-12T16:06:32Z</time>
      </trkpt>
      <trkpt lat="38.5587770" lon="-0.7884480">
        <ele>607.4</ele>
        <time>2019-05-12T16:06:35Z</time>
      </trkpt>
      <trkpt lat="38.5586040" lon="-0.7886140">
        <ele>606.0</ele>
        <time>2019-05-12T16:06:38Z</time>
      </trkpt>
      <trkpt lat="38.5583970" lon="-0.7888530">
        <ele>605.6</ele>
        <time>2019-05-12T16:06:42Z</time>
      </trkpt>
      <trkpt lat="38.5582990" lon="-0.7889790">
        <ele>604.0</ele>
        <time>2019-05-12T16:06:44Z</time>
      </trkpt>
      <trkpt lat="38.5581240" lon="-0.7892490">
        <ele>603.6</ele>
        <time>2019-05-12T16:06:48Z</time>
      </trkpt>
      <trkpt lat="38.5580870" lon="-0.7893240">
        <ele>603.6</ele>
        <time>2019-05-12T16:06:49Z</time>
      </trkpt>
      <trkpt lat="38.5579690" lon="-0.7895450">
        <ele>602.8</ele>
        <time>2019-05-12T16:06:52Z</time>
      </trkpt>
      <trkpt lat="38.5578340" lon="-0.7897560">
        <ele>601.6</ele>
        <time>2019-05-12T16:06:55Z</time>
      </trkpt>
      <trkpt lat="38.5577850" lon="-0.7898230">
        <ele>601.2</ele>
        <time>2019-05-12T16:06:56Z</time>
      </trkpt>
      <trkpt lat="38.5576710" lon="-0.7899460">
        <ele>600.4</ele>
        <time>2019-05-12T16:06:58Z</time>
      </trkpt>
      <trkpt lat="38.5575440" lon="-0.7900280">
        <ele>599.4</ele>
        <time>2019-05-12T16:07:00Z</time>
      </trkpt>
      <trkpt lat="38.5574150" lon="-0.7900880">
        <ele>599.4</ele>
        <time>2019-05-12T16:07:02Z</time>
      </trkpt>
      <trkpt lat="38.5571360" lon="-0.7902010">
        <ele>598.0</ele>
        <time>2019-05-12T16:07:06Z</time>
      </trkpt>
      <trkpt lat="38.5569250" lon="-0.7903010">
        <ele>596.8</ele>
        <time>2019-05-12T16:07:09Z</time>
      </trkpt>
      <trkpt lat="38.5567910" lon="-0.7903740">
        <ele>595.0</ele>
        <time>2019-05-12T16:07:11Z</time>
      </trkpt>
      <trkpt lat="38.5566620" lon="-0.7904510">
        <ele>594.2</ele>
        <time>2019-05-12T16:07:13Z</time>
      </trkpt>
      <trkpt lat="38.5564070" lon="-0.7906110">
        <ele>593.6</ele>
        <time>2019-05-12T16:07:17Z</time>
      </trkpt>
      <trkpt lat="38.5563490" lon="-0.7906660">
        <ele>593.4</ele>
        <time>2019-05-12T16:07:18Z</time>
      </trkpt>
      <trkpt lat="38.5563000" lon="-0.7907290">
        <ele>593.2</ele>
        <time>2019-05-12T16:07:19Z</time>
      </trkpt>
      <trkpt lat="38.5562000" lon="-0.7908800">
        <ele>592.0</ele>
        <time>2019-05-12T16:07:21Z</time>
      </trkpt>
      <trkpt lat="38.5560890" lon="-0.7910190">
        <ele>590.8</ele>
        <time>2019-05-12T16:07:23Z</time>
      </trkpt>
      <trkpt lat="38.5559110" lon="-0.7912040">
        <ele>589.4</ele>
        <time>2019-05-12T16:07:26Z</time>
      </trkpt>
      <trkpt lat="38.5557720" lon="-0.7913970">
        <ele>588.4</ele>
        <time>2019-05-12T16:07:29Z</time>
      </trkpt>
      <trkpt lat="38.5555090" lon="-0.7917920">
        <ele>588.0</ele>
        <time>2019-05-12T16:07:35Z</time>
      </trkpt>
      <trkpt lat="38.5553430" lon="-0.7919580">
        <ele>587.2</ele>
        <time>2019-05-12T16:07:38Z</time>
      </trkpt>
      <trkpt lat="38.5552240" lon="-0.7920540">
        <ele>586.6</ele>
        <time>2019-05-12T16:07:40Z</time>
      </trkpt>
      <trkpt lat="38.5549920" lon="-0.7921970">
        <ele>586.6</ele>
        <time>2019-05-12T16:07:44Z</time>
      </trkpt>
      <trkpt lat="38.5549280" lon="-0.7922160">
        <ele>586.2</ele>
        <time>2019-05-12T16:07:45Z</time>
      </trkpt>
      <trkpt lat="38.5548610" lon="-0.7922350">
        <ele>585.8</ele>
        <time>2019-05-12T16:07:46Z</time>
      </trkpt>
      <trkpt lat="38.5547960" lon="-0.7922650">
        <ele>585.6</ele>
        <time>2019-05-12T16:07:47Z</time>
      </trkpt>
      <trkpt lat="38.5546790" lon="-0.7923720">
        <ele>584.8</ele>
        <time>2019-05-12T16:07:49Z</time>
      </trkpt>
      <trkpt lat="38.5545820" lon="-0.7925020">
        <ele>584.2</ele>
        <time>2019-05-12T16:07:51Z</time>
      </trkpt>
      <trkpt lat="38.5544230" lon="-0.7926840">
        <ele>583.6</ele>
        <time>2019-05-12T16:07:54Z</time>
      </trkpt>
      <trkpt lat="38.5542570" lon="-0.7928580">
        <ele>582.4</ele>
        <time>2019-05-12T16:07:57Z</time>
      </trkpt>
      <trkpt lat="38.5541900" lon="-0.7928920">
        <ele>582.2</ele>
        <time>2019-05-12T16:07:58Z</time>
      </trkpt>
      <trkpt lat="38.5541210" lon="-0.7929200">
        <ele>581.8</ele>
        <time>2019-05-12T16:07:59Z</time>
      </trkpt>
      <trkpt lat="38.5540530" lon="-0.7929540">
        <ele>581.4</ele>
        <time>2019-05-12T16:08:00Z</time>
      </trkpt>
      <trkpt lat="38.5538560" lon="-0.7930810">
        <ele>580.0</ele>
        <time>2019-05-12T16:08:03Z</time>
      </trkpt>
      <trkpt lat="38.5537260" lon="-0.7931710">
        <ele>579.6</ele>
        <time>2019-05-12T16:08:05Z</time>
      </trkpt>
      <trkpt lat="38.5536640" lon="-0.7932140">
        <ele>579.0</ele>
        <time>2019-05-12T16:08:06Z</time>
      </trkpt>
      <trkpt lat="38.5534660" lon="-0.7934150">
        <ele>578.0</ele>
        <time>2019-05-12T16:08:10Z</time>
      </trkpt>
      <trkpt lat="38.5532940" lon="-0.7936320">
        <ele>577.4</ele>
        <time>2019-05-12T16:08:14Z</time>
      </trkpt>
      <trkpt lat="38.5532520" lon="-0.7936870">
        <ele>577.2</ele>
        <time>2019-05-12T16:08:16Z</time>
      </trkpt>
      <trkpt lat="38.5531780" lon="-0.7937720">
        <ele>577.4</ele>
        <time>2019-05-12T16:08:21Z</time>
      </trkpt>
      <trkpt lat="38.5531100" lon="-0.7938060">
        <ele>577.8</ele>
        <time>2019-05-12T16:08:26Z</time>
      </trkpt>
      <trkpt lat="38.5530870" lon="-0.7937890">
        <ele>577.6</ele>
        <time>2019-05-12T16:08:28Z</time>
      </trkpt>
      <trkpt lat="38.5530650" lon="-0.7937780">
        <ele>578.0</ele>
        <time>2019-05-12T16:08:30Z</time>
      </trkpt>
      <trkpt lat="38.5529770" lon="-0.7937620">
        <ele>577.2</ele>
        <time>2019-05-12T16:08:36Z</time>
      </trkpt>
      <trkpt lat="38.5528990" lon="-0.7938010">
        <ele>576.6</ele>
        <time>2019-05-12T16:08:40Z</time>
      </trkpt>
      <trkpt lat="38.5528820" lon="-0.7938210">
        <ele>576.4</ele>
        <time>2019-05-12T16:08:41Z</time>
      </trkpt>
      <trkpt lat="38.5528200" lon="-0.7939350">
        <ele>576.2</ele>
        <time>2019-05-12T16:08:46Z</time>
      </trkpt>
      <trkpt lat="38.5527250" lon="-0.7941170">
        <ele>575.8</ele>
        <time>2019-05-12T16:08:52Z</time>
      </trkpt>
      <trkpt lat="38.5526980" lon="-0.7941840">
        <ele>575.4</ele>
        <time>2019-05-12T16:08:54Z</time>
      </trkpt>
      <trkpt lat="38.5526350" lon="-0.7942730">
        <ele>575.4</ele>
        <time>2019-05-12T16:08:58Z</time>
      </trkpt>
      <trkpt lat="38.5525410" lon="-0.7943910">
        <ele>574.8</ele>
        <time>2019-05-12T16:09:02Z</time>
      </trkpt>
      <trkpt lat="38.5524210" lon="-0.7944190">
        <ele>574.4</ele>
        <time>2019-05-12T16:09:05Z</time>
      </trkpt>
      <trkpt lat="38.5523730" lon="-0.7944260">
        <ele>574.2</ele>
        <time>2019-05-12T16:09:06Z</time>
      </trkpt>
      <trkpt lat="38.5523240" lon="-0.7944460">
        <ele>574.2</ele>
        <time>2019-05-12T16:09:07Z</time>
      </trkpt>
      <trkpt lat="38.5521940" lon="-0.7945450">
        <ele>574.4</ele>
        <time>2019-05-12T16:09:10Z</time>
      </trkpt>
      <trkpt lat="38.5520450" lon="-0.7946390">
        <ele>573.2</ele>
        <time>2019-05-12T16:09:13Z</time>
      </trkpt>
      <trkpt lat="38.5519990" lon="-0.7946780">
        <ele>572.8</ele>
        <time>2019-05-12T16:09:14Z</time>
      </trkpt>
      <trkpt lat="38.5519040" lon="-0.7947590">
        <ele>572.6</ele>
        <time>2019-05-12T16:09:16Z</time>
      </trkpt>
      <trkpt lat="38.5518630" lon="-0.7948100">
        <ele>572.6</ele>
        <time>2019-05-12T16:09:17Z</time>
      </trkpt>
      <trkpt lat="38.5518030" lon="-0.7949390">
        <ele>572.0</ele>
        <time>2019-05-12T16:09:19Z</time>
      </trkpt>
      <trkpt lat="38.5517720" lon="-0.7950070">
        <ele>571.6</ele>
        <time>2019-05-12T16:09:20Z</time>
      </trkpt>
      <trkpt lat="38.5516620" lon="-0.7951900">
        <ele>571.2</ele>
        <time>2019-05-12T16:09:23Z</time>
      </trkpt>
      <trkpt lat="38.5515740" lon="-0.7952970">
        <ele>571.0</ele>
        <time>2019-05-12T16:09:25Z</time>
      </trkpt>
      <trkpt lat="38.5515040" lon="-0.7954170">
        <ele>570.6</ele>
        <time>2019-05-12T16:09:27Z</time>
      </trkpt>
      <trkpt lat="38.5514310" lon="-0.7955330">
        <ele>570.4</ele>
        <time>2019-05-12T16:09:29Z</time>
      </trkpt>
      <trkpt lat="38.5511610" lon="-0.7959320">
        <ele>570.8</ele>
        <time>2019-05-12T16:09:36Z</time>
      </trkpt>
      <trkpt lat="38.5511300" lon="-0.7959950">
        <ele>571.4</ele>
        <time>2019-05-12T16:09:37Z</time>
      </trkpt>
      <trkpt lat="38.5510520" lon="-0.7961600">
        <ele>571.4</ele>
        <time>2019-05-12T16:09:40Z</time>
      </trkpt>
      <trkpt lat="38.5510400" lon="-0.7962040">
        <ele>571.6</ele>
        <time>2019-05-12T16:09:41Z</time>
      </trkpt>
      <trkpt lat="38.5510230" lon="-0.7962970">
        <ele>572.2</ele>
        <time>2019-05-12T16:09:43Z</time>
      </trkpt>
      <trkpt lat="38.5510110" lon="-0.7963490">
        <ele>572.6</ele>
        <time>2019-05-12T16:09:44Z</time>
      </trkpt>
      <trkpt lat="38.5510020" lon="-0.7964090">
        <ele>573.0</ele>
        <time>2019-05-12T16:09:45Z</time>
      </trkpt>
      <trkpt lat="38.5509710" lon="-0.7965280">
        <ele>573.4</ele>
        <time>2019-05-12T16:09:47Z</time>
      </trkpt>
      <trkpt lat="38.5508900" lon="-0.7967630">
        <ele>573.8</ele>
        <time>2019-05-12T16:09:51Z</time>
      </trkpt>
      <trkpt lat="38.5508550" lon="-0.7968150">
        <ele>573.6</ele>
        <time>2019-05-12T16:09:52Z</time>
      </trkpt>
      <trkpt lat="38.5507530" lon="-0.7969580">
        <ele>573.8</ele>
        <time>2019-05-12T16:09:55Z</time>
      </trkpt>
      <trkpt lat="38.5506840" lon="-0.7970520">
        <ele>573.4</ele>
        <time>2019-05-12T16:09:57Z</time>
      </trkpt>
      <trkpt lat="38.5506220" lon="-0.7971560">
        <ele>573.0</ele>
        <time>2019-05-12T16:09:59Z</time>
      </trkpt>
      <trkpt lat="38.5504720" lon="-0.7972030">
        <ele>572.6</ele>
        <time>2019-05-12T16:10:02Z</time>
      </trkpt>
      <trkpt lat="38.5503800" lon="-0.7972430">
        <ele>572.8</ele>
        <time>2019-05-12T16:10:04Z</time>
      </trkpt>
      <trkpt lat="38.5502610" lon="-0.7973170">
        <ele>573.0</ele>
        <time>2019-05-12T16:10:07Z</time>
      </trkpt>
      <trkpt lat="38.5499990" lon="-0.7975140">
        <ele>572.0</ele>
        <time>2019-05-12T16:10:14Z</time>
      </trkpt>
      <trkpt lat="38.5498400" lon="-0.7976550">
        <ele>570.8</ele>
        <time>2019-05-12T16:10:18Z</time>
      </trkpt>
      <trkpt lat="38.5497050" lon="-0.7977790">
        <ele>569.4</ele>
        <time>2019-05-12T16:10:21Z</time>
      </trkpt>
      <trkpt lat="38.5496020" lon="-0.7978650">
        <ele>568.4</ele>
        <time>2019-05-12T16:10:23Z</time>
      </trkpt>
      <trkpt lat="38.5494890" lon="-0.7979510">
        <ele>567.4</ele>
        <time>2019-05-12T16:10:25Z</time>
      </trkpt>
      <trkpt lat="38.5494320" lon="-0.7980000">
        <ele>566.8</ele>
        <time>2019-05-12T16:10:26Z</time>
      </trkpt>
      <trkpt lat="38.5493730" lon="-0.7980540">
        <ele>566.2</ele>
        <time>2019-05-12T16:10:27Z</time>
      </trkpt>
      <trkpt lat="38.5492440" lon="-0.7981460">
        <ele>565.0</ele>
        <time>2019-05-12T16:10:29Z</time>
      </trkpt>
      <trkpt lat="38.5491080" lon="-0.7982270">
        <ele>564.0</ele>
        <time>2019-05-12T16:10:31Z</time>
      </trkpt>
      <trkpt lat="38.5488520" lon="-0.7983810">
        <ele>562.8</ele>
        <time>2019-05-12T16:10:35Z</time>
      </trkpt>
      <trkpt lat="38.5487310" lon="-0.7984500">
        <ele>563.0</ele>
        <time>2019-05-12T16:10:37Z</time>
      </trkpt>
      <trkpt lat="38.5484430" lon="-0.7986040">
        <ele>563.2</ele>
        <time>2019-05-12T16:10:42Z</time>
      </trkpt>
      <trkpt lat="38.5482070" lon="-0.7987280">
        <ele>562.0</ele>
        <time>2019-05-12T16:10:46Z</time>
      </trkpt>
      <trkpt lat="38.5481430" lon="-0.7987550">
        <ele>561.8</ele>
        <time>2019-05-12T16:10:47Z</time>
      </trkpt>
      <trkpt lat="38.5477150" lon="-0.7988930">
        <ele>561.6</ele>
        <time>2019-05-12T16:10:54Z</time>
      </trkpt>
      <trkpt lat="38.5475340" lon="-0.7989520">
        <ele>560.8</ele>
        <time>2019-05-12T16:10:57Z</time>
      </trkpt>
      <trkpt lat="38.5474760" lon="-0.7989790">
        <ele>560.8</ele>
        <time>2019-05-12T16:10:58Z</time>
      </trkpt>
      <trkpt lat="38.5473610" lon="-0.7990170">
        <ele>561.8</ele>
        <time>2019-05-12T16:11:00Z</time>
      </trkpt>
      <trkpt lat="38.5470960" lon="-0.7991030">
        <ele>562.8</ele>
        <time>2019-05-12T16:11:05Z</time>
      </trkpt>
      <trkpt lat="38.5469960" lon="-0.7991340">
        <ele>563.8</ele>
        <time>2019-05-12T16:11:07Z</time>
      </trkpt>
      <trkpt lat="38.5469460" lon="-0.7991500">
        <ele>564.0</ele>
        <time>2019-05-12T16:11:08Z</time>
      </trkpt>
      <trkpt lat="38.5468020" lon="-0.7991940">
        <ele>562.8</ele>
        <time>2019-05-12T16:11:11Z</time>
      </trkpt>
      <trkpt lat="38.5465770" lon="-0.7992730">
        <ele>563.4</ele>
        <time>2019-05-12T16:11:16Z</time>
      </trkpt>
      <trkpt lat="38.5464460" lon="-0.7993130">
        <ele>563.8</ele>
        <time>2019-05-12T16:11:19Z</time>
      </trkpt>
      <trkpt lat="38.5462280" lon="-0.7993740">
        <ele>564.2</ele>
        <time>2019-05-12T16:11:24Z</time>
      </trkpt>
      <trkpt lat="38.5461360" lon="-0.7993840">
        <ele>564.8</ele>
        <time>2019-05-12T16:11:26Z</time>
      </trkpt>
      <trkpt lat="38.5459470" lon="-0.7993710">
        <ele>565.0</ele>
        <time>2019-05-12T16:11:30Z</time>
      </trkpt>
      <trkpt lat="38.5455050" lon="-0.7993380">
        <ele>565.6</ele>
        <time>2019-05-12T16:11:39Z</time>
      </trkpt>
      <trkpt lat="38.5450710" lon="-0.7993210">
        <ele>565.2</ele>
        <time>2019-05-12T16:11:48Z</time>
      </trkpt>
      <trkpt lat="38.5448940" lon="-0.7993130">
        <ele>566.4</ele>
        <time>2019-05-12T16:11:52Z</time>
      </trkpt>
      <trkpt lat="38.5447110" lon="-0.7993240">
        <ele>566.2</ele>
        <time>2019-05-12T16:11:56Z</time>
      </trkpt>
      <trkpt lat="38.5446650" lon="-0.7993370">
        <ele>566.0</ele>
        <time>2019-05-12T16:11:57Z</time>
      </trkpt>
      <trkpt lat="38.5443930" lon="-0.7994720">
        <ele>566.2</ele>
        <time>2019-05-12T16:12:03Z</time>
      </trkpt>
      <trkpt lat="38.5441310" lon="-0.7996350">
        <ele>565.2</ele>
        <time>2019-05-12T16:12:08Z</time>
      </trkpt>
      <trkpt lat="38.5440690" lon="-0.7996560">
        <ele>564.8</ele>
        <time>2019-05-12T16:12:09Z</time>
      </trkpt>
      <trkpt lat="38.5438760" lon="-0.7996830">
        <ele>563.4</ele>
        <time>2019-05-12T16:12:12Z</time>
      </trkpt>
      <trkpt lat="38.5437440" lon="-0.7996960">
        <ele>562.0</ele>
        <time>2019-05-12T16:12:14Z</time>
      </trkpt>
      <trkpt lat="38.5435450" lon="-0.7997590">
        <ele>561.0</ele>
        <time>2019-05-12T16:12:17Z</time>
      </trkpt>
      <trkpt lat="38.5434300" lon="-0.7998530">
        <ele>561.6</ele>
        <time>2019-05-12T16:12:19Z</time>
      </trkpt>
      <trkpt lat="38.5433320" lon="-0.7999540">
        <ele>561.4</ele>
        <time>2019-05-12T16:12:21Z</time>
      </trkpt>
      <trkpt lat="38.5431960" lon="-0.8000790">
        <ele>561.2</ele>
        <time>2019-05-12T16:12:24Z</time>
      </trkpt>
      <trkpt lat="38.5429860" lon="-0.8002300">
        <ele>561.4</ele>
        <time>2019-05-12T16:12:28Z</time>
      </trkpt>
      <trkpt lat="38.5429310" lon="-0.8002490">
        <ele>561.4</ele>
        <time>2019-05-12T16:12:29Z</time>
      </trkpt>
      <trkpt lat="38.5426670" lon="-0.8002750">
        <ele>561.6</ele>
        <time>2019-05-12T16:12:34Z</time>
      </trkpt>
      <trkpt lat="38.5426200" lon="-0.8002790">
        <ele>561.8</ele>
        <time>2019-05-12T16:12:35Z</time>
      </trkpt>
      <trkpt lat="38.5424760" lon="-0.8002870">
        <ele>563.2</ele>
        <time>2019-05-12T16:12:38Z</time>
      </trkpt>
      <trkpt lat="38.5424270" lon="-0.8002850">
        <ele>563.4</ele>
        <time>2019-05-12T16:12:39Z</time>
      </trkpt>
      <trkpt lat="38.5423770" lon="-0.8002860">
        <ele>563.4</ele>
        <time>2019-05-12T16:12:40Z</time>
      </trkpt>
      <trkpt lat="38.5422820" lon="-0.8002850">
        <ele>564.2</ele>
        <time>2019-05-12T16:12:42Z</time>
      </trkpt>
      <trkpt lat="38.5420860" lon="-0.8002900">
        <ele>564.0</ele>
        <time>2019-05-12T16:12:46Z</time>
      </trkpt>
      <trkpt lat="38.5420380" lon="-0.8002940">
        <ele>563.6</ele>
        <time>2019-05-12T16:12:47Z</time>
      </trkpt>
      <trkpt lat="38.5417700" lon="-0.8003450">
        <ele>564.8</ele>
        <time>2019-05-12T16:12:53Z</time>
      </trkpt>
      <trkpt lat="38.5417300" lon="-0.8003610">
        <ele>564.8</ele>
        <time>2019-05-12T16:12:54Z</time>
      </trkpt>
      <trkpt lat="38.5416080" lon="-0.8004420">
        <ele>564.8</ele>
        <time>2019-05-12T16:12:57Z</time>
      </trkpt>
      <trkpt lat="38.5415380" lon="-0.8005160">
        <ele>564.2</ele>
        <time>2019-05-12T16:12:59Z</time>
      </trkpt>
      <trkpt lat="38.5414240" lon="-0.8006410">
        <ele>563.8</ele>
        <time>2019-05-12T16:13:02Z</time>
      </trkpt>
      <trkpt lat="38.5413540" lon="-0.8007550">
        <ele>563.2</ele>
        <time>2019-05-12T16:13:04Z</time>
      </trkpt>
      <trkpt lat="38.5413190" lon="-0.8008190">
        <ele>562.6</ele>
        <time>2019-05-12T16:13:05Z</time>
      </trkpt>
      <trkpt lat="38.5412470" lon="-0.8009530">
        <ele>561.8</ele>
        <time>2019-05-12T16:13:07Z</time>
      </trkpt>
      <trkpt lat="38.5412000" lon="-0.8010090">
        <ele>560.2</ele>
        <time>2019-05-12T16:13:08Z</time>
      </trkpt>
      <trkpt lat="38.5411300" lon="-0.8010330">
        <ele>559.6</ele>
        <time>2019-05-12T16:13:09Z</time>
      </trkpt>
      <trkpt lat="38.5410570" lon="-0.8010440">
        <ele>559.0</ele>
        <time>2019-05-12T16:13:10Z</time>
      </trkpt>
      <trkpt lat="38.5409750" lon="-0.8010340">
        <ele>557.8</ele>
        <time>2019-05-12T16:13:11Z</time>
      </trkpt>
      <trkpt lat="38.5408900" lon="-0.8010090">
        <ele>556.8</ele>
        <time>2019-05-12T16:13:12Z</time>
      </trkpt>
      <trkpt lat="38.5408040" lon="-0.8009860">
        <ele>556.0</ele>
        <time>2019-05-12T16:13:13Z</time>
      </trkpt>
      <trkpt lat="38.5407160" lon="-0.8009660">
        <ele>555.6</ele>
        <time>2019-05-12T16:13:14Z</time>
      </trkpt>
      <trkpt lat="38.5404610" lon="-0.8009090">
        <ele>554.6</ele>
        <time>2019-05-12T16:13:17Z</time>
      </trkpt>
      <trkpt lat="38.5402960" lon="-0.8008750">
        <ele>553.4</ele>
        <time>2019-05-12T16:13:19Z</time>
      </trkpt>
      <trkpt lat="38.5402120" lon="-0.8008700">
        <ele>553.4</ele>
        <time>2019-05-12T16:13:20Z</time>
      </trkpt>
      <trkpt lat="38.5399530" lon="-0.8008610">
        <ele>551.8</ele>
        <time>2019-05-12T16:13:23Z</time>
      </trkpt>
      <trkpt lat="38.5398680" lon="-0.8008510">
        <ele>550.0</ele>
        <time>2019-05-12T16:13:24Z</time>
      </trkpt>
      <trkpt lat="38.5397850" lon="-0.8008310">
        <ele>548.6</ele>
        <time>2019-05-12T16:13:25Z</time>
      </trkpt>
      <trkpt lat="38.5395470" lon="-0.8007500">
        <ele>547.6</ele>
        <time>2019-05-12T16:13:28Z</time>
      </trkpt>
      <trkpt lat="38.5394710" lon="-0.8007210">
        <ele>547.6</ele>
        <time>2019-05-12T16:13:29Z</time>
      </trkpt>
      <trkpt lat="38.5391190" lon="-0.8005490">
        <ele>549.0</ele>
        <time>2019-05-12T16:13:34Z</time>
      </trkpt>
      <trkpt lat="38.5390470" lon="-0.8005220">
        <ele>549.8</ele>
        <time>2019-05-12T16:13:35Z</time>
      </trkpt>
      <trkpt lat="38.5386730" lon="-0.8003870">
        <ele>547.8</ele>
        <time>2019-05-12T16:13:40Z</time>
      </trkpt>
      <trkpt lat="38.5385290" lon="-0.8003470">
        <ele>546.4</ele>
        <time>2019-05-12T16:13:42Z</time>
      </trkpt>
      <trkpt lat="38.5381420" lon="-0.8002430">
        <ele>545.4</ele>
        <time>2019-05-12T16:13:48Z</time>
      </trkpt>
      <trkpt lat="38.5380820" lon="-0.8002260">
        <ele>545.2</ele>
        <time>2019-05-12T16:13:49Z</time>
      </trkpt>
      <trkpt lat="38.5377760" lon="-0.8001530">
        <ele>546.6</ele>
        <time>2019-05-12T16:13:54Z</time>
      </trkpt>
      <trkpt lat="38.5375810" lon="-0.8001060">
        <ele>546.2</ele>
        <time>2019-05-12T16:13:57Z</time>
      </trkpt>
      <trkpt lat="38.5375160" lon="-0.8000880">
        <ele>545.2</ele>
        <time>2019-05-12T16:13:58Z</time>
      </trkpt>
      <trkpt lat="38.5371770" lon="-0.7999770">
        <ele>543.8</ele>
        <time>2019-05-12T16:14:03Z</time>
      </trkpt>
      <trkpt lat="38.5370380" lon="-0.7999310">
        <ele>543.6</ele>
        <time>2019-05-12T16:14:05Z</time>
      </trkpt>
      <trkpt lat="38.5366860" lon="-0.7998100">
        <ele>542.6</ele>
        <time>2019-05-12T16:14:10Z</time>
      </trkpt>
      <trkpt lat="38.5364750" lon="-0.7997430">
        <ele>541.2</ele>
        <time>2019-05-12T16:14:13Z</time>
      </trkpt>
      <trkpt lat="38.5364050" lon="-0.7997220">
        <ele>540.8</ele>
        <time>2019-05-12T16:14:14Z</time>
      </trkpt>
      <trkpt lat="38.5359370" lon="-0.7996010">
        <ele>540.8</ele>
        <time>2019-05-12T16:14:21Z</time>
      </trkpt>
      <trkpt lat="38.5354860" lon="-0.7994880">
        <ele>541.8</ele>
        <time>2019-05-12T16:14:28Z</time>
      </trkpt>
      <trkpt lat="38.5350410" lon="-0.7993870">
        <ele>541.6</ele>
        <time>2019-05-12T16:14:35Z</time>
      </trkpt>
      <trkpt lat="38.5348000" lon="-0.7993400">
        <ele>542.2</ele>
        <time>2019-05-12T16:14:39Z</time>
      </trkpt>
      <trkpt lat="38.5346300" lon="-0.7993000">
        <ele>542.2</ele>
        <time>2019-05-12T16:14:42Z</time>
      </trkpt>
      <trkpt lat="38.5342610" lon="-0.7992130">
        <ele>544.0</ele>
        <time>2019-05-12T16:14:49Z</time>
      </trkpt>
      <trkpt lat="38.5337670" lon="-0.7990780">
        <ele>543.0</ele>
        <time>2019-05-12T16:14:58Z</time>
      </trkpt>
      <trkpt lat="38.5334220" lon="-0.7989730">
        <ele>543.2</ele>
        <time>2019-05-12T16:15:04Z</time>
      </trkpt>
      <trkpt lat="38.5333680" lon="-0.7989600">
        <ele>543.0</ele>
        <time>2019-05-12T16:15:05Z</time>
      </trkpt>
      <trkpt lat="38.5329740" lon="-0.7988420">
        <ele>543.0</ele>
        <time>2019-05-12T16:15:12Z</time>
      </trkpt>
      <trkpt lat="38.5327060" lon="-0.7987720">
        <ele>544.0</ele>
        <time>2019-05-12T16:15:17Z</time>
      </trkpt>
      <trkpt lat="38.5325050" lon="-0.7987060">
        <ele>544.0</ele>
        <time>2019-05-12T16:15:21Z</time>
      </trkpt>
      <trkpt lat="38.5321730" lon="-0.7985310">
        <ele>544.8</ele>
        <time>2019-05-12T16:15:28Z</time>
      </trkpt>
      <trkpt lat="38.5321250" lon="-0.7985040">
        <ele>545.2</ele>
        <time>2019-05-12T16:15:29Z</time>
      </trkpt>
      <trkpt lat="38.5317760" lon="-0.7983090">
        <ele>545.8</ele>
        <time>2019-05-12T16:15:36Z</time>
      </trkpt>
      <trkpt lat="38.5313230" lon="-0.7980340">
        <ele>545.2</ele>
        <time>2019-05-12T16:15:45Z</time>
      </trkpt>
      <trkpt lat="38.5309810" lon="-0.7979240">
        <ele>545.0</ele>
        <time>2019-05-12T16:15:51Z</time>
      </trkpt>
      <trkpt lat="38.5306990" lon="-0.7978730">
        <ele>546.2</ele>
        <time>2019-05-12T16:15:56Z</time>
      </trkpt>
      <trkpt lat="38.5304830" lon="-0.7978380">
        <ele>545.2</ele>
        <time>2019-05-12T16:16:00Z</time>
      </trkpt>
      <trkpt lat="38.5301050" lon="-0.7978090">
        <ele>546.0</ele>
        <time>2019-05-12T16:16:07Z</time>
      </trkpt>
      <trkpt lat="38.5298660" lon="-0.7977980">
        <ele>544.8</ele>
        <time>2019-05-12T16:16:11Z</time>
      </trkpt>
      <trkpt lat="38.5296860" lon="-0.7978160">
        <ele>544.2</ele>
        <time>2019-05-12T16:16:14Z</time>
      </trkpt>
      <trkpt lat="38.5294980" lon="-0.7978390">
        <ele>543.6</ele>
        <time>2019-05-12T16:16:17Z</time>
      </trkpt>
      <trkpt lat="38.5292960" lon="-0.7978610">
        <ele>542.6</ele>
        <time>2019-05-12T16:16:20Z</time>
      </trkpt>
      <trkpt lat="38.5292310" lon="-0.7978680">
        <ele>542.4</ele>
        <time>2019-05-12T16:16:21Z</time>
      </trkpt>
      <trkpt lat="38.5288550" lon="-0.7978860">
        <ele>541.2</ele>
        <time>2019-05-12T16:16:27Z</time>
      </trkpt>
      <trkpt lat="38.5288000" lon="-0.7978890">
        <ele>541.0</ele>
        <time>2019-05-12T16:16:28Z</time>
      </trkpt>
      <trkpt lat="38.5286230" lon="-0.7978690">
        <ele>540.2</ele>
        <time>2019-05-12T16:16:31Z</time>
      </trkpt>
      <trkpt lat="38.5285590" lon="-0.7978510">
        <ele>540.2</ele>
        <time>2019-05-12T16:16:32Z</time>
      </trkpt>
      <trkpt lat="38.5284960" lon="-0.7978270">
        <ele>540.6</ele>
        <time>2019-05-12T16:16:33Z</time>
      </trkpt>
      <trkpt lat="38.5283160" lon="-0.7977190">
        <ele>540.2</ele>
        <time>2019-05-12T16:16:36Z</time>
      </trkpt>
      <trkpt lat="38.5282060" lon="-0.7976540">
        <ele>539.8</ele>
        <time>2019-05-12T16:16:38Z</time>
      </trkpt>
      <trkpt lat="38.5278160" lon="-0.7974910">
        <ele>539.2</ele>
        <time>2019-05-12T16:16:45Z</time>
      </trkpt>
      <trkpt lat="38.5277560" lon="-0.7974750">
        <ele>538.8</ele>
        <time>2019-05-12T16:16:46Z</time>
      </trkpt>
      <trkpt lat="38.5273600" lon="-0.7973860">
        <ele>537.8</ele>
        <time>2019-05-12T16:16:52Z</time>
      </trkpt>
      <trkpt lat="38.5272910" lon="-0.7973700">
        <ele>537.6</ele>
        <time>2019-05-12T16:16:53Z</time>
      </trkpt>
      <trkpt lat="38.5267590" lon="-0.7972440">
        <ele>537.2</ele>
        <time>2019-05-12T16:17:01Z</time>
      </trkpt>
      <trkpt lat="38.5263480" lon="-0.7971290">
        <ele>537.2</ele>
        <time>2019-05-12T16:17:08Z</time>
      </trkpt>
      <trkpt lat="38.5260340" lon="-0.7970460">
        <ele>537.8</ele>
        <time>2019-05-12T16:17:14Z</time>
      </trkpt>
      <trkpt lat="38.5256420" lon="-0.7969270">
        <ele>537.0</ele>
        <time>2019-05-12T16:17:21Z</time>
      </trkpt>
      <trkpt lat="38.5254030" lon="-0.7968530">
        <ele>536.6</ele>
        <time>2019-05-12T16:17:25Z</time>
      </trkpt>
      <trkpt lat="38.5252810" lon="-0.7968200">
        <ele>536.6</ele>
        <time>2019-05-12T16:17:27Z</time>
      </trkpt>
      <trkpt lat="38.5249390" lon="-0.7967130">
        <ele>536.4</ele>
        <time>2019-05-12T16:17:33Z</time>
      </trkpt>
      <trkpt lat="38.5248080" lon="-0.7966680">
        <ele>535.2</ele>
        <time>2019-05-12T16:17:35Z</time>
      </trkpt>
      <trkpt lat="38.5245110" lon="-0.7965660">
        <ele>534.8</ele>
        <time>2019-05-12T16:17:39Z</time>
      </trkpt>
      <trkpt lat="38.5242780" lon="-0.7964980">
        <ele>534.2</ele>
        <time>2019-05-12T16:17:42Z</time>
      </trkpt>
      <trkpt lat="38.5241380" lon="-0.7964520">
        <ele>533.0</ele>
        <time>2019-05-12T16:17:44Z</time>
      </trkpt>
      <trkpt lat="38.5240700" lon="-0.7964340">
        <ele>532.2</ele>
        <time>2019-05-12T16:17:45Z</time>
      </trkpt>
      <trkpt lat="38.5240050" lon="-0.7964160">
        <ele>531.8</ele>
        <time>2019-05-12T16:17:46Z</time>
      </trkpt>
      <trkpt lat="38.5236990" lon="-0.7963410">
        <ele>531.6</ele>
        <time>2019-05-12T16:17:51Z</time>
      </trkpt>
      <trkpt lat="38.5232270" lon="-0.7962170">
        <ele>531.6</ele>
        <time>2019-05-12T16:17:59Z</time>
      </trkpt>
      <trkpt lat="38.5228160" lon="-0.7961100">
        <ele>532.0</ele>
        <time>2019-05-12T16:18:06Z</time>
      </trkpt>
      <trkpt lat="38.5225340" lon="-0.7960280">
        <ele>533.2</ele>
        <time>2019-05-12T16:18:11Z</time>
      </trkpt>
      <trkpt lat="38.5223690" lon="-0.7959780">
        <ele>533.8</ele>
        <time>2019-05-12T16:18:14Z</time>
      </trkpt>
      <trkpt lat="38.5219390" lon="-0.7958920">
        <ele>533.8</ele>
        <time>2019-05-12T16:18:22Z</time>
      </trkpt>
      <trkpt lat="38.5218330" lon="-0.7958830">
        <ele>534.4</ele>
        <time>2019-05-12T16:18:24Z</time>
      </trkpt>
      <trkpt lat="38.5216080" lon="-0.7958630">
        <ele>535.4</ele>
        <time>2019-05-12T16:18:28Z</time>
      </trkpt>
      <trkpt lat="38.5215510" lon="-0.7958600">
        <ele>535.6</ele>
        <time>2019-05-12T16:18:29Z</time>
      </trkpt>
      <trkpt lat="38.5212190" lon="-0.7958450">
        <ele>535.2</ele>
        <time>2019-05-12T16:18:35Z</time>
      </trkpt>
      <trkpt lat="38.5209450" lon="-0.7958320">
        <ele>536.6</ele>
        <time>2019-05-12T16:18:41Z</time>
      </trkpt>
      <trkpt lat="38.5208980" lon="-0.7958260">
        <ele>536.6</ele>
        <time>2019-05-12T16:18:42Z</time>
      </trkpt>
      <trkpt lat="38.5207580" lon="-0.7958080">
        <ele>536.6</ele>
        <time>2019-05-12T16:18:45Z</time>
      </trkpt>
      <trkpt lat="38.5206730" lon="-0.7958030">
        <ele>536.8</ele>
        <time>2019-05-12T16:18:47Z</time>
      </trkpt>
      <trkpt lat="38.5203130" lon="-0.7958020">
        <ele>537.2</ele>
        <time>2019-05-12T16:18:55Z</time>
      </trkpt>
      <trkpt lat="38.5202060" lon="-0.7958340">
        <ele>536.6</ele>
        <time>2019-05-12T16:18:57Z</time>
      </trkpt>
      <trkpt lat="38.5200950" lon="-0.7959190">
        <ele>535.6</ele>
        <time>2019-05-12T16:18:59Z</time>
      </trkpt>
      <trkpt lat="38.5199770" lon="-0.7960400">
        <ele>532.6</ele>
        <time>2019-05-12T16:19:01Z</time>
      </trkpt>
      <trkpt lat="38.5199050" lon="-0.7960890">
        <ele>531.6</ele>
        <time>2019-05-12T16:19:02Z</time>
      </trkpt>
      <trkpt lat="38.5198200" lon="-0.7961210">
        <ele>530.4</ele>
        <time>2019-05-12T16:19:03Z</time>
      </trkpt>
      <trkpt lat="38.5197300" lon="-0.7961350">
        <ele>529.4</ele>
        <time>2019-05-12T16:19:04Z</time>
      </trkpt>
      <trkpt lat="38.5196390" lon="-0.7961570">
        <ele>528.2</ele>
        <time>2019-05-12T16:19:05Z</time>
      </trkpt>
      <trkpt lat="38.5194490" lon="-0.7961970">
        <ele>526.6</ele>
        <time>2019-05-12T16:19:07Z</time>
      </trkpt>
      <trkpt lat="38.5192600" lon="-0.7962250">
        <ele>525.2</ele>
        <time>2019-05-12T16:19:09Z</time>
      </trkpt>
      <trkpt lat="38.5190710" lon="-0.7962480">
        <ele>523.8</ele>
        <time>2019-05-12T16:19:11Z</time>
      </trkpt>
      <trkpt lat="38.5187940" lon="-0.7962850">
        <ele>523.0</ele>
        <time>2019-05-12T16:19:14Z</time>
      </trkpt>
      <trkpt lat="38.5187020" lon="-0.7962920">
        <ele>522.6</ele>
        <time>2019-05-12T16:19:15Z</time>
      </trkpt>
      <trkpt lat="38.5185210" lon="-0.7962720">
        <ele>521.4</ele>
        <time>2019-05-12T16:19:17Z</time>
      </trkpt>
      <trkpt lat="38.5183460" lon="-0.7962440">
        <ele>521.0</ele>
        <time>2019-05-12T16:19:19Z</time>
      </trkpt>
      <trkpt lat="38.5177820" lon="-0.7961000">
        <ele>521.2</ele>
        <time>2019-05-12T16:19:26Z</time>
      </trkpt>
      <trkpt lat="38.5175560" lon="-0.7960380">
        <ele>520.4</ele>
        <time>2019-05-12T16:19:29Z</time>
      </trkpt>
      <trkpt lat="38.5173460" lon="-0.7959950">
        <ele>520.4</ele>
        <time>2019-05-12T16:19:32Z</time>
      </trkpt>
      <trkpt lat="38.5168700" lon="-0.7959890">
        <ele>519.6</ele>
        <time>2019-05-12T16:19:39Z</time>
      </trkpt>
      <trkpt lat="38.5168070" lon="-0.7959970">
        <ele>519.2</ele>
        <time>2019-05-12T16:19:40Z</time>
      </trkpt>
      <trkpt lat="38.5164490" lon="-0.7960590">
        <ele>519.4</ele>
        <time>2019-05-12T16:19:46Z</time>
      </trkpt>
      <trkpt lat="38.5162160" lon="-0.7960930">
        <ele>520.4</ele>
        <time>2019-05-12T16:19:50Z</time>
      </trkpt>
      <trkpt lat="38.5161580" lon="-0.7960900">
        <ele>520.6</ele>
        <time>2019-05-12T16:19:51Z</time>
      </trkpt>
      <trkpt lat="38.5160960" lon="-0.7960860">
        <ele>521.0</ele>
        <time>2019-05-12T16:19:52Z</time>
      </trkpt>
      <trkpt lat="38.5160330" lon="-0.7960670">
        <ele>521.0</ele>
        <time>2019-05-12T16:19:53Z</time>
      </trkpt>
      <trkpt lat="38.5158460" lon="-0.7960580">
        <ele>519.6</ele>
        <time>2019-05-12T16:19:56Z</time>
      </trkpt>
      <trkpt lat="38.5153670" lon="-0.7959830">
        <ele>520.2</ele>
        <time>2019-05-12T16:20:04Z</time>
      </trkpt>
      <trkpt lat="38.5152410" lon="-0.7959640">
        <ele>519.2</ele>
        <time>2019-05-12T16:20:06Z</time>
      </trkpt>
      <trkpt lat="38.5149550" lon="-0.7959030">
        <ele>519.8</ele>
        <time>2019-05-12T16:20:11Z</time>
      </trkpt>
      <trkpt lat="38.5146230" lon="-0.7957970">
        <ele>518.4</ele>
        <time>2019-05-12T16:20:17Z</time>
      </trkpt>
      <trkpt lat="38.5145660" lon="-0.7957740">
        <ele>517.8</ele>
        <time>2019-05-12T16:20:18Z</time>
      </trkpt>
      <trkpt lat="38.5145060" lon="-0.7957650">
        <ele>517.4</ele>
        <time>2019-05-12T16:20:19Z</time>
      </trkpt>
      <trkpt lat="38.5143720" lon="-0.7957400">
        <ele>516.4</ele>
        <time>2019-05-12T16:20:21Z</time>
      </trkpt>
      <trkpt lat="38.5143040" lon="-0.7957390">
        <ele>515.6</ele>
        <time>2019-05-12T16:20:22Z</time>
      </trkpt>
      <trkpt lat="38.5142340" lon="-0.7957200">
        <ele>515.2</ele>
        <time>2019-05-12T16:20:23Z</time>
      </trkpt>
      <trkpt lat="38.5140860" lon="-0.7956930">
        <ele>514.0</ele>
        <time>2019-05-12T16:20:25Z</time>
      </trkpt>
      <trkpt lat="38.5139490" lon="-0.7956720">
        <ele>512.0</ele>
        <time>2019-05-12T16:20:27Z</time>
      </trkpt>
      <trkpt lat="38.5137490" lon="-0.7956270">
        <ele>513.2</ele>
        <time>2019-05-12T16:20:30Z</time>
      </trkpt>
      <trkpt lat="38.5135530" lon="-0.7955930">
        <ele>512.6</ele>
        <time>2019-05-12T16:20:33Z</time>
      </trkpt>
      <trkpt lat="38.5134900" lon="-0.7955620">
        <ele>512.8</ele>
        <time>2019-05-12T16:20:34Z</time>
      </trkpt>
      <trkpt lat="38.5133770" lon="-0.7954620">
        <ele>512.8</ele>
        <time>2019-05-12T16:20:36Z</time>
      </trkpt>
      <trkpt lat="38.5132610" lon="-0.7953810">
        <ele>513.2</ele>
        <time>2019-05-12T16:20:38Z</time>
      </trkpt>
      <trkpt lat="38.5130930" lon="-0.7952770">
        <ele>512.8</ele>
        <time>2019-05-12T16:20:41Z</time>
      </trkpt>
      <trkpt lat="38.5130380" lon="-0.7952510">
        <ele>512.4</ele>
        <time>2019-05-12T16:20:42Z</time>
      </trkpt>
      <trkpt lat="38.5126750" lon="-0.7951140">
        <ele>513.8</ele>
        <time>2019-05-12T16:20:49Z</time>
      </trkpt>
      <trkpt lat="38.5126520" lon="-0.7950880">
        <ele>514.6</ele>
        <time>2019-05-12T16:20:50Z</time>
      </trkpt>
      <trkpt lat="38.5126080" lon="-0.7950490">
        <ele>516.2</ele>
        <time>2019-05-12T16:20:52Z</time>
      </trkpt>
      <trkpt lat="38.5125130" lon="-0.7949520">
        <ele>517.2</ele>
        <time>2019-05-12T16:20:56Z</time>
      </trkpt>
      <trkpt lat="38.5124480" lon="-0.7948620">
        <ele>518.0</ele>
        <time>2019-05-12T16:20:59Z</time>
      </trkpt>
      <trkpt lat="38.5124290" lon="-0.7948280">
        <ele>518.4</ele>
        <time>2019-05-12T16:21:00Z</time>
      </trkpt>
      <trkpt lat="38.5123820" lon="-0.7947330">
        <ele>519.4</ele>
        <time>2019-05-12T16:21:03Z</time>
      </trkpt>
      <trkpt lat="38.5123640" lon="-0.7947010">
        <ele>519.8</ele>
        <time>2019-05-12T16:21:04Z</time>
      </trkpt>
      <trkpt lat="38.5123130" lon="-0.7945840">
        <ele>520.6</ele>
        <time>2019-05-12T16:21:08Z</time>
      </trkpt>
      <trkpt lat="38.5123010" lon="-0.7945600">
        <ele>520.8</ele>
        <time>2019-05-12T16:21:09Z</time>
      </trkpt>
      <trkpt lat="38.5122560" lon="-0.7943550">
        <ele>521.6</ele>
        <time>2019-05-12T16:21:15Z</time>
      </trkpt>
      <trkpt lat="38.5122550" lon="-0.7943120">
        <ele>521.6</ele>
        <time>2019-05-12T16:21:16Z</time>
      </trkpt>
      <trkpt lat="38.5122170" lon="-0.7941860">
        <ele>523.0</ele>
        <time>2019-05-12T16:21:20Z</time>
      </trkpt>
      <trkpt lat="38.5121320" lon="-0.7939920">
        <ele>523.4</ele>
        <time>2019-05-12T16:21:26Z</time>
      </trkpt>
      <trkpt lat="38.5120600" lon="-0.7937800">
        <ele>524.2</ele>
        <time>2019-05-12T16:21:32Z</time>
      </trkpt>
      <trkpt lat="38.5120060" lon="-0.7935940">
        <ele>524.6</ele>
        <time>2019-05-12T16:21:37Z</time>
      </trkpt>
      <trkpt lat="38.5119580" lon="-0.7934650">
        <ele>524.8</ele>
        <time>2019-05-12T16:21:41Z</time>
      </trkpt>
      <trkpt lat="38.5118400" lon="-0.7932690">
        <ele>525.2</ele>
        <time>2019-05-12T16:21:48Z</time>
      </trkpt>
      <trkpt lat="38.5118200" lon="-0.7932530">
        <ele>525.2</ele>
        <time>2019-05-12T16:21:49Z</time>
      </trkpt>
      <trkpt lat="38.5117380" lon="-0.7931310">
        <ele>526.8</ele>
        <time>2019-05-12T16:21:54Z</time>
      </trkpt>
      <trkpt lat="38.5117090" lon="-0.7929980">
        <ele>527.6</ele>
        <time>2019-05-12T16:21:59Z</time>
      </trkpt>
      <trkpt lat="38.5117070" lon="-0.7929650">
        <ele>527.8</ele>
        <time>2019-05-12T16:22:00Z</time>
      </trkpt>
      <trkpt lat="38.5116750" lon="-0.7928270">
        <ele>527.8</ele>
        <time>2019-05-12T16:22:04Z</time>
      </trkpt>
      <trkpt lat="38.5116150" lon="-0.7926970">
        <ele>528.4</ele>
        <time>2019-05-12T16:22:09Z</time>
      </trkpt>
      <trkpt lat="38.5114950" lon="-0.7925080">
        <ele>528.4</ele>
        <time>2019-05-12T16:22:15Z</time>
      </trkpt>
      <trkpt lat="38.5114340" lon="-0.7924400">
        <ele>529.2</ele>
        <time>2019-05-12T16:22:18Z</time>
      </trkpt>
      <trkpt lat="38.5113860" lon="-0.7923400">
        <ele>530.2</ele>
        <time>2019-05-12T16:22:21Z</time>
      </trkpt>
      <trkpt lat="38.5113520" lon="-0.7922830">
        <ele>530.4</ele>
        <time>2019-05-12T16:22:23Z</time>
      </trkpt>
      <trkpt lat="38.5112710" lon="-0.7921390">
        <ele>531.4</ele>
        <time>2019-05-12T16:22:28Z</time>
      </trkpt>
      <trkpt lat="38.5112150" lon="-0.7920450">
        <ele>532.6</ele>
        <time>2019-05-12T16:22:32Z</time>
      </trkpt>
      <trkpt lat="38.5111650" lon="-0.7920030">
        <ele>533.4</ele>
        <time>2019-05-12T16:22:35Z</time>
      </trkpt>
      <trkpt lat="38.5111250" lon="-0.7919800">
        <ele>533.8</ele>
        <time>2019-05-12T16:22:37Z</time>
      </trkpt>
      <trkpt lat="38.5111100" lon="-0.7919600">
        <ele>533.8</ele>
        <time>2019-05-12T16:22:38Z</time>
      </trkpt>
      <trkpt lat="38.5110710" lon="-0.7918760">
        <ele>533.0</ele>
        <time>2019-05-12T16:22:41Z</time>
      </trkpt>
      <trkpt lat="38.5110550" lon="-0.7918280">
        <ele>532.2</ele>
        <time>2019-05-12T16:22:42Z</time>
      </trkpt>
      <trkpt lat="38.5110650" lon="-0.7917220">
        <ele>531.6</ele>
        <time>2019-05-12T16:22:44Z</time>
      </trkpt>
      <trkpt lat="38.5110550" lon="-0.7916840">
        <ele>531.6</ele>
        <time>2019-05-12T16:22:45Z</time>
      </trkpt>
      <trkpt lat="38.5109540" lon="-0.7916540">
        <ele>531.6</ele>
        <time>2019-05-12T16:22:48Z</time>
      </trkpt>
      <trkpt lat="38.5109200" lon="-0.7916750">
        <ele>530.8</ele>
        <time>2019-05-12T16:22:49Z</time>
      </trkpt>
      <trkpt lat="38.5108930" lon="-0.7917290">
        <ele>529.8</ele>
        <time>2019-05-12T16:22:50Z</time>
      </trkpt>
      <trkpt lat="38.5108610" lon="-0.7917870">
        <ele>528.8</ele>
        <time>2019-05-12T16:22:51Z</time>
      </trkpt>
      <trkpt lat="38.5108150" lon="-0.7918420">
        <ele>527.8</ele>
        <time>2019-05-12T16:22:52Z</time>
      </trkpt>
      <trkpt lat="38.5107250" lon="-0.7919780">
        <ele>526.4</ele>
        <time>2019-05-12T16:22:54Z</time>
      </trkpt>
      <trkpt lat="38.5105820" lon="-0.7921550">
        <ele>525.0</ele>
        <time>2019-05-12T16:22:57Z</time>
      </trkpt>
      <trkpt lat="38.5104160" lon="-0.7922990">
        <ele>524.4</ele>
        <time>2019-05-12T16:23:00Z</time>
      </trkpt>
      <trkpt lat="38.5103580" lon="-0.7923420">
        <ele>523.8</ele>
        <time>2019-05-12T16:23:01Z</time>
      </trkpt>
      <trkpt lat="38.5102240" lon="-0.7924450">
        <ele>522.6</ele>
        <time>2019-05-12T16:23:03Z</time>
      </trkpt>
      <trkpt lat="38.5100950" lon="-0.7925530">
        <ele>521.2</ele>
        <time>2019-05-12T16:23:05Z</time>
      </trkpt>
      <trkpt lat="38.5100200" lon="-0.7925880">
        <ele>520.4</ele>
        <time>2019-05-12T16:23:06Z</time>
      </trkpt>
      <trkpt lat="38.5099550" lon="-0.7926180">
        <ele>519.8</ele>
        <time>2019-05-12T16:23:07Z</time>
      </trkpt>
      <trkpt lat="38.5098800" lon="-0.7926540">
        <ele>519.0</ele>
        <time>2019-05-12T16:23:08Z</time>
      </trkpt>
      <trkpt lat="38.5098270" lon="-0.7926800">
        <ele>518.4</ele>
        <time>2019-05-12T16:23:09Z</time>
      </trkpt>
      <trkpt lat="38.5097330" lon="-0.7926790">
        <ele>517.4</ele>
        <time>2019-05-12T16:23:11Z</time>
      </trkpt>
      <trkpt lat="38.5096730" lon="-0.7926460">
        <ele>516.2</ele>
        <time>2019-05-12T16:23:12Z</time>
      </trkpt>
      <trkpt lat="38.5095570" lon="-0.7926230">
        <ele>514.2</ele>
        <time>2019-05-12T16:23:14Z</time>
      </trkpt>
      <trkpt lat="38.5094960" lon="-0.7926350">
        <ele>513.6</ele>
        <time>2019-05-12T16:23:15Z</time>
      </trkpt>
      <trkpt lat="38.5094350" lon="-0.7926330">
        <ele>513.0</ele>
        <time>2019-05-12T16:23:16Z</time>
      </trkpt>
      <trkpt lat="38.5093730" lon="-0.7926730">
        <ele>513.0</ele>
        <time>2019-05-12T16:23:17Z</time>
      </trkpt>
      <trkpt lat="38.5092690" lon="-0.7927590">
        <ele>513.4</ele>
        <time>2019-05-12T16:23:19Z</time>
      </trkpt>
      <trkpt lat="38.5092100" lon="-0.7928830">
        <ele>513.6</ele>
        <time>2019-05-12T16:23:21Z</time>
      </trkpt>
      <trkpt lat="38.5091280" lon="-0.7932060">
        <ele>512.2</ele>
        <time>2019-05-12T16:23:25Z</time>
      </trkpt>
      <trkpt lat="38.5091010" lon="-0.7932810">
        <ele>511.8</ele>
        <time>2019-05-12T16:23:26Z</time>
      </trkpt>
      <trkpt lat="38.5090530" lon="-0.7934380">
        <ele>510.4</ele>
        <time>2019-05-12T16:23:28Z</time>
      </trkpt>
      <trkpt lat="38.5090100" lon="-0.7935820">
        <ele>509.8</ele>
        <time>2019-05-12T16:23:31Z</time>
      </trkpt>
      <trkpt lat="38.5089880" lon="-0.7936310">
        <ele>511.4</ele>
        <time>2019-05-12T16:24:02Z</time>
      </trkpt>
      <trkpt lat="38.5089420" lon="-0.7936450">
        <ele>510.0</ele>
        <time>2019-05-12T16:24:04Z</time>
      </trkpt>
      <trkpt lat="38.5088530" lon="-0.7936270">
        <ele>509.2</ele>
        <time>2019-05-12T16:24:07Z</time>
      </trkpt>
      <trkpt lat="38.5088170" lon="-0.7936050">
        <ele>509.0</ele>
        <time>2019-05-12T16:24:08Z</time>
      </trkpt>
      <trkpt lat="38.5087470" lon="-0.7935670">
        <ele>509.2</ele>
        <time>2019-05-12T16:24:10Z</time>
      </trkpt>
      <trkpt lat="38.5086230" lon="-0.7935020">
        <ele>508.2</ele>
        <time>2019-05-12T16:24:13Z</time>
      </trkpt>
      <trkpt lat="38.5085830" lon="-0.7934840">
        <ele>508.0</ele>
        <time>2019-05-12T16:24:14Z</time>
      </trkpt>
      <trkpt lat="38.5082720" lon="-0.7933240">
        <ele>506.8</ele>
        <time>2019-05-12T16:24:21Z</time>
      </trkpt>
      <trkpt lat="38.5081780" lon="-0.7932700">
        <ele>506.8</ele>
        <time>2019-05-12T16:24:23Z</time>
      </trkpt>
      <trkpt lat="38.5079710" lon="-0.7931680">
        <ele>508.0</ele>
        <time>2019-05-12T16:24:28Z</time>
      </trkpt>
      <trkpt lat="38.5077840" lon="-0.7930720">
        <ele>507.0</ele>
        <time>2019-05-12T16:24:32Z</time>
      </trkpt>
      <trkpt lat="38.5077360" lon="-0.7930480">
        <ele>507.0</ele>
        <time>2019-05-12T16:24:33Z</time>
      </trkpt>
      <trkpt lat="38.5074880" lon="-0.7929210">
        <ele>507.0</ele>
        <time>2019-05-12T16:24:38Z</time>
      </trkpt>
      <trkpt lat="38.5074400" lon="-0.7928960">
        <ele>507.0</ele>
        <time>2019-05-12T16:24:39Z</time>
      </trkpt>
      <trkpt lat="38.5072930" lon="-0.7928170">
        <ele>505.4</ele>
        <time>2019-05-12T16:24:42Z</time>
      </trkpt>
      <trkpt lat="38.5071410" lon="-0.7927290">
        <ele>506.0</ele>
        <time>2019-05-12T16:24:45Z</time>
      </trkpt>
      <trkpt lat="38.5067050" lon="-0.7924950">
        <ele>505.2</ele>
        <time>2019-05-12T16:24:53Z</time>
      </trkpt>
      <trkpt lat="38.5065290" lon="-0.7924130">
        <ele>504.4</ele>
        <time>2019-05-12T16:24:56Z</time>
      </trkpt>
      <trkpt lat="38.5062250" lon="-0.7922550">
        <ele>504.0</ele>
        <time>2019-05-12T16:25:01Z</time>
      </trkpt>
      <trkpt lat="38.5060700" lon="-0.7921830">
        <ele>502.4</ele>
        <time>2019-05-12T16:25:04Z</time>
      </trkpt>
      <trkpt lat="38.5058030" lon="-0.7920430">
        <ele>502.0</ele>
        <time>2019-05-12T16:25:09Z</time>
      </trkpt>
      <trkpt lat="38.5056280" lon="-0.7919460">
        <ele>501.4</ele>
        <time>2019-05-12T16:25:12Z</time>
      </trkpt>
      <trkpt lat="38.5053510" lon="-0.7918010">
        <ele>501.4</ele>
        <time>2019-05-12T16:25:17Z</time>
      </trkpt>
      <trkpt lat="38.5048400" lon="-0.7915280">
        <ele>502.4</ele>
        <time>2019-05-12T16:25:26Z</time>
      </trkpt>
      <trkpt lat="38.5047840" lon="-0.7914980">
        <ele>502.8</ele>
        <time>2019-05-12T16:25:27Z</time>
      </trkpt>
      <trkpt lat="38.5044280" lon="-0.7913100">
        <ele>503.0</ele>
        <time>2019-05-12T16:25:34Z</time>
      </trkpt>
      <trkpt lat="38.5041150" lon="-0.7911460">
        <ele>503.2</ele>
        <time>2019-05-12T16:25:41Z</time>
      </trkpt>
      <trkpt lat="38.5039830" lon="-0.7910800">
        <ele>504.0</ele>
        <time>2019-05-12T16:25:44Z</time>
      </trkpt>
      <trkpt lat="38.5038990" lon="-0.7910380">
        <ele>504.8</ele>
        <time>2019-05-12T16:25:46Z</time>
      </trkpt>
      <trkpt lat="38.5038570" lon="-0.7910170">
        <ele>505.2</ele>
        <time>2019-05-12T16:25:47Z</time>
      </trkpt>
      <trkpt lat="38.5035400" lon="-0.7908450">
        <ele>506.2</ele>
        <time>2019-05-12T16:25:55Z</time>
      </trkpt>
      <trkpt lat="38.5031880" lon="-0.7906590">
        <ele>505.8</ele>
        <time>2019-05-12T16:26:03Z</time>
      </trkpt>
      <trkpt lat="38.5030630" lon="-0.7906010">
        <ele>504.8</ele>
        <time>2019-05-12T16:26:05Z</time>
      </trkpt>
      <trkpt lat="38.5028320" lon="-0.7904780">
        <ele>503.4</ele>
        <time>2019-05-12T16:26:10Z</time>
      </trkpt>
      <trkpt lat="38.5027790" lon="-0.7904530">
        <ele>503.0</ele>
        <time>2019-05-12T16:26:11Z</time>
      </trkpt>
      <trkpt lat="38.5024380" lon="-0.7903160">
        <ele>502.2</ele>
        <time>2019-05-12T16:26:18Z</time>
      </trkpt>
      <trkpt lat="38.5021410" lon="-0.7902410">
        <ele>502.0</ele>
        <time>2019-05-12T16:26:24Z</time>
      </trkpt>
      <trkpt lat="38.5019020" lon="-0.7901850">
        <ele>501.0</ele>
        <time>2019-05-12T16:26:29Z</time>
      </trkpt>
      <trkpt lat="38.5017030" lon="-0.7901460">
        <ele>500.8</ele>
        <time>2019-05-12T16:26:33Z</time>
      </trkpt>
      <trkpt lat="38.5015470" lon="-0.7901330">
        <ele>499.8</ele>
        <time>2019-05-12T16:26:36Z</time>
      </trkpt>
      <trkpt lat="38.5013290" lon="-0.7901190">
        <ele>498.4</ele>
        <time>2019-05-12T16:26:40Z</time>
      </trkpt>
      <trkpt lat="38.5012160" lon="-0.7901140">
        <ele>497.2</ele>
        <time>2019-05-12T16:26:42Z</time>
      </trkpt>
      <trkpt lat="38.5009890" lon="-0.7900870">
        <ele>497.8</ele>
        <time>2019-05-12T16:26:46Z</time>
      </trkpt>
      <trkpt lat="38.5009320" lon="-0.7900950">
        <ele>498.0</ele>
        <time>2019-05-12T16:26:47Z</time>
      </trkpt>
      <trkpt lat="38.5008820" lon="-0.7901110">
        <ele>498.4</ele>
        <time>2019-05-12T16:26:48Z</time>
      </trkpt>
      <trkpt lat="38.5007960" lon="-0.7901380">
        <ele>498.6</ele>
        <time>2019-05-12T16:26:50Z</time>
      </trkpt>
      <trkpt lat="38.5007530" lon="-0.7901420">
        <ele>498.4</ele>
        <time>2019-05-12T16:26:51Z</time>
      </trkpt>
      <trkpt lat="38.5006210" lon="-0.7900960">
        <ele>497.2</ele>
        <time>2019-05-12T16:26:54Z</time>
      </trkpt>
      <trkpt lat="38.5005830" lon="-0.7900560">
        <ele>497.4</ele>
        <time>2019-05-12T16:26:55Z</time>
      </trkpt>
      <trkpt lat="38.5004990" lon="-0.7898080">
        <ele>497.0</ele>
        <time>2019-05-12T16:26:59Z</time>
      </trkpt>
      <trkpt lat="38.5005450" lon="-0.7895640">
        <ele>496.4</ele>
        <time>2019-05-12T16:27:02Z</time>
      </trkpt>
      <trkpt lat="38.5005370" lon="-0.7894820">
        <ele>495.8</ele>
        <time>2019-05-12T16:27:03Z</time>
      </trkpt>
      <trkpt lat="38.5005030" lon="-0.7894000">
        <ele>494.8</ele>
        <time>2019-05-12T16:27:04Z</time>
      </trkpt>
      <trkpt lat="38.5004540" lon="-0.7893320">
        <ele>493.6</ele>
        <time>2019-05-12T16:27:05Z</time>
      </trkpt>
      <trkpt lat="38.5003660" lon="-0.7892350">
        <ele>492.4</ele>
        <time>2019-05-12T16:27:06Z</time>
      </trkpt>
      <trkpt lat="38.5003370" lon="-0.7892080">
        <ele>491.6</ele>
        <time>2019-05-12T16:27:07Z</time>
      </trkpt>
      <trkpt lat="38.5002750" lon="-0.7891490">
        <ele>490.6</ele>
        <time>2019-05-12T16:27:08Z</time>
      </trkpt>
      <trkpt lat="38.5001460" lon="-0.7890230">
        <ele>489.4</ele>
        <time>2019-05-12T16:27:10Z</time>
      </trkpt>
      <trkpt lat="38.5000140" lon="-0.7889070">
        <ele>488.2</ele>
        <time>2019-05-12T16:27:12Z</time>
      </trkpt>
      <trkpt lat="38.4999390" lon="-0.7888530">
        <ele>487.6</ele>
        <time>2019-05-12T16:27:13Z</time>
      </trkpt>
      <trkpt lat="38.4997930" lon="-0.7887650">
        <ele>486.6</ele>
        <time>2019-05-12T16:27:15Z</time>
      </trkpt>
      <trkpt lat="38.4994930" lon="-0.7885910">
        <ele>485.4</ele>
        <time>2019-05-12T16:27:19Z</time>
      </trkpt>
      <trkpt lat="38.4994200" lon="-0.7885460">
        <ele>485.0</ele>
        <time>2019-05-12T16:27:20Z</time>
      </trkpt>
      <trkpt lat="38.4993450" lon="-0.7885000">
        <ele>484.2</ele>
        <time>2019-05-12T16:27:21Z</time>
      </trkpt>
      <trkpt lat="38.4991860" lon="-0.7884040">
        <ele>483.2</ele>
        <time>2019-05-12T16:27:23Z</time>
      </trkpt>
      <trkpt lat="38.4990220" lon="-0.7883100">
        <ele>482.0</ele>
        <time>2019-05-12T16:27:25Z</time>
      </trkpt>
      <trkpt lat="38.4989430" lon="-0.7882680">
        <ele>481.4</ele>
        <time>2019-05-12T16:27:26Z</time>
      </trkpt>
      <trkpt lat="38.4987120" lon="-0.7881750">
        <ele>481.2</ele>
        <time>2019-05-12T16:27:29Z</time>
      </trkpt>
      <trkpt lat="38.4986390" lon="-0.7881730">
        <ele>481.6</ele>
        <time>2019-05-12T16:27:30Z</time>
      </trkpt>
      <trkpt lat="38.4985160" lon="-0.7882550">
        <ele>482.6</ele>
        <time>2019-05-12T16:27:32Z</time>
      </trkpt>
      <trkpt lat="38.4984710" lon="-0.7883330">
        <ele>483.0</ele>
        <time>2019-05-12T16:27:33Z</time>
      </trkpt>
      <trkpt lat="38.4984110" lon="-0.7884980">
        <ele>484.0</ele>
        <time>2019-05-12T16:27:35Z</time>
      </trkpt>
      <trkpt lat="38.4983810" lon="-0.7885790">
        <ele>484.4</ele>
        <time>2019-05-12T16:27:36Z</time>
      </trkpt>
      <trkpt lat="38.4982120" lon="-0.7890500">
        <ele>484.8</ele>
        <time>2019-05-12T16:27:42Z</time>
      </trkpt>
      <trkpt lat="38.4981160" lon="-0.7893430">
        <ele>484.8</ele>
        <time>2019-05-12T16:27:46Z</time>
      </trkpt>
      <trkpt lat="38.4981000" lon="-0.7895000">
        <ele>485.4</ele>
        <time>2019-05-12T16:27:48Z</time>
      </trkpt>
      <trkpt lat="38.4981060" lon="-0.7895750">
        <ele>485.4</ele>
        <time>2019-05-12T16:27:49Z</time>
      </trkpt>
      <trkpt lat="38.4981650" lon="-0.7897940">
        <ele>485.2</ele>
        <time>2019-05-12T16:27:52Z</time>
      </trkpt>
      <trkpt lat="38.4983300" lon="-0.7900220">
        <ele>485.0</ele>
        <time>2019-05-12T16:27:56Z</time>
      </trkpt>
      <trkpt lat="38.4985100" lon="-0.7901060">
        <ele>485.8</ele>
        <time>2019-05-12T16:27:59Z</time>
      </trkpt>
      <trkpt lat="38.4987060" lon="-0.7900740">
        <ele>485.8</ele>
        <time>2019-05-12T16:28:02Z</time>
      </trkpt>
      <trkpt lat="38.4988630" lon="-0.7898900">
        <ele>484.6</ele>
        <time>2019-05-12T16:28:05Z</time>
      </trkpt>
      <trkpt lat="38.4988820" lon="-0.7897930">
        <ele>484.2</ele>
        <time>2019-05-12T16:28:06Z</time>
      </trkpt>
      <trkpt lat="38.4988790" lon="-0.7896870">
        <ele>483.6</ele>
        <time>2019-05-12T16:28:07Z</time>
      </trkpt>
      <trkpt lat="38.4988510" lon="-0.7895820">
        <ele>482.6</ele>
        <time>2019-05-12T16:28:08Z</time>
      </trkpt>
      <trkpt lat="38.4988020" lon="-0.7894920">
        <ele>481.2</ele>
        <time>2019-05-12T16:28:09Z</time>
      </trkpt>
      <trkpt lat="38.4987360" lon="-0.7894160">
        <ele>480.0</ele>
        <time>2019-05-12T16:28:10Z</time>
      </trkpt>
      <trkpt lat="38.4985910" lon="-0.7893110">
        <ele>478.4</ele>
        <time>2019-05-12T16:28:12Z</time>
      </trkpt>
      <trkpt lat="38.4985150" lon="-0.7892620">
        <ele>477.8</ele>
        <time>2019-05-12T16:28:13Z</time>
      </trkpt>
      <trkpt lat="38.4983590" lon="-0.7891620">
        <ele>477.4</ele>
        <time>2019-05-12T16:28:15Z</time>
      </trkpt>
      <trkpt lat="38.4981290" lon="-0.7890230">
        <ele>476.0</ele>
        <time>2019-05-12T16:28:18Z</time>
      </trkpt>
      <trkpt lat="38.4979690" lon="-0.7889350">
        <ele>474.8</ele>
        <time>2019-05-12T16:28:20Z</time>
      </trkpt>
      <trkpt lat="38.4977240" lon="-0.7887910">
        <ele>473.8</ele>
        <time>2019-05-12T16:28:23Z</time>
      </trkpt>
      <trkpt lat="38.4976410" lon="-0.7887410">
        <ele>473.0</ele>
        <time>2019-05-12T16:28:24Z</time>
      </trkpt>
      <trkpt lat="38.4975600" lon="-0.7886890">
        <ele>472.4</ele>
        <time>2019-05-12T16:28:25Z</time>
      </trkpt>
      <trkpt lat="38.4973990" lon="-0.7885910">
        <ele>471.2</ele>
        <time>2019-05-12T16:28:27Z</time>
      </trkpt>
      <trkpt lat="38.4970910" lon="-0.7884090">
        <ele>471.2</ele>
        <time>2019-05-12T16:28:31Z</time>
      </trkpt>
      <trkpt lat="38.4966650" lon="-0.7881480">
        <ele>469.6</ele>
        <time>2019-05-12T16:28:37Z</time>
      </trkpt>
      <trkpt lat="38.4965350" lon="-0.7880720">
        <ele>468.8</ele>
        <time>2019-05-12T16:28:39Z</time>
      </trkpt>
      <trkpt lat="38.4961060" lon="-0.7878100">
        <ele>469.4</ele>
        <time>2019-05-12T16:28:46Z</time>
      </trkpt>
      <trkpt lat="38.4959390" lon="-0.7876740">
        <ele>468.8</ele>
        <time>2019-05-12T16:28:49Z</time>
      </trkpt>
      <trkpt lat="38.4958920" lon="-0.7876130">
        <ele>468.6</ele>
        <time>2019-05-12T16:28:50Z</time>
      </trkpt>
      <trkpt lat="38.4958480" lon="-0.7875490">
        <ele>468.4</ele>
        <time>2019-05-12T16:28:51Z</time>
      </trkpt>
      <trkpt lat="38.4957050" lon="-0.7872620">
        <ele>468.8</ele>
        <time>2019-05-12T16:28:55Z</time>
      </trkpt>
      <trkpt lat="38.4956710" lon="-0.7871850">
        <ele>469.2</ele>
        <time>2019-05-12T16:28:56Z</time>
      </trkpt>
      <trkpt lat="38.4956390" lon="-0.7871090">
        <ele>469.6</ele>
        <time>2019-05-12T16:28:57Z</time>
      </trkpt>
      <trkpt lat="38.4954430" lon="-0.7867420">
        <ele>468.6</ele>
        <time>2019-05-12T16:29:02Z</time>
      </trkpt>
      <trkpt lat="38.4953500" lon="-0.7866120">
        <ele>468.6</ele>
        <time>2019-05-12T16:29:04Z</time>
      </trkpt>
      <trkpt lat="38.4952460" lon="-0.7864970">
        <ele>467.0</ele>
        <time>2019-05-12T16:29:06Z</time>
      </trkpt>
      <trkpt lat="38.4951920" lon="-0.7864530">
        <ele>467.0</ele>
        <time>2019-05-12T16:29:07Z</time>
      </trkpt>
      <trkpt lat="38.4950800" lon="-0.7863830">
        <ele>467.0</ele>
        <time>2019-05-12T16:29:09Z</time>
      </trkpt>
      <trkpt lat="38.4950220" lon="-0.7863560">
        <ele>466.8</ele>
        <time>2019-05-12T16:29:10Z</time>
      </trkpt>
      <trkpt lat="38.4949040" lon="-0.7863190">
        <ele>467.2</ele>
        <time>2019-05-12T16:29:12Z</time>
      </trkpt>
      <trkpt lat="38.4948440" lon="-0.7863090">
        <ele>467.4</ele>
        <time>2019-05-12T16:29:13Z</time>
      </trkpt>
      <trkpt lat="38.4945980" lon="-0.7863210">
        <ele>467.8</ele>
        <time>2019-05-12T16:29:17Z</time>
      </trkpt>
      <trkpt lat="38.4945370" lon="-0.7863390">
        <ele>467.8</ele>
        <time>2019-05-12T16:29:18Z</time>
      </trkpt>
      <trkpt lat="38.4943660" lon="-0.7864320">
        <ele>466.8</ele>
        <time>2019-05-12T16:29:21Z</time>
      </trkpt>
      <trkpt lat="38.4942590" lon="-0.7865200">
        <ele>467.0</ele>
        <time>2019-05-12T16:29:23Z</time>
      </trkpt>
      <trkpt lat="38.4941180" lon="-0.7866820">
        <ele>466.2</ele>
        <time>2019-05-12T16:29:26Z</time>
      </trkpt>
      <trkpt lat="38.4940400" lon="-0.7868040">
        <ele>466.2</ele>
        <time>2019-05-12T16:29:28Z</time>
      </trkpt>
      <trkpt lat="38.4939720" lon="-0.7869310">
        <ele>466.0</ele>
        <time>2019-05-12T16:29:30Z</time>
      </trkpt>
      <trkpt lat="38.4939440" lon="-0.7869990">
        <ele>466.4</ele>
        <time>2019-05-12T16:29:31Z</time>
      </trkpt>
      <trkpt lat="38.4938220" lon="-0.7873440">
        <ele>466.0</ele>
        <time>2019-05-12T16:29:36Z</time>
      </trkpt>
      <trkpt lat="38.4937630" lon="-0.7875580">
        <ele>465.6</ele>
        <time>2019-05-12T16:29:39Z</time>
      </trkpt>
      <trkpt lat="38.4936570" lon="-0.7881480">
        <ele>466.4</ele>
        <time>2019-05-12T16:29:47Z</time>
      </trkpt>
      <trkpt lat="38.4936350" lon="-0.7883490">
        <ele>466.8</ele>
        <time>2019-05-12T16:29:50Z</time>
      </trkpt>
      <trkpt lat="38.4936310" lon="-0.7884670">
        <ele>467.2</ele>
        <time>2019-05-12T16:29:52Z</time>
      </trkpt>
      <trkpt lat="38.4935690" lon="-0.7887280">
        <ele>467.4</ele>
        <time>2019-05-12T16:29:57Z</time>
      </trkpt>
      <trkpt lat="38.4935410" lon="-0.7887700">
        <ele>467.8</ele>
        <time>2019-05-12T16:29:58Z</time>
      </trkpt>
      <trkpt lat="38.4934190" lon="-0.7888450">
        <ele>467.8</ele>
        <time>2019-05-12T16:30:01Z</time>
      </trkpt>
      <trkpt lat="38.4933760" lon="-0.7888800">
        <ele>467.6</ele>
        <time>2019-05-12T16:30:02Z</time>
      </trkpt>
      <trkpt lat="38.4933000" lon="-0.7890750">
        <ele>465.8</ele>
        <time>2019-05-12T16:30:05Z</time>
      </trkpt>
      <trkpt lat="38.4932360" lon="-0.7893080">
        <ele>464.2</ele>
        <time>2019-05-12T16:30:08Z</time>
      </trkpt>
      <trkpt lat="38.4931770" lon="-0.7894750">
        <ele>462.8</ele>
        <time>2019-05-12T16:30:10Z</time>
      </trkpt>
      <trkpt lat="38.4931420" lon="-0.7895630">
        <ele>462.2</ele>
        <time>2019-05-12T16:30:11Z</time>
      </trkpt>
      <trkpt lat="38.4931060" lon="-0.7896530">
        <ele>461.4</ele>
        <time>2019-05-12T16:30:12Z</time>
      </trkpt>
      <trkpt lat="38.4930310" lon="-0.7898300">
        <ele>460.4</ele>
        <time>2019-05-12T16:30:14Z</time>
      </trkpt>
      <trkpt lat="38.4929660" lon="-0.7900000">
        <ele>458.8</ele>
        <time>2019-05-12T16:30:16Z</time>
      </trkpt>
      <trkpt lat="38.4929390" lon="-0.7900850">
        <ele>457.6</ele>
        <time>2019-05-12T16:30:17Z</time>
      </trkpt>
      <trkpt lat="38.4929120" lon="-0.7901750">
        <ele>456.6</ele>
        <time>2019-05-12T16:30:18Z</time>
      </trkpt>
      <trkpt lat="38.4928780" lon="-0.7902640">
        <ele>455.8</ele>
        <time>2019-05-12T16:30:19Z</time>
      </trkpt>
      <trkpt lat="38.4928360" lon="-0.7903510">
        <ele>455.2</ele>
        <time>2019-05-12T16:30:20Z</time>
      </trkpt>
      <trkpt lat="38.4927920" lon="-0.7904380">
        <ele>454.2</ele>
        <time>2019-05-12T16:30:21Z</time>
      </trkpt>
      <trkpt lat="38.4927530" lon="-0.7905260">
        <ele>453.6</ele>
        <time>2019-05-12T16:30:22Z</time>
      </trkpt>
      <trkpt lat="38.4927250" lon="-0.7906200">
        <ele>452.8</ele>
        <time>2019-05-12T16:30:23Z</time>
      </trkpt>
      <trkpt lat="38.4927010" lon="-0.7908190">
        <ele>452.6</ele>
        <time>2019-05-12T16:30:25Z</time>
      </trkpt>
      <trkpt lat="38.4926980" lon="-0.7909190">
        <ele>452.6</ele>
        <time>2019-05-12T16:30:26Z</time>
      </trkpt>
      <trkpt lat="38.4926920" lon="-0.7910170">
        <ele>452.4</ele>
        <time>2019-05-12T16:30:27Z</time>
      </trkpt>
      <trkpt lat="38.4926490" lon="-0.7912740">
        <ele>452.8</ele>
        <time>2019-05-12T16:30:30Z</time>
      </trkpt>
      <trkpt lat="38.4925900" lon="-0.7916010">
        <ele>452.2</ele>
        <time>2019-05-12T16:30:34Z</time>
      </trkpt>
      <trkpt lat="38.4925590" lon="-0.7917320">
        <ele>452.2</ele>
        <time>2019-05-12T16:30:36Z</time>
      </trkpt>
      <trkpt lat="38.4924620" lon="-0.7918290">
        <ele>452.2</ele>
        <time>2019-05-12T16:30:38Z</time>
      </trkpt>
      <trkpt lat="38.4924120" lon="-0.7918790">
        <ele>452.0</ele>
        <time>2019-05-12T16:30:39Z</time>
      </trkpt>
      <trkpt lat="38.4923690" lon="-0.7919260">
        <ele>451.8</ele>
        <time>2019-05-12T16:30:40Z</time>
      </trkpt>
      <trkpt lat="38.4923200" lon="-0.7919640">
        <ele>451.4</ele>
        <time>2019-05-12T16:30:41Z</time>
      </trkpt>
      <trkpt lat="38.4922750" lon="-0.7920140">
        <ele>450.8</ele>
        <time>2019-05-12T16:30:42Z</time>
      </trkpt>
      <trkpt lat="38.4922320" lon="-0.7920740">
        <ele>450.4</ele>
        <time>2019-05-12T16:30:43Z</time>
      </trkpt>
      <trkpt lat="38.4921830" lon="-0.7921270">
        <ele>449.8</ele>
        <time>2019-05-12T16:30:44Z</time>
      </trkpt>
      <trkpt lat="38.4921310" lon="-0.7921750">
        <ele>449.2</ele>
        <time>2019-05-12T16:30:45Z</time>
      </trkpt>
      <trkpt lat="38.4920780" lon="-0.7922140">
        <ele>449.4</ele>
        <time>2019-05-12T16:30:46Z</time>
      </trkpt>
      <trkpt lat="38.4920220" lon="-0.7922400">
        <ele>450.4</ele>
        <time>2019-05-12T16:30:47Z</time>
      </trkpt>
      <trkpt lat="38.4918390" lon="-0.7922760">
        <ele>450.6</ele>
        <time>2019-05-12T16:30:50Z</time>
      </trkpt>
      <trkpt lat="38.4917850" lon="-0.7922950">
        <ele>450.6</ele>
        <time>2019-05-12T16:30:51Z</time>
      </trkpt>
      <trkpt lat="38.4916400" lon="-0.7923630">
        <ele>451.4</ele>
        <time>2019-05-12T16:30:54Z</time>
      </trkpt>
      <trkpt lat="38.4915250" lon="-0.7923840">
        <ele>451.2</ele>
        <time>2019-05-12T16:30:56Z</time>
      </trkpt>
      <trkpt lat="38.4914040" lon="-0.7924040">
        <ele>450.2</ele>
        <time>2019-05-12T16:30:58Z</time>
      </trkpt>
      <trkpt lat="38.4912820" lon="-0.7924290">
        <ele>449.2</ele>
        <time>2019-05-12T16:31:00Z</time>
      </trkpt>
      <trkpt lat="38.4912210" lon="-0.7924370">
        <ele>448.8</ele>
        <time>2019-05-12T16:31:01Z</time>
      </trkpt>
      <trkpt lat="38.4910430" lon="-0.7924230">
        <ele>448.6</ele>
        <time>2019-05-12T16:31:04Z</time>
      </trkpt>
      <trkpt lat="38.4907890" lon="-0.7923700">
        <ele>449.8</ele>
        <time>2019-05-12T16:31:09Z</time>
      </trkpt>
      <trkpt lat="38.4907410" lon="-0.7923700">
        <ele>450.0</ele>
        <time>2019-05-12T16:31:10Z</time>
      </trkpt>
      <trkpt lat="38.4906940" lon="-0.7923720">
        <ele>450.4</ele>
        <time>2019-05-12T16:31:11Z</time>
      </trkpt>
      <trkpt lat="38.4905550" lon="-0.7923850">
        <ele>450.4</ele>
        <time>2019-05-12T16:31:14Z</time>
      </trkpt>
      <trkpt lat="38.4904740" lon="-0.7924210">
        <ele>451.2</ele>
        <time>2019-05-12T16:31:16Z</time>
      </trkpt>
      <trkpt lat="38.4904290" lon="-0.7924860">
        <ele>451.0</ele>
        <time>2019-05-12T16:31:18Z</time>
      </trkpt>
      <trkpt lat="38.4904170" lon="-0.7925280">
        <ele>451.2</ele>
        <time>2019-05-12T16:31:19Z</time>
      </trkpt>
      <trkpt lat="38.4904080" lon="-0.7925760">
        <ele>451.6</ele>
        <time>2019-05-12T16:31:20Z</time>
      </trkpt>
      <trkpt lat="38.4903830" lon="-0.7926780">
        <ele>452.0</ele>
        <time>2019-05-12T16:31:22Z</time>
      </trkpt>
      <trkpt lat="38.4903320" lon="-0.7929740">
        <ele>452.0</ele>
        <time>2019-05-12T16:31:28Z</time>
      </trkpt>
      <trkpt lat="38.4902570" lon="-0.7930630">
        <ele>452.6</ele>
        <time>2019-05-12T16:31:31Z</time>
      </trkpt>
      <trkpt lat="38.4902140" lon="-0.7930630">
        <ele>452.6</ele>
        <time>2019-05-12T16:31:32Z</time>
      </trkpt>
      <trkpt lat="38.4899880" lon="-0.7930200">
        <ele>450.4</ele>
        <time>2019-05-12T16:31:36Z</time>
      </trkpt>
      <trkpt lat="38.4899240" lon="-0.7930000">
        <ele>449.0</ele>
        <time>2019-05-12T16:31:37Z</time>
      </trkpt>
      <trkpt lat="38.4897540" lon="-0.7929320">
        <ele>448.6</ele>
        <time>2019-05-12T16:31:40Z</time>
      </trkpt>
      <trkpt lat="38.4897120" lon="-0.7929430">
        <ele>448.4</ele>
        <time>2019-05-12T16:31:41Z</time>
      </trkpt>
      <trkpt lat="38.4896680" lon="-0.7930780">
        <ele>449.2</ele>
        <time>2019-05-12T16:31:44Z</time>
      </trkpt>
      <trkpt lat="38.4896530" lon="-0.7932020">
        <ele>449.4</ele>
        <time>2019-05-12T16:31:46Z</time>
      </trkpt>
      <trkpt lat="38.4896520" lon="-0.7932670">
        <ele>449.0</ele>
        <time>2019-05-12T16:31:47Z</time>
      </trkpt>
      <trkpt lat="38.4896640" lon="-0.7934040">
        <ele>448.4</ele>
        <time>2019-05-12T16:31:49Z</time>
      </trkpt>
      <trkpt lat="38.4896670" lon="-0.7934750">
        <ele>448.4</ele>
        <time>2019-05-12T16:31:50Z</time>
      </trkpt>
      <trkpt lat="38.4896250" lon="-0.7936820">
        <ele>448.2</ele>
        <time>2019-05-12T16:31:53Z</time>
      </trkpt>
      <trkpt lat="38.4896020" lon="-0.7937500">
        <ele>448.2</ele>
        <time>2019-05-12T16:31:54Z</time>
      </trkpt>
      <trkpt lat="38.4895040" lon="-0.7939850">
        <ele>448.2</ele>
        <time>2019-05-12T16:31:58Z</time>
      </trkpt>
      <trkpt lat="38.4894750" lon="-0.7940330">
        <ele>448.0</ele>
        <time>2019-05-12T16:31:59Z</time>
      </trkpt>
      <trkpt lat="38.4893610" lon="-0.7942460">
        <ele>448.2</ele>
        <time>2019-05-12T16:32:03Z</time>
      </trkpt>
      <trkpt lat="38.4893400" lon="-0.7943120">
        <ele>447.8</ele>
        <time>2019-05-12T16:32:04Z</time>
      </trkpt>
      <trkpt lat="38.4893020" lon="-0.7945070">
        <ele>447.8</ele>
        <time>2019-05-12T16:32:07Z</time>
      </trkpt>
      <trkpt lat="38.4892740" lon="-0.7946420">
        <ele>447.8</ele>
        <time>2019-05-12T16:32:09Z</time>
      </trkpt>
      <trkpt lat="38.4892050" lon="-0.7949180">
        <ele>447.0</ele>
        <time>2019-05-12T16:32:13Z</time>
      </trkpt>
      <trkpt lat="38.4891890" lon="-0.7949900">
        <ele>446.8</ele>
        <time>2019-05-12T16:32:14Z</time>
      </trkpt>
      <trkpt lat="38.4891610" lon="-0.7951280">
        <ele>446.6</ele>
        <time>2019-05-12T16:32:16Z</time>
      </trkpt>
      <trkpt lat="38.4891020" lon="-0.7953220">
        <ele>446.4</ele>
        <time>2019-05-12T16:32:19Z</time>
      </trkpt>
      <trkpt lat="38.4890650" lon="-0.7954560">
        <ele>446.4</ele>
        <time>2019-05-12T16:32:21Z</time>
      </trkpt>
      <trkpt lat="38.4890430" lon="-0.7955190">
        <ele>446.4</ele>
        <time>2019-05-12T16:32:22Z</time>
      </trkpt>
      <trkpt lat="38.4889390" lon="-0.7957730">
        <ele>446.0</ele>
        <time>2019-05-12T16:32:26Z</time>
      </trkpt>
      <trkpt lat="38.4889080" lon="-0.7958360">
        <ele>446.0</ele>
        <time>2019-05-12T16:32:27Z</time>
      </trkpt>
      <trkpt lat="38.4887730" lon="-0.7960620">
        <ele>444.8</ele>
        <time>2019-05-12T16:32:31Z</time>
      </trkpt>
      <trkpt lat="38.4887360" lon="-0.7961060">
        <ele>444.6</ele>
        <time>2019-05-12T16:32:32Z</time>
      </trkpt>
      <trkpt lat="38.4886940" lon="-0.7961430">
        <ele>444.2</ele>
        <time>2019-05-12T16:32:33Z</time>
      </trkpt>
      <trkpt lat="38.4885110" lon="-0.7962910">
        <ele>445.0</ele>
        <time>2019-05-12T16:32:37Z</time>
      </trkpt>
      <trkpt lat="38.4884120" lon="-0.7963510">
        <ele>445.2</ele>
        <time>2019-05-12T16:32:39Z</time>
      </trkpt>
      <trkpt lat="38.4880720" lon="-0.7965020">
        <ele>444.0</ele>
        <time>2019-05-12T16:32:46Z</time>
      </trkpt>
      <trkpt lat="38.4878500" lon="-0.7965500">
        <ele>445.4</ele>
        <time>2019-05-12T16:32:51Z</time>
      </trkpt>
      <trkpt lat="38.4878290" lon="-0.7965230">
        <ele>445.6</ele>
        <time>2019-05-12T16:32:52Z</time>
      </trkpt>
      <trkpt lat="38.4878100" lon="-0.7964350">
        <ele>446.0</ele>
        <time>2019-05-12T16:32:54Z</time>
      </trkpt>
      <trkpt lat="38.4877980" lon="-0.7963790">
        <ele>446.6</ele>
        <time>2019-05-12T16:32:55Z</time>
      </trkpt>
      <trkpt lat="38.4877760" lon="-0.7963170">
        <ele>446.8</ele>
        <time>2019-05-12T16:32:56Z</time>
      </trkpt>
      <trkpt lat="38.4877090" lon="-0.7961200">
        <ele>445.6</ele>
        <time>2019-05-12T16:32:59Z</time>
      </trkpt>
      <trkpt lat="38.4875930" lon="-0.7956870">
        <ele>446.6</ele>
        <time>2019-05-12T16:33:06Z</time>
      </trkpt>
      <trkpt lat="38.4875590" lon="-0.7955730">
        <ele>447.2</ele>
        <time>2019-05-12T16:33:08Z</time>
      </trkpt>
      <trkpt lat="38.4874950" lon="-0.7953540">
        <ele>448.2</ele>
        <time>2019-05-12T16:33:12Z</time>
      </trkpt>
      <trkpt lat="38.4874780" lon="-0.7953030">
        <ele>448.4</ele>
        <time>2019-05-12T16:33:13Z</time>
      </trkpt>
      <trkpt lat="38.4874630" lon="-0.7952500">
        <ele>448.8</ele>
        <time>2019-05-12T16:33:14Z</time>
      </trkpt>
      <trkpt lat="38.4874180" lon="-0.7950950">
        <ele>449.6</ele>
        <time>2019-05-12T16:33:17Z</time>
      </trkpt>
      <trkpt lat="38.4873760" lon="-0.7949400">
        <ele>450.2</ele>
        <time>2019-05-12T16:33:20Z</time>
      </trkpt>
      <trkpt lat="38.4873350" lon="-0.7947820">
        <ele>450.8</ele>
        <time>2019-05-12T16:33:23Z</time>
      </trkpt>
      <trkpt lat="38.4872750" lon="-0.7945310">
        <ele>451.8</ele>
        <time>2019-05-12T16:33:28Z</time>
      </trkpt>
      <trkpt lat="38.4872640" lon="-0.7944840">
        <ele>452.0</ele>
        <time>2019-05-12T16:33:29Z</time>
      </trkpt>
      <trkpt lat="38.4872170" lon="-0.7943070">
        <ele>453.0</ele>
        <time>2019-05-12T16:33:33Z</time>
      </trkpt>
      <trkpt lat="38.4871970" lon="-0.7942200">
        <ele>453.6</ele>
        <time>2019-05-12T16:33:35Z</time>
      </trkpt>
      <trkpt lat="38.4871660" lon="-0.7941420">
        <ele>454.4</ele>
        <time>2019-05-12T16:33:37Z</time>
      </trkpt>
      <trkpt lat="38.4871240" lon="-0.7940720">
        <ele>455.4</ele>
        <time>2019-05-12T16:33:39Z</time>
      </trkpt>
      <trkpt lat="38.4871050" lon="-0.7940380">
        <ele>455.8</ele>
        <time>2019-05-12T16:33:40Z</time>
      </trkpt>
      <trkpt lat="38.4870580" lon="-0.7939820">
        <ele>456.4</ele>
        <time>2019-05-12T16:33:42Z</time>
      </trkpt>
      <trkpt lat="38.4869790" lon="-0.7939080">
        <ele>457.2</ele>
        <time>2019-05-12T16:33:45Z</time>
      </trkpt>
      <trkpt lat="38.4868680" lon="-0.7938420">
        <ele>457.4</ele>
        <time>2019-05-12T16:33:49Z</time>
      </trkpt>
      <trkpt lat="38.4868160" lon="-0.7938030">
        <ele>458.6</ele>
        <time>2019-05-12T16:33:51Z</time>
      </trkpt>
      <trkpt lat="38.4867720" lon="-0.7937420">
        <ele>459.6</ele>
        <time>2019-05-12T16:33:53Z</time>
      </trkpt>
      <trkpt lat="38.4867040" lon="-0.7936270">
        <ele>458.6</ele>
        <time>2019-05-12T16:33:56Z</time>
      </trkpt>
      <trkpt lat="38.4866120" lon="-0.7934920">
        <ele>457.4</ele>
        <time>2019-05-12T16:33:59Z</time>
      </trkpt>
      <trkpt lat="38.4865670" lon="-0.7933760">
        <ele>457.2</ele>
        <time>2019-05-12T16:34:01Z</time>
      </trkpt>
      <trkpt lat="38.4865540" lon="-0.7931840">
        <ele>458.8</ele>
        <time>2019-05-12T16:34:04Z</time>
      </trkpt>
      <trkpt lat="38.4865560" lon="-0.7931210">
        <ele>459.2</ele>
        <time>2019-05-12T16:34:05Z</time>
      </trkpt>
      <trkpt lat="38.4865550" lon="-0.7930580">
        <ele>459.2</ele>
        <time>2019-05-12T16:34:06Z</time>
      </trkpt>
      <trkpt lat="38.4865360" lon="-0.7928730">
        <ele>459.4</ele>
        <time>2019-05-12T16:34:09Z</time>
      </trkpt>
      <trkpt lat="38.4865140" lon="-0.7927540">
        <ele>459.8</ele>
        <time>2019-05-12T16:34:11Z</time>
      </trkpt>
      <trkpt lat="38.4864990" lon="-0.7926970">
        <ele>459.8</ele>
        <time>2019-05-12T16:34:12Z</time>
      </trkpt>
      <trkpt lat="38.4864400" lon="-0.7925410">
        <ele>459.2</ele>
        <time>2019-05-12T16:34:15Z</time>
      </trkpt>
      <trkpt lat="38.4863900" lon="-0.7924430">
        <ele>459.6</ele>
        <time>2019-05-12T16:34:17Z</time>
      </trkpt>
      <trkpt lat="38.4861490" lon="-0.7920980">
        <ele>460.2</ele>
        <time>2019-05-12T16:34:25Z</time>
      </trkpt>
      <trkpt lat="38.4860860" lon="-0.7920140">
        <ele>461.2</ele>
        <time>2019-05-12T16:34:27Z</time>
      </trkpt>
      <trkpt lat="38.4859170" lon="-0.7917910">
        <ele>462.2</ele>
        <time>2019-05-12T16:34:32Z</time>
      </trkpt>
      <trkpt lat="38.4858810" lon="-0.7917440">
        <ele>462.2</ele>
        <time>2019-05-12T16:34:33Z</time>
      </trkpt>
      <trkpt lat="38.4855910" lon="-0.7913620">
        <ele>462.8</ele>
        <time>2019-05-12T16:34:41Z</time>
      </trkpt>
      <trkpt lat="38.4855550" lon="-0.7913160">
        <ele>463.4</ele>
        <time>2019-05-12T16:34:42Z</time>
      </trkpt>
      <trkpt lat="38.4853510" lon="-0.7910430">
        <ele>464.4</ele>
        <time>2019-05-12T16:34:48Z</time>
      </trkpt>
      <trkpt lat="38.4852900" lon="-0.7909540">
        <ele>464.6</ele>
        <time>2019-05-12T16:34:50Z</time>
      </trkpt>
      <trkpt lat="38.4851430" lon="-0.7907400">
        <ele>465.4</ele>
        <time>2019-05-12T16:34:55Z</time>
      </trkpt>
      <trkpt lat="38.4850870" lon="-0.7906590">
        <ele>466.0</ele>
        <time>2019-05-12T16:34:57Z</time>
      </trkpt>
      <trkpt lat="38.4850310" lon="-0.7905800">
        <ele>466.4</ele>
        <time>2019-05-12T16:34:59Z</time>
      </trkpt>
      <trkpt lat="38.4849140" lon="-0.7904150">
        <ele>467.6</ele>
        <time>2019-05-12T16:35:03Z</time>
      </trkpt>
      <trkpt lat="38.4848250" lon="-0.7902850">
        <ele>468.4</ele>
        <time>2019-05-12T16:35:06Z</time>
      </trkpt>
      <trkpt lat="38.4847960" lon="-0.7902420">
        <ele>468.8</ele>
        <time>2019-05-12T16:35:07Z</time>
      </trkpt>
      <trkpt lat="38.4846600" lon="-0.7900170">
        <ele>469.4</ele>
        <time>2019-05-12T16:35:12Z</time>
      </trkpt>
      <trkpt lat="38.4846210" lon="-0.7899890">
        <ele>469.4</ele>
        <time>2019-05-12T16:35:13Z</time>
      </trkpt>
      <trkpt lat="38.4844790" lon="-0.7900130">
        <ele>469.4</ele>
        <time>2019-05-12T16:35:16Z</time>
      </trkpt>
      <trkpt lat="38.4843370" lon="-0.7900460">
        <ele>469.8</ele>
        <time>2019-05-12T16:35:19Z</time>
      </trkpt>
      <trkpt lat="38.4841920" lon="-0.7900750">
        <ele>470.4</ele>
        <time>2019-05-12T16:35:22Z</time>
      </trkpt>
      <trkpt lat="38.4838660" lon="-0.7901620">
        <ele>469.6</ele>
        <time>2019-05-12T16:35:28Z</time>
      </trkpt>
      <trkpt lat="38.4837520" lon="-0.7901990">
        <ele>468.8</ele>
        <time>2019-05-12T16:35:30Z</time>
      </trkpt>
      <trkpt lat="38.4835440" lon="-0.7902910">
        <ele>467.8</ele>
        <time>2019-05-12T16:35:34Z</time>
      </trkpt>
      <trkpt lat="38.4832610" lon="-0.7904180">
        <ele>468.8</ele>
        <time>2019-05-12T16:35:40Z</time>
      </trkpt>
      <trkpt lat="38.4832150" lon="-0.7904320">
        <ele>468.8</ele>
        <time>2019-05-12T16:35:41Z</time>
      </trkpt>
      <trkpt lat="38.4831170" lon="-0.7904660">
        <ele>469.2</ele>
        <time>2019-05-12T16:35:43Z</time>
      </trkpt>
      <trkpt lat="38.4829580" lon="-0.7905290">
        <ele>468.6</ele>
        <time>2019-05-12T16:35:46Z</time>
      </trkpt>
      <trkpt lat="38.4828360" lon="-0.7905740">
        <ele>466.2</ele>
        <time>2019-05-12T16:35:48Z</time>
      </trkpt>
      <trkpt lat="38.4826400" lon="-0.7906530">
        <ele>465.0</ele>
        <time>2019-05-12T16:35:51Z</time>
      </trkpt>
      <trkpt lat="38.4825720" lon="-0.7906870">
        <ele>464.6</ele>
        <time>2019-05-12T16:35:52Z</time>
      </trkpt>
      <trkpt lat="38.4825040" lon="-0.7907160">
        <ele>463.8</ele>
        <time>2019-05-12T16:35:53Z</time>
      </trkpt>
      <trkpt lat="38.4823580" lon="-0.7907690">
        <ele>462.2</ele>
        <time>2019-05-12T16:35:55Z</time>
      </trkpt>
      <trkpt lat="38.4822210" lon="-0.7908340">
        <ele>460.4</ele>
        <time>2019-05-12T16:35:57Z</time>
      </trkpt>
      <trkpt lat="38.4821540" lon="-0.7908660">
        <ele>459.4</ele>
        <time>2019-05-12T16:35:58Z</time>
      </trkpt>
      <trkpt lat="38.4820830" lon="-0.7908840">
        <ele>459.4</ele>
        <time>2019-05-12T16:35:59Z</time>
      </trkpt>
      <trkpt lat="38.4818790" lon="-0.7909300">
        <ele>460.0</ele>
        <time>2019-05-12T16:36:02Z</time>
      </trkpt>
      <trkpt lat="38.4816620" lon="-0.7909900">
        <ele>460.0</ele>
        <time>2019-05-12T16:36:05Z</time>
      </trkpt>
      <trkpt lat="38.4815880" lon="-0.7910090">
        <ele>460.0</ele>
        <time>2019-05-12T16:36:06Z</time>
      </trkpt>
      <trkpt lat="38.4814340" lon="-0.7910510">
        <ele>458.2</ele>
        <time>2019-05-12T16:36:08Z</time>
      </trkpt>
      <trkpt lat="38.4812040" lon="-0.7911380">
        <ele>457.6</ele>
        <time>2019-05-12T16:36:11Z</time>
      </trkpt>
      <trkpt lat="38.4810530" lon="-0.7912040">
        <ele>456.2</ele>
        <time>2019-05-12T16:36:13Z</time>
      </trkpt>
      <trkpt lat="38.4809420" lon="-0.7912590">
        <ele>455.0</ele>
        <time>2019-05-12T16:36:14Z</time>
      </trkpt>
      <trkpt lat="38.4808220" lon="-0.7913350">
        <ele>454.2</ele>
        <time>2019-05-12T16:36:16Z</time>
      </trkpt>
      <trkpt lat="38.4805860" lon="-0.7914730">
        <ele>453.2</ele>
        <time>2019-05-12T16:36:19Z</time>
      </trkpt>
      <trkpt lat="38.4804470" lon="-0.7915430">
        <ele>452.4</ele>
        <time>2019-05-12T16:36:21Z</time>
      </trkpt>
      <trkpt lat="38.4803200" lon="-0.7916740">
        <ele>453.6</ele>
        <time>2019-05-12T16:36:24Z</time>
      </trkpt>
      <trkpt lat="38.4801680" lon="-0.7919410">
        <ele>452.4</ele>
        <time>2019-05-12T16:36:28Z</time>
      </trkpt>
      <trkpt lat="38.4801380" lon="-0.7920170">
        <ele>452.2</ele>
        <time>2019-05-12T16:36:29Z</time>
      </trkpt>
      <trkpt lat="38.4800690" lon="-0.7921520">
        <ele>452.0</ele>
        <time>2019-05-12T16:36:31Z</time>
      </trkpt>
      <trkpt lat="38.4800260" lon="-0.7922040">
        <ele>451.8</ele>
        <time>2019-05-12T16:36:32Z</time>
      </trkpt>
      <trkpt lat="38.4799170" lon="-0.7922290">
        <ele>451.4</ele>
        <time>2019-05-12T16:36:34Z</time>
      </trkpt>
      <trkpt lat="38.4797440" lon="-0.7921000">
        <ele>451.4</ele>
        <time>2019-05-12T16:36:37Z</time>
      </trkpt>
      <trkpt lat="38.4796910" lon="-0.7920500">
        <ele>450.6</ele>
        <time>2019-05-12T16:36:38Z</time>
      </trkpt>
      <trkpt lat="38.4795310" lon="-0.7919030">
        <ele>450.2</ele>
        <time>2019-05-12T16:36:41Z</time>
      </trkpt>
      <trkpt lat="38.4794100" lon="-0.7918320">
        <ele>450.2</ele>
        <time>2019-05-12T16:36:43Z</time>
      </trkpt>
      <trkpt lat="38.4791710" lon="-0.7917090">
        <ele>449.6</ele>
        <time>2019-05-12T16:36:47Z</time>
      </trkpt>
      <trkpt lat="38.4789980" lon="-0.7916180">
        <ele>449.4</ele>
        <time>2019-05-12T16:36:50Z</time>
      </trkpt>
      <trkpt lat="38.4787390" lon="-0.7915040">
        <ele>448.4</ele>
        <time>2019-05-12T16:36:55Z</time>
      </trkpt>
      <trkpt lat="38.4786960" lon="-0.7914840">
        <ele>448.6</ele>
        <time>2019-05-12T16:36:56Z</time>
      </trkpt>
      <trkpt lat="38.4785920" lon="-0.7913980">
        <ele>449.4</ele>
        <time>2019-05-12T16:37:00Z</time>
      </trkpt>
      <trkpt lat="38.4785630" lon="-0.7913760">
        <ele>449.4</ele>
        <time>2019-05-12T16:37:01Z</time>
      </trkpt>
      <trkpt lat="38.4785260" lon="-0.7913550">
        <ele>449.6</ele>
        <time>2019-05-12T16:37:02Z</time>
      </trkpt>
      <trkpt lat="38.4784800" lon="-0.7913330">
        <ele>449.4</ele>
        <time>2019-05-12T16:37:03Z</time>
      </trkpt>
      <trkpt lat="38.4784350" lon="-0.7913100">
        <ele>449.2</ele>
        <time>2019-05-12T16:37:04Z</time>
      </trkpt>
      <trkpt lat="38.4783430" lon="-0.7912780">
        <ele>448.6</ele>
        <time>2019-05-12T16:37:06Z</time>
      </trkpt>
      <trkpt lat="38.4782950" lon="-0.7912690">
        <ele>448.2</ele>
        <time>2019-05-12T16:37:07Z</time>
      </trkpt>
      <trkpt lat="38.4782470" lon="-0.7912510">
        <ele>448.2</ele>
        <time>2019-05-12T16:37:08Z</time>
      </trkpt>
      <trkpt lat="38.4782050" lon="-0.7912240">
        <ele>448.0</ele>
        <time>2019-05-12T16:37:09Z</time>
      </trkpt>
      <trkpt lat="38.4780270" lon="-0.7911290">
        <ele>449.4</ele>
        <time>2019-05-12T16:37:13Z</time>
      </trkpt>
      <trkpt lat="38.4778920" lon="-0.7910490">
        <ele>449.4</ele>
        <time>2019-05-12T16:37:16Z</time>
      </trkpt>
      <trkpt lat="38.4778480" lon="-0.7910190">
        <ele>449.2</ele>
        <time>2019-05-12T16:37:17Z</time>
      </trkpt>
      <trkpt lat="38.4776190" lon="-0.7909030">
        <ele>449.0</ele>
        <time>2019-05-12T16:37:22Z</time>
      </trkpt>
      <trkpt lat="38.4775740" lon="-0.7908880">
        <ele>449.2</ele>
        <time>2019-05-12T16:37:23Z</time>
      </trkpt>
      <trkpt lat="38.4773960" lon="-0.7908260">
        <ele>449.2</ele>
        <time>2019-05-12T16:37:27Z</time>
      </trkpt>
      <trkpt lat="38.4773490" lon="-0.7908120">
        <ele>449.0</ele>
        <time>2019-05-12T16:37:28Z</time>
      </trkpt>
      <trkpt lat="38.4772080" lon="-0.7907660">
        <ele>449.0</ele>
        <time>2019-05-12T16:37:31Z</time>
      </trkpt>
      <trkpt lat="38.4771620" lon="-0.7907450">
        <ele>449.0</ele>
        <time>2019-05-12T16:37:32Z</time>
      </trkpt>
      <trkpt lat="38.4769760" lon="-0.7905540">
        <ele>449.8</ele>
        <time>2019-05-12T16:37:38Z</time>
      </trkpt>
      <trkpt lat="38.4770230" lon="-0.7903960">
        <ele>449.8</ele>
        <time>2019-05-12T16:37:41Z</time>
      </trkpt>
      <trkpt lat="38.4770970" lon="-0.7900800">
        <ele>450.4</ele>
        <time>2019-05-12T16:37:47Z</time>
      </trkpt>
      <trkpt lat="38.4770890" lon="-0.7900340">
        <ele>450.4</ele>
        <time>2019-05-12T16:37:48Z</time>
      </trkpt>
      <trkpt lat="38.4770140" lon="-0.7899960">
        <ele>450.6</ele>
        <time>2019-05-12T16:37:50Z</time>
      </trkpt>
      <trkpt lat="38.4769670" lon="-0.7899800">
        <ele>450.8</ele>
        <time>2019-05-12T16:37:51Z</time>
      </trkpt>
      <trkpt lat="38.4767820" lon="-0.7898970">
        <ele>449.8</ele>
        <time>2019-05-12T16:37:55Z</time>
      </trkpt>
      <trkpt lat="38.4767390" lon="-0.7898740">
        <ele>449.6</ele>
        <time>2019-05-12T16:37:56Z</time>
      </trkpt>
      <trkpt lat="38.4766600" lon="-0.7898310">
        <ele>449.2</ele>
        <time>2019-05-12T16:37:58Z</time>
      </trkpt>
      <trkpt lat="38.4766210" lon="-0.7898120">
        <ele>449.2</ele>
        <time>2019-05-12T16:37:59Z</time>
      </trkpt>
      <trkpt lat="38.4765210" lon="-0.7897690">
        <ele>449.0</ele>
        <time>2019-05-12T16:38:02Z</time>
      </trkpt>
      <trkpt lat="38.4764600" lon="-0.7897040">
        <ele>450.4</ele>
        <time>2019-05-12T16:39:19Z</time>
      </trkpt>
      <trkpt lat="38.4764150" lon="-0.7896310">
        <ele>450.0</ele>
        <time>2019-05-12T16:39:21Z</time>
      </trkpt>
      <trkpt lat="38.4763930" lon="-0.7894760">
        <ele>449.8</ele>
        <time>2019-05-12T16:39:24Z</time>
      </trkpt>
      <trkpt lat="38.4764360" lon="-0.7893340">
        <ele>449.6</ele>
        <time>2019-05-12T16:39:27Z</time>
      </trkpt>
      <trkpt lat="38.4764980" lon="-0.7891470">
        <ele>450.8</ele>
        <time>2019-05-12T16:39:31Z</time>
      </trkpt>
      <trkpt lat="38.4765260" lon="-0.7890140">
        <ele>451.6</ele>
        <time>2019-05-12T16:39:34Z</time>
      </trkpt>
      <trkpt lat="38.4765090" lon="-0.7889750">
        <ele>452.0</ele>
        <time>2019-05-12T16:39:35Z</time>
      </trkpt>
      <trkpt lat="38.4764820" lon="-0.7889450">
        <ele>452.0</ele>
        <time>2019-05-12T16:39:36Z</time>
      </trkpt>
      <trkpt lat="38.4763710" lon="-0.7888960">
        <ele>450.4</ele>
        <time>2019-05-12T16:39:39Z</time>
      </trkpt>
      <trkpt lat="38.4763320" lon="-0.7888790">
        <ele>450.4</ele>
        <time>2019-05-12T16:39:40Z</time>
      </trkpt>
      <trkpt lat="38.4762120" lon="-0.7888220">
        <ele>450.6</ele>
        <time>2019-05-12T16:39:43Z</time>
      </trkpt>
      <trkpt lat="38.4760490" lon="-0.7887580">
        <ele>450.8</ele>
        <time>2019-05-12T16:39:47Z</time>
      </trkpt>
      <trkpt lat="38.4758530" lon="-0.7886600">
        <ele>450.8</ele>
        <time>2019-05-12T16:39:53Z</time>
      </trkpt>
      <trkpt lat="38.4757970" lon="-0.7885340">
        <ele>451.0</ele>
        <time>2019-05-12T16:39:58Z</time>
      </trkpt>
      <trkpt lat="38.4758220" lon="-0.7884530">
        <ele>451.6</ele>
        <time>2019-05-12T16:40:01Z</time>
      </trkpt>
      <trkpt lat="38.4758260" lon="-0.7884390">
        <ele>451.6</ele>
        <time>2019-05-12T16:40:03Z</time>
      </trkpt>
    </trkseg>
  </trk>
</gpx>
